<?xml version='1.0' encoding='UTF-8'?><gpx version="1.1" creator="JPX - https://github.com/jenetics/jpx" xmlns="http://www.topografix.com/GPX/1/1"><trk><trkseg><trkpt lat="39.9489063" lon="-0.3056427"><ele>236.0</ele><time>2026-04-19T15:00:33.662Z</time></trkpt><trkpt lat="39.9489742" lon="-0.3056533"><ele>236.0</ele><time>2026-04-19T15:00:35.692Z</time></trkpt><trkpt lat="39.9490567" lon="-0.305695"><ele>236.0</ele><time>2026-04-19T15:00:37.78Z</time></trkpt><trkpt lat="39.9490542" lon="-0.3057968"><ele>236.0</ele><time>2026-04-19T15:00:40.852Z</time></trkpt><trkpt lat="39.9489999" lon="-0.3061279"><ele>236.0</ele><time>2026-04-19T15:00:41.999Z</time></trkpt><trkpt lat="39.9490029" lon="-0.3062344"><ele>236.00000000000003</ele><time>2026-04-19T15:00:43.999Z</time></trkpt><trkpt lat="39.9490885" lon="-0.306289"><ele>236.00000000000003</ele><time>2026-04-19T15:00:46.999Z</time></trkpt><trkpt lat="39.9492072" lon="-0.3063029"><ele>236.0</ele><time>2026-04-19T15:00:49Z</time></trkpt><trkpt lat="39.9493018" lon="-0.3062981"><ele>236.0</ele><time>2026-04-19T15:00:51Z</time></trkpt><trkpt lat="39.949369" lon="-0.3062781"><ele>236.00000000000003</ele><time>2026-04-19T15:00:52.999Z</time></trkpt><trkpt lat="39.9494119" lon="-0.3063585"><ele>236.0</ele><time>2026-04-19T15:00:56Z</time></trkpt><trkpt lat="39.9493637" lon="-0.3064679"><ele>236.0</ele><time>2026-04-19T15:00:57.999Z</time></trkpt><trkpt lat="39.9493108" lon="-0.3065237"><ele>236.0</ele><time>2026-04-19T15:00:58.999Z</time></trkpt><trkpt lat="39.9492554" lon="-0.3065925"><ele>236.00000000000003</ele><time>2026-04-19T15:00:59.999Z</time></trkpt><trkpt lat="39.9491957" lon="-0.3066811"><ele>236.0</ele><time>2026-04-19T15:01:00.999Z</time></trkpt><trkpt lat="39.9491342" lon="-0.3067763"><ele>236.0</ele><time>2026-04-19T15:01:02Z</time></trkpt><trkpt lat="39.9490704" lon="-0.3068842"><ele>236.0</ele><time>2026-04-19T15:01:02.999Z</time></trkpt><trkpt lat="39.9490128" lon="-0.3070074"><ele>236.0</ele><time>2026-04-19T15:01:04Z</time></trkpt><trkpt lat="39.9489697" lon="-0.3071488"><ele>236.0</ele><time>2026-04-19T15:01:05Z</time></trkpt><trkpt lat="39.9489418" lon="-0.3073035"><ele>236.0</ele><time>2026-04-19T15:01:05.999Z</time></trkpt><trkpt lat="39.9489181" lon="-0.3074671"><ele>236.0</ele><time>2026-04-19T15:01:06.999Z</time></trkpt><trkpt lat="39.9488947" lon="-0.3076375"><ele>236.0</ele><time>2026-04-19T15:01:07.999Z</time></trkpt><trkpt lat="39.9488686" lon="-0.3078121"><ele>236.0</ele><time>2026-04-19T15:01:08.999Z</time></trkpt><trkpt lat="39.9488411" lon="-0.3079959"><ele>235.75</ele><time>2026-04-19T15:01:09.999Z</time></trkpt><trkpt lat="39.9488097" lon="-0.308186"><ele>235.5</ele><time>2026-04-19T15:01:11Z</time></trkpt><trkpt lat="39.9487849" lon="-0.3083799"><ele>235.25</ele><time>2026-04-19T15:01:11.999Z</time></trkpt><trkpt lat="39.9487535" lon="-0.3085659"><ele>235.0</ele><time>2026-04-19T15:01:12.999Z</time></trkpt><trkpt lat="39.9487296" lon="-0.3087273"><ele>235.0</ele><time>2026-04-19T15:01:13.999Z</time></trkpt><trkpt lat="39.9487086" lon="-0.3088621"><ele>235.0</ele><time>2026-04-19T15:01:14.999Z</time></trkpt><trkpt lat="39.9486811" lon="-0.3089819"><ele>235.0</ele><time>2026-04-19T15:01:15.999Z</time></trkpt><trkpt lat="39.948648" lon="-0.3091035"><ele>235.0</ele><time>2026-04-19T15:01:17Z</time></trkpt><trkpt lat="39.9486079" lon="-0.3092165"><ele>235.0</ele><time>2026-04-19T15:01:17.999Z</time></trkpt><trkpt lat="39.9485239" lon="-0.30935"><ele>235.0</ele><time>2026-04-19T15:01:19Z</time></trkpt><trkpt lat="39.9484217" lon="-0.3094573"><ele>235.0</ele><time>2026-04-19T15:01:19.999Z</time></trkpt><trkpt lat="39.9483051" lon="-0.3095364"><ele>235.0</ele><time>2026-04-19T15:01:20.999Z</time></trkpt><trkpt lat="39.9481813" lon="-0.3096106"><ele>235.0</ele><time>2026-04-19T15:01:21.999Z</time></trkpt><trkpt lat="39.948064" lon="-0.3096811"><ele>236.25</ele><time>2026-04-19T15:01:22.999Z</time></trkpt><trkpt lat="39.9479484" lon="-0.3097485"><ele>237.5</ele><time>2026-04-19T15:01:23.999Z</time></trkpt><trkpt lat="39.9478286" lon="-0.3098061"><ele>238.75</ele><time>2026-04-19T15:01:24.999Z</time></trkpt><trkpt lat="39.9477009" lon="-0.3098455"><ele>240.0</ele><time>2026-04-19T15:01:25.999Z</time></trkpt><trkpt lat="39.9475679" lon="-0.3098646"><ele>240.75</ele><time>2026-04-19T15:01:26.999Z</time></trkpt><trkpt lat="39.9474308" lon="-0.30988"><ele>241.5</ele><time>2026-04-19T15:01:27.999Z</time></trkpt><trkpt lat="39.9473016" lon="-0.3098983"><ele>242.25</ele><time>2026-04-19T15:01:28.999Z</time></trkpt><trkpt lat="39.9471857" lon="-0.309924"><ele>243.0</ele><time>2026-04-19T15:01:30Z</time></trkpt><trkpt lat="39.9470807" lon="-0.3099505"><ele>243.0</ele><time>2026-04-19T15:01:30.999Z</time></trkpt><trkpt lat="39.9469846" lon="-0.3099736"><ele>243.0</ele><time>2026-04-19T15:01:31.999Z</time></trkpt><trkpt lat="39.9468989" lon="-0.3099981"><ele>243.0</ele><time>2026-04-19T15:01:32.999Z</time></trkpt><trkpt lat="39.9468106" lon="-0.3100253"><ele>243.0</ele><time>2026-04-19T15:01:33.999Z</time></trkpt><trkpt lat="39.9467184" lon="-0.3100587"><ele>243.0</ele><time>2026-04-19T15:01:34.999Z</time></trkpt><trkpt lat="39.9466276" lon="-0.3101052"><ele>244.5</ele><time>2026-04-19T15:01:36Z</time></trkpt><trkpt lat="39.9465422" lon="-0.3101603"><ele>246.0</ele><time>2026-04-19T15:01:36.999Z</time></trkpt><trkpt lat="39.9464866" lon="-0.3102268"><ele>247.5</ele><time>2026-04-19T15:01:37.999Z</time></trkpt><trkpt lat="39.946427" lon="-0.310289"><ele>249.0</ele><time>2026-04-19T15:01:38.999Z</time></trkpt><trkpt lat="39.9463136" lon="-0.3102802"><ele>250.5</ele><time>2026-04-19T15:01:41Z</time></trkpt><trkpt lat="39.9462642" lon="-0.3102103"><ele>252.0</ele><time>2026-04-19T15:01:41.999Z</time></trkpt><trkpt lat="39.9461959" lon="-0.3101193"><ele>252.0</ele><time>2026-04-19T15:01:43Z</time></trkpt><trkpt lat="39.9460969" lon="-0.3100341"><ele>252.0</ele><time>2026-04-19T15:01:43.999Z</time></trkpt><trkpt lat="39.9459649" lon="-0.3099663"><ele>252.0</ele><time>2026-04-19T15:01:45Z</time></trkpt><trkpt lat="39.9458161" lon="-0.3099298"><ele>252.0</ele><time>2026-04-19T15:01:46Z</time></trkpt><trkpt lat="39.9456656" lon="-0.3099279"><ele>252.25</ele><time>2026-04-19T15:01:46.999Z</time></trkpt><trkpt lat="39.9455188" lon="-0.309952"><ele>252.5</ele><time>2026-04-19T15:01:47.999Z</time></trkpt><trkpt lat="39.9453829" lon="-0.3099911"><ele>252.75</ele><time>2026-04-19T15:01:48.999Z</time></trkpt><trkpt lat="39.9452669" lon="-0.31006"><ele>253.0</ele><time>2026-04-19T15:01:49.999Z</time></trkpt><trkpt lat="39.945171" lon="-0.3101645"><ele>253.0</ele><time>2026-04-19T15:01:51Z</time></trkpt><trkpt lat="39.9450994" lon="-0.3102949"><ele>253.0</ele><time>2026-04-19T15:01:51.999Z</time></trkpt><trkpt lat="39.9450517" lon="-0.3104465"><ele>253.0</ele><time>2026-04-19T15:01:52.999Z</time></trkpt><trkpt lat="39.9450242" lon="-0.310606"><ele>253.0</ele><time>2026-04-19T15:01:53.999Z</time></trkpt><trkpt lat="39.9450131" lon="-0.3107743"><ele>251.75</ele><time>2026-04-19T15:01:54.999Z</time></trkpt><trkpt lat="39.9450167" lon="-0.3109452"><ele>250.5</ele><time>2026-04-19T15:01:56Z</time></trkpt><trkpt lat="39.9450454" lon="-0.3111168"><ele>249.25</ele><time>2026-04-19T15:01:56.999Z</time></trkpt><trkpt lat="39.9450901" lon="-0.3112801"><ele>248.0</ele><time>2026-04-19T15:01:57.999Z</time></trkpt><trkpt lat="39.9451546" lon="-0.3114351"><ele>248.0</ele><time>2026-04-19T15:01:58.999Z</time></trkpt><trkpt lat="39.9452401" lon="-0.3115772"><ele>248.0</ele><time>2026-04-19T15:01:59.999Z</time></trkpt><trkpt lat="39.945344" lon="-0.3116966"><ele>248.0</ele><time>2026-04-19T15:02:00.999Z</time></trkpt><trkpt lat="39.9455052" lon="-0.3118456"><ele>248.0</ele><time>2026-04-19T15:02:02.979Z</time></trkpt><trkpt lat="39.9456628" lon="-0.3119895"><ele>248.0</ele><time>2026-04-19T15:02:03.999Z</time></trkpt><trkpt lat="39.9457415" lon="-0.312096"><ele>248.0</ele><time>2026-04-19T15:02:04.999Z</time></trkpt><trkpt lat="39.9457975" lon="-0.3122241"><ele>248.0</ele><time>2026-04-19T15:02:05.999Z</time></trkpt><trkpt lat="39.9458188" lon="-0.3123748"><ele>250.5</ele><time>2026-04-19T15:02:07Z</time></trkpt><trkpt lat="39.9458119" lon="-0.3125223"><ele>253.0</ele><time>2026-04-19T15:02:07.999Z</time></trkpt><trkpt lat="39.9457714" lon="-0.3126701"><ele>255.5</ele><time>2026-04-19T15:02:08.999Z</time></trkpt><trkpt lat="39.9456983" lon="-0.3128032"><ele>258.0</ele><time>2026-04-19T15:02:10Z</time></trkpt><trkpt lat="39.9456007" lon="-0.3129146"><ele>258.0</ele><time>2026-04-19T15:02:10.999Z</time></trkpt><trkpt lat="39.9454706" lon="-0.3130031"><ele>258.0</ele><time>2026-04-19T15:02:11.999Z</time></trkpt><trkpt lat="39.9453215" lon="-0.3130591"><ele>258.0</ele><time>2026-04-19T15:02:12.999Z</time></trkpt><trkpt lat="39.945154" lon="-0.3130984"><ele>258.0</ele><time>2026-04-19T15:02:13.999Z</time></trkpt><trkpt lat="39.9449756" lon="-0.3131408"><ele>258.0</ele><time>2026-04-19T15:02:14.999Z</time></trkpt><trkpt lat="39.9448009" lon="-0.3131937"><ele>258.0</ele><time>2026-04-19T15:02:15.999Z</time></trkpt><trkpt lat="39.9446264" lon="-0.3132802"><ele>258.0</ele><time>2026-04-19T15:02:16.999Z</time></trkpt><trkpt lat="39.9444585" lon="-0.3134012"><ele>258.0</ele><time>2026-04-19T15:02:17.999Z</time></trkpt><trkpt lat="39.9442859" lon="-0.3135396"><ele>258.0</ele><time>2026-04-19T15:02:18.999Z</time></trkpt><trkpt lat="39.9441164" lon="-0.3136909"><ele>258.0</ele><time>2026-04-19T15:02:20Z</time></trkpt><trkpt lat="39.9439436" lon="-0.3138518"><ele>258.0</ele><time>2026-04-19T15:02:21Z</time></trkpt><trkpt lat="39.9437756" lon="-0.3140136"><ele>258.0</ele><time>2026-04-19T15:02:21.999Z</time></trkpt><trkpt lat="39.9436142" lon="-0.3141825"><ele>258.0</ele><time>2026-04-19T15:02:23Z</time></trkpt><trkpt lat="39.9434622" lon="-0.314358"><ele>258.0</ele><time>2026-04-19T15:02:24Z</time></trkpt><trkpt lat="39.9433149" lon="-0.3145441"><ele>258.0</ele><time>2026-04-19T15:02:25Z</time></trkpt><trkpt lat="39.9431731" lon="-0.3147395"><ele>259.0</ele><time>2026-04-19T15:02:25.999Z</time></trkpt><trkpt lat="39.9430352" lon="-0.3149405"><ele>260.0</ele><time>2026-04-19T15:02:26.999Z</time></trkpt><trkpt lat="39.9428952" lon="-0.3151412"><ele>261.0</ele><time>2026-04-19T15:02:28Z</time></trkpt><trkpt lat="39.9427583" lon="-0.3153446"><ele>261.0</ele><time>2026-04-19T15:02:28.999Z</time></trkpt><trkpt lat="39.942619" lon="-0.3155431"><ele>261.0</ele><time>2026-04-19T15:02:29.999Z</time></trkpt><trkpt lat="39.9424839" lon="-0.3157367"><ele>261.0</ele><time>2026-04-19T15:02:30.999Z</time></trkpt><trkpt lat="39.9423597" lon="-0.3159196"><ele>262.3333333333333</ele><time>2026-04-19T15:02:31.999Z</time></trkpt><trkpt lat="39.9422484" lon="-0.3160814"><ele>263.66666666666663</ele><time>2026-04-19T15:02:33Z</time></trkpt><trkpt lat="39.9421475" lon="-0.3162292"><ele>265.0</ele><time>2026-04-19T15:02:33.999Z</time></trkpt><trkpt lat="39.9420546" lon="-0.3163684"><ele>264.0</ele><time>2026-04-19T15:02:34.999Z</time></trkpt><trkpt lat="39.9419808" lon="-0.3165132"><ele>263.0</ele><time>2026-04-19T15:02:35.999Z</time></trkpt><trkpt lat="39.9419267" lon="-0.3166716"><ele>262.0</ele><time>2026-04-19T15:02:36.999Z</time></trkpt><trkpt lat="39.9419103" lon="-0.3168421"><ele>261.0</ele><time>2026-04-19T15:02:37.999Z</time></trkpt><trkpt lat="39.941912" lon="-0.317023"><ele>261.0</ele><time>2026-04-19T15:02:38.999Z</time></trkpt><trkpt lat="39.9419213" lon="-0.3172124"><ele>261.0</ele><time>2026-04-19T15:02:40Z</time></trkpt><trkpt lat="39.9419166" lon="-0.3174067"><ele>261.0</ele><time>2026-04-19T15:02:41Z</time></trkpt><trkpt lat="39.9418978" lon="-0.3176098"><ele>260.5</ele><time>2026-04-19T15:02:41.999Z</time></trkpt><trkpt lat="39.9418875" lon="-0.3178182"><ele>260.0</ele><time>2026-04-19T15:02:43Z</time></trkpt><trkpt lat="39.9419014" lon="-0.3182762"><ele>261.5</ele><time>2026-04-19T15:02:44.999Z</time></trkpt><trkpt lat="39.9419279" lon="-0.31851"><ele>263.0</ele><time>2026-04-19T15:02:45.999Z</time></trkpt><trkpt lat="39.9420122" lon="-0.3190846"><ele>264.0</ele><time>2026-04-19T15:02:48.948Z</time></trkpt><trkpt lat="39.9420745" lon="-0.3194801"><ele>265.0</ele><time>2026-04-19T15:02:50Z</time></trkpt><trkpt lat="39.94211" lon="-0.3197189"><ele>267.66666666666663</ele><time>2026-04-19T15:02:50.999Z</time></trkpt><trkpt lat="39.9421273" lon="-0.3199508"><ele>270.3333333333333</ele><time>2026-04-19T15:02:52Z</time></trkpt><trkpt lat="39.9421208" lon="-0.3201887"><ele>273.0</ele><time>2026-04-19T15:02:52.999Z</time></trkpt><trkpt lat="39.9420873" lon="-0.3204204"><ele>272.3333333333333</ele><time>2026-04-19T15:02:53.999Z</time></trkpt><trkpt lat="39.9420265" lon="-0.3206574"><ele>271.66666666666663</ele><time>2026-04-19T15:02:54.999Z</time></trkpt><trkpt lat="39.9419608" lon="-0.3209013"><ele>271.0</ele><time>2026-04-19T15:02:55.999Z</time></trkpt><trkpt lat="39.9418856" lon="-0.3211486"><ele>271.66666666666663</ele><time>2026-04-19T15:02:57Z</time></trkpt><trkpt lat="39.9418062" lon="-0.3214136"><ele>272.3333333333333</ele><time>2026-04-19T15:02:57.999Z</time></trkpt><trkpt lat="39.9417241" lon="-0.3216782"><ele>273.0</ele><time>2026-04-19T15:02:59Z</time></trkpt><trkpt lat="39.9416467" lon="-0.3219497"><ele>273.0</ele><time>2026-04-19T15:02:59.999Z</time></trkpt><trkpt lat="39.9415674" lon="-0.3222193"><ele>273.0</ele><time>2026-04-19T15:03:01Z</time></trkpt><trkpt lat="39.941492" lon="-0.3224873"><ele>273.0</ele><time>2026-04-19T15:03:01.999Z</time></trkpt><trkpt lat="39.9414138" lon="-0.3227466"><ele>278.0</ele><time>2026-04-19T15:03:02.999Z</time></trkpt><trkpt lat="39.9413371" lon="-0.3229951"><ele>283.0</ele><time>2026-04-19T15:03:03.999Z</time></trkpt><trkpt lat="39.9412635" lon="-0.3232354"><ele>288.0</ele><time>2026-04-19T15:03:04.999Z</time></trkpt><trkpt lat="39.9411953" lon="-0.3234711"><ele>292.3333333333333</ele><time>2026-04-19T15:03:05.999Z</time></trkpt><trkpt lat="39.9411391" lon="-0.3237077"><ele>296.66666666666663</ele><time>2026-04-19T15:03:07Z</time></trkpt><trkpt lat="39.9410939" lon="-0.3239394"><ele>301.0</ele><time>2026-04-19T15:03:07.999Z</time></trkpt><trkpt lat="39.9410518" lon="-0.3241703"><ele>298.66666666666663</ele><time>2026-04-19T15:03:08.999Z</time></trkpt><trkpt lat="39.9410003" lon="-0.3243965"><ele>296.3333333333333</ele><time>2026-04-19T15:03:10Z</time></trkpt><trkpt lat="39.9409408" lon="-0.3246144"><ele>294.0</ele><time>2026-04-19T15:03:10.999Z</time></trkpt><trkpt lat="39.940863" lon="-0.3248319"><ele>294.0</ele><time>2026-04-19T15:03:11.999Z</time></trkpt><trkpt lat="39.9407889" lon="-0.3250428"><ele>294.0</ele><time>2026-04-19T15:03:12.999Z</time></trkpt><trkpt lat="39.9407095" lon="-0.3252196"><ele>294.0</ele><time>2026-04-19T15:03:13.999Z</time></trkpt><trkpt lat="39.9406494" lon="-0.3253975"><ele>294.75</ele><time>2026-04-19T15:03:14.999Z</time></trkpt><trkpt lat="39.9406162" lon="-0.3255852"><ele>295.5</ele><time>2026-04-19T15:03:15.999Z</time></trkpt><trkpt lat="39.9406071" lon="-0.3257717"><ele>296.25</ele><time>2026-04-19T15:03:17Z</time></trkpt><trkpt lat="39.9406257" lon="-0.3259585"><ele>297.0</ele><time>2026-04-19T15:03:17.999Z</time></trkpt><trkpt lat="39.940652" lon="-0.3261536"><ele>297.0</ele><time>2026-04-19T15:03:18.999Z</time></trkpt><trkpt lat="39.9406592" lon="-0.3263515"><ele>297.0</ele><time>2026-04-19T15:03:19.999Z</time></trkpt><trkpt lat="39.940654" lon="-0.3265328"><ele>297.0</ele><time>2026-04-19T15:03:20.999Z</time></trkpt><trkpt lat="39.9406637" lon="-0.326712"><ele>297.0</ele><time>2026-04-19T15:03:22Z</time></trkpt><trkpt lat="39.9406983" lon="-0.3268794"><ele>297.75</ele><time>2026-04-19T15:03:23Z</time></trkpt><trkpt lat="39.9407443" lon="-0.3270358"><ele>298.5</ele><time>2026-04-19T15:03:24Z</time></trkpt><trkpt lat="39.9407779" lon="-0.3271893"><ele>299.25</ele><time>2026-04-19T15:03:24.999Z</time></trkpt><trkpt lat="39.9407936" lon="-0.3273533"><ele>300.0</ele><time>2026-04-19T15:03:25.999Z</time></trkpt><trkpt lat="39.9407898" lon="-0.3275312"><ele>301.75</ele><time>2026-04-19T15:03:27Z</time></trkpt><trkpt lat="39.9407656" lon="-0.3277108"><ele>303.5</ele><time>2026-04-19T15:03:27.999Z</time></trkpt><trkpt lat="39.940719" lon="-0.3278892"><ele>305.25</ele><time>2026-04-19T15:03:29Z</time></trkpt><trkpt lat="39.9406517" lon="-0.3280646"><ele>307.0</ele><time>2026-04-19T15:03:29.999Z</time></trkpt><trkpt lat="39.9405767" lon="-0.3282383"><ele>310.25</ele><time>2026-04-19T15:03:31Z</time></trkpt><trkpt lat="39.9405118" lon="-0.3284143"><ele>313.5</ele><time>2026-04-19T15:03:32Z</time></trkpt><trkpt lat="39.9404615" lon="-0.3285829"><ele>316.75</ele><time>2026-04-19T15:03:32.999Z</time></trkpt><trkpt lat="39.9404328" lon="-0.3287528"><ele>320.0</ele><time>2026-04-19T15:03:34Z</time></trkpt><trkpt lat="39.940424" lon="-0.3289238"><ele>321.75</ele><time>2026-04-19T15:03:35Z</time></trkpt><trkpt lat="39.9404211" lon="-0.3290861"><ele>323.5</ele><time>2026-04-19T15:03:35.999Z</time></trkpt><trkpt lat="39.9403897" lon="-0.3292409"><ele>325.25</ele><time>2026-04-19T15:03:36.999Z</time></trkpt><trkpt lat="39.9403295" lon="-0.3293816"><ele>327.0</ele><time>2026-04-19T15:03:38Z</time></trkpt><trkpt lat="39.9402472" lon="-0.3295105"><ele>327.0</ele><time>2026-04-19T15:03:39Z</time></trkpt><trkpt lat="39.9401453" lon="-0.32962"><ele>327.0</ele><time>2026-04-19T15:03:39.999Z</time></trkpt><trkpt lat="39.9400316" lon="-0.3297033"><ele>327.0</ele><time>2026-04-19T15:03:40.999Z</time></trkpt><trkpt lat="39.9398985" lon="-0.3297517"><ele>327.0</ele><time>2026-04-19T15:03:41.999Z</time></trkpt><trkpt lat="39.9397661" lon="-0.329777"><ele>323.5</ele><time>2026-04-19T15:03:42.999Z</time></trkpt><trkpt lat="39.939636" lon="-0.3298382"><ele>320.0</ele><time>2026-04-19T15:03:43.999Z</time></trkpt><trkpt lat="39.9395159" lon="-0.329925"><ele>316.5</ele><time>2026-04-19T15:03:44.999Z</time></trkpt><trkpt lat="39.9393891" lon="-0.3300094"><ele>313.0</ele><time>2026-04-19T15:03:45.999Z</time></trkpt><trkpt lat="39.9392522" lon="-0.3300554"><ele>313.75</ele><time>2026-04-19T15:03:46.999Z</time></trkpt><trkpt lat="39.9391104" lon="-0.3300543"><ele>314.5</ele><time>2026-04-19T15:03:48Z</time></trkpt><trkpt lat="39.9389629" lon="-0.3300239"><ele>315.25</ele><time>2026-04-19T15:03:48.999Z</time></trkpt><trkpt lat="39.938814" lon="-0.3299801"><ele>316.0</ele><time>2026-04-19T15:03:49.999Z</time></trkpt><trkpt lat="39.9385837" lon="-0.3299533"><ele>319.0</ele><time>2026-04-19T15:03:51.97Z</time></trkpt><trkpt lat="39.9383172" lon="-0.3299799"><ele>322.0</ele><time>2026-04-19T15:03:52.999Z</time></trkpt><trkpt lat="39.9381421" lon="-0.3300264"><ele>325.0</ele><time>2026-04-19T15:03:53.999Z</time></trkpt><trkpt lat="39.9379821" lon="-0.3300932"><ele>325.0</ele><time>2026-04-19T15:03:54.999Z</time></trkpt><trkpt lat="39.9378459" lon="-0.33017"><ele>325.0</ele><time>2026-04-19T15:03:55.999Z</time></trkpt><trkpt lat="39.9377397" lon="-0.3302631"><ele>325.0</ele><time>2026-04-19T15:03:56.999Z</time></trkpt><trkpt lat="39.9376477" lon="-0.330375"><ele>325.0</ele><time>2026-04-19T15:03:58Z</time></trkpt><trkpt lat="39.9375887" lon="-0.330517"><ele>324.75</ele><time>2026-04-19T15:03:58.999Z</time></trkpt><trkpt lat="39.9375572" lon="-0.3306801"><ele>324.5</ele><time>2026-04-19T15:03:59.999Z</time></trkpt><trkpt lat="39.9375562" lon="-0.3308493"><ele>324.25</ele><time>2026-04-19T15:04:00.999Z</time></trkpt><trkpt lat="39.9375601" lon="-0.331033"><ele>324.0</ele><time>2026-04-19T15:04:01.999Z</time></trkpt><trkpt lat="39.9375442" lon="-0.3312328"><ele>329.0</ele><time>2026-04-19T15:04:02.999Z</time></trkpt><trkpt lat="39.9374875" lon="-0.3314345"><ele>334.0</ele><time>2026-04-19T15:04:03.999Z</time></trkpt><trkpt lat="39.9374087" lon="-0.3316331"><ele>339.0</ele><time>2026-04-19T15:04:04.999Z</time></trkpt><trkpt lat="39.9373387" lon="-0.3318164"><ele>339.0</ele><time>2026-04-19T15:04:05.999Z</time></trkpt><trkpt lat="39.9372654" lon="-0.3319758"><ele>339.0</ele><time>2026-04-19T15:04:06.999Z</time></trkpt><trkpt lat="39.9371786" lon="-0.3321056"><ele>339.0</ele><time>2026-04-19T15:04:07.999Z</time></trkpt><trkpt lat="39.9370884" lon="-0.332199"><ele>339.0</ele><time>2026-04-19T15:04:09Z</time></trkpt><trkpt lat="39.9370018" lon="-0.3322806"><ele>341.6666666666667</ele><time>2026-04-19T15:04:10Z</time></trkpt><trkpt lat="39.9369374" lon="-0.3323634"><ele>344.3333333333333</ele><time>2026-04-19T15:04:10.999Z</time></trkpt><trkpt lat="39.936892" lon="-0.3324442"><ele>347.0</ele><time>2026-04-19T15:04:12Z</time></trkpt><trkpt lat="39.9368921" lon="-0.3325499"><ele>349.66666666666663</ele><time>2026-04-19T15:04:12.999Z</time></trkpt><trkpt lat="39.9369211" lon="-0.332648"><ele>352.3333333333333</ele><time>2026-04-19T15:04:13.999Z</time></trkpt><trkpt lat="39.9369799" lon="-0.3327506"><ele>355.0</ele><time>2026-04-19T15:04:14.999Z</time></trkpt><trkpt lat="39.9370564" lon="-0.3328644"><ele>355.0</ele><time>2026-04-19T15:04:15.999Z</time></trkpt><trkpt lat="39.9371438" lon="-0.3329956"><ele>355.0</ele><time>2026-04-19T15:04:16.999Z</time></trkpt><trkpt lat="39.937239" lon="-0.3331273"><ele>355.0</ele><time>2026-04-19T15:04:17.999Z</time></trkpt><trkpt lat="39.9373458" lon="-0.3332562"><ele>355.0</ele><time>2026-04-19T15:04:18.999Z</time></trkpt><trkpt lat="39.9374576" lon="-0.33337"><ele>353.4</ele><time>2026-04-19T15:04:19.999Z</time></trkpt><trkpt lat="39.9375512" lon="-0.3334745"><ele>351.8</ele><time>2026-04-19T15:04:20.999Z</time></trkpt><trkpt lat="39.9376309" lon="-0.3335736"><ele>350.20000000000005</ele><time>2026-04-19T15:04:21.999Z</time></trkpt><trkpt lat="39.9376767" lon="-0.3336859"><ele>348.6</ele><time>2026-04-19T15:04:22.999Z</time></trkpt><trkpt lat="39.9376803" lon="-0.3338076"><ele>347.0</ele><time>2026-04-19T15:04:24Z</time></trkpt><trkpt lat="39.9376459" lon="-0.3339315"><ele>345.75</ele><time>2026-04-19T15:04:24.999Z</time></trkpt><trkpt lat="39.9375785" lon="-0.3340425"><ele>344.5</ele><time>2026-04-19T15:04:25.999Z</time></trkpt><trkpt lat="39.9375015" lon="-0.3341575"><ele>343.25</ele><time>2026-04-19T15:04:26.999Z</time></trkpt><trkpt lat="39.9374254" lon="-0.3342777"><ele>342.0</ele><time>2026-04-19T15:04:28Z</time></trkpt><trkpt lat="39.9373453" lon="-0.3343989"><ele>342.0</ele><time>2026-04-19T15:04:28.999Z</time></trkpt><trkpt lat="39.9372644" lon="-0.3345175"><ele>342.0</ele><time>2026-04-19T15:04:29.999Z</time></trkpt><trkpt lat="39.9371719" lon="-0.3346246"><ele>342.0</ele><time>2026-04-19T15:04:30.999Z</time></trkpt><trkpt lat="39.9370646" lon="-0.3347123"><ele>342.0</ele><time>2026-04-19T15:04:31.999Z</time></trkpt><trkpt lat="39.936946" lon="-0.3347834"><ele>343.5</ele><time>2026-04-19T15:04:32.999Z</time></trkpt><trkpt lat="39.9368168" lon="-0.3348547"><ele>345.0</ele><time>2026-04-19T15:04:33.999Z</time></trkpt><trkpt lat="39.9366836" lon="-0.3349341"><ele>346.5</ele><time>2026-04-19T15:04:34.999Z</time></trkpt><trkpt lat="39.9365544" lon="-0.3350285"><ele>348.0</ele><time>2026-04-19T15:04:36Z</time></trkpt><trkpt lat="39.9364391" lon="-0.3351177"><ele>348.0</ele><time>2026-04-19T15:04:36.999Z</time></trkpt><trkpt lat="39.9363296" lon="-0.3351867"><ele>348.0</ele><time>2026-04-19T15:04:37.999Z</time></trkpt><trkpt lat="39.9362185" lon="-0.335223"><ele>348.0</ele><time>2026-04-19T15:04:38.999Z</time></trkpt><trkpt lat="39.9361079" lon="-0.3352064"><ele>348.0</ele><time>2026-04-19T15:04:40Z</time></trkpt><trkpt lat="39.9359969" lon="-0.3351516"><ele>346.75</ele><time>2026-04-19T15:04:40.999Z</time></trkpt><trkpt lat="39.9358771" lon="-0.3350861"><ele>345.5</ele><time>2026-04-19T15:04:41.999Z</time></trkpt><trkpt lat="39.9357411" lon="-0.3350246"><ele>344.25</ele><time>2026-04-19T15:04:42.999Z</time></trkpt><trkpt lat="39.9356097" lon="-0.3349796"><ele>343.0</ele><time>2026-04-19T15:04:43.999Z</time></trkpt><trkpt lat="39.9354896" lon="-0.3349497"><ele>343.0</ele><time>2026-04-19T15:04:44.999Z</time></trkpt><trkpt lat="39.935376" lon="-0.334944"><ele>343.0</ele><time>2026-04-19T15:04:46Z</time></trkpt><trkpt lat="39.9352687" lon="-0.3349324"><ele>343.0</ele><time>2026-04-19T15:04:46.999Z</time></trkpt><trkpt lat="39.9351936" lon="-0.3350225"><ele>343.0</ele><time>2026-04-19T15:04:48Z</time></trkpt><trkpt lat="39.9351139" lon="-0.3351241"><ele>343.0</ele><time>2026-04-19T15:04:49Z</time></trkpt><trkpt lat="39.9350411" lon="-0.3352428"><ele>339.0</ele><time>2026-04-19T15:04:50Z</time></trkpt><trkpt lat="39.9349506" lon="-0.3353708"><ele>335.0</ele><time>2026-04-19T15:04:51Z</time></trkpt><trkpt lat="39.9348445" lon="-0.335496"><ele>331.0</ele><time>2026-04-19T15:04:52Z</time></trkpt><trkpt lat="39.9344964" lon="-0.3357203"><ele>337.0</ele><time>2026-04-19T15:04:55.146Z</time></trkpt><trkpt lat="39.9341062" lon="-0.3358012"><ele>343.0</ele><time>2026-04-19T15:04:57Z</time></trkpt><trkpt lat="39.933953" lon="-0.3358388"><ele>343.0</ele><time>2026-04-19T15:04:57.999Z</time></trkpt><trkpt lat="39.933805" lon="-0.3358858"><ele>343.0</ele><time>2026-04-19T15:04:58.999Z</time></trkpt><trkpt lat="39.9336759" lon="-0.3359545"><ele>343.0</ele><time>2026-04-19T15:04:59.999Z</time></trkpt><trkpt lat="39.9335708" lon="-0.3360543"><ele>343.0</ele><time>2026-04-19T15:05:00.999Z</time></trkpt><trkpt lat="39.9334742" lon="-0.3361793"><ele>343.0</ele><time>2026-04-19T15:05:01.999Z</time></trkpt><trkpt lat="39.9334056" lon="-0.3363303"><ele>343.0</ele><time>2026-04-19T15:05:02.999Z</time></trkpt><trkpt lat="39.9333532" lon="-0.3365004"><ele>343.0</ele><time>2026-04-19T15:05:03.999Z</time></trkpt><trkpt lat="39.9333091" lon="-0.3366725"><ele>343.0</ele><time>2026-04-19T15:05:04.999Z</time></trkpt><trkpt lat="39.9332598" lon="-0.3368223"><ele>345.0</ele><time>2026-04-19T15:05:05.999Z</time></trkpt><trkpt lat="39.9331957" lon="-0.3369644"><ele>347.0</ele><time>2026-04-19T15:05:06.999Z</time></trkpt><trkpt lat="39.9331149" lon="-0.3370876"><ele>349.0</ele><time>2026-04-19T15:05:07.999Z</time></trkpt><trkpt lat="39.9330193" lon="-0.3372044"><ele>351.0</ele><time>2026-04-19T15:05:08.999Z</time></trkpt><trkpt lat="39.9329147" lon="-0.3373146"><ele>351.5</ele><time>2026-04-19T15:05:09.999Z</time></trkpt><trkpt lat="39.9328084" lon="-0.3374246"><ele>352.0</ele><time>2026-04-19T15:05:10.999Z</time></trkpt><trkpt lat="39.9327001" lon="-0.337513"><ele>352.5</ele><time>2026-04-19T15:05:11.999Z</time></trkpt><trkpt lat="39.9325822" lon="-0.3375593"><ele>353.0</ele><time>2026-04-19T15:05:12.999Z</time></trkpt><trkpt lat="39.9324488" lon="-0.3375775"><ele>353.0</ele><time>2026-04-19T15:05:14Z</time></trkpt><trkpt lat="39.9323182" lon="-0.3375795"><ele>353.0</ele><time>2026-04-19T15:05:14.999Z</time></trkpt><trkpt lat="39.9321816" lon="-0.3375731"><ele>353.0</ele><time>2026-04-19T15:05:15.999Z</time></trkpt><trkpt lat="39.932031" lon="-0.3375673"><ele>353.0</ele><time>2026-04-19T15:05:16.999Z</time></trkpt><trkpt lat="39.931883" lon="-0.3375445"><ele>353.0</ele><time>2026-04-19T15:05:18Z</time></trkpt><trkpt lat="39.9317313" lon="-0.3375038"><ele>353.0</ele><time>2026-04-19T15:05:18.999Z</time></trkpt><trkpt lat="39.9315795" lon="-0.3374392"><ele>353.0</ele><time>2026-04-19T15:05:20Z</time></trkpt><trkpt lat="39.9314289" lon="-0.3373575"><ele>352.6666666666667</ele><time>2026-04-19T15:05:20.999Z</time></trkpt><trkpt lat="39.9312865" lon="-0.3372696"><ele>352.3333333333333</ele><time>2026-04-19T15:05:21.999Z</time></trkpt><trkpt lat="39.931151" lon="-0.3371857"><ele>352.0</ele><time>2026-04-19T15:05:23Z</time></trkpt><trkpt lat="39.9310176" lon="-0.3371121"><ele>349.75</ele><time>2026-04-19T15:05:23.999Z</time></trkpt><trkpt lat="39.9308796" lon="-0.3370499"><ele>347.5</ele><time>2026-04-19T15:05:24.999Z</time></trkpt><trkpt lat="39.9307342" lon="-0.3369994"><ele>345.25</ele><time>2026-04-19T15:05:25.999Z</time></trkpt><trkpt lat="39.930587" lon="-0.3369581"><ele>343.0</ele><time>2026-04-19T15:05:26.999Z</time></trkpt><trkpt lat="39.930436" lon="-0.3369197"><ele>343.0</ele><time>2026-04-19T15:05:27.999Z</time></trkpt><trkpt lat="39.9302817" lon="-0.336902"><ele>343.0</ele><time>2026-04-19T15:05:28.999Z</time></trkpt><trkpt lat="39.9301265" lon="-0.3369017"><ele>343.0</ele><time>2026-04-19T15:05:29.999Z</time></trkpt><trkpt lat="39.9299776" lon="-0.3369158"><ele>344.0</ele><time>2026-04-19T15:05:30.999Z</time></trkpt><trkpt lat="39.9298353" lon="-0.3369293"><ele>345.0</ele><time>2026-04-19T15:05:32Z</time></trkpt><trkpt lat="39.9296899" lon="-0.33694"><ele>346.0</ele><time>2026-04-19T15:05:32.999Z</time></trkpt><trkpt lat="39.929541" lon="-0.3369555"><ele>347.0</ele><time>2026-04-19T15:05:34Z</time></trkpt><trkpt lat="39.9293914" lon="-0.3369699"><ele>347.0</ele><time>2026-04-19T15:05:35Z</time></trkpt><trkpt lat="39.9292378" lon="-0.3369827"><ele>347.0</ele><time>2026-04-19T15:05:35.999Z</time></trkpt><trkpt lat="39.9290782" lon="-0.3369991"><ele>347.0</ele><time>2026-04-19T15:05:36.999Z</time></trkpt><trkpt lat="39.9289146" lon="-0.3370127"><ele>347.6666666666667</ele><time>2026-04-19T15:05:37.999Z</time></trkpt><trkpt lat="39.9287521" lon="-0.3370445"><ele>348.3333333333333</ele><time>2026-04-19T15:05:38.999Z</time></trkpt><trkpt lat="39.9286023" lon="-0.3370907"><ele>349.0</ele><time>2026-04-19T15:05:39.999Z</time></trkpt><trkpt lat="39.92847" lon="-0.3371414"><ele>348.6</ele><time>2026-04-19T15:05:40.999Z</time></trkpt><trkpt lat="39.9283617" lon="-0.3372062"><ele>348.2</ele><time>2026-04-19T15:05:41.999Z</time></trkpt><trkpt lat="39.9282776" lon="-0.3372946"><ele>347.8</ele><time>2026-04-19T15:05:42.999Z</time></trkpt><trkpt lat="39.9282189" lon="-0.3374068"><ele>347.40000000000003</ele><time>2026-04-19T15:05:44Z</time></trkpt><trkpt lat="39.9281852" lon="-0.3375474"><ele>347.0</ele><time>2026-04-19T15:05:44.999Z</time></trkpt><trkpt lat="39.928167" lon="-0.3377156"><ele>349.75</ele><time>2026-04-19T15:05:45.999Z</time></trkpt><trkpt lat="39.9281477" lon="-0.3378958"><ele>352.5</ele><time>2026-04-19T15:05:46.999Z</time></trkpt><trkpt lat="39.9281161" lon="-0.3380843"><ele>355.25</ele><time>2026-04-19T15:05:48Z</time></trkpt><trkpt lat="39.9280833" lon="-0.3382522"><ele>358.0</ele><time>2026-04-19T15:05:48.999Z</time></trkpt><trkpt lat="39.9280546" lon="-0.3384119"><ele>361.5</ele><time>2026-04-19T15:05:49.999Z</time></trkpt><trkpt lat="39.9280204" lon="-0.3385677"><ele>365.0</ele><time>2026-04-19T15:05:51Z</time></trkpt><trkpt lat="39.9279665" lon="-0.3387155"><ele>368.5</ele><time>2026-04-19T15:05:51.999Z</time></trkpt><trkpt lat="39.9278882" lon="-0.3388212"><ele>372.0</ele><time>2026-04-19T15:05:53Z</time></trkpt><trkpt lat="39.9277951" lon="-0.3388982"><ele>372.25</ele><time>2026-04-19T15:05:53.999Z</time></trkpt><trkpt lat="39.9276923" lon="-0.3389332"><ele>372.5</ele><time>2026-04-19T15:05:54.999Z</time></trkpt><trkpt lat="39.9275802" lon="-0.3389412"><ele>372.75</ele><time>2026-04-19T15:05:55.999Z</time></trkpt><trkpt lat="39.9274205" lon="-0.3389034"><ele>373.0</ele><time>2026-04-19T15:05:57.972Z</time></trkpt><trkpt lat="39.9272967" lon="-0.3387384"><ele>367.75</ele><time>2026-04-19T15:05:58.999Z</time></trkpt><trkpt lat="39.9272297" lon="-0.3386104"><ele>362.5</ele><time>2026-04-19T15:06:00Z</time></trkpt><trkpt lat="39.9271654" lon="-0.3384642"><ele>357.25</ele><time>2026-04-19T15:06:00.999Z</time></trkpt><trkpt lat="39.9270767" lon="-0.3383291"><ele>352.0</ele><time>2026-04-19T15:06:01.999Z</time></trkpt><trkpt lat="39.9269602" lon="-0.3382008"><ele>352.0</ele><time>2026-04-19T15:06:03Z</time></trkpt><trkpt lat="39.9268186" lon="-0.3380866"><ele>352.0</ele><time>2026-04-19T15:06:03.999Z</time></trkpt><trkpt lat="39.9266616" lon="-0.3379751"><ele>352.0</ele><time>2026-04-19T15:06:04.999Z</time></trkpt><trkpt lat="39.9265093" lon="-0.3378662"><ele>353.66666666666663</ele><time>2026-04-19T15:06:06Z</time></trkpt><trkpt lat="39.9263469" lon="-0.3377513"><ele>355.3333333333333</ele><time>2026-04-19T15:06:06.999Z</time></trkpt><trkpt lat="39.9261826" lon="-0.3376301"><ele>357.0</ele><time>2026-04-19T15:06:08Z</time></trkpt><trkpt lat="39.9260168" lon="-0.3375109"><ele>356.0</ele><time>2026-04-19T15:06:09Z</time></trkpt><trkpt lat="39.9258522" lon="-0.3373933"><ele>355.0</ele><time>2026-04-19T15:06:10Z</time></trkpt><trkpt lat="39.9257075" lon="-0.3372799"><ele>354.0</ele><time>2026-04-19T15:06:10.999Z</time></trkpt><trkpt lat="39.9255708" lon="-0.3371739"><ele>354.0</ele><time>2026-04-19T15:06:12Z</time></trkpt><trkpt lat="39.9254404" lon="-0.3370855"><ele>354.0</ele><time>2026-04-19T15:06:12.999Z</time></trkpt><trkpt lat="39.9253076" lon="-0.3370086"><ele>354.0</ele><time>2026-04-19T15:06:13.999Z</time></trkpt><trkpt lat="39.9251698" lon="-0.3369509"><ele>354.0</ele><time>2026-04-19T15:06:14.999Z</time></trkpt><trkpt lat="39.9250222" lon="-0.336929"><ele>356.6666666666667</ele><time>2026-04-19T15:06:16Z</time></trkpt><trkpt lat="39.9248658" lon="-0.3369339"><ele>359.33333333333337</ele><time>2026-04-19T15:06:16.999Z</time></trkpt><trkpt lat="39.9247081" lon="-0.3369575"><ele>362.0</ele><time>2026-04-19T15:06:17.999Z</time></trkpt><trkpt lat="39.9245549" lon="-0.3369734"><ele>362.0</ele><time>2026-04-19T15:06:18.999Z</time></trkpt><trkpt lat="39.9244004" lon="-0.3369857"><ele>362.0</ele><time>2026-04-19T15:06:20Z</time></trkpt><trkpt lat="39.9242422" lon="-0.3369873"><ele>362.0</ele><time>2026-04-19T15:06:21Z</time></trkpt><trkpt lat="39.9240911" lon="-0.336963"><ele>364.0</ele><time>2026-04-19T15:06:21.999Z</time></trkpt><trkpt lat="39.9239418" lon="-0.3369083"><ele>366.0</ele><time>2026-04-19T15:06:22.999Z</time></trkpt><trkpt lat="39.9237961" lon="-0.3368352"><ele>368.0</ele><time>2026-04-19T15:06:24Z</time></trkpt><trkpt lat="39.9236535" lon="-0.3367519"><ele>368.0</ele><time>2026-04-19T15:06:25Z</time></trkpt><trkpt lat="39.9235219" lon="-0.3366513"><ele>368.0</ele><time>2026-04-19T15:06:26Z</time></trkpt><trkpt lat="39.9233991" lon="-0.3365257"><ele>368.0</ele><time>2026-04-19T15:06:27Z</time></trkpt><trkpt lat="39.9232932" lon="-0.3363768"><ele>368.6666666666667</ele><time>2026-04-19T15:06:27.999Z</time></trkpt><trkpt lat="39.9232118" lon="-0.3362066"><ele>369.3333333333333</ele><time>2026-04-19T15:06:28.999Z</time></trkpt><trkpt lat="39.9231524" lon="-0.3360196"><ele>370.0</ele><time>2026-04-19T15:06:29.999Z</time></trkpt><trkpt lat="39.9231029" lon="-0.3358347"><ele>370.0</ele><time>2026-04-19T15:06:30.999Z</time></trkpt><trkpt lat="39.9230426" lon="-0.3356673"><ele>370.0</ele><time>2026-04-19T15:06:32Z</time></trkpt><trkpt lat="39.9229784" lon="-0.335523"><ele>370.0</ele><time>2026-04-19T15:06:33Z</time></trkpt><trkpt lat="39.9229026" lon="-0.3354068"><ele>370.0</ele><time>2026-04-19T15:06:34Z</time></trkpt><trkpt lat="39.9226878" lon="-0.3352889"><ele>370.0</ele><time>2026-04-19T15:06:36.699Z</time></trkpt><trkpt lat="39.9224513" lon="-0.3353227"><ele>370.0</ele><time>2026-04-19T15:06:37.999Z</time></trkpt><trkpt lat="39.9223151" lon="-0.3353295"><ele>370.0</ele><time>2026-04-19T15:06:38.999Z</time></trkpt><trkpt lat="39.9221652" lon="-0.335296"><ele>370.0</ele><time>2026-04-19T15:06:39.999Z</time></trkpt><trkpt lat="39.9220059" lon="-0.335228"><ele>370.0</ele><time>2026-04-19T15:06:41Z</time></trkpt><trkpt lat="39.9218265" lon="-0.3351626"><ele>370.0</ele><time>2026-04-19T15:06:41.999Z</time></trkpt><trkpt lat="39.921627" lon="-0.3350911"><ele>376.66666666666663</ele><time>2026-04-19T15:06:42.999Z</time></trkpt><trkpt lat="39.9214178" lon="-0.3350382"><ele>383.3333333333333</ele><time>2026-04-19T15:06:43.999Z</time></trkpt><trkpt lat="39.9212196" lon="-0.3350072"><ele>390.0</ele><time>2026-04-19T15:06:44.999Z</time></trkpt><trkpt lat="39.9210303" lon="-0.3349745"><ele>393.33333333333337</ele><time>2026-04-19T15:06:46Z</time></trkpt><trkpt lat="39.9208552" lon="-0.3349433"><ele>396.6666666666667</ele><time>2026-04-19T15:06:46.999Z</time></trkpt><trkpt lat="39.920701" lon="-0.3349028"><ele>400.0</ele><time>2026-04-19T15:06:47.999Z</time></trkpt><trkpt lat="39.9205554" lon="-0.3348517"><ele>400.0</ele><time>2026-04-19T15:06:48.999Z</time></trkpt><trkpt lat="39.9204358" lon="-0.3347972"><ele>400.0</ele><time>2026-04-19T15:06:49.999Z</time></trkpt><trkpt lat="39.9203255" lon="-0.3347539"><ele>400.0</ele><time>2026-04-19T15:06:51Z</time></trkpt><trkpt lat="39.9202117" lon="-0.3347271"><ele>400.0</ele><time>2026-04-19T15:06:51.999Z</time></trkpt><trkpt lat="39.9201037" lon="-0.3347256"><ele>400.0</ele><time>2026-04-19T15:06:52.999Z</time></trkpt><trkpt lat="39.9200014" lon="-0.3347542"><ele>400.0</ele><time>2026-04-19T15:06:53.999Z</time></trkpt><trkpt lat="39.9199176" lon="-0.3348314"><ele>400.0</ele><time>2026-04-19T15:06:54.999Z</time></trkpt><trkpt lat="39.9198572" lon="-0.3349496"><ele>400.0</ele><time>2026-04-19T15:06:56Z</time></trkpt><trkpt lat="39.919801" lon="-0.3351064"><ele>400.0</ele><time>2026-04-19T15:06:56.999Z</time></trkpt><trkpt lat="39.9197643" lon="-0.335293"><ele>400.0</ele><time>2026-04-19T15:06:57.999Z</time></trkpt><trkpt lat="39.9197459" lon="-0.3355009"><ele>400.0</ele><time>2026-04-19T15:06:58.999Z</time></trkpt><trkpt lat="39.9197411" lon="-0.3356978"><ele>400.0</ele><time>2026-04-19T15:07:00Z</time></trkpt><trkpt lat="39.9197398" lon="-0.3358927"><ele>403.5</ele><time>2026-04-19T15:07:01Z</time></trkpt><trkpt lat="39.9197333" lon="-0.3360813"><ele>407.0</ele><time>2026-04-19T15:07:02Z</time></trkpt><trkpt lat="39.9197052" lon="-0.3362649"><ele>410.5</ele><time>2026-04-19T15:07:02.999Z</time></trkpt><trkpt lat="39.9196537" lon="-0.3364453"><ele>414.0</ele><time>2026-04-19T15:07:03.999Z</time></trkpt><trkpt lat="39.9195824" lon="-0.3366175"><ele>417.0</ele><time>2026-04-19T15:07:04.999Z</time></trkpt><trkpt lat="39.9194979" lon="-0.3367875"><ele>420.0</ele><time>2026-04-19T15:07:05.999Z</time></trkpt><trkpt lat="39.9194061" lon="-0.3369583"><ele>423.0</ele><time>2026-04-19T15:07:06.999Z</time></trkpt><trkpt lat="39.9193129" lon="-0.3371322"><ele>419.33333333333337</ele><time>2026-04-19T15:07:08Z</time></trkpt><trkpt lat="39.9192178" lon="-0.3373116"><ele>415.6666666666667</ele><time>2026-04-19T15:07:08.999Z</time></trkpt><trkpt lat="39.9191264" lon="-0.3374822"><ele>412.0</ele><time>2026-04-19T15:07:09.999Z</time></trkpt><trkpt lat="39.9190359" lon="-0.3376521"><ele>412.0</ele><time>2026-04-19T15:07:10.999Z</time></trkpt><trkpt lat="39.9189582" lon="-0.337816"><ele>412.0</ele><time>2026-04-19T15:07:11.999Z</time></trkpt><trkpt lat="39.9189084" lon="-0.3379824"><ele>412.0</ele><time>2026-04-19T15:07:12.999Z</time></trkpt><trkpt lat="39.9188857" lon="-0.338161"><ele>412.0</ele><time>2026-04-19T15:07:13.999Z</time></trkpt><trkpt lat="39.9188778" lon="-0.3383404"><ele>415.0</ele><time>2026-04-19T15:07:14.999Z</time></trkpt><trkpt lat="39.9188792" lon="-0.3385091"><ele>418.0</ele><time>2026-04-19T15:07:15.999Z</time></trkpt><trkpt lat="39.9188706" lon="-0.3386666"><ele>421.0</ele><time>2026-04-19T15:07:17Z</time></trkpt><trkpt lat="39.918836" lon="-0.3388016"><ele>424.0</ele><time>2026-04-19T15:07:17.999Z</time></trkpt><trkpt lat="39.9187721" lon="-0.3389137"><ele>425.0</ele><time>2026-04-19T15:07:18.999Z</time></trkpt><trkpt lat="39.9186906" lon="-0.3390091"><ele>426.0</ele><time>2026-04-19T15:07:19.999Z</time></trkpt><trkpt lat="39.918605" lon="-0.3391051"><ele>427.0</ele><time>2026-04-19T15:07:20.999Z</time></trkpt><trkpt lat="39.9185246" lon="-0.3391972"><ele>428.0</ele><time>2026-04-19T15:07:21.999Z</time></trkpt><trkpt lat="39.9184718" lon="-0.3392847"><ele>429.0</ele><time>2026-04-19T15:07:22.999Z</time></trkpt><trkpt lat="39.9184146" lon="-0.3393893"><ele>428.0</ele><time>2026-04-19T15:07:23.999Z</time></trkpt><trkpt lat="39.9183667" lon="-0.3394995"><ele>427.0</ele><time>2026-04-19T15:07:24.999Z</time></trkpt><trkpt lat="39.9183246" lon="-0.3396205"><ele>426.0</ele><time>2026-04-19T15:07:25.999Z</time></trkpt><trkpt lat="39.9182857" lon="-0.3397464"><ele>425.0</ele><time>2026-04-19T15:07:26.999Z</time></trkpt><trkpt lat="39.9183062" lon="-0.3398928"><ele>424.0</ele><time>2026-04-19T15:07:28Z</time></trkpt><trkpt lat="39.9183067" lon="-0.3400174"><ele>424.00000000000006</ele><time>2026-04-19T15:07:28.999Z</time></trkpt><trkpt lat="39.9182891" lon="-0.3401174"><ele>424.0</ele><time>2026-04-19T15:07:29.999Z</time></trkpt><trkpt lat="39.9182454" lon="-0.3402072"><ele>424.0</ele><time>2026-04-19T15:07:31Z</time></trkpt><trkpt lat="39.9181733" lon="-0.3402621"><ele>424.0</ele><time>2026-04-19T15:07:31.999Z</time></trkpt><trkpt lat="39.9180922" lon="-0.340274"><ele>424.00000000000006</ele><time>2026-04-19T15:07:32.999Z</time></trkpt><trkpt lat="39.91801" lon="-0.3402455"><ele>424.0</ele><time>2026-04-19T15:07:33.999Z</time></trkpt><trkpt lat="39.9179158" lon="-0.3402081"><ele>424.0</ele><time>2026-04-19T15:07:34.999Z</time></trkpt><trkpt lat="39.9178132" lon="-0.3401902"><ele>424.0</ele><time>2026-04-19T15:07:36Z</time></trkpt><trkpt lat="39.9176802" lon="-0.340215"><ele>424.0</ele><time>2026-04-19T15:07:36.999Z</time></trkpt><trkpt lat="39.9175556" lon="-0.3402802"><ele>424.0</ele><time>2026-04-19T15:07:38.969Z</time></trkpt><trkpt lat="39.9174702" lon="-0.3404193"><ele>424.79999999999995</ele><time>2026-04-19T15:07:39.999Z</time></trkpt><trkpt lat="39.917449" lon="-0.3405495"><ele>425.59999999999997</ele><time>2026-04-19T15:07:41Z</time></trkpt><trkpt lat="39.9174639" lon="-0.3406982"><ele>426.4</ele><time>2026-04-19T15:07:41.999Z</time></trkpt><trkpt lat="39.9174638" lon="-0.3408445"><ele>427.2</ele><time>2026-04-19T15:07:43Z</time></trkpt><trkpt lat="39.9174442" lon="-0.340976"><ele>428.0</ele><time>2026-04-19T15:07:43.999Z</time></trkpt><trkpt lat="39.9173868" lon="-0.3410768"><ele>428.0</ele><time>2026-04-19T15:07:44.999Z</time></trkpt><trkpt lat="39.9173049" lon="-0.3411486"><ele>427.99999999999994</ele><time>2026-04-19T15:07:45.999Z</time></trkpt><trkpt lat="39.9172085" lon="-0.3411798"><ele>427.99999999999994</ele><time>2026-04-19T15:07:47Z</time></trkpt><trkpt lat="39.9171002" lon="-0.3411855"><ele>428.0</ele><time>2026-04-19T15:07:47.999Z</time></trkpt><trkpt lat="39.916988" lon="-0.3411891"><ele>428.0</ele><time>2026-04-19T15:07:49Z</time></trkpt><trkpt lat="39.9168841" lon="-0.3412159"><ele>428.0</ele><time>2026-04-19T15:07:49.999Z</time></trkpt><trkpt lat="39.9167929" lon="-0.3412732"><ele>427.99999999999994</ele><time>2026-04-19T15:07:50.999Z</time></trkpt><trkpt lat="39.9167172" lon="-0.3413679"><ele>427.99999999999994</ele><time>2026-04-19T15:07:51.999Z</time></trkpt><trkpt lat="39.9166564" lon="-0.3414831"><ele>428.0</ele><time>2026-04-19T15:07:52.999Z</time></trkpt><trkpt lat="39.9166239" lon="-0.3416181"><ele>428.0</ele><time>2026-04-19T15:07:53.999Z</time></trkpt><trkpt lat="39.9166286" lon="-0.3417695"><ele>428.0</ele><time>2026-04-19T15:07:55Z</time></trkpt><trkpt lat="39.9166467" lon="-0.3419346"><ele>428.0</ele><time>2026-04-19T15:07:55.999Z</time></trkpt><trkpt lat="39.9166713" lon="-0.3421325"><ele>428.0</ele><time>2026-04-19T15:07:57Z</time></trkpt><trkpt lat="39.9166956" lon="-0.3423264"><ele>428.0</ele><time>2026-04-19T15:07:57.999Z</time></trkpt><trkpt lat="39.9167226" lon="-0.3425116"><ele>436.5</ele><time>2026-04-19T15:07:58.999Z</time></trkpt><trkpt lat="39.916755" lon="-0.3426924"><ele>445.0</ele><time>2026-04-19T15:07:59.999Z</time></trkpt><trkpt lat="39.916797" lon="-0.3428529"><ele>453.5</ele><time>2026-04-19T15:08:00.999Z</time></trkpt><trkpt lat="39.9168622" lon="-0.3429809"><ele>462.0</ele><time>2026-04-19T15:08:01.999Z</time></trkpt><trkpt lat="39.9169448" lon="-0.3430981"><ele>462.5</ele><time>2026-04-19T15:08:03Z</time></trkpt><trkpt lat="39.9170228" lon="-0.3432179"><ele>463.0</ele><time>2026-04-19T15:08:03.999Z</time></trkpt><trkpt lat="39.9170913" lon="-0.343354"><ele>463.5</ele><time>2026-04-19T15:08:04.999Z</time></trkpt><trkpt lat="39.9171391" lon="-0.3435044"><ele>464.0</ele><time>2026-04-19T15:08:05.999Z</time></trkpt><trkpt lat="39.9171599" lon="-0.3436781"><ele>464.0</ele><time>2026-04-19T15:08:07Z</time></trkpt><trkpt lat="39.9171557" lon="-0.343862"><ele>464.0</ele><time>2026-04-19T15:08:07.999Z</time></trkpt><trkpt lat="39.9171466" lon="-0.3440388"><ele>464.0</ele><time>2026-04-19T15:08:09Z</time></trkpt><trkpt lat="39.9171482" lon="-0.3442059"><ele>464.0</ele><time>2026-04-19T15:08:10Z</time></trkpt><trkpt lat="39.9171674" lon="-0.3443727"><ele>464.25</ele><time>2026-04-19T15:08:10.999Z</time></trkpt><trkpt lat="39.9171836" lon="-0.3445378"><ele>464.5</ele><time>2026-04-19T15:08:11.999Z</time></trkpt><trkpt lat="39.9171649" lon="-0.3447052"><ele>464.75</ele><time>2026-04-19T15:08:12.999Z</time></trkpt><trkpt lat="39.9171143" lon="-0.344868"><ele>465.0</ele><time>2026-04-19T15:08:13.999Z</time></trkpt><trkpt lat="39.9170504" lon="-0.3450271"><ele>467.0</ele><time>2026-04-19T15:08:15Z</time></trkpt><trkpt lat="39.9169737" lon="-0.3451851"><ele>469.0</ele><time>2026-04-19T15:08:15.999Z</time></trkpt><trkpt lat="39.9168912" lon="-0.3453477"><ele>471.0</ele><time>2026-04-19T15:08:17Z</time></trkpt><trkpt lat="39.9168094" lon="-0.3455169"><ele>473.0</ele><time>2026-04-19T15:08:17.999Z</time></trkpt><trkpt lat="39.916728" lon="-0.3456967"><ele>464.0</ele><time>2026-04-19T15:08:18.999Z</time></trkpt><trkpt lat="39.9166543" lon="-0.3458875"><ele>455.0</ele><time>2026-04-19T15:08:20Z</time></trkpt><trkpt lat="39.916595" lon="-0.3460715"><ele>446.0</ele><time>2026-04-19T15:08:20.999Z</time></trkpt><trkpt lat="39.9165362" lon="-0.3462439"><ele>452.0</ele><time>2026-04-19T15:08:21.999Z</time></trkpt><trkpt lat="39.9164673" lon="-0.3463975"><ele>458.0</ele><time>2026-04-19T15:08:22.999Z</time></trkpt><trkpt lat="39.9163868" lon="-0.3465216"><ele>464.0</ele><time>2026-04-19T15:08:24Z</time></trkpt><trkpt lat="39.9163008" lon="-0.3466273"><ele>470.0</ele><time>2026-04-19T15:08:24.999Z</time></trkpt><trkpt lat="39.9162144" lon="-0.3467246"><ele>470.0</ele><time>2026-04-19T15:08:25.999Z</time></trkpt><trkpt lat="39.9161396" lon="-0.3468347"><ele>470.0</ele><time>2026-04-19T15:08:26.999Z</time></trkpt><trkpt lat="39.9160895" lon="-0.3469575"><ele>470.0</ele><time>2026-04-19T15:08:27.999Z</time></trkpt><trkpt lat="39.9160618" lon="-0.3470857"><ele>470.0</ele><time>2026-04-19T15:08:28.999Z</time></trkpt><trkpt lat="39.9160522" lon="-0.3472328"><ele>470.0</ele><time>2026-04-19T15:08:29.999Z</time></trkpt><trkpt lat="39.9160614" lon="-0.3473898"><ele>475.0</ele><time>2026-04-19T15:08:30.999Z</time></trkpt><trkpt lat="39.9160771" lon="-0.3475545"><ele>480.0</ele><time>2026-04-19T15:08:32Z</time></trkpt><trkpt lat="39.9160846" lon="-0.3477334"><ele>485.0</ele><time>2026-04-19T15:08:32.999Z</time></trkpt><trkpt lat="39.9160665" lon="-0.347919"><ele>490.0</ele><time>2026-04-19T15:08:33.999Z</time></trkpt><trkpt lat="39.9160318" lon="-0.3481037"><ele>493.33333333333337</ele><time>2026-04-19T15:08:34.999Z</time></trkpt><trkpt lat="39.915989" lon="-0.3482962"><ele>496.66666666666663</ele><time>2026-04-19T15:08:36Z</time></trkpt><trkpt lat="39.9159455" lon="-0.3484983"><ele>500.0</ele><time>2026-04-19T15:08:36.999Z</time></trkpt><trkpt lat="39.9158932" lon="-0.3486968"><ele>485.3333333333333</ele><time>2026-04-19T15:08:37.999Z</time></trkpt><trkpt lat="39.9158343" lon="-0.3489014"><ele>470.66666666666663</ele><time>2026-04-19T15:08:38.999Z</time></trkpt><trkpt lat="39.9157737" lon="-0.3490995"><ele>456.0</ele><time>2026-04-19T15:08:40Z</time></trkpt><trkpt lat="39.9157215" lon="-0.3492745"><ele>456.0</ele><time>2026-04-19T15:08:40.999Z</time></trkpt><trkpt lat="39.9156801" lon="-0.3494252"><ele>456.0</ele><time>2026-04-19T15:08:41.999Z</time></trkpt><trkpt lat="39.9156581" lon="-0.3495645"><ele>456.0</ele><time>2026-04-19T15:08:42.999Z</time></trkpt><trkpt lat="39.9156659" lon="-0.3496994"><ele>456.0</ele><time>2026-04-19T15:08:43.999Z</time></trkpt><trkpt lat="39.9157022" lon="-0.3498205"><ele>456.0</ele><time>2026-04-19T15:08:44.999Z</time></trkpt><trkpt lat="39.9157608" lon="-0.3499242"><ele>457.0</ele><time>2026-04-19T15:08:45.999Z</time></trkpt><trkpt lat="39.9158247" lon="-0.3500189"><ele>458.0</ele><time>2026-04-19T15:08:46.999Z</time></trkpt><trkpt lat="39.9158683" lon="-0.3501182"><ele>459.0</ele><time>2026-04-19T15:08:48Z</time></trkpt><trkpt lat="39.915884" lon="-0.3502343"><ele>460.0</ele><time>2026-04-19T15:08:48.999Z</time></trkpt><trkpt lat="39.9158699" lon="-0.3503601"><ele>461.0</ele><time>2026-04-19T15:08:49.999Z</time></trkpt><trkpt lat="39.9158316" lon="-0.3504812"><ele>461.6</ele><time>2026-04-19T15:08:50.999Z</time></trkpt><trkpt lat="39.9157851" lon="-0.3506037"><ele>462.20000000000005</ele><time>2026-04-19T15:08:51.999Z</time></trkpt><trkpt lat="39.9157307" lon="-0.3507283"><ele>462.79999999999995</ele><time>2026-04-19T15:08:52.999Z</time></trkpt><trkpt lat="39.9156721" lon="-0.350857"><ele>463.4</ele><time>2026-04-19T15:08:54Z</time></trkpt><trkpt lat="39.9156093" lon="-0.3509881"><ele>464.0</ele><time>2026-04-19T15:08:54.999Z</time></trkpt><trkpt lat="39.9155525" lon="-0.3511278"><ele>464.0</ele><time>2026-04-19T15:08:55.999Z</time></trkpt><trkpt lat="39.9155115" lon="-0.3512596"><ele>464.0</ele><time>2026-04-19T15:08:56.999Z</time></trkpt><trkpt lat="39.9154894" lon="-0.3513858"><ele>464.0</ele><time>2026-04-19T15:08:57.999Z</time></trkpt><trkpt lat="39.9154825" lon="-0.3515127"><ele>464.0</ele><time>2026-04-19T15:08:58.999Z</time></trkpt><trkpt lat="39.9154959" lon="-0.3516361"><ele>464.0</ele><time>2026-04-19T15:08:59.999Z</time></trkpt><trkpt lat="39.9155287" lon="-0.3517493"><ele>465.0</ele><time>2026-04-19T15:09:01Z</time></trkpt><trkpt lat="39.9155657" lon="-0.3518639"><ele>466.0</ele><time>2026-04-19T15:09:02Z</time></trkpt><trkpt lat="39.9155987" lon="-0.3519841"><ele>467.0</ele><time>2026-04-19T15:09:03Z</time></trkpt><trkpt lat="39.9156374" lon="-0.3521079"><ele>468.0</ele><time>2026-04-19T15:09:03.999Z</time></trkpt><trkpt lat="39.9156845" lon="-0.3522341"><ele>469.0</ele><time>2026-04-19T15:09:04.999Z</time></trkpt><trkpt lat="39.9157341" lon="-0.3523674"><ele>469.0</ele><time>2026-04-19T15:09:05.999Z</time></trkpt><trkpt lat="39.9157828" lon="-0.3525067"><ele>469.0</ele><time>2026-04-19T15:09:06.999Z</time></trkpt><trkpt lat="39.9158474" lon="-0.3526422"><ele>469.0</ele><time>2026-04-19T15:09:07.999Z</time></trkpt><trkpt lat="39.9159343" lon="-0.3527554"><ele>469.0</ele><time>2026-04-19T15:09:08.999Z</time></trkpt><trkpt lat="39.9160435" lon="-0.3528536"><ele>470.75</ele><time>2026-04-19T15:09:09.999Z</time></trkpt><trkpt lat="39.916162" lon="-0.3529584"><ele>472.5</ele><time>2026-04-19T15:09:10.999Z</time></trkpt><trkpt lat="39.9162707" lon="-0.3530831"><ele>474.25</ele><time>2026-04-19T15:09:11.999Z</time></trkpt><trkpt lat="39.916368" lon="-0.3532451"><ele>476.0</ele><time>2026-04-19T15:09:13Z</time></trkpt><trkpt lat="39.9164621" lon="-0.3534416"><ele>476.0</ele><time>2026-04-19T15:09:14Z</time></trkpt><trkpt lat="39.916549" lon="-0.3536296"><ele>476.0</ele><time>2026-04-19T15:09:15Z</time></trkpt><trkpt lat="39.9166267" lon="-0.3538126"><ele>476.0</ele><time>2026-04-19T15:09:15.999Z</time></trkpt><trkpt lat="39.9167045" lon="-0.3539928"><ele>479.75</ele><time>2026-04-19T15:09:16.999Z</time></trkpt><trkpt lat="39.9167798" lon="-0.3541576"><ele>483.5</ele><time>2026-04-19T15:09:18Z</time></trkpt><trkpt lat="39.9168571" lon="-0.3543043"><ele>487.25</ele><time>2026-04-19T15:09:18.999Z</time></trkpt><trkpt lat="39.9169363" lon="-0.3544293"><ele>491.0</ele><time>2026-04-19T15:09:19.999Z</time></trkpt><trkpt lat="39.9170362" lon="-0.3545357"><ele>491.0</ele><time>2026-04-19T15:09:20.999Z</time></trkpt><trkpt lat="39.917146" lon="-0.354617"><ele>491.0</ele><time>2026-04-19T15:09:21.999Z</time></trkpt><trkpt lat="39.9172547" lon="-0.3546782"><ele>491.0</ele><time>2026-04-19T15:09:22.999Z</time></trkpt><trkpt lat="39.9173501" lon="-0.3547289"><ele>491.0</ele><time>2026-04-19T15:09:23.999Z</time></trkpt><trkpt lat="39.9174222" lon="-0.3547907"><ele>491.0</ele><time>2026-04-19T15:09:24.999Z</time></trkpt><trkpt lat="39.9174714" lon="-0.3548757"><ele>488.16666666666663</ele><time>2026-04-19T15:09:25.999Z</time></trkpt><trkpt lat="39.9174806" lon="-0.3549703"><ele>485.3333333333333</ele><time>2026-04-19T15:09:26.999Z</time></trkpt><trkpt lat="39.917462" lon="-0.355063"><ele>482.5</ele><time>2026-04-19T15:09:27.999Z</time></trkpt><trkpt lat="39.9174273" lon="-0.3551488"><ele>479.66666666666663</ele><time>2026-04-19T15:09:28.999Z</time></trkpt><trkpt lat="39.9173761" lon="-0.3552434"><ele>476.8333333333333</ele><time>2026-04-19T15:09:29.999Z</time></trkpt><trkpt lat="39.9173255" lon="-0.3553544"><ele>474.0</ele><time>2026-04-19T15:09:30.999Z</time></trkpt><trkpt lat="39.917282" lon="-0.3554514"><ele>473.6</ele><time>2026-04-19T15:09:31.999Z</time></trkpt><trkpt lat="39.9172377" lon="-0.3555551"><ele>473.2</ele><time>2026-04-19T15:09:32.999Z</time></trkpt><trkpt lat="39.9172031" lon="-0.355667"><ele>472.80000000000007</ele><time>2026-04-19T15:09:34Z</time></trkpt><trkpt lat="39.9171897" lon="-0.3557894"><ele>472.40000000000003</ele><time>2026-04-19T15:09:35Z</time></trkpt><trkpt lat="39.9172045" lon="-0.3559119"><ele>472.0</ele><time>2026-04-19T15:09:36Z</time></trkpt><trkpt lat="39.9172369" lon="-0.3560387"><ele>472.0</ele><time>2026-04-19T15:09:36.999Z</time></trkpt><trkpt lat="39.9172608" lon="-0.356174"><ele>472.0</ele><time>2026-04-19T15:09:37.999Z</time></trkpt><trkpt lat="39.9172629" lon="-0.3563271"><ele>472.0</ele><time>2026-04-19T15:09:38.999Z</time></trkpt><trkpt lat="39.9172307" lon="-0.3564774"><ele>472.0</ele><time>2026-04-19T15:09:39.999Z</time></trkpt><trkpt lat="39.9171867" lon="-0.3566304"><ele>472.75</ele><time>2026-04-19T15:09:40.999Z</time></trkpt><trkpt lat="39.9171534" lon="-0.3568085"><ele>473.5</ele><time>2026-04-19T15:09:41.999Z</time></trkpt><trkpt lat="39.9171235" lon="-0.3569984"><ele>474.25</ele><time>2026-04-19T15:09:43Z</time></trkpt><trkpt lat="39.9170992" lon="-0.3571865"><ele>475.0</ele><time>2026-04-19T15:09:43.999Z</time></trkpt><trkpt lat="39.9170785" lon="-0.3573787"><ele>476.25</ele><time>2026-04-19T15:09:44.999Z</time></trkpt><trkpt lat="39.9170555" lon="-0.3575673"><ele>477.5</ele><time>2026-04-19T15:09:46Z</time></trkpt><trkpt lat="39.9170197" lon="-0.3577507"><ele>478.75</ele><time>2026-04-19T15:09:46.999Z</time></trkpt><trkpt lat="39.9169622" lon="-0.3579077"><ele>480.0</ele><time>2026-04-19T15:09:47.999Z</time></trkpt><trkpt lat="39.9168789" lon="-0.3580474"><ele>480.25</ele><time>2026-04-19T15:09:48.999Z</time></trkpt><trkpt lat="39.9167859" lon="-0.3581836"><ele>480.5</ele><time>2026-04-19T15:09:49.999Z</time></trkpt><trkpt lat="39.9166866" lon="-0.3583238"><ele>480.75</ele><time>2026-04-19T15:09:50.999Z</time></trkpt><trkpt lat="39.9165858" lon="-0.3584687"><ele>481.0</ele><time>2026-04-19T15:09:51.999Z</time></trkpt><trkpt lat="39.9164885" lon="-0.3586224"><ele>481.6666666666667</ele><time>2026-04-19T15:09:52.999Z</time></trkpt><trkpt lat="39.9164018" lon="-0.3587931"><ele>482.33333333333337</ele><time>2026-04-19T15:09:53.999Z</time></trkpt><trkpt lat="39.9163446" lon="-0.358987"><ele>483.0</ele><time>2026-04-19T15:09:54.999Z</time></trkpt><trkpt lat="39.9163145" lon="-0.3591848"><ele>483.0</ele><time>2026-04-19T15:09:55.999Z</time></trkpt><trkpt lat="39.9162953" lon="-0.359385"><ele>483.0</ele><time>2026-04-19T15:09:56.999Z</time></trkpt><trkpt lat="39.9162713" lon="-0.3595809"><ele>483.0</ele><time>2026-04-19T15:09:58Z</time></trkpt><trkpt lat="39.9162318" lon="-0.3597725"><ele>483.33333333333337</ele><time>2026-04-19T15:09:58.999Z</time></trkpt><trkpt lat="39.9161819" lon="-0.3599579"><ele>483.6666666666667</ele><time>2026-04-19T15:09:59.999Z</time></trkpt><trkpt lat="39.9161261" lon="-0.3601446"><ele>484.0</ele><time>2026-04-19T15:10:00.999Z</time></trkpt><trkpt lat="39.916068" lon="-0.3603322"><ele>484.0</ele><time>2026-04-19T15:10:01.999Z</time></trkpt><trkpt lat="39.9160028" lon="-0.3605228"><ele>484.0</ele><time>2026-04-19T15:10:02.999Z</time></trkpt><trkpt lat="39.9159323" lon="-0.3607131"><ele>484.0</ele><time>2026-04-19T15:10:03.999Z</time></trkpt><trkpt lat="39.915858" lon="-0.360901"><ele>489.33333333333337</ele><time>2026-04-19T15:10:04.999Z</time></trkpt><trkpt lat="39.9157801" lon="-0.3610939"><ele>494.66666666666663</ele><time>2026-04-19T15:10:05.999Z</time></trkpt><trkpt lat="39.9157019" lon="-0.3612853"><ele>500.0</ele><time>2026-04-19T15:10:06.999Z</time></trkpt><trkpt lat="39.9156206" lon="-0.3614552"><ele>500.0</ele><time>2026-04-19T15:10:07.999Z</time></trkpt><trkpt lat="39.9155337" lon="-0.3616016"><ele>500.0</ele><time>2026-04-19T15:10:08.999Z</time></trkpt><trkpt lat="39.915454" lon="-0.3617396"><ele>500.0</ele><time>2026-04-19T15:10:09.999Z</time></trkpt><trkpt lat="39.9153913" lon="-0.3618956"><ele>500.0</ele><time>2026-04-19T15:10:10.999Z</time></trkpt><trkpt lat="39.915359" lon="-0.3620697"><ele>501.25</ele><time>2026-04-19T15:10:11.999Z</time></trkpt><trkpt lat="39.9153506" lon="-0.3622563"><ele>502.5</ele><time>2026-04-19T15:10:13Z</time></trkpt><trkpt lat="39.9153672" lon="-0.3624473"><ele>503.75</ele><time>2026-04-19T15:10:13.999Z</time></trkpt><trkpt lat="39.9153955" lon="-0.3626328"><ele>505.0</ele><time>2026-04-19T15:10:14.999Z</time></trkpt><trkpt lat="39.9154356" lon="-0.3627953"><ele>505.0</ele><time>2026-04-19T15:10:15.999Z</time></trkpt><trkpt lat="39.9154889" lon="-0.3629333"><ele>505.0</ele><time>2026-04-19T15:10:16.999Z</time></trkpt><trkpt lat="39.9155687" lon="-0.3630306"><ele>505.0</ele><time>2026-04-19T15:10:17.999Z</time></trkpt><trkpt lat="39.9156703" lon="-0.3630909"><ele>505.0</ele><time>2026-04-19T15:10:18.999Z</time></trkpt><trkpt lat="39.9157856" lon="-0.363113"><ele>507.25</ele><time>2026-04-19T15:10:20Z</time></trkpt><trkpt lat="39.9159085" lon="-0.3631072"><ele>509.5</ele><time>2026-04-19T15:10:20.999Z</time></trkpt><trkpt lat="39.9160325" lon="-0.3630785"><ele>511.75</ele><time>2026-04-19T15:10:21.999Z</time></trkpt><trkpt lat="39.9161559" lon="-0.3630207"><ele>514.0</ele><time>2026-04-19T15:10:23Z</time></trkpt><trkpt lat="39.9162716" lon="-0.362929"><ele>514.0</ele><time>2026-04-19T15:10:23.999Z</time></trkpt><trkpt lat="39.9163754" lon="-0.3628144"><ele>514.0</ele><time>2026-04-19T15:10:24.999Z</time></trkpt><trkpt lat="39.9164906" lon="-0.3627116"><ele>514.0</ele><time>2026-04-19T15:10:25.999Z</time></trkpt><trkpt lat="39.9166159" lon="-0.3626352"><ele>514.0</ele><time>2026-04-19T15:10:26.999Z</time></trkpt><trkpt lat="39.9167334" lon="-0.3625953"><ele>516.0</ele><time>2026-04-19T15:10:28Z</time></trkpt><trkpt lat="39.9168432" lon="-0.362588"><ele>518.0</ele><time>2026-04-19T15:10:29Z</time></trkpt><trkpt lat="39.9169346" lon="-0.3626218"><ele>520.0</ele><time>2026-04-19T15:10:30Z</time></trkpt><trkpt lat="39.9170082" lon="-0.3626864"><ele>522.0</ele><time>2026-04-19T15:10:31Z</time></trkpt><trkpt lat="39.9170624" lon="-0.3627723"><ele>524.0</ele><time>2026-04-19T15:10:31.999Z</time></trkpt><trkpt lat="39.9170869" lon="-0.3628828"><ele>524.0</ele><time>2026-04-19T15:10:33Z</time></trkpt><trkpt lat="39.9170918" lon="-0.3630123"><ele>524.0</ele><time>2026-04-19T15:10:34Z</time></trkpt><trkpt lat="39.917095" lon="-0.3631453"><ele>524.0</ele><time>2026-04-19T15:10:34.999Z</time></trkpt><trkpt lat="39.9170958" lon="-0.3632626"><ele>524.0</ele><time>2026-04-19T15:10:36Z</time></trkpt><trkpt lat="39.9170902" lon="-0.3633815"><ele>524.0</ele><time>2026-04-19T15:10:36.999Z</time></trkpt><trkpt lat="39.9170701" lon="-0.3635061"><ele>522.75</ele><time>2026-04-19T15:10:37.999Z</time></trkpt><trkpt lat="39.9170266" lon="-0.3636233"><ele>521.5</ele><time>2026-04-19T15:10:38.999Z</time></trkpt><trkpt lat="39.9169546" lon="-0.3637259"><ele>520.25</ele><time>2026-04-19T15:10:39.999Z</time></trkpt><trkpt lat="39.9168564" lon="-0.3638215"><ele>519.0</ele><time>2026-04-19T15:10:40.999Z</time></trkpt><trkpt lat="39.9167401" lon="-0.3639279"><ele>521.0</ele><time>2026-04-19T15:10:41.999Z</time></trkpt><trkpt lat="39.9166211" lon="-0.3640328"><ele>523.0</ele><time>2026-04-19T15:10:42.999Z</time></trkpt><trkpt lat="39.9164996" lon="-0.3641334"><ele>525.0</ele><time>2026-04-19T15:10:44Z</time></trkpt><trkpt lat="39.9163716" lon="-0.3642243"><ele>527.0</ele><time>2026-04-19T15:10:44.999Z</time></trkpt><trkpt lat="39.9162414" lon="-0.3643044"><ele>527.0</ele><time>2026-04-19T15:10:46Z</time></trkpt><trkpt lat="39.9161112" lon="-0.3643828"><ele>527.0</ele><time>2026-04-19T15:10:46.999Z</time></trkpt><trkpt lat="39.9159947" lon="-0.3644851"><ele>527.0</ele><time>2026-04-19T15:10:48Z</time></trkpt><trkpt lat="39.9159052" lon="-0.3646186"><ele>527.0</ele><time>2026-04-19T15:10:48.999Z</time></trkpt><trkpt lat="39.9158304" lon="-0.3647655"><ele>528.5</ele><time>2026-04-19T15:10:49.999Z</time></trkpt><trkpt lat="39.9157767" lon="-0.3649203"><ele>530.0</ele><time>2026-04-19T15:10:50.999Z</time></trkpt><trkpt lat="39.9157478" lon="-0.3650871"><ele>531.5</ele><time>2026-04-19T15:10:52Z</time></trkpt><trkpt lat="39.9157439" lon="-0.3652642"><ele>533.0</ele><time>2026-04-19T15:10:53Z</time></trkpt><trkpt lat="39.9157562" lon="-0.3654428"><ele>534.25</ele><time>2026-04-19T15:10:53.999Z</time></trkpt><trkpt lat="39.9157802" lon="-0.3656241"><ele>535.5</ele><time>2026-04-19T15:10:54.999Z</time></trkpt><trkpt lat="39.9158171" lon="-0.3658086"><ele>536.75</ele><time>2026-04-19T15:10:56Z</time></trkpt><trkpt lat="39.9158673" lon="-0.365972"><ele>538.0</ele><time>2026-04-19T15:10:56.999Z</time></trkpt><trkpt lat="39.9159349" lon="-0.3661148"><ele>535.75</ele><time>2026-04-19T15:10:57.999Z</time></trkpt><trkpt lat="39.9160071" lon="-0.3662576"><ele>533.5</ele><time>2026-04-19T15:10:58.999Z</time></trkpt><trkpt lat="39.9160661" lon="-0.366406"><ele>531.25</ele><time>2026-04-19T15:10:59.999Z</time></trkpt><trkpt lat="39.9160896" lon="-0.3665568"><ele>529.0</ele><time>2026-04-19T15:11:00.999Z</time></trkpt><trkpt lat="39.9160757" lon="-0.3667108"><ele>529.0</ele><time>2026-04-19T15:11:01.999Z</time></trkpt><trkpt lat="39.9160357" lon="-0.3668537"><ele>529.0</ele><time>2026-04-19T15:11:02.999Z</time></trkpt><trkpt lat="39.9159849" lon="-0.3669995"><ele>529.0</ele><time>2026-04-19T15:11:04Z</time></trkpt><trkpt lat="39.9159351" lon="-0.3671576"><ele>529.0</ele><time>2026-04-19T15:11:04.999Z</time></trkpt><trkpt lat="39.9158779" lon="-0.3673215"><ele>532.5</ele><time>2026-04-19T15:11:05.999Z</time></trkpt><trkpt lat="39.9158181" lon="-0.3674843"><ele>536.0</ele><time>2026-04-19T15:11:06.999Z</time></trkpt><trkpt lat="39.9157482" lon="-0.3676236"><ele>539.5</ele><time>2026-04-19T15:11:08Z</time></trkpt><trkpt lat="39.9156582" lon="-0.3677469"><ele>543.0</ele><time>2026-04-19T15:11:08.999Z</time></trkpt><trkpt lat="39.9155536" lon="-0.3678466"><ele>543.0</ele><time>2026-04-19T15:11:09.999Z</time></trkpt><trkpt lat="39.9154457" lon="-0.3679369"><ele>543.0</ele><time>2026-04-19T15:11:11Z</time></trkpt><trkpt lat="39.9153453" lon="-0.3680306"><ele>543.0</ele><time>2026-04-19T15:11:11.999Z</time></trkpt><trkpt lat="39.9152564" lon="-0.3681314"><ele>543.0</ele><time>2026-04-19T15:11:12.999Z</time></trkpt><trkpt lat="39.9152004" lon="-0.3682462"><ele>544.25</ele><time>2026-04-19T15:11:13.999Z</time></trkpt><trkpt lat="39.9151787" lon="-0.3683793"><ele>545.5</ele><time>2026-04-19T15:11:14.999Z</time></trkpt><trkpt lat="39.9151834" lon="-0.3685254"><ele>546.75</ele><time>2026-04-19T15:11:15.999Z</time></trkpt><trkpt lat="39.9151994" lon="-0.3686818"><ele>548.0</ele><time>2026-04-19T15:11:17Z</time></trkpt><trkpt lat="39.9152337" lon="-0.3688506"><ele>551.25</ele><time>2026-04-19T15:11:17.999Z</time></trkpt><trkpt lat="39.9152885" lon="-0.3690162"><ele>554.5</ele><time>2026-04-19T15:11:18.999Z</time></trkpt><trkpt lat="39.9153551" lon="-0.3691854"><ele>557.75</ele><time>2026-04-19T15:11:20Z</time></trkpt><trkpt lat="39.9154135" lon="-0.3693603"><ele>561.0</ele><time>2026-04-19T15:11:21Z</time></trkpt><trkpt lat="39.9154487" lon="-0.36955"><ele>563.25</ele><time>2026-04-19T15:11:22Z</time></trkpt><trkpt lat="39.9154606" lon="-0.3697496"><ele>565.5</ele><time>2026-04-19T15:11:23Z</time></trkpt><trkpt lat="39.915451" lon="-0.3699449"><ele>567.75</ele><time>2026-04-19T15:11:23.999Z</time></trkpt><trkpt lat="39.9154163" lon="-0.3701241"><ele>570.0</ele><time>2026-04-19T15:11:25Z</time></trkpt><trkpt lat="39.9153603" lon="-0.3702882"><ele>570.0</ele><time>2026-04-19T15:11:26Z</time></trkpt><trkpt lat="39.9152953" lon="-0.3704466"><ele>570.0</ele><time>2026-04-19T15:11:26.999Z</time></trkpt><trkpt lat="39.9152256" lon="-0.3706065"><ele>570.0</ele><time>2026-04-19T15:11:28Z</time></trkpt><trkpt lat="39.9151665" lon="-0.3707734"><ele>570.0</ele><time>2026-04-19T15:11:29Z</time></trkpt><trkpt lat="39.9151294" lon="-0.3709521"><ele>571.25</ele><time>2026-04-19T15:11:30Z</time></trkpt><trkpt lat="39.9151059" lon="-0.3711438"><ele>572.5</ele><time>2026-04-19T15:11:30.999Z</time></trkpt><trkpt lat="39.9150937" lon="-0.3713346"><ele>573.75</ele><time>2026-04-19T15:11:32Z</time></trkpt><trkpt lat="39.9150926" lon="-0.3715315"><ele>575.0</ele><time>2026-04-19T15:11:32.999Z</time></trkpt><trkpt lat="39.9150906" lon="-0.371716"><ele>575.0</ele><time>2026-04-19T15:11:33.999Z</time></trkpt><trkpt lat="39.9150825" lon="-0.3718939"><ele>575.0</ele><time>2026-04-19T15:11:34.999Z</time></trkpt><trkpt lat="39.9150552" lon="-0.372059"><ele>575.0</ele><time>2026-04-19T15:11:35.999Z</time></trkpt><trkpt lat="39.9150134" lon="-0.3722203"><ele>575.0</ele><time>2026-04-19T15:11:36.999Z</time></trkpt><trkpt lat="39.914963" lon="-0.3723785"><ele>569.75</ele><time>2026-04-19T15:11:37.999Z</time></trkpt><trkpt lat="39.9149067" lon="-0.3725327"><ele>564.5</ele><time>2026-04-19T15:11:38.999Z</time></trkpt><trkpt lat="39.914849" lon="-0.3726681"><ele>559.25</ele><time>2026-04-19T15:11:39.999Z</time></trkpt><trkpt lat="39.9147824" lon="-0.3727934"><ele>554.0</ele><time>2026-04-19T15:11:40.999Z</time></trkpt><trkpt lat="39.9146972" lon="-0.372889"><ele>554.0</ele><time>2026-04-19T15:11:42Z</time></trkpt><trkpt lat="39.914597" lon="-0.372962"><ele>554.0</ele><time>2026-04-19T15:11:43Z</time></trkpt><trkpt lat="39.9144886" lon="-0.37299"><ele>554.0</ele><time>2026-04-19T15:11:43.999Z</time></trkpt><trkpt lat="39.9143755" lon="-0.3729871"><ele>554.0</ele><time>2026-04-19T15:11:44.999Z</time></trkpt><trkpt lat="39.9142598" lon="-0.3729589"><ele>552.8</ele><time>2026-04-19T15:11:45.999Z</time></trkpt><trkpt lat="39.9141603" lon="-0.3729012"><ele>551.5999999999999</ele><time>2026-04-19T15:11:46.999Z</time></trkpt><trkpt lat="39.9140796" lon="-0.3728185"><ele>550.4</ele><time>2026-04-19T15:11:48Z</time></trkpt><trkpt lat="39.9140276" lon="-0.3726993"><ele>549.1999999999999</ele><time>2026-04-19T15:11:48.999Z</time></trkpt><trkpt lat="39.9139913" lon="-0.3725515"><ele>548.0</ele><time>2026-04-19T15:11:49.999Z</time></trkpt><trkpt lat="39.9139634" lon="-0.3723796"><ele>548.0</ele><time>2026-04-19T15:11:50.999Z</time></trkpt><trkpt lat="39.9139327" lon="-0.3721783"><ele>548.0</ele><time>2026-04-19T15:11:51.999Z</time></trkpt><trkpt lat="39.9138819" lon="-0.3719645"><ele>548.0</ele><time>2026-04-19T15:11:52.999Z</time></trkpt><trkpt lat="39.9138286" lon="-0.3717526"><ele>548.0</ele><time>2026-04-19T15:11:54Z</time></trkpt><trkpt lat="39.9137723" lon="-0.3715655"><ele>548.0</ele><time>2026-04-19T15:11:55Z</time></trkpt><trkpt lat="39.9137087" lon="-0.3713935"><ele>548.0</ele><time>2026-04-19T15:11:55.999Z</time></trkpt><trkpt lat="39.9136388" lon="-0.3712311"><ele>548.0</ele><time>2026-04-19T15:11:56.999Z</time></trkpt><trkpt lat="39.9135524" lon="-0.3710783"><ele>548.0</ele><time>2026-04-19T15:11:57.999Z</time></trkpt><trkpt lat="39.9134551" lon="-0.3709285"><ele>548.0</ele><time>2026-04-19T15:11:58.999Z</time></trkpt><trkpt lat="39.9133407" lon="-0.370782"><ele>548.0</ele><time>2026-04-19T15:11:59.999Z</time></trkpt><trkpt lat="39.9132176" lon="-0.3706336"><ele>548.6666666666666</ele><time>2026-04-19T15:12:01Z</time></trkpt><trkpt lat="39.9130924" lon="-0.3704798"><ele>549.3333333333334</ele><time>2026-04-19T15:12:01.999Z</time></trkpt><trkpt lat="39.9129636" lon="-0.3703248"><ele>550.0</ele><time>2026-04-19T15:12:02.999Z</time></trkpt><trkpt lat="39.912831" lon="-0.370173"><ele>550.0</ele><time>2026-04-19T15:12:03.999Z</time></trkpt><trkpt lat="39.9126934" lon="-0.3700291"><ele>550.0</ele><time>2026-04-19T15:12:04.999Z</time></trkpt><trkpt lat="39.9125612" lon="-0.3699073"><ele>550.0</ele><time>2026-04-19T15:12:05.999Z</time></trkpt><trkpt lat="39.9124378" lon="-0.369806"><ele>550.5</ele><time>2026-04-19T15:12:06.999Z</time></trkpt><trkpt lat="39.9123332" lon="-0.3697275"><ele>551.0</ele><time>2026-04-19T15:12:08Z</time></trkpt><trkpt lat="39.9122428" lon="-0.3696725"><ele>551.5</ele><time>2026-04-19T15:12:08.999Z</time></trkpt><trkpt lat="39.9121648" lon="-0.3696535"><ele>552.0</ele><time>2026-04-19T15:12:09.999Z</time></trkpt><trkpt lat="39.9121081" lon="-0.3696897"><ele>552.5</ele><time>2026-04-19T15:12:11Z</time></trkpt><trkpt lat="39.9120705" lon="-0.3697558"><ele>553.0</ele><time>2026-04-19T15:12:11.999Z</time></trkpt><trkpt lat="39.9120669" lon="-0.3698432"><ele>555.0</ele><time>2026-04-19T15:12:13Z</time></trkpt><trkpt lat="39.9120887" lon="-0.3699416"><ele>557.0</ele><time>2026-04-19T15:12:13.999Z</time></trkpt><trkpt lat="39.9121278" lon="-0.3700503"><ele>559.0</ele><time>2026-04-19T15:12:15Z</time></trkpt><trkpt lat="39.9121755" lon="-0.3701708"><ele>561.0</ele><time>2026-04-19T15:12:16Z</time></trkpt><trkpt lat="39.912223" lon="-0.3703113"><ele>563.0</ele><time>2026-04-19T15:12:17Z</time></trkpt><trkpt lat="39.9122667" lon="-0.3704804"><ele>565.25</ele><time>2026-04-19T15:12:17.999Z</time></trkpt><trkpt lat="39.9122947" lon="-0.370676"><ele>567.5</ele><time>2026-04-19T15:12:18.999Z</time></trkpt><trkpt lat="39.9122861" lon="-0.3708619"><ele>569.75</ele><time>2026-04-19T15:12:20Z</time></trkpt><trkpt lat="39.9122506" lon="-0.3710383"><ele>572.0</ele><time>2026-04-19T15:12:20.999Z</time></trkpt><trkpt lat="39.9121783" lon="-0.3712028"><ele>573.3333333333333</ele><time>2026-04-19T15:12:21.999Z</time></trkpt><trkpt lat="39.9120885" lon="-0.3713786"><ele>574.6666666666666</ele><time>2026-04-19T15:12:22.999Z</time></trkpt><trkpt lat="39.9120022" lon="-0.3715522"><ele>576.0</ele><time>2026-04-19T15:12:24Z</time></trkpt><trkpt lat="39.9119436" lon="-0.3717146"><ele>576.0</ele><time>2026-04-19T15:12:25Z</time></trkpt><trkpt lat="39.9119141" lon="-0.3718707"><ele>576.0</ele><time>2026-04-19T15:12:25.999Z</time></trkpt><trkpt lat="39.9119026" lon="-0.3720266"><ele>576.0</ele><time>2026-04-19T15:12:27Z</time></trkpt><trkpt lat="39.9119192" lon="-0.3721867"><ele>576.0</ele><time>2026-04-19T15:12:28Z</time></trkpt><trkpt lat="39.9119536" lon="-0.3723518"><ele>576.75</ele><time>2026-04-19T15:12:28.999Z</time></trkpt><trkpt lat="39.911985" lon="-0.3725219"><ele>577.5</ele><time>2026-04-19T15:12:29.999Z</time></trkpt><trkpt lat="39.9120045" lon="-0.3727098"><ele>578.25</ele><time>2026-04-19T15:12:31Z</time></trkpt><trkpt lat="39.912017" lon="-0.3729099"><ele>579.0</ele><time>2026-04-19T15:12:31.999Z</time></trkpt><trkpt lat="39.9120359" lon="-0.3731178"><ele>580.0</ele><time>2026-04-19T15:12:32.999Z</time></trkpt><trkpt lat="39.9120747" lon="-0.373318"><ele>581.0</ele><time>2026-04-19T15:12:33.999Z</time></trkpt><trkpt lat="39.9121232" lon="-0.3735186"><ele>582.0</ele><time>2026-04-19T15:12:34.999Z</time></trkpt><trkpt lat="39.9121727" lon="-0.3737169"><ele>585.0</ele><time>2026-04-19T15:12:35.999Z</time></trkpt><trkpt lat="39.9122076" lon="-0.3739166"><ele>588.0</ele><time>2026-04-19T15:12:36.999Z</time></trkpt><trkpt lat="39.9122177" lon="-0.3741196"><ele>591.0</ele><time>2026-04-19T15:12:37.999Z</time></trkpt><trkpt lat="39.9122051" lon="-0.3742997"><ele>591.0</ele><time>2026-04-19T15:12:38.999Z</time></trkpt><trkpt lat="39.9121755" lon="-0.3744685"><ele>591.0</ele><time>2026-04-19T15:12:40Z</time></trkpt><trkpt lat="39.9121474" lon="-0.3746169"><ele>591.0</ele><time>2026-04-19T15:12:40.999Z</time></trkpt><trkpt lat="39.912145" lon="-0.3747491"><ele>591.0</ele><time>2026-04-19T15:12:42Z</time></trkpt><trkpt lat="39.912179" lon="-0.3748596"><ele>591.0</ele><time>2026-04-19T15:12:42.999Z</time></trkpt><trkpt lat="39.9122088" lon="-0.3749673"><ele>593.25</ele><time>2026-04-19T15:12:43.999Z</time></trkpt><trkpt lat="39.9123143" lon="-0.3750422"><ele>595.5</ele><time>2026-04-19T15:12:44.999Z</time></trkpt><trkpt lat="39.9123923" lon="-0.3751418"><ele>597.75</ele><time>2026-04-19T15:12:45.999Z</time></trkpt><trkpt lat="39.9124658" lon="-0.3752735"><ele>600.0</ele><time>2026-04-19T15:12:46.999Z</time></trkpt><trkpt lat="39.9125229" lon="-0.375433"><ele>604.0</ele><time>2026-04-19T15:12:47.999Z</time></trkpt><trkpt lat="39.9125592" lon="-0.3756236"><ele>608.0</ele><time>2026-04-19T15:12:48.999Z</time></trkpt><trkpt lat="39.9125877" lon="-0.3758167"><ele>612.0</ele><time>2026-04-19T15:12:49.999Z</time></trkpt><trkpt lat="39.9126186" lon="-0.3760074"><ele>603.6666666666666</ele><time>2026-04-19T15:12:50.999Z</time></trkpt><trkpt lat="39.9126464" lon="-0.3762013"><ele>595.3333333333333</ele><time>2026-04-19T15:12:51.999Z</time></trkpt><trkpt lat="39.9126643" lon="-0.376394"><ele>587.0</ele><time>2026-04-19T15:12:52.999Z</time></trkpt><trkpt lat="39.9126771" lon="-0.3765889"><ele>587.0</ele><time>2026-04-19T15:12:53.999Z</time></trkpt><trkpt lat="39.9126824" lon="-0.3767853"><ele>587.0</ele><time>2026-04-19T15:12:54.999Z</time></trkpt><trkpt lat="39.9126845" lon="-0.3769815"><ele>587.0</ele><time>2026-04-19T15:12:55.999Z</time></trkpt><trkpt lat="39.9126816" lon="-0.3771771"><ele>588.5</ele><time>2026-04-19T15:12:56.999Z</time></trkpt><trkpt lat="39.9126721" lon="-0.37737"><ele>590.0</ele><time>2026-04-19T15:12:57.999Z</time></trkpt><trkpt lat="39.9126706" lon="-0.3775632"><ele>591.5</ele><time>2026-04-19T15:12:58.999Z</time></trkpt><trkpt lat="39.9126797" lon="-0.3777569"><ele>593.0</ele><time>2026-04-19T15:12:59.999Z</time></trkpt><trkpt lat="39.9127021" lon="-0.3779412"><ele>595.75</ele><time>2026-04-19T15:13:00.999Z</time></trkpt><trkpt lat="39.9127452" lon="-0.3781198"><ele>598.5</ele><time>2026-04-19T15:13:01.999Z</time></trkpt><trkpt lat="39.9128036" lon="-0.3782902"><ele>601.25</ele><time>2026-04-19T15:13:02.999Z</time></trkpt><trkpt lat="39.9128667" lon="-0.3784637"><ele>604.0</ele><time>2026-04-19T15:13:03.999Z</time></trkpt><trkpt lat="39.9129218" lon="-0.3786373"><ele>604.0</ele><time>2026-04-19T15:13:04.999Z</time></trkpt><trkpt lat="39.9129588" lon="-0.3788214"><ele>604.0</ele><time>2026-04-19T15:13:05.999Z</time></trkpt><trkpt lat="39.9129718" lon="-0.3790107"><ele>604.0</ele><time>2026-04-19T15:13:06.999Z</time></trkpt><trkpt lat="39.9129659" lon="-0.379201"><ele>604.0</ele><time>2026-04-19T15:13:07.999Z</time></trkpt><trkpt lat="39.9129777" lon="-0.3793902"><ele>607.25</ele><time>2026-04-19T15:13:09Z</time></trkpt><trkpt lat="39.9130171" lon="-0.3795743"><ele>610.5</ele><time>2026-04-19T15:13:09.999Z</time></trkpt><trkpt lat="39.9130754" lon="-0.379743"><ele>613.75</ele><time>2026-04-19T15:13:10.999Z</time></trkpt><trkpt lat="39.9131372" lon="-0.3798813"><ele>617.0</ele><time>2026-04-19T15:13:12Z</time></trkpt><trkpt lat="39.9131846" lon="-0.3800024"><ele>618.7142857142858</ele><time>2026-04-19T15:13:12.999Z</time></trkpt><trkpt lat="39.9132102" lon="-0.3801041"><ele>620.4285714285713</ele><time>2026-04-19T15:13:13.999Z</time></trkpt><trkpt lat="39.9132123" lon="-0.3801966"><ele>622.1428571428571</ele><time>2026-04-19T15:13:14.999Z</time></trkpt><trkpt lat="39.9131828" lon="-0.3802748"><ele>623.8571428571429</ele><time>2026-04-19T15:13:15.999Z</time></trkpt><trkpt lat="39.9131236" lon="-0.3803103"><ele>625.5714285714287</ele><time>2026-04-19T15:13:16.999Z</time></trkpt><trkpt lat="39.9130518" lon="-0.3802974"><ele>627.2857142857142</ele><time>2026-04-19T15:13:18Z</time></trkpt><trkpt lat="39.9129814" lon="-0.3802364"><ele>629.0</ele><time>2026-04-19T15:13:18.999Z</time></trkpt><trkpt lat="39.9129169" lon="-0.3801367"><ele>629.0</ele><time>2026-04-19T15:13:19.999Z</time></trkpt><trkpt lat="39.9128613" lon="-0.3800186"><ele>629.0</ele><time>2026-04-19T15:13:21Z</time></trkpt><trkpt lat="39.9128083" lon="-0.379888"><ele>629.0</ele><time>2026-04-19T15:13:21.999Z</time></trkpt><trkpt lat="39.9127635" lon="-0.3797524"><ele>629.0</ele><time>2026-04-19T15:13:22.999Z</time></trkpt><trkpt lat="39.9127218" lon="-0.3796121"><ele>629.0</ele><time>2026-04-19T15:13:23.999Z</time></trkpt><trkpt lat="39.9126926" lon="-0.3794875"><ele>627.0</ele><time>2026-04-19T15:13:24.999Z</time></trkpt><trkpt lat="39.9126736" lon="-0.3793796"><ele>625.0</ele><time>2026-04-19T15:13:25.999Z</time></trkpt><trkpt lat="39.9126532" lon="-0.3792978"><ele>623.0</ele><time>2026-04-19T15:13:27Z</time></trkpt><trkpt lat="39.9125675" lon="-0.3792138"><ele>621.0</ele><time>2026-04-19T15:13:29Z</time></trkpt><trkpt lat="39.9124917" lon="-0.3793041"><ele>619.0</ele><time>2026-04-19T15:13:31Z</time></trkpt><trkpt lat="39.9124952" lon="-0.3794115"><ele>617.0</ele><time>2026-04-19T15:13:32Z</time></trkpt><trkpt lat="39.9125201" lon="-0.3795397"><ele>628.25</ele><time>2026-04-19T15:13:32.999Z</time></trkpt><trkpt lat="39.9125444" lon="-0.379698"><ele>639.5</ele><time>2026-04-19T15:13:34Z</time></trkpt><trkpt lat="39.9125554" lon="-0.3798759"><ele>650.75</ele><time>2026-04-19T15:13:34.999Z</time></trkpt><trkpt lat="39.9125518" lon="-0.3800607"><ele>662.0</ele><time>2026-04-19T15:13:35.999Z</time></trkpt><trkpt lat="39.9125417" lon="-0.380245"><ele>662.0</ele><time>2026-04-19T15:13:37Z</time></trkpt><trkpt lat="39.9125342" lon="-0.3804285"><ele>662.0</ele><time>2026-04-19T15:13:37.999Z</time></trkpt><trkpt lat="39.9125277" lon="-0.3806095"><ele>662.0</ele><time>2026-04-19T15:13:38.999Z</time></trkpt><trkpt lat="39.9125337" lon="-0.3807787"><ele>662.0</ele><time>2026-04-19T15:13:39.999Z</time></trkpt><trkpt lat="39.912549" lon="-0.3809477"><ele>663.25</ele><time>2026-04-19T15:13:40.999Z</time></trkpt><trkpt lat="39.9125566" lon="-0.3811116"><ele>664.5</ele><time>2026-04-19T15:13:41.999Z</time></trkpt><trkpt lat="39.9125513" lon="-0.3812834"><ele>665.75</ele><time>2026-04-19T15:13:42.999Z</time></trkpt><trkpt lat="39.9125345" lon="-0.3814588"><ele>667.0</ele><time>2026-04-19T15:13:44Z</time></trkpt><trkpt lat="39.9125131" lon="-0.381638"><ele>667.5</ele><time>2026-04-19T15:13:44.999Z</time></trkpt><trkpt lat="39.9124847" lon="-0.3818202"><ele>668.0</ele><time>2026-04-19T15:13:46Z</time></trkpt><trkpt lat="39.9124579" lon="-0.3820091"><ele>668.5</ele><time>2026-04-19T15:13:46.999Z</time></trkpt><trkpt lat="39.9124358" lon="-0.3822031"><ele>669.0</ele><time>2026-04-19T15:13:48Z</time></trkpt><trkpt lat="39.9124114" lon="-0.3824017"><ele>669.75</ele><time>2026-04-19T15:13:48.999Z</time></trkpt><trkpt lat="39.9123795" lon="-0.3826025"><ele>670.5</ele><time>2026-04-19T15:13:50Z</time></trkpt><trkpt lat="39.9123409" lon="-0.3827953"><ele>671.25</ele><time>2026-04-19T15:13:50.999Z</time></trkpt><trkpt lat="39.9123021" lon="-0.3829649"><ele>672.0</ele><time>2026-04-19T15:13:51.999Z</time></trkpt><trkpt lat="39.9122703" lon="-0.3831125"><ele>673.4000000000001</ele><time>2026-04-19T15:13:52.999Z</time></trkpt><trkpt lat="39.9122633" lon="-0.3832497"><ele>674.8000000000001</ele><time>2026-04-19T15:13:53.999Z</time></trkpt><trkpt lat="39.9122843" lon="-0.3833843"><ele>676.2</ele><time>2026-04-19T15:13:54.999Z</time></trkpt><trkpt lat="39.9123265" lon="-0.3835117"><ele>677.6</ele><time>2026-04-19T15:13:55.999Z</time></trkpt><trkpt lat="39.9123687" lon="-0.3836508"><ele>679.0</ele><time>2026-04-19T15:13:57Z</time></trkpt><trkpt lat="39.912405" lon="-0.3838054"><ele>681.0</ele><time>2026-04-19T15:13:57.999Z</time></trkpt><trkpt lat="39.9124354" lon="-0.3839735"><ele>683.0</ele><time>2026-04-19T15:13:58.999Z</time></trkpt><trkpt lat="39.9124621" lon="-0.3841577"><ele>685.0</ele><time>2026-04-19T15:13:59.999Z</time></trkpt><trkpt lat="39.9124923" lon="-0.3843491"><ele>687.0</ele><time>2026-04-19T15:14:01Z</time></trkpt><trkpt lat="39.9125173" lon="-0.3845426"><ele>689.6666666666666</ele><time>2026-04-19T15:14:02Z</time></trkpt><trkpt lat="39.9125404" lon="-0.3847402"><ele>692.3333333333333</ele><time>2026-04-19T15:14:02.999Z</time></trkpt><trkpt lat="39.9125694" lon="-0.3849424"><ele>695.0</ele><time>2026-04-19T15:14:04Z</time></trkpt><trkpt lat="39.9126017" lon="-0.385146"><ele>691.0</ele><time>2026-04-19T15:14:04.999Z</time></trkpt><trkpt lat="39.9126353" lon="-0.3853535"><ele>687.0</ele><time>2026-04-19T15:14:05.999Z</time></trkpt><trkpt lat="39.9126698" lon="-0.385567"><ele>683.0</ele><time>2026-04-19T15:14:06.999Z</time></trkpt><trkpt lat="39.9126945" lon="-0.3857813"><ele>683.0</ele><time>2026-04-19T15:14:08Z</time></trkpt><trkpt lat="39.9127098" lon="-0.3860035"><ele>683.0</ele><time>2026-04-19T15:14:08.999Z</time></trkpt><trkpt lat="39.9127218" lon="-0.3862277"><ele>683.0</ele><time>2026-04-19T15:14:09.999Z</time></trkpt><trkpt lat="39.9127379" lon="-0.3864546"><ele>688.0</ele><time>2026-04-19T15:14:10.999Z</time></trkpt><trkpt lat="39.912757" lon="-0.3866822"><ele>693.0</ele><time>2026-04-19T15:14:11.999Z</time></trkpt><trkpt lat="39.9127791" lon="-0.3869037"><ele>698.0</ele><time>2026-04-19T15:14:12.999Z</time></trkpt><trkpt lat="39.9128017" lon="-0.3871063"><ele>701.75</ele><time>2026-04-19T15:14:13.999Z</time></trkpt><trkpt lat="39.9128243" lon="-0.3872943"><ele>705.5</ele><time>2026-04-19T15:14:14.999Z</time></trkpt><trkpt lat="39.9128456" lon="-0.3874702"><ele>709.25</ele><time>2026-04-19T15:14:15.999Z</time></trkpt><trkpt lat="39.9128611" lon="-0.387641"><ele>713.0</ele><time>2026-04-19T15:14:16.999Z</time></trkpt><trkpt lat="39.9128779" lon="-0.3878024"><ele>713.0</ele><time>2026-04-19T15:14:17.999Z</time></trkpt><trkpt lat="39.9128939" lon="-0.3879511"><ele>713.0</ele><time>2026-04-19T15:14:18.999Z</time></trkpt><trkpt lat="39.9129148" lon="-0.3880855"><ele>713.0</ele><time>2026-04-19T15:14:19.999Z</time></trkpt><trkpt lat="39.9129407" lon="-0.3882083"><ele>713.0</ele><time>2026-04-19T15:14:20.999Z</time></trkpt><trkpt lat="39.9129713" lon="-0.3883181"><ele>713.0</ele><time>2026-04-19T15:14:21.999Z</time></trkpt><trkpt lat="39.9130104" lon="-0.3884146"><ele>713.1428571428571</ele><time>2026-04-19T15:14:22.999Z</time></trkpt><trkpt lat="39.9130555" lon="-0.3884974"><ele>713.2857142857143</ele><time>2026-04-19T15:14:24Z</time></trkpt><trkpt lat="39.9131017" lon="-0.3885671"><ele>713.4285714285714</ele><time>2026-04-19T15:14:24.999Z</time></trkpt><trkpt lat="39.9131517" lon="-0.3886287"><ele>713.5714285714286</ele><time>2026-04-19T15:14:26Z</time></trkpt><trkpt lat="39.9132056" lon="-0.388689"><ele>713.7142857142858</ele><time>2026-04-19T15:14:26.999Z</time></trkpt><trkpt lat="39.9132632" lon="-0.3887453"><ele>713.8571428571429</ele><time>2026-04-19T15:14:27.999Z</time></trkpt><trkpt lat="39.9133219" lon="-0.3888017"><ele>714.0</ele><time>2026-04-19T15:14:29Z</time></trkpt><trkpt lat="39.9133769" lon="-0.3888519"><ele>714.0</ele><time>2026-04-19T15:14:29.999Z</time></trkpt><trkpt lat="39.913454" lon="-0.3889443"><ele>714.0</ele><time>2026-04-19T15:14:31.999Z</time></trkpt><trkpt lat="39.9134396" lon="-0.3890302"><ele>714.0</ele><time>2026-04-19T15:14:35Z</time></trkpt><trkpt lat="39.913368" lon="-0.3890266"><ele>714.0</ele><time>2026-04-19T15:14:38.999Z</time></trkpt><trkpt lat="39.9132698" lon="-0.3889463"><ele>714.0</ele><time>2026-04-19T15:14:49.999Z</time></trkpt><trkpt lat="39.9131588" lon="-0.388915"><ele>714.0</ele><time>2026-04-19T15:14:51.999Z</time></trkpt><trkpt lat="39.9130698" lon="-0.3889671"><ele>714.0</ele><time>2026-04-19T15:14:53.999Z</time></trkpt><trkpt lat="39.9130425" lon="-0.3891211"><ele>714.0</ele><time>2026-04-19T15:14:56Z</time></trkpt><trkpt lat="39.913053" lon="-0.3892192"><ele>714.0</ele><time>2026-04-19T15:14:56.999Z</time></trkpt><trkpt lat="39.9130726" lon="-0.3893377"><ele>714.0</ele><time>2026-04-19T15:14:57.999Z</time></trkpt><trkpt lat="39.9130933" lon="-0.3894593"><ele>714.0</ele><time>2026-04-19T15:14:59Z</time></trkpt><trkpt lat="39.9131144" lon="-0.3895752"><ele>714.0</ele><time>2026-04-19T15:14:59.999Z</time></trkpt><trkpt lat="39.9131308" lon="-0.3896885"><ele>714.0</ele><time>2026-04-19T15:15:00.999Z</time></trkpt><trkpt lat="39.9131427" lon="-0.3897972"><ele>714.0</ele><time>2026-04-19T15:15:02Z</time></trkpt><trkpt lat="39.9131452" lon="-0.3898956"><ele>714.0</ele><time>2026-04-19T15:15:02.999Z</time></trkpt><trkpt lat="39.9131374" lon="-0.3899935"><ele>714.0</ele><time>2026-04-19T15:15:04Z</time></trkpt><trkpt lat="39.9131146" lon="-0.3901156"><ele>711.0</ele><time>2026-04-19T15:15:04.999Z</time></trkpt><trkpt lat="39.9130544" lon="-0.3904381"><ele>708.0</ele><time>2026-04-19T15:15:07.703Z</time></trkpt><trkpt lat="39.9129841" lon="-0.3908019"><ele>701.6666666666666</ele><time>2026-04-19T15:15:09.987Z</time></trkpt><trkpt lat="39.9129207" lon="-0.3910287"><ele>695.3333333333333</ele><time>2026-04-19T15:15:11Z</time></trkpt><trkpt lat="39.9128615" lon="-0.3911865"><ele>689.0</ele><time>2026-04-19T15:15:11.999Z</time></trkpt><trkpt lat="39.9127965" lon="-0.3913426"><ele>691.2</ele><time>2026-04-19T15:15:12.999Z</time></trkpt><trkpt lat="39.9127379" lon="-0.3914845"><ele>693.4000000000001</ele><time>2026-04-19T15:15:13.999Z</time></trkpt><trkpt lat="39.9126929" lon="-0.3916071"><ele>695.6</ele><time>2026-04-19T15:15:14.999Z</time></trkpt><trkpt lat="39.9126476" lon="-0.3917096"><ele>697.8</ele><time>2026-04-19T15:15:15.999Z</time></trkpt><trkpt lat="39.9125897" lon="-0.3917931"><ele>700.0</ele><time>2026-04-19T15:15:16.999Z</time></trkpt><trkpt lat="39.9125109" lon="-0.391862"><ele>700.0</ele><time>2026-04-19T15:15:17.999Z</time></trkpt><trkpt lat="39.9124234" lon="-0.3919168"><ele>700.0</ele><time>2026-04-19T15:15:18.999Z</time></trkpt><trkpt lat="39.9123355" lon="-0.3919495"><ele>700.0</ele><time>2026-04-19T15:15:19.999Z</time></trkpt><trkpt lat="39.9122368" lon="-0.3919728"><ele>700.0</ele><time>2026-04-19T15:15:21Z</time></trkpt><trkpt lat="39.9121426" lon="-0.3919825"><ele>700.0</ele><time>2026-04-19T15:15:22Z</time></trkpt><trkpt lat="39.912051" lon="-0.3919817"><ele>700.0</ele><time>2026-04-19T15:15:22.999Z</time></trkpt><trkpt lat="39.9119644" lon="-0.3919792"><ele>700.0</ele><time>2026-04-19T15:15:23.999Z</time></trkpt><trkpt lat="39.911879" lon="-0.3919679"><ele>700.0</ele><time>2026-04-19T15:15:24.999Z</time></trkpt><trkpt lat="39.9118046" lon="-0.3919486"><ele>700.0</ele><time>2026-04-19T15:15:25.999Z</time></trkpt><trkpt lat="39.9117297" lon="-0.3919259"><ele>700.0</ele><time>2026-04-19T15:15:26.999Z</time></trkpt><trkpt lat="39.9116523" lon="-0.3919087"><ele>700.0</ele><time>2026-04-19T15:15:27.999Z</time></trkpt><trkpt lat="39.9115765" lon="-0.391898"><ele>701.0</ele><time>2026-04-19T15:15:29Z</time></trkpt><trkpt lat="39.9114951" lon="-0.3918983"><ele>702.0</ele><time>2026-04-19T15:15:29.999Z</time></trkpt><trkpt lat="39.9114137" lon="-0.3919102"><ele>703.0</ele><time>2026-04-19T15:15:31Z</time></trkpt><trkpt lat="39.9113504" lon="-0.3919366"><ele>704.0</ele><time>2026-04-19T15:15:31.999Z</time></trkpt><trkpt lat="39.9112584" lon="-0.3920361"><ele>705.0</ele><time>2026-04-19T15:15:33.999Z</time></trkpt><trkpt lat="39.9112218" lon="-0.3921353"><ele>706.0</ele><time>2026-04-19T15:15:34.999Z</time></trkpt><trkpt lat="39.9111879" lon="-0.3922394"><ele>701.8333333333334</ele><time>2026-04-19T15:15:35.999Z</time></trkpt><trkpt lat="39.9111649" lon="-0.3923227"><ele>697.6666666666667</ele><time>2026-04-19T15:15:36.999Z</time></trkpt><trkpt lat="39.9111259" lon="-0.3924011"><ele>693.5</ele><time>2026-04-19T15:15:37.999Z</time></trkpt><trkpt lat="39.9110707" lon="-0.3924796"><ele>689.3333333333334</ele><time>2026-04-19T15:15:38.999Z</time></trkpt><trkpt lat="39.9110129" lon="-0.3925462"><ele>685.1666666666666</ele><time>2026-04-19T15:15:39.999Z</time></trkpt><trkpt lat="39.9109576" lon="-0.3926167"><ele>681.0</ele><time>2026-04-19T15:15:40.999Z</time></trkpt><trkpt lat="39.9109094" lon="-0.3926956"><ele>682.8333333333334</ele><time>2026-04-19T15:15:41.999Z</time></trkpt><trkpt lat="39.9108807" lon="-0.3927925"><ele>684.6666666666666</ele><time>2026-04-19T15:15:42.999Z</time></trkpt><trkpt lat="39.9108756" lon="-0.3928824"><ele>686.5</ele><time>2026-04-19T15:15:44Z</time></trkpt><trkpt lat="39.9108794" lon="-0.3929961"><ele>688.3333333333333</ele><time>2026-04-19T15:15:45Z</time></trkpt><trkpt lat="39.9108873" lon="-0.3930865"><ele>690.1666666666666</ele><time>2026-04-19T15:15:45.999Z</time></trkpt><trkpt lat="39.9108862" lon="-0.3931782"><ele>692.0</ele><time>2026-04-19T15:15:47Z</time></trkpt><trkpt lat="39.9108685" lon="-0.3932717"><ele>692.0</ele><time>2026-04-19T15:15:47.999Z</time></trkpt><trkpt lat="39.9108352" lon="-0.393378"><ele>692.0</ele><time>2026-04-19T15:15:48.999Z</time></trkpt><trkpt lat="39.9107933" lon="-0.3934928"><ele>692.0</ele><time>2026-04-19T15:15:49.999Z</time></trkpt><trkpt lat="39.9107452" lon="-0.3936167"><ele>692.0</ele><time>2026-04-19T15:15:50.999Z</time></trkpt><trkpt lat="39.9107068" lon="-0.393748"><ele>692.0</ele><time>2026-04-19T15:15:51.999Z</time></trkpt><trkpt lat="39.9106819" lon="-0.3938948"><ele>691.0</ele><time>2026-04-19T15:15:53Z</time></trkpt><trkpt lat="39.9106784" lon="-0.3940484"><ele>690.0</ele><time>2026-04-19T15:15:54Z</time></trkpt><trkpt lat="39.9106828" lon="-0.3941966"><ele>689.0</ele><time>2026-04-19T15:15:55Z</time></trkpt><trkpt lat="39.9106921" lon="-0.3943341"><ele>688.0</ele><time>2026-04-19T15:15:55.999Z</time></trkpt><trkpt lat="39.9107083" lon="-0.394457"><ele>687.0</ele><time>2026-04-19T15:15:56.999Z</time></trkpt><trkpt lat="39.9107324" lon="-0.3945665"><ele>687.0</ele><time>2026-04-19T15:15:57.999Z</time></trkpt><trkpt lat="39.9107707" lon="-0.3946526"><ele>687.0</ele><time>2026-04-19T15:15:58.999Z</time></trkpt><trkpt lat="39.9108333" lon="-0.3947379"><ele>687.0</ele><time>2026-04-19T15:16:00Z</time></trkpt><trkpt lat="39.9109247" lon="-0.3948376"><ele>687.0</ele><time>2026-04-19T15:16:00.999Z</time></trkpt><trkpt lat="39.9110199" lon="-0.3949334"><ele>687.0</ele><time>2026-04-19T15:16:01.999Z</time></trkpt><trkpt lat="39.9111099" lon="-0.3950266"><ele>681.75</ele><time>2026-04-19T15:16:03Z</time></trkpt><trkpt lat="39.911195" lon="-0.3951283"><ele>676.5</ele><time>2026-04-19T15:16:04Z</time></trkpt><trkpt lat="39.9112792" lon="-0.3952424"><ele>671.25</ele><time>2026-04-19T15:16:05Z</time></trkpt><trkpt lat="39.9113541" lon="-0.3953555"><ele>666.0</ele><time>2026-04-19T15:16:06Z</time></trkpt><trkpt lat="39.9114171" lon="-0.3954566"><ele>670.6666666666666</ele><time>2026-04-19T15:16:06.999Z</time></trkpt><trkpt lat="39.9114704" lon="-0.395574"><ele>675.3333333333333</ele><time>2026-04-19T15:16:08.592Z</time></trkpt><trkpt lat="39.9115508" lon="-0.395851"><ele>680.0</ele><time>2026-04-19T15:16:10.966Z</time></trkpt><trkpt lat="39.9115811" lon="-0.3960254"><ele>680.0</ele><time>2026-04-19T15:16:11.999Z</time></trkpt><trkpt lat="39.9115832" lon="-0.396119"><ele>680.0</ele><time>2026-04-19T15:16:12.999Z</time></trkpt><trkpt lat="39.9115779" lon="-0.3962142"><ele>680.0</ele><time>2026-04-19T15:16:13.999Z</time></trkpt><trkpt lat="39.9115263" lon="-0.3963484"><ele>680.0</ele><time>2026-04-19T15:16:15.999Z</time></trkpt><trkpt lat="39.9114746" lon="-0.3964025"><ele>680.0</ele><time>2026-04-19T15:16:16.999Z</time></trkpt><trkpt lat="39.9114048" lon="-0.396461"><ele>680.0</ele><time>2026-04-19T15:16:17.999Z</time></trkpt><trkpt lat="39.9113136" lon="-0.3965351"><ele>680.25</ele><time>2026-04-19T15:16:18.999Z</time></trkpt><trkpt lat="39.9112066" lon="-0.396624"><ele>680.5</ele><time>2026-04-19T15:16:19.999Z</time></trkpt><trkpt lat="39.9111158" lon="-0.3967052"><ele>680.75</ele><time>2026-04-19T15:16:21Z</time></trkpt><trkpt lat="39.9110146" lon="-0.3967743"><ele>681.0</ele><time>2026-04-19T15:16:22Z</time></trkpt><trkpt lat="39.9109071" lon="-0.3968324"><ele>685.8333333333334</ele><time>2026-04-19T15:16:22.999Z</time></trkpt><trkpt lat="39.9108104" lon="-0.3968877"><ele>690.6666666666666</ele><time>2026-04-19T15:16:23.999Z</time></trkpt><trkpt lat="39.9107441" lon="-0.3969304"><ele>695.5</ele><time>2026-04-19T15:16:25Z</time></trkpt><trkpt lat="39.910683" lon="-0.3969617"><ele>700.3333333333333</ele><time>2026-04-19T15:16:25.999Z</time></trkpt><trkpt lat="39.9105956" lon="-0.3969886"><ele>705.1666666666666</ele><time>2026-04-19T15:16:27.999Z</time></trkpt><trkpt lat="39.9105026" lon="-0.3969605"><ele>710.0</ele><time>2026-04-19T15:16:29.999Z</time></trkpt><trkpt lat="39.9104563" lon="-0.3969037"><ele>710.0</ele><time>2026-04-19T15:16:30.999Z</time></trkpt><trkpt lat="39.9104098" lon="-0.3968168"><ele>710.0</ele><time>2026-04-19T15:16:31.999Z</time></trkpt><trkpt lat="39.9103667" lon="-0.3967237"><ele>710.0</ele><time>2026-04-19T15:16:32.999Z</time></trkpt><trkpt lat="39.9103211" lon="-0.3966157"><ele>710.0</ele><time>2026-04-19T15:16:34Z</time></trkpt><trkpt lat="39.9102718" lon="-0.3965047"><ele>710.0</ele><time>2026-04-19T15:16:34.999Z</time></trkpt><trkpt lat="39.9102057" lon="-0.3964038"><ele>713.0</ele><time>2026-04-19T15:16:35.999Z</time></trkpt><trkpt lat="39.9101289" lon="-0.396315"><ele>716.0</ele><time>2026-04-19T15:16:36.999Z</time></trkpt><trkpt lat="39.9100045" lon="-0.3962238"><ele>719.0</ele><time>2026-04-19T15:16:38.897Z</time></trkpt><trkpt lat="39.9097956" lon="-0.3961308"><ele>721.75</ele><time>2026-04-19T15:16:40.762Z</time></trkpt><trkpt lat="39.9095976" lon="-0.3960679"><ele>724.5</ele><time>2026-04-19T15:16:41.999Z</time></trkpt><trkpt lat="39.9094816" lon="-0.3960544"><ele>727.25</ele><time>2026-04-19T15:16:42.999Z</time></trkpt><trkpt lat="39.9093612" lon="-0.3960685"><ele>730.0</ele><time>2026-04-19T15:16:44Z</time></trkpt><trkpt lat="39.909247" lon="-0.3960895"><ele>728.8</ele><time>2026-04-19T15:16:45Z</time></trkpt><trkpt lat="39.909132" lon="-0.3960982"><ele>727.6</ele><time>2026-04-19T15:16:45.999Z</time></trkpt><trkpt lat="39.9090252" lon="-0.39609"><ele>726.4000000000001</ele><time>2026-04-19T15:16:46.999Z</time></trkpt><trkpt lat="39.9089196" lon="-0.396078"><ele>725.2</ele><time>2026-04-19T15:16:47.999Z</time></trkpt><trkpt lat="39.9088299" lon="-0.3960484"><ele>724.0</ele><time>2026-04-19T15:16:48.999Z</time></trkpt><trkpt lat="39.9087565" lon="-0.3960063"><ele>724.0</ele><time>2026-04-19T15:16:49.999Z</time></trkpt><trkpt lat="39.9087007" lon="-0.3959531"><ele>724.0</ele><time>2026-04-19T15:16:51Z</time></trkpt><trkpt lat="39.9086542" lon="-0.3958749"><ele>724.0</ele><time>2026-04-19T15:16:51.999Z</time></trkpt><trkpt lat="39.9086151" lon="-0.3957765"><ele>724.0</ele><time>2026-04-19T15:16:52.999Z</time></trkpt><trkpt lat="39.9085818" lon="-0.3956397"><ele>724.0</ele><time>2026-04-19T15:16:53.999Z</time></trkpt><trkpt lat="39.9085552" lon="-0.3955164"><ele>724.0</ele><time>2026-04-19T15:16:54.999Z</time></trkpt><trkpt lat="39.9085274" lon="-0.3954012"><ele>729.4000000000001</ele><time>2026-04-19T15:16:55.999Z</time></trkpt><trkpt lat="39.9084947" lon="-0.395283"><ele>734.8</ele><time>2026-04-19T15:16:56.999Z</time></trkpt><trkpt lat="39.9084788" lon="-0.3951667"><ele>740.2</ele><time>2026-04-19T15:16:57.999Z</time></trkpt><trkpt lat="39.9084831" lon="-0.3950359"><ele>745.5999999999999</ele><time>2026-04-19T15:16:58.999Z</time></trkpt><trkpt lat="39.9084894" lon="-0.3949065"><ele>751.0</ele><time>2026-04-19T15:16:59.999Z</time></trkpt><trkpt lat="39.9084942" lon="-0.3947885"><ele>752.25</ele><time>2026-04-19T15:17:00.999Z</time></trkpt><trkpt lat="39.9084827" lon="-0.3946679"><ele>753.5</ele><time>2026-04-19T15:17:02Z</time></trkpt><trkpt lat="39.9084477" lon="-0.3945388"><ele>754.75</ele><time>2026-04-19T15:17:02.999Z</time></trkpt><trkpt lat="39.9083826" lon="-0.3943877"><ele>756.0</ele><time>2026-04-19T15:17:04Z</time></trkpt><trkpt lat="39.9083023" lon="-0.3942166"><ele>753.5</ele><time>2026-04-19T15:17:04.999Z</time></trkpt><trkpt lat="39.9082254" lon="-0.3940652"><ele>751.0</ele><time>2026-04-19T15:17:05.999Z</time></trkpt><trkpt lat="39.9081566" lon="-0.3939318"><ele>748.5</ele><time>2026-04-19T15:17:06.999Z</time></trkpt><trkpt lat="39.9080906" lon="-0.3938118"><ele>746.0</ele><time>2026-04-19T15:17:07.999Z</time></trkpt><trkpt lat="39.9080163" lon="-0.3936956"><ele>746.0</ele><time>2026-04-19T15:17:08.999Z</time></trkpt><trkpt lat="39.9079535" lon="-0.3935934"><ele>746.0</ele><time>2026-04-19T15:17:09.999Z</time></trkpt><trkpt lat="39.9078985" lon="-0.3934855"><ele>746.0</ele><time>2026-04-19T15:17:10.999Z</time></trkpt><trkpt lat="39.9078458" lon="-0.3933711"><ele>746.0</ele><time>2026-04-19T15:17:11.999Z</time></trkpt><trkpt lat="39.9077983" lon="-0.3932268"><ele>746.0</ele><time>2026-04-19T15:17:12.999Z</time></trkpt><trkpt lat="39.9077568" lon="-0.3930799"><ele>750.4</ele><time>2026-04-19T15:17:13.999Z</time></trkpt><trkpt lat="39.9077217" lon="-0.3929399"><ele>754.8</ele><time>2026-04-19T15:17:14.999Z</time></trkpt><trkpt lat="39.9077022" lon="-0.3928172"><ele>759.1999999999999</ele><time>2026-04-19T15:17:16Z</time></trkpt><trkpt lat="39.9076884" lon="-0.3926831"><ele>763.5999999999999</ele><time>2026-04-19T15:17:17Z</time></trkpt><trkpt lat="39.9076792" lon="-0.3925398"><ele>768.0</ele><time>2026-04-19T15:17:18Z</time></trkpt><trkpt lat="39.9076725" lon="-0.3923937"><ele>768.0</ele><time>2026-04-19T15:17:19Z</time></trkpt><trkpt lat="39.9076633" lon="-0.3922702"><ele>768.0</ele><time>2026-04-19T15:17:20Z</time></trkpt><trkpt lat="39.9076498" lon="-0.3921591"><ele>768.0</ele><time>2026-04-19T15:17:20.999Z</time></trkpt><trkpt lat="39.9076401" lon="-0.3920757"><ele>768.0</ele><time>2026-04-19T15:17:21.999Z</time></trkpt><trkpt lat="39.9076341" lon="-0.3919819"><ele>768.0</ele><time>2026-04-19T15:17:23Z</time></trkpt><trkpt lat="39.9076358" lon="-0.3918756"><ele>768.0</ele><time>2026-04-19T15:17:23.999Z</time></trkpt><trkpt lat="39.9076457" lon="-0.391722"><ele>769.2</ele><time>2026-04-19T15:17:25.999Z</time></trkpt><trkpt lat="39.9076085" lon="-0.3916095"><ele>770.4</ele><time>2026-04-19T15:17:27.999Z</time></trkpt><trkpt lat="39.907501" lon="-0.3915712"><ele>771.6</ele><time>2026-04-19T15:17:29.999Z</time></trkpt><trkpt lat="39.907427" lon="-0.3915891"><ele>772.8000000000001</ele><time>2026-04-19T15:17:30.999Z</time></trkpt><trkpt lat="39.9073265" lon="-0.3916344"><ele>774.0</ele><time>2026-04-19T15:17:31.999Z</time></trkpt><trkpt lat="39.9072217" lon="-0.3916826"><ele>767.6</ele><time>2026-04-19T15:17:32.999Z</time></trkpt><trkpt lat="39.9071284" lon="-0.3917235"><ele>761.2</ele><time>2026-04-19T15:17:33.999Z</time></trkpt><trkpt lat="39.9070288" lon="-0.3917764"><ele>754.8000000000001</ele><time>2026-04-19T15:17:34.999Z</time></trkpt><trkpt lat="39.9069347" lon="-0.3918438"><ele>748.4000000000001</ele><time>2026-04-19T15:17:36Z</time></trkpt><trkpt lat="39.9068449" lon="-0.3919402"><ele>742.0</ele><time>2026-04-19T15:17:37Z</time></trkpt><trkpt lat="39.9067622" lon="-0.3920453"><ele>738.6</ele><time>2026-04-19T15:17:38Z</time></trkpt><trkpt lat="39.9066882" lon="-0.3921296"><ele>735.2</ele><time>2026-04-19T15:17:38.999Z</time></trkpt><trkpt lat="39.9066127" lon="-0.3922034"><ele>731.8</ele><time>2026-04-19T15:17:39.999Z</time></trkpt><trkpt lat="39.906523" lon="-0.392273"><ele>728.4</ele><time>2026-04-19T15:17:40.999Z</time></trkpt><trkpt lat="39.9064137" lon="-0.392343"><ele>725.0</ele><time>2026-04-19T15:17:41.999Z</time></trkpt><trkpt lat="39.906321" lon="-0.3924137"><ele>725.0</ele><time>2026-04-19T15:17:42.999Z</time></trkpt><trkpt lat="39.9062321" lon="-0.3924697"><ele>725.0</ele><time>2026-04-19T15:17:44Z</time></trkpt><trkpt lat="39.9061364" lon="-0.3925091"><ele>725.0</ele><time>2026-04-19T15:17:45Z</time></trkpt><trkpt lat="39.906019" lon="-0.3925386"><ele>725.0</ele><time>2026-04-19T15:17:45.999Z</time></trkpt><trkpt lat="39.9059227" lon="-0.3925492"><ele>725.0</ele><time>2026-04-19T15:17:46.999Z</time></trkpt><trkpt lat="39.9058397" lon="-0.3925622"><ele>729.8</ele><time>2026-04-19T15:17:47.999Z</time></trkpt><trkpt lat="39.9057622" lon="-0.3925815"><ele>734.6</ele><time>2026-04-19T15:17:48.999Z</time></trkpt><trkpt lat="39.9056864" lon="-0.392595"><ele>739.4000000000001</ele><time>2026-04-19T15:17:50Z</time></trkpt><trkpt lat="39.9055642" lon="-0.3925943"><ele>744.2</ele><time>2026-04-19T15:17:51.999Z</time></trkpt><trkpt lat="39.9054687" lon="-0.392549"><ele>749.0</ele><time>2026-04-19T15:17:53.999Z</time></trkpt><trkpt lat="39.9054071" lon="-0.3924447"><ele>749.0</ele><time>2026-04-19T15:17:55.999Z</time></trkpt><trkpt lat="39.9053958" lon="-0.3923505"><ele>749.0</ele><time>2026-04-19T15:17:56.999Z</time></trkpt><trkpt lat="39.9053821" lon="-0.3922656"><ele>749.0</ele><time>2026-04-19T15:17:57.999Z</time></trkpt><trkpt lat="39.9053601" lon="-0.3921787"><ele>749.0</ele><time>2026-04-19T15:17:58.999Z</time></trkpt><trkpt lat="39.9053161" lon="-0.3920958"><ele>749.0</ele><time>2026-04-19T15:18:00Z</time></trkpt><trkpt lat="39.9052616" lon="-0.3920018"><ele>749.0</ele><time>2026-04-19T15:18:00.999Z</time></trkpt><trkpt lat="39.9052118" lon="-0.3919038"><ele>750.6</ele><time>2026-04-19T15:18:01.999Z</time></trkpt><trkpt lat="39.9051626" lon="-0.3917912"><ele>752.2</ele><time>2026-04-19T15:18:02.999Z</time></trkpt><trkpt lat="39.9051051" lon="-0.3916702"><ele>753.8000000000001</ele><time>2026-04-19T15:18:03.999Z</time></trkpt><trkpt lat="39.9050345" lon="-0.3915567"><ele>755.4000000000001</ele><time>2026-04-19T15:18:04.999Z</time></trkpt><trkpt lat="39.904958" lon="-0.3914433"><ele>757.0</ele><time>2026-04-19T15:18:05.999Z</time></trkpt><trkpt lat="39.904879" lon="-0.3913452"><ele>763.0</ele><time>2026-04-19T15:18:06.999Z</time></trkpt><trkpt lat="39.9048054" lon="-0.391265"><ele>769.0</ele><time>2026-04-19T15:18:08Z</time></trkpt><trkpt lat="39.9047257" lon="-0.3912008"><ele>775.0</ele><time>2026-04-19T15:18:08.999Z</time></trkpt><trkpt lat="39.9046469" lon="-0.3911572"><ele>781.0</ele><time>2026-04-19T15:18:10Z</time></trkpt><trkpt lat="39.9045737" lon="-0.3911278"><ele>787.0</ele><time>2026-04-19T15:18:10.999Z</time></trkpt><trkpt lat="39.9044724" lon="-0.3910457"><ele>786.9999999999999</ele><time>2026-04-19T15:18:12.999Z</time></trkpt><trkpt lat="39.9044369" lon="-0.3909752"><ele>787.0</ele><time>2026-04-19T15:18:13.999Z</time></trkpt><trkpt lat="39.9044119" lon="-0.3908662"><ele>787.0</ele><time>2026-04-19T15:18:14.999Z</time></trkpt><trkpt lat="39.9043887" lon="-0.390749"><ele>787.0</ele><time>2026-04-19T15:18:16Z</time></trkpt><trkpt lat="39.9043666" lon="-0.3906247"><ele>786.9999999999999</ele><time>2026-04-19T15:18:17Z</time></trkpt><trkpt lat="39.9043432" lon="-0.3904931"><ele>787.0</ele><time>2026-04-19T15:18:17.999Z</time></trkpt><trkpt lat="39.904315" lon="-0.39036"><ele>791.0</ele><time>2026-04-19T15:18:18.999Z</time></trkpt><trkpt lat="39.9042877" lon="-0.3902414"><ele>795.0</ele><time>2026-04-19T15:18:19.999Z</time></trkpt><trkpt lat="39.904267" lon="-0.39012"><ele>799.0</ele><time>2026-04-19T15:18:20.999Z</time></trkpt><trkpt lat="39.904264" lon="-0.3899911"><ele>803.0</ele><time>2026-04-19T15:18:21.999Z</time></trkpt><trkpt lat="39.9042593" lon="-0.3898596"><ele>807.0</ele><time>2026-04-19T15:18:22.999Z</time></trkpt><trkpt lat="39.9042355" lon="-0.3897326"><ele>800.6</ele><time>2026-04-19T15:18:23.999Z</time></trkpt><trkpt lat="39.9041978" lon="-0.3896016"><ele>794.2</ele><time>2026-04-19T15:18:24.999Z</time></trkpt><trkpt lat="39.9041456" lon="-0.3894797"><ele>787.8</ele><time>2026-04-19T15:18:25.999Z</time></trkpt><trkpt lat="39.9040777" lon="-0.3893662"><ele>781.4</ele><time>2026-04-19T15:18:26.999Z</time></trkpt><trkpt lat="39.9040116" lon="-0.3892636"><ele>775.0</ele><time>2026-04-19T15:18:27.999Z</time></trkpt><trkpt lat="39.9039593" lon="-0.3891703"><ele>774.9999999999999</ele><time>2026-04-19T15:18:28.999Z</time></trkpt><trkpt lat="39.9039171" lon="-0.3890772"><ele>775.0</ele><time>2026-04-19T15:18:29.999Z</time></trkpt><trkpt lat="39.9038775" lon="-0.3889716"><ele>775.0</ele><time>2026-04-19T15:18:30.999Z</time></trkpt><trkpt lat="39.9038515" lon="-0.3888634"><ele>775.0</ele><time>2026-04-19T15:18:31.999Z</time></trkpt><trkpt lat="39.9038367" lon="-0.3887681"><ele>774.9999999999999</ele><time>2026-04-19T15:18:32.999Z</time></trkpt><trkpt lat="39.9038189" lon="-0.3886813"><ele>775.0</ele><time>2026-04-19T15:18:34Z</time></trkpt><trkpt lat="39.9037934" lon="-0.3886019"><ele>778.5</ele><time>2026-04-19T15:18:34.999Z</time></trkpt><trkpt lat="39.9037105" lon="-0.3885039"><ele>782.0</ele><time>2026-04-19T15:18:37Z</time></trkpt><trkpt lat="39.9036023" lon="-0.3885053"><ele>785.5</ele><time>2026-04-19T15:18:39Z</time></trkpt><trkpt lat="39.9035434" lon="-0.3885512"><ele>789.0</ele><time>2026-04-19T15:18:40Z</time></trkpt><trkpt lat="39.9033472" lon="-0.3887172"><ele>789.0</ele><time>2026-04-19T15:18:43.034Z</time></trkpt><trkpt lat="39.903153" lon="-0.3888251"><ele>789.0</ele><time>2026-04-19T15:18:44.957Z</time></trkpt><trkpt lat="39.9029871" lon="-0.3889011"><ele>789.0</ele><time>2026-04-19T15:18:45.999Z</time></trkpt><trkpt lat="39.9029065" lon="-0.3889602"><ele>786.5</ele><time>2026-04-19T15:18:46.999Z</time></trkpt><trkpt lat="39.9028366" lon="-0.3890339"><ele>784.0</ele><time>2026-04-19T15:18:47.999Z</time></trkpt><trkpt lat="39.9027886" lon="-0.3890928"><ele>781.5</ele><time>2026-04-19T15:18:48.999Z</time></trkpt><trkpt lat="39.9027311" lon="-0.3891465"><ele>779.0</ele><time>2026-04-19T15:18:49.999Z</time></trkpt><trkpt lat="39.9026607" lon="-0.3891871"><ele>776.5</ele><time>2026-04-19T15:18:51Z</time></trkpt><trkpt lat="39.9025422" lon="-0.3891663"><ele>774.0</ele><time>2026-04-19T15:18:52.999Z</time></trkpt><trkpt lat="39.9024848" lon="-0.3891095"><ele>774.0</ele><time>2026-04-19T15:18:53.999Z</time></trkpt><trkpt lat="39.9024129" lon="-0.3889951"><ele>774.0</ele><time>2026-04-19T15:18:54.999Z</time></trkpt><trkpt lat="39.9023394" lon="-0.3888473"><ele>774.0</ele><time>2026-04-19T15:18:55.999Z</time></trkpt><trkpt lat="39.9022561" lon="-0.3887142"><ele>774.0</ele><time>2026-04-19T15:18:56.999Z</time></trkpt><trkpt lat="39.9021605" lon="-0.3885823"><ele>781.0</ele><time>2026-04-19T15:18:58Z</time></trkpt><trkpt lat="39.9020629" lon="-0.3884507"><ele>788.0</ele><time>2026-04-19T15:18:59Z</time></trkpt><trkpt lat="39.9019319" lon="-0.3882785"><ele>795.0</ele><time>2026-04-19T15:19:01.362Z</time></trkpt><trkpt lat="39.9018156" lon="-0.3881678"><ele>795.0</ele><time>2026-04-19T15:19:03Z</time></trkpt><trkpt lat="39.9017777" lon="-0.3880397"><ele>795.0</ele><time>2026-04-19T15:19:04.999Z</time></trkpt><trkpt lat="39.9018064" lon="-0.3878598"><ele>795.0</ele><time>2026-04-19T15:19:07.999Z</time></trkpt><trkpt lat="39.9017994" lon="-0.3877242"><ele>795.0</ele><time>2026-04-19T15:19:09.999Z</time></trkpt><trkpt lat="39.9018004" lon="-0.3875958"><ele>795.0</ele><time>2026-04-19T15:19:12Z</time></trkpt><trkpt lat="39.9018356" lon="-0.387454"><ele>797.6666666666666</ele><time>2026-04-19T15:19:13.999Z</time></trkpt><trkpt lat="39.901854" lon="-0.3873533"><ele>800.3333333333333</ele><time>2026-04-19T15:19:14.999Z</time></trkpt><trkpt lat="39.9018741" lon="-0.3872375"><ele>803.0</ele><time>2026-04-19T15:19:15.999Z</time></trkpt><trkpt lat="39.9019036" lon="-0.3871234"><ele>805.6666666666666</ele><time>2026-04-19T15:19:17Z</time></trkpt><trkpt lat="39.9019321" lon="-0.387025"><ele>808.3333333333333</ele><time>2026-04-19T15:19:17.999Z</time></trkpt><trkpt lat="39.9019673" lon="-0.3869233"><ele>811.0</ele><time>2026-04-19T15:19:18.999Z</time></trkpt><trkpt lat="39.9019927" lon="-0.3868282"><ele>811.4</ele><time>2026-04-19T15:19:19.999Z</time></trkpt><trkpt lat="39.9020181" lon="-0.3867382"><ele>811.8</ele><time>2026-04-19T15:19:20.999Z</time></trkpt><trkpt lat="39.9020492" lon="-0.3866103"><ele>812.1999999999999</ele><time>2026-04-19T15:19:22.793Z</time></trkpt><trkpt lat="39.9020577" lon="-0.3864104"><ele>812.5999999999999</ele><time>2026-04-19T15:19:23.999Z</time></trkpt><trkpt lat="39.902049" lon="-0.3862883"><ele>813.0</ele><time>2026-04-19T15:19:24.999Z</time></trkpt><trkpt lat="39.9020404" lon="-0.3861653"><ele>811.1666666666666</ele><time>2026-04-19T15:19:25.999Z</time></trkpt><trkpt lat="39.9020346" lon="-0.3860528"><ele>809.3333333333333</ele><time>2026-04-19T15:19:26.999Z</time></trkpt><trkpt lat="39.9020296" lon="-0.3859286"><ele>807.5</ele><time>2026-04-19T15:19:27.999Z</time></trkpt><trkpt lat="39.9020258" lon="-0.3858172"><ele>805.6666666666666</ele><time>2026-04-19T15:19:29Z</time></trkpt><trkpt lat="39.9020164" lon="-0.3857158"><ele>803.8333333333333</ele><time>2026-04-19T15:19:29.999Z</time></trkpt><trkpt lat="39.9019953" lon="-0.385631"><ele>802.0</ele><time>2026-04-19T15:19:31Z</time></trkpt><trkpt lat="39.9019702" lon="-0.3855329"><ele>801.8</ele><time>2026-04-19T15:19:31.999Z</time></trkpt><trkpt lat="39.9019422" lon="-0.3854528"><ele>801.6</ele><time>2026-04-19T15:19:32.999Z</time></trkpt><trkpt lat="39.9018894" lon="-0.3853312"><ele>801.4</ele><time>2026-04-19T15:19:35Z</time></trkpt><trkpt lat="39.9018144" lon="-0.3852712"><ele>801.1999999999999</ele><time>2026-04-19T15:19:37Z</time></trkpt><trkpt lat="39.9017382" lon="-0.385301"><ele>801.0</ele><time>2026-04-19T15:19:38.999Z</time></trkpt><trkpt lat="39.9016585" lon="-0.3854646"><ele>796.3333333333334</ele><time>2026-04-19T15:19:40.999Z</time></trkpt><trkpt lat="39.9016243" lon="-0.3855568"><ele>791.6666666666667</ele><time>2026-04-19T15:19:41.999Z</time></trkpt><trkpt lat="39.9015872" lon="-0.3856275"><ele>787.0</ele><time>2026-04-19T15:19:42.999Z</time></trkpt><trkpt lat="39.9015409" lon="-0.3856925"><ele>782.3333333333334</ele><time>2026-04-19T15:19:44Z</time></trkpt><trkpt lat="39.9014709" lon="-0.3857514"><ele>777.6666666666667</ele><time>2026-04-19T15:19:45Z</time></trkpt><trkpt lat="39.9013862" lon="-0.3858196"><ele>773.0</ele><time>2026-04-19T15:19:45.999Z</time></trkpt><trkpt lat="39.9012966" lon="-0.3858978"><ele>773.0000000000001</ele><time>2026-04-19T15:19:46.999Z</time></trkpt><trkpt lat="39.9012226" lon="-0.3859751"><ele>773.0</ele><time>2026-04-19T15:19:47.999Z</time></trkpt><trkpt lat="39.9011605" lon="-0.3860311"><ele>773.0</ele><time>2026-04-19T15:19:49Z</time></trkpt><trkpt lat="39.9011024" lon="-0.386081"><ele>773.0</ele><time>2026-04-19T15:19:49.999Z</time></trkpt><trkpt lat="39.9010441" lon="-0.3861186"><ele>773.0000000000001</ele><time>2026-04-19T15:19:50.999Z</time></trkpt><trkpt lat="39.9009337" lon="-0.3861796"><ele>773.0</ele><time>2026-04-19T15:19:53Z</time></trkpt><trkpt lat="39.9008355" lon="-0.3861731"><ele>773.4</ele><time>2026-04-19T15:19:54.999Z</time></trkpt><trkpt lat="39.9007247" lon="-0.3860597"><ele>773.8</ele><time>2026-04-19T15:19:56.999Z</time></trkpt><trkpt lat="39.9006679" lon="-0.3859876"><ele>774.2</ele><time>2026-04-19T15:19:57.999Z</time></trkpt><trkpt lat="39.9005953" lon="-0.3859108"><ele>774.6</ele><time>2026-04-19T15:19:58.999Z</time></trkpt><trkpt lat="39.9005067" lon="-0.3858469"><ele>775.0</ele><time>2026-04-19T15:19:59.999Z</time></trkpt><trkpt lat="39.9004134" lon="-0.3857826"><ele>775.0</ele><time>2026-04-19T15:20:00.999Z</time></trkpt><trkpt lat="39.9003276" lon="-0.3857217"><ele>775.0</ele><time>2026-04-19T15:20:01.999Z</time></trkpt><trkpt lat="39.9002334" lon="-0.3856568"><ele>775.0</ele><time>2026-04-19T15:20:02.999Z</time></trkpt><trkpt lat="39.9001446" lon="-0.3855882"><ele>775.0</ele><time>2026-04-19T15:20:04Z</time></trkpt><trkpt lat="39.9000591" lon="-0.3855229"><ele>775.0</ele><time>2026-04-19T15:20:04.999Z</time></trkpt><trkpt lat="39.8999807" lon="-0.3854643"><ele>775.9999999999999</ele><time>2026-04-19T15:20:06Z</time></trkpt><trkpt lat="39.8999078" lon="-0.3854118"><ele>777.0</ele><time>2026-04-19T15:20:06.999Z</time></trkpt><trkpt lat="39.8998353" lon="-0.3853658"><ele>778.0</ele><time>2026-04-19T15:20:07.999Z</time></trkpt><trkpt lat="39.8997691" lon="-0.3853161"><ele>779.0</ele><time>2026-04-19T15:20:09Z</time></trkpt><trkpt lat="39.8997078" lon="-0.3852707"><ele>779.9999999999999</ele><time>2026-04-19T15:20:09.999Z</time></trkpt><trkpt lat="39.8996508" lon="-0.3852356"><ele>781.0</ele><time>2026-04-19T15:20:10.999Z</time></trkpt><trkpt lat="39.899553" lon="-0.3851759"><ele>781.0</ele><time>2026-04-19T15:20:12.999Z</time></trkpt><trkpt lat="39.8994616" lon="-0.3851533"><ele>781.0</ele><time>2026-04-19T15:20:14.999Z</time></trkpt><trkpt lat="39.8993973" lon="-0.3852198"><ele>781.0</ele><time>2026-04-19T15:20:16.999Z</time></trkpt><trkpt lat="39.8994061" lon="-0.3853808"><ele>781.0</ele><time>2026-04-19T15:20:20.967Z</time></trkpt><trkpt lat="39.8994337" lon="-0.3854872"><ele>781.0</ele><time>2026-04-19T15:20:22Z</time></trkpt><trkpt lat="39.8994828" lon="-0.3855887"><ele>777.4285714285714</ele><time>2026-04-19T15:20:22.999Z</time></trkpt><trkpt lat="39.8995245" lon="-0.3856771"><ele>773.8571428571429</ele><time>2026-04-19T15:20:23.999Z</time></trkpt><trkpt lat="39.8995737" lon="-0.385752"><ele>770.2857142857142</ele><time>2026-04-19T15:20:24.999Z</time></trkpt><trkpt lat="39.8996181" lon="-0.3858138"><ele>766.7142857142858</ele><time>2026-04-19T15:20:25.999Z</time></trkpt><trkpt lat="39.8996585" lon="-0.3858784"><ele>763.1428571428571</ele><time>2026-04-19T15:20:26.999Z</time></trkpt><trkpt lat="39.8996905" lon="-0.385955"><ele>759.5714285714286</ele><time>2026-04-19T15:20:27.999Z</time></trkpt><trkpt lat="39.8997162" lon="-0.3860462"><ele>756.0</ele><time>2026-04-19T15:20:28.999Z</time></trkpt><trkpt lat="39.8997245" lon="-0.386145"><ele>756.0</ele><time>2026-04-19T15:20:29.999Z</time></trkpt><trkpt lat="39.899722" lon="-0.3862425"><ele>756.0</ele><time>2026-04-19T15:20:30.999Z</time></trkpt><trkpt lat="39.8997218" lon="-0.3863448"><ele>756.0</ele><time>2026-04-19T15:20:31.999Z</time></trkpt><trkpt lat="39.8997178" lon="-0.3864389"><ele>756.0</ele><time>2026-04-19T15:20:32.999Z</time></trkpt><trkpt lat="39.8997145" lon="-0.3865346"><ele>756.0</ele><time>2026-04-19T15:20:34Z</time></trkpt><trkpt lat="39.899714" lon="-0.3867247"><ele>756.0</ele><time>2026-04-19T15:20:36Z</time></trkpt><trkpt lat="39.8997127" lon="-0.3868179"><ele>754.8</ele><time>2026-04-19T15:20:36.999Z</time></trkpt><trkpt lat="39.8997158" lon="-0.3869079"><ele>753.5999999999999</ele><time>2026-04-19T15:20:38Z</time></trkpt><trkpt lat="39.8997242" lon="-0.3869896"><ele>752.4</ele><time>2026-04-19T15:20:38.999Z</time></trkpt><trkpt lat="39.8997158" lon="-0.387146"><ele>751.2</ele><time>2026-04-19T15:20:40.999Z</time></trkpt><trkpt lat="39.8996969" lon="-0.3873083"><ele>750.0</ele><time>2026-04-19T15:20:42.999Z</time></trkpt><trkpt lat="39.8996869" lon="-0.3874024"><ele>748.6666666666666</ele><time>2026-04-19T15:20:43.999Z</time></trkpt><trkpt lat="39.8996766" lon="-0.3874919"><ele>747.3333333333334</ele><time>2026-04-19T15:20:44.999Z</time></trkpt><trkpt lat="39.8996604" lon="-0.3875762"><ele>746.0</ele><time>2026-04-19T15:20:46Z</time></trkpt><trkpt lat="39.8996355" lon="-0.3876557"><ele>744.6666666666667</ele><time>2026-04-19T15:20:46.999Z</time></trkpt><trkpt lat="39.8995758" lon="-0.3877883"><ele>743.3333333333334</ele><time>2026-04-19T15:20:48.999Z</time></trkpt><trkpt lat="39.899543" lon="-0.3878616"><ele>742.0</ele><time>2026-04-19T15:20:49.999Z</time></trkpt><trkpt lat="39.8994938" lon="-0.3880013"><ele>740.0</ele><time>2026-04-19T15:20:52Z</time></trkpt><trkpt lat="39.8994787" lon="-0.3880942"><ele>738.0</ele><time>2026-04-19T15:20:52.999Z</time></trkpt><trkpt lat="39.8994758" lon="-0.3881988"><ele>736.0</ele><time>2026-04-19T15:20:53.999Z</time></trkpt><trkpt lat="39.89949" lon="-0.3883104"><ele>734.0</ele><time>2026-04-19T15:20:54.999Z</time></trkpt><trkpt lat="39.8995053" lon="-0.388413"><ele>732.0</ele><time>2026-04-19T15:20:55.999Z</time></trkpt><trkpt lat="39.8995176" lon="-0.3885039"><ele>730.0</ele><time>2026-04-19T15:20:56.999Z</time></trkpt><trkpt lat="39.8995131" lon="-0.3885864"><ele>730.0000000000001</ele><time>2026-04-19T15:20:57.999Z</time></trkpt><trkpt lat="39.8994972" lon="-0.3886856"><ele>730.0</ele><time>2026-04-19T15:20:59Z</time></trkpt><trkpt lat="39.899478" lon="-0.388777"><ele>730.0</ele><time>2026-04-19T15:20:59.999Z</time></trkpt><trkpt lat="39.8994582" lon="-0.3888609"><ele>730.0</ele><time>2026-04-19T15:21:00.999Z</time></trkpt><trkpt lat="39.8994326" lon="-0.388941"><ele>730.0</ele><time>2026-04-19T15:21:01.999Z</time></trkpt><trkpt lat="39.8994101" lon="-0.3890272"><ele>730.0000000000001</ele><time>2026-04-19T15:21:02.999Z</time></trkpt><trkpt lat="39.8993869" lon="-0.389138"><ele>730.0</ele><time>2026-04-19T15:21:04Z</time></trkpt><trkpt lat="39.89937" lon="-0.3892503"><ele>727.75</ele><time>2026-04-19T15:21:04.999Z</time></trkpt><trkpt lat="39.899347" lon="-0.3894639"><ele>725.5</ele><time>2026-04-19T15:21:07Z</time></trkpt><trkpt lat="39.8993432" lon="-0.3896963"><ele>723.25</ele><time>2026-04-19T15:21:09.999Z</time></trkpt><trkpt lat="39.899333" lon="-0.3898139"><ele>721.0</ele><time>2026-04-19T15:21:12Z</time></trkpt><trkpt lat="39.8992918" lon="-0.3899366"><ele>719.0</ele><time>2026-04-19T15:21:13.999Z</time></trkpt><trkpt lat="39.8992563" lon="-0.3900141"><ele>717.0</ele><time>2026-04-19T15:21:14.999Z</time></trkpt><trkpt lat="39.8992241" lon="-0.3900876"><ele>715.0</ele><time>2026-04-19T15:21:15.999Z</time></trkpt><trkpt lat="39.8991881" lon="-0.3902058"><ele>713.0</ele><time>2026-04-19T15:21:17.999Z</time></trkpt><trkpt lat="39.8992241" lon="-0.390309"><ele>711.0</ele><time>2026-04-19T15:21:19.999Z</time></trkpt><trkpt lat="39.89931" lon="-0.3903393"><ele>709.0</ele><time>2026-04-19T15:21:21.999Z</time></trkpt><trkpt lat="39.8993839" lon="-0.3903686"><ele>709.0</ele><time>2026-04-19T15:21:23.999Z</time></trkpt><trkpt lat="39.899463" lon="-0.3904722"><ele>709.0</ele><time>2026-04-19T15:21:26Z</time></trkpt><trkpt lat="39.8995039" lon="-0.3905481"><ele>709.0</ele><time>2026-04-19T15:21:26.999Z</time></trkpt><trkpt lat="39.8995375" lon="-0.3906199"><ele>709.0</ele><time>2026-04-19T15:21:27.999Z</time></trkpt><trkpt lat="39.899568" lon="-0.3907087"><ele>709.0</ele><time>2026-04-19T15:21:28.999Z</time></trkpt><trkpt lat="39.8995986" lon="-0.3908248"><ele>709.0</ele><time>2026-04-19T15:21:29.999Z</time></trkpt><trkpt lat="39.8996412" lon="-0.3909868"><ele>709.0</ele><time>2026-04-19T15:21:31.959Z</time></trkpt><trkpt lat="39.8996743" lon="-0.3911566"><ele>709.0</ele><time>2026-04-19T15:21:32.999Z</time></trkpt><trkpt lat="39.8996816" lon="-0.3912658"><ele>709.0</ele><time>2026-04-19T15:21:34Z</time></trkpt><trkpt lat="39.8996826" lon="-0.3913827"><ele>709.0</ele><time>2026-04-19T15:21:34.999Z</time></trkpt><trkpt lat="39.8996941" lon="-0.3914885"><ele>709.0</ele><time>2026-04-19T15:21:36Z</time></trkpt><trkpt lat="39.8997207" lon="-0.3916089"><ele>709.0</ele><time>2026-04-19T15:21:36.999Z</time></trkpt><trkpt lat="39.899748" lon="-0.3917061"><ele>709.0</ele><time>2026-04-19T15:21:37.999Z</time></trkpt><trkpt lat="39.8997666" lon="-0.3918588"><ele>709.0</ele><time>2026-04-19T15:21:39.999Z</time></trkpt><trkpt lat="39.8997363" lon="-0.391998"><ele>709.0</ele><time>2026-04-19T15:21:41.999Z</time></trkpt><trkpt lat="39.8996978" lon="-0.3920817"><ele>709.0</ele><time>2026-04-19T15:21:42.999Z</time></trkpt><trkpt lat="39.8995987" lon="-0.3922033"><ele>710.0</ele><time>2026-04-19T15:21:44.999Z</time></trkpt><trkpt lat="39.8995369" lon="-0.3922656"><ele>711.0</ele><time>2026-04-19T15:21:45.999Z</time></trkpt><trkpt lat="39.8994772" lon="-0.3923258"><ele>712.0</ele><time>2026-04-19T15:21:46.999Z</time></trkpt><trkpt lat="39.8994136" lon="-0.3923824"><ele>713.0</ele><time>2026-04-19T15:21:47.999Z</time></trkpt><trkpt lat="39.8993403" lon="-0.39244"><ele>714.0</ele><time>2026-04-19T15:21:49Z</time></trkpt><trkpt lat="39.8992581" lon="-0.3925024"><ele>715.0</ele><time>2026-04-19T15:21:49.999Z</time></trkpt><trkpt lat="39.8991612" lon="-0.3925908"><ele>720.6</ele><time>2026-04-19T15:21:50.999Z</time></trkpt><trkpt lat="39.8990707" lon="-0.3926743"><ele>726.2</ele><time>2026-04-19T15:21:51.999Z</time></trkpt><trkpt lat="39.8989832" lon="-0.3927554"><ele>731.8</ele><time>2026-04-19T15:21:52.999Z</time></trkpt><trkpt lat="39.8989021" lon="-0.3928239"><ele>737.4</ele><time>2026-04-19T15:21:53.999Z</time></trkpt><trkpt lat="39.8988367" lon="-0.3928837"><ele>743.0</ele><time>2026-04-19T15:21:54.999Z</time></trkpt><trkpt lat="39.8987744" lon="-0.3929341"><ele>743.0</ele><time>2026-04-19T15:21:55.999Z</time></trkpt><trkpt lat="39.8987206" lon="-0.3929787"><ele>743.0</ele><time>2026-04-19T15:21:56.999Z</time></trkpt><trkpt lat="39.8986665" lon="-0.3930736"><ele>743.0</ele><time>2026-04-19T15:21:58.999Z</time></trkpt><trkpt lat="39.8986852" lon="-0.3932025"><ele>743.0</ele><time>2026-04-19T15:22:01Z</time></trkpt><trkpt lat="39.8987671" lon="-0.393315"><ele>743.0</ele><time>2026-04-19T15:22:02.999Z</time></trkpt><trkpt lat="39.8988298" lon="-0.3933478"><ele>743.0</ele><time>2026-04-19T15:22:03.999Z</time></trkpt><trkpt lat="39.8989745" lon="-0.3934287"><ele>743.0</ele><time>2026-04-19T15:22:06.842Z</time></trkpt><trkpt lat="39.8990458" lon="-0.3934786"><ele>743.0</ele><time>2026-04-19T15:22:08Z</time></trkpt><trkpt lat="39.8991092" lon="-0.3935846"><ele>743.0</ele><time>2026-04-19T15:22:09.999Z</time></trkpt><trkpt lat="39.8991311" lon="-0.3936691"><ele>743.0</ele><time>2026-04-19T15:22:10.999Z</time></trkpt><trkpt lat="39.899154" lon="-0.3937793"><ele>743.0</ele><time>2026-04-19T15:22:12Z</time></trkpt><trkpt lat="39.899179" lon="-0.3938933"><ele>743.0</ele><time>2026-04-19T15:22:12.999Z</time></trkpt><trkpt lat="39.8991932" lon="-0.3939752"><ele>747.2</ele><time>2026-04-19T15:22:13.999Z</time></trkpt><trkpt lat="39.8991878" lon="-0.3941048"><ele>751.4</ele><time>2026-04-19T15:22:15.999Z</time></trkpt><trkpt lat="39.8991295" lon="-0.3942216"><ele>755.6</ele><time>2026-04-19T15:22:17.999Z</time></trkpt><trkpt lat="39.8991027" lon="-0.3943299"><ele>759.8000000000001</ele><time>2026-04-19T15:22:19.999Z</time></trkpt><trkpt lat="39.8991356" lon="-0.3944355"><ele>764.0</ele><time>2026-04-19T15:22:21.999Z</time></trkpt><trkpt lat="39.8991671" lon="-0.3945208"><ele>764.0</ele><time>2026-04-19T15:22:23.999Z</time></trkpt><trkpt lat="39.8991219" lon="-0.394581"><ele>764.0</ele><time>2026-04-19T15:22:25.999Z</time></trkpt><trkpt lat="39.8990431" lon="-0.3945407"><ele>764.0</ele><time>2026-04-19T15:22:27.999Z</time></trkpt><trkpt lat="39.8989453" lon="-0.3944776"><ele>764.0</ele><time>2026-04-19T15:22:29.999Z</time></trkpt><trkpt lat="39.8988917" lon="-0.3943832"><ele>764.0</ele><time>2026-04-19T15:22:31.999Z</time></trkpt><trkpt lat="39.89892" lon="-0.3942704"><ele>764.0</ele><time>2026-04-19T15:22:34Z</time></trkpt><trkpt lat="39.8989436" lon="-0.3941193"><ele>764.0</ele><time>2026-04-19T15:22:36.964Z</time></trkpt><trkpt lat="39.898917" lon="-0.3940233"><ele>764.0</ele><time>2026-04-19T15:22:38Z</time></trkpt><trkpt lat="39.8988398" lon="-0.3939613"><ele>764.0</ele><time>2026-04-19T15:22:39.999Z</time></trkpt><trkpt lat="39.8987698" lon="-0.393959"><ele>764.0</ele><time>2026-04-19T15:22:41.999Z</time></trkpt><trkpt lat="39.8987479" lon="-0.3940497"><ele>764.0</ele><time>2026-04-19T15:22:43.999Z</time></trkpt><trkpt lat="39.8987521" lon="-0.394164"><ele>764.0</ele><time>2026-04-19T15:22:45.999Z</time></trkpt><trkpt lat="39.8986982" lon="-0.3943365"><ele>764.0</ele><time>2026-04-19T15:22:49.997Z</time></trkpt><trkpt lat="39.8986314" lon="-0.3943752"><ele>764.0</ele><time>2026-04-19T15:22:50.999Z</time></trkpt><trkpt lat="39.8985473" lon="-0.3944291"><ele>764.0</ele><time>2026-04-19T15:22:52.999Z</time></trkpt><trkpt lat="39.8984656" lon="-0.3945456"><ele>764.0</ele><time>2026-04-19T15:22:55Z</time></trkpt><trkpt lat="39.8984501" lon="-0.3946857"><ele>764.0</ele><time>2026-04-19T15:22:56.999Z</time></trkpt><trkpt lat="39.8984908" lon="-0.3948208"><ele>767.6666666666666</ele><time>2026-04-19T15:22:58.999Z</time></trkpt><trkpt lat="39.8985305" lon="-0.3948942"><ele>771.3333333333333</ele><time>2026-04-19T15:22:59.999Z</time></trkpt><trkpt lat="39.8985738" lon="-0.3949567"><ele>775.0</ele><time>2026-04-19T15:23:00.999Z</time></trkpt><trkpt lat="39.8986244" lon="-0.3950058"><ele>778.6666666666666</ele><time>2026-04-19T15:23:02Z</time></trkpt><trkpt lat="39.8986814" lon="-0.3950419"><ele>782.3333333333334</ele><time>2026-04-19T15:23:02.999Z</time></trkpt><trkpt lat="39.898775" lon="-0.395141"><ele>786.0</ele><time>2026-04-19T15:23:04.999Z</time></trkpt><trkpt lat="39.8988281" lon="-0.3952864"><ele>786.0</ele><time>2026-04-19T15:23:06.999Z</time></trkpt><trkpt lat="39.8988502" lon="-0.3953663"><ele>786.0</ele><time>2026-04-19T15:23:08Z</time></trkpt><trkpt lat="39.8988586" lon="-0.3954479"><ele>786.0</ele><time>2026-04-19T15:23:09Z</time></trkpt><trkpt lat="39.898868" lon="-0.3955934"><ele>786.0</ele><time>2026-04-19T15:23:10.999Z</time></trkpt><trkpt lat="39.8989069" lon="-0.3956607"><ele>786.0</ele><time>2026-04-19T15:23:11.999Z</time></trkpt><trkpt lat="39.89896" lon="-0.3957219"><ele>786.0</ele><time>2026-04-19T15:23:13Z</time></trkpt><trkpt lat="39.8990275" lon="-0.3958452"><ele>788.4</ele><time>2026-04-19T15:23:14.999Z</time></trkpt><trkpt lat="39.8990816" lon="-0.395983"><ele>790.8</ele><time>2026-04-19T15:23:16.999Z</time></trkpt><trkpt lat="39.899201" lon="-0.3960424"><ele>793.1999999999999</ele><time>2026-04-19T15:23:19Z</time></trkpt><trkpt lat="39.8992735" lon="-0.3960299"><ele>795.5999999999999</ele><time>2026-04-19T15:23:19.999Z</time></trkpt><trkpt lat="39.899349" lon="-0.3959941"><ele>798.0</ele><time>2026-04-19T15:23:20.999Z</time></trkpt><trkpt lat="39.8994148" lon="-0.3959616"><ele>798.0</ele><time>2026-04-19T15:23:21.999Z</time></trkpt><trkpt lat="39.8995182" lon="-0.3959227"><ele>798.0</ele><time>2026-04-19T15:23:23.999Z</time></trkpt><trkpt lat="39.8995962" lon="-0.3959665"><ele>798.0</ele><time>2026-04-19T15:23:26Z</time></trkpt><trkpt lat="39.8996263" lon="-0.3960538"><ele>798.0</ele><time>2026-04-19T15:23:28Z</time></trkpt><trkpt lat="39.8996385" lon="-0.3961845"><ele>798.0</ele><time>2026-04-19T15:23:29.999Z</time></trkpt><trkpt lat="39.8996402" lon="-0.3962916"><ele>798.0</ele><time>2026-04-19T15:23:31.969Z</time></trkpt><trkpt lat="39.8996348" lon="-0.3964314"><ele>800.8</ele><time>2026-04-19T15:23:32.999Z</time></trkpt><trkpt lat="39.8996267" lon="-0.3965607"><ele>803.5999999999999</ele><time>2026-04-19T15:23:34Z</time></trkpt><trkpt lat="39.8996184" lon="-0.3967063"><ele>806.4000000000001</ele><time>2026-04-19T15:23:34.999Z</time></trkpt><trkpt lat="39.8996087" lon="-0.396849"><ele>809.2</ele><time>2026-04-19T15:23:36Z</time></trkpt><trkpt lat="39.8995961" lon="-0.3969868"><ele>812.0</ele><time>2026-04-19T15:23:36.999Z</time></trkpt><trkpt lat="39.8995826" lon="-0.3970861"><ele>816.6</ele><time>2026-04-19T15:23:37.999Z</time></trkpt><trkpt lat="39.8995524" lon="-0.3972083"><ele>821.2</ele><time>2026-04-19T15:23:40Z</time></trkpt><trkpt lat="39.8995034" lon="-0.3972851"><ele>825.8</ele><time>2026-04-19T15:23:41.999Z</time></trkpt><trkpt lat="39.8994078" lon="-0.3972855"><ele>830.4</ele><time>2026-04-19T15:23:46.214Z</time></trkpt><trkpt lat="39.8993411" lon="-0.3971825"><ele>835.0</ele><time>2026-04-19T15:23:48Z</time></trkpt><trkpt lat="39.8992444" lon="-0.3970907"><ele>834.9999999999999</ele><time>2026-04-19T15:23:49.999Z</time></trkpt><trkpt lat="39.8991525" lon="-0.3970682"><ele>835.0</ele><time>2026-04-19T15:23:52Z</time></trkpt><trkpt lat="39.8990586" lon="-0.3971527"><ele>835.0</ele><time>2026-04-19T15:23:54Z</time></trkpt><trkpt lat="39.8990087" lon="-0.3972412"><ele>835.0</ele><time>2026-04-19T15:23:54.999Z</time></trkpt><trkpt lat="39.8989688" lon="-0.3973198"><ele>834.9999999999999</ele><time>2026-04-19T15:23:56Z</time></trkpt><trkpt lat="39.8989227" lon="-0.3974016"><ele>835.0</ele><time>2026-04-19T15:23:56.999Z</time></trkpt><trkpt lat="39.8988723" lon="-0.3974823"><ele>834.6666666666666</ele><time>2026-04-19T15:23:57.999Z</time></trkpt><trkpt lat="39.8988215" lon="-0.397561"><ele>834.3333333333333</ele><time>2026-04-19T15:23:58.999Z</time></trkpt><trkpt lat="39.8987628" lon="-0.3976371"><ele>834.0</ele><time>2026-04-19T15:24:00Z</time></trkpt><trkpt lat="39.8987104" lon="-0.3977119"><ele>833.6666666666667</ele><time>2026-04-19T15:24:01Z</time></trkpt><trkpt lat="39.8986609" lon="-0.3977851"><ele>833.3333333333334</ele><time>2026-04-19T15:24:02Z</time></trkpt><trkpt lat="39.8986079" lon="-0.3978723"><ele>833.0</ele><time>2026-04-19T15:24:02.999Z</time></trkpt><trkpt lat="39.8985624" lon="-0.3979582"><ele>833.1666666666667</ele><time>2026-04-19T15:24:04Z</time></trkpt><trkpt lat="39.8985202" lon="-0.3980381"><ele>833.3333333333334</ele><time>2026-04-19T15:24:04.999Z</time></trkpt><trkpt lat="39.8984803" lon="-0.3981109"><ele>833.5</ele><time>2026-04-19T15:24:05.999Z</time></trkpt><trkpt lat="39.8984414" lon="-0.3981779"><ele>833.6666666666667</ele><time>2026-04-19T15:24:06.999Z</time></trkpt><trkpt lat="39.8983567" lon="-0.3982732"><ele>833.8333333333334</ele><time>2026-04-19T15:24:09Z</time></trkpt><trkpt lat="39.8982953" lon="-0.3983272"><ele>834.0</ele><time>2026-04-19T15:24:09.999Z</time></trkpt><trkpt lat="39.8982172" lon="-0.3983915"><ele>830.8000000000001</ele><time>2026-04-19T15:24:10.999Z</time></trkpt><trkpt lat="39.8981278" lon="-0.3984658"><ele>827.6</ele><time>2026-04-19T15:24:12Z</time></trkpt><trkpt lat="39.8980371" lon="-0.3985429"><ele>824.4</ele><time>2026-04-19T15:24:12.999Z</time></trkpt><trkpt lat="39.8979528" lon="-0.3986138"><ele>821.2</ele><time>2026-04-19T15:24:14Z</time></trkpt><trkpt lat="39.8978798" lon="-0.3986822"><ele>818.0</ele><time>2026-04-19T15:24:14.999Z</time></trkpt><trkpt lat="39.8978091" lon="-0.398746"><ele>818.0000000000001</ele><time>2026-04-19T15:24:16Z</time></trkpt><trkpt lat="39.8977468" lon="-0.3988051"><ele>818.0</ele><time>2026-04-19T15:24:16.999Z</time></trkpt><trkpt lat="39.8976843" lon="-0.3988508"><ele>818.0</ele><time>2026-04-19T15:24:18Z</time></trkpt><trkpt lat="39.8976114" lon="-0.3988832"><ele>818.0</ele><time>2026-04-19T15:24:18.999Z</time></trkpt><trkpt lat="39.89753" lon="-0.3989013"><ele>818.0000000000001</ele><time>2026-04-19T15:24:19.999Z</time></trkpt><trkpt lat="39.8974097" lon="-0.3989266"><ele>818.0</ele><time>2026-04-19T15:24:21.957Z</time></trkpt><trkpt lat="39.8972784" lon="-0.3989818"><ele>815.5714285714286</ele><time>2026-04-19T15:24:22.999Z</time></trkpt><trkpt lat="39.8972064" lon="-0.3990397"><ele>813.1428571428572</ele><time>2026-04-19T15:24:23.999Z</time></trkpt><trkpt lat="39.8971484" lon="-0.3990938"><ele>810.7142857142858</ele><time>2026-04-19T15:24:24.999Z</time></trkpt><trkpt lat="39.8970941" lon="-0.3991501"><ele>808.2857142857142</ele><time>2026-04-19T15:24:25.999Z</time></trkpt><trkpt lat="39.8970415" lon="-0.3992023"><ele>805.8571428571429</ele><time>2026-04-19T15:24:26.999Z</time></trkpt><trkpt lat="39.8969861" lon="-0.3992611"><ele>803.4285714285714</ele><time>2026-04-19T15:24:27.999Z</time></trkpt><trkpt lat="39.8969334" lon="-0.3993094"><ele>801.0</ele><time>2026-04-19T15:24:28.999Z</time></trkpt><trkpt lat="39.8968386" lon="-0.3994073"><ele>801.6666666666666</ele><time>2026-04-19T15:24:30.999Z</time></trkpt><trkpt lat="39.8967423" lon="-0.3995081"><ele>802.3333333333333</ele><time>2026-04-19T15:24:33Z</time></trkpt><trkpt lat="39.8966921" lon="-0.3995603"><ele>803.0</ele><time>2026-04-19T15:24:34Z</time></trkpt><trkpt lat="39.896638" lon="-0.3996065"><ele>803.6666666666666</ele><time>2026-04-19T15:24:34.999Z</time></trkpt><trkpt lat="39.8965436" lon="-0.3996682"><ele>804.3333333333333</ele><time>2026-04-19T15:24:36.999Z</time></trkpt><trkpt lat="39.8964614" lon="-0.399687"><ele>805.0</ele><time>2026-04-19T15:24:38.999Z</time></trkpt><trkpt lat="39.8963979" lon="-0.3997014"><ele>803.1666666666666</ele><time>2026-04-19T15:24:40.999Z</time></trkpt><trkpt lat="39.8963562" lon="-0.3997642"><ele>801.3333333333333</ele><time>2026-04-19T15:24:42.999Z</time></trkpt><trkpt lat="39.8963694" lon="-0.3998801"><ele>799.5</ele><time>2026-04-19T15:24:45.999Z</time></trkpt><trkpt lat="39.8964464" lon="-0.3999381"><ele>797.6666666666667</ele><time>2026-04-19T15:24:48.999Z</time></trkpt><trkpt lat="39.8964893" lon="-0.4000585"><ele>795.8333333333334</ele><time>2026-04-19T15:24:53.201Z</time></trkpt><trkpt lat="39.8964459" lon="-0.4001339"><ele>794.0</ele><time>2026-04-19T15:24:54.999Z</time></trkpt><trkpt lat="39.8963737" lon="-0.4001279"><ele>794.0000000000001</ele><time>2026-04-19T15:24:56.999Z</time></trkpt><trkpt lat="39.8962714" lon="-0.4000354"><ele>794.0</ele><time>2026-04-19T15:24:58.999Z</time></trkpt><trkpt lat="39.8962041" lon="-0.3999858"><ele>794.0</ele><time>2026-04-19T15:24:59.999Z</time></trkpt><trkpt lat="39.8961457" lon="-0.3999339"><ele>794.0</ele><time>2026-04-19T15:25:00.999Z</time></trkpt><trkpt lat="39.896084" lon="-0.3998904"><ele>794.0000000000001</ele><time>2026-04-19T15:25:02Z</time></trkpt><trkpt lat="39.896022" lon="-0.399871"><ele>794.0</ele><time>2026-04-19T15:25:02.999Z</time></trkpt><trkpt lat="39.8959058" lon="-0.399903"><ele>795.1666666666667</ele><time>2026-04-19T15:25:05Z</time></trkpt><trkpt lat="39.8958484" lon="-0.3999448"><ele>796.3333333333334</ele><time>2026-04-19T15:25:06Z</time></trkpt><trkpt lat="39.8957921" lon="-0.3999963"><ele>797.5</ele><time>2026-04-19T15:25:06.999Z</time></trkpt><trkpt lat="39.8957372" lon="-0.4000485"><ele>798.6666666666667</ele><time>2026-04-19T15:25:08Z</time></trkpt><trkpt lat="39.8956806" lon="-0.4000996"><ele>799.8333333333334</ele><time>2026-04-19T15:25:08.999Z</time></trkpt><trkpt lat="39.8956249" lon="-0.400151"><ele>801.0</ele><time>2026-04-19T15:25:09.999Z</time></trkpt><trkpt lat="39.8955219" lon="-0.4002468"><ele>801.0</ele><time>2026-04-19T15:25:11.999Z</time></trkpt><trkpt lat="39.8954655" lon="-0.4002925"><ele>801.0</ele><time>2026-04-19T15:25:12.999Z</time></trkpt><trkpt lat="39.8954046" lon="-0.4003299"><ele>801.0</ele><time>2026-04-19T15:25:13.999Z</time></trkpt><trkpt lat="39.8953505" lon="-0.4003726"><ele>801.0</ele><time>2026-04-19T15:25:14.999Z</time></trkpt><trkpt lat="39.8952812" lon="-0.4004344"><ele>801.0</ele><time>2026-04-19T15:25:16.999Z</time></trkpt><trkpt lat="39.8952852" lon="-0.4005417"><ele>801.0</ele><time>2026-04-19T15:25:18.999Z</time></trkpt><trkpt lat="39.8953666" lon="-0.4005722"><ele>801.0</ele><time>2026-04-19T15:25:21Z</time></trkpt><trkpt lat="39.8954671" lon="-0.4005635"><ele>803.5</ele><time>2026-04-19T15:25:23Z</time></trkpt><trkpt lat="39.8955461" lon="-0.4005718"><ele>806.0</ele><time>2026-04-19T15:25:24.999Z</time></trkpt><trkpt lat="39.8956149" lon="-0.400622"><ele>808.5</ele><time>2026-04-19T15:25:26.999Z</time></trkpt><trkpt lat="39.8956672" lon="-0.40072"><ele>811.0</ele><time>2026-04-19T15:25:29Z</time></trkpt><trkpt lat="39.8956915" lon="-0.4008062"><ele>813.5</ele><time>2026-04-19T15:25:29.999Z</time></trkpt><trkpt lat="39.8957229" lon="-0.4009133"><ele>816.0</ele><time>2026-04-19T15:25:30.999Z</time></trkpt><trkpt lat="39.895754" lon="-0.4010207"><ele>816.0</ele><time>2026-04-19T15:25:31.999Z</time></trkpt><trkpt lat="39.8957883" lon="-0.4011212"><ele>816.0</ele><time>2026-04-19T15:25:33Z</time></trkpt><trkpt lat="39.895824" lon="-0.4012244"><ele>816.0</ele><time>2026-04-19T15:25:33.999Z</time></trkpt><trkpt lat="39.8958636" lon="-0.401337"><ele>816.0</ele><time>2026-04-19T15:25:35Z</time></trkpt><trkpt lat="39.8959046" lon="-0.4014686"><ele>816.0</ele><time>2026-04-19T15:25:36.749Z</time></trkpt><trkpt lat="39.8959641" lon="-0.4016627"><ele>816.8</ele><time>2026-04-19T15:25:37.999Z</time></trkpt><trkpt lat="39.8959869" lon="-0.4017895"><ele>817.5999999999999</ele><time>2026-04-19T15:25:38.999Z</time></trkpt><trkpt lat="39.8960046" lon="-0.4019388"><ele>818.4</ele><time>2026-04-19T15:25:39.999Z</time></trkpt><trkpt lat="39.8960146" lon="-0.4020624"><ele>819.2</ele><time>2026-04-19T15:25:40.999Z</time></trkpt><trkpt lat="39.8960159" lon="-0.4021828"><ele>820.0</ele><time>2026-04-19T15:25:42Z</time></trkpt><trkpt lat="39.8960255" lon="-0.4022834"><ele>820.4999999999999</ele><time>2026-04-19T15:25:42.999Z</time></trkpt><trkpt lat="39.8960369" lon="-0.4023773"><ele>821.0</ele><time>2026-04-19T15:25:43.999Z</time></trkpt><trkpt lat="39.8960496" lon="-0.4024768"><ele>821.5</ele><time>2026-04-19T15:25:44.999Z</time></trkpt><trkpt lat="39.8960544" lon="-0.402575"><ele>822.0</ele><time>2026-04-19T15:25:45.999Z</time></trkpt><trkpt lat="39.896054" lon="-0.4026786"><ele>822.4999999999999</ele><time>2026-04-19T15:25:46.999Z</time></trkpt><trkpt lat="39.896048" lon="-0.4027623"><ele>823.0</ele><time>2026-04-19T15:25:47.999Z</time></trkpt><trkpt lat="39.8960037" lon="-0.4029339"><ele>823.0</ele><time>2026-04-19T15:25:49.999Z</time></trkpt><trkpt lat="39.8959536" lon="-0.4030436"><ele>823.0</ele><time>2026-04-19T15:25:51.881Z</time></trkpt><trkpt lat="39.8958628" lon="-0.4031826"><ele>823.0</ele><time>2026-04-19T15:25:53.966Z</time></trkpt><trkpt lat="39.8958048" lon="-0.4032788"><ele>823.0</ele><time>2026-04-19T15:25:55Z</time></trkpt><trkpt lat="39.8957671" lon="-0.4034097"><ele>823.0</ele><time>2026-04-19T15:25:56.999Z</time></trkpt><trkpt lat="39.8957854" lon="-0.4035628"><ele>826.1666666666666</ele><time>2026-04-19T15:25:58.999Z</time></trkpt><trkpt lat="39.8958076" lon="-0.403647"><ele>829.3333333333333</ele><time>2026-04-19T15:26:00Z</time></trkpt><trkpt lat="39.8958281" lon="-0.40375"><ele>832.5</ele><time>2026-04-19T15:26:00.999Z</time></trkpt><trkpt lat="39.8958482" lon="-0.4038409"><ele>835.6666666666667</ele><time>2026-04-19T15:26:01.999Z</time></trkpt><trkpt lat="39.8958609" lon="-0.4039225"><ele>838.8333333333334</ele><time>2026-04-19T15:26:03Z</time></trkpt><trkpt lat="39.8958425" lon="-0.4040628"><ele>842.0</ele><time>2026-04-19T15:26:04.999Z</time></trkpt><trkpt lat="39.8957547" lon="-0.4042051"><ele>841.2</ele><time>2026-04-19T15:26:07Z</time></trkpt><trkpt lat="39.8956825" lon="-0.4043011"><ele>840.4000000000001</ele><time>2026-04-19T15:26:08Z</time></trkpt><trkpt lat="39.8956153" lon="-0.4044093"><ele>839.5999999999999</ele><time>2026-04-19T15:26:08.999Z</time></trkpt><trkpt lat="39.8955624" lon="-0.4045004"><ele>838.8</ele><time>2026-04-19T15:26:09.999Z</time></trkpt><trkpt lat="39.895514" lon="-0.4045739"><ele>838.0</ele><time>2026-04-19T15:26:10.999Z</time></trkpt><trkpt lat="39.8954341" lon="-0.4046698"><ele>838.0</ele><time>2026-04-19T15:26:12.999Z</time></trkpt><trkpt lat="39.895357" lon="-0.404716"><ele>838.0</ele><time>2026-04-19T15:26:14.999Z</time></trkpt><trkpt lat="39.89527" lon="-0.4047668"><ele>838.0</ele><time>2026-04-19T15:26:16.999Z</time></trkpt><trkpt lat="39.8951925" lon="-0.4048413"><ele>838.0</ele><time>2026-04-19T15:26:18.999Z</time></trkpt><trkpt lat="39.895057" lon="-0.4049136"><ele>838.0</ele><time>2026-04-19T15:26:22.284Z</time></trkpt><trkpt lat="39.8948823" lon="-0.4049616"><ele>841.8</ele><time>2026-04-19T15:26:24Z</time></trkpt><trkpt lat="39.8947822" lon="-0.4050038"><ele>845.5999999999999</ele><time>2026-04-19T15:26:24.999Z</time></trkpt><trkpt lat="39.894693" lon="-0.4050527"><ele>849.4000000000001</ele><time>2026-04-19T15:26:25.999Z</time></trkpt><trkpt lat="39.8946062" lon="-0.4051071"><ele>853.2</ele><time>2026-04-19T15:26:26.999Z</time></trkpt><trkpt lat="39.8945232" lon="-0.4051656"><ele>857.0</ele><time>2026-04-19T15:26:28Z</time></trkpt><trkpt lat="39.8944514" lon="-0.4052284"><ele>857.0000000000001</ele><time>2026-04-19T15:26:29Z</time></trkpt><trkpt lat="39.8943907" lon="-0.405291"><ele>857.0</ele><time>2026-04-19T15:26:29.999Z</time></trkpt><trkpt lat="39.8943368" lon="-0.4053604"><ele>857.0</ele><time>2026-04-19T15:26:31Z</time></trkpt><trkpt lat="39.8942714" lon="-0.4054417"><ele>857.0</ele><time>2026-04-19T15:26:32Z</time></trkpt><trkpt lat="39.8942016" lon="-0.4055218"><ele>857.0000000000001</ele><time>2026-04-19T15:26:32.999Z</time></trkpt><trkpt lat="39.8941345" lon="-0.4055988"><ele>857.0</ele><time>2026-04-19T15:26:33.999Z</time></trkpt><trkpt lat="39.8940661" lon="-0.4056738"><ele>853.0</ele><time>2026-04-19T15:26:34.999Z</time></trkpt><trkpt lat="39.8939849" lon="-0.405756"><ele>849.0</ele><time>2026-04-19T15:26:35.999Z</time></trkpt><trkpt lat="39.8938911" lon="-0.4058448"><ele>845.0</ele><time>2026-04-19T15:26:37Z</time></trkpt><trkpt lat="39.89381" lon="-0.4059246"><ele>841.0</ele><time>2026-04-19T15:26:37.999Z</time></trkpt><trkpt lat="39.8937409" lon="-0.405986"><ele>837.0</ele><time>2026-04-19T15:26:38.999Z</time></trkpt><trkpt lat="39.8936645" lon="-0.4060491"><ele>837.0</ele><time>2026-04-19T15:26:40.964Z</time></trkpt><trkpt lat="39.8935992" lon="-0.4060938"><ele>837.0</ele><time>2026-04-19T15:26:41.999Z</time></trkpt><trkpt lat="39.8935209" lon="-0.4061194"><ele>837.0</ele><time>2026-04-19T15:26:44Z</time></trkpt><trkpt lat="39.8933901" lon="-0.4061336"><ele>837.0</ele><time>2026-04-19T15:26:45.999Z</time></trkpt><trkpt lat="39.8933174" lon="-0.406151"><ele>837.0</ele><time>2026-04-19T15:26:46.999Z</time></trkpt><trkpt lat="39.8932452" lon="-0.4061722"><ele>837.0</ele><time>2026-04-19T15:26:47.999Z</time></trkpt><trkpt lat="39.8931659" lon="-0.4062008"><ele>840.4000000000001</ele><time>2026-04-19T15:26:48.999Z</time></trkpt><trkpt lat="39.8930893" lon="-0.4062219"><ele>843.8000000000001</ele><time>2026-04-19T15:26:50Z</time></trkpt><trkpt lat="39.8930249" lon="-0.4062408"><ele>847.2</ele><time>2026-04-19T15:26:50.999Z</time></trkpt><trkpt lat="39.8929321" lon="-0.406303"><ele>850.6</ele><time>2026-04-19T15:26:53Z</time></trkpt><trkpt lat="39.8928719" lon="-0.4064631"><ele>854.0</ele><time>2026-04-19T15:26:55Z</time></trkpt><trkpt lat="39.8928518" lon="-0.4065426"><ele>844.75</ele><time>2026-04-19T15:26:55.999Z</time></trkpt><trkpt lat="39.8928195" lon="-0.4066243"><ele>835.5</ele><time>2026-04-19T15:26:56.999Z</time></trkpt><trkpt lat="39.8927891" lon="-0.4068131"><ele>826.25</ele><time>2026-04-19T15:26:58.999Z</time></trkpt><trkpt lat="39.8928057" lon="-0.4070288"><ele>817.0</ele><time>2026-04-19T15:27:01.758Z</time></trkpt><trkpt lat="39.8928325" lon="-0.4072183"><ele>814.3333333333333</ele><time>2026-04-19T15:27:02.999Z</time></trkpt><trkpt lat="39.8928375" lon="-0.4073104"><ele>811.6666666666666</ele><time>2026-04-19T15:27:03.999Z</time></trkpt><trkpt lat="39.8928442" lon="-0.4074008"><ele>809.0</ele><time>2026-04-19T15:27:04.999Z</time></trkpt><trkpt lat="39.8928298" lon="-0.4075707"><ele>806.3333333333333</ele><time>2026-04-19T15:27:06.999Z</time></trkpt><trkpt lat="39.8928114" lon="-0.407666"><ele>803.6666666666666</ele><time>2026-04-19T15:27:08Z</time></trkpt><trkpt lat="39.8927848" lon="-0.407775"><ele>801.0</ele><time>2026-04-19T15:27:08.999Z</time></trkpt><trkpt lat="39.892753" lon="-0.4078945"><ele>799.1666666666666</ele><time>2026-04-19T15:27:09.999Z</time></trkpt><trkpt lat="39.8927254" lon="-0.4080022"><ele>797.3333333333333</ele><time>2026-04-19T15:27:11Z</time></trkpt><trkpt lat="39.8926989" lon="-0.408105"><ele>795.5</ele><time>2026-04-19T15:27:11.999Z</time></trkpt><trkpt lat="39.8926739" lon="-0.408223"><ele>793.6666666666666</ele><time>2026-04-19T15:27:12.999Z</time></trkpt><trkpt lat="39.8926546" lon="-0.4083517"><ele>791.8333333333333</ele><time>2026-04-19T15:27:13.999Z</time></trkpt><trkpt lat="39.892643" lon="-0.4084568"><ele>790.0</ele><time>2026-04-19T15:27:14.999Z</time></trkpt><trkpt lat="39.8926327" lon="-0.4085541"><ele>789.9999999999999</ele><time>2026-04-19T15:27:15.999Z</time></trkpt><trkpt lat="39.8926373" lon="-0.4086398"><ele>790.0</ele><time>2026-04-19T15:27:16.999Z</time></trkpt><trkpt lat="39.8926788" lon="-0.4087793"><ele>790.0</ele><time>2026-04-19T15:27:18.999Z</time></trkpt><trkpt lat="39.8927638" lon="-0.4088219"><ele>790.0</ele><time>2026-04-19T15:27:19.999Z</time></trkpt><trkpt lat="39.8928351" lon="-0.4088745"><ele>789.9999999999999</ele><time>2026-04-19T15:27:20.999Z</time></trkpt><trkpt lat="39.8928944" lon="-0.4089135"><ele>790.0</ele><time>2026-04-19T15:27:21.999Z</time></trkpt><trkpt lat="39.8929531" lon="-0.4089541"><ele>791.9999999999999</ele><time>2026-04-19T15:27:22.999Z</time></trkpt><trkpt lat="39.8930013" lon="-0.4090071"><ele>794.0</ele><time>2026-04-19T15:27:23.999Z</time></trkpt><trkpt lat="39.8930461" lon="-0.4090764"><ele>796.0</ele><time>2026-04-19T15:27:24.999Z</time></trkpt><trkpt lat="39.8930934" lon="-0.4091799"><ele>798.0</ele><time>2026-04-19T15:27:25.999Z</time></trkpt><trkpt lat="39.8931271" lon="-0.4092753"><ele>799.9999999999999</ele><time>2026-04-19T15:27:26.999Z</time></trkpt><trkpt lat="39.893148" lon="-0.4093931"><ele>802.0</ele><time>2026-04-19T15:27:27.999Z</time></trkpt><trkpt lat="39.8931692" lon="-0.4095242"><ele>801.9999999999999</ele><time>2026-04-19T15:27:28.999Z</time></trkpt><trkpt lat="39.8931922" lon="-0.4096417"><ele>802.0</ele><time>2026-04-19T15:27:29.999Z</time></trkpt><trkpt lat="39.8932115" lon="-0.4097416"><ele>802.0</ele><time>2026-04-19T15:27:30.999Z</time></trkpt><trkpt lat="39.8932193" lon="-0.4098279"><ele>802.0</ele><time>2026-04-19T15:27:31.999Z</time></trkpt><trkpt lat="39.8932228" lon="-0.4099131"><ele>801.9999999999999</ele><time>2026-04-19T15:27:32.999Z</time></trkpt><trkpt lat="39.893238" lon="-0.4100685"><ele>802.0</ele><time>2026-04-19T15:27:34.999Z</time></trkpt><trkpt lat="39.893248" lon="-0.4101497"><ele>803.6666666666666</ele><time>2026-04-19T15:27:36Z</time></trkpt><trkpt lat="39.8932649" lon="-0.4102316"><ele>805.3333333333333</ele><time>2026-04-19T15:27:37Z</time></trkpt><trkpt lat="39.893291" lon="-0.4103112"><ele>807.0</ele><time>2026-04-19T15:27:38Z</time></trkpt><trkpt lat="39.8933578" lon="-0.4104103"><ele>808.6666666666667</ele><time>2026-04-19T15:27:39.999Z</time></trkpt><trkpt lat="39.8934491" lon="-0.4104725"><ele>810.3333333333334</ele><time>2026-04-19T15:27:41.999Z</time></trkpt><trkpt lat="39.8935473" lon="-0.4105342"><ele>812.0</ele><time>2026-04-19T15:27:43.999Z</time></trkpt><trkpt lat="39.8936262" lon="-0.41059"><ele>807.3333333333334</ele><time>2026-04-19T15:27:45.999Z</time></trkpt><trkpt lat="39.8936752" lon="-0.4106558"><ele>802.6666666666667</ele><time>2026-04-19T15:27:47.999Z</time></trkpt><trkpt lat="39.8937137" lon="-0.4107567"><ele>798.0</ele><time>2026-04-19T15:27:49.999Z</time></trkpt><trkpt lat="39.893729" lon="-0.4108477"><ele>793.3333333333333</ele><time>2026-04-19T15:27:51Z</time></trkpt><trkpt lat="39.8937374" lon="-0.4109331"><ele>788.6666666666666</ele><time>2026-04-19T15:27:52Z</time></trkpt><trkpt lat="39.8937463" lon="-0.4110187"><ele>784.0</ele><time>2026-04-19T15:27:52.999Z</time></trkpt><trkpt lat="39.8937521" lon="-0.4111824"><ele>782.1666666666666</ele><time>2026-04-19T15:27:55Z</time></trkpt><trkpt lat="39.8937454" lon="-0.4113332"><ele>780.3333333333333</ele><time>2026-04-19T15:27:56.999Z</time></trkpt><trkpt lat="39.8937198" lon="-0.4114405"><ele>778.5</ele><time>2026-04-19T15:27:59Z</time></trkpt><trkpt lat="39.8937132" lon="-0.4115251"><ele>776.6666666666667</ele><time>2026-04-19T15:28:00.999Z</time></trkpt><trkpt lat="39.8937918" lon="-0.4115404"><ele>774.8333333333334</ele><time>2026-04-19T15:28:04.999Z</time></trkpt><trkpt lat="39.8938421" lon="-0.411449"><ele>773.0</ele><time>2026-04-19T15:28:06.999Z</time></trkpt><trkpt lat="39.8938979" lon="-0.4113381"><ele>773.0000000000001</ele><time>2026-04-19T15:28:08.999Z</time></trkpt><trkpt lat="39.8939416" lon="-0.4112469"><ele>773.0</ele><time>2026-04-19T15:28:10.999Z</time></trkpt><trkpt lat="39.8940046" lon="-0.4111935"><ele>773.0</ele><time>2026-04-19T15:28:13.999Z</time></trkpt><trkpt lat="39.8940476" lon="-0.4112865"><ele>773.0</ele><time>2026-04-19T15:28:17.999Z</time></trkpt><trkpt lat="39.894008" lon="-0.4114176"><ele>773.0000000000001</ele><time>2026-04-19T15:28:19.999Z</time></trkpt><trkpt lat="39.8939841" lon="-0.411508"><ele>773.0</ele><time>2026-04-19T15:28:22Z</time></trkpt><trkpt lat="39.8939736" lon="-0.4116044"><ele>773.0000000000001</ele><time>2026-04-19T15:28:24.999Z</time></trkpt><trkpt lat="39.8940423" lon="-0.4116114"><ele>773.0</ele><time>2026-04-19T15:28:27.999Z</time></trkpt><trkpt lat="39.8941026" lon="-0.4115251"><ele>773.0</ele><time>2026-04-19T15:28:29.999Z</time></trkpt><trkpt lat="39.8941624" lon="-0.4114322"><ele>773.0</ele><time>2026-04-19T15:28:31.999Z</time></trkpt><trkpt lat="39.894209" lon="-0.4113495"><ele>773.0000000000001</ele><time>2026-04-19T15:28:33.999Z</time></trkpt><trkpt lat="39.8942347" lon="-0.4112699"><ele>773.0</ele><time>2026-04-19T15:28:36Z</time></trkpt><trkpt lat="39.8942954" lon="-0.4112319"><ele>773.0000000000001</ele><time>2026-04-19T15:28:38.999Z</time></trkpt><trkpt lat="39.8943238" lon="-0.4113218"><ele>773.0</ele><time>2026-04-19T15:28:42Z</time></trkpt><trkpt lat="39.8943052" lon="-0.4114508"><ele>773.0</ele><time>2026-04-19T15:28:43.999Z</time></trkpt><trkpt lat="39.8942964" lon="-0.4115398"><ele>773.0</ele><time>2026-04-19T15:28:44.999Z</time></trkpt><trkpt lat="39.8942824" lon="-0.4116275"><ele>773.0000000000001</ele><time>2026-04-19T15:28:46Z</time></trkpt><trkpt lat="39.8942647" lon="-0.4117353"><ele>773.0</ele><time>2026-04-19T15:28:46.999Z</time></trkpt><trkpt lat="39.8942358" lon="-0.4118633"><ele>773.0000000000001</ele><time>2026-04-19T15:28:47.999Z</time></trkpt><trkpt lat="39.8942059" lon="-0.4119789"><ele>773.0</ele><time>2026-04-19T15:28:49Z</time></trkpt><trkpt lat="39.8941759" lon="-0.4120924"><ele>773.0</ele><time>2026-04-19T15:28:50Z</time></trkpt><trkpt lat="39.8941508" lon="-0.4122077"><ele>773.0</ele><time>2026-04-19T15:28:51Z</time></trkpt><trkpt lat="39.8941285" lon="-0.4123153"><ele>773.0000000000001</ele><time>2026-04-19T15:28:52Z</time></trkpt><trkpt lat="39.8941062" lon="-0.4124192"><ele>773.0</ele><time>2026-04-19T15:28:52.999Z</time></trkpt><trkpt lat="39.8940875" lon="-0.4125146"><ele>770.5000000000001</ele><time>2026-04-19T15:28:53.999Z</time></trkpt><trkpt lat="39.8940669" lon="-0.4126091"><ele>768.0</ele><time>2026-04-19T15:28:54.999Z</time></trkpt><trkpt lat="39.8940561" lon="-0.4126961"><ele>765.5</ele><time>2026-04-19T15:28:55.999Z</time></trkpt><trkpt lat="39.8940487" lon="-0.4127986"><ele>763.0</ele><time>2026-04-19T15:28:56.999Z</time></trkpt><trkpt lat="39.8940426" lon="-0.4129002"><ele>760.5</ele><time>2026-04-19T15:28:57.999Z</time></trkpt><trkpt lat="39.8940348" lon="-0.413003"><ele>758.0</ele><time>2026-04-19T15:28:58.999Z</time></trkpt><trkpt lat="39.8940178" lon="-0.413118"><ele>756.0</ele><time>2026-04-19T15:28:59.999Z</time></trkpt><trkpt lat="39.8939919" lon="-0.4132429"><ele>754.0</ele><time>2026-04-19T15:29:00.999Z</time></trkpt><trkpt lat="39.8939636" lon="-0.4133813"><ele>752.0</ele><time>2026-04-19T15:29:01.999Z</time></trkpt><trkpt lat="39.893933" lon="-0.4135287"><ele>750.0</ele><time>2026-04-19T15:29:02.999Z</time></trkpt><trkpt lat="39.8939014" lon="-0.4136698"><ele>748.0</ele><time>2026-04-19T15:29:03.999Z</time></trkpt><trkpt lat="39.8938713" lon="-0.4137982"><ele>745.4</ele><time>2026-04-19T15:29:04.999Z</time></trkpt><trkpt lat="39.8938271" lon="-0.4139255"><ele>742.8</ele><time>2026-04-19T15:29:05.999Z</time></trkpt><trkpt lat="39.8937792" lon="-0.4140646"><ele>740.2</ele><time>2026-04-19T15:29:06.999Z</time></trkpt><trkpt lat="39.8937324" lon="-0.4141853"><ele>737.6</ele><time>2026-04-19T15:29:08Z</time></trkpt><trkpt lat="39.8936821" lon="-0.4142946"><ele>735.0</ele><time>2026-04-19T15:29:08.999Z</time></trkpt><trkpt lat="39.8936327" lon="-0.4143903"><ele>735.0</ele><time>2026-04-19T15:29:09.999Z</time></trkpt><trkpt lat="39.8935803" lon="-0.4144764"><ele>735.0</ele><time>2026-04-19T15:29:10.999Z</time></trkpt><trkpt lat="39.8935252" lon="-0.4145554"><ele>735.0</ele><time>2026-04-19T15:29:11.999Z</time></trkpt><trkpt lat="39.8934697" lon="-0.4146196"><ele>735.0</ele><time>2026-04-19T15:29:12.999Z</time></trkpt><trkpt lat="39.8933988" lon="-0.4146802"><ele>735.0</ele><time>2026-04-19T15:29:13.999Z</time></trkpt><trkpt lat="39.8933239" lon="-0.4147313"><ele>735.0</ele><time>2026-04-19T15:29:14.999Z</time></trkpt><trkpt lat="39.8932457" lon="-0.4147799"><ele>736.2</ele><time>2026-04-19T15:29:15.999Z</time></trkpt><trkpt lat="39.8931612" lon="-0.4148336"><ele>737.4</ele><time>2026-04-19T15:29:16.999Z</time></trkpt><trkpt lat="39.8930767" lon="-0.4148883"><ele>738.5999999999999</ele><time>2026-04-19T15:29:18Z</time></trkpt><trkpt lat="39.892993" lon="-0.4149487"><ele>739.8</ele><time>2026-04-19T15:29:18.999Z</time></trkpt><trkpt lat="39.892912" lon="-0.4150176"><ele>741.0</ele><time>2026-04-19T15:29:20Z</time></trkpt><trkpt lat="39.8928281" lon="-0.4151086"><ele>741.0</ele><time>2026-04-19T15:29:20.999Z</time></trkpt><trkpt lat="39.8927533" lon="-0.4151948"><ele>741.0</ele><time>2026-04-19T15:29:22Z</time></trkpt><trkpt lat="39.892681" lon="-0.4152716"><ele>741.0</ele><time>2026-04-19T15:29:22.999Z</time></trkpt><trkpt lat="39.8926123" lon="-0.4153373"><ele>741.0</ele><time>2026-04-19T15:29:23.999Z</time></trkpt><trkpt lat="39.8925462" lon="-0.4153808"><ele>741.0</ele><time>2026-04-19T15:29:25Z</time></trkpt><trkpt lat="39.8924785" lon="-0.4154239"><ele>741.0</ele><time>2026-04-19T15:29:26Z</time></trkpt><trkpt lat="39.8923988" lon="-0.4154732"><ele>740.3333333333334</ele><time>2026-04-19T15:29:26.999Z</time></trkpt><trkpt lat="39.8923326" lon="-0.4155207"><ele>739.6666666666666</ele><time>2026-04-19T15:29:27.999Z</time></trkpt><trkpt lat="39.892266" lon="-0.4155689"><ele>739.0</ele><time>2026-04-19T15:29:28.999Z</time></trkpt><trkpt lat="39.8922021" lon="-0.4156182"><ele>738.3333333333333</ele><time>2026-04-19T15:29:30Z</time></trkpt><trkpt lat="39.8921389" lon="-0.4156697"><ele>737.6666666666666</ele><time>2026-04-19T15:29:30.999Z</time></trkpt><trkpt lat="39.8920665" lon="-0.4157125"><ele>737.0</ele><time>2026-04-19T15:29:31.999Z</time></trkpt><trkpt lat="39.8919842" lon="-0.4157521"><ele>737.0</ele><time>2026-04-19T15:29:33Z</time></trkpt><trkpt lat="39.8918888" lon="-0.4157837"><ele>737.0</ele><time>2026-04-19T15:29:34Z</time></trkpt><trkpt lat="39.8917592" lon="-0.4158128"><ele>737.0</ele><time>2026-04-19T15:29:34.999Z</time></trkpt><trkpt lat="39.8916523" lon="-0.415834"><ele>737.0</ele><time>2026-04-19T15:29:35.999Z</time></trkpt><trkpt lat="39.8915689" lon="-0.4158496"><ele>737.0</ele><time>2026-04-19T15:29:36.999Z</time></trkpt><trkpt lat="39.8914582" lon="-0.4158575"><ele>739.0</ele><time>2026-04-19T15:29:38.999Z</time></trkpt><trkpt lat="39.8913625" lon="-0.4158401"><ele>741.0</ele><time>2026-04-19T15:29:40.999Z</time></trkpt><trkpt lat="39.891265" lon="-0.4158353"><ele>743.0</ele><time>2026-04-19T15:29:42.999Z</time></trkpt><trkpt lat="39.8911616" lon="-0.4158985"><ele>745.0</ele><time>2026-04-19T15:29:44.999Z</time></trkpt><trkpt lat="39.8910669" lon="-0.4159915"><ele>747.0</ele><time>2026-04-19T15:29:46.999Z</time></trkpt><trkpt lat="39.8909725" lon="-0.4160551"><ele>748.2</ele><time>2026-04-19T15:29:48.999Z</time></trkpt><trkpt lat="39.8908621" lon="-0.4160975"><ele>749.4000000000001</ele><time>2026-04-19T15:29:51Z</time></trkpt><trkpt lat="39.8907396" lon="-0.4161197"><ele>750.5999999999999</ele><time>2026-04-19T15:29:52.999Z</time></trkpt><trkpt lat="39.8906692" lon="-0.4161219"><ele>751.8</ele><time>2026-04-19T15:29:53.999Z</time></trkpt><trkpt lat="39.8905815" lon="-0.4161279"><ele>753.0</ele><time>2026-04-19T15:29:54.999Z</time></trkpt><trkpt lat="39.8905049" lon="-0.4161452"><ele>753.0</ele><time>2026-04-19T15:29:56Z</time></trkpt><trkpt lat="39.8904306" lon="-0.4161751"><ele>753.0</ele><time>2026-04-19T15:29:56.999Z</time></trkpt><trkpt lat="39.8903466" lon="-0.4162224"><ele>753.0</ele><time>2026-04-19T15:29:57.999Z</time></trkpt><trkpt lat="39.8902678" lon="-0.4162841"><ele>753.0</ele><time>2026-04-19T15:29:58.999Z</time></trkpt><trkpt lat="39.8901908" lon="-0.4163433"><ele>753.0</ele><time>2026-04-19T15:30:00Z</time></trkpt><trkpt lat="39.8901138" lon="-0.4164073"><ele>753.0</ele><time>2026-04-19T15:30:00.999Z</time></trkpt><trkpt lat="39.8900315" lon="-0.4164853"><ele>748.5999999999999</ele><time>2026-04-19T15:30:01.999Z</time></trkpt><trkpt lat="39.8899466" lon="-0.4165755"><ele>744.1999999999999</ele><time>2026-04-19T15:30:02.999Z</time></trkpt><trkpt lat="39.88986" lon="-0.4166727"><ele>739.8</ele><time>2026-04-19T15:30:03.999Z</time></trkpt><trkpt lat="39.8897797" lon="-0.4167629"><ele>735.4</ele><time>2026-04-19T15:30:04.999Z</time></trkpt><trkpt lat="39.8897048" lon="-0.416852"><ele>731.0</ele><time>2026-04-19T15:30:05.999Z</time></trkpt><trkpt lat="39.8896365" lon="-0.4169286"><ele>731.0</ele><time>2026-04-19T15:30:06.999Z</time></trkpt><trkpt lat="39.8895863" lon="-0.4169891"><ele>731.0</ele><time>2026-04-19T15:30:07.999Z</time></trkpt><trkpt lat="39.8895168" lon="-0.4171349"><ele>731.0</ele><time>2026-04-19T15:30:09.999Z</time></trkpt><trkpt lat="39.8895014" lon="-0.4172208"><ele>731.0</ele><time>2026-04-19T15:30:11Z</time></trkpt><trkpt lat="39.8894995" lon="-0.4173261"><ele>731.0</ele><time>2026-04-19T15:30:12Z</time></trkpt><trkpt lat="39.8895066" lon="-0.4174512"><ele>731.0</ele><time>2026-04-19T15:30:12.999Z</time></trkpt><trkpt lat="39.8895101" lon="-0.4175978"><ele>731.0</ele><time>2026-04-19T15:30:13.999Z</time></trkpt><trkpt lat="39.8895118" lon="-0.4177613"><ele>731.0</ele><time>2026-04-19T15:30:14.999Z</time></trkpt><trkpt lat="39.8895204" lon="-0.4178899"><ele>731.0</ele><time>2026-04-19T15:30:16Z</time></trkpt><trkpt lat="39.8895348" lon="-0.4179979"><ele>731.0</ele><time>2026-04-19T15:30:16.999Z</time></trkpt><trkpt lat="39.8895491" lon="-0.4181192"><ele>731.0</ele><time>2026-04-19T15:30:18Z</time></trkpt><trkpt lat="39.889559" lon="-0.4182181"><ele>731.0</ele><time>2026-04-19T15:30:19Z</time></trkpt><trkpt lat="39.8895706" lon="-0.41837"><ele>731.0</ele><time>2026-04-19T15:30:20.999Z</time></trkpt><trkpt lat="39.8895686" lon="-0.4184942"><ele>731.0</ele><time>2026-04-19T15:30:23Z</time></trkpt><trkpt lat="39.8895428" lon="-0.4186132"><ele>731.0</ele><time>2026-04-19T15:30:24.999Z</time></trkpt><trkpt lat="39.8894844" lon="-0.4187162"><ele>731.0</ele><time>2026-04-19T15:30:27Z</time></trkpt><trkpt lat="39.8894161" lon="-0.4187816"><ele>733.4</ele><time>2026-04-19T15:30:27.999Z</time></trkpt><trkpt lat="39.8893248" lon="-0.4188582"><ele>735.8</ele><time>2026-04-19T15:30:28.999Z</time></trkpt><trkpt lat="39.889237" lon="-0.4189264"><ele>738.1999999999999</ele><time>2026-04-19T15:30:29.999Z</time></trkpt><trkpt lat="39.8891399" lon="-0.4189676"><ele>740.5999999999999</ele><time>2026-04-19T15:30:30.999Z</time></trkpt><trkpt lat="39.8890376" lon="-0.4189913"><ele>743.0</ele><time>2026-04-19T15:30:31.999Z</time></trkpt><trkpt lat="39.8889153" lon="-0.4189908"><ele>743.5999999999999</ele><time>2026-04-19T15:30:32.999Z</time></trkpt><trkpt lat="39.8887899" lon="-0.4189792"><ele>744.1999999999999</ele><time>2026-04-19T15:30:33.999Z</time></trkpt><trkpt lat="39.8886924" lon="-0.418976"><ele>744.8</ele><time>2026-04-19T15:30:35Z</time></trkpt><trkpt lat="39.888614" lon="-0.418978"><ele>745.4</ele><time>2026-04-19T15:30:35.999Z</time></trkpt><trkpt lat="39.8885251" lon="-0.4189963"><ele>746.0</ele><time>2026-04-19T15:30:37Z</time></trkpt><trkpt lat="39.8884466" lon="-0.4190272"><ele>745.25</ele><time>2026-04-19T15:30:38Z</time></trkpt><trkpt lat="39.8883573" lon="-0.4190499"><ele>744.5</ele><time>2026-04-19T15:30:38.999Z</time></trkpt><trkpt lat="39.8882464" lon="-0.4190456"><ele>743.75</ele><time>2026-04-19T15:30:39.999Z</time></trkpt><trkpt lat="39.8881537" lon="-0.4190402"><ele>743.0</ele><time>2026-04-19T15:30:41Z</time></trkpt><trkpt lat="39.8878632" lon="-0.4191035"><ele>743.0</ele><time>2026-04-19T15:30:44.622Z</time></trkpt><trkpt lat="39.8876487" lon="-0.4191919"><ele>743.0</ele><time>2026-04-19T15:30:46.96Z</time></trkpt><trkpt lat="39.88748" lon="-0.4192196"><ele>743.0</ele><time>2026-04-19T15:30:47.999Z</time></trkpt><trkpt lat="39.8873762" lon="-0.4192271"><ele>741.8</ele><time>2026-04-19T15:30:48.999Z</time></trkpt><trkpt lat="39.8872811" lon="-0.4192434"><ele>740.5999999999999</ele><time>2026-04-19T15:30:49.999Z</time></trkpt><trkpt lat="39.8871975" lon="-0.4192722"><ele>739.4000000000001</ele><time>2026-04-19T15:30:50.999Z</time></trkpt><trkpt lat="39.8871097" lon="-0.4193139"><ele>738.2</ele><time>2026-04-19T15:30:52Z</time></trkpt><trkpt lat="39.8870374" lon="-0.419366"><ele>737.0</ele><time>2026-04-19T15:30:52.999Z</time></trkpt><trkpt lat="39.886927" lon="-0.4194277"><ele>737.0</ele><time>2026-04-19T15:30:54.999Z</time></trkpt><trkpt lat="39.8868316" lon="-0.4194204"><ele>737.0</ele><time>2026-04-19T15:30:56.999Z</time></trkpt><trkpt lat="39.8867509" lon="-0.4193313"><ele>737.0</ele><time>2026-04-19T15:30:58.999Z</time></trkpt><trkpt lat="39.8866983" lon="-0.4192758"><ele>737.0</ele><time>2026-04-19T15:30:59.999Z</time></trkpt><trkpt lat="39.8866353" lon="-0.4192327"><ele>737.0</ele><time>2026-04-19T15:31:01Z</time></trkpt><trkpt lat="39.8865681" lon="-0.419215"><ele>737.0</ele><time>2026-04-19T15:31:01.999Z</time></trkpt><trkpt lat="39.886497" lon="-0.4192045"><ele>736.1666666666666</ele><time>2026-04-19T15:31:03Z</time></trkpt><trkpt lat="39.8864083" lon="-0.4192275"><ele>735.3333333333333</ele><time>2026-04-19T15:31:04.999Z</time></trkpt><trkpt lat="39.8863535" lon="-0.419308"><ele>734.5</ele><time>2026-04-19T15:31:06.999Z</time></trkpt><trkpt lat="39.8863243" lon="-0.419406"><ele>733.6666666666666</ele><time>2026-04-19T15:31:08.999Z</time></trkpt><trkpt lat="39.8862995" lon="-0.4194962"><ele>732.8333333333334</ele><time>2026-04-19T15:31:10.999Z</time></trkpt><trkpt lat="39.8862568" lon="-0.4195611"><ele>732.0</ele><time>2026-04-19T15:31:13Z</time></trkpt><trkpt lat="39.8861658" lon="-0.4195935"><ele>732.0</ele><time>2026-04-19T15:31:16Z</time></trkpt><trkpt lat="39.8861113" lon="-0.4195462"><ele>732.0</ele><time>2026-04-19T15:31:17Z</time></trkpt><trkpt lat="39.8860415" lon="-0.4194785"><ele>732.0</ele><time>2026-04-19T15:31:18Z</time></trkpt><trkpt lat="39.8859569" lon="-0.4194033"><ele>732.0</ele><time>2026-04-19T15:31:18.999Z</time></trkpt><trkpt lat="39.8858791" lon="-0.4193472"><ele>732.0</ele><time>2026-04-19T15:31:19.999Z</time></trkpt><trkpt lat="39.8858027" lon="-0.4192926"><ele>732.0</ele><time>2026-04-19T15:31:20.999Z</time></trkpt><trkpt lat="39.8857292" lon="-0.4192494"><ele>731.0</ele><time>2026-04-19T15:31:21.999Z</time></trkpt><trkpt lat="39.8856556" lon="-0.4192041"><ele>730.0</ele><time>2026-04-19T15:31:22.999Z</time></trkpt><trkpt lat="39.8855878" lon="-0.4191594"><ele>729.0</ele><time>2026-04-19T15:31:24Z</time></trkpt><trkpt lat="39.8854633" lon="-0.4190659"><ele>728.0</ele><time>2026-04-19T15:31:25.999Z</time></trkpt><trkpt lat="39.8853636" lon="-0.4189532"><ele>727.0</ele><time>2026-04-19T15:31:28.272Z</time></trkpt><trkpt lat="39.885214" lon="-0.4188024"><ele>727.0</ele><time>2026-04-19T15:31:30.952Z</time></trkpt><trkpt lat="39.8851321" lon="-0.418711"><ele>727.0</ele><time>2026-04-19T15:31:31.999Z</time></trkpt><trkpt lat="39.8850822" lon="-0.4186526"><ele>727.0</ele><time>2026-04-19T15:31:32.999Z</time></trkpt><trkpt lat="39.8850419" lon="-0.4185892"><ele>727.0</ele><time>2026-04-19T15:31:33.999Z</time></trkpt><trkpt lat="39.884975" lon="-0.4184634"><ele>727.0</ele><time>2026-04-19T15:31:36Z</time></trkpt><trkpt lat="39.8849282" lon="-0.4183205"><ele>724.2</ele><time>2026-04-19T15:31:37.999Z</time></trkpt><trkpt lat="39.8849314" lon="-0.4181811"><ele>721.4000000000001</ele><time>2026-04-19T15:31:39.999Z</time></trkpt><trkpt lat="39.8849746" lon="-0.4180434"><ele>718.5999999999999</ele><time>2026-04-19T15:31:42Z</time></trkpt><trkpt lat="39.8850378" lon="-0.4179521"><ele>715.8</ele><time>2026-04-19T15:31:43.999Z</time></trkpt><trkpt lat="39.8850681" lon="-0.4178721"><ele>713.0</ele><time>2026-04-19T15:31:45.999Z</time></trkpt><trkpt lat="39.8850065" lon="-0.417838"><ele>713.0</ele><time>2026-04-19T15:31:47.999Z</time></trkpt><trkpt lat="39.884945" lon="-0.4179031"><ele>713.0</ele><time>2026-04-19T15:31:50Z</time></trkpt><trkpt lat="39.884868" lon="-0.4179758"><ele>713.0</ele><time>2026-04-19T15:31:51.999Z</time></trkpt><trkpt lat="39.8847833" lon="-0.4180526"><ele>713.0</ele><time>2026-04-19T15:31:53.999Z</time></trkpt><trkpt lat="39.8847077" lon="-0.418151"><ele>713.0</ele><time>2026-04-19T15:31:55.999Z</time></trkpt><trkpt lat="39.8846619" lon="-0.4182843"><ele>713.0</ele><time>2026-04-19T15:31:57.999Z</time></trkpt><trkpt lat="39.8846592" lon="-0.4184303"><ele>713.0</ele><time>2026-04-19T15:31:59.999Z</time></trkpt><trkpt lat="39.8846392" lon="-0.418521"><ele>713.0</ele><time>2026-04-19T15:32:02Z</time></trkpt><trkpt lat="39.8845772" lon="-0.4185011"><ele>713.0</ele><time>2026-04-19T15:32:03.999Z</time></trkpt><trkpt lat="39.8845238" lon="-0.418389"><ele>713.0</ele><time>2026-04-19T15:32:06Z</time></trkpt><trkpt lat="39.88449" lon="-0.4182951"><ele>713.0</ele><time>2026-04-19T15:32:07Z</time></trkpt><trkpt lat="39.8844648" lon="-0.4182094"><ele>713.0</ele><time>2026-04-19T15:32:07.999Z</time></trkpt><trkpt lat="39.8844327" lon="-0.4180867"><ele>713.0</ele><time>2026-04-19T15:32:09.999Z</time></trkpt><trkpt lat="39.8843956" lon="-0.4179857"><ele>713.0</ele><time>2026-04-19T15:32:12Z</time></trkpt><trkpt lat="39.8843171" lon="-0.4179141"><ele>713.0</ele><time>2026-04-19T15:32:13.999Z</time></trkpt><trkpt lat="39.8842112" lon="-0.4179338"><ele>713.0</ele><time>2026-04-19T15:32:15.999Z</time></trkpt><trkpt lat="39.884093" lon="-0.417964"><ele>706.5</ele><time>2026-04-19T15:32:18Z</time></trkpt><trkpt lat="39.8839707" lon="-0.4179285"><ele>700.0</ele><time>2026-04-19T15:32:19.999Z</time></trkpt><trkpt lat="39.8839039" lon="-0.4179059"><ele>693.5</ele><time>2026-04-19T15:32:20.999Z</time></trkpt><trkpt lat="39.8838392" lon="-0.4178891"><ele>687.0</ele><time>2026-04-19T15:32:21.999Z</time></trkpt><trkpt lat="39.8837752" lon="-0.4178772"><ele>680.5</ele><time>2026-04-19T15:32:22.999Z</time></trkpt><trkpt lat="39.8837139" lon="-0.4178575"><ele>674.0</ele><time>2026-04-19T15:32:23.999Z</time></trkpt><trkpt lat="39.8836464" lon="-0.4178193"><ele>674.0</ele><time>2026-04-19T15:32:25Z</time></trkpt><trkpt lat="39.8835774" lon="-0.4177781"><ele>674.0</ele><time>2026-04-19T15:32:26Z</time></trkpt><trkpt lat="39.883513" lon="-0.4177377"><ele>674.0</ele><time>2026-04-19T15:32:26.999Z</time></trkpt><trkpt lat="39.8834456" lon="-0.4176949"><ele>674.0</ele><time>2026-04-19T15:32:27.999Z</time></trkpt><trkpt lat="39.8833868" lon="-0.4176571"><ele>674.0</ele><time>2026-04-19T15:32:28.999Z</time></trkpt><trkpt lat="39.8832874" lon="-0.4175681"><ele>674.0</ele><time>2026-04-19T15:32:30.999Z</time></trkpt><trkpt lat="39.8832395" lon="-0.4175069"><ele>673.8571428571429</ele><time>2026-04-19T15:32:31.999Z</time></trkpt><trkpt lat="39.8831919" lon="-0.4174425"><ele>673.7142857142858</ele><time>2026-04-19T15:32:32.999Z</time></trkpt><trkpt lat="39.8831376" lon="-0.4173759"><ele>673.5714285714287</ele><time>2026-04-19T15:32:33.999Z</time></trkpt><trkpt lat="39.8830775" lon="-0.4173066"><ele>673.4285714285714</ele><time>2026-04-19T15:32:34.999Z</time></trkpt><trkpt lat="39.8830204" lon="-0.4172529"><ele>673.2857142857142</ele><time>2026-04-19T15:32:35.999Z</time></trkpt><trkpt lat="39.8829574" lon="-0.4172174"><ele>673.1428571428572</ele><time>2026-04-19T15:32:36.999Z</time></trkpt><trkpt lat="39.8828946" lon="-0.4171948"><ele>673.0</ele><time>2026-04-19T15:32:37.999Z</time></trkpt><trkpt lat="39.8828312" lon="-0.4171714"><ele>670.2</ele><time>2026-04-19T15:32:39Z</time></trkpt><trkpt lat="39.8827686" lon="-0.4171441"><ele>667.4</ele><time>2026-04-19T15:32:39.999Z</time></trkpt><trkpt lat="39.8827106" lon="-0.4171092"><ele>664.6</ele><time>2026-04-19T15:32:40.999Z</time></trkpt><trkpt lat="39.8826218" lon="-0.4170264"><ele>661.8000000000001</ele><time>2026-04-19T15:32:43Z</time></trkpt><trkpt lat="39.8825346" lon="-0.4169059"><ele>659.0</ele><time>2026-04-19T15:32:44.999Z</time></trkpt><trkpt lat="39.8824677" lon="-0.4167866"><ele>659.0</ele><time>2026-04-19T15:32:46.999Z</time></trkpt><trkpt lat="39.8823908" lon="-0.4166891"><ele>659.0</ele><time>2026-04-19T15:32:48.999Z</time></trkpt><trkpt lat="39.8823049" lon="-0.4166321"><ele>659.0</ele><time>2026-04-19T15:32:50.999Z</time></trkpt><trkpt lat="39.8822037" lon="-0.4166191"><ele>659.0</ele><time>2026-04-19T15:32:53Z</time></trkpt><trkpt lat="39.8821398" lon="-0.4166443"><ele>659.0</ele><time>2026-04-19T15:32:53.999Z</time></trkpt><trkpt lat="39.8820632" lon="-0.4166897"><ele>659.0</ele><time>2026-04-19T15:32:54.999Z</time></trkpt><trkpt lat="39.8819737" lon="-0.416756"><ele>659.0</ele><time>2026-04-19T15:32:55.999Z</time></trkpt><trkpt lat="39.8818761" lon="-0.4168382"><ele>659.0</ele><time>2026-04-19T15:32:56.999Z</time></trkpt><trkpt lat="39.8817759" lon="-0.4169264"><ele>659.0</ele><time>2026-04-19T15:32:57.999Z</time></trkpt><trkpt lat="39.881683" lon="-0.4170116"><ele>660.4000000000001</ele><time>2026-04-19T15:32:59Z</time></trkpt><trkpt lat="39.8815878" lon="-0.4170864"><ele>661.8</ele><time>2026-04-19T15:32:59.999Z</time></trkpt><trkpt lat="39.8815051" lon="-0.4171628"><ele>663.2</ele><time>2026-04-19T15:33:00.999Z</time></trkpt><trkpt lat="39.8814286" lon="-0.4172404"><ele>664.5999999999999</ele><time>2026-04-19T15:33:01.999Z</time></trkpt><trkpt lat="39.8813599" lon="-0.4173091"><ele>666.0</ele><time>2026-04-19T15:33:02.999Z</time></trkpt><trkpt lat="39.8812956" lon="-0.4173714"><ele>664.6666666666666</ele><time>2026-04-19T15:33:03.999Z</time></trkpt><trkpt lat="39.8812411" lon="-0.4174266"><ele>663.3333333333334</ele><time>2026-04-19T15:33:04.999Z</time></trkpt><trkpt lat="39.881189" lon="-0.417473"><ele>662.0</ele><time>2026-04-19T15:33:05.999Z</time></trkpt><trkpt lat="39.8810835" lon="-0.4175354"><ele>660.6666666666667</ele><time>2026-04-19T15:33:07.999Z</time></trkpt><trkpt lat="39.8810174" lon="-0.4175487"><ele>659.3333333333334</ele><time>2026-04-19T15:33:08.999Z</time></trkpt><trkpt lat="39.8809431" lon="-0.4175384"><ele>658.0</ele><time>2026-04-19T15:33:09.999Z</time></trkpt><trkpt lat="39.8808611" lon="-0.4175116"><ele>658.0</ele><time>2026-04-19T15:33:10.999Z</time></trkpt><trkpt lat="39.8807882" lon="-0.4175026"><ele>658.0</ele><time>2026-04-19T15:33:11.999Z</time></trkpt><trkpt lat="39.880703" lon="-0.417499"><ele>658.0</ele><time>2026-04-19T15:33:12.999Z</time></trkpt><trkpt lat="39.8806309" lon="-0.4174985"><ele>658.0</ele><time>2026-04-19T15:33:13.999Z</time></trkpt><trkpt lat="39.8805603" lon="-0.4174885"><ele>658.0</ele><time>2026-04-19T15:33:14.999Z</time></trkpt><trkpt lat="39.8804882" lon="-0.4174629"><ele>658.0</ele><time>2026-04-19T15:33:15.999Z</time></trkpt><trkpt lat="39.8804147" lon="-0.4174171"><ele>658.0</ele><time>2026-04-19T15:33:16.999Z</time></trkpt><trkpt lat="39.8803352" lon="-0.4173725"><ele>658.0</ele><time>2026-04-19T15:33:18Z</time></trkpt><trkpt lat="39.8802611" lon="-0.4173327"><ele>658.0</ele><time>2026-04-19T15:33:19Z</time></trkpt><trkpt lat="39.8801968" lon="-0.4173042"><ele>658.0</ele><time>2026-04-19T15:33:19.999Z</time></trkpt><trkpt lat="39.8801354" lon="-0.4172817"><ele>658.0</ele><time>2026-04-19T15:33:20.999Z</time></trkpt><trkpt lat="39.8800224" lon="-0.417242"><ele>658.0</ele><time>2026-04-19T15:33:22.999Z</time></trkpt><trkpt lat="39.8799603" lon="-0.417214"><ele>656.1666666666667</ele><time>2026-04-19T15:33:23.999Z</time></trkpt><trkpt lat="39.8798491" lon="-0.4171742"><ele>654.3333333333334</ele><time>2026-04-19T15:33:25.999Z</time></trkpt><trkpt lat="39.8797792" lon="-0.4171442"><ele>652.5</ele><time>2026-04-19T15:33:27.999Z</time></trkpt><trkpt lat="39.8796921" lon="-0.41712"><ele>650.6666666666666</ele><time>2026-04-19T15:33:30.999Z</time></trkpt><trkpt lat="39.8796283" lon="-0.4171118"><ele>648.8333333333333</ele><time>2026-04-19T15:33:33.999Z</time></trkpt><trkpt lat="39.8795749" lon="-0.4171832"><ele>647.0</ele><time>2026-04-19T15:34:08.999Z</time></trkpt><trkpt lat="39.879539" lon="-0.4171138"><ele>647.0</ele><time>2026-04-19T15:45:04.999Z</time></trkpt><trkpt lat="39.8794507" lon="-0.4171007"><ele>647.0</ele><time>2026-04-19T15:45:12.999Z</time></trkpt><trkpt lat="39.8793578" lon="-0.4170843"><ele>647.0</ele><time>2026-04-19T15:45:14.999Z</time></trkpt><trkpt lat="39.8792286" lon="-0.4170682"><ele>647.0</ele><time>2026-04-19T15:45:17Z</time></trkpt><trkpt lat="39.8791584" lon="-0.4170618"><ele>647.0</ele><time>2026-04-19T15:45:17.999Z</time></trkpt><trkpt lat="39.8790406" lon="-0.4170312"><ele>645.6</ele><time>2026-04-19T15:45:19.999Z</time></trkpt><trkpt lat="39.8789425" lon="-0.4169958"><ele>644.2</ele><time>2026-04-19T15:45:21.999Z</time></trkpt><trkpt lat="39.8788494" lon="-0.4170023"><ele>642.8</ele><time>2026-04-19T15:45:23.999Z</time></trkpt><trkpt lat="39.8787628" lon="-0.4170451"><ele>641.4</ele><time>2026-04-19T15:45:25.999Z</time></trkpt><trkpt lat="39.878679" lon="-0.4171013"><ele>640.0</ele><time>2026-04-19T15:45:27.999Z</time></trkpt><trkpt lat="39.8785916" lon="-0.4171715"><ele>640.0</ele><time>2026-04-19T15:45:29.999Z</time></trkpt><trkpt lat="39.8785044" lon="-0.4172176"><ele>640.0</ele><time>2026-04-19T15:45:31.999Z</time></trkpt><trkpt lat="39.8784152" lon="-0.4171808"><ele>640.0</ele><time>2026-04-19T15:45:33.999Z</time></trkpt><trkpt lat="39.8783303" lon="-0.4171128"><ele>640.0</ele><time>2026-04-19T15:45:35.999Z</time></trkpt><trkpt lat="39.8782675" lon="-0.4170325"><ele>640.0</ele><time>2026-04-19T15:45:37.999Z</time></trkpt><trkpt lat="39.8781939" lon="-0.4169747"><ele>634.8333333333334</ele><time>2026-04-19T15:45:39.999Z</time></trkpt><trkpt lat="39.8780822" lon="-0.416924"><ele>629.6666666666667</ele><time>2026-04-19T15:45:41.999Z</time></trkpt><trkpt lat="39.8780186" lon="-0.4168805"><ele>624.5</ele><time>2026-04-19T15:45:42.999Z</time></trkpt><trkpt lat="39.8779667" lon="-0.4168236"><ele>619.3333333333334</ele><time>2026-04-19T15:45:43.999Z</time></trkpt><trkpt lat="39.8779189" lon="-0.4167661"><ele>614.1666666666666</ele><time>2026-04-19T15:45:44.999Z</time></trkpt><trkpt lat="39.8778734" lon="-0.4167076"><ele>609.0</ele><time>2026-04-19T15:45:45.999Z</time></trkpt><trkpt lat="39.8777923" lon="-0.4165991"><ele>609.0</ele><time>2026-04-19T15:45:47.999Z</time></trkpt><trkpt lat="39.8776961" lon="-0.4165183"><ele>609.0</ele><time>2026-04-19T15:45:49.999Z</time></trkpt><trkpt lat="39.8775838" lon="-0.4164895"><ele>609.0</ele><time>2026-04-19T15:45:51.999Z</time></trkpt><trkpt lat="39.8774698" lon="-0.4164879"><ele>609.0</ele><time>2026-04-19T15:45:53.999Z</time></trkpt><trkpt lat="39.8773711" lon="-0.4164694"><ele>609.0</ele><time>2026-04-19T15:45:56Z</time></trkpt><trkpt lat="39.8772774" lon="-0.4164456"><ele>611.4</ele><time>2026-04-19T15:45:57.999Z</time></trkpt><trkpt lat="39.8771812" lon="-0.416439"><ele>613.8</ele><time>2026-04-19T15:45:59.999Z</time></trkpt><trkpt lat="39.8770814" lon="-0.4164451"><ele>616.2</ele><time>2026-04-19T15:46:01.999Z</time></trkpt><trkpt lat="39.8769673" lon="-0.4164683"><ele>618.6</ele><time>2026-04-19T15:46:03.999Z</time></trkpt><trkpt lat="39.8768906" lon="-0.416477"><ele>621.0</ele><time>2026-04-19T15:46:05Z</time></trkpt><trkpt lat="39.8768151" lon="-0.4164719"><ele>619.6666666666666</ele><time>2026-04-19T15:46:06Z</time></trkpt><trkpt lat="39.8767406" lon="-0.416461"><ele>618.3333333333334</ele><time>2026-04-19T15:46:06.999Z</time></trkpt><trkpt lat="39.8766673" lon="-0.4164513"><ele>617.0</ele><time>2026-04-19T15:46:08Z</time></trkpt><trkpt lat="39.8765945" lon="-0.4164434"><ele>615.6666666666667</ele><time>2026-04-19T15:46:08.999Z</time></trkpt><trkpt lat="39.8765197" lon="-0.4164419"><ele>614.3333333333334</ele><time>2026-04-19T15:46:09.999Z</time></trkpt><trkpt lat="39.8764449" lon="-0.4164383"><ele>613.0</ele><time>2026-04-19T15:46:10.999Z</time></trkpt><trkpt lat="39.8763659" lon="-0.4164373"><ele>613.0</ele><time>2026-04-19T15:46:11.999Z</time></trkpt><trkpt lat="39.8762898" lon="-0.416431"><ele>613.0</ele><time>2026-04-19T15:46:13Z</time></trkpt><trkpt lat="39.8761789" lon="-0.4164121"><ele>613.0</ele><time>2026-04-19T15:46:14.96Z</time></trkpt><trkpt lat="39.8760664" lon="-0.4163789"><ele>613.0</ele><time>2026-04-19T15:46:15.999Z</time></trkpt><trkpt lat="39.8760021" lon="-0.4163557"><ele>613.0</ele><time>2026-04-19T15:46:17Z</time></trkpt><trkpt lat="39.8759399" lon="-0.4163324"><ele>613.0</ele><time>2026-04-19T15:46:17.999Z</time></trkpt><trkpt lat="39.8758241" lon="-0.4163055"><ele>612.3333333333334</ele><time>2026-04-19T15:46:19.999Z</time></trkpt><trkpt lat="39.8757553" lon="-0.4163004"><ele>611.6666666666667</ele><time>2026-04-19T15:46:20.999Z</time></trkpt><trkpt lat="39.8756712" lon="-0.4163091"><ele>611.0</ele><time>2026-04-19T15:46:22Z</time></trkpt><trkpt lat="39.8755772" lon="-0.4163209"><ele>610.3333333333334</ele><time>2026-04-19T15:46:22.999Z</time></trkpt><trkpt lat="39.8754989" lon="-0.416328"><ele>609.6666666666666</ele><time>2026-04-19T15:46:23.999Z</time></trkpt><trkpt lat="39.8754253" lon="-0.4163457"><ele>609.0</ele><time>2026-04-19T15:46:24.999Z</time></trkpt><trkpt lat="39.8753591" lon="-0.4163714"><ele>609.0</ele><time>2026-04-19T15:46:25.999Z</time></trkpt><trkpt lat="39.8752976" lon="-0.4164027"><ele>609.0</ele><time>2026-04-19T15:46:26.999Z</time></trkpt><trkpt lat="39.875239" lon="-0.4164338"><ele>609.0</ele><time>2026-04-19T15:46:28Z</time></trkpt><trkpt lat="39.8751371" lon="-0.4164851"><ele>609.0</ele><time>2026-04-19T15:46:29.999Z</time></trkpt><trkpt lat="39.8750216" lon="-0.4165195"><ele>609.0</ele><time>2026-04-19T15:46:32Z</time></trkpt><trkpt lat="39.8749519" lon="-0.4165173"><ele>609.0</ele><time>2026-04-19T15:46:32.999Z</time></trkpt><trkpt lat="39.8748785" lon="-0.4165127"><ele>606.0</ele><time>2026-04-19T15:46:33.999Z</time></trkpt><trkpt lat="39.8748118" lon="-0.4165063"><ele>603.0</ele><time>2026-04-19T15:46:34.999Z</time></trkpt><trkpt lat="39.8747472" lon="-0.4164996"><ele>600.0</ele><time>2026-04-19T15:46:36Z</time></trkpt><trkpt lat="39.8746203" lon="-0.416513"><ele>597.0</ele><time>2026-04-19T15:46:38Z</time></trkpt><trkpt lat="39.8745465" lon="-0.4165317"><ele>594.0</ele><time>2026-04-19T15:46:39Z</time></trkpt><trkpt lat="39.8744755" lon="-0.4165595"><ele>591.0</ele><time>2026-04-19T15:46:39.999Z</time></trkpt><trkpt lat="39.8744134" lon="-0.4165935"><ele>591.0</ele><time>2026-04-19T15:46:40.999Z</time></trkpt><trkpt lat="39.874332" lon="-0.4166574"><ele>591.0</ele><time>2026-04-19T15:46:42.999Z</time></trkpt><trkpt lat="39.8742831" lon="-0.4167251"><ele>591.0</ele><time>2026-04-19T15:46:44.999Z</time></trkpt><trkpt lat="39.874213" lon="-0.416784"><ele>591.0</ele><time>2026-04-19T15:46:47.999Z</time></trkpt><trkpt lat="39.874201" lon="-0.4166745"><ele>591.0</ele><time>2026-04-19T15:46:50.999Z</time></trkpt><trkpt lat="39.8742436" lon="-0.4165816"><ele>591.0</ele><time>2026-04-19T15:46:52.999Z</time></trkpt><trkpt lat="39.8743027" lon="-0.4164642"><ele>591.0</ele><time>2026-04-19T15:46:54.999Z</time></trkpt><trkpt lat="39.8743758" lon="-0.4163553"><ele>591.0</ele><time>2026-04-19T15:46:56.999Z</time></trkpt><trkpt lat="39.8744311" lon="-0.4162967"><ele>591.0</ele><time>2026-04-19T15:46:58.999Z</time></trkpt><trkpt lat="39.8744703" lon="-0.4161976"><ele>591.0</ele><time>2026-04-19T15:47:02Z</time></trkpt><trkpt lat="39.8743968" lon="-0.4161524"><ele>591.0</ele><time>2026-04-19T15:47:03.999Z</time></trkpt><trkpt lat="39.8743194" lon="-0.4161899"><ele>591.0</ele><time>2026-04-19T15:47:05.999Z</time></trkpt><trkpt lat="39.8742499" lon="-0.4162492"><ele>586.3333333333334</ele><time>2026-04-19T15:47:07.999Z</time></trkpt><trkpt lat="39.8741718" lon="-0.4163484"><ele>581.6666666666666</ele><time>2026-04-19T15:47:09.999Z</time></trkpt><trkpt lat="39.8741168" lon="-0.4164331"><ele>577.0</ele><time>2026-04-19T15:47:11.999Z</time></trkpt><trkpt lat="39.8740565" lon="-0.4164601"><ele>572.3333333333333</ele><time>2026-04-19T15:47:14.999Z</time></trkpt><trkpt lat="39.8740381" lon="-0.416369"><ele>567.6666666666666</ele><time>2026-04-19T15:47:17.999Z</time></trkpt><trkpt lat="39.8740812" lon="-0.4163039"><ele>563.0</ele><time>2026-04-19T15:47:19.999Z</time></trkpt><trkpt lat="39.8741432" lon="-0.4162328"><ele>563.0</ele><time>2026-04-19T15:47:22.999Z</time></trkpt><trkpt lat="39.8741333" lon="-0.4161327"><ele>563.0</ele><time>2026-04-19T15:47:25.999Z</time></trkpt><trkpt lat="39.8740484" lon="-0.4161147"><ele>563.0</ele><time>2026-04-19T15:47:28.999Z</time></trkpt><trkpt lat="39.8739975" lon="-0.416182"><ele>563.0</ele><time>2026-04-19T15:47:30.999Z</time></trkpt><trkpt lat="39.8739394" lon="-0.4162498"><ele>563.0</ele><time>2026-04-19T15:47:32.999Z</time></trkpt><trkpt lat="39.8738818" lon="-0.4163244"><ele>563.0</ele><time>2026-04-19T15:47:34.999Z</time></trkpt><trkpt lat="39.8738209" lon="-0.4164147"><ele>563.0</ele><time>2026-04-19T15:47:37.999Z</time></trkpt><trkpt lat="39.8737651" lon="-0.4164905"><ele>563.0</ele><time>2026-04-19T15:47:41Z</time></trkpt><trkpt lat="39.8737023" lon="-0.4165806"><ele>563.0</ele><time>2026-04-19T15:47:44Z</time></trkpt><trkpt lat="39.8736474" lon="-0.4166681"><ele>563.0</ele><time>2026-04-19T15:47:46Z</time></trkpt><trkpt lat="39.8735816" lon="-0.4167769"><ele>563.0</ele><time>2026-04-19T15:47:47.999Z</time></trkpt><trkpt lat="39.8735468" lon="-0.4168463"><ele>563.0</ele><time>2026-04-19T15:47:48.999Z</time></trkpt><trkpt lat="39.8735042" lon="-0.4169301"><ele>563.0</ele><time>2026-04-19T15:47:50Z</time></trkpt><trkpt lat="39.8734581" lon="-0.4170263"><ele>563.0</ele><time>2026-04-19T15:47:51Z</time></trkpt><trkpt lat="39.8734167" lon="-0.417097"><ele>563.0</ele><time>2026-04-19T15:47:51.999Z</time></trkpt><trkpt lat="39.8733525" lon="-0.4172178"><ele>563.0</ele><time>2026-04-19T15:47:54Z</time></trkpt><trkpt lat="39.8732905" lon="-0.4173182"><ele>563.0</ele><time>2026-04-19T15:47:56Z</time></trkpt><trkpt lat="39.8732313" lon="-0.4174092"><ele>559.1666666666666</ele><time>2026-04-19T15:47:57.999Z</time></trkpt><trkpt lat="39.8731744" lon="-0.4174779"><ele>555.3333333333333</ele><time>2026-04-19T15:47:59.999Z</time></trkpt><trkpt lat="39.8731058" lon="-0.4175173"><ele>551.5</ele><time>2026-04-19T15:48:01.999Z</time></trkpt><trkpt lat="39.8730345" lon="-0.4175262"><ele>547.6666666666666</ele><time>2026-04-19T15:48:03.999Z</time></trkpt><trkpt lat="39.8729558" lon="-0.4175096"><ele>543.8333333333334</ele><time>2026-04-19T15:48:06.999Z</time></trkpt><trkpt lat="39.8729415" lon="-0.4174086"><ele>540.0</ele><time>2026-04-19T15:48:10.999Z</time></trkpt><trkpt lat="39.8730089" lon="-0.4173407"><ele>540.0</ele><time>2026-04-19T15:48:12.999Z</time></trkpt><trkpt lat="39.8730949" lon="-0.4172343"><ele>540.0</ele><time>2026-04-19T15:48:14.999Z</time></trkpt><trkpt lat="39.8731313" lon="-0.4171637"><ele>540.0</ele><time>2026-04-19T15:48:15.999Z</time></trkpt><trkpt lat="39.8731709" lon="-0.4170712"><ele>540.0</ele><time>2026-04-19T15:48:16.999Z</time></trkpt><trkpt lat="39.8732154" lon="-0.4169507"><ele>540.0</ele><time>2026-04-19T15:48:17.999Z</time></trkpt><trkpt lat="39.8732558" lon="-0.4168413"><ele>537.4</ele><time>2026-04-19T15:48:19Z</time></trkpt><trkpt lat="39.8732866" lon="-0.4167384"><ele>534.8</ele><time>2026-04-19T15:48:19.999Z</time></trkpt><trkpt lat="39.8733164" lon="-0.4166265"><ele>532.2</ele><time>2026-04-19T15:48:20.999Z</time></trkpt><trkpt lat="39.8733488" lon="-0.4165235"><ele>529.6</ele><time>2026-04-19T15:48:21.999Z</time></trkpt><trkpt lat="39.873377" lon="-0.416437"><ele>527.0</ele><time>2026-04-19T15:48:22.999Z</time></trkpt><trkpt lat="39.8734183" lon="-0.4162917"><ele>528.3333333333333</ele><time>2026-04-19T15:48:24.999Z</time></trkpt><trkpt lat="39.8734629" lon="-0.416165"><ele>529.6666666666666</ele><time>2026-04-19T15:48:27Z</time></trkpt><trkpt lat="39.8734992" lon="-0.4160496"><ele>531.0</ele><time>2026-04-19T15:48:29Z</time></trkpt><trkpt lat="39.8735158" lon="-0.4159627"><ele>532.3333333333334</ele><time>2026-04-19T15:48:29.999Z</time></trkpt><trkpt lat="39.8735254" lon="-0.4158579"><ele>533.6666666666667</ele><time>2026-04-19T15:48:30.999Z</time></trkpt><trkpt lat="39.8735287" lon="-0.4157527"><ele>535.0</ele><time>2026-04-19T15:48:31.999Z</time></trkpt><trkpt lat="39.8735184" lon="-0.415637"><ele>535.0</ele><time>2026-04-19T15:48:32.999Z</time></trkpt><trkpt lat="39.8735058" lon="-0.4155243"><ele>535.0</ele><time>2026-04-19T15:48:33.999Z</time></trkpt><trkpt lat="39.873493" lon="-0.4154214"><ele>535.0</ele><time>2026-04-19T15:48:34.999Z</time></trkpt><trkpt lat="39.8734899" lon="-0.4153228"><ele>535.0</ele><time>2026-04-19T15:48:36Z</time></trkpt><trkpt lat="39.8734944" lon="-0.415224"><ele>535.0</ele><time>2026-04-19T15:48:36.999Z</time></trkpt><trkpt lat="39.8735014" lon="-0.4151269"><ele>535.0</ele><time>2026-04-19T15:48:37.999Z</time></trkpt><trkpt lat="39.8735066" lon="-0.4150367"><ele>528.8</ele><time>2026-04-19T15:48:38.999Z</time></trkpt><trkpt lat="39.8735088" lon="-0.4149502"><ele>522.6</ele><time>2026-04-19T15:48:39.999Z</time></trkpt><trkpt lat="39.8734827" lon="-0.4148131"><ele>516.4</ele><time>2026-04-19T15:48:41.999Z</time></trkpt><trkpt lat="39.873405" lon="-0.4147132"><ele>510.2</ele><time>2026-04-19T15:48:43.999Z</time></trkpt><trkpt lat="39.8732883" lon="-0.4146891"><ele>504.0</ele><time>2026-04-19T15:48:45.999Z</time></trkpt><trkpt lat="39.873229" lon="-0.4147187"><ele>503.0</ele><time>2026-04-19T15:48:47Z</time></trkpt><trkpt lat="39.8731631" lon="-0.4147671"><ele>502.0</ele><time>2026-04-19T15:48:47.999Z</time></trkpt><trkpt lat="39.8730727" lon="-0.4148247"><ele>501.0</ele><time>2026-04-19T15:48:50Z</time></trkpt><trkpt lat="39.8729995" lon="-0.4149239"><ele>500.0</ele><time>2026-04-19T15:48:51.999Z</time></trkpt><trkpt lat="39.8729757" lon="-0.4150383"><ele>499.0</ele><time>2026-04-19T15:48:54Z</time></trkpt><trkpt lat="39.8729356" lon="-0.4151338"><ele>499.0</ele><time>2026-04-19T15:48:55.999Z</time></trkpt><trkpt lat="39.8728557" lon="-0.4151479"><ele>499.0</ele><time>2026-04-19T15:48:57.999Z</time></trkpt><trkpt lat="39.8728038" lon="-0.4150554"><ele>499.0</ele><time>2026-04-19T15:48:59.999Z</time></trkpt><trkpt lat="39.8728244" lon="-0.4149226"><ele>499.0</ele><time>2026-04-19T15:49:01.999Z</time></trkpt><trkpt lat="39.8728615" lon="-0.4147774"><ele>499.0</ele><time>2026-04-19T15:49:03.999Z</time></trkpt><trkpt lat="39.8728998" lon="-0.4146254"><ele>495.50000000000006</ele><time>2026-04-19T15:49:05.999Z</time></trkpt><trkpt lat="39.8729226" lon="-0.414546"><ele>492.0</ele><time>2026-04-19T15:49:07Z</time></trkpt><trkpt lat="39.8729406" lon="-0.4144658"><ele>488.5</ele><time>2026-04-19T15:49:07.999Z</time></trkpt><trkpt lat="39.8729534" lon="-0.4143754"><ele>485.0</ele><time>2026-04-19T15:49:08.999Z</time></trkpt><trkpt lat="39.8729577" lon="-0.4142685"><ele>481.50000000000006</ele><time>2026-04-19T15:49:09.999Z</time></trkpt><trkpt lat="39.8729633" lon="-0.4141727"><ele>478.0</ele><time>2026-04-19T15:49:10.999Z</time></trkpt><trkpt lat="39.8729785" lon="-0.4140323"><ele>478.0</ele><time>2026-04-19T15:49:12.999Z</time></trkpt><trkpt lat="39.8730197" lon="-0.4139378"><ele>477.99999999999994</ele><time>2026-04-19T15:49:14.999Z</time></trkpt><trkpt lat="39.8730989" lon="-0.4139094"><ele>477.99999999999994</ele><time>2026-04-19T15:49:16.999Z</time></trkpt><trkpt lat="39.8732297" lon="-0.4139483"><ele>478.0</ele><time>2026-04-19T15:49:18.999Z</time></trkpt><trkpt lat="39.8733426" lon="-0.4139832"><ele>478.0</ele><time>2026-04-19T15:49:20.999Z</time></trkpt><trkpt lat="39.8734549" lon="-0.4139346"><ele>477.7142857142858</ele><time>2026-04-19T15:49:22.999Z</time></trkpt><trkpt lat="39.8735072" lon="-0.4138829"><ele>477.42857142857144</ele><time>2026-04-19T15:49:24Z</time></trkpt><trkpt lat="39.8735516" lon="-0.4138164"><ele>477.14285714285717</ele><time>2026-04-19T15:49:25Z</time></trkpt><trkpt lat="39.8735852" lon="-0.4137407"><ele>476.8571428571429</ele><time>2026-04-19T15:49:25.999Z</time></trkpt><trkpt lat="39.8736127" lon="-0.4136611"><ele>476.57142857142856</ele><time>2026-04-19T15:49:26.999Z</time></trkpt><trkpt lat="39.8736305" lon="-0.4135815"><ele>476.2857142857143</ele><time>2026-04-19T15:49:27.999Z</time></trkpt><trkpt lat="39.8736546" lon="-0.413432"><ele>476.0</ele><time>2026-04-19T15:49:30Z</time></trkpt><trkpt lat="39.8736661" lon="-0.4132996"><ele>473.49999999999994</ele><time>2026-04-19T15:49:31.999Z</time></trkpt><trkpt lat="39.8736426" lon="-0.4131671"><ele>471.0</ele><time>2026-04-19T15:49:33.999Z</time></trkpt><trkpt lat="39.873588" lon="-0.4130908"><ele>468.5</ele><time>2026-04-19T15:49:35.999Z</time></trkpt><trkpt lat="39.8735889" lon="-0.4129981"><ele>466.0</ele><time>2026-04-19T15:49:38Z</time></trkpt><trkpt lat="39.8736397" lon="-0.4129305"><ele>463.49999999999994</ele><time>2026-04-19T15:49:39.999Z</time></trkpt><trkpt lat="39.8736263" lon="-0.4128271"><ele>461.0</ele><time>2026-04-19T15:49:41.999Z</time></trkpt><trkpt lat="39.8735947" lon="-0.4127535"><ele>458.7142857142857</ele><time>2026-04-19T15:49:43.999Z</time></trkpt><trkpt lat="39.8736221" lon="-0.4126757"><ele>456.42857142857144</ele><time>2026-04-19T15:49:46Z</time></trkpt><trkpt lat="39.8736737" lon="-0.4125658"><ele>454.14285714285717</ele><time>2026-04-19T15:49:48.999Z</time></trkpt><trkpt lat="39.8736245" lon="-0.4124824"><ele>451.8571428571429</ele><time>2026-04-19T15:49:50.999Z</time></trkpt><trkpt lat="39.8735668" lon="-0.4124377"><ele>449.57142857142856</ele><time>2026-04-19T15:49:53Z</time></trkpt><trkpt lat="39.8735472" lon="-0.4123573"><ele>447.28571428571433</ele><time>2026-04-19T15:49:54.999Z</time></trkpt><trkpt lat="39.8735891" lon="-0.4122838"><ele>445.0</ele><time>2026-04-19T15:49:57Z</time></trkpt><trkpt lat="39.8736483" lon="-0.4122488"><ele>445.00000000000006</ele><time>2026-04-19T15:49:58.999Z</time></trkpt><trkpt lat="39.8737179" lon="-0.4122466"><ele>445.0</ele><time>2026-04-19T15:50:00.999Z</time></trkpt><trkpt lat="39.8737997" lon="-0.4122928"><ele>445.0</ele><time>2026-04-19T15:50:02.999Z</time></trkpt><trkpt lat="39.8738828" lon="-0.4123147"><ele>445.0</ele><time>2026-04-19T15:50:04.999Z</time></trkpt><trkpt lat="39.8739428" lon="-0.4122662"><ele>445.00000000000006</ele><time>2026-04-19T15:50:06.999Z</time></trkpt><trkpt lat="39.8739697" lon="-0.4121717"><ele>445.0</ele><time>2026-04-19T15:50:08.999Z</time></trkpt><trkpt lat="39.8739127" lon="-0.4120788"><ele>442.4</ele><time>2026-04-19T15:50:10.999Z</time></trkpt><trkpt lat="39.873816" lon="-0.4120036"><ele>439.8</ele><time>2026-04-19T15:50:12.999Z</time></trkpt><trkpt lat="39.8737397" lon="-0.4119119"><ele>437.20000000000005</ele><time>2026-04-19T15:50:14.999Z</time></trkpt><trkpt lat="39.8736778" lon="-0.4118266"><ele>434.6</ele><time>2026-04-19T15:50:17Z</time></trkpt><trkpt lat="39.8735795" lon="-0.4117496"><ele>432.0</ele><time>2026-04-19T15:50:18.999Z</time></trkpt><trkpt lat="39.8734603" lon="-0.4117267"><ele>430.8</ele><time>2026-04-19T15:50:20.999Z</time></trkpt><trkpt lat="39.8733508" lon="-0.4117083"><ele>429.6</ele><time>2026-04-19T15:50:22.999Z</time></trkpt><trkpt lat="39.8732502" lon="-0.41171"><ele>428.40000000000003</ele><time>2026-04-19T15:50:24.999Z</time></trkpt><trkpt lat="39.8731326" lon="-0.4117411"><ele>427.20000000000005</ele><time>2026-04-19T15:50:26.999Z</time></trkpt><trkpt lat="39.8730341" lon="-0.411773"><ele>426.0</ele><time>2026-04-19T15:50:28.999Z</time></trkpt><trkpt lat="39.872927" lon="-0.4117897"><ele>426.0</ele><time>2026-04-19T15:50:31Z</time></trkpt><trkpt lat="39.8728391" lon="-0.4117436"><ele>426.0</ele><time>2026-04-19T15:50:32.999Z</time></trkpt><trkpt lat="39.872743" lon="-0.4116952"><ele>426.0</ele><time>2026-04-19T15:50:34.999Z</time></trkpt><trkpt lat="39.8726247" lon="-0.4117268"><ele>426.0</ele><time>2026-04-19T15:50:36.999Z</time></trkpt><trkpt lat="39.8725634" lon="-0.4117632"><ele>426.0</ele><time>2026-04-19T15:50:37.999Z</time></trkpt><trkpt lat="39.8725043" lon="-0.4118069"><ele>423.6</ele><time>2026-04-19T15:50:39Z</time></trkpt><trkpt lat="39.8724189" lon="-0.4118751"><ele>421.20000000000005</ele><time>2026-04-19T15:50:41Z</time></trkpt><trkpt lat="39.8723561" lon="-0.4119417"><ele>418.79999999999995</ele><time>2026-04-19T15:50:43Z</time></trkpt><trkpt lat="39.8722724" lon="-0.411986"><ele>416.4</ele><time>2026-04-19T15:50:44.999Z</time></trkpt><trkpt lat="39.8721558" lon="-0.4119842"><ele>414.0</ele><time>2026-04-19T15:50:46.999Z</time></trkpt><trkpt lat="39.8720707" lon="-0.411969"><ele>414.0</ele><time>2026-04-19T15:50:48Z</time></trkpt><trkpt lat="39.8719917" lon="-0.411946"><ele>414.0</ele><time>2026-04-19T15:50:49Z</time></trkpt><trkpt lat="39.871918" lon="-0.4119194"><ele>414.0</ele><time>2026-04-19T15:50:49.999Z</time></trkpt><trkpt lat="39.871846" lon="-0.4118864"><ele>414.0</ele><time>2026-04-19T15:50:50.999Z</time></trkpt><trkpt lat="39.8717796" lon="-0.4118528"><ele>414.0</ele><time>2026-04-19T15:50:51.999Z</time></trkpt><trkpt lat="39.8717184" lon="-0.4118284"><ele>414.0</ele><time>2026-04-19T15:50:52.999Z</time></trkpt><trkpt lat="39.8716077" lon="-0.4117837"><ele>412.8333333333333</ele><time>2026-04-19T15:50:54.999Z</time></trkpt><trkpt lat="39.8715456" lon="-0.4117445"><ele>411.66666666666663</ele><time>2026-04-19T15:50:55.999Z</time></trkpt><trkpt lat="39.8714807" lon="-0.4117122"><ele>410.5</ele><time>2026-04-19T15:50:56.999Z</time></trkpt><trkpt lat="39.8714162" lon="-0.4116864"><ele>409.3333333333333</ele><time>2026-04-19T15:50:57.999Z</time></trkpt><trkpt lat="39.8713534" lon="-0.4116569"><ele>408.16666666666663</ele><time>2026-04-19T15:50:58.999Z</time></trkpt><trkpt lat="39.8712928" lon="-0.4116291"><ele>407.0</ele><time>2026-04-19T15:50:59.999Z</time></trkpt><trkpt lat="39.871183" lon="-0.4115834"><ele>407.0</ele><time>2026-04-19T15:51:01.999Z</time></trkpt><trkpt lat="39.8710903" lon="-0.4115214"><ele>407.0</ele><time>2026-04-19T15:51:03.999Z</time></trkpt><trkpt lat="39.871007" lon="-0.4114243"><ele>407.0</ele><time>2026-04-19T15:51:06Z</time></trkpt><trkpt lat="39.870925" lon="-0.4113044"><ele>407.0</ele><time>2026-04-19T15:51:07.999Z</time></trkpt><trkpt lat="39.8708402" lon="-0.4111928"><ele>406.16666666666663</ele><time>2026-04-19T15:51:09.999Z</time></trkpt><trkpt lat="39.8707582" lon="-0.411084"><ele>405.3333333333333</ele><time>2026-04-19T15:51:11.999Z</time></trkpt><trkpt lat="39.8707101" lon="-0.4110203"><ele>404.5</ele><time>2026-04-19T15:51:13.999Z</time></trkpt><trkpt lat="39.8706589" lon="-0.410954"><ele>403.66666666666663</ele><time>2026-04-19T15:53:52.999Z</time></trkpt><trkpt lat="39.8706048" lon="-0.4108794"><ele>402.8333333333333</ele><time>2026-04-19T15:53:55.999Z</time></trkpt><trkpt lat="39.8705557" lon="-0.4108242"><ele>402.0</ele><time>2026-04-19T15:54:00Z</time></trkpt><trkpt lat="39.8705559" lon="-0.4107046"><ele>402.0</ele><time>2026-04-19T15:54:03.999Z</time></trkpt><trkpt lat="39.8706432" lon="-0.4106063"><ele>402.0</ele><time>2026-04-19T15:54:05.999Z</time></trkpt><trkpt lat="39.8707082" lon="-0.4105255"><ele>402.0</ele><time>2026-04-19T15:54:07.999Z</time></trkpt><trkpt lat="39.8707505" lon="-0.4104261"><ele>402.0</ele><time>2026-04-19T15:54:09.999Z</time></trkpt><trkpt lat="39.8707596" lon="-0.4102842"><ele>402.0</ele><time>2026-04-19T15:54:11.999Z</time></trkpt><trkpt lat="39.8707169" lon="-0.4101288"><ele>401.40000000000003</ele><time>2026-04-19T15:54:13.999Z</time></trkpt><trkpt lat="39.8706849" lon="-0.410055"><ele>400.8</ele><time>2026-04-19T15:54:14.999Z</time></trkpt><trkpt lat="39.8706343" lon="-0.4099541"><ele>400.2</ele><time>2026-04-19T15:54:16.827Z</time></trkpt><trkpt lat="39.8705318" lon="-0.4098027"><ele>399.6</ele><time>2026-04-19T15:54:18.974Z</time></trkpt><trkpt lat="39.8704512" lon="-0.4097215"><ele>399.0</ele><time>2026-04-19T15:54:19.999Z</time></trkpt><trkpt lat="39.8703481" lon="-0.4096491"><ele>398.0</ele><time>2026-04-19T15:54:21.999Z</time></trkpt><trkpt lat="39.8702859" lon="-0.4096106"><ele>397.0</ele><time>2026-04-19T15:54:22.999Z</time></trkpt><trkpt lat="39.870206" lon="-0.4095643"><ele>396.0</ele><time>2026-04-19T15:54:24Z</time></trkpt><trkpt lat="39.8701267" lon="-0.4095043"><ele>395.0</ele><time>2026-04-19T15:54:24.999Z</time></trkpt><trkpt lat="39.8700492" lon="-0.4094201"><ele>394.0</ele><time>2026-04-19T15:54:25.999Z</time></trkpt><trkpt lat="39.869977" lon="-0.4093112"><ele>393.2</ele><time>2026-04-19T15:54:27Z</time></trkpt><trkpt lat="39.8699122" lon="-0.4091916"><ele>392.4</ele><time>2026-04-19T15:54:27.999Z</time></trkpt><trkpt lat="39.869854" lon="-0.4090805"><ele>391.6</ele><time>2026-04-19T15:54:29Z</time></trkpt><trkpt lat="39.8697995" lon="-0.4089827"><ele>390.8</ele><time>2026-04-19T15:54:29.999Z</time></trkpt><trkpt lat="39.8697497" lon="-0.4088894"><ele>390.0</ele><time>2026-04-19T15:54:31Z</time></trkpt><trkpt lat="39.8697104" lon="-0.4088013"><ele>391.6666666666667</ele><time>2026-04-19T15:54:32Z</time></trkpt><trkpt lat="39.869696" lon="-0.4087161"><ele>393.33333333333337</ele><time>2026-04-19T15:54:32.999Z</time></trkpt><trkpt lat="39.8697146" lon="-0.4086313"><ele>395.0</ele><time>2026-04-19T15:54:33.999Z</time></trkpt><trkpt lat="39.8697672" lon="-0.4085486"><ele>396.6666666666667</ele><time>2026-04-19T15:54:34.999Z</time></trkpt><trkpt lat="39.8698402" lon="-0.4084774"><ele>398.33333333333337</ele><time>2026-04-19T15:54:35.999Z</time></trkpt><trkpt lat="39.8699262" lon="-0.4084119"><ele>400.0</ele><time>2026-04-19T15:54:36.999Z</time></trkpt><trkpt lat="39.87002" lon="-0.4083371"><ele>401.5</ele><time>2026-04-19T15:54:38Z</time></trkpt><trkpt lat="39.870118" lon="-0.4082572"><ele>403.0</ele><time>2026-04-19T15:54:39Z</time></trkpt><trkpt lat="39.8702137" lon="-0.4081564"><ele>404.5</ele><time>2026-04-19T15:54:39.999Z</time></trkpt><trkpt lat="39.8703086" lon="-0.4080422"><ele>406.0</ele><time>2026-04-19T15:54:40.999Z</time></trkpt><trkpt lat="39.8704107" lon="-0.4079297"><ele>406.0</ele><time>2026-04-19T15:54:42Z</time></trkpt><trkpt lat="39.8705208" lon="-0.4078295"><ele>406.0</ele><time>2026-04-19T15:54:42.999Z</time></trkpt><trkpt lat="39.8706346" lon="-0.4077348"><ele>406.0</ele><time>2026-04-19T15:54:43.999Z</time></trkpt><trkpt lat="39.8707461" lon="-0.4076496"><ele>406.0</ele><time>2026-04-19T15:54:44.999Z</time></trkpt><trkpt lat="39.8708573" lon="-0.4075837"><ele>403.4</ele><time>2026-04-19T15:54:45.999Z</time></trkpt><trkpt lat="39.8709563" lon="-0.4075281"><ele>400.8</ele><time>2026-04-19T15:54:47Z</time></trkpt><trkpt lat="39.8710434" lon="-0.4074789"><ele>398.2</ele><time>2026-04-19T15:54:48Z</time></trkpt><trkpt lat="39.8711249" lon="-0.407421"><ele>395.59999999999997</ele><time>2026-04-19T15:54:48.999Z</time></trkpt><trkpt lat="39.8711961" lon="-0.40734"><ele>393.0</ele><time>2026-04-19T15:54:49.999Z</time></trkpt><trkpt lat="39.8712539" lon="-0.407239"><ele>396.0</ele><time>2026-04-19T15:54:50.999Z</time></trkpt><trkpt lat="39.8713111" lon="-0.4071167"><ele>399.0</ele><time>2026-04-19T15:54:51.999Z</time></trkpt><trkpt lat="39.8713618" lon="-0.4069821"><ele>402.0</ele><time>2026-04-19T15:54:52.999Z</time></trkpt><trkpt lat="39.8714104" lon="-0.406843"><ele>405.0</ele><time>2026-04-19T15:54:53.999Z</time></trkpt><trkpt lat="39.8714635" lon="-0.4066986"><ele>405.0</ele><time>2026-04-19T15:54:55Z</time></trkpt><trkpt lat="39.8715173" lon="-0.4065455"><ele>405.0</ele><time>2026-04-19T15:54:56Z</time></trkpt><trkpt lat="39.8715777" lon="-0.406395"><ele>405.0</ele><time>2026-04-19T15:54:56.999Z</time></trkpt><trkpt lat="39.8716408" lon="-0.4062451"><ele>405.0</ele><time>2026-04-19T15:54:57.999Z</time></trkpt><trkpt lat="39.8717068" lon="-0.4061013"><ele>404.0</ele><time>2026-04-19T15:54:58.999Z</time></trkpt><trkpt lat="39.8717755" lon="-0.4059623"><ele>403.0</ele><time>2026-04-19T15:54:59.999Z</time></trkpt><trkpt lat="39.8718583" lon="-0.4058304"><ele>402.0</ele><time>2026-04-19T15:55:00.999Z</time></trkpt><trkpt lat="39.8719536" lon="-0.4057053"><ele>401.0</ele><time>2026-04-19T15:55:01.999Z</time></trkpt><trkpt lat="39.8720466" lon="-0.4055861"><ele>403.6</ele><time>2026-04-19T15:55:03Z</time></trkpt><trkpt lat="39.872138" lon="-0.4054702"><ele>406.20000000000005</ele><time>2026-04-19T15:55:04Z</time></trkpt><trkpt lat="39.8722245" lon="-0.4053698"><ele>408.79999999999995</ele><time>2026-04-19T15:55:04.999Z</time></trkpt><trkpt lat="39.8723058" lon="-0.4052927"><ele>411.4</ele><time>2026-04-19T15:55:05.999Z</time></trkpt><trkpt lat="39.8723832" lon="-0.4052386"><ele>414.0</ele><time>2026-04-19T15:55:06.999Z</time></trkpt><trkpt lat="39.8724498" lon="-0.4051981"><ele>414.0</ele><time>2026-04-19T15:55:07.999Z</time></trkpt><trkpt lat="39.8725058" lon="-0.4051546"><ele>414.0</ele><time>2026-04-19T15:55:09Z</time></trkpt><trkpt lat="39.8725784" lon="-0.4050185"><ele>414.0</ele><time>2026-04-19T15:55:10.999Z</time></trkpt><trkpt lat="39.8725769" lon="-0.4049237"><ele>414.0</ele><time>2026-04-19T15:55:11.999Z</time></trkpt><trkpt lat="39.8725574" lon="-0.4048115"><ele>414.0</ele><time>2026-04-19T15:55:12.999Z</time></trkpt><trkpt lat="39.8725433" lon="-0.4046812"><ele>415.0</ele><time>2026-04-19T15:55:14Z</time></trkpt><trkpt lat="39.8725349" lon="-0.4045536"><ele>416.0</ele><time>2026-04-19T15:55:14.999Z</time></trkpt><trkpt lat="39.8725255" lon="-0.4044237"><ele>417.0</ele><time>2026-04-19T15:55:15.999Z</time></trkpt><trkpt lat="39.8725045" lon="-0.4043021"><ele>418.0</ele><time>2026-04-19T15:55:16.999Z</time></trkpt><trkpt lat="39.8724753" lon="-0.4041826"><ele>419.0</ele><time>2026-04-19T15:55:17.999Z</time></trkpt><trkpt lat="39.8724358" lon="-0.4040709"><ele>418.99999999999994</ele><time>2026-04-19T15:55:19Z</time></trkpt><trkpt lat="39.8723861" lon="-0.4039886"><ele>419.0</ele><time>2026-04-19T15:55:19.999Z</time></trkpt><trkpt lat="39.872331" lon="-0.4039307"><ele>419.0</ele><time>2026-04-19T15:55:20.999Z</time></trkpt><trkpt lat="39.8722905" lon="-0.4038633"><ele>419.0</ele><time>2026-04-19T15:55:21.999Z</time></trkpt><trkpt lat="39.8722867" lon="-0.4037672"><ele>418.99999999999994</ele><time>2026-04-19T15:55:22.999Z</time></trkpt><trkpt lat="39.872319" lon="-0.403675"><ele>419.0</ele><time>2026-04-19T15:55:23.999Z</time></trkpt><trkpt lat="39.8723842" lon="-0.4035912"><ele>416.5</ele><time>2026-04-19T15:55:24.999Z</time></trkpt><trkpt lat="39.8724651" lon="-0.4035096"><ele>414.0</ele><time>2026-04-19T15:55:25.999Z</time></trkpt><trkpt lat="39.8725445" lon="-0.4034065"><ele>411.5</ele><time>2026-04-19T15:55:26.999Z</time></trkpt><trkpt lat="39.8726176" lon="-0.4032888"><ele>409.0</ele><time>2026-04-19T15:55:28Z</time></trkpt><trkpt lat="39.8726892" lon="-0.4031595"><ele>409.0</ele><time>2026-04-19T15:55:29Z</time></trkpt><trkpt lat="39.8727584" lon="-0.4030162"><ele>409.0</ele><time>2026-04-19T15:55:29.999Z</time></trkpt><trkpt lat="39.8728209" lon="-0.4028694"><ele>409.0</ele><time>2026-04-19T15:55:30.999Z</time></trkpt><trkpt lat="39.8728758" lon="-0.4027333"><ele>409.0</ele><time>2026-04-19T15:55:31.999Z</time></trkpt><trkpt lat="39.872929" lon="-0.4026014"><ele>411.0</ele><time>2026-04-19T15:55:32.999Z</time></trkpt><trkpt lat="39.8729795" lon="-0.4024647"><ele>413.0</ele><time>2026-04-19T15:55:33.999Z</time></trkpt><trkpt lat="39.8730295" lon="-0.4023333"><ele>415.0</ele><time>2026-04-19T15:55:34.999Z</time></trkpt><trkpt lat="39.8730796" lon="-0.402202"><ele>417.0</ele><time>2026-04-19T15:55:35.999Z</time></trkpt><trkpt lat="39.8731353" lon="-0.4020693"><ele>421.5</ele><time>2026-04-19T15:55:36.999Z</time></trkpt><trkpt lat="39.8731886" lon="-0.4019338"><ele>426.0</ele><time>2026-04-19T15:55:37.999Z</time></trkpt><trkpt lat="39.8732456" lon="-0.4017921"><ele>430.5</ele><time>2026-04-19T15:55:38.999Z</time></trkpt><trkpt lat="39.8733033" lon="-0.4016479"><ele>435.0</ele><time>2026-04-19T15:55:39.999Z</time></trkpt><trkpt lat="39.8733569" lon="-0.4015009"><ele>435.0</ele><time>2026-04-19T15:55:41Z</time></trkpt><trkpt lat="39.8734164" lon="-0.4013522"><ele>435.0</ele><time>2026-04-19T15:55:42Z</time></trkpt><trkpt lat="39.8734777" lon="-0.4012025"><ele>435.0</ele><time>2026-04-19T15:55:42.999Z</time></trkpt><trkpt lat="39.8735291" lon="-0.401047"><ele>435.0</ele><time>2026-04-19T15:55:44Z</time></trkpt><trkpt lat="39.8735553" lon="-0.4008814"><ele>437.0</ele><time>2026-04-19T15:55:45Z</time></trkpt><trkpt lat="39.8735735" lon="-0.4007344"><ele>439.0</ele><time>2026-04-19T15:55:45.999Z</time></trkpt><trkpt lat="39.873611" lon="-0.4005995"><ele>441.0</ele><time>2026-04-19T15:55:46.999Z</time></trkpt><trkpt lat="39.8736844" lon="-0.400481"><ele>443.0</ele><time>2026-04-19T15:55:47.999Z</time></trkpt><trkpt lat="39.8737785" lon="-0.4003902"><ele>443.0</ele><time>2026-04-19T15:55:48.999Z</time></trkpt><trkpt lat="39.8738909" lon="-0.4003138"><ele>443.0</ele><time>2026-04-19T15:55:49.999Z</time></trkpt><trkpt lat="39.8739935" lon="-0.4002047"><ele>443.0</ele><time>2026-04-19T15:55:51Z</time></trkpt><trkpt lat="39.8740918" lon="-0.4000839"><ele>443.0</ele><time>2026-04-19T15:55:51.999Z</time></trkpt><trkpt lat="39.8741799" lon="-0.3999504"><ele>443.0</ele><time>2026-04-19T15:55:52.999Z</time></trkpt><trkpt lat="39.8742517" lon="-0.3998031"><ele>443.0</ele><time>2026-04-19T15:55:53.999Z</time></trkpt><trkpt lat="39.8743176" lon="-0.3996395"><ele>443.0</ele><time>2026-04-19T15:55:55Z</time></trkpt><trkpt lat="39.8743854" lon="-0.39947"><ele>443.0</ele><time>2026-04-19T15:55:55.999Z</time></trkpt><trkpt lat="39.8744698" lon="-0.3992942"><ele>443.25</ele><time>2026-04-19T15:55:56.999Z</time></trkpt><trkpt lat="39.8745567" lon="-0.3991116"><ele>443.5</ele><time>2026-04-19T15:55:57.999Z</time></trkpt><trkpt lat="39.8746237" lon="-0.3989383"><ele>443.75</ele><time>2026-04-19T15:55:59Z</time></trkpt><trkpt lat="39.874677" lon="-0.3987782"><ele>444.0</ele><time>2026-04-19T15:55:59.999Z</time></trkpt><trkpt lat="39.8747195" lon="-0.3986331"><ele>444.0</ele><time>2026-04-19T15:56:01Z</time></trkpt><trkpt lat="39.8747453" lon="-0.3985055"><ele>444.0</ele><time>2026-04-19T15:56:01.999Z</time></trkpt><trkpt lat="39.8747492" lon="-0.3983912"><ele>444.0</ele><time>2026-04-19T15:56:02.999Z</time></trkpt><trkpt lat="39.8747607" lon="-0.3982733"><ele>444.0</ele><time>2026-04-19T15:56:03.999Z</time></trkpt><trkpt lat="39.8748042" lon="-0.3981544"><ele>444.0</ele><time>2026-04-19T15:56:04.999Z</time></trkpt><trkpt lat="39.8748772" lon="-0.3980358"><ele>439.0</ele><time>2026-04-19T15:56:06Z</time></trkpt><trkpt lat="39.8749482" lon="-0.397904"><ele>434.0</ele><time>2026-04-19T15:56:07Z</time></trkpt><trkpt lat="39.8750142" lon="-0.3977581"><ele>429.0</ele><time>2026-04-19T15:56:07.999Z</time></trkpt><trkpt lat="39.8750777" lon="-0.3976192"><ele>424.0</ele><time>2026-04-19T15:56:09Z</time></trkpt><trkpt lat="39.8751345" lon="-0.3974835"><ele>424.0</ele><time>2026-04-19T15:56:09.999Z</time></trkpt><trkpt lat="39.8751818" lon="-0.3973595"><ele>424.0</ele><time>2026-04-19T15:56:10.999Z</time></trkpt><trkpt lat="39.8752153" lon="-0.3972327"><ele>424.0</ele><time>2026-04-19T15:56:11.999Z</time></trkpt><trkpt lat="39.8752171" lon="-0.397094"><ele>424.0</ele><time>2026-04-19T15:56:12.999Z</time></trkpt><trkpt lat="39.8752291" lon="-0.3969554"><ele>424.0</ele><time>2026-04-19T15:56:13.999Z</time></trkpt><trkpt lat="39.8752658" lon="-0.3968278"><ele>425.2</ele><time>2026-04-19T15:56:15Z</time></trkpt><trkpt lat="39.8753047" lon="-0.3967026"><ele>426.4</ele><time>2026-04-19T15:56:15.999Z</time></trkpt><trkpt lat="39.8753466" lon="-0.3965782"><ele>427.6</ele><time>2026-04-19T15:56:16.999Z</time></trkpt><trkpt lat="39.8753817" lon="-0.3964631"><ele>428.8</ele><time>2026-04-19T15:56:18Z</time></trkpt><trkpt lat="39.8753914" lon="-0.3963468"><ele>430.0</ele><time>2026-04-19T15:56:18.999Z</time></trkpt><trkpt lat="39.8753798" lon="-0.3962386"><ele>433.33333333333337</ele><time>2026-04-19T15:56:19.999Z</time></trkpt><trkpt lat="39.8753877" lon="-0.396136"><ele>436.6666666666667</ele><time>2026-04-19T15:56:20.999Z</time></trkpt><trkpt lat="39.8754338" lon="-0.3960501"><ele>440.0</ele><time>2026-04-19T15:56:22Z</time></trkpt><trkpt lat="39.8754961" lon="-0.3959802"><ele>443.33333333333337</ele><time>2026-04-19T15:56:23Z</time></trkpt><trkpt lat="39.8755598" lon="-0.3959058"><ele>446.6666666666667</ele><time>2026-04-19T15:56:24Z</time></trkpt><trkpt lat="39.8756315" lon="-0.3958237"><ele>450.0</ele><time>2026-04-19T15:56:24.999Z</time></trkpt><trkpt lat="39.8757048" lon="-0.3957202"><ele>450.0</ele><time>2026-04-19T15:56:26Z</time></trkpt><trkpt lat="39.8757698" lon="-0.395593"><ele>450.0</ele><time>2026-04-19T15:56:26.999Z</time></trkpt><trkpt lat="39.8758256" lon="-0.3954419"><ele>450.0</ele><time>2026-04-19T15:56:27.999Z</time></trkpt><trkpt lat="39.875865" lon="-0.3952796"><ele>450.0</ele><time>2026-04-19T15:56:28.999Z</time></trkpt><trkpt lat="39.8758858" lon="-0.3951274"><ele>453.3333333333333</ele><time>2026-04-19T15:56:30Z</time></trkpt><trkpt lat="39.8758823" lon="-0.3949928"><ele>456.66666666666663</ele><time>2026-04-19T15:56:30.999Z</time></trkpt><trkpt lat="39.8758509" lon="-0.3948783"><ele>460.0</ele><time>2026-04-19T15:56:31.999Z</time></trkpt><trkpt lat="39.8758107" lon="-0.394769"><ele>463.3333333333333</ele><time>2026-04-19T15:56:32.999Z</time></trkpt><trkpt lat="39.8757782" lon="-0.3946776"><ele>466.66666666666663</ele><time>2026-04-19T15:56:33.999Z</time></trkpt><trkpt lat="39.8757548" lon="-0.3945912"><ele>470.0</ele><time>2026-04-19T15:56:34.999Z</time></trkpt><trkpt lat="39.8757901" lon="-0.3944288"><ele>467.49999999999994</ele><time>2026-04-19T15:56:36.999Z</time></trkpt><trkpt lat="39.8758468" lon="-0.3943745"><ele>465.0</ele><time>2026-04-19T15:56:37.999Z</time></trkpt><trkpt lat="39.8759254" lon="-0.3943355"><ele>462.5</ele><time>2026-04-19T15:56:39Z</time></trkpt><trkpt lat="39.8760109" lon="-0.3943104"><ele>460.0</ele><time>2026-04-19T15:56:40Z</time></trkpt><trkpt lat="39.8760995" lon="-0.394269"><ele>457.49999999999994</ele><time>2026-04-19T15:56:41Z</time></trkpt><trkpt lat="39.876181" lon="-0.3942006"><ele>455.0</ele><time>2026-04-19T15:56:42Z</time></trkpt><trkpt lat="39.8762535" lon="-0.3941216"><ele>455.0</ele><time>2026-04-19T15:56:42.999Z</time></trkpt><trkpt lat="39.8763169" lon="-0.3940285"><ele>455.0</ele><time>2026-04-19T15:56:43.999Z</time></trkpt><trkpt lat="39.8763765" lon="-0.3939222"><ele>455.0</ele><time>2026-04-19T15:56:44.999Z</time></trkpt><trkpt lat="39.8764425" lon="-0.3938086"><ele>455.0</ele><time>2026-04-19T15:56:45.999Z</time></trkpt><trkpt lat="39.876524" lon="-0.3937066"><ele>455.0</ele><time>2026-04-19T15:56:46.999Z</time></trkpt><trkpt lat="39.8766183" lon="-0.3936099"><ele>451.5</ele><time>2026-04-19T15:56:47.999Z</time></trkpt><trkpt lat="39.8767112" lon="-0.3935009"><ele>448.0</ele><time>2026-04-19T15:56:48.999Z</time></trkpt><trkpt lat="39.8768029" lon="-0.3933808"><ele>444.5</ele><time>2026-04-19T15:56:49.999Z</time></trkpt><trkpt lat="39.8768935" lon="-0.3932519"><ele>441.0</ele><time>2026-04-19T15:56:50.999Z</time></trkpt><trkpt lat="39.8769724" lon="-0.3931328"><ele>441.0</ele><time>2026-04-19T15:56:51.999Z</time></trkpt><trkpt lat="39.8770332" lon="-0.3930377"><ele>441.0</ele><time>2026-04-19T15:56:52.999Z</time></trkpt><trkpt lat="39.8770774" lon="-0.3929498"><ele>441.0</ele><time>2026-04-19T15:56:53.999Z</time></trkpt><trkpt lat="39.877101" lon="-0.3928583"><ele>441.0</ele><time>2026-04-19T15:56:54.999Z</time></trkpt><trkpt lat="39.8770952" lon="-0.392774"><ele>441.0</ele><time>2026-04-19T15:56:55.999Z</time></trkpt><trkpt lat="39.8770107" lon="-0.3927081"><ele>441.0</ele><time>2026-04-19T15:56:58Z</time></trkpt><trkpt lat="39.8769307" lon="-0.3927109"><ele>443.25</ele><time>2026-04-19T15:56:59Z</time></trkpt><trkpt lat="39.8768169" lon="-0.3927031"><ele>445.5</ele><time>2026-04-19T15:56:59.999Z</time></trkpt><trkpt lat="39.8766875" lon="-0.3926374"><ele>447.75</ele><time>2026-04-19T15:57:01Z</time></trkpt><trkpt lat="39.876588" lon="-0.3925508"><ele>450.0</ele><time>2026-04-19T15:57:01.999Z</time></trkpt><trkpt lat="39.8765102" lon="-0.3924282"><ele>452.3333333333333</ele><time>2026-04-19T15:57:02.999Z</time></trkpt><trkpt lat="39.8764521" lon="-0.3923066"><ele>454.66666666666663</ele><time>2026-04-19T15:57:03.999Z</time></trkpt><trkpt lat="39.8763968" lon="-0.392199"><ele>457.0</ele><time>2026-04-19T15:57:04.999Z</time></trkpt><trkpt lat="39.8763399" lon="-0.3921086"><ele>459.3333333333333</ele><time>2026-04-19T15:57:05.999Z</time></trkpt><trkpt lat="39.8762786" lon="-0.3920583"><ele>461.66666666666663</ele><time>2026-04-19T15:57:06.999Z</time></trkpt><trkpt lat="39.8762078" lon="-0.392045"><ele>464.0</ele><time>2026-04-19T15:57:07.999Z</time></trkpt><trkpt lat="39.8761137" lon="-0.3920879"><ele>464.0</ele><time>2026-04-19T15:57:09.999Z</time></trkpt><trkpt lat="39.876015" lon="-0.3920517"><ele>464.0</ele><time>2026-04-19T15:57:11.999Z</time></trkpt><trkpt lat="39.8759856" lon="-0.391876"><ele>464.0</ele><time>2026-04-19T15:57:13.999Z</time></trkpt><trkpt lat="39.8759829" lon="-0.391769"><ele>464.0</ele><time>2026-04-19T15:57:14.999Z</time></trkpt><trkpt lat="39.8759961" lon="-0.3916226"><ele>464.0</ele><time>2026-04-19T15:57:15.999Z</time></trkpt><trkpt lat="39.8760142" lon="-0.391467"><ele>464.5</ele><time>2026-04-19T15:57:16.999Z</time></trkpt><trkpt lat="39.8760447" lon="-0.3912905"><ele>465.0</ele><time>2026-04-19T15:57:17.999Z</time></trkpt><trkpt lat="39.8760796" lon="-0.3910934"><ele>465.5</ele><time>2026-04-19T15:57:18.999Z</time></trkpt><trkpt lat="39.8761015" lon="-0.3909084"><ele>466.0</ele><time>2026-04-19T15:57:19.999Z</time></trkpt><trkpt lat="39.8761206" lon="-0.3907209"><ele>466.0</ele><time>2026-04-19T15:57:20.999Z</time></trkpt><trkpt lat="39.8761361" lon="-0.3905353"><ele>466.0</ele><time>2026-04-19T15:57:21.999Z</time></trkpt><trkpt lat="39.8761583" lon="-0.3903522"><ele>466.0</ele><time>2026-04-19T15:57:22.999Z</time></trkpt><trkpt lat="39.8761928" lon="-0.3901653"><ele>466.0</ele><time>2026-04-19T15:57:23.999Z</time></trkpt><trkpt lat="39.8762504" lon="-0.3899947"><ele>467.5</ele><time>2026-04-19T15:57:24.999Z</time></trkpt><trkpt lat="39.8762942" lon="-0.3898439"><ele>469.0</ele><time>2026-04-19T15:57:25.999Z</time></trkpt><trkpt lat="39.8763116" lon="-0.3896878"><ele>470.5</ele><time>2026-04-19T15:57:27Z</time></trkpt><trkpt lat="39.8763305" lon="-0.3895413"><ele>472.0</ele><time>2026-04-19T15:57:27.999Z</time></trkpt><trkpt lat="39.8763501" lon="-0.389413"><ele>472.40000000000003</ele><time>2026-04-19T15:57:28.999Z</time></trkpt><trkpt lat="39.8763518" lon="-0.389284"><ele>472.80000000000007</ele><time>2026-04-19T15:57:29.999Z</time></trkpt><trkpt lat="39.8763289" lon="-0.3891488"><ele>473.2</ele><time>2026-04-19T15:57:31Z</time></trkpt><trkpt lat="39.8762946" lon="-0.3890154"><ele>473.6</ele><time>2026-04-19T15:57:31.999Z</time></trkpt><trkpt lat="39.8762424" lon="-0.3888874"><ele>474.0</ele><time>2026-04-19T15:57:33Z</time></trkpt><trkpt lat="39.8761804" lon="-0.3887517"><ele>474.0</ele><time>2026-04-19T15:57:33.999Z</time></trkpt><trkpt lat="39.8761158" lon="-0.3886095"><ele>474.0</ele><time>2026-04-19T15:57:34.999Z</time></trkpt><trkpt lat="39.8760663" lon="-0.3884711"><ele>474.0</ele><time>2026-04-19T15:57:36Z</time></trkpt><trkpt lat="39.8760167" lon="-0.3883386"><ele>474.0</ele><time>2026-04-19T15:57:37Z</time></trkpt><trkpt lat="39.875953" lon="-0.3882168"><ele>481.6</ele><time>2026-04-19T15:57:37.999Z</time></trkpt><trkpt lat="39.8758749" lon="-0.3881113"><ele>489.2</ele><time>2026-04-19T15:57:38.999Z</time></trkpt><trkpt lat="39.8757862" lon="-0.3880213"><ele>496.80000000000007</ele><time>2026-04-19T15:57:40Z</time></trkpt><trkpt lat="39.8757002" lon="-0.3879653"><ele>504.40000000000003</ele><time>2026-04-19T15:57:41Z</time></trkpt><trkpt lat="39.8756226" lon="-0.3879206"><ele>512.0</ele><time>2026-04-19T15:57:41.999Z</time></trkpt><trkpt lat="39.8755653" lon="-0.3878595"><ele>511.99999999999994</ele><time>2026-04-19T15:57:43Z</time></trkpt><trkpt lat="39.8755401" lon="-0.3877717"><ele>512.0</ele><time>2026-04-19T15:57:43.999Z</time></trkpt><trkpt lat="39.8755264" lon="-0.3876849"><ele>512.0</ele><time>2026-04-19T15:57:45Z</time></trkpt><trkpt lat="39.875552" lon="-0.38756"><ele>512.0</ele><time>2026-04-19T15:57:45.999Z</time></trkpt><trkpt lat="39.8755675" lon="-0.3874374"><ele>511.99999999999994</ele><time>2026-04-19T15:57:46.999Z</time></trkpt><trkpt lat="39.8756058" lon="-0.3873125"><ele>512.0</ele><time>2026-04-19T15:57:47.999Z</time></trkpt><trkpt lat="39.8756528" lon="-0.3872138"><ele>512.6</ele><time>2026-04-19T15:57:48.999Z</time></trkpt><trkpt lat="39.8756805" lon="-0.3871126"><ele>513.2</ele><time>2026-04-19T15:57:49.999Z</time></trkpt><trkpt lat="39.8756912" lon="-0.3870037"><ele>513.8</ele><time>2026-04-19T15:57:51Z</time></trkpt><trkpt lat="39.8756807" lon="-0.3868805"><ele>514.4</ele><time>2026-04-19T15:57:52Z</time></trkpt><trkpt lat="39.8756638" lon="-0.3867448"><ele>515.0</ele><time>2026-04-19T15:57:52.999Z</time></trkpt><trkpt lat="39.8756756" lon="-0.3866007"><ele>515.0</ele><time>2026-04-19T15:57:53.999Z</time></trkpt><trkpt lat="39.8757086" lon="-0.3864709"><ele>515.0</ele><time>2026-04-19T15:57:54.999Z</time></trkpt><trkpt lat="39.8757197" lon="-0.3863372"><ele>515.0</ele><time>2026-04-19T15:57:55.999Z</time></trkpt><trkpt lat="39.8757098" lon="-0.3861992"><ele>515.0</ele><time>2026-04-19T15:57:56.999Z</time></trkpt><trkpt lat="39.875711" lon="-0.3860612"><ele>515.0</ele><time>2026-04-19T15:57:57.999Z</time></trkpt><trkpt lat="39.8757025" lon="-0.3859323"><ele>517.6</ele><time>2026-04-19T15:57:58.999Z</time></trkpt><trkpt lat="39.8756749" lon="-0.3858211"><ele>520.2</ele><time>2026-04-19T15:58:00Z</time></trkpt><trkpt lat="39.8756664" lon="-0.3857084"><ele>522.8</ele><time>2026-04-19T15:58:00.999Z</time></trkpt><trkpt lat="39.8756879" lon="-0.385588"><ele>525.4</ele><time>2026-04-19T15:58:01.999Z</time></trkpt><trkpt lat="39.8757168" lon="-0.3854704"><ele>528.0</ele><time>2026-04-19T15:58:02.999Z</time></trkpt><trkpt lat="39.875754" lon="-0.3853525"><ele>531.4</ele><time>2026-04-19T15:58:04Z</time></trkpt><trkpt lat="39.8758244" lon="-0.3852468"><ele>534.8</ele><time>2026-04-19T15:58:04.999Z</time></trkpt><trkpt lat="39.8759069" lon="-0.3851528"><ele>538.2</ele><time>2026-04-19T15:58:05.999Z</time></trkpt><trkpt lat="39.8759779" lon="-0.385049"><ele>541.6</ele><time>2026-04-19T15:58:06.999Z</time></trkpt><trkpt lat="39.8760274" lon="-0.3849459"><ele>545.0</ele><time>2026-04-19T15:58:07.999Z</time></trkpt><trkpt lat="39.8760681" lon="-0.3848321"><ele>537.4</ele><time>2026-04-19T15:58:08.999Z</time></trkpt><trkpt lat="39.8760917" lon="-0.38471"><ele>529.8</ele><time>2026-04-19T15:58:09.999Z</time></trkpt><trkpt lat="39.8761066" lon="-0.3845831"><ele>522.2</ele><time>2026-04-19T15:58:10.999Z</time></trkpt><trkpt lat="39.8761246" lon="-0.3844537"><ele>514.6</ele><time>2026-04-19T15:58:11.999Z</time></trkpt><trkpt lat="39.876145" lon="-0.3843219"><ele>507.0</ele><time>2026-04-19T15:58:12.999Z</time></trkpt><trkpt lat="39.8761732" lon="-0.3841885"><ele>507.0</ele><time>2026-04-19T15:58:13.999Z</time></trkpt><trkpt lat="39.8762061" lon="-0.3840491"><ele>507.0</ele><time>2026-04-19T15:58:14.999Z</time></trkpt><trkpt lat="39.8762382" lon="-0.3839024"><ele>507.0</ele><time>2026-04-19T15:58:15.999Z</time></trkpt><trkpt lat="39.8762743" lon="-0.383752"><ele>507.0</ele><time>2026-04-19T15:58:16.999Z</time></trkpt><trkpt lat="39.876306" lon="-0.3835982"><ele>511.75</ele><time>2026-04-19T15:58:17.999Z</time></trkpt><trkpt lat="39.8763453" lon="-0.3834421"><ele>516.5</ele><time>2026-04-19T15:58:18.999Z</time></trkpt><trkpt lat="39.8763936" lon="-0.3832832"><ele>521.25</ele><time>2026-04-19T15:58:19.999Z</time></trkpt><trkpt lat="39.8764428" lon="-0.3831231"><ele>526.0</ele><time>2026-04-19T15:58:21Z</time></trkpt><trkpt lat="39.8764907" lon="-0.3829601"><ele>530.5</ele><time>2026-04-19T15:58:22Z</time></trkpt><trkpt lat="39.8765354" lon="-0.3828017"><ele>535.0</ele><time>2026-04-19T15:58:22.999Z</time></trkpt><trkpt lat="39.8765765" lon="-0.3826508"><ele>539.5</ele><time>2026-04-19T15:58:24Z</time></trkpt><trkpt lat="39.8766079" lon="-0.3824991"><ele>544.0</ele><time>2026-04-19T15:58:24.999Z</time></trkpt><trkpt lat="39.8766308" lon="-0.382357"><ele>544.0</ele><time>2026-04-19T15:58:25.999Z</time></trkpt><trkpt lat="39.8766339" lon="-0.3822194"><ele>544.0</ele><time>2026-04-19T15:58:26.999Z</time></trkpt><trkpt lat="39.8766208" lon="-0.3820857"><ele>544.0</ele><time>2026-04-19T15:58:27.999Z</time></trkpt><trkpt lat="39.8766338" lon="-0.3819653"><ele>544.0</ele><time>2026-04-19T15:58:28.999Z</time></trkpt><trkpt lat="39.8766921" lon="-0.3818441"><ele>544.0</ele><time>2026-04-19T15:58:29.999Z</time></trkpt><trkpt lat="39.8767506" lon="-0.3817144"><ele>542.2</ele><time>2026-04-19T15:58:30.999Z</time></trkpt><trkpt lat="39.8768078" lon="-0.3815985"><ele>540.4</ele><time>2026-04-19T15:58:31.999Z</time></trkpt><trkpt lat="39.8768563" lon="-0.3814853"><ele>538.6</ele><time>2026-04-19T15:58:33Z</time></trkpt><trkpt lat="39.8768833" lon="-0.3813536"><ele>536.8</ele><time>2026-04-19T15:58:33.999Z</time></trkpt><trkpt lat="39.8769052" lon="-0.3812186"><ele>535.0</ele><time>2026-04-19T15:58:34.999Z</time></trkpt><trkpt lat="39.87693" lon="-0.3810794"><ele>535.0</ele><time>2026-04-19T15:58:35.999Z</time></trkpt><trkpt lat="39.8769733" lon="-0.3809447"><ele>535.0</ele><time>2026-04-19T15:58:37Z</time></trkpt><trkpt lat="39.8770449" lon="-0.3808177"><ele>535.0</ele><time>2026-04-19T15:58:37.999Z</time></trkpt><trkpt lat="39.8771211" lon="-0.3807156"><ele>535.0</ele><time>2026-04-19T15:58:39Z</time></trkpt><trkpt lat="39.8771742" lon="-0.3806519"><ele>535.0</ele><time>2026-04-19T15:58:39.999Z</time></trkpt><trkpt lat="39.8772453" lon="-0.3805789"><ele>535.0</ele><time>2026-04-19T15:58:42Z</time></trkpt><trkpt lat="39.8773112" lon="-0.3805335"><ele>535.0</ele><time>2026-04-19T15:58:45.999Z</time></trkpt><trkpt lat="39.8772774" lon="-0.3804437"><ele>535.0</ele><time>2026-04-19T15:58:49.999Z</time></trkpt><trkpt lat="39.8772177" lon="-0.3804726"><ele>535.0</ele><time>2026-04-19T15:58:51.999Z</time></trkpt><trkpt lat="39.8771434" lon="-0.3805844"><ele>535.0</ele><time>2026-04-19T15:58:53.999Z</time></trkpt><trkpt lat="39.8770898" lon="-0.380641"><ele>535.0</ele><time>2026-04-19T15:58:54.999Z</time></trkpt><trkpt lat="39.8770281" lon="-0.3807029"><ele>535.0</ele><time>2026-04-19T15:58:55.999Z</time></trkpt><trkpt lat="39.876963" lon="-0.3807688"><ele>535.0</ele><time>2026-04-19T15:58:56.999Z</time></trkpt><trkpt lat="39.8769024" lon="-0.380827"><ele>535.0</ele><time>2026-04-19T15:58:57.999Z</time></trkpt><trkpt lat="39.8768537" lon="-0.3808964"><ele>535.0</ele><time>2026-04-19T15:58:58.999Z</time></trkpt><trkpt lat="39.8768132" lon="-0.3809795"><ele>535.0</ele><time>2026-04-19T15:58:59.999Z</time></trkpt><trkpt lat="39.876775" lon="-0.3810763"><ele>535.0</ele><time>2026-04-19T15:59:00.999Z</time></trkpt><trkpt lat="39.876742" lon="-0.3811669"><ele>539.6666666666667</ele><time>2026-04-19T15:59:02Z</time></trkpt><trkpt lat="39.8767079" lon="-0.3812495"><ele>544.3333333333334</ele><time>2026-04-19T15:59:02.999Z</time></trkpt><trkpt lat="39.8766683" lon="-0.3813249"><ele>549.0</ele><time>2026-04-19T15:59:03.999Z</time></trkpt><trkpt lat="39.8766206" lon="-0.3814022"><ele>553.6666666666666</ele><time>2026-04-19T15:59:04.999Z</time></trkpt><trkpt lat="39.8765656" lon="-0.3814876"><ele>558.3333333333333</ele><time>2026-04-19T15:59:05.999Z</time></trkpt><trkpt lat="39.8765012" lon="-0.3815824"><ele>563.0</ele><time>2026-04-19T15:59:06.999Z</time></trkpt><trkpt lat="39.876438" lon="-0.3816764"><ele>563.0</ele><time>2026-04-19T15:59:07.999Z</time></trkpt><trkpt lat="39.8763773" lon="-0.381769"><ele>563.0</ele><time>2026-04-19T15:59:08.999Z</time></trkpt><trkpt lat="39.8763311" lon="-0.381851"><ele>563.0</ele><time>2026-04-19T15:59:10Z</time></trkpt><trkpt lat="39.8762943" lon="-0.3819425"><ele>563.0</ele><time>2026-04-19T15:59:10.999Z</time></trkpt><trkpt lat="39.8762739" lon="-0.3820376"><ele>563.0</ele><time>2026-04-19T15:59:12Z</time></trkpt><trkpt lat="39.876266" lon="-0.3821277"><ele>563.0</ele><time>2026-04-19T15:59:12.999Z</time></trkpt><trkpt lat="39.8762509" lon="-0.3822569"><ele>564.4</ele><time>2026-04-19T15:59:14.999Z</time></trkpt><trkpt lat="39.8761997" lon="-0.3823253"><ele>565.8</ele><time>2026-04-19T15:59:17Z</time></trkpt><trkpt lat="39.8760776" lon="-0.3822998"><ele>567.2</ele><time>2026-04-19T15:59:19Z</time></trkpt><trkpt lat="39.8759856" lon="-0.3822355"><ele>568.6</ele><time>2026-04-19T15:59:20.999Z</time></trkpt><trkpt lat="39.8759306" lon="-0.3821896"><ele>570.0</ele><time>2026-04-19T15:59:23Z</time></trkpt><trkpt lat="39.8758798" lon="-0.3820959"><ele>570.0</ele><time>2026-04-19T15:59:34Z</time></trkpt><trkpt lat="39.8758603" lon="-0.382012"><ele>570.0</ele><time>2026-04-19T15:59:35Z</time></trkpt><trkpt lat="39.8758525" lon="-0.3819096"><ele>570.0</ele><time>2026-04-19T15:59:35.999Z</time></trkpt><trkpt lat="39.8758367" lon="-0.3817971"><ele>570.0</ele><time>2026-04-19T15:59:36.999Z</time></trkpt><trkpt lat="39.8758214" lon="-0.38168"><ele>570.0</ele><time>2026-04-19T15:59:37.999Z</time></trkpt><trkpt lat="39.8758102" lon="-0.3815638"><ele>570.0</ele><time>2026-04-19T15:59:39Z</time></trkpt><trkpt lat="39.8758034" lon="-0.3814592"><ele>570.0</ele><time>2026-04-19T15:59:39.999Z</time></trkpt><trkpt lat="39.8757962" lon="-0.3813631"><ele>570.0</ele><time>2026-04-19T15:59:40.999Z</time></trkpt><trkpt lat="39.8757909" lon="-0.381272"><ele>570.0</ele><time>2026-04-19T15:59:42Z</time></trkpt><trkpt lat="39.8757894" lon="-0.3811758"><ele>570.0</ele><time>2026-04-19T15:59:43Z</time></trkpt><trkpt lat="39.8758016" lon="-0.3810835"><ele>570.0</ele><time>2026-04-19T15:59:43.999Z</time></trkpt><trkpt lat="39.8758295" lon="-0.3809976"><ele>570.0</ele><time>2026-04-19T15:59:44.999Z</time></trkpt><trkpt lat="39.8758647" lon="-0.3809019"><ele>570.0</ele><time>2026-04-19T15:59:45.999Z</time></trkpt><trkpt lat="39.8758973" lon="-0.38079"><ele>569.8</ele><time>2026-04-19T15:59:46.999Z</time></trkpt><trkpt lat="39.8759189" lon="-0.3806717"><ele>569.6</ele><time>2026-04-19T15:59:48Z</time></trkpt><trkpt lat="39.8759306" lon="-0.3805384"><ele>569.4</ele><time>2026-04-19T15:59:48.999Z</time></trkpt><trkpt lat="39.8759338" lon="-0.3803953"><ele>569.2</ele><time>2026-04-19T15:59:49.999Z</time></trkpt><trkpt lat="39.8759365" lon="-0.3802452"><ele>569.0</ele><time>2026-04-19T15:59:50.999Z</time></trkpt><trkpt lat="39.875937" lon="-0.3800884"><ele>568.75</ele><time>2026-04-19T15:59:51.999Z</time></trkpt><trkpt lat="39.8759256" lon="-0.3799262"><ele>568.5</ele><time>2026-04-19T15:59:52.999Z</time></trkpt><trkpt lat="39.8759075" lon="-0.3797632"><ele>568.25</ele><time>2026-04-19T15:59:54Z</time></trkpt><trkpt lat="39.8758946" lon="-0.3796202"><ele>568.0</ele><time>2026-04-19T15:59:54.999Z</time></trkpt><trkpt lat="39.8758766" lon="-0.379492"><ele>570.8</ele><time>2026-04-19T15:59:55.999Z</time></trkpt><trkpt lat="39.8758536" lon="-0.3793718"><ele>573.5999999999999</ele><time>2026-04-19T15:59:56.999Z</time></trkpt><trkpt lat="39.8758188" lon="-0.3792498"><ele>576.4000000000001</ele><time>2026-04-19T15:59:58Z</time></trkpt><trkpt lat="39.8757811" lon="-0.3791499"><ele>579.2</ele><time>2026-04-19T15:59:59Z</time></trkpt><trkpt lat="39.8757303" lon="-0.3790469"><ele>582.0</ele><time>2026-04-19T15:59:59.999Z</time></trkpt><trkpt lat="39.8756722" lon="-0.3789278"><ele>587.6</ele><time>2026-04-19T16:00:00.999Z</time></trkpt><trkpt lat="39.8756097" lon="-0.3788119"><ele>593.2</ele><time>2026-04-19T16:00:01.999Z</time></trkpt><trkpt lat="39.8755429" lon="-0.3787033"><ele>598.8</ele><time>2026-04-19T16:00:02.999Z</time></trkpt><trkpt lat="39.8754869" lon="-0.3786094"><ele>604.4</ele><time>2026-04-19T16:00:04Z</time></trkpt><trkpt lat="39.8754471" lon="-0.3785302"><ele>610.0</ele><time>2026-04-19T16:00:05Z</time></trkpt><trkpt lat="39.8754132" lon="-0.3784489"><ele>610.0</ele><time>2026-04-19T16:00:05.999Z</time></trkpt><trkpt lat="39.8753823" lon="-0.3783391"><ele>610.0</ele><time>2026-04-19T16:00:06.999Z</time></trkpt><trkpt lat="39.8753502" lon="-0.3782087"><ele>610.0</ele><time>2026-04-19T16:00:07.999Z</time></trkpt><trkpt lat="39.8753176" lon="-0.3780695"><ele>610.0</ele><time>2026-04-19T16:00:08.999Z</time></trkpt><trkpt lat="39.8752897" lon="-0.3779445"><ele>610.0</ele><time>2026-04-19T16:00:09.999Z</time></trkpt><trkpt lat="39.8752702" lon="-0.3778102"><ele>613.6666666666667</ele><time>2026-04-19T16:00:11Z</time></trkpt><trkpt lat="39.8752529" lon="-0.3776712"><ele>617.3333333333334</ele><time>2026-04-19T16:00:11.999Z</time></trkpt><trkpt lat="39.8752468" lon="-0.3775602"><ele>621.0</ele><time>2026-04-19T16:00:13Z</time></trkpt><trkpt lat="39.8752427" lon="-0.3774691"><ele>624.6666666666666</ele><time>2026-04-19T16:00:13.999Z</time></trkpt><trkpt lat="39.8752444" lon="-0.3773867"><ele>628.3333333333333</ele><time>2026-04-19T16:00:15Z</time></trkpt><trkpt lat="39.8752653" lon="-0.3773084"><ele>632.0</ele><time>2026-04-19T16:00:15.999Z</time></trkpt><trkpt lat="39.875296" lon="-0.3771864"><ele>634.8</ele><time>2026-04-19T16:00:18Z</time></trkpt><trkpt lat="39.8752897" lon="-0.377069"><ele>637.6</ele><time>2026-04-19T16:00:19.999Z</time></trkpt><trkpt lat="39.8752345" lon="-0.376998"><ele>640.4</ele><time>2026-04-19T16:00:21.999Z</time></trkpt><trkpt lat="39.8751351" lon="-0.3769641"><ele>643.1999999999999</ele><time>2026-04-19T16:00:23.999Z</time></trkpt><trkpt lat="39.8750682" lon="-0.3768729"><ele>646.0</ele><time>2026-04-19T16:00:26Z</time></trkpt><trkpt lat="39.8750227" lon="-0.3767815"><ele>639.5</ele><time>2026-04-19T16:00:26.999Z</time></trkpt><trkpt lat="39.8749805" lon="-0.3766827"><ele>633.0</ele><time>2026-04-19T16:00:27.999Z</time></trkpt><trkpt lat="39.874929" lon="-0.3765799"><ele>626.5</ele><time>2026-04-19T16:00:28.999Z</time></trkpt><trkpt lat="39.8748879" lon="-0.3764912"><ele>620.0</ele><time>2026-04-19T16:00:30Z</time></trkpt><trkpt lat="39.8748584" lon="-0.376399"><ele>613.5</ele><time>2026-04-19T16:00:30.999Z</time></trkpt><trkpt lat="39.8748437" lon="-0.3763061"><ele>607.0</ele><time>2026-04-19T16:00:31.999Z</time></trkpt><trkpt lat="39.8748324" lon="-0.3762182"><ele>607.0</ele><time>2026-04-19T16:00:33Z</time></trkpt><trkpt lat="39.8748093" lon="-0.3761285"><ele>607.0</ele><time>2026-04-19T16:00:33.999Z</time></trkpt><trkpt lat="39.8747662" lon="-0.3760424"><ele>607.0</ele><time>2026-04-19T16:00:35Z</time></trkpt><trkpt lat="39.8747053" lon="-0.3759434"><ele>607.0</ele><time>2026-04-19T16:00:35.999Z</time></trkpt><trkpt lat="39.8746524" lon="-0.3758648"><ele>607.0</ele><time>2026-04-19T16:00:36.999Z</time></trkpt><trkpt lat="39.8746049" lon="-0.375801"><ele>607.0</ele><time>2026-04-19T16:00:37.999Z</time></trkpt><trkpt lat="39.8745556" lon="-0.3757383"><ele>607.0</ele><time>2026-04-19T16:00:38.999Z</time></trkpt><trkpt lat="39.8745139" lon="-0.3756328"><ele>607.0</ele><time>2026-04-19T16:00:40.999Z</time></trkpt><trkpt lat="39.8745335" lon="-0.3755378"><ele>607.0</ele><time>2026-04-19T16:00:43Z</time></trkpt><trkpt lat="39.874611" lon="-0.375434"><ele>607.0</ele><time>2026-04-19T16:00:44.999Z</time></trkpt><trkpt lat="39.8747176" lon="-0.3753871"><ele>607.0</ele><time>2026-04-19T16:00:46.999Z</time></trkpt><trkpt lat="39.874801" lon="-0.3753074"><ele>606.4</ele><time>2026-04-19T16:00:48.999Z</time></trkpt><trkpt lat="39.8748184" lon="-0.3751933"><ele>605.8000000000001</ele><time>2026-04-19T16:00:51Z</time></trkpt><trkpt lat="39.8747751" lon="-0.3750496"><ele>605.2</ele><time>2026-04-19T16:00:52.999Z</time></trkpt><trkpt lat="39.8747689" lon="-0.3749382"><ele>604.6</ele><time>2026-04-19T16:00:55Z</time></trkpt><trkpt lat="39.8748306" lon="-0.3747733"><ele>604.0</ele><time>2026-04-19T16:00:57Z</time></trkpt><trkpt lat="39.8748795" lon="-0.3746511"><ele>602.2</ele><time>2026-04-19T16:00:57.999Z</time></trkpt><trkpt lat="39.8749281" lon="-0.3745255"><ele>600.4</ele><time>2026-04-19T16:00:58.999Z</time></trkpt><trkpt lat="39.8749636" lon="-0.3744305"><ele>598.6</ele><time>2026-04-19T16:00:59.999Z</time></trkpt><trkpt lat="39.8749986" lon="-0.3743483"><ele>596.8</ele><time>2026-04-19T16:01:00.999Z</time></trkpt><trkpt lat="39.875046" lon="-0.3742589"><ele>595.0</ele><time>2026-04-19T16:01:01.999Z</time></trkpt><trkpt lat="39.8751182" lon="-0.3741593"><ele>601.0</ele><time>2026-04-19T16:01:03Z</time></trkpt><trkpt lat="39.8751839" lon="-0.3740837"><ele>607.0</ele><time>2026-04-19T16:01:03.999Z</time></trkpt><trkpt lat="39.875235" lon="-0.3740147"><ele>613.0</ele><time>2026-04-19T16:01:05Z</time></trkpt><trkpt lat="39.8752824" lon="-0.3739558"><ele>619.0</ele><time>2026-04-19T16:01:05.999Z</time></trkpt><trkpt lat="39.8753455" lon="-0.3738457"><ele>625.0</ele><time>2026-04-19T16:01:07.999Z</time></trkpt><trkpt lat="39.8753611" lon="-0.3737367"><ele>631.0</ele><time>2026-04-19T16:01:09.999Z</time></trkpt><trkpt lat="39.8753186" lon="-0.3736024"><ele>631.0</ele><time>2026-04-19T16:01:11.999Z</time></trkpt><trkpt lat="39.8752273" lon="-0.3735377"><ele>631.0</ele><time>2026-04-19T16:01:12.999Z</time></trkpt><trkpt lat="39.8751671" lon="-0.3734931"><ele>631.0</ele><time>2026-04-19T16:01:13.999Z</time></trkpt><trkpt lat="39.8750667" lon="-0.3734124"><ele>631.0</ele><time>2026-04-19T16:01:16Z</time></trkpt><trkpt lat="39.8749942" lon="-0.3733113"><ele>631.0</ele><time>2026-04-19T16:01:18Z</time></trkpt><trkpt lat="39.8749802" lon="-0.373219"><ele>626.6</ele><time>2026-04-19T16:01:20.999Z</time></trkpt><trkpt lat="39.8750081" lon="-0.3731096"><ele>622.2</ele><time>2026-04-19T16:01:28Z</time></trkpt><trkpt lat="39.8750282" lon="-0.3729614"><ele>617.8</ele><time>2026-04-19T16:01:29.999Z</time></trkpt><trkpt lat="39.8750426" lon="-0.3728683"><ele>613.4</ele><time>2026-04-19T16:01:30.999Z</time></trkpt><trkpt lat="39.8750821" lon="-0.3726782"><ele>609.0</ele><time>2026-04-19T16:01:34.051Z</time></trkpt><trkpt lat="39.8750913" lon="-0.3725118"><ele>609.0</ele><time>2026-04-19T16:01:36.959Z</time></trkpt><trkpt lat="39.8750391" lon="-0.3724153"><ele>609.0</ele><time>2026-04-19T16:01:38Z</time></trkpt><trkpt lat="39.8749684" lon="-0.3723578"><ele>609.0</ele><time>2026-04-19T16:01:38.999Z</time></trkpt><trkpt lat="39.874897" lon="-0.3723049"><ele>609.0</ele><time>2026-04-19T16:01:40Z</time></trkpt><trkpt lat="39.8748115" lon="-0.3722751"><ele>609.0</ele><time>2026-04-19T16:01:40.999Z</time></trkpt><trkpt lat="39.8747443" lon="-0.3722406"><ele>609.0</ele><time>2026-04-19T16:01:41.999Z</time></trkpt><trkpt lat="39.8746611" lon="-0.3722004"><ele>609.1666666666666</ele><time>2026-04-19T16:01:42.999Z</time></trkpt><trkpt lat="39.874588" lon="-0.3721458"><ele>609.3333333333334</ele><time>2026-04-19T16:01:43.999Z</time></trkpt><trkpt lat="39.8745161" lon="-0.3720889"><ele>609.5</ele><time>2026-04-19T16:01:45Z</time></trkpt><trkpt lat="39.8744504" lon="-0.3720327"><ele>609.6666666666667</ele><time>2026-04-19T16:01:45.999Z</time></trkpt><trkpt lat="39.8743972" lon="-0.3719772"><ele>609.8333333333334</ele><time>2026-04-19T16:01:46.999Z</time></trkpt><trkpt lat="39.8743236" lon="-0.3718796"><ele>610.0</ele><time>2026-04-19T16:01:48.999Z</time></trkpt><trkpt lat="39.8742474" lon="-0.3718222"><ele>610.0</ele><time>2026-04-19T16:01:51Z</time></trkpt><trkpt lat="39.8741315" lon="-0.3718025"><ele>610.0</ele><time>2026-04-19T16:01:52.999Z</time></trkpt><trkpt lat="39.8740326" lon="-0.3717986"><ele>610.0</ele><time>2026-04-19T16:01:54.999Z</time></trkpt><trkpt lat="39.8739565" lon="-0.3717731"><ele>610.0</ele><time>2026-04-19T16:01:56.999Z</time></trkpt><trkpt lat="39.8738815" lon="-0.3717129"><ele>610.0</ele><time>2026-04-19T16:01:58.999Z</time></trkpt><trkpt lat="39.8738161" lon="-0.371642"><ele>610.0</ele><time>2026-04-19T16:02:00.999Z</time></trkpt><trkpt lat="39.8737294" lon="-0.3715626"><ele>610.0</ele><time>2026-04-19T16:02:05.005Z</time></trkpt><trkpt lat="39.8736541" lon="-0.3715124"><ele>610.0</ele><time>2026-04-19T16:02:06.999Z</time></trkpt><trkpt lat="39.8735889" lon="-0.3714376"><ele>610.0</ele><time>2026-04-19T16:02:10Z</time></trkpt><trkpt lat="39.8735185" lon="-0.3714121"><ele>610.0</ele><time>2026-04-19T16:02:13.999Z</time></trkpt><trkpt lat="39.8735437" lon="-0.3713326"><ele>610.0</ele><time>2026-04-19T16:05:48.999Z</time></trkpt><trkpt lat="39.8735136" lon="-0.3714152"><ele>610.0</ele><time>2026-04-19T16:07:05.999Z</time></trkpt><trkpt lat="39.8735797" lon="-0.3714286"><ele>610.0</ele><time>2026-04-19T16:11:06Z</time></trkpt><trkpt lat="39.8736323" lon="-0.3714961"><ele>610.0</ele><time>2026-04-19T16:11:07.999Z</time></trkpt><trkpt lat="39.8737018" lon="-0.37155"><ele>610.0</ele><time>2026-04-19T16:11:09.999Z</time></trkpt><trkpt lat="39.873795" lon="-0.3716292"><ele>610.0</ele><time>2026-04-19T16:11:11.999Z</time></trkpt><trkpt lat="39.8738726" lon="-0.371713"><ele>610.0</ele><time>2026-04-19T16:11:13.999Z</time></trkpt><trkpt lat="39.8739603" lon="-0.3717851"><ele>610.0</ele><time>2026-04-19T16:11:16Z</time></trkpt><trkpt lat="39.8740504" lon="-0.3718146"><ele>610.0</ele><time>2026-04-19T16:11:17.999Z</time></trkpt><trkpt lat="39.8741516" lon="-0.3718019"><ele>610.0</ele><time>2026-04-19T16:11:19.999Z</time></trkpt><trkpt lat="39.8742314" lon="-0.3718135"><ele>610.0</ele><time>2026-04-19T16:11:21.999Z</time></trkpt><trkpt lat="39.874312" lon="-0.3718897"><ele>610.0</ele><time>2026-04-19T16:11:23.999Z</time></trkpt><trkpt lat="39.8744082" lon="-0.3720062"><ele>609.8333333333334</ele><time>2026-04-19T16:11:25.999Z</time></trkpt><trkpt lat="39.8744632" lon="-0.3720589"><ele>609.6666666666667</ele><time>2026-04-19T16:11:26.999Z</time></trkpt><trkpt lat="39.8745294" lon="-0.3721172"><ele>609.5</ele><time>2026-04-19T16:11:27.999Z</time></trkpt><trkpt lat="39.8746062" lon="-0.3721694"><ele>609.3333333333334</ele><time>2026-04-19T16:11:28.999Z</time></trkpt><trkpt lat="39.874682" lon="-0.372214"><ele>609.1666666666666</ele><time>2026-04-19T16:11:29.999Z</time></trkpt><trkpt lat="39.8747539" lon="-0.3722479"><ele>609.0</ele><time>2026-04-19T16:11:30.999Z</time></trkpt><trkpt lat="39.8748714" lon="-0.3722901"><ele>609.0</ele><time>2026-04-19T16:11:32.999Z</time></trkpt><trkpt lat="39.8749676" lon="-0.3723423"><ele>609.0</ele><time>2026-04-19T16:11:34.999Z</time></trkpt><trkpt lat="39.8750567" lon="-0.3724156"><ele>609.0</ele><time>2026-04-19T16:11:37Z</time></trkpt><trkpt lat="39.875118" lon="-0.3724969"><ele>609.0</ele><time>2026-04-19T16:11:38.999Z</time></trkpt><trkpt lat="39.875126" lon="-0.3725831"><ele>609.0</ele><time>2026-04-19T16:11:41Z</time></trkpt><trkpt lat="39.8750922" lon="-0.372709"><ele>609.0</ele><time>2026-04-19T16:11:42.999Z</time></trkpt><trkpt lat="39.8750751" lon="-0.3727886"><ele>609.0</ele><time>2026-04-19T16:11:43.999Z</time></trkpt><trkpt lat="39.8750574" lon="-0.372922"><ele>609.0</ele><time>2026-04-19T16:11:45.999Z</time></trkpt><trkpt lat="39.875056" lon="-0.3730184"><ele>609.0</ele><time>2026-04-19T16:11:47.999Z</time></trkpt><trkpt lat="39.8750095" lon="-0.373076"><ele>609.0</ele><time>2026-04-19T16:11:50.999Z</time></trkpt><trkpt lat="39.8749721" lon="-0.3729634"><ele>609.0</ele><time>2026-04-19T16:11:54Z</time></trkpt><trkpt lat="39.8749768" lon="-0.3728702"><ele>609.0</ele><time>2026-04-19T16:11:54.999Z</time></trkpt><trkpt lat="39.874981" lon="-0.3727849"><ele>609.0</ele><time>2026-04-19T16:11:56Z</time></trkpt><trkpt lat="39.8749738" lon="-0.3726642"><ele>609.0</ele><time>2026-04-19T16:11:57.999Z</time></trkpt><trkpt lat="39.8749206" lon="-0.3725661"><ele>609.0</ele><time>2026-04-19T16:11:59.999Z</time></trkpt><trkpt lat="39.8748162" lon="-0.3725247"><ele>609.0</ele><time>2026-04-19T16:12:01.999Z</time></trkpt><trkpt lat="39.8747243" lon="-0.3725228"><ele>609.0</ele><time>2026-04-19T16:12:03.948Z</time></trkpt><trkpt lat="39.8745933" lon="-0.3725344"><ele>609.0</ele><time>2026-04-19T16:12:04.999Z</time></trkpt><trkpt lat="39.8745155" lon="-0.3725332"><ele>609.0</ele><time>2026-04-19T16:12:05.999Z</time></trkpt><trkpt lat="39.8744276" lon="-0.3725149"><ele>609.0</ele><time>2026-04-19T16:12:07Z</time></trkpt><trkpt lat="39.8743502" lon="-0.3724868"><ele>609.0</ele><time>2026-04-19T16:12:07.999Z</time></trkpt><trkpt lat="39.874287" lon="-0.3724518"><ele>609.0</ele><time>2026-04-19T16:12:08.999Z</time></trkpt><trkpt lat="39.8741732" lon="-0.3723907"><ele>604.8333333333334</ele><time>2026-04-19T16:12:11Z</time></trkpt><trkpt lat="39.8740838" lon="-0.3723507"><ele>600.6666666666666</ele><time>2026-04-19T16:12:12.999Z</time></trkpt><trkpt lat="39.8739933" lon="-0.37237"><ele>596.5</ele><time>2026-04-19T16:12:16Z</time></trkpt><trkpt lat="39.8739685" lon="-0.3724511"><ele>592.3333333333333</ele><time>2026-04-19T16:12:17.999Z</time></trkpt><trkpt lat="39.8739867" lon="-0.3725472"><ele>588.1666666666666</ele><time>2026-04-19T16:12:19.999Z</time></trkpt><trkpt lat="39.8740334" lon="-0.3726532"><ele>584.0</ele><time>2026-04-19T16:12:23.999Z</time></trkpt><trkpt lat="39.8740967" lon="-0.3727217"><ele>584.0</ele><time>2026-04-19T16:12:26.999Z</time></trkpt><trkpt lat="39.8740446" lon="-0.3728055"><ele>584.0</ele><time>2026-04-19T16:12:29.999Z</time></trkpt><trkpt lat="39.873967" lon="-0.3727546"><ele>584.0</ele><time>2026-04-19T16:12:31.999Z</time></trkpt><trkpt lat="39.8738921" lon="-0.3726875"><ele>584.0</ele><time>2026-04-19T16:12:33.999Z</time></trkpt><trkpt lat="39.8738518" lon="-0.3725962"><ele>584.0</ele><time>2026-04-19T16:12:35.999Z</time></trkpt><trkpt lat="39.8738171" lon="-0.3724889"><ele>584.0</ele><time>2026-04-19T16:12:37.999Z</time></trkpt><trkpt lat="39.8738311" lon="-0.3724011"><ele>584.0</ele><time>2026-04-19T16:12:40.999Z</time></trkpt><trkpt lat="39.8738954" lon="-0.3723796"><ele>584.0</ele><time>2026-04-19T16:12:42.999Z</time></trkpt><trkpt lat="39.873953" lon="-0.3724866"><ele>584.0</ele><time>2026-04-19T16:12:45Z</time></trkpt><trkpt lat="39.8740035" lon="-0.3725689"><ele>584.0</ele><time>2026-04-19T16:12:45.999Z</time></trkpt><trkpt lat="39.8740758" lon="-0.3726784"><ele>584.0</ele><time>2026-04-19T16:12:46.999Z</time></trkpt><trkpt lat="39.8741504" lon="-0.3727949"><ele>584.0</ele><time>2026-04-19T16:12:47.999Z</time></trkpt><trkpt lat="39.874211" lon="-0.3728944"><ele>584.0</ele><time>2026-04-19T16:12:48.999Z</time></trkpt><trkpt lat="39.8742586" lon="-0.3729842"><ele>584.0</ele><time>2026-04-19T16:12:49.999Z</time></trkpt><trkpt lat="39.8742975" lon="-0.3730739"><ele>584.0</ele><time>2026-04-19T16:12:51Z</time></trkpt><trkpt lat="39.8743289" lon="-0.3731679"><ele>584.0</ele><time>2026-04-19T16:12:51.999Z</time></trkpt><trkpt lat="39.874361" lon="-0.3732605"><ele>584.0</ele><time>2026-04-19T16:12:52.999Z</time></trkpt><trkpt lat="39.8743894" lon="-0.373354"><ele>586.2</ele><time>2026-04-19T16:12:53.999Z</time></trkpt><trkpt lat="39.8744177" lon="-0.373434"><ele>588.4</ele><time>2026-04-19T16:12:54.999Z</time></trkpt><trkpt lat="39.8744438" lon="-0.37355"><ele>590.6</ele><time>2026-04-19T16:12:56.999Z</time></trkpt><trkpt lat="39.874442" lon="-0.3736595"><ele>592.8</ele><time>2026-04-19T16:12:58.999Z</time></trkpt><trkpt lat="39.8744311" lon="-0.3737812"><ele>595.0</ele><time>2026-04-19T16:13:00.999Z</time></trkpt><trkpt lat="39.8744141" lon="-0.3739559"><ele>595.0</ele><time>2026-04-19T16:13:03Z</time></trkpt><trkpt lat="39.8744061" lon="-0.3740661"><ele>595.0</ele><time>2026-04-19T16:13:03.999Z</time></trkpt><trkpt lat="39.8743953" lon="-0.3741551"><ele>595.0</ele><time>2026-04-19T16:13:04.999Z</time></trkpt><trkpt lat="39.874378" lon="-0.3742443"><ele>595.0</ele><time>2026-04-19T16:13:06Z</time></trkpt><trkpt lat="39.8743389" lon="-0.3743493"><ele>595.0</ele><time>2026-04-19T16:13:07Z</time></trkpt><trkpt lat="39.874291" lon="-0.3744683"><ele>595.0</ele><time>2026-04-19T16:13:08Z</time></trkpt><trkpt lat="39.8742464" lon="-0.3745723"><ele>591.1666666666667</ele><time>2026-04-19T16:13:08.999Z</time></trkpt><trkpt lat="39.874204" lon="-0.3746658"><ele>587.3333333333334</ele><time>2026-04-19T16:13:09.999Z</time></trkpt><trkpt lat="39.874167" lon="-0.3747697"><ele>583.5</ele><time>2026-04-19T16:13:10.999Z</time></trkpt><trkpt lat="39.8741259" lon="-0.3748664"><ele>579.6666666666666</ele><time>2026-04-19T16:13:12Z</time></trkpt><trkpt lat="39.8740872" lon="-0.374954"><ele>575.8333333333333</ele><time>2026-04-19T16:13:12.999Z</time></trkpt><trkpt lat="39.8740476" lon="-0.3750335"><ele>572.0</ele><time>2026-04-19T16:13:13.999Z</time></trkpt><trkpt lat="39.8740106" lon="-0.3751092"><ele>571.9999999999999</ele><time>2026-04-19T16:13:14.999Z</time></trkpt><trkpt lat="39.8739717" lon="-0.3751828"><ele>572.0</ele><time>2026-04-19T16:13:16Z</time></trkpt><trkpt lat="39.8739347" lon="-0.3752612"><ele>572.0</ele><time>2026-04-19T16:13:17Z</time></trkpt><trkpt lat="39.8739028" lon="-0.3753361"><ele>572.0</ele><time>2026-04-19T16:13:17.999Z</time></trkpt><trkpt lat="39.8738845" lon="-0.3754194"><ele>572.0</ele><time>2026-04-19T16:13:18.999Z</time></trkpt><trkpt lat="39.8738735" lon="-0.3755066"><ele>571.9999999999999</ele><time>2026-04-19T16:13:20Z</time></trkpt><trkpt lat="39.8738785" lon="-0.3756019"><ele>572.0</ele><time>2026-04-19T16:13:20.999Z</time></trkpt><trkpt lat="39.8738896" lon="-0.3757472"><ele>570.8000000000001</ele><time>2026-04-19T16:13:22.955Z</time></trkpt><trkpt lat="39.8739131" lon="-0.3758946"><ele>569.6</ele><time>2026-04-19T16:13:24Z</time></trkpt><trkpt lat="39.8739417" lon="-0.3759908"><ele>568.4000000000001</ele><time>2026-04-19T16:13:24.999Z</time></trkpt><trkpt lat="39.8739696" lon="-0.3761021"><ele>567.2</ele><time>2026-04-19T16:13:26Z</time></trkpt><trkpt lat="39.8739881" lon="-0.3761916"><ele>566.0</ele><time>2026-04-19T16:13:26.999Z</time></trkpt><trkpt lat="39.8740233" lon="-0.376348"><ele>563.8</ele><time>2026-04-19T16:13:28.999Z</time></trkpt><trkpt lat="39.8740504" lon="-0.3764303"><ele>561.6</ele><time>2026-04-19T16:13:29.999Z</time></trkpt><trkpt lat="39.8740835" lon="-0.3765261"><ele>559.4</ele><time>2026-04-19T16:13:30.999Z</time></trkpt><trkpt lat="39.874123" lon="-0.3765964"><ele>557.2</ele><time>2026-04-19T16:13:31.999Z</time></trkpt><trkpt lat="39.8741791" lon="-0.376717"><ele>555.0</ele><time>2026-04-19T16:13:33.999Z</time></trkpt><trkpt lat="39.8742412" lon="-0.3768715"><ele>559.6</ele><time>2026-04-19T16:13:37.07Z</time></trkpt><trkpt lat="39.8742764" lon="-0.3769784"><ele>564.2</ele><time>2026-04-19T16:13:37.999Z</time></trkpt><trkpt lat="39.8742981" lon="-0.3770656"><ele>568.8</ele><time>2026-04-19T16:13:39Z</time></trkpt><trkpt lat="39.874331" lon="-0.3772482"><ele>573.4</ele><time>2026-04-19T16:13:41Z</time></trkpt><trkpt lat="39.8743476" lon="-0.3773504"><ele>578.0</ele><time>2026-04-19T16:13:42Z</time></trkpt><trkpt lat="39.8743642" lon="-0.3774439"><ele>578.0</ele><time>2026-04-19T16:13:43Z</time></trkpt><trkpt lat="39.8743805" lon="-0.3775332"><ele>578.0</ele><time>2026-04-19T16:13:43.999Z</time></trkpt><trkpt lat="39.8743959" lon="-0.3776182"><ele>578.0</ele><time>2026-04-19T16:13:44.999Z</time></trkpt><trkpt lat="39.8744174" lon="-0.3776967"><ele>578.0</ele><time>2026-04-19T16:13:46Z</time></trkpt><trkpt lat="39.8744355" lon="-0.3777906"><ele>578.0</ele><time>2026-04-19T16:13:47Z</time></trkpt><trkpt lat="39.8744499" lon="-0.3778778"><ele>578.0</ele><time>2026-04-19T16:13:47.999Z</time></trkpt><trkpt lat="39.8744667" lon="-0.377966"><ele>578.0</ele><time>2026-04-19T16:13:48.999Z</time></trkpt><trkpt lat="39.8744771" lon="-0.3780825"><ele>574.7142857142858</ele><time>2026-04-19T16:13:49.999Z</time></trkpt><trkpt lat="39.8744834" lon="-0.3781963"><ele>571.4285714285714</ele><time>2026-04-19T16:13:50.999Z</time></trkpt><trkpt lat="39.874495" lon="-0.3782914"><ele>568.1428571428571</ele><time>2026-04-19T16:13:51.999Z</time></trkpt><trkpt lat="39.8745161" lon="-0.3783915"><ele>564.8571428571429</ele><time>2026-04-19T16:13:52.999Z</time></trkpt><trkpt lat="39.874538" lon="-0.3784804"><ele>561.5714285714286</ele><time>2026-04-19T16:13:53.999Z</time></trkpt><trkpt lat="39.8745653" lon="-0.378562"><ele>558.2857142857143</ele><time>2026-04-19T16:13:54.999Z</time></trkpt><trkpt lat="39.87459" lon="-0.3786387"><ele>555.0</ele><time>2026-04-19T16:13:55.999Z</time></trkpt><trkpt lat="39.8746363" lon="-0.3787763"><ele>555.0</ele><time>2026-04-19T16:13:57.999Z</time></trkpt><trkpt lat="39.8746743" lon="-0.378843"><ele>555.0</ele><time>2026-04-19T16:13:59.97Z</time></trkpt><trkpt lat="39.8747321" lon="-0.3789179"><ele>555.0</ele><time>2026-04-19T16:14:00.999Z</time></trkpt><trkpt lat="39.8747859" lon="-0.3789929"><ele>555.0</ele><time>2026-04-19T16:14:01.999Z</time></trkpt><trkpt lat="39.8748501" lon="-0.37907"><ele>555.0</ele><time>2026-04-19T16:14:03Z</time></trkpt><trkpt lat="39.8749136" lon="-0.379192"><ele>555.0</ele><time>2026-04-19T16:14:05Z</time></trkpt><trkpt lat="39.874951" lon="-0.3792708"><ele>552.8333333333334</ele><time>2026-04-19T16:14:05.999Z</time></trkpt><trkpt lat="39.8749775" lon="-0.3793626"><ele>550.6666666666666</ele><time>2026-04-19T16:14:07Z</time></trkpt><trkpt lat="39.8750137" lon="-0.3794698"><ele>548.5</ele><time>2026-04-19T16:14:07.999Z</time></trkpt><trkpt lat="39.8750342" lon="-0.3795774"><ele>546.3333333333333</ele><time>2026-04-19T16:14:09Z</time></trkpt><trkpt lat="39.8750532" lon="-0.3796919"><ele>544.1666666666666</ele><time>2026-04-19T16:14:09.999Z</time></trkpt><trkpt lat="39.8750764" lon="-0.3797898"><ele>542.0</ele><time>2026-04-19T16:14:11Z</time></trkpt><trkpt lat="39.8751027" lon="-0.3798897"><ele>546.3333333333333</ele><time>2026-04-19T16:14:12Z</time></trkpt><trkpt lat="39.8751335" lon="-0.380005"><ele>550.6666666666666</ele><time>2026-04-19T16:14:13Z</time></trkpt><trkpt lat="39.8751597" lon="-0.3801131"><ele>555.0</ele><time>2026-04-19T16:14:13.999Z</time></trkpt><trkpt lat="39.8751865" lon="-0.3802089"><ele>559.3333333333334</ele><time>2026-04-19T16:14:14.999Z</time></trkpt><trkpt lat="39.8752031" lon="-0.3802973"><ele>563.6666666666667</ele><time>2026-04-19T16:14:15.999Z</time></trkpt><trkpt lat="39.8751989" lon="-0.3804294"><ele>568.0</ele><time>2026-04-19T16:14:18Z</time></trkpt><trkpt lat="39.8751763" lon="-0.3805067"><ele>568.1666666666667</ele><time>2026-04-19T16:14:19Z</time></trkpt><trkpt lat="39.8751325" lon="-0.3806441"><ele>568.3333333333334</ele><time>2026-04-19T16:14:20.999Z</time></trkpt><trkpt lat="39.8750506" lon="-0.3807754"><ele>568.5</ele><time>2026-04-19T16:14:22.999Z</time></trkpt><trkpt lat="39.8750091" lon="-0.3808495"><ele>568.6666666666666</ele><time>2026-04-19T16:14:23.999Z</time></trkpt><trkpt lat="39.8749751" lon="-0.3809208"><ele>568.8333333333333</ele><time>2026-04-19T16:14:24.999Z</time></trkpt><trkpt lat="39.8749423" lon="-0.3809925"><ele>569.0</ele><time>2026-04-19T16:14:25.999Z</time></trkpt><trkpt lat="39.8748997" lon="-0.3810727"><ele>562.6</ele><time>2026-04-19T16:14:26.999Z</time></trkpt><trkpt lat="39.8748564" lon="-0.3811391"><ele>556.2</ele><time>2026-04-19T16:14:27.999Z</time></trkpt><trkpt lat="39.8747913" lon="-0.3812496"><ele>549.8000000000001</ele><time>2026-04-19T16:14:29.999Z</time></trkpt><trkpt lat="39.8747585" lon="-0.381359"><ele>543.4</ele><time>2026-04-19T16:14:31.999Z</time></trkpt><trkpt lat="39.874768" lon="-0.3814753"><ele>537.0</ele><time>2026-04-19T16:14:34Z</time></trkpt><trkpt lat="39.8747767" lon="-0.381608"><ele>536.8333333333334</ele><time>2026-04-19T16:14:35.999Z</time></trkpt><trkpt lat="39.8747339" lon="-0.3817671"><ele>536.6666666666666</ele><time>2026-04-19T16:14:37.999Z</time></trkpt><trkpt lat="39.8747081" lon="-0.3818595"><ele>536.5</ele><time>2026-04-19T16:14:38.999Z</time></trkpt><trkpt lat="39.8746785" lon="-0.3819484"><ele>536.3333333333333</ele><time>2026-04-19T16:14:40Z</time></trkpt><trkpt lat="39.8746556" lon="-0.3820291"><ele>536.1666666666666</ele><time>2026-04-19T16:14:40.999Z</time></trkpt><trkpt lat="39.8746255" lon="-0.3821108"><ele>536.0</ele><time>2026-04-19T16:14:41.999Z</time></trkpt><trkpt lat="39.8745799" lon="-0.3821975"><ele>537.1666666666666</ele><time>2026-04-19T16:14:42.999Z</time></trkpt><trkpt lat="39.8745374" lon="-0.3822709"><ele>538.3333333333333</ele><time>2026-04-19T16:14:44Z</time></trkpt><trkpt lat="39.8744965" lon="-0.3823533"><ele>539.5</ele><time>2026-04-19T16:14:44.999Z</time></trkpt><trkpt lat="39.8744535" lon="-0.3824519"><ele>540.6666666666666</ele><time>2026-04-19T16:14:45.999Z</time></trkpt><trkpt lat="39.8743821" lon="-0.3825637"><ele>541.8333333333334</ele><time>2026-04-19T16:14:46.999Z</time></trkpt><trkpt lat="39.8743253" lon="-0.3826649"><ele>543.0</ele><time>2026-04-19T16:14:47.999Z</time></trkpt><trkpt lat="39.8742712" lon="-0.3827705"><ele>539.1999999999999</ele><time>2026-04-19T16:14:48.999Z</time></trkpt><trkpt lat="39.8742179" lon="-0.3828581"><ele>535.4</ele><time>2026-04-19T16:14:49.999Z</time></trkpt><trkpt lat="39.8741652" lon="-0.3829362"><ele>531.5999999999999</ele><time>2026-04-19T16:14:50.999Z</time></trkpt><trkpt lat="39.8741132" lon="-0.3830082"><ele>527.8</ele><time>2026-04-19T16:14:51.999Z</time></trkpt><trkpt lat="39.8740111" lon="-0.383142"><ele>524.0</ele><time>2026-04-19T16:14:53.999Z</time></trkpt><trkpt lat="39.8739591" lon="-0.3832066"><ele>523.3333333333333</ele><time>2026-04-19T16:14:55Z</time></trkpt><trkpt lat="39.8739039" lon="-0.3832589"><ele>522.6666666666666</ele><time>2026-04-19T16:14:55.999Z</time></trkpt><trkpt lat="39.8737897" lon="-0.3833242"><ele>522.0</ele><time>2026-04-19T16:14:57.999Z</time></trkpt><trkpt lat="39.8737324" lon="-0.3833898"><ele>521.3333333333334</ele><time>2026-04-19T16:14:59Z</time></trkpt><trkpt lat="39.8736717" lon="-0.3834644"><ele>520.6666666666667</ele><time>2026-04-19T16:14:59.999Z</time></trkpt><trkpt lat="39.873623" lon="-0.3835355"><ele>520.0</ele><time>2026-04-19T16:15:00.999Z</time></trkpt><trkpt lat="39.8735796" lon="-0.3836072"><ele>520.0</ele><time>2026-04-19T16:15:01.999Z</time></trkpt><trkpt lat="39.8735406" lon="-0.3836717"><ele>520.0</ele><time>2026-04-19T16:15:02.999Z</time></trkpt><trkpt lat="39.8734926" lon="-0.3837327"><ele>520.0</ele><time>2026-04-19T16:15:03.999Z</time></trkpt><trkpt lat="39.8734339" lon="-0.3837913"><ele>520.0</ele><time>2026-04-19T16:15:04.999Z</time></trkpt><trkpt lat="39.8733797" lon="-0.3838367"><ele>520.0</ele><time>2026-04-19T16:15:05.999Z</time></trkpt><trkpt lat="39.8733266" lon="-0.383885"><ele>520.0</ele><time>2026-04-19T16:15:06.999Z</time></trkpt><trkpt lat="39.8732322" lon="-0.3839901"><ele>518.6666666666667</ele><time>2026-04-19T16:15:09Z</time></trkpt><trkpt lat="39.873164" lon="-0.3840253"><ele>517.3333333333334</ele><time>2026-04-19T16:15:09.999Z</time></trkpt><trkpt lat="39.8730995" lon="-0.3840481"><ele>516.0</ele><time>2026-04-19T16:15:11Z</time></trkpt><trkpt lat="39.8729907" lon="-0.384117"><ele>514.6666666666666</ele><time>2026-04-19T16:15:12.999Z</time></trkpt><trkpt lat="39.872944" lon="-0.3841734"><ele>513.3333333333333</ele><time>2026-04-19T16:15:13.999Z</time></trkpt><trkpt lat="39.8728808" lon="-0.3842111"><ele>512.0</ele><time>2026-04-19T16:15:14.999Z</time></trkpt><trkpt lat="39.8728067" lon="-0.3842348"><ele>511.99999999999994</ele><time>2026-04-19T16:15:15.999Z</time></trkpt><trkpt lat="39.8727335" lon="-0.3842538"><ele>512.0</ele><time>2026-04-19T16:15:16.999Z</time></trkpt><trkpt lat="39.8726676" lon="-0.3842797"><ele>512.0</ele><time>2026-04-19T16:15:17.999Z</time></trkpt><trkpt lat="39.8726025" lon="-0.3843133"><ele>512.0</ele><time>2026-04-19T16:15:18.999Z</time></trkpt><trkpt lat="39.872543" lon="-0.3843608"><ele>511.99999999999994</ele><time>2026-04-19T16:15:19.999Z</time></trkpt><trkpt lat="39.8724765" lon="-0.3844185"><ele>512.0</ele><time>2026-04-19T16:15:20.999Z</time></trkpt><trkpt lat="39.872406" lon="-0.3844937"><ele>512.6</ele><time>2026-04-19T16:15:21.999Z</time></trkpt><trkpt lat="39.872344" lon="-0.3845644"><ele>513.2</ele><time>2026-04-19T16:15:22.999Z</time></trkpt><trkpt lat="39.8722826" lon="-0.3846391"><ele>513.8</ele><time>2026-04-19T16:15:23.999Z</time></trkpt><trkpt lat="39.8721423" lon="-0.3847634"><ele>514.4</ele><time>2026-04-19T16:15:26Z</time></trkpt><trkpt lat="39.872061" lon="-0.3848303"><ele>515.0</ele><time>2026-04-19T16:15:27Z</time></trkpt><trkpt lat="39.8719796" lon="-0.3849034"><ele>515.4</ele><time>2026-04-19T16:15:27.999Z</time></trkpt><trkpt lat="39.8718966" lon="-0.3849689"><ele>515.8</ele><time>2026-04-19T16:15:28.999Z</time></trkpt><trkpt lat="39.8718073" lon="-0.3850276"><ele>516.2</ele><time>2026-04-19T16:15:29.999Z</time></trkpt><trkpt lat="39.8717266" lon="-0.3850828"><ele>516.6</ele><time>2026-04-19T16:15:30.999Z</time></trkpt><trkpt lat="39.8716551" lon="-0.3851329"><ele>517.0</ele><time>2026-04-19T16:15:31.999Z</time></trkpt><trkpt lat="39.8715798" lon="-0.3851998"><ele>514.8000000000001</ele><time>2026-04-19T16:15:32.999Z</time></trkpt><trkpt lat="39.871511" lon="-0.3852756"><ele>512.6</ele><time>2026-04-19T16:15:33.999Z</time></trkpt><trkpt lat="39.8714517" lon="-0.3853527"><ele>510.40000000000003</ele><time>2026-04-19T16:15:34.999Z</time></trkpt><trkpt lat="39.8713878" lon="-0.3854351"><ele>508.20000000000005</ele><time>2026-04-19T16:15:35.999Z</time></trkpt><trkpt lat="39.8712982" lon="-0.3855862"><ele>506.0</ele><time>2026-04-19T16:15:36.999Z</time></trkpt><trkpt lat="39.8712319" lon="-0.3856938"><ele>505.99999999999994</ele><time>2026-04-19T16:15:37.999Z</time></trkpt><trkpt lat="39.8711741" lon="-0.3857804"><ele>506.0</ele><time>2026-04-19T16:15:38.999Z</time></trkpt><trkpt lat="39.8711189" lon="-0.3858622"><ele>506.0</ele><time>2026-04-19T16:15:39.999Z</time></trkpt><trkpt lat="39.8710586" lon="-0.3859491"><ele>506.0</ele><time>2026-04-19T16:15:40.999Z</time></trkpt><trkpt lat="39.8710107" lon="-0.3860229"><ele>505.99999999999994</ele><time>2026-04-19T16:15:42Z</time></trkpt><trkpt lat="39.8709635" lon="-0.386095"><ele>506.0</ele><time>2026-04-19T16:15:42.999Z</time></trkpt><trkpt lat="39.8709208" lon="-0.3861624"><ele>502.8</ele><time>2026-04-19T16:15:43.999Z</time></trkpt><trkpt lat="39.8708476" lon="-0.3862944"><ele>499.6</ele><time>2026-04-19T16:15:45.999Z</time></trkpt><trkpt lat="39.8707825" lon="-0.3863787"><ele>496.4</ele><time>2026-04-19T16:15:47.999Z</time></trkpt><trkpt lat="39.8706954" lon="-0.3864459"><ele>493.2</ele><time>2026-04-19T16:15:49.999Z</time></trkpt><trkpt lat="39.8706263" lon="-0.3865438"><ele>490.0</ele><time>2026-04-19T16:15:51.999Z</time></trkpt><trkpt lat="39.8705758" lon="-0.3866288"><ele>489.8</ele><time>2026-04-19T16:15:53.999Z</time></trkpt><trkpt lat="39.8705544" lon="-0.3867461"><ele>489.6</ele><time>2026-04-19T16:15:56Z</time></trkpt><trkpt lat="39.8705384" lon="-0.386899"><ele>489.4</ele><time>2026-04-19T16:15:57.999Z</time></trkpt><trkpt lat="39.8705087" lon="-0.3869882"><ele>489.2</ele><time>2026-04-19T16:15:58.999Z</time></trkpt><trkpt lat="39.870414" lon="-0.3871182"><ele>489.0</ele><time>2026-04-19T16:16:00.999Z</time></trkpt><trkpt lat="39.8703492" lon="-0.3871909"><ele>487.6666666666667</ele><time>2026-04-19T16:16:01.999Z</time></trkpt><trkpt lat="39.8702895" lon="-0.3872498"><ele>486.33333333333337</ele><time>2026-04-19T16:16:02.999Z</time></trkpt><trkpt lat="39.8702344" lon="-0.3873007"><ele>485.0</ele><time>2026-04-19T16:16:04Z</time></trkpt><trkpt lat="39.8701283" lon="-0.3873811"><ele>483.6666666666667</ele><time>2026-04-19T16:16:05.999Z</time></trkpt><trkpt lat="39.8700634" lon="-0.3873994"><ele>482.33333333333337</ele><time>2026-04-19T16:16:06.999Z</time></trkpt><trkpt lat="39.8700012" lon="-0.3874158"><ele>481.0</ele><time>2026-04-19T16:16:07.999Z</time></trkpt><trkpt lat="39.8698764" lon="-0.3874518"><ele>481.00000000000006</ele><time>2026-04-19T16:16:09.999Z</time></trkpt><trkpt lat="39.8698095" lon="-0.3874732"><ele>481.0</ele><time>2026-04-19T16:16:10.999Z</time></trkpt><trkpt lat="39.8697399" lon="-0.3874946"><ele>481.0</ele><time>2026-04-19T16:16:11.999Z</time></trkpt><trkpt lat="39.8696615" lon="-0.3875207"><ele>481.0</ele><time>2026-04-19T16:16:13Z</time></trkpt><trkpt lat="39.8695925" lon="-0.3875503"><ele>481.00000000000006</ele><time>2026-04-19T16:16:13.999Z</time></trkpt><trkpt lat="39.869515" lon="-0.3875898"><ele>481.0</ele><time>2026-04-19T16:16:14.999Z</time></trkpt><trkpt lat="39.869438" lon="-0.3876552"><ele>481.0</ele><time>2026-04-19T16:16:15.999Z</time></trkpt><trkpt lat="39.869345" lon="-0.3877231"><ele>481.0</ele><time>2026-04-19T16:16:16.999Z</time></trkpt><trkpt lat="39.8692708" lon="-0.3877731"><ele>481.0</ele><time>2026-04-19T16:16:18Z</time></trkpt><trkpt lat="39.8691943" lon="-0.3878223"><ele>481.0</ele><time>2026-04-19T16:16:19Z</time></trkpt><trkpt lat="39.8691058" lon="-0.3878581"><ele>481.0</ele><time>2026-04-19T16:16:19.999Z</time></trkpt><trkpt lat="39.8690247" lon="-0.3878815"><ele>480.33333333333337</ele><time>2026-04-19T16:16:20.999Z</time></trkpt><trkpt lat="39.8689595" lon="-0.3879052"><ele>479.6666666666667</ele><time>2026-04-19T16:16:21.999Z</time></trkpt><trkpt lat="39.8688556" lon="-0.3879584"><ele>479.0</ele><time>2026-04-19T16:16:23.999Z</time></trkpt><trkpt lat="39.8687696" lon="-0.3880548"><ele>478.33333333333337</ele><time>2026-04-19T16:16:25.999Z</time></trkpt><trkpt lat="39.8687323" lon="-0.388139"><ele>477.6666666666667</ele><time>2026-04-19T16:16:26.999Z</time></trkpt><trkpt lat="39.8686889" lon="-0.3882209"><ele>477.0</ele><time>2026-04-19T16:16:27.999Z</time></trkpt><trkpt lat="39.8686396" lon="-0.3882867"><ele>477.0</ele><time>2026-04-19T16:16:28.999Z</time></trkpt><trkpt lat="39.868588" lon="-0.3883406"><ele>477.0</ele><time>2026-04-19T16:16:29.999Z</time></trkpt><trkpt lat="39.8685134" lon="-0.3884609"><ele>477.0</ele><time>2026-04-19T16:16:32Z</time></trkpt><trkpt lat="39.8684729" lon="-0.3885585"><ele>477.0</ele><time>2026-04-19T16:16:32.999Z</time></trkpt><trkpt lat="39.8684488" lon="-0.3886461"><ele>477.0</ele><time>2026-04-19T16:16:33.999Z</time></trkpt><trkpt lat="39.8684249" lon="-0.3887392"><ele>477.0</ele><time>2026-04-19T16:16:34.999Z</time></trkpt><trkpt lat="39.8684014" lon="-0.3888206"><ele>474.8333333333333</ele><time>2026-04-19T16:16:36Z</time></trkpt><trkpt lat="39.8683399" lon="-0.388958"><ele>472.66666666666663</ele><time>2026-04-19T16:16:38Z</time></trkpt><trkpt lat="39.8682941" lon="-0.3890225"><ele>470.5</ele><time>2026-04-19T16:16:39Z</time></trkpt><trkpt lat="39.8682383" lon="-0.3890855"><ele>468.3333333333333</ele><time>2026-04-19T16:16:40Z</time></trkpt><trkpt lat="39.8681906" lon="-0.3891503"><ele>466.16666666666663</ele><time>2026-04-19T16:16:40.999Z</time></trkpt><trkpt lat="39.8681402" lon="-0.3892382"><ele>464.0</ele><time>2026-04-19T16:16:42Z</time></trkpt><trkpt lat="39.8680883" lon="-0.3893201"><ele>464.0</ele><time>2026-04-19T16:16:42.999Z</time></trkpt><trkpt lat="39.8680321" lon="-0.3893984"><ele>464.0</ele><time>2026-04-19T16:16:43.999Z</time></trkpt><trkpt lat="39.8679817" lon="-0.389464"><ele>464.0</ele><time>2026-04-19T16:16:44.999Z</time></trkpt><trkpt lat="39.867912" lon="-0.3895669"><ele>464.0</ele><time>2026-04-19T16:16:46.999Z</time></trkpt><trkpt lat="39.8678665" lon="-0.3896897"><ele>464.0</ele><time>2026-04-19T16:16:48.999Z</time></trkpt><trkpt lat="39.86778" lon="-0.3898189"><ele>464.6</ele><time>2026-04-19T16:16:51Z</time></trkpt><trkpt lat="39.8676963" lon="-0.3899024"><ele>465.2</ele><time>2026-04-19T16:16:51.999Z</time></trkpt><trkpt lat="39.8676169" lon="-0.3899801"><ele>465.80000000000007</ele><time>2026-04-19T16:16:52.999Z</time></trkpt><trkpt lat="39.867544" lon="-0.3900603"><ele>466.40000000000003</ele><time>2026-04-19T16:16:53.999Z</time></trkpt><trkpt lat="39.86747" lon="-0.3901342"><ele>467.0</ele><time>2026-04-19T16:16:54.999Z</time></trkpt><trkpt lat="39.8674061" lon="-0.390196"><ele>465.8333333333333</ele><time>2026-04-19T16:16:55.999Z</time></trkpt><trkpt lat="39.8673412" lon="-0.390253"><ele>464.66666666666663</ele><time>2026-04-19T16:16:57Z</time></trkpt><trkpt lat="39.867279" lon="-0.3903048"><ele>463.5</ele><time>2026-04-19T16:16:58Z</time></trkpt><trkpt lat="39.8672066" lon="-0.3903574"><ele>462.33333333333337</ele><time>2026-04-19T16:16:58.999Z</time></trkpt><trkpt lat="39.8671398" lon="-0.3903952"><ele>461.1666666666667</ele><time>2026-04-19T16:16:59.999Z</time></trkpt><trkpt lat="39.8670608" lon="-0.3904449"><ele>460.0</ele><time>2026-04-19T16:17:00.999Z</time></trkpt><trkpt lat="39.8669821" lon="-0.3904877"><ele>460.6666666666667</ele><time>2026-04-19T16:17:02Z</time></trkpt><trkpt lat="39.8669117" lon="-0.3905197"><ele>461.33333333333337</ele><time>2026-04-19T16:17:02.999Z</time></trkpt><trkpt lat="39.866852" lon="-0.3905535"><ele>462.0</ele><time>2026-04-19T16:17:04Z</time></trkpt><trkpt lat="39.8667819" lon="-0.3906105"><ele>462.66666666666663</ele><time>2026-04-19T16:17:05Z</time></trkpt><trkpt lat="39.8666892" lon="-0.3906971"><ele>463.3333333333333</ele><time>2026-04-19T16:17:05.999Z</time></trkpt><trkpt lat="39.8666134" lon="-0.3907791"><ele>464.0</ele><time>2026-04-19T16:17:06.999Z</time></trkpt><trkpt lat="39.866542" lon="-0.3908732"><ele>462.4</ele><time>2026-04-19T16:17:07.999Z</time></trkpt><trkpt lat="39.8664762" lon="-0.3909586"><ele>460.79999999999995</ele><time>2026-04-19T16:17:09Z</time></trkpt><trkpt lat="39.8664075" lon="-0.3910466"><ele>459.20000000000005</ele><time>2026-04-19T16:17:09.999Z</time></trkpt><trkpt lat="39.8663424" lon="-0.391143"><ele>457.6</ele><time>2026-04-19T16:17:10.999Z</time></trkpt><trkpt lat="39.8662858" lon="-0.3912303"><ele>456.0</ele><time>2026-04-19T16:17:11.999Z</time></trkpt><trkpt lat="39.8662357" lon="-0.3913087"><ele>456.3333333333333</ele><time>2026-04-19T16:17:13Z</time></trkpt><trkpt lat="39.8661892" lon="-0.3913849"><ele>456.66666666666663</ele><time>2026-04-19T16:17:13.999Z</time></trkpt><trkpt lat="39.8661399" lon="-0.3914654"><ele>457.0</ele><time>2026-04-19T16:17:15Z</time></trkpt><trkpt lat="39.8660877" lon="-0.3915421"><ele>457.3333333333333</ele><time>2026-04-19T16:17:15.999Z</time></trkpt><trkpt lat="39.8660294" lon="-0.3916217"><ele>457.66666666666663</ele><time>2026-04-19T16:17:16.999Z</time></trkpt><trkpt lat="39.8659654" lon="-0.3917049"><ele>458.0</ele><time>2026-04-19T16:17:17.999Z</time></trkpt><trkpt lat="39.8658991" lon="-0.3917882"><ele>457.99999999999994</ele><time>2026-04-19T16:17:18.999Z</time></trkpt><trkpt lat="39.8658341" lon="-0.3918684"><ele>458.0</ele><time>2026-04-19T16:17:19.999Z</time></trkpt><trkpt lat="39.8657644" lon="-0.391952"><ele>458.0</ele><time>2026-04-19T16:17:20.999Z</time></trkpt><trkpt lat="39.8657022" lon="-0.3920251"><ele>458.0</ele><time>2026-04-19T16:17:21.999Z</time></trkpt><trkpt lat="39.8656346" lon="-0.3920847"><ele>457.99999999999994</ele><time>2026-04-19T16:17:22.999Z</time></trkpt><trkpt lat="39.8655604" lon="-0.3921497"><ele>458.0</ele><time>2026-04-19T16:17:23.999Z</time></trkpt><trkpt lat="39.8654768" lon="-0.392205"><ele>456.66666666666663</ele><time>2026-04-19T16:17:24.999Z</time></trkpt><trkpt lat="39.865401" lon="-0.3922518"><ele>455.3333333333333</ele><time>2026-04-19T16:17:25.999Z</time></trkpt><trkpt lat="39.8653211" lon="-0.3922905"><ele>454.0</ele><time>2026-04-19T16:17:27Z</time></trkpt><trkpt lat="39.8652352" lon="-0.3923241"><ele>452.66666666666663</ele><time>2026-04-19T16:17:28Z</time></trkpt><trkpt lat="39.8651526" lon="-0.3923525"><ele>451.3333333333333</ele><time>2026-04-19T16:17:28.999Z</time></trkpt><trkpt lat="39.8650704" lon="-0.3923887"><ele>450.0</ele><time>2026-04-19T16:17:29.999Z</time></trkpt><trkpt lat="39.8649834" lon="-0.3924302"><ele>450.0</ele><time>2026-04-19T16:17:30.999Z</time></trkpt><trkpt lat="39.864889" lon="-0.3924642"><ele>450.0</ele><time>2026-04-19T16:17:31.999Z</time></trkpt><trkpt lat="39.8647967" lon="-0.392503"><ele>450.0</ele><time>2026-04-19T16:17:32.999Z</time></trkpt><trkpt lat="39.8647143" lon="-0.3925376"><ele>450.0</ele><time>2026-04-19T16:17:33.999Z</time></trkpt><trkpt lat="39.8646322" lon="-0.3925687"><ele>450.0</ele><time>2026-04-19T16:17:34.999Z</time></trkpt><trkpt lat="39.8645577" lon="-0.3926092"><ele>450.0</ele><time>2026-04-19T16:17:35.999Z</time></trkpt><trkpt lat="39.864486" lon="-0.3926461"><ele>450.0</ele><time>2026-04-19T16:17:37Z</time></trkpt><trkpt lat="39.8644196" lon="-0.3926783"><ele>450.0</ele><time>2026-04-19T16:17:37.999Z</time></trkpt><trkpt lat="39.8643534" lon="-0.3927072"><ele>450.0</ele><time>2026-04-19T16:17:38.999Z</time></trkpt><trkpt lat="39.8642726" lon="-0.392737"><ele>450.0</ele><time>2026-04-19T16:17:39.999Z</time></trkpt><trkpt lat="39.8641938" lon="-0.3927679"><ele>450.0</ele><time>2026-04-19T16:17:40.999Z</time></trkpt><trkpt lat="39.8641139" lon="-0.3927906"><ele>450.0</ele><time>2026-04-19T16:17:42Z</time></trkpt><trkpt lat="39.8640273" lon="-0.3928057"><ele>450.6666666666667</ele><time>2026-04-19T16:17:42.999Z</time></trkpt><trkpt lat="39.863951" lon="-0.3928005"><ele>451.33333333333337</ele><time>2026-04-19T16:17:44Z</time></trkpt><trkpt lat="39.8638729" lon="-0.3927798"><ele>452.0</ele><time>2026-04-19T16:17:44.999Z</time></trkpt><trkpt lat="39.8637933" lon="-0.3927377"><ele>452.6666666666667</ele><time>2026-04-19T16:17:45.999Z</time></trkpt><trkpt lat="39.8637204" lon="-0.392699"><ele>453.33333333333337</ele><time>2026-04-19T16:17:47Z</time></trkpt><trkpt lat="39.8636594" lon="-0.3926588"><ele>454.0</ele><time>2026-04-19T16:17:48Z</time></trkpt><trkpt lat="39.8635994" lon="-0.3926168"><ele>454.0</ele><time>2026-04-19T16:17:48.999Z</time></trkpt><trkpt lat="39.8634973" lon="-0.392514"><ele>454.0</ele><time>2026-04-19T16:17:50.999Z</time></trkpt><trkpt lat="39.8634109" lon="-0.3924001"><ele>454.0</ele><time>2026-04-19T16:17:52.999Z</time></trkpt><trkpt lat="39.863366" lon="-0.392339"><ele>454.0</ele><time>2026-04-19T16:17:53.999Z</time></trkpt><trkpt lat="39.8632867" lon="-0.39222"><ele>454.0</ele><time>2026-04-19T16:17:55.999Z</time></trkpt><trkpt lat="39.8631796" lon="-0.3921436"><ele>455.00000000000006</ele><time>2026-04-19T16:17:58Z</time></trkpt><trkpt lat="39.8630587" lon="-0.3921364"><ele>456.0</ele><time>2026-04-19T16:17:59.999Z</time></trkpt><trkpt lat="39.8629872" lon="-0.3921461"><ele>457.0</ele><time>2026-04-19T16:18:00.999Z</time></trkpt><trkpt lat="39.8629129" lon="-0.3921565"><ele>458.0</ele><time>2026-04-19T16:18:02Z</time></trkpt><trkpt lat="39.8628291" lon="-0.3921619"><ele>459.00000000000006</ele><time>2026-04-19T16:18:03Z</time></trkpt><trkpt lat="39.8627415" lon="-0.3921794"><ele>460.0</ele><time>2026-04-19T16:18:03.999Z</time></trkpt><trkpt lat="39.8626507" lon="-0.392203"><ele>456.1666666666667</ele><time>2026-04-19T16:18:04.999Z</time></trkpt><trkpt lat="39.8625646" lon="-0.3922367"><ele>452.33333333333337</ele><time>2026-04-19T16:18:05.999Z</time></trkpt><trkpt lat="39.8624872" lon="-0.3922724"><ele>448.5</ele><time>2026-04-19T16:18:07Z</time></trkpt><trkpt lat="39.8624151" lon="-0.3923112"><ele>444.66666666666663</ele><time>2026-04-19T16:18:08Z</time></trkpt><trkpt lat="39.8623467" lon="-0.3923484"><ele>440.8333333333333</ele><time>2026-04-19T16:18:08.999Z</time></trkpt><trkpt lat="39.8622856" lon="-0.3923928"><ele>437.0</ele><time>2026-04-19T16:18:10Z</time></trkpt><trkpt lat="39.8622134" lon="-0.3924516"><ele>436.99999999999994</ele><time>2026-04-19T16:18:10.999Z</time></trkpt><trkpt lat="39.8621522" lon="-0.3925161"><ele>437.0</ele><time>2026-04-19T16:18:11.999Z</time></trkpt><trkpt lat="39.8620925" lon="-0.3925815"><ele>437.0</ele><time>2026-04-19T16:18:12.999Z</time></trkpt><trkpt lat="39.8620284" lon="-0.3926618"><ele>437.0</ele><time>2026-04-19T16:18:13.999Z</time></trkpt><trkpt lat="39.861975" lon="-0.3927586"><ele>436.99999999999994</ele><time>2026-04-19T16:18:14.999Z</time></trkpt><trkpt lat="39.861924" lon="-0.3928686"><ele>437.0</ele><time>2026-04-19T16:18:15.999Z</time></trkpt><trkpt lat="39.8618786" lon="-0.3929773"><ele>436.3333333333333</ele><time>2026-04-19T16:18:16.999Z</time></trkpt><trkpt lat="39.8618428" lon="-0.3930833"><ele>435.66666666666663</ele><time>2026-04-19T16:18:17.999Z</time></trkpt><trkpt lat="39.861806" lon="-0.3931891"><ele>435.0</ele><time>2026-04-19T16:18:18.999Z</time></trkpt><trkpt lat="39.8617608" lon="-0.3932964"><ele>434.33333333333337</ele><time>2026-04-19T16:18:19.999Z</time></trkpt><trkpt lat="39.8617212" lon="-0.3933932"><ele>433.6666666666667</ele><time>2026-04-19T16:18:20.999Z</time></trkpt><trkpt lat="39.861676" lon="-0.3934761"><ele>433.0</ele><time>2026-04-19T16:18:21.999Z</time></trkpt><trkpt lat="39.8616277" lon="-0.3935519"><ele>433.0</ele><time>2026-04-19T16:18:23Z</time></trkpt><trkpt lat="39.8615267" lon="-0.3936639"><ele>432.99999999999994</ele><time>2026-04-19T16:18:24.999Z</time></trkpt><trkpt lat="39.8614674" lon="-0.393708"><ele>432.99999999999994</ele><time>2026-04-19T16:18:25.999Z</time></trkpt><trkpt lat="39.8614042" lon="-0.3937515"><ele>433.0</ele><time>2026-04-19T16:18:26.999Z</time></trkpt><trkpt lat="39.8613089" lon="-0.3938464"><ele>433.0</ele><time>2026-04-19T16:18:28.999Z</time></trkpt><trkpt lat="39.861265" lon="-0.3939239"><ele>433.83333333333337</ele><time>2026-04-19T16:18:29.999Z</time></trkpt><trkpt lat="39.8612182" lon="-0.3940023"><ele>434.6666666666667</ele><time>2026-04-19T16:18:31Z</time></trkpt><trkpt lat="39.8611602" lon="-0.3940785"><ele>435.5</ele><time>2026-04-19T16:18:31.999Z</time></trkpt><trkpt lat="39.8610819" lon="-0.3941657"><ele>436.33333333333337</ele><time>2026-04-19T16:18:32.999Z</time></trkpt><trkpt lat="39.861015" lon="-0.3942438"><ele>437.1666666666667</ele><time>2026-04-19T16:18:34Z</time></trkpt><trkpt lat="39.860956" lon="-0.3943188"><ele>438.0</ele><time>2026-04-19T16:18:34.999Z</time></trkpt><trkpt lat="39.8609052" lon="-0.3943864"><ele>436.0</ele><time>2026-04-19T16:18:35.999Z</time></trkpt><trkpt lat="39.8608608" lon="-0.3944456"><ele>433.99999999999994</ele><time>2026-04-19T16:18:36.999Z</time></trkpt><trkpt lat="39.8607686" lon="-0.394564"><ele>431.99999999999994</ele><time>2026-04-19T16:18:38.999Z</time></trkpt><trkpt lat="39.8606818" lon="-0.394682"><ele>430.0</ele><time>2026-04-19T16:18:41Z</time></trkpt><trkpt lat="39.8606128" lon="-0.3947351"><ele>428.0</ele><time>2026-04-19T16:18:42Z</time></trkpt><trkpt lat="39.8605473" lon="-0.3947632"><ele>426.99999999999994</ele><time>2026-04-19T16:18:42.999Z</time></trkpt><trkpt lat="39.8604775" lon="-0.3947769"><ele>426.0</ele><time>2026-04-19T16:18:44Z</time></trkpt><trkpt lat="39.860411" lon="-0.3947799"><ele>425.0</ele><time>2026-04-19T16:18:44.999Z</time></trkpt><trkpt lat="39.860343" lon="-0.3947843"><ele>424.0</ele><time>2026-04-19T16:18:45.999Z</time></trkpt><trkpt lat="39.8602132" lon="-0.3947598"><ele>422.99999999999994</ele><time>2026-04-19T16:18:48Z</time></trkpt><trkpt lat="39.8601371" lon="-0.3947166"><ele>422.0</ele><time>2026-04-19T16:18:48.999Z</time></trkpt><trkpt lat="39.8600588" lon="-0.3946723"><ele>420.66666666666663</ele><time>2026-04-19T16:18:49.999Z</time></trkpt><trkpt lat="39.8599825" lon="-0.3946362"><ele>419.3333333333333</ele><time>2026-04-19T16:18:50.999Z</time></trkpt><trkpt lat="39.8599054" lon="-0.3945964"><ele>418.0</ele><time>2026-04-19T16:18:51.999Z</time></trkpt><trkpt lat="39.8598437" lon="-0.3945521"><ele>416.66666666666663</ele><time>2026-04-19T16:18:52.999Z</time></trkpt><trkpt lat="39.8597556" lon="-0.3945001"><ele>415.3333333333333</ele><time>2026-04-19T16:18:54.999Z</time></trkpt><trkpt lat="39.8596472" lon="-0.3944997"><ele>414.0</ele><time>2026-04-19T16:18:56.999Z</time></trkpt><trkpt lat="39.8595808" lon="-0.3945256"><ele>414.0</ele><time>2026-04-19T16:18:57.999Z</time></trkpt><trkpt lat="39.8594884" lon="-0.3945817"><ele>414.0</ele><time>2026-04-19T16:19:00.47Z</time></trkpt><trkpt lat="39.8594027" lon="-0.3946338"><ele>414.0</ele><time>2026-04-19T16:19:01.999Z</time></trkpt><trkpt lat="39.8593203" lon="-0.3946641"><ele>414.0</ele><time>2026-04-19T16:19:03.999Z</time></trkpt><trkpt lat="39.859228" lon="-0.3946181"><ele>414.0</ele><time>2026-04-19T16:19:05.999Z</time></trkpt><trkpt lat="39.8591757" lon="-0.3944756"><ele>410.6666666666667</ele><time>2026-04-19T16:19:07.999Z</time></trkpt><trkpt lat="39.8591653" lon="-0.3943808"><ele>407.33333333333337</ele><time>2026-04-19T16:19:08.999Z</time></trkpt><trkpt lat="39.8591584" lon="-0.3942754"><ele>404.0</ele><time>2026-04-19T16:19:09.999Z</time></trkpt><trkpt lat="39.8591477" lon="-0.3941647"><ele>400.6666666666667</ele><time>2026-04-19T16:19:10.999Z</time></trkpt><trkpt lat="39.859133" lon="-0.3940495"><ele>397.33333333333337</ele><time>2026-04-19T16:19:11.999Z</time></trkpt><trkpt lat="39.8591128" lon="-0.3939482"><ele>394.0</ele><time>2026-04-19T16:19:13Z</time></trkpt><trkpt lat="39.8590884" lon="-0.3938547"><ele>396.4</ele><time>2026-04-19T16:19:13.999Z</time></trkpt><trkpt lat="39.8590595" lon="-0.3937618"><ele>398.79999999999995</ele><time>2026-04-19T16:19:15Z</time></trkpt><trkpt lat="39.859007" lon="-0.3936744"><ele>401.20000000000005</ele><time>2026-04-19T16:19:15.999Z</time></trkpt><trkpt lat="39.8589325" lon="-0.3935946"><ele>403.6</ele><time>2026-04-19T16:19:17Z</time></trkpt><trkpt lat="39.8588512" lon="-0.3935265"><ele>406.0</ele><time>2026-04-19T16:19:18Z</time></trkpt><trkpt lat="39.8587574" lon="-0.3934578"><ele>406.0</ele><time>2026-04-19T16:19:18.999Z</time></trkpt><trkpt lat="39.8586712" lon="-0.3933926"><ele>406.0</ele><time>2026-04-19T16:19:19.999Z</time></trkpt><trkpt lat="39.8585831" lon="-0.3933245"><ele>406.0</ele><time>2026-04-19T16:19:20.999Z</time></trkpt><trkpt lat="39.8584917" lon="-0.3932503"><ele>406.0</ele><time>2026-04-19T16:19:22Z</time></trkpt><trkpt lat="39.8583984" lon="-0.3931708"><ele>406.0</ele><time>2026-04-19T16:19:23Z</time></trkpt><trkpt lat="39.8583026" lon="-0.3930921"><ele>405.25</ele><time>2026-04-19T16:19:23.999Z</time></trkpt><trkpt lat="39.8581303" lon="-0.3929619"><ele>404.5</ele><time>2026-04-19T16:19:26Z</time></trkpt><trkpt lat="39.8580492" lon="-0.392914"><ele>403.75</ele><time>2026-04-19T16:19:26.999Z</time></trkpt><trkpt lat="39.8579588" lon="-0.3928742"><ele>403.0</ele><time>2026-04-19T16:19:27.999Z</time></trkpt><trkpt lat="39.8578662" lon="-0.3928559"><ele>403.0</ele><time>2026-04-19T16:19:28.999Z</time></trkpt><trkpt lat="39.8576673" lon="-0.392834"><ele>403.0</ele><time>2026-04-19T16:19:31Z</time></trkpt><trkpt lat="39.8575591" lon="-0.3928052"><ele>403.0</ele><time>2026-04-19T16:19:31.999Z</time></trkpt><trkpt lat="39.8574453" lon="-0.3927613"><ele>403.0</ele><time>2026-04-19T16:19:32.999Z</time></trkpt><trkpt lat="39.8573379" lon="-0.3927144"><ele>399.2</ele><time>2026-04-19T16:19:33.999Z</time></trkpt><trkpt lat="39.8572391" lon="-0.3926705"><ele>395.4</ele><time>2026-04-19T16:19:34.999Z</time></trkpt><trkpt lat="39.8571448" lon="-0.3926132"><ele>391.59999999999997</ele><time>2026-04-19T16:19:35.999Z</time></trkpt><trkpt lat="39.8570552" lon="-0.3925315"><ele>387.79999999999995</ele><time>2026-04-19T16:19:37Z</time></trkpt><trkpt lat="39.8569867" lon="-0.3924461"><ele>384.0</ele><time>2026-04-19T16:19:37.999Z</time></trkpt><trkpt lat="39.8569254" lon="-0.3923583"><ele>384.0</ele><time>2026-04-19T16:19:38.999Z</time></trkpt><trkpt lat="39.8568709" lon="-0.3922618"><ele>384.0</ele><time>2026-04-19T16:19:39.999Z</time></trkpt><trkpt lat="39.8568145" lon="-0.3921536"><ele>384.0</ele><time>2026-04-19T16:19:40.999Z</time></trkpt><trkpt lat="39.8567593" lon="-0.3920376"><ele>384.0</ele><time>2026-04-19T16:19:41.999Z</time></trkpt><trkpt lat="39.8567168" lon="-0.391914"><ele>384.0</ele><time>2026-04-19T16:19:42.999Z</time></trkpt><trkpt lat="39.8566854" lon="-0.3918013"><ele>382.6</ele><time>2026-04-19T16:19:44Z</time></trkpt><trkpt lat="39.8566557" lon="-0.3916847"><ele>381.2</ele><time>2026-04-19T16:19:45Z</time></trkpt><trkpt lat="39.8566227" lon="-0.3915733"><ele>379.8</ele><time>2026-04-19T16:19:45.999Z</time></trkpt><trkpt lat="39.8565772" lon="-0.3914489"><ele>378.40000000000003</ele><time>2026-04-19T16:19:46.999Z</time></trkpt><trkpt lat="39.8565249" lon="-0.3913254"><ele>377.0</ele><time>2026-04-19T16:19:48Z</time></trkpt><trkpt lat="39.8564729" lon="-0.3912083"><ele>377.0</ele><time>2026-04-19T16:19:48.999Z</time></trkpt><trkpt lat="39.8564227" lon="-0.3911017"><ele>377.0</ele><time>2026-04-19T16:19:50Z</time></trkpt><trkpt lat="39.8563798" lon="-0.390997"><ele>377.0</ele><time>2026-04-19T16:19:50.999Z</time></trkpt><trkpt lat="39.8563331" lon="-0.3908915"><ele>377.0</ele><time>2026-04-19T16:19:51.999Z</time></trkpt><trkpt lat="39.8562864" lon="-0.3907813"><ele>377.0</ele><time>2026-04-19T16:19:52.999Z</time></trkpt><trkpt lat="39.8562319" lon="-0.3906737"><ele>377.0</ele><time>2026-04-19T16:19:53.999Z</time></trkpt><trkpt lat="39.8561781" lon="-0.3905604"><ele>377.0</ele><time>2026-04-19T16:19:54.999Z</time></trkpt><trkpt lat="39.8561242" lon="-0.390453"><ele>377.0</ele><time>2026-04-19T16:19:55.999Z</time></trkpt><trkpt lat="39.8560623" lon="-0.3903598"><ele>377.0</ele><time>2026-04-19T16:19:56.999Z</time></trkpt><trkpt lat="39.8559982" lon="-0.3902841"><ele>377.0</ele><time>2026-04-19T16:19:57.999Z</time></trkpt><trkpt lat="39.8559263" lon="-0.3902177"><ele>374.8</ele><time>2026-04-19T16:19:58.999Z</time></trkpt><trkpt lat="39.8558409" lon="-0.3901664"><ele>372.6</ele><time>2026-04-19T16:19:59.999Z</time></trkpt><trkpt lat="39.8557443" lon="-0.3901175"><ele>370.40000000000003</ele><time>2026-04-19T16:20:00.999Z</time></trkpt><trkpt lat="39.8556415" lon="-0.3900703"><ele>368.20000000000005</ele><time>2026-04-19T16:20:01.999Z</time></trkpt><trkpt lat="39.8555379" lon="-0.3900143"><ele>366.0</ele><time>2026-04-19T16:20:02.999Z</time></trkpt><trkpt lat="39.8554345" lon="-0.3899548"><ele>366.0</ele><time>2026-04-19T16:20:03.999Z</time></trkpt><trkpt lat="39.8553271" lon="-0.3898787"><ele>366.0</ele><time>2026-04-19T16:20:04.999Z</time></trkpt><trkpt lat="39.8552223" lon="-0.389794"><ele>366.0</ele><time>2026-04-19T16:20:06Z</time></trkpt><trkpt lat="39.8551261" lon="-0.3897052"><ele>366.0</ele><time>2026-04-19T16:20:06.999Z</time></trkpt><trkpt lat="39.8550394" lon="-0.3896165"><ele>365.0</ele><time>2026-04-19T16:20:07.999Z</time></trkpt><trkpt lat="39.8549556" lon="-0.3895342"><ele>364.0</ele><time>2026-04-19T16:20:08.999Z</time></trkpt><trkpt lat="39.8548718" lon="-0.389454"><ele>363.0</ele><time>2026-04-19T16:20:09.999Z</time></trkpt><trkpt lat="39.8547401" lon="-0.3893354"><ele>362.0</ele><time>2026-04-19T16:20:11.964Z</time></trkpt><trkpt lat="39.8546131" lon="-0.3892223"><ele>362.0</ele><time>2026-04-19T16:20:12.999Z</time></trkpt><trkpt lat="39.8545395" lon="-0.3891596"><ele>362.0</ele><time>2026-04-19T16:20:13.999Z</time></trkpt><trkpt lat="39.8544621" lon="-0.3890979"><ele>362.0</ele><time>2026-04-19T16:20:15Z</time></trkpt><trkpt lat="39.8543771" lon="-0.3890296"><ele>362.0</ele><time>2026-04-19T16:20:15.999Z</time></trkpt><trkpt lat="39.8542917" lon="-0.3889547"><ele>362.0</ele><time>2026-04-19T16:20:16.999Z</time></trkpt><trkpt lat="39.8541925" lon="-0.3888892"><ele>360.75</ele><time>2026-04-19T16:20:17.999Z</time></trkpt><trkpt lat="39.854095" lon="-0.3888147"><ele>359.5</ele><time>2026-04-19T16:20:18.999Z</time></trkpt><trkpt lat="39.8539859" lon="-0.3887332"><ele>358.25</ele><time>2026-04-19T16:20:20Z</time></trkpt><trkpt lat="39.8538783" lon="-0.3886433"><ele>357.0</ele><time>2026-04-19T16:20:20.999Z</time></trkpt><trkpt lat="39.8537672" lon="-0.3885555"><ele>357.0</ele><time>2026-04-19T16:20:21.999Z</time></trkpt><trkpt lat="39.853654" lon="-0.3884798"><ele>357.0</ele><time>2026-04-19T16:20:22.999Z</time></trkpt><trkpt lat="39.8535435" lon="-0.3884147"><ele>357.0</ele><time>2026-04-19T16:20:23.999Z</time></trkpt><trkpt lat="39.8534334" lon="-0.3883577"><ele>357.0</ele><time>2026-04-19T16:20:25Z</time></trkpt><trkpt lat="39.8533315" lon="-0.3883144"><ele>357.5</ele><time>2026-04-19T16:20:25.999Z</time></trkpt><trkpt lat="39.853224" lon="-0.3882775"><ele>358.0</ele><time>2026-04-19T16:20:26.999Z</time></trkpt><trkpt lat="39.8531095" lon="-0.3882485"><ele>358.5</ele><time>2026-04-19T16:20:27.999Z</time></trkpt><trkpt lat="39.8529867" lon="-0.3882302"><ele>359.0</ele><time>2026-04-19T16:20:28.999Z</time></trkpt><trkpt lat="39.8528628" lon="-0.3882083"><ele>359.0</ele><time>2026-04-19T16:20:29.999Z</time></trkpt><trkpt lat="39.8527333" lon="-0.3881755"><ele>359.0</ele><time>2026-04-19T16:20:31Z</time></trkpt><trkpt lat="39.852606" lon="-0.3881355"><ele>359.0</ele><time>2026-04-19T16:20:31.999Z</time></trkpt><trkpt lat="39.8524829" lon="-0.3880941"><ele>359.0</ele><time>2026-04-19T16:20:32.999Z</time></trkpt><trkpt lat="39.852372" lon="-0.3880581"><ele>359.6666666666667</ele><time>2026-04-19T16:20:34Z</time></trkpt><trkpt lat="39.8522756" lon="-0.3880279"><ele>360.33333333333337</ele><time>2026-04-19T16:20:34.999Z</time></trkpt><trkpt lat="39.8521924" lon="-0.3879969"><ele>361.0</ele><time>2026-04-19T16:20:35.999Z</time></trkpt><trkpt lat="39.8521216" lon="-0.3879597"><ele>361.6666666666667</ele><time>2026-04-19T16:20:36.999Z</time></trkpt><trkpt lat="39.8520592" lon="-0.3879063"><ele>362.3333333333333</ele><time>2026-04-19T16:20:37.999Z</time></trkpt><trkpt lat="39.8520027" lon="-0.3878323"><ele>363.0</ele><time>2026-04-19T16:20:38.999Z</time></trkpt><trkpt lat="39.8519596" lon="-0.3877401"><ele>361.6666666666667</ele><time>2026-04-19T16:20:39.999Z</time></trkpt><trkpt lat="39.851923" lon="-0.3876278"><ele>360.3333333333333</ele><time>2026-04-19T16:20:42Z</time></trkpt><trkpt lat="39.8518898" lon="-0.3875243"><ele>359.0</ele><time>2026-04-19T16:20:48.999Z</time></trkpt><trkpt lat="39.8518468" lon="-0.3874165"><ele>357.66666666666663</ele><time>2026-04-19T16:20:50.999Z</time></trkpt><trkpt lat="39.8518251" lon="-0.3873323"><ele>356.3333333333333</ele><time>2026-04-19T16:20:52Z</time></trkpt><trkpt lat="39.8517955" lon="-0.387236"><ele>355.0</ele><time>2026-04-19T16:20:52.999Z</time></trkpt><trkpt lat="39.8517681" lon="-0.3871298"><ele>354.6</ele><time>2026-04-19T16:20:54Z</time></trkpt><trkpt lat="39.8517365" lon="-0.3870222"><ele>354.2</ele><time>2026-04-19T16:20:54.999Z</time></trkpt><trkpt lat="39.8516922" lon="-0.3869133"><ele>353.79999999999995</ele><time>2026-04-19T16:20:55.999Z</time></trkpt><trkpt lat="39.8516357" lon="-0.3868168"><ele>353.4</ele><time>2026-04-19T16:20:57Z</time></trkpt><trkpt lat="39.8515694" lon="-0.38672"><ele>353.0</ele><time>2026-04-19T16:20:57.999Z</time></trkpt><trkpt lat="39.8514964" lon="-0.3866173"><ele>353.0</ele><time>2026-04-19T16:20:58.999Z</time></trkpt><trkpt lat="39.8514166" lon="-0.386521"><ele>353.0</ele><time>2026-04-19T16:21:00Z</time></trkpt><trkpt lat="39.8513236" lon="-0.386426"><ele>353.0</ele><time>2026-04-19T16:21:01Z</time></trkpt><trkpt lat="39.8512254" lon="-0.3863192"><ele>353.0</ele><time>2026-04-19T16:21:01.999Z</time></trkpt><trkpt lat="39.8511171" lon="-0.3862082"><ele>350.5</ele><time>2026-04-19T16:21:02.999Z</time></trkpt><trkpt lat="39.851017" lon="-0.3860765"><ele>348.0</ele><time>2026-04-19T16:21:03.999Z</time></trkpt><trkpt lat="39.8509201" lon="-0.3859371"><ele>345.5</ele><time>2026-04-19T16:21:04.999Z</time></trkpt><trkpt lat="39.8508278" lon="-0.3857811"><ele>343.0</ele><time>2026-04-19T16:21:06Z</time></trkpt><trkpt lat="39.8507369" lon="-0.3856169"><ele>346.66666666666663</ele><time>2026-04-19T16:21:06.999Z</time></trkpt><trkpt lat="39.8506391" lon="-0.3854477"><ele>350.3333333333333</ele><time>2026-04-19T16:21:07.999Z</time></trkpt><trkpt lat="39.8505355" lon="-0.3852748"><ele>354.0</ele><time>2026-04-19T16:21:08.999Z</time></trkpt><trkpt lat="39.8504249" lon="-0.3850928"><ele>354.0</ele><time>2026-04-19T16:21:09.999Z</time></trkpt><trkpt lat="39.8503105" lon="-0.384919"><ele>354.0</ele><time>2026-04-19T16:21:10.999Z</time></trkpt><trkpt lat="39.8502009" lon="-0.3847651"><ele>354.0</ele><time>2026-04-19T16:21:11.999Z</time></trkpt><trkpt lat="39.8501103" lon="-0.3846304"><ele>352.25</ele><time>2026-04-19T16:21:12.999Z</time></trkpt><trkpt lat="39.8500269" lon="-0.3845092"><ele>350.5</ele><time>2026-04-19T16:21:13.999Z</time></trkpt><trkpt lat="39.8499399" lon="-0.3843773"><ele>348.75</ele><time>2026-04-19T16:21:14.999Z</time></trkpt><trkpt lat="39.8498588" lon="-0.3842674"><ele>347.0</ele><time>2026-04-19T16:21:16Z</time></trkpt><trkpt lat="39.8497902" lon="-0.3841771"><ele>347.0</ele><time>2026-04-19T16:21:16.999Z</time></trkpt><trkpt lat="39.8497269" lon="-0.3841009"><ele>347.0</ele><time>2026-04-19T16:21:17.999Z</time></trkpt><trkpt lat="39.8496612" lon="-0.3840419"><ele>347.0</ele><time>2026-04-19T16:21:18.999Z</time></trkpt><trkpt lat="39.849594" lon="-0.3840019"><ele>347.0</ele><time>2026-04-19T16:21:20Z</time></trkpt><trkpt lat="39.8495074" lon="-0.3839588"><ele>347.0</ele><time>2026-04-19T16:21:20.999Z</time></trkpt><trkpt lat="39.8494077" lon="-0.3839351"><ele>347.0</ele><time>2026-04-19T16:21:21.999Z</time></trkpt><trkpt lat="39.8493135" lon="-0.3839314"><ele>346.40000000000003</ele><time>2026-04-19T16:21:22.999Z</time></trkpt><trkpt lat="39.8492253" lon="-0.3839279"><ele>345.8</ele><time>2026-04-19T16:21:24Z</time></trkpt><trkpt lat="39.8491276" lon="-0.3839107"><ele>345.2</ele><time>2026-04-19T16:21:24.999Z</time></trkpt><trkpt lat="39.8490321" lon="-0.3838686"><ele>344.6</ele><time>2026-04-19T16:21:25.999Z</time></trkpt><trkpt lat="39.8489461" lon="-0.3837994"><ele>344.0</ele><time>2026-04-19T16:21:26.999Z</time></trkpt><trkpt lat="39.8488678" lon="-0.383712"><ele>344.0</ele><time>2026-04-19T16:21:28Z</time></trkpt><trkpt lat="39.8487853" lon="-0.3836172"><ele>344.0</ele><time>2026-04-19T16:21:28.999Z</time></trkpt><trkpt lat="39.8487144" lon="-0.3835415"><ele>344.0</ele><time>2026-04-19T16:21:30Z</time></trkpt><trkpt lat="39.8486486" lon="-0.3834804"><ele>344.0</ele><time>2026-04-19T16:21:31Z</time></trkpt><trkpt lat="39.8485851" lon="-0.383437"><ele>344.0</ele><time>2026-04-19T16:21:31.999Z</time></trkpt><trkpt lat="39.8484615" lon="-0.3834161"><ele>342.4</ele><time>2026-04-19T16:21:33.999Z</time></trkpt><trkpt lat="39.8483892" lon="-0.3834518"><ele>340.79999999999995</ele><time>2026-04-19T16:21:34.999Z</time></trkpt><trkpt lat="39.8483092" lon="-0.3835252"><ele>339.20000000000005</ele><time>2026-04-19T16:21:35.999Z</time></trkpt><trkpt lat="39.8482212" lon="-0.3836247"><ele>337.6</ele><time>2026-04-19T16:21:36.999Z</time></trkpt><trkpt lat="39.8481428" lon="-0.3837281"><ele>336.0</ele><time>2026-04-19T16:21:37.999Z</time></trkpt><trkpt lat="39.84808" lon="-0.3838305"><ele>335.3333333333333</ele><time>2026-04-19T16:21:38.999Z</time></trkpt><trkpt lat="39.8480293" lon="-0.3839237"><ele>334.6666666666667</ele><time>2026-04-19T16:21:39.999Z</time></trkpt><trkpt lat="39.8479845" lon="-0.3840011"><ele>334.0</ele><time>2026-04-19T16:21:40.999Z</time></trkpt><trkpt lat="39.8479198" lon="-0.3840739"><ele>333.33333333333337</ele><time>2026-04-19T16:21:41.999Z</time></trkpt><trkpt lat="39.8478316" lon="-0.384128"><ele>332.6666666666667</ele><time>2026-04-19T16:21:42.999Z</time></trkpt><trkpt lat="39.8477403" lon="-0.384172"><ele>332.0</ele><time>2026-04-19T16:21:43.999Z</time></trkpt><trkpt lat="39.8476459" lon="-0.3842021"><ele>333.20000000000005</ele><time>2026-04-19T16:21:44.999Z</time></trkpt><trkpt lat="39.8475466" lon="-0.3842143"><ele>334.4</ele><time>2026-04-19T16:21:46Z</time></trkpt><trkpt lat="39.8474385" lon="-0.3842078"><ele>335.6</ele><time>2026-04-19T16:21:46.999Z</time></trkpt><trkpt lat="39.8473378" lon="-0.3841873"><ele>336.79999999999995</ele><time>2026-04-19T16:21:47.999Z</time></trkpt><trkpt lat="39.8472353" lon="-0.3841615"><ele>338.0</ele><time>2026-04-19T16:21:48.999Z</time></trkpt><trkpt lat="39.8471413" lon="-0.3841406"><ele>338.0</ele><time>2026-04-19T16:21:49.999Z</time></trkpt><trkpt lat="39.84705" lon="-0.3841229"><ele>338.0</ele><time>2026-04-19T16:21:50.999Z</time></trkpt><trkpt lat="39.8469564" lon="-0.3841032"><ele>338.0</ele><time>2026-04-19T16:21:51.999Z</time></trkpt><trkpt lat="39.8468592" lon="-0.3840842"><ele>338.0</ele><time>2026-04-19T16:21:52.999Z</time></trkpt><trkpt lat="39.846755" lon="-0.3840702"><ele>338.0</ele><time>2026-04-19T16:21:53.999Z</time></trkpt><trkpt lat="39.8466456" lon="-0.3840671"><ele>337.4</ele><time>2026-04-19T16:21:54.999Z</time></trkpt><trkpt lat="39.8465407" lon="-0.3840838"><ele>336.79999999999995</ele><time>2026-04-19T16:21:55.999Z</time></trkpt><trkpt lat="39.8464403" lon="-0.3841082"><ele>336.2</ele><time>2026-04-19T16:21:56.999Z</time></trkpt><trkpt lat="39.8463303" lon="-0.384129"><ele>335.6</ele><time>2026-04-19T16:21:57.999Z</time></trkpt><trkpt lat="39.8462165" lon="-0.3841463"><ele>335.0</ele><time>2026-04-19T16:21:58.999Z</time></trkpt><trkpt lat="39.8461073" lon="-0.3841569"><ele>335.0</ele><time>2026-04-19T16:21:59.999Z</time></trkpt><trkpt lat="39.8459952" lon="-0.3841666"><ele>335.0</ele><time>2026-04-19T16:22:01Z</time></trkpt><trkpt lat="39.8458816" lon="-0.384165"><ele>335.0</ele><time>2026-04-19T16:22:01.999Z</time></trkpt><trkpt lat="39.8457804" lon="-0.3841563"><ele>335.0</ele><time>2026-04-19T16:22:02.999Z</time></trkpt><trkpt lat="39.8456827" lon="-0.3841276"><ele>335.0</ele><time>2026-04-19T16:22:03.999Z</time></trkpt><trkpt lat="39.8455929" lon="-0.3840845"><ele>334.0</ele><time>2026-04-19T16:22:04.999Z</time></trkpt><trkpt lat="39.8455047" lon="-0.3840407"><ele>333.0</ele><time>2026-04-19T16:22:06Z</time></trkpt><trkpt lat="39.8454182" lon="-0.3839986"><ele>332.0</ele><time>2026-04-19T16:22:06.999Z</time></trkpt><trkpt lat="39.8453234" lon="-0.3839532"><ele>331.0</ele><time>2026-04-19T16:22:07.999Z</time></trkpt><trkpt lat="39.8452274" lon="-0.3838992"><ele>330.0</ele><time>2026-04-19T16:22:08.999Z</time></trkpt><trkpt lat="39.8451271" lon="-0.3838309"><ele>329.25</ele><time>2026-04-19T16:22:09.999Z</time></trkpt><trkpt lat="39.8450313" lon="-0.3837488"><ele>328.5</ele><time>2026-04-19T16:22:10.999Z</time></trkpt><trkpt lat="39.8449328" lon="-0.3836518"><ele>327.75</ele><time>2026-04-19T16:22:11.999Z</time></trkpt><trkpt lat="39.8448343" lon="-0.3835443"><ele>327.0</ele><time>2026-04-19T16:22:12.999Z</time></trkpt><trkpt lat="39.8447305" lon="-0.3834355"><ele>327.0</ele><time>2026-04-19T16:22:13.999Z</time></trkpt><trkpt lat="39.8446234" lon="-0.3833314"><ele>327.0</ele><time>2026-04-19T16:22:15Z</time></trkpt><trkpt lat="39.8444286" lon="-0.3831354"><ele>327.0</ele><time>2026-04-19T16:22:16.999Z</time></trkpt><trkpt lat="39.8443289" lon="-0.3830362"><ele>329.0</ele><time>2026-04-19T16:22:17.999Z</time></trkpt><trkpt lat="39.8440322" lon="-0.3828179"><ele>331.0</ele><time>2026-04-19T16:22:20.904Z</time></trkpt><trkpt lat="39.8438177" lon="-0.3826621"><ele>331.0</ele><time>2026-04-19T16:22:21.999Z</time></trkpt><trkpt lat="39.8437059" lon="-0.3825542"><ele>331.0</ele><time>2026-04-19T16:22:22.999Z</time></trkpt><trkpt lat="39.8436006" lon="-0.3824551"><ele>331.0</ele><time>2026-04-19T16:22:24Z</time></trkpt><trkpt lat="39.8434933" lon="-0.3823574"><ele>331.0</ele><time>2026-04-19T16:22:25Z</time></trkpt><trkpt lat="39.8433784" lon="-0.3822699"><ele>331.0</ele><time>2026-04-19T16:22:25.999Z</time></trkpt><trkpt lat="39.8432606" lon="-0.3821934"><ele>331.0</ele><time>2026-04-19T16:22:26.999Z</time></trkpt><trkpt lat="39.843151" lon="-0.3821189"><ele>331.0</ele><time>2026-04-19T16:22:27.999Z</time></trkpt><trkpt lat="39.843047" lon="-0.3820499"><ele>331.0</ele><time>2026-04-19T16:22:28.999Z</time></trkpt><trkpt lat="39.8429505" lon="-0.3819755"><ele>331.0</ele><time>2026-04-19T16:22:30Z</time></trkpt><trkpt lat="39.8428596" lon="-0.3819021"><ele>331.0</ele><time>2026-04-19T16:22:30.999Z</time></trkpt><trkpt lat="39.8427756" lon="-0.3818388"><ele>331.0</ele><time>2026-04-19T16:22:31.999Z</time></trkpt><trkpt lat="39.8427076" lon="-0.3817706"><ele>331.0</ele><time>2026-04-19T16:22:33Z</time></trkpt><trkpt lat="39.842651" lon="-0.3816754"><ele>331.0</ele><time>2026-04-19T16:22:33.999Z</time></trkpt><trkpt lat="39.8426036" lon="-0.3815655"><ele>328.0</ele><time>2026-04-19T16:22:35Z</time></trkpt><trkpt lat="39.8425517" lon="-0.3814474"><ele>325.0</ele><time>2026-04-19T16:22:35.999Z</time></trkpt><trkpt lat="39.8424931" lon="-0.3813301"><ele>322.0</ele><time>2026-04-19T16:22:37Z</time></trkpt><trkpt lat="39.8424311" lon="-0.3812048"><ele>319.0</ele><time>2026-04-19T16:22:37.999Z</time></trkpt><trkpt lat="39.8423705" lon="-0.3810802"><ele>316.0</ele><time>2026-04-19T16:22:38.999Z</time></trkpt><trkpt lat="39.8423152" lon="-0.3809633"><ele>316.0</ele><time>2026-04-19T16:22:39.999Z</time></trkpt><trkpt lat="39.8422648" lon="-0.3808506"><ele>316.0</ele><time>2026-04-19T16:22:40.999Z</time></trkpt><trkpt lat="39.842224" lon="-0.3807292"><ele>316.0</ele><time>2026-04-19T16:22:41.999Z</time></trkpt><trkpt lat="39.8421886" lon="-0.3805912"><ele>316.0</ele><time>2026-04-19T16:22:42.999Z</time></trkpt><trkpt lat="39.8421592" lon="-0.3804445"><ele>316.0</ele><time>2026-04-19T16:22:43.999Z</time></trkpt><trkpt lat="39.8421343" lon="-0.3802891"><ele>317.0</ele><time>2026-04-19T16:22:45Z</time></trkpt><trkpt lat="39.8421074" lon="-0.3801301"><ele>318.0</ele><time>2026-04-19T16:22:45.999Z</time></trkpt><trkpt lat="39.8420801" lon="-0.3799622"><ele>319.0</ele><time>2026-04-19T16:22:47Z</time></trkpt><trkpt lat="39.8420463" lon="-0.3797938"><ele>320.0</ele><time>2026-04-19T16:22:47.999Z</time></trkpt><trkpt lat="39.8420007" lon="-0.3796307"><ele>322.0</ele><time>2026-04-19T16:22:48.999Z</time></trkpt><trkpt lat="39.8419504" lon="-0.3794653"><ele>324.0</ele><time>2026-04-19T16:22:49.999Z</time></trkpt><trkpt lat="39.8418968" lon="-0.379297"><ele>326.0</ele><time>2026-04-19T16:22:50.999Z</time></trkpt><trkpt lat="39.8418451" lon="-0.3791377"><ele>328.0</ele><time>2026-04-19T16:22:51.999Z</time></trkpt><trkpt lat="39.8417993" lon="-0.3789816"><ele>322.25</ele><time>2026-04-19T16:22:52.999Z</time></trkpt><trkpt lat="39.8417677" lon="-0.3788078"><ele>316.5</ele><time>2026-04-19T16:22:53.999Z</time></trkpt><trkpt lat="39.8417463" lon="-0.3786281"><ele>310.75</ele><time>2026-04-19T16:22:55Z</time></trkpt><trkpt lat="39.8417321" lon="-0.3784405"><ele>305.0</ele><time>2026-04-19T16:22:55.999Z</time></trkpt><trkpt lat="39.8417128" lon="-0.3782478"><ele>305.0</ele><time>2026-04-19T16:22:56.999Z</time></trkpt><trkpt lat="39.8416955" lon="-0.3780471"><ele>305.0</ele><time>2026-04-19T16:22:58Z</time></trkpt><trkpt lat="39.841683" lon="-0.3778435"><ele>305.0</ele><time>2026-04-19T16:22:58.999Z</time></trkpt><trkpt lat="39.8416712" lon="-0.3776393"><ele>306.5</ele><time>2026-04-19T16:23:00Z</time></trkpt><trkpt lat="39.8416537" lon="-0.3774579"><ele>308.0</ele><time>2026-04-19T16:23:00.999Z</time></trkpt><trkpt lat="39.8416268" lon="-0.3772879"><ele>309.5</ele><time>2026-04-19T16:23:02Z</time></trkpt><trkpt lat="39.8415944" lon="-0.3771177"><ele>311.0</ele><time>2026-04-19T16:23:02.999Z</time></trkpt><trkpt lat="39.8415583" lon="-0.3769656"><ele>313.0</ele><time>2026-04-19T16:23:03.999Z</time></trkpt><trkpt lat="39.8415225" lon="-0.3768285"><ele>315.0</ele><time>2026-04-19T16:23:04.999Z</time></trkpt><trkpt lat="39.84149" lon="-0.3767072"><ele>317.0</ele><time>2026-04-19T16:23:05.999Z</time></trkpt><trkpt lat="39.8414565" lon="-0.3765912"><ele>319.0</ele><time>2026-04-19T16:23:07Z</time></trkpt><trkpt lat="39.8414111" lon="-0.3764736"><ele>321.0</ele><time>2026-04-19T16:23:07.999Z</time></trkpt><trkpt lat="39.841353" lon="-0.3763472"><ele>322.75</ele><time>2026-04-19T16:23:08.999Z</time></trkpt><trkpt lat="39.8412843" lon="-0.3762139"><ele>324.5</ele><time>2026-04-19T16:23:09.999Z</time></trkpt><trkpt lat="39.8412066" lon="-0.3760758"><ele>326.25</ele><time>2026-04-19T16:23:10.999Z</time></trkpt><trkpt lat="39.841127" lon="-0.3759437"><ele>328.0</ele><time>2026-04-19T16:23:11.999Z</time></trkpt><trkpt lat="39.841054" lon="-0.3758195"><ele>328.0</ele><time>2026-04-19T16:23:13Z</time></trkpt><trkpt lat="39.8409882" lon="-0.3756953"><ele>328.0</ele><time>2026-04-19T16:23:13.999Z</time></trkpt><trkpt lat="39.840933" lon="-0.375562"><ele>328.0</ele><time>2026-04-19T16:23:14.999Z</time></trkpt><trkpt lat="39.8408983" lon="-0.3754202"><ele>328.0</ele><time>2026-04-19T16:23:15.999Z</time></trkpt><trkpt lat="39.8408819" lon="-0.3752678"><ele>321.0</ele><time>2026-04-19T16:23:16.999Z</time></trkpt><trkpt lat="39.8408722" lon="-0.375107"><ele>314.0</ele><time>2026-04-19T16:23:17.999Z</time></trkpt><trkpt lat="39.8408533" lon="-0.3749408"><ele>307.0</ele><time>2026-04-19T16:23:18.999Z</time></trkpt><trkpt lat="39.8408312" lon="-0.3747701"><ele>300.0</ele><time>2026-04-19T16:23:19.999Z</time></trkpt><trkpt lat="39.8408081" lon="-0.3746106"><ele>299.6666666666667</ele><time>2026-04-19T16:23:21Z</time></trkpt><trkpt lat="39.8407842" lon="-0.3744587"><ele>299.33333333333337</ele><time>2026-04-19T16:23:22Z</time></trkpt><trkpt lat="39.8407517" lon="-0.3742387"><ele>299.0</ele><time>2026-04-19T16:23:23.951Z</time></trkpt><trkpt lat="39.8407145" lon="-0.3739985"><ele>299.0</ele><time>2026-04-19T16:23:24.999Z</time></trkpt><trkpt lat="39.8406952" lon="-0.3738391"><ele>299.0</ele><time>2026-04-19T16:23:25.999Z</time></trkpt><trkpt lat="39.8406576" lon="-0.3736769"><ele>299.0</ele><time>2026-04-19T16:23:26.999Z</time></trkpt><trkpt lat="39.8406133" lon="-0.3735166"><ele>299.0</ele><time>2026-04-19T16:23:27.999Z</time></trkpt><trkpt lat="39.8405707" lon="-0.3733666"><ele>299.0</ele><time>2026-04-19T16:23:29Z</time></trkpt><trkpt lat="39.8405299" lon="-0.373225"><ele>299.0</ele><time>2026-04-19T16:23:29.999Z</time></trkpt><trkpt lat="39.840482" lon="-0.3730985"><ele>299.0</ele><time>2026-04-19T16:23:31Z</time></trkpt><trkpt lat="39.8404391" lon="-0.3729958"><ele>299.0</ele><time>2026-04-19T16:23:32Z</time></trkpt><trkpt lat="39.8403948" lon="-0.372914"><ele>299.0</ele><time>2026-04-19T16:23:33Z</time></trkpt><trkpt lat="39.8403311" lon="-0.37285"><ele>297.6666666666667</ele><time>2026-04-19T16:23:33.999Z</time></trkpt><trkpt lat="39.8402535" lon="-0.3728014"><ele>296.33333333333337</ele><time>2026-04-19T16:23:35Z</time></trkpt><trkpt lat="39.8401773" lon="-0.3727608"><ele>295.0</ele><time>2026-04-19T16:23:35.999Z</time></trkpt><trkpt lat="39.8401073" lon="-0.3727025"><ele>293.6666666666667</ele><time>2026-04-19T16:23:36.999Z</time></trkpt><trkpt lat="39.8400491" lon="-0.3726317"><ele>292.3333333333333</ele><time>2026-04-19T16:23:37.999Z</time></trkpt><trkpt lat="39.8400059" lon="-0.3725433"><ele>291.0</ele><time>2026-04-19T16:23:38.999Z</time></trkpt><trkpt lat="39.8399646" lon="-0.3724372"><ele>291.0</ele><time>2026-04-19T16:23:39.999Z</time></trkpt><trkpt lat="39.8399221" lon="-0.3723317"><ele>291.0</ele><time>2026-04-19T16:23:40.999Z</time></trkpt><trkpt lat="39.8398762" lon="-0.372217"><ele>291.0</ele><time>2026-04-19T16:23:42Z</time></trkpt><trkpt lat="39.8398269" lon="-0.3721007"><ele>291.0</ele><time>2026-04-19T16:23:42.999Z</time></trkpt><trkpt lat="39.8397752" lon="-0.3719848"><ele>291.0</ele><time>2026-04-19T16:23:44Z</time></trkpt><trkpt lat="39.839728" lon="-0.3718821"><ele>291.3333333333333</ele><time>2026-04-19T16:23:44.999Z</time></trkpt><trkpt lat="39.8396853" lon="-0.3717926"><ele>291.6666666666667</ele><time>2026-04-19T16:23:45.999Z</time></trkpt><trkpt lat="39.8396484" lon="-0.3717041"><ele>292.0</ele><time>2026-04-19T16:23:46.999Z</time></trkpt><trkpt lat="39.8396023" lon="-0.3716174"><ele>292.33333333333337</ele><time>2026-04-19T16:23:47.999Z</time></trkpt><trkpt lat="39.8395472" lon="-0.3715422"><ele>292.6666666666667</ele><time>2026-04-19T16:23:49Z</time></trkpt><trkpt lat="39.8394733" lon="-0.3714788"><ele>293.0</ele><time>2026-04-19T16:23:49.999Z</time></trkpt><trkpt lat="39.8393864" lon="-0.3714363"><ele>292.2</ele><time>2026-04-19T16:23:50.999Z</time></trkpt><trkpt lat="39.8392867" lon="-0.3714149"><ele>291.4</ele><time>2026-04-19T16:23:51.999Z</time></trkpt><trkpt lat="39.8391821" lon="-0.3714135"><ele>290.59999999999997</ele><time>2026-04-19T16:23:52.999Z</time></trkpt><trkpt lat="39.8390714" lon="-0.3714149"><ele>289.8</ele><time>2026-04-19T16:23:53.999Z</time></trkpt><trkpt lat="39.8389598" lon="-0.3714064"><ele>289.0</ele><time>2026-04-19T16:23:55Z</time></trkpt><trkpt lat="39.8388464" lon="-0.371389"><ele>289.0</ele><time>2026-04-19T16:23:55.999Z</time></trkpt><trkpt lat="39.8387394" lon="-0.3713599"><ele>289.0</ele><time>2026-04-19T16:23:56.999Z</time></trkpt><trkpt lat="39.8386522" lon="-0.3713075"><ele>289.0</ele><time>2026-04-19T16:23:57.999Z</time></trkpt><trkpt lat="39.8385873" lon="-0.3712374"><ele>289.0</ele><time>2026-04-19T16:23:58.999Z</time></trkpt><trkpt lat="39.838536" lon="-0.3711683"><ele>289.0</ele><time>2026-04-19T16:24:00Z</time></trkpt><trkpt lat="39.8384827" lon="-0.3711088"><ele>289.0</ele><time>2026-04-19T16:24:00.999Z</time></trkpt><trkpt lat="39.8383722" lon="-0.3710104"><ele>288.5</ele><time>2026-04-19T16:24:03Z</time></trkpt><trkpt lat="39.8383029" lon="-0.3709676"><ele>288.0</ele><time>2026-04-19T16:24:03.999Z</time></trkpt><trkpt lat="39.8382338" lon="-0.370921"><ele>287.5</ele><time>2026-04-19T16:24:05Z</time></trkpt><trkpt lat="39.8381632" lon="-0.3708752"><ele>287.0</ele><time>2026-04-19T16:24:06Z</time></trkpt><trkpt lat="39.8380941" lon="-0.3708259"><ele>286.5</ele><time>2026-04-19T16:24:06.999Z</time></trkpt><trkpt lat="39.8380305" lon="-0.3707839"><ele>286.0</ele><time>2026-04-19T16:24:07.999Z</time></trkpt><trkpt lat="39.8379704" lon="-0.3707466"><ele>286.0</ele><time>2026-04-19T16:24:08.999Z</time></trkpt><trkpt lat="39.8378565" lon="-0.3706917"><ele>286.0</ele><time>2026-04-19T16:24:11Z</time></trkpt><trkpt lat="39.8377937" lon="-0.3706747"><ele>286.0</ele><time>2026-04-19T16:24:11.999Z</time></trkpt><trkpt lat="39.8376673" lon="-0.370655"><ele>286.0</ele><time>2026-04-19T16:24:13.999Z</time></trkpt><trkpt lat="39.8375973" lon="-0.3706587"><ele>286.0</ele><time>2026-04-19T16:24:14.999Z</time></trkpt><trkpt lat="39.8375238" lon="-0.3706707"><ele>285.0</ele><time>2026-04-19T16:24:15.999Z</time></trkpt><trkpt lat="39.8374395" lon="-0.3707052"><ele>284.0</ele><time>2026-04-19T16:24:17Z</time></trkpt><trkpt lat="39.8373483" lon="-0.3707554"><ele>283.0</ele><time>2026-04-19T16:24:18Z</time></trkpt><trkpt lat="39.8372581" lon="-0.3708034"><ele>282.0</ele><time>2026-04-19T16:24:18.999Z</time></trkpt><trkpt lat="39.8371721" lon="-0.3708479"><ele>281.0</ele><time>2026-04-19T16:24:19.999Z</time></trkpt><trkpt lat="39.8370899" lon="-0.3708868"><ele>281.0</ele><time>2026-04-19T16:24:20.999Z</time></trkpt><trkpt lat="39.8370075" lon="-0.3709259"><ele>281.0</ele><time>2026-04-19T16:24:21.999Z</time></trkpt><trkpt lat="39.8369312" lon="-0.3709601"><ele>281.0</ele><time>2026-04-19T16:24:22.999Z</time></trkpt><trkpt lat="39.8368663" lon="-0.3709905"><ele>281.0</ele><time>2026-04-19T16:24:23.999Z</time></trkpt><trkpt lat="39.8368047" lon="-0.37102"><ele>281.0</ele><time>2026-04-19T16:24:25Z</time></trkpt><trkpt lat="39.8367036" lon="-0.3710651"><ele>281.0</ele><time>2026-04-19T16:24:26.999Z</time></trkpt><trkpt lat="39.8366079" lon="-0.3711041"><ele>281.83333333333337</ele><time>2026-04-19T16:24:29Z</time></trkpt><trkpt lat="39.8365364" lon="-0.3711277"><ele>282.6666666666667</ele><time>2026-04-19T16:24:31Z</time></trkpt><trkpt lat="39.8364645" lon="-0.3711478"><ele>283.5</ele><time>2026-04-19T16:24:33.999Z</time></trkpt><trkpt lat="39.8364049" lon="-0.3710826"><ele>284.3333333333333</ele><time>2026-04-19T16:36:14.999Z</time></trkpt><trkpt lat="39.8364677" lon="-0.3710115"><ele>285.16666666666663</ele><time>2026-04-19T16:36:16.999Z</time></trkpt><trkpt lat="39.8365673" lon="-0.3709524"><ele>286.0</ele><time>2026-04-19T16:36:18.999Z</time></trkpt><trkpt lat="39.8366234" lon="-0.3709144"><ele>286.0</ele><time>2026-04-19T16:36:19.999Z</time></trkpt><trkpt lat="39.8366863" lon="-0.370865"><ele>286.0</ele><time>2026-04-19T16:36:20.999Z</time></trkpt><trkpt lat="39.8367461" lon="-0.3708029"><ele>286.0</ele><time>2026-04-19T16:36:21.999Z</time></trkpt><trkpt lat="39.8368045" lon="-0.3707207"><ele>286.0</ele><time>2026-04-19T16:36:22.999Z</time></trkpt><trkpt lat="39.8368604" lon="-0.3706284"><ele>286.0</ele><time>2026-04-19T16:36:23.999Z</time></trkpt><trkpt lat="39.8369135" lon="-0.370519"><ele>286.0</ele><time>2026-04-19T16:36:24.999Z</time></trkpt><trkpt lat="39.8369619" lon="-0.3704024"><ele>285.25</ele><time>2026-04-19T16:36:25.999Z</time></trkpt><trkpt lat="39.837006" lon="-0.3702772"><ele>284.5</ele><time>2026-04-19T16:36:26.999Z</time></trkpt><trkpt lat="39.8370458" lon="-0.3701427"><ele>283.75</ele><time>2026-04-19T16:36:28Z</time></trkpt><trkpt lat="39.8370887" lon="-0.3700021"><ele>283.0</ele><time>2026-04-19T16:36:28.999Z</time></trkpt><trkpt lat="39.8371326" lon="-0.3698588"><ele>283.0</ele><time>2026-04-19T16:36:30Z</time></trkpt><trkpt lat="39.8371861" lon="-0.3697165"><ele>283.0</ele><time>2026-04-19T16:36:30.999Z</time></trkpt><trkpt lat="39.8372516" lon="-0.369577"><ele>283.0</ele><time>2026-04-19T16:36:31.999Z</time></trkpt><trkpt lat="39.8373252" lon="-0.3694407"><ele>283.0</ele><time>2026-04-19T16:36:32.999Z</time></trkpt><trkpt lat="39.8374052" lon="-0.3693135"><ele>283.75</ele><time>2026-04-19T16:36:34Z</time></trkpt><trkpt lat="39.8374831" lon="-0.3691904"><ele>284.5</ele><time>2026-04-19T16:36:34.999Z</time></trkpt><trkpt lat="39.8375616" lon="-0.3690687"><ele>285.25</ele><time>2026-04-19T16:36:36Z</time></trkpt><trkpt lat="39.8376352" lon="-0.3689467"><ele>286.0</ele><time>2026-04-19T16:36:37Z</time></trkpt><trkpt lat="39.8377046" lon="-0.3688344"><ele>286.0</ele><time>2026-04-19T16:36:38Z</time></trkpt><trkpt lat="39.8377653" lon="-0.368736"><ele>286.0</ele><time>2026-04-19T16:36:38.999Z</time></trkpt><trkpt lat="39.8378202" lon="-0.3686466"><ele>286.0</ele><time>2026-04-19T16:36:39.999Z</time></trkpt><trkpt lat="39.837868" lon="-0.3685749"><ele>286.0</ele><time>2026-04-19T16:36:41Z</time></trkpt><trkpt lat="39.8379219" lon="-0.3685305"><ele>286.0</ele><time>2026-04-19T16:36:42Z</time></trkpt><trkpt lat="39.8380098" lon="-0.3684452"><ele>286.0</ele><time>2026-04-19T16:36:43.999Z</time></trkpt><trkpt lat="39.8380923" lon="-0.3683441"><ele>285.99999999999994</ele><time>2026-04-19T16:36:45.999Z</time></trkpt><trkpt lat="39.8381402" lon="-0.3682871"><ele>286.0</ele><time>2026-04-19T16:36:46.999Z</time></trkpt><trkpt lat="39.8381991" lon="-0.3682285"><ele>286.0</ele><time>2026-04-19T16:36:47.999Z</time></trkpt><trkpt lat="39.8382541" lon="-0.3681757"><ele>286.0</ele><time>2026-04-19T16:36:48.999Z</time></trkpt><trkpt lat="39.8383108" lon="-0.3681281"><ele>286.0</ele><time>2026-04-19T16:36:50Z</time></trkpt><trkpt lat="39.8383704" lon="-0.368076"><ele>285.99999999999994</ele><time>2026-04-19T16:36:50.999Z</time></trkpt><trkpt lat="39.8384287" lon="-0.368008"><ele>286.0</ele><time>2026-04-19T16:36:51.999Z</time></trkpt><trkpt lat="39.8384879" lon="-0.3679356"><ele>286.2</ele><time>2026-04-19T16:36:53Z</time></trkpt><trkpt lat="39.8385471" lon="-0.3678607"><ele>286.40000000000003</ele><time>2026-04-19T16:36:53.999Z</time></trkpt><trkpt lat="39.8386069" lon="-0.3678003"><ele>286.6</ele><time>2026-04-19T16:36:54.999Z</time></trkpt><trkpt lat="39.8387195" lon="-0.3677419"><ele>286.8</ele><time>2026-04-19T16:36:57Z</time></trkpt><trkpt lat="39.8388425" lon="-0.3677788"><ele>287.0</ele><time>2026-04-19T16:36:58.999Z</time></trkpt><trkpt lat="39.8388954" lon="-0.3678377"><ele>287.0</ele><time>2026-04-19T16:36:59.999Z</time></trkpt><trkpt lat="39.8389518" lon="-0.3679791"><ele>287.0</ele><time>2026-04-19T16:37:01.999Z</time></trkpt><trkpt lat="39.8390352" lon="-0.3680735"><ele>287.0</ele><time>2026-04-19T16:37:03.999Z</time></trkpt><trkpt lat="39.8391295" lon="-0.3680288"><ele>287.0</ele><time>2026-04-19T16:37:06Z</time></trkpt><trkpt lat="39.8391843" lon="-0.3679847"><ele>287.0</ele><time>2026-04-19T16:37:07Z</time></trkpt><trkpt lat="39.8392446" lon="-0.3679312"><ele>289.6</ele><time>2026-04-19T16:37:07.999Z</time></trkpt><trkpt lat="39.8393108" lon="-0.367875"><ele>292.2</ele><time>2026-04-19T16:37:08.999Z</time></trkpt><trkpt lat="39.8393716" lon="-0.3678173"><ele>294.8</ele><time>2026-04-19T16:37:10Z</time></trkpt><trkpt lat="39.8394241" lon="-0.3677688"><ele>297.4</ele><time>2026-04-19T16:37:10.999Z</time></trkpt><trkpt lat="39.8395419" lon="-0.3677586"><ele>300.0</ele><time>2026-04-19T16:37:12.999Z</time></trkpt><trkpt lat="39.8396563" lon="-0.367839"><ele>300.0</ele><time>2026-04-19T16:37:14.999Z</time></trkpt><trkpt lat="39.8397201" lon="-0.3678947"><ele>300.0</ele><time>2026-04-19T16:37:16Z</time></trkpt><trkpt lat="39.8397927" lon="-0.3679559"><ele>300.0</ele><time>2026-04-19T16:37:17Z</time></trkpt><trkpt lat="39.8398691" lon="-0.3680229"><ele>300.0</ele><time>2026-04-19T16:37:17.999Z</time></trkpt><trkpt lat="39.8399482" lon="-0.3680898"><ele>300.0</ele><time>2026-04-19T16:37:18.999Z</time></trkpt><trkpt lat="39.8400295" lon="-0.3681562"><ele>300.0</ele><time>2026-04-19T16:37:20Z</time></trkpt><trkpt lat="39.8401115" lon="-0.3682256"><ele>300.8333333333333</ele><time>2026-04-19T16:37:20.999Z</time></trkpt><trkpt lat="39.840189" lon="-0.3682827"><ele>301.6666666666667</ele><time>2026-04-19T16:37:21.999Z</time></trkpt><trkpt lat="39.8402654" lon="-0.368337"><ele>302.5</ele><time>2026-04-19T16:37:22.999Z</time></trkpt><trkpt lat="39.8403391" lon="-0.3683746"><ele>303.33333333333337</ele><time>2026-04-19T16:37:23.999Z</time></trkpt><trkpt lat="39.8404262" lon="-0.3684097"><ele>304.1666666666667</ele><time>2026-04-19T16:37:24.999Z</time></trkpt><trkpt lat="39.8405224" lon="-0.368432"><ele>305.0</ele><time>2026-04-19T16:37:25.999Z</time></trkpt><trkpt lat="39.8406239" lon="-0.3684436"><ele>305.0</ele><time>2026-04-19T16:37:26.999Z</time></trkpt><trkpt lat="39.8407161" lon="-0.3684508"><ele>305.0</ele><time>2026-04-19T16:37:28Z</time></trkpt><trkpt lat="39.8407961" lon="-0.3684628"><ele>305.0</ele><time>2026-04-19T16:37:28.999Z</time></trkpt><trkpt lat="39.8408814" lon="-0.368501"><ele>305.0</ele><time>2026-04-19T16:37:29.999Z</time></trkpt><trkpt lat="39.8409753" lon="-0.3685538"><ele>305.0</ele><time>2026-04-19T16:37:31Z</time></trkpt><trkpt lat="39.8410629" lon="-0.3685956"><ele>306.4</ele><time>2026-04-19T16:37:31.999Z</time></trkpt><trkpt lat="39.8411501" lon="-0.3686317"><ele>307.8</ele><time>2026-04-19T16:37:32.999Z</time></trkpt><trkpt lat="39.8412288" lon="-0.3686659"><ele>309.2</ele><time>2026-04-19T16:37:33.999Z</time></trkpt><trkpt lat="39.8413058" lon="-0.3687358"><ele>310.6</ele><time>2026-04-19T16:37:35Z</time></trkpt><trkpt lat="39.8413778" lon="-0.368833"><ele>312.0</ele><time>2026-04-19T16:37:36Z</time></trkpt><trkpt lat="39.8414481" lon="-0.3689344"><ele>309.2</ele><time>2026-04-19T16:37:37Z</time></trkpt><trkpt lat="39.8415186" lon="-0.3690468"><ele>306.4</ele><time>2026-04-19T16:37:37.999Z</time></trkpt><trkpt lat="39.8415797" lon="-0.3691626"><ele>303.6</ele><time>2026-04-19T16:37:38.999Z</time></trkpt><trkpt lat="39.8416328" lon="-0.3692686"><ele>300.8</ele><time>2026-04-19T16:37:39.999Z</time></trkpt><trkpt lat="39.84169" lon="-0.3693692"><ele>298.0</ele><time>2026-04-19T16:37:40.999Z</time></trkpt><trkpt lat="39.841757" lon="-0.3694599"><ele>298.16666666666663</ele><time>2026-04-19T16:37:41.999Z</time></trkpt><trkpt lat="39.8418226" lon="-0.369531"><ele>298.3333333333333</ele><time>2026-04-19T16:37:42.999Z</time></trkpt><trkpt lat="39.8418897" lon="-0.3695797"><ele>298.5</ele><time>2026-04-19T16:37:43.999Z</time></trkpt><trkpt lat="39.8419557" lon="-0.3696011"><ele>298.6666666666667</ele><time>2026-04-19T16:37:44.999Z</time></trkpt><trkpt lat="39.8420219" lon="-0.3695982"><ele>298.83333333333337</ele><time>2026-04-19T16:37:46Z</time></trkpt><trkpt lat="39.8420968" lon="-0.3695758"><ele>299.0</ele><time>2026-04-19T16:37:46.999Z</time></trkpt><trkpt lat="39.842174" lon="-0.3695319"><ele>299.0</ele><time>2026-04-19T16:37:47.999Z</time></trkpt><trkpt lat="39.842257" lon="-0.3694741"><ele>299.0</ele><time>2026-04-19T16:37:48.999Z</time></trkpt><trkpt lat="39.8423436" lon="-0.3694082"><ele>299.0</ele><time>2026-04-19T16:37:50Z</time></trkpt><trkpt lat="39.8424303" lon="-0.3693256"><ele>299.0</ele><time>2026-04-19T16:37:50.999Z</time></trkpt><trkpt lat="39.8425163" lon="-0.3692361"><ele>299.0</ele><time>2026-04-19T16:37:51.999Z</time></trkpt><trkpt lat="39.8426027" lon="-0.3691473"><ele>299.5</ele><time>2026-04-19T16:37:52.999Z</time></trkpt><trkpt lat="39.8426896" lon="-0.3690533"><ele>300.0</ele><time>2026-04-19T16:37:53.999Z</time></trkpt><trkpt lat="39.8427671" lon="-0.3689471"><ele>300.5</ele><time>2026-04-19T16:37:54.999Z</time></trkpt><trkpt lat="39.8428404" lon="-0.3688238"><ele>301.0</ele><time>2026-04-19T16:37:55.999Z</time></trkpt><trkpt lat="39.8429153" lon="-0.3686926"><ele>301.0</ele><time>2026-04-19T16:37:57Z</time></trkpt><trkpt lat="39.8429957" lon="-0.3685603"><ele>301.0</ele><time>2026-04-19T16:37:57.999Z</time></trkpt><trkpt lat="39.8430791" lon="-0.3684175"><ele>301.0</ele><time>2026-04-19T16:37:58.999Z</time></trkpt><trkpt lat="39.8431545" lon="-0.3682776"><ele>301.0</ele><time>2026-04-19T16:37:59.999Z</time></trkpt><trkpt lat="39.8432269" lon="-0.3681543"><ele>301.0</ele><time>2026-04-19T16:38:00.999Z</time></trkpt><trkpt lat="39.8432965" lon="-0.3680489"><ele>301.0</ele><time>2026-04-19T16:38:02Z</time></trkpt><trkpt lat="39.8433631" lon="-0.3679486"><ele>301.0</ele><time>2026-04-19T16:38:02.999Z</time></trkpt><trkpt lat="39.8434156" lon="-0.3678523"><ele>301.0</ele><time>2026-04-19T16:38:03.999Z</time></trkpt><trkpt lat="39.8434577" lon="-0.367749"><ele>301.0</ele><time>2026-04-19T16:38:04.999Z</time></trkpt><trkpt lat="39.8434848" lon="-0.3676406"><ele>301.6</ele><time>2026-04-19T16:38:06Z</time></trkpt><trkpt lat="39.8435135" lon="-0.3675443"><ele>302.20000000000005</ele><time>2026-04-19T16:38:07Z</time></trkpt><trkpt lat="39.8435674" lon="-0.3674566"><ele>302.79999999999995</ele><time>2026-04-19T16:38:07.999Z</time></trkpt><trkpt lat="39.8436442" lon="-0.3673918"><ele>303.4</ele><time>2026-04-19T16:38:09Z</time></trkpt><trkpt lat="39.8437308" lon="-0.3673295"><ele>304.0</ele><time>2026-04-19T16:38:10Z</time></trkpt><trkpt lat="39.8438233" lon="-0.3672627"><ele>304.59999999999997</ele><time>2026-04-19T16:38:10.999Z</time></trkpt><trkpt lat="39.843922" lon="-0.3671928"><ele>305.2</ele><time>2026-04-19T16:38:11.999Z</time></trkpt><trkpt lat="39.8440224" lon="-0.3671213"><ele>305.79999999999995</ele><time>2026-04-19T16:38:12.999Z</time></trkpt><trkpt lat="39.8441203" lon="-0.367058"><ele>306.4</ele><time>2026-04-19T16:38:14Z</time></trkpt><trkpt lat="39.844215" lon="-0.3669973"><ele>307.0</ele><time>2026-04-19T16:38:14.999Z</time></trkpt><trkpt lat="39.8443009" lon="-0.366961"><ele>307.16666666666663</ele><time>2026-04-19T16:38:16Z</time></trkpt><trkpt lat="39.8443912" lon="-0.3669494"><ele>307.3333333333333</ele><time>2026-04-19T16:38:16.999Z</time></trkpt><trkpt lat="39.8444726" lon="-0.3669536"><ele>307.5</ele><time>2026-04-19T16:38:17.999Z</time></trkpt><trkpt lat="39.844558" lon="-0.3669606"><ele>307.6666666666667</ele><time>2026-04-19T16:38:18.999Z</time></trkpt><trkpt lat="39.844646" lon="-0.3669708"><ele>307.83333333333337</ele><time>2026-04-19T16:38:19.999Z</time></trkpt><trkpt lat="39.8447386" lon="-0.3669794"><ele>308.0</ele><time>2026-04-19T16:38:20.999Z</time></trkpt><trkpt lat="39.8448253" lon="-0.3669881"><ele>308.0</ele><time>2026-04-19T16:38:21.999Z</time></trkpt><trkpt lat="39.8449003" lon="-0.3670007"><ele>308.0</ele><time>2026-04-19T16:38:23Z</time></trkpt><trkpt lat="39.8449579" lon="-0.3670379"><ele>308.0</ele><time>2026-04-19T16:38:24Z</time></trkpt><trkpt lat="39.8450295" lon="-0.3671823"><ele>308.0</ele><time>2026-04-19T16:38:25.999Z</time></trkpt><trkpt lat="39.8450517" lon="-0.3672867"><ele>308.0</ele><time>2026-04-19T16:38:26.999Z</time></trkpt><trkpt lat="39.845073" lon="-0.3674016"><ele>308.0</ele><time>2026-04-19T16:38:27.999Z</time></trkpt><trkpt lat="39.845096" lon="-0.3674923"><ele>308.0</ele><time>2026-04-19T16:38:28.999Z</time></trkpt><trkpt lat="39.8451289" lon="-0.367567"><ele>308.0</ele><time>2026-04-19T16:38:29.999Z</time></trkpt><trkpt lat="39.8451803" lon="-0.367625"><ele>308.0</ele><time>2026-04-19T16:38:30.999Z</time></trkpt><trkpt lat="39.8452464" lon="-0.3676495"><ele>308.0</ele><time>2026-04-19T16:38:32Z</time></trkpt><trkpt lat="39.8453345" lon="-0.3676446"><ele>308.0</ele><time>2026-04-19T16:38:32.999Z</time></trkpt><trkpt lat="39.8454358" lon="-0.367639"><ele>308.0</ele><time>2026-04-19T16:38:34Z</time></trkpt><trkpt lat="39.8455217" lon="-0.3676437"><ele>309.4</ele><time>2026-04-19T16:38:35Z</time></trkpt><trkpt lat="39.8456072" lon="-0.3676532"><ele>310.8</ele><time>2026-04-19T16:38:35.999Z</time></trkpt><trkpt lat="39.8457026" lon="-0.3676493"><ele>312.2</ele><time>2026-04-19T16:38:36.999Z</time></trkpt><trkpt lat="39.8458112" lon="-0.3676286"><ele>313.6</ele><time>2026-04-19T16:38:38Z</time></trkpt><trkpt lat="39.8459437" lon="-0.3676213"><ele>315.0</ele><time>2026-04-19T16:38:38.999Z</time></trkpt><trkpt lat="39.8460791" lon="-0.3676225"><ele>315.75</ele><time>2026-04-19T16:38:39.999Z</time></trkpt><trkpt lat="39.8462049" lon="-0.3676005"><ele>316.5</ele><time>2026-04-19T16:38:40.999Z</time></trkpt><trkpt lat="39.8463233" lon="-0.3675806"><ele>317.25</ele><time>2026-04-19T16:38:42Z</time></trkpt><trkpt lat="39.8464274" lon="-0.3675827"><ele>318.0</ele><time>2026-04-19T16:38:42.999Z</time></trkpt><trkpt lat="39.8465326" lon="-0.3675694"><ele>318.0</ele><time>2026-04-19T16:38:43.999Z</time></trkpt><trkpt lat="39.8466358" lon="-0.3675421"><ele>318.0</ele><time>2026-04-19T16:38:44.999Z</time></trkpt><trkpt lat="39.8467264" lon="-0.3675146"><ele>318.0</ele><time>2026-04-19T16:38:45.999Z</time></trkpt><trkpt lat="39.8468074" lon="-0.3674909"><ele>318.0</ele><time>2026-04-19T16:38:46.999Z</time></trkpt><trkpt lat="39.8468905" lon="-0.3674802"><ele>318.0</ele><time>2026-04-19T16:38:47.999Z</time></trkpt><trkpt lat="39.8469715" lon="-0.3674908"><ele>318.0</ele><time>2026-04-19T16:38:48.999Z</time></trkpt><trkpt lat="39.8470512" lon="-0.3675122"><ele>319.4</ele><time>2026-04-19T16:38:50Z</time></trkpt><trkpt lat="39.847132" lon="-0.3675485"><ele>320.8</ele><time>2026-04-19T16:38:50.999Z</time></trkpt><trkpt lat="39.8472048" lon="-0.3676091"><ele>322.2</ele><time>2026-04-19T16:38:52Z</time></trkpt><trkpt lat="39.8472642" lon="-0.367694"><ele>323.6</ele><time>2026-04-19T16:38:52.999Z</time></trkpt><trkpt lat="39.8473374" lon="-0.367773"><ele>325.0</ele><time>2026-04-19T16:38:53.999Z</time></trkpt><trkpt lat="39.8474267" lon="-0.367839"><ele>325.0</ele><time>2026-04-19T16:38:54.999Z</time></trkpt><trkpt lat="39.8475218" lon="-0.3678995"><ele>325.0</ele><time>2026-04-19T16:38:56Z</time></trkpt><trkpt lat="39.8476128" lon="-0.3679442"><ele>325.0</ele><time>2026-04-19T16:38:57Z</time></trkpt><trkpt lat="39.847706" lon="-0.3679818"><ele>325.0</ele><time>2026-04-19T16:38:58Z</time></trkpt><trkpt lat="39.8478016" lon="-0.3680122"><ele>325.0</ele><time>2026-04-19T16:38:59Z</time></trkpt><trkpt lat="39.8478942" lon="-0.3680289"><ele>326.2</ele><time>2026-04-19T16:38:59.999Z</time></trkpt><trkpt lat="39.8479889" lon="-0.3680333"><ele>327.4</ele><time>2026-04-19T16:39:01Z</time></trkpt><trkpt lat="39.848087" lon="-0.3680231"><ele>328.6</ele><time>2026-04-19T16:39:01.999Z</time></trkpt><trkpt lat="39.8481828" lon="-0.3679984"><ele>329.8</ele><time>2026-04-19T16:39:03Z</time></trkpt><trkpt lat="39.8482769" lon="-0.3679603"><ele>331.0</ele><time>2026-04-19T16:39:04Z</time></trkpt><trkpt lat="39.8483613" lon="-0.3679182"><ele>331.0</ele><time>2026-04-19T16:39:04.999Z</time></trkpt><trkpt lat="39.8484336" lon="-0.367888"><ele>331.0</ele><time>2026-04-19T16:39:05.999Z</time></trkpt><trkpt lat="39.8484952" lon="-0.3678697"><ele>331.0</ele><time>2026-04-19T16:39:06.999Z</time></trkpt><trkpt lat="39.8486091" lon="-0.3678649"><ele>331.0</ele><time>2026-04-19T16:39:08.999Z</time></trkpt><trkpt lat="39.8487298" lon="-0.3678755"><ele>331.0</ele><time>2026-04-19T16:39:10.999Z</time></trkpt><trkpt lat="39.8487955" lon="-0.3678689"><ele>331.0</ele><time>2026-04-19T16:39:12Z</time></trkpt><trkpt lat="39.8488658" lon="-0.3678489"><ele>332.5</ele><time>2026-04-19T16:39:12.999Z</time></trkpt><trkpt lat="39.8489419" lon="-0.3678179"><ele>334.0</ele><time>2026-04-19T16:39:14Z</time></trkpt><trkpt lat="39.8490195" lon="-0.3677831"><ele>335.5</ele><time>2026-04-19T16:39:14.999Z</time></trkpt><trkpt lat="39.8490922" lon="-0.3677508"><ele>337.0</ele><time>2026-04-19T16:39:16Z</time></trkpt><trkpt lat="39.8491633" lon="-0.3677302"><ele>338.5</ele><time>2026-04-19T16:39:16.999Z</time></trkpt><trkpt lat="39.849227" lon="-0.3676993"><ele>340.0</ele><time>2026-04-19T16:39:18Z</time></trkpt><trkpt lat="39.8492957" lon="-0.3676307"><ele>340.0</ele><time>2026-04-19T16:39:19.999Z</time></trkpt><trkpt lat="39.8493103" lon="-0.3675054"><ele>340.0</ele><time>2026-04-19T16:39:21.999Z</time></trkpt><trkpt lat="39.8492898" lon="-0.3674124"><ele>340.0</ele><time>2026-04-19T16:39:22.999Z</time></trkpt><trkpt lat="39.8492441" lon="-0.3673107"><ele>340.0</ele><time>2026-04-19T16:39:23.999Z</time></trkpt><trkpt lat="39.8491988" lon="-0.3672326"><ele>340.0</ele><time>2026-04-19T16:39:24.999Z</time></trkpt><trkpt lat="39.8491396" lon="-0.367128"><ele>340.0</ele><time>2026-04-19T16:39:26.999Z</time></trkpt><trkpt lat="39.8491693" lon="-0.3670219"><ele>340.3333333333333</ele><time>2026-04-19T16:39:29.999Z</time></trkpt><trkpt lat="39.8492627" lon="-0.3669703"><ele>340.66666666666663</ele><time>2026-04-19T16:39:31.999Z</time></trkpt><trkpt lat="39.8493134" lon="-0.3669191"><ele>341.0</ele><time>2026-04-19T16:39:32.999Z</time></trkpt><trkpt lat="39.8493641" lon="-0.3668572"><ele>341.3333333333333</ele><time>2026-04-19T16:39:33.999Z</time></trkpt><trkpt lat="39.8494136" lon="-0.366802"><ele>341.6666666666667</ele><time>2026-04-19T16:39:34.999Z</time></trkpt><trkpt lat="39.8494744" lon="-0.3667561"><ele>342.0</ele><time>2026-04-19T16:39:35.999Z</time></trkpt><trkpt lat="39.8495888" lon="-0.3667331"><ele>343.1666666666667</ele><time>2026-04-19T16:39:37.999Z</time></trkpt><trkpt lat="39.8496574" lon="-0.3667619"><ele>344.3333333333333</ele><time>2026-04-19T16:39:38.999Z</time></trkpt><trkpt lat="39.8497305" lon="-0.3668107"><ele>345.5</ele><time>2026-04-19T16:39:39.999Z</time></trkpt><trkpt lat="39.8498055" lon="-0.3668644"><ele>346.66666666666663</ele><time>2026-04-19T16:39:40.999Z</time></trkpt><trkpt lat="39.8498709" lon="-0.3669088"><ele>347.8333333333333</ele><time>2026-04-19T16:39:41.999Z</time></trkpt><trkpt lat="39.8499246" lon="-0.3669633"><ele>349.0</ele><time>2026-04-19T16:39:43Z</time></trkpt><trkpt lat="39.8499681" lon="-0.3670359"><ele>349.0</ele><time>2026-04-19T16:39:43.999Z</time></trkpt><trkpt lat="39.8500029" lon="-0.3671847"><ele>349.0</ele><time>2026-04-19T16:39:45.999Z</time></trkpt><trkpt lat="39.8500688" lon="-0.367282"><ele>349.0</ele><time>2026-04-19T16:39:47.999Z</time></trkpt><trkpt lat="39.8501853" lon="-0.3673139"><ele>349.0</ele><time>2026-04-19T16:39:49.999Z</time></trkpt><trkpt lat="39.8502597" lon="-0.3673147"><ele>349.0</ele><time>2026-04-19T16:39:50.999Z</time></trkpt><trkpt lat="39.8503456" lon="-0.3673165"><ele>350.5</ele><time>2026-04-19T16:39:52Z</time></trkpt><trkpt lat="39.8504335" lon="-0.3673259"><ele>352.0</ele><time>2026-04-19T16:39:52.999Z</time></trkpt><trkpt lat="39.8505013" lon="-0.3673339"><ele>353.5</ele><time>2026-04-19T16:39:53.999Z</time></trkpt><trkpt lat="39.8505738" lon="-0.3673269"><ele>355.0</ele><time>2026-04-19T16:39:54.999Z</time></trkpt><trkpt lat="39.850643" lon="-0.3673112"><ele>356.5</ele><time>2026-04-19T16:39:55.999Z</time></trkpt><trkpt lat="39.8507121" lon="-0.3672852"><ele>358.0</ele><time>2026-04-19T16:39:56.999Z</time></trkpt><trkpt lat="39.8507844" lon="-0.3672371"><ele>358.5</ele><time>2026-04-19T16:39:58.999Z</time></trkpt><trkpt lat="39.8507985" lon="-0.3671336"><ele>359.0</ele><time>2026-04-19T16:40:00.999Z</time></trkpt><trkpt lat="39.8507855" lon="-0.3670335"><ele>359.5</ele><time>2026-04-19T16:40:01.999Z</time></trkpt><trkpt lat="39.8507636" lon="-0.3669177"><ele>360.0</ele><time>2026-04-19T16:40:03Z</time></trkpt><trkpt lat="39.8507436" lon="-0.3667987"><ele>360.5</ele><time>2026-04-19T16:40:04Z</time></trkpt><trkpt lat="39.8507224" lon="-0.3666858"><ele>361.0</ele><time>2026-04-19T16:40:05Z</time></trkpt><trkpt lat="39.850703" lon="-0.3665737"><ele>361.0</ele><time>2026-04-19T16:40:05.999Z</time></trkpt><trkpt lat="39.8506817" lon="-0.3664665"><ele>361.0</ele><time>2026-04-19T16:40:07Z</time></trkpt><trkpt lat="39.8506641" lon="-0.3663588"><ele>361.0</ele><time>2026-04-19T16:40:08Z</time></trkpt><trkpt lat="39.850639" lon="-0.366258"><ele>361.0</ele><time>2026-04-19T16:40:08.999Z</time></trkpt><trkpt lat="39.8506072" lon="-0.3661569"><ele>361.0</ele><time>2026-04-19T16:40:09.999Z</time></trkpt><trkpt lat="39.8505691" lon="-0.3660536"><ele>361.0</ele><time>2026-04-19T16:40:10.999Z</time></trkpt><trkpt lat="39.8505283" lon="-0.3659557"><ele>361.5714285714286</ele><time>2026-04-19T16:40:11.999Z</time></trkpt><trkpt lat="39.8504967" lon="-0.3658692"><ele>362.1428571428571</ele><time>2026-04-19T16:40:12.999Z</time></trkpt><trkpt lat="39.8504714" lon="-0.3657936"><ele>362.7142857142857</ele><time>2026-04-19T16:40:14Z</time></trkpt><trkpt lat="39.8504492" lon="-0.3657121"><ele>363.28571428571433</ele><time>2026-04-19T16:40:15Z</time></trkpt><trkpt lat="39.8504379" lon="-0.3656206"><ele>363.8571428571429</ele><time>2026-04-19T16:40:15.999Z</time></trkpt><trkpt lat="39.8504294" lon="-0.3655202"><ele>364.42857142857144</ele><time>2026-04-19T16:40:16.999Z</time></trkpt><trkpt lat="39.8504272" lon="-0.3654085"><ele>365.0</ele><time>2026-04-19T16:40:17.999Z</time></trkpt><trkpt lat="39.8504237" lon="-0.3653008"><ele>365.6666666666667</ele><time>2026-04-19T16:40:19Z</time></trkpt><trkpt lat="39.8504178" lon="-0.3651897"><ele>366.33333333333337</ele><time>2026-04-19T16:40:19.999Z</time></trkpt><trkpt lat="39.8504186" lon="-0.3650913"><ele>367.0</ele><time>2026-04-19T16:40:20.999Z</time></trkpt><trkpt lat="39.850425" lon="-0.364995"><ele>367.6666666666667</ele><time>2026-04-19T16:40:21.999Z</time></trkpt><trkpt lat="39.850437" lon="-0.3648948"><ele>368.3333333333333</ele><time>2026-04-19T16:40:22.999Z</time></trkpt><trkpt lat="39.8504608" lon="-0.3647991"><ele>369.0</ele><time>2026-04-19T16:40:23.999Z</time></trkpt><trkpt lat="39.8504951" lon="-0.3647215"><ele>369.5</ele><time>2026-04-19T16:40:25Z</time></trkpt><trkpt lat="39.8505408" lon="-0.3646353"><ele>370.0</ele><time>2026-04-19T16:40:25.999Z</time></trkpt><trkpt lat="39.8505946" lon="-0.364545"><ele>370.5</ele><time>2026-04-19T16:40:27Z</time></trkpt><trkpt lat="39.8506475" lon="-0.3644477"><ele>371.0</ele><time>2026-04-19T16:40:27.999Z</time></trkpt><trkpt lat="39.8507018" lon="-0.3643486"><ele>371.5</ele><time>2026-04-19T16:40:28.999Z</time></trkpt><trkpt lat="39.8507485" lon="-0.3642396"><ele>372.0</ele><time>2026-04-19T16:40:29.999Z</time></trkpt><trkpt lat="39.8507889" lon="-0.36412"><ele>372.0</ele><time>2026-04-19T16:40:30.999Z</time></trkpt><trkpt lat="39.8508227" lon="-0.3639939"><ele>372.0</ele><time>2026-04-19T16:40:31.999Z</time></trkpt><trkpt lat="39.8508565" lon="-0.3638639"><ele>372.0</ele><time>2026-04-19T16:40:32.999Z</time></trkpt><trkpt lat="39.8508865" lon="-0.3637428"><ele>372.0</ele><time>2026-04-19T16:40:33.999Z</time></trkpt><trkpt lat="39.850911" lon="-0.3636381"><ele>372.0</ele><time>2026-04-19T16:40:34.999Z</time></trkpt><trkpt lat="39.8509285" lon="-0.3635527"><ele>374.0</ele><time>2026-04-19T16:40:35.999Z</time></trkpt><trkpt lat="39.8510047" lon="-0.3634181"><ele>376.0</ele><time>2026-04-19T16:40:37.999Z</time></trkpt><trkpt lat="39.8510595" lon="-0.3633613"><ele>378.0</ele><time>2026-04-19T16:40:38.999Z</time></trkpt><trkpt lat="39.851104" lon="-0.3632924"><ele>380.0</ele><time>2026-04-19T16:40:39.999Z</time></trkpt><trkpt lat="39.8511492" lon="-0.3632071"><ele>382.0</ele><time>2026-04-19T16:40:41Z</time></trkpt><trkpt lat="39.8511904" lon="-0.3631219"><ele>384.0</ele><time>2026-04-19T16:40:41.999Z</time></trkpt><trkpt lat="39.8512179" lon="-0.3630395"><ele>384.6666666666667</ele><time>2026-04-19T16:40:43Z</time></trkpt><trkpt lat="39.8512235" lon="-0.3629518"><ele>385.33333333333337</ele><time>2026-04-19T16:40:43.999Z</time></trkpt><trkpt lat="39.8512052" lon="-0.3628652"><ele>386.0</ele><time>2026-04-19T16:40:44.999Z</time></trkpt><trkpt lat="39.8511733" lon="-0.3627803"><ele>386.6666666666667</ele><time>2026-04-19T16:40:45.999Z</time></trkpt><trkpt lat="39.8511337" lon="-0.3626913"><ele>387.33333333333337</ele><time>2026-04-19T16:40:46.999Z</time></trkpt><trkpt lat="39.8510832" lon="-0.3625708"><ele>388.0</ele><time>2026-04-19T16:40:47.999Z</time></trkpt><trkpt lat="39.8510354" lon="-0.3624629"><ele>388.00000000000006</ele><time>2026-04-19T16:40:48.999Z</time></trkpt><trkpt lat="39.8509948" lon="-0.3623621"><ele>388.0</ele><time>2026-04-19T16:40:49.999Z</time></trkpt><trkpt lat="39.8509678" lon="-0.3622658"><ele>388.0</ele><time>2026-04-19T16:40:50.999Z</time></trkpt><trkpt lat="39.8509505" lon="-0.3621401"><ele>388.0</ele><time>2026-04-19T16:40:51.999Z</time></trkpt><trkpt lat="39.8509452" lon="-0.3620158"><ele>388.00000000000006</ele><time>2026-04-19T16:40:53Z</time></trkpt><trkpt lat="39.8509473" lon="-0.3619258"><ele>388.0</ele><time>2026-04-19T16:40:53.999Z</time></trkpt><trkpt lat="39.8509781" lon="-0.3618033"><ele>388.4</ele><time>2026-04-19T16:40:55.999Z</time></trkpt><trkpt lat="39.8510245" lon="-0.3617277"><ele>388.79999999999995</ele><time>2026-04-19T16:40:56.999Z</time></trkpt><trkpt lat="39.8510783" lon="-0.361628"><ele>389.2</ele><time>2026-04-19T16:40:57.999Z</time></trkpt><trkpt lat="39.8511373" lon="-0.3615092"><ele>389.6</ele><time>2026-04-19T16:40:59Z</time></trkpt><trkpt lat="39.8512" lon="-0.3613908"><ele>390.0</ele><time>2026-04-19T16:40:59.999Z</time></trkpt><trkpt lat="39.8512615" lon="-0.3612754"><ele>389.2</ele><time>2026-04-19T16:41:00.999Z</time></trkpt><trkpt lat="39.8513262" lon="-0.3611649"><ele>388.4</ele><time>2026-04-19T16:41:01.999Z</time></trkpt><trkpt lat="39.8513868" lon="-0.361061"><ele>387.6</ele><time>2026-04-19T16:41:02.999Z</time></trkpt><trkpt lat="39.8514525" lon="-0.3609665"><ele>386.8</ele><time>2026-04-19T16:41:03.999Z</time></trkpt><trkpt lat="39.8515197" lon="-0.360889"><ele>386.0</ele><time>2026-04-19T16:41:04.999Z</time></trkpt><trkpt lat="39.8515993" lon="-0.3607994"><ele>385.99999999999994</ele><time>2026-04-19T16:41:05.999Z</time></trkpt><trkpt lat="39.8516744" lon="-0.3607182"><ele>386.0</ele><time>2026-04-19T16:41:07Z</time></trkpt><trkpt lat="39.8517442" lon="-0.3606514"><ele>386.0</ele><time>2026-04-19T16:41:07.999Z</time></trkpt><trkpt lat="39.8518274" lon="-0.3605858"><ele>386.0</ele><time>2026-04-19T16:41:08.999Z</time></trkpt><trkpt lat="39.8519058" lon="-0.3605351"><ele>385.99999999999994</ele><time>2026-04-19T16:41:09.999Z</time></trkpt><trkpt lat="39.8519809" lon="-0.360498"><ele>386.0</ele><time>2026-04-19T16:41:11Z</time></trkpt><trkpt lat="39.8520613" lon="-0.3604718"><ele>386.8</ele><time>2026-04-19T16:41:11.999Z</time></trkpt><trkpt lat="39.8521476" lon="-0.3604636"><ele>387.6</ele><time>2026-04-19T16:41:13Z</time></trkpt><trkpt lat="39.8522518" lon="-0.3604685"><ele>388.4</ele><time>2026-04-19T16:41:13.999Z</time></trkpt><trkpt lat="39.8523623" lon="-0.3604904"><ele>389.2</ele><time>2026-04-19T16:41:14.999Z</time></trkpt><trkpt lat="39.8524742" lon="-0.3605252"><ele>390.0</ele><time>2026-04-19T16:41:16Z</time></trkpt><trkpt lat="39.8525694" lon="-0.360555"><ele>391.5</ele><time>2026-04-19T16:41:17Z</time></trkpt><trkpt lat="39.8526676" lon="-0.3605852"><ele>393.0</ele><time>2026-04-19T16:41:17.999Z</time></trkpt><trkpt lat="39.8527695" lon="-0.3605998"><ele>394.5</ele><time>2026-04-19T16:41:18.999Z</time></trkpt><trkpt lat="39.85286" lon="-0.3605984"><ele>396.0</ele><time>2026-04-19T16:41:19.999Z</time></trkpt><trkpt lat="39.8529427" lon="-0.3605819"><ele>397.5</ele><time>2026-04-19T16:41:20.999Z</time></trkpt><trkpt lat="39.853008" lon="-0.3605465"><ele>399.0</ele><time>2026-04-19T16:41:21.999Z</time></trkpt><trkpt lat="39.8530667" lon="-0.3604914"><ele>399.0</ele><time>2026-04-19T16:41:22.999Z</time></trkpt><trkpt lat="39.8531267" lon="-0.3604148"><ele>399.0</ele><time>2026-04-19T16:41:23.999Z</time></trkpt><trkpt lat="39.8531848" lon="-0.3603309"><ele>399.0</ele><time>2026-04-19T16:41:25Z</time></trkpt><trkpt lat="39.8532447" lon="-0.3602449"><ele>399.0</ele><time>2026-04-19T16:41:25.999Z</time></trkpt><trkpt lat="39.8533055" lon="-0.360179"><ele>399.0</ele><time>2026-04-19T16:41:26.999Z</time></trkpt><trkpt lat="39.8533758" lon="-0.3601184"><ele>399.0</ele><time>2026-04-19T16:41:27.999Z</time></trkpt><trkpt lat="39.8534498" lon="-0.3600571"><ele>401.0</ele><time>2026-04-19T16:41:28.999Z</time></trkpt><trkpt lat="39.8535264" lon="-0.3600012"><ele>403.0</ele><time>2026-04-19T16:41:29.999Z</time></trkpt><trkpt lat="39.853597" lon="-0.3599476"><ele>405.0</ele><time>2026-04-19T16:41:30.999Z</time></trkpt><trkpt lat="39.853657" lon="-0.3598911"><ele>407.0</ele><time>2026-04-19T16:41:31.999Z</time></trkpt><trkpt lat="39.8537204" lon="-0.3598274"><ele>409.0</ele><time>2026-04-19T16:41:33Z</time></trkpt><trkpt lat="39.85378" lon="-0.3597537"><ele>411.0</ele><time>2026-04-19T16:41:33.999Z</time></trkpt><trkpt lat="39.853848" lon="-0.3596865"><ele>411.0</ele><time>2026-04-19T16:41:34.999Z</time></trkpt><trkpt lat="39.8539236" lon="-0.359608"><ele>411.0</ele><time>2026-04-19T16:41:36Z</time></trkpt><trkpt lat="39.853994" lon="-0.3595247"><ele>411.0</ele><time>2026-04-19T16:41:36.999Z</time></trkpt><trkpt lat="39.8540627" lon="-0.3594578"><ele>411.0</ele><time>2026-04-19T16:41:37.999Z</time></trkpt><trkpt lat="39.854132" lon="-0.3593807"><ele>411.0</ele><time>2026-04-19T16:41:38.999Z</time></trkpt><trkpt lat="39.8541881" lon="-0.3592907"><ele>411.0</ele><time>2026-04-19T16:41:39.999Z</time></trkpt><trkpt lat="39.8542353" lon="-0.3591868"><ele>411.0</ele><time>2026-04-19T16:41:40.999Z</time></trkpt><trkpt lat="39.8542737" lon="-0.3590704"><ele>411.0</ele><time>2026-04-19T16:41:42Z</time></trkpt><trkpt lat="39.8543073" lon="-0.3589687"><ele>411.0</ele><time>2026-04-19T16:41:42.999Z</time></trkpt><trkpt lat="39.8543407" lon="-0.3588649"><ele>411.0</ele><time>2026-04-19T16:41:43.999Z</time></trkpt><trkpt lat="39.8543689" lon="-0.3587779"><ele>411.0</ele><time>2026-04-19T16:41:45Z</time></trkpt><trkpt lat="39.8544419" lon="-0.3586703"><ele>414.0</ele><time>2026-04-19T16:41:46.999Z</time></trkpt><trkpt lat="39.8545011" lon="-0.3586254"><ele>417.0</ele><time>2026-04-19T16:41:47.999Z</time></trkpt><trkpt lat="39.8545756" lon="-0.3585892"><ele>420.0</ele><time>2026-04-19T16:41:49Z</time></trkpt><trkpt lat="39.8546407" lon="-0.3585516"><ele>423.0</ele><time>2026-04-19T16:41:49.999Z</time></trkpt><trkpt lat="39.854716" lon="-0.3584352"><ele>426.0</ele><time>2026-04-19T16:41:51.999Z</time></trkpt><trkpt lat="39.8547341" lon="-0.3583454"><ele>429.0</ele><time>2026-04-19T16:41:52.999Z</time></trkpt><trkpt lat="39.8547435" lon="-0.3582247"><ele>429.0</ele><time>2026-04-19T16:41:53.999Z</time></trkpt><trkpt lat="39.8547482" lon="-0.3581278"><ele>429.0</ele><time>2026-04-19T16:41:54.999Z</time></trkpt><trkpt lat="39.8547636" lon="-0.3580403"><ele>429.0</ele><time>2026-04-19T16:41:55.999Z</time></trkpt><trkpt lat="39.8548303" lon="-0.3579009"><ele>429.0</ele><time>2026-04-19T16:41:58Z</time></trkpt><trkpt lat="39.8548958" lon="-0.3578312"><ele>429.0</ele><time>2026-04-19T16:41:58.999Z</time></trkpt><trkpt lat="39.8549728" lon="-0.3577636"><ele>429.0</ele><time>2026-04-19T16:41:59.999Z</time></trkpt><trkpt lat="39.8550346" lon="-0.3577095"><ele>428.1666666666667</ele><time>2026-04-19T16:42:00.999Z</time></trkpt><trkpt lat="39.8551114" lon="-0.3576605"><ele>427.33333333333337</ele><time>2026-04-19T16:42:02Z</time></trkpt><trkpt lat="39.8551829" lon="-0.3576268"><ele>426.5</ele><time>2026-04-19T16:42:02.999Z</time></trkpt><trkpt lat="39.8552426" lon="-0.3575817"><ele>425.6666666666667</ele><time>2026-04-19T16:42:04Z</time></trkpt><trkpt lat="39.855288" lon="-0.357513"><ele>424.83333333333337</ele><time>2026-04-19T16:42:04.999Z</time></trkpt><trkpt lat="39.8553243" lon="-0.3574109"><ele>424.0</ele><time>2026-04-19T16:42:05.999Z</time></trkpt><trkpt lat="39.8553562" lon="-0.3573188"><ele>426.33333333333337</ele><time>2026-04-19T16:42:07Z</time></trkpt><trkpt lat="39.8554229" lon="-0.3572096"><ele>428.6666666666667</ele><time>2026-04-19T16:42:08.999Z</time></trkpt><trkpt lat="39.8554841" lon="-0.3571706"><ele>431.0</ele><time>2026-04-19T16:42:09.999Z</time></trkpt><trkpt lat="39.8555571" lon="-0.3571446"><ele>433.33333333333337</ele><time>2026-04-19T16:42:10.999Z</time></trkpt><trkpt lat="39.8556341" lon="-0.3571107"><ele>435.6666666666667</ele><time>2026-04-19T16:42:11.999Z</time></trkpt><trkpt lat="39.8556927" lon="-0.3570747"><ele>438.0</ele><time>2026-04-19T16:42:13Z</time></trkpt><trkpt lat="39.8557848" lon="-0.3569871"><ele>438.0</ele><time>2026-04-19T16:42:15Z</time></trkpt><trkpt lat="39.8558366" lon="-0.3568948"><ele>437.99999999999994</ele><time>2026-04-19T16:42:16.999Z</time></trkpt><trkpt lat="39.8558492" lon="-0.356754"><ele>437.99999999999994</ele><time>2026-04-19T16:42:18.999Z</time></trkpt><trkpt lat="39.8558426" lon="-0.3566618"><ele>438.0</ele><time>2026-04-19T16:42:19.999Z</time></trkpt><trkpt lat="39.8558363" lon="-0.3565493"><ele>438.0</ele><time>2026-04-19T16:42:20.999Z</time></trkpt><trkpt lat="39.8558276" lon="-0.3564239"><ele>439.1666666666667</ele><time>2026-04-19T16:42:21.999Z</time></trkpt><trkpt lat="39.8558187" lon="-0.3562715"><ele>440.33333333333337</ele><time>2026-04-19T16:42:23Z</time></trkpt><trkpt lat="39.85581" lon="-0.3561594"><ele>441.5</ele><time>2026-04-19T16:42:24Z</time></trkpt><trkpt lat="39.8557967" lon="-0.35607"><ele>442.6666666666667</ele><time>2026-04-19T16:42:24.999Z</time></trkpt><trkpt lat="39.8557366" lon="-0.3559534"><ele>443.83333333333337</ele><time>2026-04-19T16:42:26.999Z</time></trkpt><trkpt lat="39.8556816" lon="-0.3559124"><ele>445.0</ele><time>2026-04-19T16:42:27.999Z</time></trkpt><trkpt lat="39.8555976" lon="-0.3558586"><ele>445.0</ele><time>2026-04-19T16:42:29.999Z</time></trkpt><trkpt lat="39.8555671" lon="-0.3557539"><ele>445.0</ele><time>2026-04-19T16:42:31.999Z</time></trkpt><trkpt lat="39.8555899" lon="-0.3555918"><ele>445.0</ele><time>2026-04-19T16:42:34Z</time></trkpt><trkpt lat="39.8556113" lon="-0.3554855"><ele>445.0</ele><time>2026-04-19T16:42:35Z</time></trkpt><trkpt lat="39.8556376" lon="-0.3553669"><ele>445.0</ele><time>2026-04-19T16:42:35.999Z</time></trkpt><trkpt lat="39.8556675" lon="-0.3552475"><ele>445.00000000000006</ele><time>2026-04-19T16:42:37Z</time></trkpt><trkpt lat="39.8556919" lon="-0.3551259"><ele>445.0</ele><time>2026-04-19T16:42:37.999Z</time></trkpt><trkpt lat="39.8557092" lon="-0.3550239"><ele>445.0</ele><time>2026-04-19T16:42:38.999Z</time></trkpt><trkpt lat="39.8557264" lon="-0.3548852"><ele>445.0</ele><time>2026-04-19T16:42:40.999Z</time></trkpt><trkpt lat="39.8557357" lon="-0.3548003"><ele>445.00000000000006</ele><time>2026-04-19T16:42:42.999Z</time></trkpt><trkpt lat="39.8557779" lon="-0.3547181"><ele>445.0</ele><time>2026-04-19T16:42:44.999Z</time></trkpt><trkpt lat="39.8558427" lon="-0.354689"><ele>445.50000000000006</ele><time>2026-04-19T16:42:47Z</time></trkpt><trkpt lat="39.8558945" lon="-0.3547483"><ele>446.0</ele><time>2026-04-19T16:42:48.999Z</time></trkpt><trkpt lat="39.855903" lon="-0.3548358"><ele>446.5</ele><time>2026-04-19T16:42:49.999Z</time></trkpt><trkpt lat="39.855906" lon="-0.3549179"><ele>447.0</ele><time>2026-04-19T16:42:50.999Z</time></trkpt><trkpt lat="39.8558838" lon="-0.3550577"><ele>447.50000000000006</ele><time>2026-04-19T16:42:52.999Z</time></trkpt><trkpt lat="39.8558767" lon="-0.3551847"><ele>448.0</ele><time>2026-04-19T16:42:54.999Z</time></trkpt><trkpt lat="39.8558968" lon="-0.3552738"><ele>451.83333333333337</ele><time>2026-04-19T16:42:57Z</time></trkpt><trkpt lat="39.855966" lon="-0.3552581"><ele>455.6666666666667</ele><time>2026-04-19T16:43:01Z</time></trkpt><trkpt lat="39.8559794" lon="-0.3551651"><ele>459.5</ele><time>2026-04-19T16:43:20.999Z</time></trkpt><trkpt lat="39.8560366" lon="-0.3550658"><ele>463.33333333333337</ele><time>2026-04-19T16:43:23Z</time></trkpt><trkpt lat="39.8560873" lon="-0.3549788"><ele>467.1666666666667</ele><time>2026-04-19T16:43:24.999Z</time></trkpt><trkpt lat="39.8561622" lon="-0.3549204"><ele>471.0</ele><time>2026-04-19T16:43:26.999Z</time></trkpt><trkpt lat="39.8562552" lon="-0.3549234"><ele>471.0</ele><time>2026-04-19T16:43:29Z</time></trkpt><trkpt lat="39.8563508" lon="-0.3549501"><ele>471.0</ele><time>2026-04-19T16:43:32.311Z</time></trkpt><trkpt lat="39.85644" lon="-0.3550194"><ele>471.0</ele><time>2026-04-19T16:43:33.999Z</time></trkpt><trkpt lat="39.856516" lon="-0.3551186"><ele>471.0</ele><time>2026-04-19T16:43:35.999Z</time></trkpt><trkpt lat="39.8565615" lon="-0.3552392"><ele>471.0</ele><time>2026-04-19T16:43:37.999Z</time></trkpt><trkpt lat="39.8566096" lon="-0.3553646"><ele>471.0</ele><time>2026-04-19T16:43:39.999Z</time></trkpt><trkpt lat="39.8566653" lon="-0.3555027"><ele>471.0</ele><time>2026-04-19T16:43:42Z</time></trkpt><trkpt lat="39.8566876" lon="-0.3556107"><ele>471.0</ele><time>2026-04-19T16:43:44Z</time></trkpt><trkpt lat="39.8567096" lon="-0.3557471"><ele>471.0</ele><time>2026-04-19T16:43:45.999Z</time></trkpt><trkpt lat="39.8567434" lon="-0.3558834"><ele>471.0</ele><time>2026-04-19T16:43:47.999Z</time></trkpt><trkpt lat="39.8568068" lon="-0.3560085"><ele>474.4</ele><time>2026-04-19T16:43:50Z</time></trkpt><trkpt lat="39.8568726" lon="-0.3561146"><ele>477.8</ele><time>2026-04-19T16:43:51.999Z</time></trkpt><trkpt lat="39.856936" lon="-0.3562266"><ele>481.19999999999993</ele><time>2026-04-19T16:43:53.999Z</time></trkpt><trkpt lat="39.8569755" lon="-0.356361"><ele>484.59999999999997</ele><time>2026-04-19T16:43:55.999Z</time></trkpt><trkpt lat="39.8570069" lon="-0.3564792"><ele>488.0</ele><time>2026-04-19T16:43:58Z</time></trkpt><trkpt lat="39.8570477" lon="-0.3566283"><ele>488.0</ele><time>2026-04-19T16:43:59.999Z</time></trkpt><trkpt lat="39.8570696" lon="-0.3567121"><ele>487.99999999999994</ele><time>2026-04-19T16:44:00.999Z</time></trkpt><trkpt lat="39.8571305" lon="-0.3568383"><ele>487.99999999999994</ele><time>2026-04-19T16:44:03Z</time></trkpt><trkpt lat="39.8572116" lon="-0.3569544"><ele>488.0</ele><time>2026-04-19T16:44:04.999Z</time></trkpt><trkpt lat="39.8572682" lon="-0.3570477"><ele>488.0</ele><time>2026-04-19T16:44:07Z</time></trkpt><trkpt lat="39.8572673" lon="-0.3571531"><ele>487.75</ele><time>2026-04-19T16:44:08.999Z</time></trkpt><trkpt lat="39.8572007" lon="-0.3572569"><ele>487.5</ele><time>2026-04-19T16:44:10.999Z</time></trkpt><trkpt lat="39.8570784" lon="-0.357302"><ele>487.25</ele><time>2026-04-19T16:44:12.999Z</time></trkpt><trkpt lat="39.8569639" lon="-0.3573425"><ele>487.0</ele><time>2026-04-19T16:44:14.999Z</time></trkpt><trkpt lat="39.8568661" lon="-0.3573919"><ele>483.20000000000005</ele><time>2026-04-19T16:44:16.999Z</time></trkpt><trkpt lat="39.8567754" lon="-0.3574734"><ele>479.40000000000003</ele><time>2026-04-19T16:44:18.999Z</time></trkpt><trkpt lat="39.8567008" lon="-0.3575569"><ele>475.59999999999997</ele><time>2026-04-19T16:44:21Z</time></trkpt><trkpt lat="39.8566476" lon="-0.357667"><ele>471.79999999999995</ele><time>2026-04-19T16:44:22.999Z</time></trkpt><trkpt lat="39.8566158" lon="-0.3577534"><ele>468.0</ele><time>2026-04-19T16:44:25.999Z</time></trkpt><trkpt lat="39.8566208" lon="-0.3576656"><ele>468.0</ele><time>2026-04-19T16:44:59Z</time></trkpt><trkpt lat="39.8566719" lon="-0.3575863"><ele>467.99999999999994</ele><time>2026-04-19T16:45:41.999Z</time></trkpt><trkpt lat="39.8567337" lon="-0.3575136"><ele>467.99999999999994</ele><time>2026-04-19T16:45:43.999Z</time></trkpt><trkpt lat="39.8568176" lon="-0.3574292"><ele>468.0</ele><time>2026-04-19T16:45:46Z</time></trkpt><trkpt lat="39.8569052" lon="-0.3573694"><ele>468.0</ele><time>2026-04-19T16:45:47.999Z</time></trkpt><trkpt lat="39.8570143" lon="-0.3573324"><ele>471.79999999999995</ele><time>2026-04-19T16:45:50Z</time></trkpt><trkpt lat="39.8571171" lon="-0.3573141"><ele>475.59999999999997</ele><time>2026-04-19T16:45:51.999Z</time></trkpt><trkpt lat="39.8571957" lon="-0.3572585"><ele>479.40000000000003</ele><time>2026-04-19T16:45:53.999Z</time></trkpt><trkpt lat="39.8572482" lon="-0.3571609"><ele>483.20000000000005</ele><time>2026-04-19T16:45:55.999Z</time></trkpt><trkpt lat="39.8572528" lon="-0.3570562"><ele>487.0</ele><time>2026-04-19T16:45:57.999Z</time></trkpt><trkpt lat="39.8571868" lon="-0.3569427"><ele>487.20000000000005</ele><time>2026-04-19T16:46:00Z</time></trkpt><trkpt lat="39.8571095" lon="-0.3568287"><ele>487.40000000000003</ele><time>2026-04-19T16:46:01.999Z</time></trkpt><trkpt lat="39.8570764" lon="-0.3567554"><ele>487.59999999999997</ele><time>2026-04-19T16:46:03Z</time></trkpt><trkpt lat="39.8570471" lon="-0.3566763"><ele>487.79999999999995</ele><time>2026-04-19T16:46:03.999Z</time></trkpt><trkpt lat="39.8570001" lon="-0.3565194"><ele>488.0</ele><time>2026-04-19T16:46:05.999Z</time></trkpt><trkpt lat="39.8569615" lon="-0.3563985"><ele>492.0</ele><time>2026-04-19T16:46:07.999Z</time></trkpt><trkpt lat="39.856917" lon="-0.3562644"><ele>495.99999999999994</ele><time>2026-04-19T16:46:09.999Z</time></trkpt><trkpt lat="39.8568823" lon="-0.3561951"><ele>499.99999999999994</ele><time>2026-04-19T16:46:10.999Z</time></trkpt><trkpt lat="39.8568453" lon="-0.3561254"><ele>504.0</ele><time>2026-04-19T16:46:11.999Z</time></trkpt><trkpt lat="39.8567722" lon="-0.3559934"><ele>508.0</ele><time>2026-04-19T16:46:13.999Z</time></trkpt><trkpt lat="39.8567208" lon="-0.355879"><ele>500.59999999999997</ele><time>2026-04-19T16:46:15.999Z</time></trkpt><trkpt lat="39.8566936" lon="-0.3557298"><ele>493.19999999999993</ele><time>2026-04-19T16:46:18Z</time></trkpt><trkpt lat="39.8566822" lon="-0.3556318"><ele>485.8</ele><time>2026-04-19T16:46:18.999Z</time></trkpt><trkpt lat="39.8566542" lon="-0.355482"><ele>478.4</ele><time>2026-04-19T16:46:21Z</time></trkpt><trkpt lat="39.8566071" lon="-0.3553554"><ele>471.0</ele><time>2026-04-19T16:46:22.999Z</time></trkpt><trkpt lat="39.85657" lon="-0.3552735"><ele>471.0</ele><time>2026-04-19T16:46:23.999Z</time></trkpt><trkpt lat="39.8565353" lon="-0.3551848"><ele>471.0</ele><time>2026-04-19T16:46:24.999Z</time></trkpt><trkpt lat="39.856501" lon="-0.3551128"><ele>471.0</ele><time>2026-04-19T16:46:25.999Z</time></trkpt><trkpt lat="39.8564026" lon="-0.3550019"><ele>471.0</ele><time>2026-04-19T16:46:27.999Z</time></trkpt><trkpt lat="39.8563102" lon="-0.354933"><ele>471.0</ele><time>2026-04-19T16:46:29.999Z</time></trkpt><trkpt lat="39.8562098" lon="-0.3549054"><ele>471.0</ele><time>2026-04-19T16:46:31.999Z</time></trkpt><trkpt lat="39.8561235" lon="-0.3549266"><ele>471.0</ele><time>2026-04-19T16:46:33.999Z</time></trkpt><trkpt lat="39.8560582" lon="-0.3550091"><ele>471.0</ele><time>2026-04-19T16:46:36Z</time></trkpt><trkpt lat="39.8560045" lon="-0.3551223"><ele>471.0</ele><time>2026-04-19T16:46:37.999Z</time></trkpt><trkpt lat="39.85598" lon="-0.3552061"><ele>471.0</ele><time>2026-04-19T16:46:39.999Z</time></trkpt><trkpt lat="39.8559474" lon="-0.3552879"><ele>471.0</ele><time>2026-04-19T16:46:42.999Z</time></trkpt><trkpt lat="39.8558763" lon="-0.3552605"><ele>467.1666666666667</ele><time>2026-04-19T16:46:46.999Z</time></trkpt><trkpt lat="39.8558722" lon="-0.3551528"><ele>463.33333333333337</ele><time>2026-04-19T16:46:48.999Z</time></trkpt><trkpt lat="39.8558939" lon="-0.355013"><ele>459.5</ele><time>2026-04-19T16:46:50.999Z</time></trkpt><trkpt lat="39.8559064" lon="-0.3549035"><ele>455.6666666666667</ele><time>2026-04-19T16:46:52.999Z</time></trkpt><trkpt lat="39.8558974" lon="-0.3548077"><ele>451.83333333333337</ele><time>2026-04-19T16:46:54.999Z</time></trkpt><trkpt lat="39.8558621" lon="-0.3547326"><ele>448.0</ele><time>2026-04-19T16:46:56.999Z</time></trkpt><trkpt lat="39.855794" lon="-0.3547248"><ele>448.0</ele><time>2026-04-19T16:47:00Z</time></trkpt><trkpt lat="39.855719" lon="-0.3547266"><ele>447.99999999999994</ele><time>2026-04-19T16:47:02.999Z</time></trkpt><trkpt lat="39.8556602" lon="-0.3546198"><ele>447.99999999999994</ele><time>2026-04-19T16:47:05Z</time></trkpt><trkpt lat="39.8556366" lon="-0.3544976"><ele>448.0</ele><time>2026-04-19T16:47:06.999Z</time></trkpt><trkpt lat="39.8556662" lon="-0.3543988"><ele>448.0</ele><time>2026-04-19T16:47:08.999Z</time></trkpt><trkpt lat="39.855763" lon="-0.3543571"><ele>447.57142857142856</ele><time>2026-04-19T16:47:10.999Z</time></trkpt><trkpt lat="39.8558386" lon="-0.3543591"><ele>447.1428571428571</ele><time>2026-04-19T16:47:12Z</time></trkpt><trkpt lat="39.8559066" lon="-0.3543597"><ele>446.7142857142857</ele><time>2026-04-19T16:47:12.999Z</time></trkpt><trkpt lat="39.8559704" lon="-0.3543571"><ele>446.2857142857143</ele><time>2026-04-19T16:47:13.999Z</time></trkpt><trkpt lat="39.8560369" lon="-0.3543517"><ele>445.85714285714283</ele><time>2026-04-19T16:47:14.999Z</time></trkpt><trkpt lat="39.8561429" lon="-0.3543215"><ele>445.42857142857144</ele><time>2026-04-19T16:47:16.999Z</time></trkpt><trkpt lat="39.8561959" lon="-0.3542709"><ele>445.0</ele><time>2026-04-19T16:47:17.999Z</time></trkpt><trkpt lat="39.8562477" lon="-0.3541966"><ele>444.6666666666667</ele><time>2026-04-19T16:47:19Z</time></trkpt><trkpt lat="39.8562876" lon="-0.3541226"><ele>444.33333333333337</ele><time>2026-04-19T16:47:19.999Z</time></trkpt><trkpt lat="39.8563108" lon="-0.3540414"><ele>444.0</ele><time>2026-04-19T16:47:20.999Z</time></trkpt><trkpt lat="39.8563241" lon="-0.3538869"><ele>443.66666666666663</ele><time>2026-04-19T16:47:23Z</time></trkpt><trkpt lat="39.8563445" lon="-0.3537833"><ele>443.3333333333333</ele><time>2026-04-19T16:47:23.999Z</time></trkpt><trkpt lat="39.8563636" lon="-0.3536899"><ele>443.0</ele><time>2026-04-19T16:47:24.999Z</time></trkpt><trkpt lat="39.8563808" lon="-0.3536034"><ele>442.99999999999994</ele><time>2026-04-19T16:47:25.999Z</time></trkpt><trkpt lat="39.8564033" lon="-0.3535206"><ele>443.0</ele><time>2026-04-19T16:47:27Z</time></trkpt><trkpt lat="39.8564399" lon="-0.3534384"><ele>443.0</ele><time>2026-04-19T16:47:27.999Z</time></trkpt><trkpt lat="39.8564933" lon="-0.3533678"><ele>443.0</ele><time>2026-04-19T16:47:29Z</time></trkpt><trkpt lat="39.8565521" lon="-0.3532963"><ele>442.99999999999994</ele><time>2026-04-19T16:47:29.999Z</time></trkpt><trkpt lat="39.856617" lon="-0.3532307"><ele>443.0</ele><time>2026-04-19T16:47:30.999Z</time></trkpt><trkpt lat="39.8566821" lon="-0.3531646"><ele>440.59999999999997</ele><time>2026-04-19T16:47:31.999Z</time></trkpt><trkpt lat="39.8568089" lon="-0.353047"><ele>438.19999999999993</ele><time>2026-04-19T16:47:33.999Z</time></trkpt><trkpt lat="39.8568679" lon="-0.3529922"><ele>435.8</ele><time>2026-04-19T16:47:34.999Z</time></trkpt><trkpt lat="39.8569257" lon="-0.3529336"><ele>433.4</ele><time>2026-04-19T16:47:35.999Z</time></trkpt><trkpt lat="39.8569836" lon="-0.3528688"><ele>431.0</ele><time>2026-04-19T16:47:37Z</time></trkpt><trkpt lat="39.8571386" lon="-0.3527439"><ele>431.0</ele><time>2026-04-19T16:47:39.528Z</time></trkpt><trkpt lat="39.8572907" lon="-0.3526593"><ele>431.0</ele><time>2026-04-19T16:47:40.999Z</time></trkpt><trkpt lat="39.8573558" lon="-0.3526322"><ele>431.0</ele><time>2026-04-19T16:47:41.999Z</time></trkpt><trkpt lat="39.8574591" lon="-0.3526207"><ele>431.0</ele><time>2026-04-19T16:47:43.999Z</time></trkpt><trkpt lat="39.8575261" lon="-0.3526432"><ele>431.0</ele><time>2026-04-19T16:47:45.999Z</time></trkpt><trkpt lat="39.857599" lon="-0.3526496"><ele>432.4</ele><time>2026-04-19T16:47:48Z</time></trkpt><trkpt lat="39.8576905" lon="-0.352641"><ele>433.8</ele><time>2026-04-19T16:47:49.999Z</time></trkpt><trkpt lat="39.8578174" lon="-0.3526032"><ele>435.19999999999993</ele><time>2026-04-19T16:47:51.999Z</time></trkpt><trkpt lat="39.8578926" lon="-0.3525752"><ele>436.59999999999997</ele><time>2026-04-19T16:47:52.999Z</time></trkpt><trkpt lat="39.857978" lon="-0.3525644"><ele>438.0</ele><time>2026-04-19T16:47:53.999Z</time></trkpt><trkpt lat="39.8580752" lon="-0.3525704"><ele>438.0</ele><time>2026-04-19T16:47:54.999Z</time></trkpt><trkpt lat="39.8581651" lon="-0.3525703"><ele>437.99999999999994</ele><time>2026-04-19T16:47:55.999Z</time></trkpt><trkpt lat="39.8582612" lon="-0.3525643"><ele>437.99999999999994</ele><time>2026-04-19T16:47:56.999Z</time></trkpt><trkpt lat="39.8583763" lon="-0.3525553"><ele>438.0</ele><time>2026-04-19T16:47:57.999Z</time></trkpt><trkpt lat="39.858476" lon="-0.3525465"><ele>438.0</ele><time>2026-04-19T16:47:58.999Z</time></trkpt><trkpt lat="39.8585629" lon="-0.3525373"><ele>441.2</ele><time>2026-04-19T16:48:00Z</time></trkpt><trkpt lat="39.8586385" lon="-0.3525273"><ele>444.4</ele><time>2026-04-19T16:48:00.999Z</time></trkpt><trkpt lat="39.8587232" lon="-0.3525183"><ele>447.59999999999997</ele><time>2026-04-19T16:48:01.999Z</time></trkpt><trkpt lat="39.8588188" lon="-0.3525095"><ele>450.79999999999995</ele><time>2026-04-19T16:48:03Z</time></trkpt><trkpt lat="39.8589199" lon="-0.3525072"><ele>454.0</ele><time>2026-04-19T16:48:03.999Z</time></trkpt><trkpt lat="39.8590213" lon="-0.3524905"><ele>454.0</ele><time>2026-04-19T16:48:04.999Z</time></trkpt><trkpt lat="39.8591182" lon="-0.3524663"><ele>454.0</ele><time>2026-04-19T16:48:05.999Z</time></trkpt><trkpt lat="39.85922" lon="-0.3524356"><ele>454.0</ele><time>2026-04-19T16:48:07Z</time></trkpt><trkpt lat="39.8593052" lon="-0.3524029"><ele>454.0</ele><time>2026-04-19T16:48:07.999Z</time></trkpt><trkpt lat="39.8593667" lon="-0.3523822"><ele>454.0</ele><time>2026-04-19T16:48:08.999Z</time></trkpt><trkpt lat="39.8594951" lon="-0.352447"><ele>455.0</ele><time>2026-04-19T16:48:11.999Z</time></trkpt><trkpt lat="39.8595472" lon="-0.3525957"><ele>456.0</ele><time>2026-04-19T16:48:14Z</time></trkpt><trkpt lat="39.8595989" lon="-0.3526835"><ele>457.0</ele><time>2026-04-19T16:48:14.999Z</time></trkpt><trkpt lat="39.8596668" lon="-0.3527566"><ele>458.0</ele><time>2026-04-19T16:48:16Z</time></trkpt><trkpt lat="39.8597241" lon="-0.3528014"><ele>459.0</ele><time>2026-04-19T16:48:16.999Z</time></trkpt><trkpt lat="39.8598374" lon="-0.3528391"><ele>459.0</ele><time>2026-04-19T16:48:19Z</time></trkpt><trkpt lat="39.8599046" lon="-0.3528441"><ele>459.0</ele><time>2026-04-19T16:48:20Z</time></trkpt><trkpt lat="39.8599726" lon="-0.3528478"><ele>459.0</ele><time>2026-04-19T16:48:21Z</time></trkpt><trkpt lat="39.8600807" lon="-0.3528985"><ele>459.0</ele><time>2026-04-19T16:48:22.999Z</time></trkpt><trkpt lat="39.8601585" lon="-0.3530052"><ele>459.0</ele><time>2026-04-19T16:48:25Z</time></trkpt><trkpt lat="39.8601997" lon="-0.3530842"><ele>459.0</ele><time>2026-04-19T16:48:25.999Z</time></trkpt><trkpt lat="39.8602466" lon="-0.3531701"><ele>462.4</ele><time>2026-04-19T16:48:26.999Z</time></trkpt><trkpt lat="39.8603009" lon="-0.3532668"><ele>465.79999999999995</ele><time>2026-04-19T16:48:28Z</time></trkpt><trkpt lat="39.8603514" lon="-0.3533628"><ele>469.20000000000005</ele><time>2026-04-19T16:48:28.999Z</time></trkpt><trkpt lat="39.8603972" lon="-0.3534655"><ele>472.6</ele><time>2026-04-19T16:48:29.999Z</time></trkpt><trkpt lat="39.8604363" lon="-0.3535592"><ele>476.0</ele><time>2026-04-19T16:48:30.999Z</time></trkpt><trkpt lat="39.8605076" lon="-0.3536733"><ele>475.99999999999994</ele><time>2026-04-19T16:48:32.999Z</time></trkpt><trkpt lat="39.8606146" lon="-0.3537164"><ele>476.0</ele><time>2026-04-19T16:48:34.999Z</time></trkpt><trkpt lat="39.8607344" lon="-0.3536758"><ele>476.0</ele><time>2026-04-19T16:48:36.999Z</time></trkpt><trkpt lat="39.8608051" lon="-0.353629"><ele>476.0</ele><time>2026-04-19T16:48:37.999Z</time></trkpt><trkpt lat="39.8608618" lon="-0.3535786"><ele>475.99999999999994</ele><time>2026-04-19T16:48:39Z</time></trkpt><trkpt lat="39.860916" lon="-0.3535331"><ele>476.0</ele><time>2026-04-19T16:48:39.999Z</time></trkpt><trkpt lat="39.8609985" lon="-0.3534811"><ele>477.5</ele><time>2026-04-19T16:48:41.949Z</time></trkpt><trkpt lat="39.8611235" lon="-0.3534676"><ele>479.0</ele><time>2026-04-19T16:48:42.999Z</time></trkpt><trkpt lat="39.861235" lon="-0.3534811"><ele>480.5</ele><time>2026-04-19T16:48:43.999Z</time></trkpt><trkpt lat="39.861351" lon="-0.3534973"><ele>482.0</ele><time>2026-04-19T16:48:45Z</time></trkpt><trkpt lat="39.8614558" lon="-0.3535142"><ele>482.0</ele><time>2026-04-19T16:48:45.999Z</time></trkpt><trkpt lat="39.861549" lon="-0.3535341"><ele>482.00000000000006</ele><time>2026-04-19T16:48:46.999Z</time></trkpt><trkpt lat="39.8616316" lon="-0.3535502"><ele>482.00000000000006</ele><time>2026-04-19T16:48:47.999Z</time></trkpt><trkpt lat="39.8617167" lon="-0.3535695"><ele>482.0</ele><time>2026-04-19T16:48:48.999Z</time></trkpt><trkpt lat="39.8618083" lon="-0.353581"><ele>482.0</ele><time>2026-04-19T16:48:50Z</time></trkpt><trkpt lat="39.8619019" lon="-0.3535895"><ele>484.20000000000005</ele><time>2026-04-19T16:48:51Z</time></trkpt><trkpt lat="39.8620086" lon="-0.3536227"><ele>486.40000000000003</ele><time>2026-04-19T16:48:52Z</time></trkpt><trkpt lat="39.862116" lon="-0.35366"><ele>488.59999999999997</ele><time>2026-04-19T16:48:53Z</time></trkpt><trkpt lat="39.8622234" lon="-0.3536939"><ele>490.79999999999995</ele><time>2026-04-19T16:48:53.999Z</time></trkpt><trkpt lat="39.8623374" lon="-0.3537314"><ele>493.0</ele><time>2026-04-19T16:48:54.999Z</time></trkpt><trkpt lat="39.8624596" lon="-0.3537721"><ele>493.0</ele><time>2026-04-19T16:48:55.999Z</time></trkpt><trkpt lat="39.8625976" lon="-0.3538153"><ele>492.99999999999994</ele><time>2026-04-19T16:48:56.999Z</time></trkpt><trkpt lat="39.8627078" lon="-0.3538555"><ele>492.99999999999994</ele><time>2026-04-19T16:48:57.999Z</time></trkpt><trkpt lat="39.8627968" lon="-0.3538854"><ele>493.0</ele><time>2026-04-19T16:48:58.999Z</time></trkpt><trkpt lat="39.862874" lon="-0.3539046"><ele>493.0</ele><time>2026-04-19T16:49:00Z</time></trkpt><trkpt lat="39.862955" lon="-0.3539133"><ele>494.0</ele><time>2026-04-19T16:49:01Z</time></trkpt><trkpt lat="39.8630415" lon="-0.3539067"><ele>494.99999999999994</ele><time>2026-04-19T16:49:01.999Z</time></trkpt><trkpt lat="39.8631457" lon="-0.353885"><ele>495.99999999999994</ele><time>2026-04-19T16:49:02.999Z</time></trkpt><trkpt lat="39.8632495" lon="-0.3538531"><ele>497.0</ele><time>2026-04-19T16:49:03.999Z</time></trkpt><trkpt lat="39.8633429" lon="-0.3538196"><ele>498.0</ele><time>2026-04-19T16:49:04.999Z</time></trkpt><trkpt lat="39.8634482" lon="-0.353792"><ele>501.0</ele><time>2026-04-19T16:49:05.999Z</time></trkpt><trkpt lat="39.8635761" lon="-0.3537874"><ele>503.99999999999994</ele><time>2026-04-19T16:49:06.999Z</time></trkpt><trkpt lat="39.8636798" lon="-0.3537903"><ele>506.99999999999994</ele><time>2026-04-19T16:49:08Z</time></trkpt><trkpt lat="39.8637685" lon="-0.3537863"><ele>510.0</ele><time>2026-04-19T16:49:09Z</time></trkpt><trkpt lat="39.8638539" lon="-0.3537732"><ele>513.0</ele><time>2026-04-19T16:49:10Z</time></trkpt><trkpt lat="39.8639412" lon="-0.3537374"><ele>513.0</ele><time>2026-04-19T16:49:10.999Z</time></trkpt><trkpt lat="39.8640372" lon="-0.3536859"><ele>513.0</ele><time>2026-04-19T16:49:11.999Z</time></trkpt><trkpt lat="39.8641322" lon="-0.353626"><ele>513.0</ele><time>2026-04-19T16:49:13Z</time></trkpt><trkpt lat="39.864223" lon="-0.3535845"><ele>513.0</ele><time>2026-04-19T16:49:13.999Z</time></trkpt><trkpt lat="39.8643163" lon="-0.353574"><ele>513.0</ele><time>2026-04-19T16:49:15Z</time></trkpt><trkpt lat="39.8644171" lon="-0.3535881"><ele>514.6</ele><time>2026-04-19T16:49:15.999Z</time></trkpt><trkpt lat="39.8645344" lon="-0.3536301"><ele>516.1999999999999</ele><time>2026-04-19T16:49:16.999Z</time></trkpt><trkpt lat="39.8646389" lon="-0.3536803"><ele>517.8</ele><time>2026-04-19T16:49:17.999Z</time></trkpt><trkpt lat="39.8647202" lon="-0.3537139"><ele>519.4</ele><time>2026-04-19T16:49:19Z</time></trkpt><trkpt lat="39.8647904" lon="-0.3537345"><ele>521.0</ele><time>2026-04-19T16:49:19.999Z</time></trkpt><trkpt lat="39.8648632" lon="-0.3537373"><ele>521.0</ele><time>2026-04-19T16:49:20.999Z</time></trkpt><trkpt lat="39.8649386" lon="-0.3537294"><ele>521.0</ele><time>2026-04-19T16:49:22Z</time></trkpt><trkpt lat="39.8650209" lon="-0.3537022"><ele>521.0</ele><time>2026-04-19T16:49:22.999Z</time></trkpt><trkpt lat="39.8650928" lon="-0.3536487"><ele>521.0</ele><time>2026-04-19T16:49:23.999Z</time></trkpt><trkpt lat="39.8651657" lon="-0.3535904"><ele>521.0</ele><time>2026-04-19T16:49:24.999Z</time></trkpt><trkpt lat="39.8652411" lon="-0.3535576"><ele>521.0</ele><time>2026-04-19T16:49:25.999Z</time></trkpt><trkpt lat="39.8653172" lon="-0.3535571"><ele>522.75</ele><time>2026-04-19T16:49:26.999Z</time></trkpt><trkpt lat="39.8654006" lon="-0.3535868"><ele>524.5</ele><time>2026-04-19T16:49:28Z</time></trkpt><trkpt lat="39.8655174" lon="-0.3536424"><ele>526.25</ele><time>2026-04-19T16:49:28.999Z</time></trkpt><trkpt lat="39.8656451" lon="-0.3537049"><ele>528.0</ele><time>2026-04-19T16:49:29.999Z</time></trkpt><trkpt lat="39.8657518" lon="-0.3537584"><ele>528.0</ele><time>2026-04-19T16:49:30.999Z</time></trkpt><trkpt lat="39.8658459" lon="-0.3538081"><ele>528.0</ele><time>2026-04-19T16:49:31.999Z</time></trkpt><trkpt lat="39.8659179" lon="-0.3538438"><ele>528.0</ele><time>2026-04-19T16:49:32.999Z</time></trkpt><trkpt lat="39.8659766" lon="-0.3538886"><ele>528.0</ele><time>2026-04-19T16:49:33.999Z</time></trkpt><trkpt lat="39.8660405" lon="-0.3539961"><ele>528.0</ele><time>2026-04-19T16:49:35.999Z</time></trkpt><trkpt lat="39.8660408" lon="-0.3541563"><ele>530.5</ele><time>2026-04-19T16:49:37.999Z</time></trkpt><trkpt lat="39.866015" lon="-0.3542794"><ele>533.0</ele><time>2026-04-19T16:49:38.999Z</time></trkpt><trkpt lat="39.8659905" lon="-0.3543976"><ele>535.5</ele><time>2026-04-19T16:49:39.999Z</time></trkpt><trkpt lat="39.8659713" lon="-0.3545093"><ele>538.0</ele><time>2026-04-19T16:49:40.999Z</time></trkpt><trkpt lat="39.8659599" lon="-0.3546261"><ele>540.5</ele><time>2026-04-19T16:49:41.999Z</time></trkpt><trkpt lat="39.8659612" lon="-0.3547205"><ele>543.0</ele><time>2026-04-19T16:49:42.999Z</time></trkpt><trkpt lat="39.8659748" lon="-0.3548155"><ele>543.4</ele><time>2026-04-19T16:49:44Z</time></trkpt><trkpt lat="39.866007" lon="-0.3549083"><ele>543.8</ele><time>2026-04-19T16:49:44.999Z</time></trkpt><trkpt lat="39.8660533" lon="-0.354999"><ele>544.2</ele><time>2026-04-19T16:49:45.999Z</time></trkpt><trkpt lat="39.8661249" lon="-0.3550958"><ele>544.6</ele><time>2026-04-19T16:49:46.999Z</time></trkpt><trkpt lat="39.8662145" lon="-0.3551981"><ele>545.0</ele><time>2026-04-19T16:49:47.999Z</time></trkpt><trkpt lat="39.8663018" lon="-0.3552933"><ele>545.0</ele><time>2026-04-19T16:49:48.999Z</time></trkpt><trkpt lat="39.8663804" lon="-0.3553627"><ele>545.0</ele><time>2026-04-19T16:49:50Z</time></trkpt><trkpt lat="39.866454" lon="-0.3554302"><ele>545.0</ele><time>2026-04-19T16:49:50.999Z</time></trkpt><trkpt lat="39.8665308" lon="-0.3554803"><ele>545.0</ele><time>2026-04-19T16:49:51.999Z</time></trkpt><trkpt lat="39.8666085" lon="-0.3555285"><ele>545.0</ele><time>2026-04-19T16:49:52.999Z</time></trkpt><trkpt lat="39.8667071" lon="-0.35557"><ele>547.4</ele><time>2026-04-19T16:49:53.999Z</time></trkpt><trkpt lat="39.8668068" lon="-0.355613"><ele>549.8</ele><time>2026-04-19T16:49:55Z</time></trkpt><trkpt lat="39.8669094" lon="-0.3556514"><ele>552.2</ele><time>2026-04-19T16:49:56Z</time></trkpt><trkpt lat="39.8670104" lon="-0.355681"><ele>554.6</ele><time>2026-04-19T16:49:56.999Z</time></trkpt><trkpt lat="39.8671136" lon="-0.355715"><ele>557.0</ele><time>2026-04-19T16:49:57.999Z</time></trkpt><trkpt lat="39.8672075" lon="-0.3557625"><ele>557.0</ele><time>2026-04-19T16:49:58.999Z</time></trkpt><trkpt lat="39.8672898" lon="-0.3558165"><ele>557.0</ele><time>2026-04-19T16:50:00Z</time></trkpt><trkpt lat="39.8673702" lon="-0.355892"><ele>557.0</ele><time>2026-04-19T16:50:01Z</time></trkpt><trkpt lat="39.8674556" lon="-0.3559724"><ele>557.0</ele><time>2026-04-19T16:50:02Z</time></trkpt><trkpt lat="39.867526" lon="-0.356067"><ele>557.0</ele><time>2026-04-19T16:50:02.999Z</time></trkpt><trkpt lat="39.8675818" lon="-0.3561458"><ele>558.5</ele><time>2026-04-19T16:50:03.999Z</time></trkpt><trkpt lat="39.8676434" lon="-0.356217"><ele>560.0</ele><time>2026-04-19T16:50:05Z</time></trkpt><trkpt lat="39.8677004" lon="-0.3563101"><ele>561.5</ele><time>2026-04-19T16:50:06.999Z</time></trkpt><trkpt lat="39.8676827" lon="-0.3563947"><ele>563.0</ele><time>2026-04-19T16:50:08.999Z</time></trkpt><trkpt lat="39.8675956" lon="-0.3564383"><ele>564.5</ele><time>2026-04-19T16:50:10.999Z</time></trkpt><trkpt lat="39.8675322" lon="-0.3564195"><ele>566.0</ele><time>2026-04-19T16:50:11.999Z</time></trkpt><trkpt lat="39.8674432" lon="-0.3563766"><ele>564.2</ele><time>2026-04-19T16:50:12.999Z</time></trkpt><trkpt lat="39.8673403" lon="-0.3563295"><ele>562.4000000000001</ele><time>2026-04-19T16:50:13.999Z</time></trkpt><trkpt lat="39.8672568" lon="-0.3562745"><ele>560.6</ele><time>2026-04-19T16:50:15Z</time></trkpt><trkpt lat="39.8671799" lon="-0.356237"><ele>558.8000000000001</ele><time>2026-04-19T16:50:15.999Z</time></trkpt><trkpt lat="39.867082" lon="-0.3562029"><ele>557.0</ele><time>2026-04-19T16:50:16.999Z</time></trkpt><trkpt lat="39.8670005" lon="-0.3561904"><ele>557.0</ele><time>2026-04-19T16:50:18Z</time></trkpt><trkpt lat="39.8669265" lon="-0.3561897"><ele>557.0</ele><time>2026-04-19T16:50:19Z</time></trkpt><trkpt lat="39.8668447" lon="-0.3562168"><ele>557.0</ele><time>2026-04-19T16:50:20Z</time></trkpt><trkpt lat="39.8667675" lon="-0.3562662"><ele>557.0</ele><time>2026-04-19T16:50:21Z</time></trkpt><trkpt lat="39.8666964" lon="-0.3563363"><ele>557.0</ele><time>2026-04-19T16:50:21.999Z</time></trkpt><trkpt lat="39.8666117" lon="-0.3564257"><ele>557.0</ele><time>2026-04-19T16:50:22.999Z</time></trkpt><trkpt lat="39.8665404" lon="-0.3565113"><ele>559.25</ele><time>2026-04-19T16:50:23.999Z</time></trkpt><trkpt lat="39.8664624" lon="-0.3566261"><ele>561.5</ele><time>2026-04-19T16:50:24.999Z</time></trkpt><trkpt lat="39.8663964" lon="-0.35675"><ele>563.75</ele><time>2026-04-19T16:50:25.999Z</time></trkpt><trkpt lat="39.866328" lon="-0.3568621"><ele>566.0</ele><time>2026-04-19T16:50:26.999Z</time></trkpt><trkpt lat="39.8662462" lon="-0.3569585"><ele>566.0</ele><time>2026-04-19T16:50:28Z</time></trkpt><trkpt lat="39.8661896" lon="-0.3570143"><ele>566.0</ele><time>2026-04-19T16:50:28.999Z</time></trkpt><trkpt lat="39.8661152" lon="-0.3570845"><ele>566.0</ele><time>2026-04-19T16:50:30.999Z</time></trkpt><trkpt lat="39.866151" lon="-0.3571855"><ele>566.0</ele><time>2026-04-19T16:50:34Z</time></trkpt><trkpt lat="39.8663398" lon="-0.3571023"><ele>566.0</ele><time>2026-04-19T16:50:37.825Z</time></trkpt><trkpt lat="39.8665651" lon="-0.3569061"><ele>566.0</ele><time>2026-04-19T16:50:39.949Z</time></trkpt><trkpt lat="39.8667296" lon="-0.3567767"><ele>566.0</ele><time>2026-04-19T16:50:40.999Z</time></trkpt><trkpt lat="39.8668022" lon="-0.3567121"><ele>566.0</ele><time>2026-04-19T16:50:41.999Z</time></trkpt><trkpt lat="39.8668596" lon="-0.3566596"><ele>566.0</ele><time>2026-04-19T16:50:43Z</time></trkpt><trkpt lat="39.8669693" lon="-0.3566264"><ele>566.0</ele><time>2026-04-19T16:50:44.999Z</time></trkpt><trkpt lat="39.8670432" lon="-0.3566837"><ele>566.0</ele><time>2026-04-19T16:50:46.999Z</time></trkpt><trkpt lat="39.8670758" lon="-0.3567599"><ele>566.0</ele><time>2026-04-19T16:50:47.999Z</time></trkpt><trkpt lat="39.867105" lon="-0.356885"><ele>566.0</ele><time>2026-04-19T16:50:48.999Z</time></trkpt><trkpt lat="39.8671369" lon="-0.3569874"><ele>566.0</ele><time>2026-04-19T16:50:49.999Z</time></trkpt><trkpt lat="39.8671802" lon="-0.357076"><ele>566.0</ele><time>2026-04-19T16:50:50.999Z</time></trkpt><trkpt lat="39.8672687" lon="-0.3571676"><ele>573.5</ele><time>2026-04-19T16:50:52Z</time></trkpt><trkpt lat="39.8673623" lon="-0.3572264"><ele>581.0</ele><time>2026-04-19T16:50:52.999Z</time></trkpt><trkpt lat="39.8674783" lon="-0.3572761"><ele>588.5</ele><time>2026-04-19T16:50:53.999Z</time></trkpt><trkpt lat="39.8676191" lon="-0.3573143"><ele>596.0</ele><time>2026-04-19T16:50:55Z</time></trkpt><trkpt lat="39.8677677" lon="-0.3573542"><ele>596.0</ele><time>2026-04-19T16:50:55.999Z</time></trkpt><trkpt lat="39.8679224" lon="-0.3573996"><ele>596.0</ele><time>2026-04-19T16:50:56.999Z</time></trkpt><trkpt lat="39.8680547" lon="-0.3574388"><ele>596.0</ele><time>2026-04-19T16:50:57.999Z</time></trkpt><trkpt lat="39.8681578" lon="-0.3574557"><ele>596.0</ele><time>2026-04-19T16:50:59Z</time></trkpt><trkpt lat="39.8682491" lon="-0.3574714"><ele>596.0</ele><time>2026-04-19T16:50:59.999Z</time></trkpt><trkpt lat="39.8683391" lon="-0.3575089"><ele>596.0</ele><time>2026-04-19T16:51:01Z</time></trkpt><trkpt lat="39.8684263" lon="-0.3575525"><ele>596.0</ele><time>2026-04-19T16:51:01.999Z</time></trkpt><trkpt lat="39.8685285" lon="-0.3576254"><ele>596.0</ele><time>2026-04-19T16:51:03Z</time></trkpt><trkpt lat="39.8686355" lon="-0.3576984"><ele>596.0</ele><time>2026-04-19T16:51:03.999Z</time></trkpt><trkpt lat="39.8687213" lon="-0.357761"><ele>596.0</ele><time>2026-04-19T16:51:05Z</time></trkpt><trkpt lat="39.8687921" lon="-0.3578038"><ele>596.0</ele><time>2026-04-19T16:51:05.999Z</time></trkpt><trkpt lat="39.8688683" lon="-0.3578142"><ele>596.0</ele><time>2026-04-19T16:51:06.999Z</time></trkpt><trkpt lat="39.8689417" lon="-0.3577893"><ele>596.0</ele><time>2026-04-19T16:51:07.999Z</time></trkpt><trkpt lat="39.8690127" lon="-0.3577366"><ele>596.0</ele><time>2026-04-19T16:51:09Z</time></trkpt><trkpt lat="39.8690658" lon="-0.3576767"><ele>596.0</ele><time>2026-04-19T16:51:09.999Z</time></trkpt><trkpt lat="39.8691535" lon="-0.3576236"><ele>596.0</ele><time>2026-04-19T16:51:11.999Z</time></trkpt><trkpt lat="39.8692301" lon="-0.357641"><ele>596.0</ele><time>2026-04-19T16:51:13.999Z</time></trkpt><trkpt lat="39.8693086" lon="-0.3577828"><ele>596.0</ele><time>2026-04-19T16:51:16Z</time></trkpt><trkpt lat="39.869367" lon="-0.3578744"><ele>596.0</ele><time>2026-04-19T16:51:17Z</time></trkpt><trkpt lat="39.8694286" lon="-0.3579397"><ele>596.0</ele><time>2026-04-19T16:51:17.999Z</time></trkpt><trkpt lat="39.8694922" lon="-0.3579807"><ele>598.0</ele><time>2026-04-19T16:51:19Z</time></trkpt><trkpt lat="39.8695687" lon="-0.3579865"><ele>600.0</ele><time>2026-04-19T16:51:19.999Z</time></trkpt><trkpt lat="39.8696542" lon="-0.3579746"><ele>602.0</ele><time>2026-04-19T16:51:20.999Z</time></trkpt><trkpt lat="39.8697178" lon="-0.3579663"><ele>604.0</ele><time>2026-04-19T16:51:21.999Z</time></trkpt><trkpt lat="39.8697826" lon="-0.3579826"><ele>606.0</ele><time>2026-04-19T16:51:22.999Z</time></trkpt><trkpt lat="39.8698446" lon="-0.3580164"><ele>608.0</ele><time>2026-04-19T16:51:24Z</time></trkpt><trkpt lat="39.8699392" lon="-0.358032"><ele>608.0</ele><time>2026-04-19T16:51:25.999Z</time></trkpt><trkpt lat="39.8700062" lon="-0.357951"><ele>608.0</ele><time>2026-04-19T16:51:28Z</time></trkpt><trkpt lat="39.8700162" lon="-0.3578559"><ele>608.0</ele><time>2026-04-19T16:51:28.999Z</time></trkpt><trkpt lat="39.870019" lon="-0.3577441"><ele>608.0</ele><time>2026-04-19T16:51:29.999Z</time></trkpt><trkpt lat="39.8700312" lon="-0.3576585"><ele>608.0</ele><time>2026-04-19T16:51:31Z</time></trkpt><trkpt lat="39.8700916" lon="-0.357545"><ele>608.0</ele><time>2026-04-19T16:51:32.999Z</time></trkpt><trkpt lat="39.8702028" lon="-0.3575246"><ele>613.4</ele><time>2026-04-19T16:51:34.999Z</time></trkpt><trkpt lat="39.8702986" lon="-0.3575383"><ele>618.8</ele><time>2026-04-19T16:51:36Z</time></trkpt><trkpt lat="39.8703968" lon="-0.357558"><ele>624.2</ele><time>2026-04-19T16:51:37Z</time></trkpt><trkpt lat="39.8704709" lon="-0.3575797"><ele>629.6</ele><time>2026-04-19T16:51:37.999Z</time></trkpt><trkpt lat="39.8705821" lon="-0.3575549"><ele>635.0</ele><time>2026-04-19T16:51:39.999Z</time></trkpt><trkpt lat="39.8706482" lon="-0.357429"><ele>635.0</ele><time>2026-04-19T16:51:41.999Z</time></trkpt><trkpt lat="39.870643" lon="-0.357337"><ele>635.0</ele><time>2026-04-19T16:51:42.999Z</time></trkpt><trkpt lat="39.870622" lon="-0.3572332"><ele>635.0</ele><time>2026-04-19T16:51:43.999Z</time></trkpt><trkpt lat="39.8706196" lon="-0.3570889"><ele>635.0</ele><time>2026-04-19T16:51:45.999Z</time></trkpt><trkpt lat="39.870709" lon="-0.356968"><ele>635.0</ele><time>2026-04-19T16:51:47.999Z</time></trkpt><trkpt lat="39.8707796" lon="-0.356927"><ele>632.6666666666666</ele><time>2026-04-19T16:51:48.999Z</time></trkpt><trkpt lat="39.8708875" lon="-0.3568233"><ele>630.3333333333333</ele><time>2026-04-19T16:51:50.999Z</time></trkpt><trkpt lat="39.8709198" lon="-0.3567342"><ele>628.0</ele><time>2026-04-19T16:51:51.999Z</time></trkpt><trkpt lat="39.8709441" lon="-0.3566401"><ele>625.6666666666666</ele><time>2026-04-19T16:51:52.999Z</time></trkpt><trkpt lat="39.8709756" lon="-0.3565633"><ele>623.3333333333334</ele><time>2026-04-19T16:51:53.999Z</time></trkpt><trkpt lat="39.8710212" lon="-0.3564858"><ele>621.0</ele><time>2026-04-19T16:51:55Z</time></trkpt><trkpt lat="39.871089" lon="-0.3564093"><ele>626.5</ele><time>2026-04-19T16:51:55.999Z</time></trkpt><trkpt lat="39.8711666" lon="-0.356317"><ele>632.0</ele><time>2026-04-19T16:51:57Z</time></trkpt><trkpt lat="39.8712481" lon="-0.3562287"><ele>637.5</ele><time>2026-04-19T16:51:57.999Z</time></trkpt><trkpt lat="39.8713309" lon="-0.3561155"><ele>643.0</ele><time>2026-04-19T16:51:58.999Z</time></trkpt><trkpt lat="39.8714325" lon="-0.3559947"><ele>643.0</ele><time>2026-04-19T16:52:00Z</time></trkpt><trkpt lat="39.8715422" lon="-0.3558783"><ele>643.0</ele><time>2026-04-19T16:52:00.999Z</time></trkpt><trkpt lat="39.8716328" lon="-0.3557812"><ele>643.0</ele><time>2026-04-19T16:52:02Z</time></trkpt><trkpt lat="39.8717155" lon="-0.3557014"><ele>643.0</ele><time>2026-04-19T16:52:02.999Z</time></trkpt><trkpt lat="39.8717934" lon="-0.3556313"><ele>645.2</ele><time>2026-04-19T16:52:03.999Z</time></trkpt><trkpt lat="39.8718484" lon="-0.3555729"><ele>647.4</ele><time>2026-04-19T16:52:04.999Z</time></trkpt><trkpt lat="39.8718877" lon="-0.3555087"><ele>649.6</ele><time>2026-04-19T16:52:05.999Z</time></trkpt><trkpt lat="39.8718902" lon="-0.3554144"><ele>651.8000000000001</ele><time>2026-04-19T16:52:08.285Z</time></trkpt><trkpt lat="39.8717292" lon="-0.3553049"><ele>654.0</ele><time>2026-04-19T16:52:10.942Z</time></trkpt><trkpt lat="39.8715393" lon="-0.3552835"><ele>654.0</ele><time>2026-04-19T16:52:12Z</time></trkpt><trkpt lat="39.8714213" lon="-0.3552739"><ele>654.0</ele><time>2026-04-19T16:52:12.999Z</time></trkpt><trkpt lat="39.8713236" lon="-0.3552557"><ele>654.0</ele><time>2026-04-19T16:52:14Z</time></trkpt><trkpt lat="39.8712422" lon="-0.3552307"><ele>654.0</ele><time>2026-04-19T16:52:14.999Z</time></trkpt><trkpt lat="39.871175" lon="-0.3551872"><ele>654.0</ele><time>2026-04-19T16:52:15.999Z</time></trkpt><trkpt lat="39.87113" lon="-0.3551214"><ele>654.0</ele><time>2026-04-19T16:52:16.999Z</time></trkpt><trkpt lat="39.8710874" lon="-0.3550249"><ele>654.0</ele><time>2026-04-19T16:52:18Z</time></trkpt><trkpt lat="39.8710362" lon="-0.3549259"><ele>654.0</ele><time>2026-04-19T16:52:19Z</time></trkpt><trkpt lat="39.8709639" lon="-0.3548526"><ele>654.0</ele><time>2026-04-19T16:52:20Z</time></trkpt><trkpt lat="39.8708771" lon="-0.3547888"><ele>654.0</ele><time>2026-04-19T16:52:20.999Z</time></trkpt><trkpt lat="39.8708248" lon="-0.3547316"><ele>654.0</ele><time>2026-04-19T16:52:21.999Z</time></trkpt><trkpt lat="39.8707774" lon="-0.3546513"><ele>654.0</ele><time>2026-04-19T16:52:22.999Z</time></trkpt><trkpt lat="39.8706814" lon="-0.3544904"><ele>657.6</ele><time>2026-04-19T16:52:25.714Z</time></trkpt><trkpt lat="39.8705715" lon="-0.354363"><ele>661.2</ele><time>2026-04-19T16:52:27.96Z</time></trkpt><trkpt lat="39.870473" lon="-0.3544079"><ele>664.8000000000001</ele><time>2026-04-19T16:52:28.999Z</time></trkpt><trkpt lat="39.8703853" lon="-0.354439"><ele>668.4000000000001</ele><time>2026-04-19T16:52:29.999Z</time></trkpt><trkpt lat="39.870316" lon="-0.3544366"><ele>672.0</ele><time>2026-04-19T16:52:30.999Z</time></trkpt><trkpt lat="39.8702432" lon="-0.3544084"><ele>672.0</ele><time>2026-04-19T16:52:31.999Z</time></trkpt><trkpt lat="39.8701627" lon="-0.3543677"><ele>672.0</ele><time>2026-04-19T16:52:32.999Z</time></trkpt><trkpt lat="39.8700675" lon="-0.3543748"><ele>672.0</ele><time>2026-04-19T16:52:33.999Z</time></trkpt><trkpt lat="39.8699721" lon="-0.3544037"><ele>672.0</ele><time>2026-04-19T16:52:34.999Z</time></trkpt><trkpt lat="39.8698927" lon="-0.3544277"><ele>672.0</ele><time>2026-04-19T16:52:36Z</time></trkpt><trkpt lat="39.8696465" lon="-0.3544024"><ele>669.3333333333334</ele><time>2026-04-19T16:52:37.999Z</time></trkpt><trkpt lat="39.8694881" lon="-0.3543808"><ele>666.6666666666667</ele><time>2026-04-19T16:52:39Z</time></trkpt><trkpt lat="39.8693122" lon="-0.3543477"><ele>664.0</ele><time>2026-04-19T16:52:40Z</time></trkpt><trkpt lat="39.8691663" lon="-0.3543197"><ele>663.0</ele><time>2026-04-19T16:52:40.999Z</time></trkpt><trkpt lat="39.8690382" lon="-0.3543028"><ele>662.0</ele><time>2026-04-19T16:52:41.999Z</time></trkpt><trkpt lat="39.8689344" lon="-0.3542904"><ele>661.0</ele><time>2026-04-19T16:52:42.999Z</time></trkpt><trkpt lat="39.8688518" lon="-0.3542896"><ele>660.0</ele><time>2026-04-19T16:52:43.999Z</time></trkpt><trkpt lat="39.8687808" lon="-0.3542861"><ele>659.0</ele><time>2026-04-19T16:52:44.999Z</time></trkpt><trkpt lat="39.8686915" lon="-0.3542345"><ele>659.0</ele><time>2026-04-19T16:52:46.999Z</time></trkpt><trkpt lat="39.8686337" lon="-0.3540973"><ele>659.0</ele><time>2026-04-19T16:52:49Z</time></trkpt><trkpt lat="39.8686228" lon="-0.3540066"><ele>659.0</ele><time>2026-04-19T16:52:49.999Z</time></trkpt><trkpt lat="39.8686704" lon="-0.3537927"><ele>659.0</ele><time>2026-04-19T16:52:52.781Z</time></trkpt><trkpt lat="39.8688059" lon="-0.3535981"><ele>661.0</ele><time>2026-04-19T16:52:54.956Z</time></trkpt><trkpt lat="39.8689349" lon="-0.3534932"><ele>663.0</ele><time>2026-04-19T16:52:55.999Z</time></trkpt><trkpt lat="39.868999" lon="-0.3534217"><ele>665.0</ele><time>2026-04-19T16:52:56.999Z</time></trkpt><trkpt lat="39.8690485" lon="-0.3533348"><ele>667.0</ele><time>2026-04-19T16:52:58Z</time></trkpt><trkpt lat="39.8690726" lon="-0.3532551"><ele>669.0</ele><time>2026-04-19T16:52:58.999Z</time></trkpt><trkpt lat="39.8690701" lon="-0.3531288"><ele>667.5</ele><time>2026-04-19T16:52:59.999Z</time></trkpt><trkpt lat="39.8690515" lon="-0.3529741"><ele>666.0</ele><time>2026-04-19T16:53:01Z</time></trkpt><trkpt lat="39.869011" lon="-0.3528032"><ele>664.5</ele><time>2026-04-19T16:53:02Z</time></trkpt><trkpt lat="39.8689696" lon="-0.3526704"><ele>663.0</ele><time>2026-04-19T16:53:02.999Z</time></trkpt><trkpt lat="39.8689448" lon="-0.3525569"><ele>663.0</ele><time>2026-04-19T16:53:04Z</time></trkpt><trkpt lat="39.8689311" lon="-0.3523511"><ele>663.0</ele><time>2026-04-19T16:53:05.999Z</time></trkpt><trkpt lat="39.8689509" lon="-0.3522585"><ele>663.0</ele><time>2026-04-19T16:53:06.999Z</time></trkpt><trkpt lat="39.8690683" lon="-0.3520978"><ele>663.0</ele><time>2026-04-19T16:53:08.999Z</time></trkpt><trkpt lat="39.8691731" lon="-0.3520089"><ele>664.75</ele><time>2026-04-19T16:53:09.999Z</time></trkpt><trkpt lat="39.8693079" lon="-0.3518992"><ele>666.5</ele><time>2026-04-19T16:53:10.999Z</time></trkpt><trkpt lat="39.8694389" lon="-0.3518052"><ele>668.25</ele><time>2026-04-19T16:53:11.999Z</time></trkpt><trkpt lat="39.8695618" lon="-0.351717"><ele>670.0</ele><time>2026-04-19T16:53:13Z</time></trkpt><trkpt lat="39.8696594" lon="-0.3516508"><ele>670.0</ele><time>2026-04-19T16:53:14Z</time></trkpt><trkpt lat="39.8697526" lon="-0.3516009"><ele>670.0</ele><time>2026-04-19T16:53:15Z</time></trkpt><trkpt lat="39.8698776" lon="-0.3515665"><ele>670.0</ele><time>2026-04-19T16:53:15.999Z</time></trkpt><trkpt lat="39.87001" lon="-0.3515214"><ele>670.0</ele><time>2026-04-19T16:53:17Z</time></trkpt><trkpt lat="39.8701253" lon="-0.3514597"><ele>666.6</ele><time>2026-04-19T16:53:18Z</time></trkpt><trkpt lat="39.8702277" lon="-0.3514048"><ele>663.2</ele><time>2026-04-19T16:53:18.999Z</time></trkpt><trkpt lat="39.8703224" lon="-0.3513383"><ele>659.8</ele><time>2026-04-19T16:53:19.999Z</time></trkpt><trkpt lat="39.8703995" lon="-0.3512637"><ele>656.4</ele><time>2026-04-19T16:53:20.999Z</time></trkpt><trkpt lat="39.8704569" lon="-0.3512082"><ele>653.0</ele><time>2026-04-19T16:53:21.999Z</time></trkpt><trkpt lat="39.8705249" lon="-0.3511626"><ele>653.0</ele><time>2026-04-19T16:53:22.999Z</time></trkpt><trkpt lat="39.8706229" lon="-0.3511261"><ele>653.0</ele><time>2026-04-19T16:53:23.999Z</time></trkpt><trkpt lat="39.8707434" lon="-0.3510795"><ele>653.0</ele><time>2026-04-19T16:53:24.999Z</time></trkpt><trkpt lat="39.8708402" lon="-0.3510365"><ele>653.0</ele><time>2026-04-19T16:53:25.999Z</time></trkpt><trkpt lat="39.8709196" lon="-0.351014"><ele>653.0</ele><time>2026-04-19T16:53:26.999Z</time></trkpt><trkpt lat="39.8709933" lon="-0.351019"><ele>657.5999999999999</ele><time>2026-04-19T16:53:27.999Z</time></trkpt><trkpt lat="39.871098" lon="-0.3510383"><ele>662.1999999999999</ele><time>2026-04-19T16:53:28.999Z</time></trkpt><trkpt lat="39.8711865" lon="-0.351053"><ele>666.8</ele><time>2026-04-19T16:53:29.999Z</time></trkpt><trkpt lat="39.8712746" lon="-0.3510536"><ele>671.4</ele><time>2026-04-19T16:53:30.999Z</time></trkpt><trkpt lat="39.871374" lon="-0.3510134"><ele>676.0</ele><time>2026-04-19T16:53:31.999Z</time></trkpt><trkpt lat="39.8714777" lon="-0.3509432"><ele>676.0</ele><time>2026-04-19T16:53:33Z</time></trkpt><trkpt lat="39.8715859" lon="-0.3508415"><ele>676.0</ele><time>2026-04-19T16:53:33.999Z</time></trkpt><trkpt lat="39.87168" lon="-0.3507265"><ele>676.0</ele><time>2026-04-19T16:53:34.999Z</time></trkpt><trkpt lat="39.8717587" lon="-0.3506257"><ele>676.0</ele><time>2026-04-19T16:53:35.999Z</time></trkpt><trkpt lat="39.8718228" lon="-0.3505294"><ele>680.0</ele><time>2026-04-19T16:53:36.999Z</time></trkpt><trkpt lat="39.8718774" lon="-0.3504179"><ele>684.0</ele><time>2026-04-19T16:53:38Z</time></trkpt><trkpt lat="39.871916" lon="-0.3502988"><ele>688.0</ele><time>2026-04-19T16:53:38.999Z</time></trkpt><trkpt lat="39.8719459" lon="-0.3501704"><ele>692.0</ele><time>2026-04-19T16:53:39.999Z</time></trkpt><trkpt lat="39.8719701" lon="-0.3500572"><ele>696.0</ele><time>2026-04-19T16:53:40.999Z</time></trkpt><trkpt lat="39.8719847" lon="-0.3499445"><ele>696.0</ele><time>2026-04-19T16:53:41.999Z</time></trkpt><trkpt lat="39.8719874" lon="-0.3498567"><ele>696.0</ele><time>2026-04-19T16:53:43Z</time></trkpt><trkpt lat="39.8719409" lon="-0.3497369"><ele>696.0</ele><time>2026-04-19T16:53:45Z</time></trkpt><trkpt lat="39.8718536" lon="-0.3497222"><ele>696.0</ele><time>2026-04-19T16:53:46.999Z</time></trkpt><trkpt lat="39.8717939" lon="-0.3497634"><ele>696.0</ele><time>2026-04-19T16:53:47.999Z</time></trkpt><trkpt lat="39.8717299" lon="-0.3498247"><ele>696.0</ele><time>2026-04-19T16:53:48.999Z</time></trkpt><trkpt lat="39.8716597" lon="-0.3498836"><ele>691.8333333333334</ele><time>2026-04-19T16:53:49.999Z</time></trkpt><trkpt lat="39.8715816" lon="-0.3499273"><ele>687.6666666666666</ele><time>2026-04-19T16:53:51Z</time></trkpt><trkpt lat="39.8715014" lon="-0.3499667"><ele>683.5</ele><time>2026-04-19T16:53:51.999Z</time></trkpt><trkpt lat="39.871426" lon="-0.3499918"><ele>679.3333333333333</ele><time>2026-04-19T16:53:52.999Z</time></trkpt><trkpt lat="39.8713393" lon="-0.3500071"><ele>675.1666666666666</ele><time>2026-04-19T16:53:53.999Z</time></trkpt><trkpt lat="39.8712429" lon="-0.3500088"><ele>671.0</ele><time>2026-04-19T16:53:54.999Z</time></trkpt><trkpt lat="39.8711561" lon="-0.3500083"><ele>671.0</ele><time>2026-04-19T16:53:55.999Z</time></trkpt><trkpt lat="39.8710668" lon="-0.3500139"><ele>671.0</ele><time>2026-04-19T16:53:56.999Z</time></trkpt><trkpt lat="39.8709815" lon="-0.3500222"><ele>671.0</ele><time>2026-04-19T16:53:58Z</time></trkpt><trkpt lat="39.8708978" lon="-0.3500306"><ele>671.0</ele><time>2026-04-19T16:53:58.999Z</time></trkpt><trkpt lat="39.8708284" lon="-0.3500238"><ele>671.0</ele><time>2026-04-19T16:54:00Z</time></trkpt><trkpt lat="39.8707611" lon="-0.3500213"><ele>671.0</ele><time>2026-04-19T16:54:00.999Z</time></trkpt><trkpt lat="39.8706978" lon="-0.3500075"><ele>668.0</ele><time>2026-04-19T16:54:01.999Z</time></trkpt><trkpt lat="39.8706373" lon="-0.3499785"><ele>665.0</ele><time>2026-04-19T16:54:02.999Z</time></trkpt><trkpt lat="39.8705519" lon="-0.3499297"><ele>662.0</ele><time>2026-04-19T16:54:03.999Z</time></trkpt><trkpt lat="39.8704598" lon="-0.349888"><ele>659.0</ele><time>2026-04-19T16:54:04.999Z</time></trkpt><trkpt lat="39.8703701" lon="-0.3498525"><ele>656.0</ele><time>2026-04-19T16:54:06Z</time></trkpt><trkpt lat="39.8702704" lon="-0.3498093"><ele>656.0</ele><time>2026-04-19T16:54:06.999Z</time></trkpt><trkpt lat="39.8701665" lon="-0.3497727"><ele>656.0</ele><time>2026-04-19T16:54:08Z</time></trkpt><trkpt lat="39.8700727" lon="-0.3497519"><ele>656.0</ele><time>2026-04-19T16:54:09Z</time></trkpt><trkpt lat="39.86999" lon="-0.3497505"><ele>656.0</ele><time>2026-04-19T16:54:09.999Z</time></trkpt><trkpt lat="39.869907" lon="-0.3497644"><ele>656.0</ele><time>2026-04-19T16:54:10.999Z</time></trkpt><trkpt lat="39.8698285" lon="-0.3497858"><ele>656.0</ele><time>2026-04-19T16:54:12Z</time></trkpt><trkpt lat="39.8697631" lon="-0.3497892"><ele>657.4</ele><time>2026-04-19T16:54:13Z</time></trkpt><trkpt lat="39.869681" lon="-0.349778"><ele>658.8</ele><time>2026-04-19T16:54:13.999Z</time></trkpt><trkpt lat="39.8695973" lon="-0.3497294"><ele>660.1999999999999</ele><time>2026-04-19T16:54:14.999Z</time></trkpt><trkpt lat="39.8694876" lon="-0.3496642"><ele>661.5999999999999</ele><time>2026-04-19T16:54:15.999Z</time></trkpt><trkpt lat="39.8693688" lon="-0.3495885"><ele>663.0</ele><time>2026-04-19T16:54:16.999Z</time></trkpt><trkpt lat="39.8692415" lon="-0.3495136"><ele>663.0</ele><time>2026-04-19T16:54:17.999Z</time></trkpt><trkpt lat="39.8691385" lon="-0.3494488"><ele>663.0</ele><time>2026-04-19T16:54:18.999Z</time></trkpt><trkpt lat="39.8690482" lon="-0.3493909"><ele>663.0</ele><time>2026-04-19T16:54:19.999Z</time></trkpt><trkpt lat="39.8689475" lon="-0.3493337"><ele>663.0</ele><time>2026-04-19T16:54:21Z</time></trkpt><trkpt lat="39.8688484" lon="-0.3493"><ele>663.0</ele><time>2026-04-19T16:54:21.999Z</time></trkpt><trkpt lat="39.8687246" lon="-0.3492947"><ele>663.0</ele><time>2026-04-19T16:54:22.999Z</time></trkpt><trkpt lat="39.8685857" lon="-0.3492963"><ele>663.0</ele><time>2026-04-19T16:54:23.999Z</time></trkpt><trkpt lat="39.8684654" lon="-0.3492976"><ele>663.0</ele><time>2026-04-19T16:54:25Z</time></trkpt><trkpt lat="39.8683416" lon="-0.3493072"><ele>663.0</ele><time>2026-04-19T16:54:26Z</time></trkpt><trkpt lat="39.8682319" lon="-0.3493064"><ele>663.4</ele><time>2026-04-19T16:54:26.999Z</time></trkpt><trkpt lat="39.8681229" lon="-0.3493115"><ele>663.8</ele><time>2026-04-19T16:54:27.999Z</time></trkpt><trkpt lat="39.8680196" lon="-0.3493356"><ele>664.2</ele><time>2026-04-19T16:54:28.999Z</time></trkpt><trkpt lat="39.8679287" lon="-0.3493861"><ele>664.6</ele><time>2026-04-19T16:54:29.999Z</time></trkpt><trkpt lat="39.8678466" lon="-0.3494414"><ele>665.0</ele><time>2026-04-19T16:54:30.999Z</time></trkpt><trkpt lat="39.8677763" lon="-0.3494821"><ele>665.0</ele><time>2026-04-19T16:54:32Z</time></trkpt><trkpt lat="39.8676951" lon="-0.3495057"><ele>665.0</ele><time>2026-04-19T16:54:33Z</time></trkpt><trkpt lat="39.8675891" lon="-0.3495165"><ele>665.0</ele><time>2026-04-19T16:54:33.999Z</time></trkpt><trkpt lat="39.8674566" lon="-0.3495017"><ele>665.0</ele><time>2026-04-19T16:54:34.999Z</time></trkpt><trkpt lat="39.8673446" lon="-0.3494842"><ele>665.0</ele><time>2026-04-19T16:54:35.999Z</time></trkpt><trkpt lat="39.8672414" lon="-0.3494694"><ele>663.8333333333333</ele><time>2026-04-19T16:54:37Z</time></trkpt><trkpt lat="39.8671466" lon="-0.3494594"><ele>662.6666666666666</ele><time>2026-04-19T16:54:37.999Z</time></trkpt><trkpt lat="39.8670607" lon="-0.3494459"><ele>661.5</ele><time>2026-04-19T16:54:39Z</time></trkpt><trkpt lat="39.8669937" lon="-0.3494189"><ele>660.3333333333334</ele><time>2026-04-19T16:54:39.999Z</time></trkpt><trkpt lat="39.8669324" lon="-0.3493879"><ele>659.1666666666667</ele><time>2026-04-19T16:54:40.999Z</time></trkpt><trkpt lat="39.8668442" lon="-0.3493438"><ele>658.0</ele><time>2026-04-19T16:54:42.999Z</time></trkpt><trkpt lat="39.8667634" lon="-0.3492933"><ele>658.0</ele><time>2026-04-19T16:54:45Z</time></trkpt><trkpt lat="39.8667046" lon="-0.3492377"><ele>658.0</ele><time>2026-04-19T16:54:46.999Z</time></trkpt><trkpt lat="39.866688" lon="-0.349142"><ele>658.0</ele><time>2026-04-19T16:54:48.999Z</time></trkpt><trkpt lat="39.8667204" lon="-0.3489733"><ele>658.0</ele><time>2026-04-19T16:54:50.999Z</time></trkpt><trkpt lat="39.8667476" lon="-0.3488601"><ele>658.0</ele><time>2026-04-19T16:54:52Z</time></trkpt><trkpt lat="39.8667746" lon="-0.3487446"><ele>668.6666666666667</ele><time>2026-04-19T16:54:53Z</time></trkpt><trkpt lat="39.8668392" lon="-0.3485139"><ele>679.3333333333334</ele><time>2026-04-19T16:54:54.999Z</time></trkpt><trkpt lat="39.8668646" lon="-0.3483927"><ele>690.0</ele><time>2026-04-19T16:54:55.999Z</time></trkpt><trkpt lat="39.8668654" lon="-0.3480564"><ele>689.8</ele><time>2026-04-19T16:54:58.889Z</time></trkpt><trkpt lat="39.8668734" lon="-0.3478416"><ele>689.6</ele><time>2026-04-19T16:54:59.999Z</time></trkpt><trkpt lat="39.866884" lon="-0.347736"><ele>689.4000000000001</ele><time>2026-04-19T16:55:01Z</time></trkpt><trkpt lat="39.866896" lon="-0.3476497"><ele>689.2</ele><time>2026-04-19T16:55:02Z</time></trkpt><trkpt lat="39.8668816" lon="-0.3475308"><ele>689.0</ele><time>2026-04-19T16:55:03.999Z</time></trkpt><trkpt lat="39.8668158" lon="-0.3474347"><ele>683.5</ele><time>2026-04-19T16:55:06Z</time></trkpt><trkpt lat="39.8667505" lon="-0.3474262"><ele>678.0</ele><time>2026-04-19T16:55:06.999Z</time></trkpt><trkpt lat="39.8666635" lon="-0.3474415"><ele>672.5</ele><time>2026-04-19T16:55:07.999Z</time></trkpt><trkpt lat="39.8665792" lon="-0.3474695"><ele>667.0</ele><time>2026-04-19T16:55:08.999Z</time></trkpt><trkpt lat="39.8665022" lon="-0.3475117"><ele>661.5</ele><time>2026-04-19T16:55:09.999Z</time></trkpt><trkpt lat="39.8664418" lon="-0.3475458"><ele>656.0</ele><time>2026-04-19T16:55:10.999Z</time></trkpt><trkpt lat="39.8663627" lon="-0.3475838"><ele>656.0</ele><time>2026-04-19T16:55:12.999Z</time></trkpt><trkpt lat="39.8663007" lon="-0.3475599"><ele>656.0</ele><time>2026-04-19T16:55:14.999Z</time></trkpt><trkpt lat="39.8662429" lon="-0.3475027"><ele>656.0</ele><time>2026-04-19T16:55:17.999Z</time></trkpt><trkpt lat="39.8661849" lon="-0.3474424"><ele>656.0</ele><time>2026-04-19T16:56:31.999Z</time></trkpt><trkpt lat="39.8661132" lon="-0.3473416"><ele>656.0</ele><time>2026-04-19T16:56:33.999Z</time></trkpt><trkpt lat="39.8660634" lon="-0.3472852"><ele>656.0</ele><time>2026-04-19T16:56:34.999Z</time></trkpt><trkpt lat="39.8660071" lon="-0.3472323"><ele>654.4285714285713</ele><time>2026-04-19T16:56:35.999Z</time></trkpt><trkpt lat="39.865957" lon="-0.3471767"><ele>652.8571428571429</ele><time>2026-04-19T16:56:36.999Z</time></trkpt><trkpt lat="39.8659036" lon="-0.3471118"><ele>651.2857142857142</ele><time>2026-04-19T16:56:37.999Z</time></trkpt><trkpt lat="39.8658485" lon="-0.3470384"><ele>649.7142857142857</ele><time>2026-04-19T16:56:38.999Z</time></trkpt><trkpt lat="39.8658013" lon="-0.3469676"><ele>648.1428571428571</ele><time>2026-04-19T16:56:40Z</time></trkpt><trkpt lat="39.8657714" lon="-0.3468891"><ele>646.5714285714286</ele><time>2026-04-19T16:56:40.999Z</time></trkpt><trkpt lat="39.8657553" lon="-0.3468066"><ele>645.0</ele><time>2026-04-19T16:56:41.999Z</time></trkpt><trkpt lat="39.8657464" lon="-0.3467184"><ele>645.0</ele><time>2026-04-19T16:56:42.999Z</time></trkpt><trkpt lat="39.8657397" lon="-0.3466237"><ele>645.0</ele><time>2026-04-19T16:56:43.999Z</time></trkpt><trkpt lat="39.8657324" lon="-0.346527"><ele>645.0</ele><time>2026-04-19T16:56:44.999Z</time></trkpt><trkpt lat="39.8657319" lon="-0.346437"><ele>645.0</ele><time>2026-04-19T16:56:45.999Z</time></trkpt><trkpt lat="39.8657584" lon="-0.3462827"><ele>645.0</ele><time>2026-04-19T16:56:47.999Z</time></trkpt><trkpt lat="39.8657946" lon="-0.3462134"><ele>645.0</ele><time>2026-04-19T16:56:48.999Z</time></trkpt><trkpt lat="39.865843" lon="-0.3461511"><ele>644.8333333333334</ele><time>2026-04-19T16:56:49.999Z</time></trkpt><trkpt lat="39.8658954" lon="-0.3460887"><ele>644.6666666666666</ele><time>2026-04-19T16:56:50.999Z</time></trkpt><trkpt lat="39.8659518" lon="-0.3460261"><ele>644.5</ele><time>2026-04-19T16:56:52Z</time></trkpt><trkpt lat="39.8660092" lon="-0.3459594"><ele>644.3333333333333</ele><time>2026-04-19T16:56:52.999Z</time></trkpt><trkpt lat="39.8660714" lon="-0.3458895"><ele>644.1666666666666</ele><time>2026-04-19T16:56:54Z</time></trkpt><trkpt lat="39.8661294" lon="-0.3458133"><ele>644.0</ele><time>2026-04-19T16:56:54.999Z</time></trkpt><trkpt lat="39.8661803" lon="-0.3457301"><ele>651.6666666666666</ele><time>2026-04-19T16:56:55.999Z</time></trkpt><trkpt lat="39.8662298" lon="-0.3456515"><ele>659.3333333333333</ele><time>2026-04-19T16:56:56.999Z</time></trkpt><trkpt lat="39.8662732" lon="-0.3455721"><ele>667.0</ele><time>2026-04-19T16:56:57.999Z</time></trkpt><trkpt lat="39.8663158" lon="-0.3454931"><ele>674.6666666666666</ele><time>2026-04-19T16:56:58.999Z</time></trkpt><trkpt lat="39.8663409" lon="-0.3454142"><ele>682.3333333333334</ele><time>2026-04-19T16:56:59.999Z</time></trkpt><trkpt lat="39.866323" lon="-0.3452726"><ele>690.0</ele><time>2026-04-19T16:57:01.999Z</time></trkpt><trkpt lat="39.8662809" lon="-0.3451963"><ele>690.6</ele><time>2026-04-19T16:57:03Z</time></trkpt><trkpt lat="39.866218" lon="-0.3451312"><ele>691.2</ele><time>2026-04-19T16:57:03.999Z</time></trkpt><trkpt lat="39.8661457" lon="-0.3450718"><ele>691.8</ele><time>2026-04-19T16:57:04.999Z</time></trkpt><trkpt lat="39.8660925" lon="-0.3450132"><ele>692.4</ele><time>2026-04-19T16:57:05.999Z</time></trkpt><trkpt lat="39.8660211" lon="-0.3448919"><ele>693.0</ele><time>2026-04-19T16:57:07.999Z</time></trkpt><trkpt lat="39.8659951" lon="-0.3447323"><ele>696.4</ele><time>2026-04-19T16:57:09.999Z</time></trkpt><trkpt lat="39.8659815" lon="-0.344621"><ele>699.8</ele><time>2026-04-19T16:57:11Z</time></trkpt><trkpt lat="39.865953" lon="-0.3445027"><ele>703.2</ele><time>2026-04-19T16:57:11.999Z</time></trkpt><trkpt lat="39.8659135" lon="-0.3443828"><ele>706.6</ele><time>2026-04-19T16:57:12.999Z</time></trkpt><trkpt lat="39.8658636" lon="-0.344296"><ele>710.0</ele><time>2026-04-19T16:57:13.999Z</time></trkpt><trkpt lat="39.8658042" lon="-0.3442119"><ele>705.8333333333333</ele><time>2026-04-19T16:57:15Z</time></trkpt><trkpt lat="39.8657633" lon="-0.3441438"><ele>701.6666666666666</ele><time>2026-04-19T16:57:16Z</time></trkpt><trkpt lat="39.8657288" lon="-0.3440652"><ele>697.5</ele><time>2026-04-19T16:57:16.999Z</time></trkpt><trkpt lat="39.8657087" lon="-0.3439768"><ele>693.3333333333334</ele><time>2026-04-19T16:57:17.999Z</time></trkpt><trkpt lat="39.8656982" lon="-0.343878"><ele>689.1666666666667</ele><time>2026-04-19T16:57:18.999Z</time></trkpt><trkpt lat="39.8656908" lon="-0.3437617"><ele>685.0</ele><time>2026-04-19T16:57:19.999Z</time></trkpt><trkpt lat="39.8656847" lon="-0.3436322"><ele>685.0</ele><time>2026-04-19T16:57:21Z</time></trkpt><trkpt lat="39.8656622" lon="-0.3434999"><ele>685.0</ele><time>2026-04-19T16:57:21.999Z</time></trkpt><trkpt lat="39.865621" lon="-0.3433808"><ele>685.0</ele><time>2026-04-19T16:57:23Z</time></trkpt><trkpt lat="39.8655705" lon="-0.3432697"><ele>685.0</ele><time>2026-04-19T16:57:23.999Z</time></trkpt><trkpt lat="39.8655316" lon="-0.3431436"><ele>685.0</ele><time>2026-04-19T16:57:24.999Z</time></trkpt><trkpt lat="39.8654983" lon="-0.3430327"><ele>688.1666666666667</ele><time>2026-04-19T16:57:26Z</time></trkpt><trkpt lat="39.865463" lon="-0.3429398"><ele>691.3333333333334</ele><time>2026-04-19T16:57:26.999Z</time></trkpt><trkpt lat="39.8653805" lon="-0.3428233"><ele>694.5</ele><time>2026-04-19T16:57:28.999Z</time></trkpt><trkpt lat="39.8653141" lon="-0.3427749"><ele>697.6666666666666</ele><time>2026-04-19T16:57:30Z</time></trkpt><trkpt lat="39.8652425" lon="-0.342725"><ele>700.8333333333333</ele><time>2026-04-19T16:57:31Z</time></trkpt><trkpt lat="39.865177" lon="-0.3427046"><ele>704.0</ele><time>2026-04-19T16:57:31.999Z</time></trkpt><trkpt lat="39.8651057" lon="-0.3427121"><ele>704.0</ele><time>2026-04-19T16:57:32.999Z</time></trkpt><trkpt lat="39.8650277" lon="-0.3427465"><ele>704.0</ele><time>2026-04-19T16:57:33.999Z</time></trkpt><trkpt lat="39.8649543" lon="-0.3427964"><ele>704.0</ele><time>2026-04-19T16:57:34.999Z</time></trkpt><trkpt lat="39.8648954" lon="-0.3428546"><ele>704.0</ele><time>2026-04-19T16:57:36Z</time></trkpt><trkpt lat="39.8648345" lon="-0.3429379"><ele>704.0</ele><time>2026-04-19T16:57:37Z</time></trkpt><trkpt lat="39.8647702" lon="-0.3430317"><ele>704.0</ele><time>2026-04-19T16:57:38Z</time></trkpt><trkpt lat="39.8646958" lon="-0.3431258"><ele>694.75</ele><time>2026-04-19T16:57:39Z</time></trkpt><trkpt lat="39.8646032" lon="-0.3432187"><ele>685.5</ele><time>2026-04-19T16:57:40Z</time></trkpt><trkpt lat="39.8644784" lon="-0.3433309"><ele>676.25</ele><time>2026-04-19T16:57:41.95Z</time></trkpt><trkpt lat="39.8643596" lon="-0.3434254"><ele>667.0</ele><time>2026-04-19T16:57:43Z</time></trkpt><trkpt lat="39.8642901" lon="-0.3434627"><ele>669.8</ele><time>2026-04-19T16:57:43.999Z</time></trkpt><trkpt lat="39.8642223" lon="-0.3434796"><ele>672.6</ele><time>2026-04-19T16:57:45Z</time></trkpt><trkpt lat="39.8641388" lon="-0.3434811"><ele>675.4</ele><time>2026-04-19T16:57:46Z</time></trkpt><trkpt lat="39.8640423" lon="-0.3434602"><ele>678.1999999999999</ele><time>2026-04-19T16:57:46.999Z</time></trkpt><trkpt lat="39.8639281" lon="-0.3434285"><ele>681.0</ele><time>2026-04-19T16:57:48Z</time></trkpt><trkpt lat="39.8638145" lon="-0.3434018"><ele>681.0</ele><time>2026-04-19T16:57:48.999Z</time></trkpt><trkpt lat="39.8637094" lon="-0.3433781"><ele>681.0</ele><time>2026-04-19T16:57:50Z</time></trkpt><trkpt lat="39.8636089" lon="-0.3433572"><ele>681.0</ele><time>2026-04-19T16:57:50.999Z</time></trkpt><trkpt lat="39.8635154" lon="-0.3433324"><ele>681.0</ele><time>2026-04-19T16:57:51.999Z</time></trkpt><trkpt lat="39.8634344" lon="-0.3433086"><ele>681.0</ele><time>2026-04-19T16:57:52.999Z</time></trkpt><trkpt lat="39.8633672" lon="-0.3432958"><ele>679.1999999999999</ele><time>2026-04-19T16:57:53.999Z</time></trkpt><trkpt lat="39.8632652" lon="-0.3433278"><ele>677.4</ele><time>2026-04-19T16:57:55.999Z</time></trkpt><trkpt lat="39.8631843" lon="-0.3434268"><ele>675.6</ele><time>2026-04-19T16:57:57.999Z</time></trkpt><trkpt lat="39.8631122" lon="-0.3435314"><ele>673.8</ele><time>2026-04-19T16:57:59.999Z</time></trkpt><trkpt lat="39.86303" lon="-0.3436088"><ele>672.0</ele><time>2026-04-19T16:58:02Z</time></trkpt><trkpt lat="39.8629691" lon="-0.3436443"><ele>672.0</ele><time>2026-04-19T16:58:02.999Z</time></trkpt><trkpt lat="39.8629003" lon="-0.3436662"><ele>672.0</ele><time>2026-04-19T16:58:03.999Z</time></trkpt><trkpt lat="39.8627974" lon="-0.3436673"><ele>672.0</ele><time>2026-04-19T16:58:05.999Z</time></trkpt><trkpt lat="39.862688" lon="-0.343631"><ele>672.0</ele><time>2026-04-19T16:58:07.999Z</time></trkpt><trkpt lat="39.8626193" lon="-0.3436418"><ele>672.0</ele><time>2026-04-19T16:58:08.999Z</time></trkpt><trkpt lat="39.8625465" lon="-0.3436785"><ele>672.0</ele><time>2026-04-19T16:58:09.999Z</time></trkpt><trkpt lat="39.862471" lon="-0.3437418"><ele>672.6666666666666</ele><time>2026-04-19T16:58:10.999Z</time></trkpt><trkpt lat="39.8624063" lon="-0.3438143"><ele>673.3333333333334</ele><time>2026-04-19T16:58:11.999Z</time></trkpt><trkpt lat="39.8623473" lon="-0.3439012"><ele>674.0</ele><time>2026-04-19T16:58:12.999Z</time></trkpt><trkpt lat="39.8622961" lon="-0.3439905"><ele>674.6666666666667</ele><time>2026-04-19T16:58:13.999Z</time></trkpt><trkpt lat="39.8622568" lon="-0.3440862"><ele>675.3333333333334</ele><time>2026-04-19T16:58:15Z</time></trkpt><trkpt lat="39.862228" lon="-0.3441855"><ele>676.0</ele><time>2026-04-19T16:58:15.999Z</time></trkpt><trkpt lat="39.8622054" lon="-0.3442956"><ele>671.6666666666667</ele><time>2026-04-19T16:58:16.999Z</time></trkpt><trkpt lat="39.862194" lon="-0.3444009"><ele>667.3333333333334</ele><time>2026-04-19T16:58:18Z</time></trkpt><trkpt lat="39.8621785" lon="-0.3444997"><ele>663.0</ele><time>2026-04-19T16:58:19Z</time></trkpt><trkpt lat="39.8621548" lon="-0.3445786"><ele>658.6666666666666</ele><time>2026-04-19T16:58:19.999Z</time></trkpt><trkpt lat="39.8620928" lon="-0.3446733"><ele>654.3333333333333</ele><time>2026-04-19T16:58:22Z</time></trkpt><trkpt lat="39.8620102" lon="-0.3446931"><ele>650.0</ele><time>2026-04-19T16:58:23.999Z</time></trkpt><trkpt lat="39.8619415" lon="-0.3446129"><ele>650.0</ele><time>2026-04-19T16:58:25.999Z</time></trkpt><trkpt lat="39.8619175" lon="-0.3444599"><ele>650.0</ele><time>2026-04-19T16:58:28Z</time></trkpt><trkpt lat="39.861924" lon="-0.3443566"><ele>650.0</ele><time>2026-04-19T16:58:28.999Z</time></trkpt><trkpt lat="39.8619185" lon="-0.3442515"><ele>650.0</ele><time>2026-04-19T16:58:30Z</time></trkpt><trkpt lat="39.861897" lon="-0.3441405"><ele>650.0</ele><time>2026-04-19T16:58:30.999Z</time></trkpt><trkpt lat="39.8618545" lon="-0.344003"><ele>650.0</ele><time>2026-04-19T16:58:32Z</time></trkpt><trkpt lat="39.8618003" lon="-0.3438883"><ele>650.0</ele><time>2026-04-19T16:58:32.999Z</time></trkpt><trkpt lat="39.8617354" lon="-0.3437737"><ele>650.0</ele><time>2026-04-19T16:58:33.999Z</time></trkpt><trkpt lat="39.861675" lon="-0.3436705"><ele>650.0</ele><time>2026-04-19T16:58:34.999Z</time></trkpt><trkpt lat="39.8616188" lon="-0.3435656"><ele>650.0</ele><time>2026-04-19T16:58:36Z</time></trkpt><trkpt lat="39.8615675" lon="-0.3434612"><ele>651.6</ele><time>2026-04-19T16:58:36.999Z</time></trkpt><trkpt lat="39.8615221" lon="-0.3433581"><ele>653.2</ele><time>2026-04-19T16:58:37.999Z</time></trkpt><trkpt lat="39.861471" lon="-0.3432495"><ele>654.8</ele><time>2026-04-19T16:58:38.999Z</time></trkpt><trkpt lat="39.8614053" lon="-0.3431276"><ele>656.4</ele><time>2026-04-19T16:58:39.999Z</time></trkpt><trkpt lat="39.8613354" lon="-0.3430236"><ele>658.0</ele><time>2026-04-19T16:58:40.999Z</time></trkpt><trkpt lat="39.8612643" lon="-0.3429357"><ele>656.0</ele><time>2026-04-19T16:58:42Z</time></trkpt><trkpt lat="39.8611701" lon="-0.3428523"><ele>654.0</ele><time>2026-04-19T16:58:42.999Z</time></trkpt><trkpt lat="39.8610675" lon="-0.3427827"><ele>652.0</ele><time>2026-04-19T16:58:43.999Z</time></trkpt><trkpt lat="39.8609762" lon="-0.3427185"><ele>650.0</ele><time>2026-04-19T16:58:44.999Z</time></trkpt><trkpt lat="39.860888" lon="-0.3426413"><ele>648.0</ele><time>2026-04-19T16:58:45.999Z</time></trkpt><trkpt lat="39.8608018" lon="-0.3425575"><ele>648.0</ele><time>2026-04-19T16:58:46.999Z</time></trkpt><trkpt lat="39.8607309" lon="-0.3424777"><ele>648.0</ele><time>2026-04-19T16:58:48Z</time></trkpt><trkpt lat="39.8606716" lon="-0.3424191"><ele>648.0</ele><time>2026-04-19T16:58:48.999Z</time></trkpt><trkpt lat="39.8606192" lon="-0.3423718"><ele>648.0</ele><time>2026-04-19T16:58:49.999Z</time></trkpt><trkpt lat="39.8605218" lon="-0.3422992"><ele>648.0</ele><time>2026-04-19T16:58:51.999Z</time></trkpt><trkpt lat="39.8604127" lon="-0.3422299"><ele>647.1666666666666</ele><time>2026-04-19T16:58:53.999Z</time></trkpt><trkpt lat="39.8602864" lon="-0.3421608"><ele>646.3333333333334</ele><time>2026-04-19T16:58:55.999Z</time></trkpt><trkpt lat="39.8602149" lon="-0.3421225"><ele>645.5</ele><time>2026-04-19T16:58:57Z</time></trkpt><trkpt lat="39.8601446" lon="-0.3420908"><ele>644.6666666666667</ele><time>2026-04-19T16:58:57.999Z</time></trkpt><trkpt lat="39.8600749" lon="-0.3420736"><ele>643.8333333333334</ele><time>2026-04-19T16:58:58.999Z</time></trkpt><trkpt lat="39.8600083" lon="-0.3420671"><ele>643.0</ele><time>2026-04-19T16:59:00Z</time></trkpt><trkpt lat="39.8598971" lon="-0.3421019"><ele>642.4</ele><time>2026-04-19T16:59:01.999Z</time></trkpt><trkpt lat="39.8598167" lon="-0.3421531"><ele>641.8</ele><time>2026-04-19T16:59:03.999Z</time></trkpt><trkpt lat="39.8597431" lon="-0.3422493"><ele>641.2</ele><time>2026-04-19T16:59:05.999Z</time></trkpt><trkpt lat="39.85967" lon="-0.3423688"><ele>640.6</ele><time>2026-04-19T16:59:07.999Z</time></trkpt><trkpt lat="39.8595863" lon="-0.3424752"><ele>640.0</ele><time>2026-04-19T16:59:09.999Z</time></trkpt><trkpt lat="39.8594834" lon="-0.3425655"><ele>640.0</ele><time>2026-04-19T16:59:11.999Z</time></trkpt><trkpt lat="39.8593651" lon="-0.3426369"><ele>640.0</ele><time>2026-04-19T16:59:13.999Z</time></trkpt><trkpt lat="39.8593055" lon="-0.3426712"><ele>640.0</ele><time>2026-04-19T16:59:14.999Z</time></trkpt><trkpt lat="39.8592457" lon="-0.3427088"><ele>640.0</ele><time>2026-04-19T16:59:16Z</time></trkpt><trkpt lat="39.8591829" lon="-0.3427482"><ele>640.0</ele><time>2026-04-19T16:59:17Z</time></trkpt><trkpt lat="39.8591174" lon="-0.3427875"><ele>640.0</ele><time>2026-04-19T16:59:18Z</time></trkpt><trkpt lat="39.8590527" lon="-0.3428174"><ele>637.3333333333334</ele><time>2026-04-19T16:59:19Z</time></trkpt><trkpt lat="39.8589851" lon="-0.3428449"><ele>634.6666666666667</ele><time>2026-04-19T16:59:19.999Z</time></trkpt><trkpt lat="39.8588794" lon="-0.3428767"><ele>632.0</ele><time>2026-04-19T16:59:21.999Z</time></trkpt><trkpt lat="39.8588113" lon="-0.3428782"><ele>629.3333333333334</ele><time>2026-04-19T16:59:23.999Z</time></trkpt><trkpt lat="39.8588112" lon="-0.342794"><ele>626.6666666666666</ele><time>2026-04-19T16:59:27Z</time></trkpt><trkpt lat="39.8589013" lon="-0.342745"><ele>624.0</ele><time>2026-04-19T16:59:28.999Z</time></trkpt><trkpt lat="39.8589852" lon="-0.3426986"><ele>624.0</ele><time>2026-04-19T16:59:29.999Z</time></trkpt><trkpt lat="39.859066" lon="-0.3426258"><ele>624.0</ele><time>2026-04-19T16:59:30.999Z</time></trkpt><trkpt lat="39.8591478" lon="-0.3425444"><ele>624.0</ele><time>2026-04-19T16:59:31.999Z</time></trkpt><trkpt lat="39.8592338" lon="-0.3424348"><ele>624.0</ele><time>2026-04-19T16:59:32.999Z</time></trkpt><trkpt lat="39.8593174" lon="-0.3423075"><ele>624.8</ele><time>2026-04-19T16:59:33.999Z</time></trkpt><trkpt lat="39.8593841" lon="-0.3421877"><ele>625.5999999999999</ele><time>2026-04-19T16:59:34.999Z</time></trkpt><trkpt lat="39.8594366" lon="-0.342068"><ele>626.4</ele><time>2026-04-19T16:59:35.999Z</time></trkpt><trkpt lat="39.8594711" lon="-0.3419557"><ele>627.1999999999999</ele><time>2026-04-19T16:59:36.999Z</time></trkpt><trkpt lat="39.8594899" lon="-0.3418535"><ele>628.0</ele><time>2026-04-19T16:59:38Z</time></trkpt><trkpt lat="39.8595053" lon="-0.3417555"><ele>628.0</ele><time>2026-04-19T16:59:39Z</time></trkpt><trkpt lat="39.8595204" lon="-0.3416597"><ele>628.0</ele><time>2026-04-19T16:59:39.999Z</time></trkpt><trkpt lat="39.8595329" lon="-0.3415785"><ele>628.0</ele><time>2026-04-19T16:59:40.999Z</time></trkpt><trkpt lat="39.8595774" lon="-0.3414538"><ele>628.0</ele><time>2026-04-19T16:59:42.999Z</time></trkpt><trkpt lat="39.8596614" lon="-0.341357"><ele>628.0</ele><time>2026-04-19T16:59:44.999Z</time></trkpt><trkpt lat="39.8597765" lon="-0.3413039"><ele>629.1999999999999</ele><time>2026-04-19T16:59:46.999Z</time></trkpt><trkpt lat="39.8599083" lon="-0.3413157"><ele>630.4</ele><time>2026-04-19T16:59:48.999Z</time></trkpt><trkpt lat="39.8599925" lon="-0.341335"><ele>631.5999999999999</ele><time>2026-04-19T16:59:49.999Z</time></trkpt><trkpt lat="39.8600689" lon="-0.3413387"><ele>632.8</ele><time>2026-04-19T16:59:50.999Z</time></trkpt><trkpt lat="39.8601358" lon="-0.3413324"><ele>634.0</ele><time>2026-04-19T16:59:52Z</time></trkpt><trkpt lat="39.8602371" lon="-0.3412802"><ele>634.0</ele><time>2026-04-19T16:59:53.999Z</time></trkpt><trkpt lat="39.8602952" lon="-0.3411462"><ele>634.0</ele><time>2026-04-19T16:59:55.999Z</time></trkpt><trkpt lat="39.860327" lon="-0.3409873"><ele>634.0</ele><time>2026-04-19T16:59:57.999Z</time></trkpt><trkpt lat="39.8603463" lon="-0.3408983"><ele>634.0</ele><time>2026-04-19T16:59:59Z</time></trkpt><trkpt lat="39.8603596" lon="-0.3408148"><ele>634.0</ele><time>2026-04-19T16:59:59.999Z</time></trkpt><trkpt lat="39.8603656" lon="-0.3407221"><ele>634.0</ele><time>2026-04-19T17:00:01Z</time></trkpt><trkpt lat="39.8603587" lon="-0.3406239"><ele>634.0</ele><time>2026-04-19T17:00:01.999Z</time></trkpt><trkpt lat="39.8603492" lon="-0.3405189"><ele>634.0</ele><time>2026-04-19T17:00:02.999Z</time></trkpt><trkpt lat="39.8603408" lon="-0.3403995"><ele>634.0</ele><time>2026-04-19T17:00:03.999Z</time></trkpt><trkpt lat="39.860333" lon="-0.3402785"><ele>634.0</ele><time>2026-04-19T17:00:04.999Z</time></trkpt><trkpt lat="39.8603316" lon="-0.3401532"><ele>634.0</ele><time>2026-04-19T17:00:05.999Z</time></trkpt><trkpt lat="39.86033" lon="-0.3400312"><ele>633.5</ele><time>2026-04-19T17:00:06.999Z</time></trkpt><trkpt lat="39.8603349" lon="-0.3399266"><ele>633.0</ele><time>2026-04-19T17:00:07.999Z</time></trkpt><trkpt lat="39.8603447" lon="-0.3398287"><ele>632.5</ele><time>2026-04-19T17:00:08.999Z</time></trkpt><trkpt lat="39.8603625" lon="-0.3397356"><ele>632.0</ele><time>2026-04-19T17:00:09.999Z</time></trkpt><trkpt lat="39.8603965" lon="-0.339653"><ele>631.5</ele><time>2026-04-19T17:00:10.999Z</time></trkpt><trkpt lat="39.8604982" lon="-0.3395171"><ele>631.0</ele><time>2026-04-19T17:00:12.999Z</time></trkpt><trkpt lat="39.8605728" lon="-0.3394435"><ele>627.8</ele><time>2026-04-19T17:00:13.999Z</time></trkpt><trkpt lat="39.8606431" lon="-0.3393542"><ele>624.6</ele><time>2026-04-19T17:00:15Z</time></trkpt><trkpt lat="39.8607125" lon="-0.3392503"><ele>621.4</ele><time>2026-04-19T17:00:16Z</time></trkpt><trkpt lat="39.8607752" lon="-0.3391424"><ele>618.2</ele><time>2026-04-19T17:00:16.999Z</time></trkpt><trkpt lat="39.8608253" lon="-0.3390326"><ele>615.0</ele><time>2026-04-19T17:00:17.999Z</time></trkpt><trkpt lat="39.8608748" lon="-0.3389289"><ele>613.1666666666666</ele><time>2026-04-19T17:00:18.999Z</time></trkpt><trkpt lat="39.8609207" lon="-0.3388418"><ele>611.3333333333334</ele><time>2026-04-19T17:00:19.999Z</time></trkpt><trkpt lat="39.8609532" lon="-0.3387688"><ele>609.5</ele><time>2026-04-19T17:00:20.999Z</time></trkpt><trkpt lat="39.8610015" lon="-0.3386317"><ele>607.6666666666667</ele><time>2026-04-19T17:00:23Z</time></trkpt><trkpt lat="39.8610106" lon="-0.3385405"><ele>605.8333333333334</ele><time>2026-04-19T17:00:24Z</time></trkpt><trkpt lat="39.8609983" lon="-0.3384465"><ele>604.0</ele><time>2026-04-19T17:00:24.999Z</time></trkpt><trkpt lat="39.8609644" lon="-0.3383512"><ele>604.0</ele><time>2026-04-19T17:00:25.999Z</time></trkpt><trkpt lat="39.8609054" lon="-0.3382415"><ele>604.0</ele><time>2026-04-19T17:00:26.999Z</time></trkpt><trkpt lat="39.8608315" lon="-0.3381388"><ele>604.0</ele><time>2026-04-19T17:00:28Z</time></trkpt><trkpt lat="39.8607681" lon="-0.3380462"><ele>604.0</ele><time>2026-04-19T17:00:28.999Z</time></trkpt><trkpt lat="39.8607171" lon="-0.337957"><ele>604.0</ele><time>2026-04-19T17:00:29.999Z</time></trkpt><trkpt lat="39.8606706" lon="-0.337861"><ele>607.0</ele><time>2026-04-19T17:00:31Z</time></trkpt><trkpt lat="39.860642" lon="-0.3377619"><ele>610.0</ele><time>2026-04-19T17:00:32Z</time></trkpt><trkpt lat="39.8606225" lon="-0.3376523"><ele>613.0</ele><time>2026-04-19T17:00:32.999Z</time></trkpt><trkpt lat="39.8606026" lon="-0.3375232"><ele>616.0</ele><time>2026-04-19T17:00:33.999Z</time></trkpt><trkpt lat="39.8605645" lon="-0.3373762"><ele>619.0</ele><time>2026-04-19T17:00:35Z</time></trkpt><trkpt lat="39.8605151" lon="-0.3372105"><ele>619.8</ele><time>2026-04-19T17:00:35.999Z</time></trkpt><trkpt lat="39.8604558" lon="-0.3370592"><ele>620.5999999999999</ele><time>2026-04-19T17:00:37Z</time></trkpt><trkpt lat="39.8604045" lon="-0.3369292"><ele>621.4</ele><time>2026-04-19T17:00:37.999Z</time></trkpt><trkpt lat="39.8603631" lon="-0.3368185"><ele>622.1999999999999</ele><time>2026-04-19T17:00:38.999Z</time></trkpt><trkpt lat="39.8603279" lon="-0.3367368"><ele>623.0</ele><time>2026-04-19T17:00:39.999Z</time></trkpt><trkpt lat="39.8603023" lon="-0.3366118"><ele>623.0</ele><time>2026-04-19T17:00:41.999Z</time></trkpt><trkpt lat="39.8603105" lon="-0.3365249"><ele>623.0</ele><time>2026-04-19T17:00:43.999Z</time></trkpt><trkpt lat="39.8603234" lon="-0.3364352"><ele>623.0</ele><time>2026-04-19T17:00:45.999Z</time></trkpt><trkpt lat="39.8603478" lon="-0.3362619"><ele>623.0</ele><time>2026-04-19T17:00:47.999Z</time></trkpt><trkpt lat="39.8603658" lon="-0.3361773"><ele>623.0</ele><time>2026-04-19T17:00:48.999Z</time></trkpt><trkpt lat="39.8603892" lon="-0.3360933"><ele>623.0</ele><time>2026-04-19T17:00:49.999Z</time></trkpt><trkpt lat="39.8604161" lon="-0.3360146"><ele>619.8</ele><time>2026-04-19T17:00:50.999Z</time></trkpt><trkpt lat="39.8604781" lon="-0.3358823"><ele>616.5999999999999</ele><time>2026-04-19T17:00:52.999Z</time></trkpt><trkpt lat="39.8605396" lon="-0.3357874"><ele>613.4000000000001</ele><time>2026-04-19T17:00:55Z</time></trkpt><trkpt lat="39.8606433" lon="-0.3357343"><ele>610.2</ele><time>2026-04-19T17:00:56.999Z</time></trkpt><trkpt lat="39.86072" lon="-0.3357122"><ele>607.0</ele><time>2026-04-19T17:00:57.999Z</time></trkpt><trkpt lat="39.860788" lon="-0.3356794"><ele>607.0</ele><time>2026-04-19T17:00:58.999Z</time></trkpt><trkpt lat="39.8608486" lon="-0.3356353"><ele>607.0</ele><time>2026-04-19T17:01:00Z</time></trkpt><trkpt lat="39.860906" lon="-0.335589"><ele>607.0</ele><time>2026-04-19T17:01:00.999Z</time></trkpt><trkpt lat="39.8609678" lon="-0.335553"><ele>607.0</ele><time>2026-04-19T17:01:01.999Z</time></trkpt><trkpt lat="39.8610425" lon="-0.3355144"><ele>607.0</ele><time>2026-04-19T17:01:02.999Z</time></trkpt><trkpt lat="39.8611342" lon="-0.3354824"><ele>607.0</ele><time>2026-04-19T17:01:03.999Z</time></trkpt><trkpt lat="39.8612326" lon="-0.3354628"><ele>599.75</ele><time>2026-04-19T17:01:04.999Z</time></trkpt><trkpt lat="39.8613519" lon="-0.335439"><ele>592.5</ele><time>2026-04-19T17:01:05.999Z</time></trkpt><trkpt lat="39.8614649" lon="-0.3354146"><ele>585.25</ele><time>2026-04-19T17:01:06.999Z</time></trkpt><trkpt lat="39.8615919" lon="-0.3353839"><ele>578.0</ele><time>2026-04-19T17:01:07.999Z</time></trkpt><trkpt lat="39.8617222" lon="-0.3353431"><ele>579.1999999999999</ele><time>2026-04-19T17:01:08.999Z</time></trkpt><trkpt lat="39.8618398" lon="-0.3353045"><ele>580.4</ele><time>2026-04-19T17:01:09.999Z</time></trkpt><trkpt lat="39.861946" lon="-0.3352645"><ele>581.5999999999999</ele><time>2026-04-19T17:01:10.999Z</time></trkpt><trkpt lat="39.8620295" lon="-0.3352382"><ele>582.8</ele><time>2026-04-19T17:01:12Z</time></trkpt><trkpt lat="39.8621013" lon="-0.3352259"><ele>584.0</ele><time>2026-04-19T17:01:12.999Z</time></trkpt><trkpt lat="39.8622234" lon="-0.3352616"><ele>584.0</ele><time>2026-04-19T17:01:14.999Z</time></trkpt><trkpt lat="39.8622944" lon="-0.3353111"><ele>584.0</ele><time>2026-04-19T17:01:15.999Z</time></trkpt><trkpt lat="39.862372" lon="-0.3353852"><ele>584.0</ele><time>2026-04-19T17:01:16.999Z</time></trkpt><trkpt lat="39.8624509" lon="-0.3354706"><ele>584.0</ele><time>2026-04-19T17:01:17.999Z</time></trkpt><trkpt lat="39.8625177" lon="-0.3355409"><ele>584.0</ele><time>2026-04-19T17:01:18.999Z</time></trkpt><trkpt lat="39.8625933" lon="-0.3355924"><ele>584.6</ele><time>2026-04-19T17:01:19.999Z</time></trkpt><trkpt lat="39.8626722" lon="-0.3356095"><ele>585.2</ele><time>2026-04-19T17:01:20.999Z</time></trkpt><trkpt lat="39.8627618" lon="-0.3356012"><ele>585.8000000000001</ele><time>2026-04-19T17:01:21.999Z</time></trkpt><trkpt lat="39.8628599" lon="-0.3355566"><ele>586.4</ele><time>2026-04-19T17:01:23Z</time></trkpt><trkpt lat="39.8629789" lon="-0.3354901"><ele>587.0</ele><time>2026-04-19T17:01:23.999Z</time></trkpt><trkpt lat="39.8630828" lon="-0.3354364"><ele>587.0</ele><time>2026-04-19T17:01:24.999Z</time></trkpt><trkpt lat="39.8631878" lon="-0.3354019"><ele>587.0</ele><time>2026-04-19T17:01:25.999Z</time></trkpt><trkpt lat="39.8633003" lon="-0.3353633"><ele>587.0</ele><time>2026-04-19T17:01:26.999Z</time></trkpt><trkpt lat="39.8633872" lon="-0.3353264"><ele>587.0</ele><time>2026-04-19T17:01:27.999Z</time></trkpt><trkpt lat="39.8634747" lon="-0.3352971"><ele>587.0</ele><time>2026-04-19T17:01:29Z</time></trkpt><trkpt lat="39.863562" lon="-0.3352762"><ele>587.3333333333333</ele><time>2026-04-19T17:01:30Z</time></trkpt><trkpt lat="39.8636471" lon="-0.3352617"><ele>587.6666666666666</ele><time>2026-04-19T17:01:31Z</time></trkpt><trkpt lat="39.8637301" lon="-0.3352514"><ele>588.0</ele><time>2026-04-19T17:01:32Z</time></trkpt><trkpt lat="39.8638148" lon="-0.3352499"><ele>588.3333333333334</ele><time>2026-04-19T17:01:32.999Z</time></trkpt><trkpt lat="39.8638858" lon="-0.3352676"><ele>588.6666666666667</ele><time>2026-04-19T17:01:34Z</time></trkpt><trkpt lat="39.8639552" lon="-0.3353003"><ele>589.0</ele><time>2026-04-19T17:01:34.999Z</time></trkpt><trkpt lat="39.8640138" lon="-0.3353477"><ele>589.0</ele><time>2026-04-19T17:01:35.999Z</time></trkpt><trkpt lat="39.8640637" lon="-0.3354025"><ele>589.0</ele><time>2026-04-19T17:01:37Z</time></trkpt><trkpt lat="39.8641397" lon="-0.3355115"><ele>589.0</ele><time>2026-04-19T17:01:38.999Z</time></trkpt><trkpt lat="39.8641985" lon="-0.3356359"><ele>589.0</ele><time>2026-04-19T17:01:41Z</time></trkpt><trkpt lat="39.8642309" lon="-0.335781"><ele>589.0</ele><time>2026-04-19T17:01:42.999Z</time></trkpt><trkpt lat="39.8642924" lon="-0.3359037"><ele>591.8333333333334</ele><time>2026-04-19T17:01:44.999Z</time></trkpt><trkpt lat="39.8644027" lon="-0.3359443"><ele>594.6666666666667</ele><time>2026-04-19T17:01:47Z</time></trkpt><trkpt lat="39.8644762" lon="-0.3359531"><ele>597.5</ele><time>2026-04-19T17:01:47.999Z</time></trkpt><trkpt lat="39.8645573" lon="-0.3359758"><ele>600.3333333333334</ele><time>2026-04-19T17:01:49Z</time></trkpt><trkpt lat="39.8646405" lon="-0.3360044"><ele>603.1666666666666</ele><time>2026-04-19T17:01:49.999Z</time></trkpt><trkpt lat="39.8647274" lon="-0.3360203"><ele>606.0</ele><time>2026-04-19T17:01:50.999Z</time></trkpt><trkpt lat="39.8648134" lon="-0.336021"><ele>606.0</ele><time>2026-04-19T17:01:51.999Z</time></trkpt><trkpt lat="39.8648842" lon="-0.3360366"><ele>606.0</ele><time>2026-04-19T17:01:52.999Z</time></trkpt><trkpt lat="39.8649609" lon="-0.3360754"><ele>606.0</ele><time>2026-04-19T17:01:54Z</time></trkpt><trkpt lat="39.8650445" lon="-0.336137"><ele>606.0</ele><time>2026-04-19T17:01:54.999Z</time></trkpt><trkpt lat="39.8651319" lon="-0.3362129"><ele>606.0</ele><time>2026-04-19T17:01:55.999Z</time></trkpt><trkpt lat="39.8652235" lon="-0.3362932"><ele>605.0</ele><time>2026-04-19T17:01:56.999Z</time></trkpt><trkpt lat="39.8653097" lon="-0.3363572"><ele>604.0</ele><time>2026-04-19T17:01:58Z</time></trkpt><trkpt lat="39.8653911" lon="-0.3363975"><ele>603.0</ele><time>2026-04-19T17:01:58.999Z</time></trkpt><trkpt lat="39.8654667" lon="-0.3364123"><ele>602.0</ele><time>2026-04-19T17:01:59.999Z</time></trkpt><trkpt lat="39.8655505" lon="-0.336397"><ele>601.0</ele><time>2026-04-19T17:02:00.999Z</time></trkpt><trkpt lat="39.8656177" lon="-0.3363877"><ele>600.0</ele><time>2026-04-19T17:02:02Z</time></trkpt><trkpt lat="39.865683" lon="-0.3364011"><ele>604.3333333333334</ele><time>2026-04-19T17:02:02.999Z</time></trkpt><trkpt lat="39.8657468" lon="-0.3364342"><ele>608.6666666666666</ele><time>2026-04-19T17:02:04Z</time></trkpt><trkpt lat="39.8658164" lon="-0.3364959"><ele>613.0</ele><time>2026-04-19T17:02:04.999Z</time></trkpt><trkpt lat="39.8658902" lon="-0.3365709"><ele>617.3333333333333</ele><time>2026-04-19T17:02:05.999Z</time></trkpt><trkpt lat="39.86597" lon="-0.3366546"><ele>621.6666666666666</ele><time>2026-04-19T17:02:06.999Z</time></trkpt><trkpt lat="39.866049" lon="-0.3367152"><ele>626.0</ele><time>2026-04-19T17:02:07.999Z</time></trkpt><trkpt lat="39.8661357" lon="-0.3367566"><ele>627.1666666666666</ele><time>2026-04-19T17:02:08.999Z</time></trkpt><trkpt lat="39.8662169" lon="-0.3367677"><ele>628.3333333333333</ele><time>2026-04-19T17:02:09.999Z</time></trkpt><trkpt lat="39.8662796" lon="-0.3367756"><ele>629.5</ele><time>2026-04-19T17:02:11Z</time></trkpt><trkpt lat="39.8663678" lon="-0.3367769"><ele>630.6666666666666</ele><time>2026-04-19T17:02:12.999Z</time></trkpt><trkpt lat="39.8664412" lon="-0.3367538"><ele>631.8333333333334</ele><time>2026-04-19T17:02:16.999Z</time></trkpt><trkpt lat="39.8665121" lon="-0.3366782"><ele>633.0</ele><time>2026-04-19T17:02:25Z</time></trkpt><trkpt lat="39.8665778" lon="-0.3365593"><ele>633.0</ele><time>2026-04-19T17:02:26.999Z</time></trkpt><trkpt lat="39.8666204" lon="-0.3364944"><ele>633.0</ele><time>2026-04-19T17:02:27.999Z</time></trkpt><trkpt lat="39.8666778" lon="-0.336435"><ele>633.0</ele><time>2026-04-19T17:02:29Z</time></trkpt><trkpt lat="39.866744" lon="-0.3363812"><ele>633.0</ele><time>2026-04-19T17:02:29.999Z</time></trkpt><trkpt lat="39.8668206" lon="-0.3363378"><ele>633.0</ele><time>2026-04-19T17:02:30.999Z</time></trkpt><trkpt lat="39.8669095" lon="-0.3362926"><ele>633.0</ele><time>2026-04-19T17:02:32Z</time></trkpt><trkpt lat="39.8670015" lon="-0.3362395"><ele>631.8333333333334</ele><time>2026-04-19T17:02:32.999Z</time></trkpt><trkpt lat="39.8670774" lon="-0.3361842"><ele>630.6666666666666</ele><time>2026-04-19T17:02:33.999Z</time></trkpt><trkpt lat="39.8671524" lon="-0.3361371"><ele>629.5</ele><time>2026-04-19T17:02:34.999Z</time></trkpt><trkpt lat="39.8672286" lon="-0.3361005"><ele>628.3333333333333</ele><time>2026-04-19T17:02:35.999Z</time></trkpt><trkpt lat="39.8673082" lon="-0.3360785"><ele>627.1666666666666</ele><time>2026-04-19T17:02:36.999Z</time></trkpt><trkpt lat="39.8673859" lon="-0.3360575"><ele>626.0</ele><time>2026-04-19T17:02:37.999Z</time></trkpt><trkpt lat="39.8674556" lon="-0.3360546"><ele>626.0</ele><time>2026-04-19T17:02:38.999Z</time></trkpt><trkpt lat="39.8675207" lon="-0.3360716"><ele>626.0</ele><time>2026-04-19T17:02:39.999Z</time></trkpt><trkpt lat="39.8675779" lon="-0.3361096"><ele>626.0</ele><time>2026-04-19T17:02:41Z</time></trkpt><trkpt lat="39.8676509" lon="-0.3361719"><ele>626.0</ele><time>2026-04-19T17:02:41.999Z</time></trkpt><trkpt lat="39.8677266" lon="-0.336231"><ele>626.0</ele><time>2026-04-19T17:02:43Z</time></trkpt><trkpt lat="39.8678046" lon="-0.3362704"><ele>626.0</ele><time>2026-04-19T17:02:44Z</time></trkpt><trkpt lat="39.8678856" lon="-0.3362989"><ele>627.0</ele><time>2026-04-19T17:02:45Z</time></trkpt><trkpt lat="39.8679715" lon="-0.3363221"><ele>628.0</ele><time>2026-04-19T17:02:45.999Z</time></trkpt><trkpt lat="39.8680612" lon="-0.3363414"><ele>629.0</ele><time>2026-04-19T17:02:46.999Z</time></trkpt><trkpt lat="39.8681538" lon="-0.3363663"><ele>630.0</ele><time>2026-04-19T17:02:47.999Z</time></trkpt><trkpt lat="39.8682397" lon="-0.3364012"><ele>631.0</ele><time>2026-04-19T17:02:49Z</time></trkpt><trkpt lat="39.8683289" lon="-0.3364464"><ele>636.2</ele><time>2026-04-19T17:02:49.999Z</time></trkpt><trkpt lat="39.8684196" lon="-0.3365032"><ele>641.4000000000001</ele><time>2026-04-19T17:02:51Z</time></trkpt><trkpt lat="39.8685061" lon="-0.336565"><ele>646.6</ele><time>2026-04-19T17:02:52Z</time></trkpt><trkpt lat="39.8685962" lon="-0.3366194"><ele>651.8000000000001</ele><time>2026-04-19T17:02:53Z</time></trkpt><trkpt lat="39.868689" lon="-0.336669"><ele>657.0</ele><time>2026-04-19T17:02:53.999Z</time></trkpt><trkpt lat="39.8687836" lon="-0.3367114"><ele>657.0</ele><time>2026-04-19T17:02:54.999Z</time></trkpt><trkpt lat="39.8688803" lon="-0.3367495"><ele>657.0</ele><time>2026-04-19T17:02:55.999Z</time></trkpt><trkpt lat="39.8689739" lon="-0.336781"><ele>657.0</ele><time>2026-04-19T17:02:56.999Z</time></trkpt><trkpt lat="39.8690636" lon="-0.3368173"><ele>657.0</ele><time>2026-04-19T17:02:57.999Z</time></trkpt><trkpt lat="39.8691459" lon="-0.3368573"><ele>657.0</ele><time>2026-04-19T17:02:58.999Z</time></trkpt><trkpt lat="39.8692262" lon="-0.3369072"><ele>657.6</ele><time>2026-04-19T17:02:59.999Z</time></trkpt><trkpt lat="39.8692993" lon="-0.3369708"><ele>658.2</ele><time>2026-04-19T17:03:01Z</time></trkpt><trkpt lat="39.8693776" lon="-0.3370337"><ele>658.8</ele><time>2026-04-19T17:03:02Z</time></trkpt><trkpt lat="39.8694601" lon="-0.3370899"><ele>659.4</ele><time>2026-04-19T17:03:02.999Z</time></trkpt><trkpt lat="39.8695468" lon="-0.337135"><ele>660.0</ele><time>2026-04-19T17:03:04Z</time></trkpt><trkpt lat="39.8696354" lon="-0.3371654"><ele>660.0</ele><time>2026-04-19T17:03:04.999Z</time></trkpt><trkpt lat="39.8697275" lon="-0.3371864"><ele>660.0</ele><time>2026-04-19T17:03:05.999Z</time></trkpt><trkpt lat="39.869814" lon="-0.3372094"><ele>660.0</ele><time>2026-04-19T17:03:07Z</time></trkpt><trkpt lat="39.8698958" lon="-0.3372405"><ele>660.0</ele><time>2026-04-19T17:03:07.999Z</time></trkpt><trkpt lat="39.869963" lon="-0.3372705"><ele>660.0</ele><time>2026-04-19T17:03:09Z</time></trkpt><trkpt lat="39.870021" lon="-0.3373044"><ele>660.0</ele><time>2026-04-19T17:03:09.999Z</time></trkpt><trkpt lat="39.8701151" lon="-0.3373746"><ele>662.5</ele><time>2026-04-19T17:03:11.999Z</time></trkpt><trkpt lat="39.8701732" lon="-0.3374302"><ele>665.0</ele><time>2026-04-19T17:03:13.999Z</time></trkpt><trkpt lat="39.8702118" lon="-0.3375118"><ele>667.5</ele><time>2026-04-19T17:03:18Z</time></trkpt><trkpt lat="39.87015" lon="-0.3375493"><ele>670.0</ele><time>2026-04-19T17:03:19.999Z</time></trkpt><trkpt lat="39.8700318" lon="-0.33753"><ele>672.5</ele><time>2026-04-19T17:03:21.999Z</time></trkpt><trkpt lat="39.8699623" lon="-0.3375104"><ele>675.0</ele><time>2026-04-19T17:03:22.999Z</time></trkpt><trkpt lat="39.8698968" lon="-0.337489"><ele>677.0</ele><time>2026-04-19T17:03:23.999Z</time></trkpt><trkpt lat="39.869831" lon="-0.3374777"><ele>679.0</ele><time>2026-04-19T17:03:25Z</time></trkpt><trkpt lat="39.8697648" lon="-0.3374771"><ele>681.0</ele><time>2026-04-19T17:03:26Z</time></trkpt><trkpt lat="39.8697013" lon="-0.337502"><ele>683.0</ele><time>2026-04-19T17:03:26.999Z</time></trkpt><trkpt lat="39.8696393" lon="-0.3375445"><ele>685.0</ele><time>2026-04-19T17:03:28Z</time></trkpt><trkpt lat="39.8695685" lon="-0.3376007"><ele>687.0</ele><time>2026-04-19T17:03:28.999Z</time></trkpt><trkpt lat="39.8694964" lon="-0.3376614"><ele>689.0</ele><time>2026-04-19T17:03:29.999Z</time></trkpt><trkpt lat="39.8694206" lon="-0.3377254"><ele>689.0</ele><time>2026-04-19T17:03:31Z</time></trkpt><trkpt lat="39.8693425" lon="-0.3377918"><ele>689.0</ele><time>2026-04-19T17:03:31.999Z</time></trkpt><trkpt lat="39.869265" lon="-0.3378538"><ele>689.0</ele><time>2026-04-19T17:03:32.999Z</time></trkpt><trkpt lat="39.8691815" lon="-0.3378987"><ele>689.0</ele><time>2026-04-19T17:03:33.999Z</time></trkpt><trkpt lat="39.8690982" lon="-0.337918"><ele>689.0</ele><time>2026-04-19T17:03:34.999Z</time></trkpt><trkpt lat="39.8690032" lon="-0.3379226"><ele>689.3333333333333</ele><time>2026-04-19T17:03:35.999Z</time></trkpt><trkpt lat="39.8689129" lon="-0.3379089"><ele>689.6666666666666</ele><time>2026-04-19T17:03:36.999Z</time></trkpt><trkpt lat="39.8688259" lon="-0.3378965"><ele>690.0</ele><time>2026-04-19T17:03:38Z</time></trkpt><trkpt lat="39.8687497" lon="-0.3378877"><ele>690.3333333333334</ele><time>2026-04-19T17:03:38.999Z</time></trkpt><trkpt lat="39.8686733" lon="-0.3378767"><ele>690.6666666666667</ele><time>2026-04-19T17:03:39.999Z</time></trkpt><trkpt lat="39.8685969" lon="-0.3378778"><ele>691.0</ele><time>2026-04-19T17:03:40.999Z</time></trkpt><trkpt lat="39.8685177" lon="-0.3378942"><ele>691.0</ele><time>2026-04-19T17:03:41.999Z</time></trkpt><trkpt lat="39.86844" lon="-0.3379265"><ele>691.0</ele><time>2026-04-19T17:03:42.999Z</time></trkpt><trkpt lat="39.8683552" lon="-0.3379582"><ele>691.0</ele><time>2026-04-19T17:03:44Z</time></trkpt><trkpt lat="39.8682709" lon="-0.3379965"><ele>691.0</ele><time>2026-04-19T17:03:44.999Z</time></trkpt><trkpt lat="39.8682082" lon="-0.3380275"><ele>691.0</ele><time>2026-04-19T17:03:45.999Z</time></trkpt><trkpt lat="39.8681443" lon="-0.338056"><ele>691.0</ele><time>2026-04-19T17:03:47Z</time></trkpt><trkpt lat="39.8680581" lon="-0.3381327"><ele>696.0</ele><time>2026-04-19T17:03:48.999Z</time></trkpt><trkpt lat="39.8680316" lon="-0.3382307"><ele>701.0</ele><time>2026-04-19T17:03:51Z</time></trkpt><trkpt lat="39.8680807" lon="-0.338321"><ele>706.0</ele><time>2026-04-19T17:03:52.999Z</time></trkpt><trkpt lat="39.8681823" lon="-0.3383371"><ele>711.0</ele><time>2026-04-19T17:03:54.999Z</time></trkpt><trkpt lat="39.8682968" lon="-0.3383228"><ele>716.0</ele><time>2026-04-19T17:03:56.999Z</time></trkpt><trkpt lat="39.8684189" lon="-0.3383181"><ele>716.0000000000001</ele><time>2026-04-19T17:03:58.999Z</time></trkpt><trkpt lat="39.8684849" lon="-0.3383254"><ele>716.0</ele><time>2026-04-19T17:04:00Z</time></trkpt><trkpt lat="39.8685489" lon="-0.3383416"><ele>716.0</ele><time>2026-04-19T17:04:00.999Z</time></trkpt><trkpt lat="39.8686171" lon="-0.3383742"><ele>716.0</ele><time>2026-04-19T17:04:01.999Z</time></trkpt><trkpt lat="39.8686818" lon="-0.3384125"><ele>716.0</ele><time>2026-04-19T17:04:02.999Z</time></trkpt><trkpt lat="39.8687458" lon="-0.3384553"><ele>716.0000000000001</ele><time>2026-04-19T17:04:03.999Z</time></trkpt><trkpt lat="39.868813" lon="-0.3384954"><ele>716.0</ele><time>2026-04-19T17:04:04.999Z</time></trkpt><trkpt lat="39.8688797" lon="-0.3385339"><ele>716.0000000000001</ele><time>2026-04-19T17:04:06Z</time></trkpt><trkpt lat="39.8689465" lon="-0.3385693"><ele>716.0</ele><time>2026-04-19T17:04:06.999Z</time></trkpt><trkpt lat="39.8690113" lon="-0.3386015"><ele>716.0</ele><time>2026-04-19T17:04:07.999Z</time></trkpt><trkpt lat="39.8690798" lon="-0.3386275"><ele>716.0</ele><time>2026-04-19T17:04:08.999Z</time></trkpt><trkpt lat="39.8691472" lon="-0.3386379"><ele>716.0</ele><time>2026-04-19T17:04:09.999Z</time></trkpt><trkpt lat="39.8692152" lon="-0.3386362"><ele>716.0000000000001</ele><time>2026-04-19T17:04:10.999Z</time></trkpt><trkpt lat="39.8692812" lon="-0.3386141"><ele>716.0</ele><time>2026-04-19T17:04:11.999Z</time></trkpt><trkpt lat="39.8693467" lon="-0.3385866"><ele>715.8</ele><time>2026-04-19T17:04:12.999Z</time></trkpt><trkpt lat="39.8694103" lon="-0.3385476"><ele>715.5999999999999</ele><time>2026-04-19T17:04:13.999Z</time></trkpt><trkpt lat="39.8695112" lon="-0.338505"><ele>715.4</ele><time>2026-04-19T17:04:16Z</time></trkpt><trkpt lat="39.8696003" lon="-0.3385428"><ele>715.2</ele><time>2026-04-19T17:04:17.999Z</time></trkpt><trkpt lat="39.8696838" lon="-0.338654"><ele>715.0</ele><time>2026-04-19T17:04:20Z</time></trkpt><trkpt lat="39.8697329" lon="-0.3387089"><ele>715.0</ele><time>2026-04-19T17:04:21Z</time></trkpt><trkpt lat="39.8697791" lon="-0.3387653"><ele>715.0</ele><time>2026-04-19T17:04:21.999Z</time></trkpt><trkpt lat="39.8698266" lon="-0.3388258"><ele>715.0</ele><time>2026-04-19T17:04:22.999Z</time></trkpt><trkpt lat="39.8699236" lon="-0.338928"><ele>715.0</ele><time>2026-04-19T17:04:24.999Z</time></trkpt><trkpt lat="39.8699752" lon="-0.3389863"><ele>715.0</ele><time>2026-04-19T17:04:25.999Z</time></trkpt><trkpt lat="39.8700266" lon="-0.3390426"><ele>715.0</ele><time>2026-04-19T17:04:26.999Z</time></trkpt><trkpt lat="39.8700755" lon="-0.3390975"><ele>715.0</ele><time>2026-04-19T17:04:27.999Z</time></trkpt><trkpt lat="39.8701287" lon="-0.3391513"><ele>715.0</ele><time>2026-04-19T17:04:29Z</time></trkpt><trkpt lat="39.8701786" lon="-0.3392021"><ele>715.0</ele><time>2026-04-19T17:04:29.999Z</time></trkpt><trkpt lat="39.870271" lon="-0.3393127"><ele>715.0</ele><time>2026-04-19T17:04:31.999Z</time></trkpt><trkpt lat="39.870345" lon="-0.3394399"><ele>715.0</ele><time>2026-04-19T17:04:33.999Z</time></trkpt><trkpt lat="39.8703793" lon="-0.3395228"><ele>715.0</ele><time>2026-04-19T17:04:34.999Z</time></trkpt><trkpt lat="39.8704103" lon="-0.3396137"><ele>715.0</ele><time>2026-04-19T17:04:35.999Z</time></trkpt><trkpt lat="39.8704447" lon="-0.3397093"><ele>715.0</ele><time>2026-04-19T17:04:36.999Z</time></trkpt><trkpt lat="39.8704805" lon="-0.3397978"><ele>715.0</ele><time>2026-04-19T17:04:37.999Z</time></trkpt><trkpt lat="39.8705251" lon="-0.3398909"><ele>715.0</ele><time>2026-04-19T17:04:38.999Z</time></trkpt><trkpt lat="39.8705676" lon="-0.3399713"><ele>715.0</ele><time>2026-04-19T17:04:39.999Z</time></trkpt><trkpt lat="39.8706142" lon="-0.3400497"><ele>717.0</ele><time>2026-04-19T17:04:41Z</time></trkpt><trkpt lat="39.8706646" lon="-0.3401254"><ele>719.0</ele><time>2026-04-19T17:04:41.999Z</time></trkpt><trkpt lat="39.870723" lon="-0.3401866"><ele>721.0</ele><time>2026-04-19T17:04:42.999Z</time></trkpt><trkpt lat="39.8707797" lon="-0.3402484"><ele>723.0</ele><time>2026-04-19T17:04:43.999Z</time></trkpt><trkpt lat="39.8708402" lon="-0.340307"><ele>725.0</ele><time>2026-04-19T17:04:44.999Z</time></trkpt><trkpt lat="39.8709051" lon="-0.3403577"><ele>727.0</ele><time>2026-04-19T17:04:45.999Z</time></trkpt><trkpt lat="39.8709673" lon="-0.3404064"><ele>729.0</ele><time>2026-04-19T17:04:46.999Z</time></trkpt><trkpt lat="39.87103" lon="-0.340469"><ele>729.0</ele><time>2026-04-19T17:04:47.999Z</time></trkpt><trkpt lat="39.8710924" lon="-0.3405309"><ele>729.0</ele><time>2026-04-19T17:04:48.999Z</time></trkpt><trkpt lat="39.871152" lon="-0.3405917"><ele>729.0</ele><time>2026-04-19T17:04:49.999Z</time></trkpt><trkpt lat="39.8712176" lon="-0.3406462"><ele>729.0</ele><time>2026-04-19T17:04:50.999Z</time></trkpt><trkpt lat="39.8712838" lon="-0.3407033"><ele>729.0</ele><time>2026-04-19T17:04:51.999Z</time></trkpt><trkpt lat="39.8713529" lon="-0.3407621"><ele>729.0</ele><time>2026-04-19T17:04:52.999Z</time></trkpt><trkpt lat="39.8714172" lon="-0.3408278"><ele>732.5</ele><time>2026-04-19T17:04:53.999Z</time></trkpt><trkpt lat="39.8714791" lon="-0.3408921"><ele>736.0</ele><time>2026-04-19T17:04:54.999Z</time></trkpt><trkpt lat="39.8715415" lon="-0.3409526"><ele>739.5</ele><time>2026-04-19T17:04:55.999Z</time></trkpt><trkpt lat="39.8716043" lon="-0.3410177"><ele>743.0</ele><time>2026-04-19T17:04:56.999Z</time></trkpt><trkpt lat="39.8716703" lon="-0.3410791"><ele>746.5</ele><time>2026-04-19T17:04:58Z</time></trkpt><trkpt lat="39.8717309" lon="-0.3411471"><ele>750.0</ele><time>2026-04-19T17:04:58.999Z</time></trkpt><trkpt lat="39.8717929" lon="-0.3412188"><ele>750.0</ele><time>2026-04-19T17:04:59.999Z</time></trkpt><trkpt lat="39.8718552" lon="-0.3412901"><ele>750.0</ele><time>2026-04-19T17:05:00.999Z</time></trkpt><trkpt lat="39.8719283" lon="-0.341358"><ele>750.0</ele><time>2026-04-19T17:05:01.999Z</time></trkpt><trkpt lat="39.8720062" lon="-0.3414217"><ele>750.0</ele><time>2026-04-19T17:05:02.999Z</time></trkpt><trkpt lat="39.8720767" lon="-0.3414947"><ele>750.0</ele><time>2026-04-19T17:05:04Z</time></trkpt><trkpt lat="39.8721465" lon="-0.3415678"><ele>750.0</ele><time>2026-04-19T17:05:04.999Z</time></trkpt><trkpt lat="39.8722174" lon="-0.3416378"><ele>754.3333333333334</ele><time>2026-04-19T17:05:05.999Z</time></trkpt><trkpt lat="39.8722814" lon="-0.3416962"><ele>758.6666666666667</ele><time>2026-04-19T17:05:06.999Z</time></trkpt><trkpt lat="39.8723367" lon="-0.3417523"><ele>763.0</ele><time>2026-04-19T17:05:08Z</time></trkpt><trkpt lat="39.8724128" lon="-0.3418288"><ele>767.3333333333334</ele><time>2026-04-19T17:05:09.999Z</time></trkpt><trkpt lat="39.8723656" lon="-0.3417473"><ele>771.6666666666667</ele><time>2026-04-19T17:13:25.999Z</time></trkpt><trkpt lat="39.8722846" lon="-0.3416849"><ele>776.0</ele><time>2026-04-19T17:13:27.999Z</time></trkpt><trkpt lat="39.8721973" lon="-0.341607"><ele>776.0000000000001</ele><time>2026-04-19T17:13:29.999Z</time></trkpt><trkpt lat="39.8721366" lon="-0.34155"><ele>776.0</ele><time>2026-04-19T17:13:30.999Z</time></trkpt><trkpt lat="39.8720746" lon="-0.3414887"><ele>776.0</ele><time>2026-04-19T17:13:31.999Z</time></trkpt><trkpt lat="39.8720119" lon="-0.3414386"><ele>776.0</ele><time>2026-04-19T17:13:32.999Z</time></trkpt><trkpt lat="39.871956" lon="-0.3413819"><ele>776.0000000000001</ele><time>2026-04-19T17:13:33.999Z</time></trkpt><trkpt lat="39.8718583" lon="-0.3412932"><ele>776.0</ele><time>2026-04-19T17:13:36Z</time></trkpt><trkpt lat="39.8717606" lon="-0.3411948"><ele>772.5000000000001</ele><time>2026-04-19T17:13:38Z</time></trkpt><trkpt lat="39.8717116" lon="-0.3411361"><ele>769.0</ele><time>2026-04-19T17:13:38.999Z</time></trkpt><trkpt lat="39.8716111" lon="-0.3410341"><ele>765.5</ele><time>2026-04-19T17:13:41Z</time></trkpt><trkpt lat="39.8715551" lon="-0.3409728"><ele>762.0</ele><time>2026-04-19T17:13:41.999Z</time></trkpt><trkpt lat="39.8715021" lon="-0.3409143"><ele>758.5</ele><time>2026-04-19T17:13:42.999Z</time></trkpt><trkpt lat="39.8714458" lon="-0.3408607"><ele>755.0</ele><time>2026-04-19T17:13:43.999Z</time></trkpt><trkpt lat="39.8713914" lon="-0.3408072"><ele>755.0</ele><time>2026-04-19T17:13:44.999Z</time></trkpt><trkpt lat="39.8712901" lon="-0.3407116"><ele>755.0</ele><time>2026-04-19T17:13:46.999Z</time></trkpt><trkpt lat="39.8712371" lon="-0.340659"><ele>755.0</ele><time>2026-04-19T17:13:47.999Z</time></trkpt><trkpt lat="39.8711279" lon="-0.340564"><ele>755.0</ele><time>2026-04-19T17:13:49.999Z</time></trkpt><trkpt lat="39.8710745" lon="-0.3405144"><ele>755.0</ele><time>2026-04-19T17:13:51Z</time></trkpt><trkpt lat="39.8709868" lon="-0.3404273"><ele>751.5</ele><time>2026-04-19T17:13:52.999Z</time></trkpt><trkpt lat="39.8708911" lon="-0.340338"><ele>748.0</ele><time>2026-04-19T17:13:54.999Z</time></trkpt><trkpt lat="39.8707913" lon="-0.3402475"><ele>744.5</ele><time>2026-04-19T17:13:56.999Z</time></trkpt><trkpt lat="39.8706997" lon="-0.3401552"><ele>741.0</ele><time>2026-04-19T17:13:59Z</time></trkpt><trkpt lat="39.8706151" lon="-0.3400414"><ele>741.0</ele><time>2026-04-19T17:14:00.999Z</time></trkpt><trkpt lat="39.8705422" lon="-0.3399248"><ele>741.0</ele><time>2026-04-19T17:14:03Z</time></trkpt><trkpt lat="39.8704696" lon="-0.3397787"><ele>741.0</ele><time>2026-04-19T17:14:04.999Z</time></trkpt><trkpt lat="39.8704394" lon="-0.3396936"><ele>741.0</ele><time>2026-04-19T17:14:05.999Z</time></trkpt><trkpt lat="39.870412" lon="-0.33961"><ele>741.0</ele><time>2026-04-19T17:14:06.999Z</time></trkpt><trkpt lat="39.87038" lon="-0.3395237"><ele>740.4</ele><time>2026-04-19T17:14:07.999Z</time></trkpt><trkpt lat="39.8703168" lon="-0.339397"><ele>739.8</ele><time>2026-04-19T17:14:09.999Z</time></trkpt><trkpt lat="39.870244" lon="-0.3392741"><ele>739.1999999999999</ele><time>2026-04-19T17:14:12Z</time></trkpt><trkpt lat="39.8701895" lon="-0.3392054"><ele>738.5999999999999</ele><time>2026-04-19T17:14:12.999Z</time></trkpt><trkpt lat="39.8701291" lon="-0.3391405"><ele>738.0</ele><time>2026-04-19T17:14:13.999Z</time></trkpt><trkpt lat="39.8700613" lon="-0.3390698"><ele>738.0</ele><time>2026-04-19T17:14:14.999Z</time></trkpt><trkpt lat="39.8699958" lon="-0.3389975"><ele>738.0</ele><time>2026-04-19T17:14:15.999Z</time></trkpt><trkpt lat="39.8699331" lon="-0.3389307"><ele>738.0</ele><time>2026-04-19T17:14:16.999Z</time></trkpt><trkpt lat="39.8698783" lon="-0.3388653"><ele>738.0</ele><time>2026-04-19T17:14:17.999Z</time></trkpt><trkpt lat="39.869826" lon="-0.3388064"><ele>738.0</ele><time>2026-04-19T17:14:18.999Z</time></trkpt><trkpt lat="39.8697754" lon="-0.3387505"><ele>738.0</ele><time>2026-04-19T17:14:19.999Z</time></trkpt><trkpt lat="39.8697243" lon="-0.3386989"><ele>738.0</ele><time>2026-04-19T17:14:20.999Z</time></trkpt><trkpt lat="39.8696683" lon="-0.3386409"><ele>734.3333333333334</ele><time>2026-04-19T17:14:21.999Z</time></trkpt><trkpt lat="39.869588" lon="-0.3385523"><ele>730.6666666666666</ele><time>2026-04-19T17:14:24Z</time></trkpt><trkpt lat="39.8695062" lon="-0.3385178"><ele>727.0</ele><time>2026-04-19T17:14:25.999Z</time></trkpt><trkpt lat="39.8694025" lon="-0.3385445"><ele>723.3333333333333</ele><time>2026-04-19T17:14:28Z</time></trkpt><trkpt lat="39.869337" lon="-0.3385854"><ele>719.6666666666666</ele><time>2026-04-19T17:14:28.999Z</time></trkpt><trkpt lat="39.8692732" lon="-0.3386127"><ele>716.0</ele><time>2026-04-19T17:14:29.999Z</time></trkpt><trkpt lat="39.8691947" lon="-0.3386256"><ele>716.0</ele><time>2026-04-19T17:14:30.999Z</time></trkpt><trkpt lat="39.8691096" lon="-0.3386182"><ele>716.0</ele><time>2026-04-19T17:14:31.999Z</time></trkpt><trkpt lat="39.869018" lon="-0.3385892"><ele>716.0</ele><time>2026-04-19T17:14:32.999Z</time></trkpt><trkpt lat="39.8689322" lon="-0.338547"><ele>716.0</ele><time>2026-04-19T17:14:33.999Z</time></trkpt><trkpt lat="39.8688517" lon="-0.3385029"><ele>716.0</ele><time>2026-04-19T17:14:34.999Z</time></trkpt><trkpt lat="39.8687788" lon="-0.3384623"><ele>716.0</ele><time>2026-04-19T17:14:36Z</time></trkpt><trkpt lat="39.8687118" lon="-0.3384257"><ele>716.0</ele><time>2026-04-19T17:14:37Z</time></trkpt><trkpt lat="39.8686477" lon="-0.3383944"><ele>716.0</ele><time>2026-04-19T17:14:38Z</time></trkpt><trkpt lat="39.8685883" lon="-0.3383656"><ele>716.0</ele><time>2026-04-19T17:14:39Z</time></trkpt><trkpt lat="39.8684708" lon="-0.338337"><ele>716.0</ele><time>2026-04-19T17:14:41Z</time></trkpt><trkpt lat="39.8683535" lon="-0.3383261"><ele>716.0</ele><time>2026-04-19T17:14:43Z</time></trkpt><trkpt lat="39.8682255" lon="-0.3383336"><ele>716.0</ele><time>2026-04-19T17:14:44.999Z</time></trkpt><trkpt lat="39.8681218" lon="-0.3383337"><ele>716.0</ele><time>2026-04-19T17:14:46.999Z</time></trkpt><trkpt lat="39.8680542" lon="-0.3382858"><ele>716.0</ele><time>2026-04-19T17:14:48.999Z</time></trkpt><trkpt lat="39.8680582" lon="-0.3381723"><ele>716.0</ele><time>2026-04-19T17:14:51.999Z</time></trkpt><trkpt lat="39.8681263" lon="-0.3381103"><ele>716.0</ele><time>2026-04-19T17:14:53.999Z</time></trkpt><trkpt lat="39.8681899" lon="-0.3380777"><ele>716.0</ele><time>2026-04-19T17:14:55Z</time></trkpt><trkpt lat="39.8682623" lon="-0.3380442"><ele>711.8333333333333</ele><time>2026-04-19T17:14:55.999Z</time></trkpt><trkpt lat="39.8683365" lon="-0.3380026"><ele>707.6666666666666</ele><time>2026-04-19T17:14:57Z</time></trkpt><trkpt lat="39.8684046" lon="-0.3379635"><ele>703.5</ele><time>2026-04-19T17:14:58Z</time></trkpt><trkpt lat="39.8684708" lon="-0.3379278"><ele>699.3333333333334</ele><time>2026-04-19T17:14:58.999Z</time></trkpt><trkpt lat="39.8685404" lon="-0.337902"><ele>695.1666666666667</ele><time>2026-04-19T17:14:59.999Z</time></trkpt><trkpt lat="39.8686147" lon="-0.3378974"><ele>691.0</ele><time>2026-04-19T17:15:00.999Z</time></trkpt><trkpt lat="39.8687032" lon="-0.3379019"><ele>691.0</ele><time>2026-04-19T17:15:02Z</time></trkpt><trkpt lat="39.868787" lon="-0.3379134"><ele>691.0</ele><time>2026-04-19T17:15:02.999Z</time></trkpt><trkpt lat="39.8688689" lon="-0.3379317"><ele>691.0</ele><time>2026-04-19T17:15:03.999Z</time></trkpt><trkpt lat="39.8689526" lon="-0.3379506"><ele>691.0</ele><time>2026-04-19T17:15:05Z</time></trkpt><trkpt lat="39.8690293" lon="-0.3379562"><ele>691.0</ele><time>2026-04-19T17:15:05.999Z</time></trkpt><trkpt lat="39.8690976" lon="-0.3379504"><ele>691.0</ele><time>2026-04-19T17:15:06.999Z</time></trkpt><trkpt lat="39.8691638" lon="-0.3379299"><ele>691.0</ele><time>2026-04-19T17:15:07.999Z</time></trkpt><trkpt lat="39.8692345" lon="-0.3378915"><ele>691.0</ele><time>2026-04-19T17:15:08.999Z</time></trkpt><trkpt lat="39.8693099" lon="-0.3378385"><ele>691.0</ele><time>2026-04-19T17:15:09.999Z</time></trkpt><trkpt lat="39.8693765" lon="-0.3377802"><ele>691.0</ele><time>2026-04-19T17:15:10.999Z</time></trkpt><trkpt lat="39.8694374" lon="-0.3377272"><ele>691.0</ele><time>2026-04-19T17:15:11.999Z</time></trkpt><trkpt lat="39.8694981" lon="-0.3376807"><ele>691.0</ele><time>2026-04-19T17:15:12.999Z</time></trkpt><trkpt lat="39.8695581" lon="-0.3376302"><ele>690.6666666666667</ele><time>2026-04-19T17:15:13.999Z</time></trkpt><trkpt lat="39.8696149" lon="-0.337586"><ele>690.3333333333334</ele><time>2026-04-19T17:15:14.999Z</time></trkpt><trkpt lat="39.8697155" lon="-0.3375245"><ele>690.0</ele><time>2026-04-19T17:15:16.999Z</time></trkpt><trkpt lat="39.8698191" lon="-0.337507"><ele>689.6666666666666</ele><time>2026-04-19T17:15:18.999Z</time></trkpt><trkpt lat="39.8698851" lon="-0.3375166"><ele>689.3333333333333</ele><time>2026-04-19T17:15:20Z</time></trkpt><trkpt lat="39.8699789" lon="-0.337532"><ele>689.0</ele><time>2026-04-19T17:15:21.999Z</time></trkpt><trkpt lat="39.8700634" lon="-0.3375454"><ele>686.6666666666666</ele><time>2026-04-19T17:15:23.999Z</time></trkpt><trkpt lat="39.8701329" lon="-0.3375417"><ele>684.3333333333333</ele><time>2026-04-19T17:15:25.999Z</time></trkpt><trkpt lat="39.8702157" lon="-0.3375208"><ele>682.0</ele><time>2026-04-19T17:15:29.999Z</time></trkpt><trkpt lat="39.8702636" lon="-0.3376333"><ele>679.6666666666666</ele><time>2026-04-19T17:15:31.999Z</time></trkpt><trkpt lat="39.8702865" lon="-0.3377121"><ele>677.3333333333334</ele><time>2026-04-19T17:15:32.999Z</time></trkpt><trkpt lat="39.8703084" lon="-0.3377984"><ele>675.0</ele><time>2026-04-19T17:15:33.999Z</time></trkpt><trkpt lat="39.8703325" lon="-0.3378933"><ele>675.0</ele><time>2026-04-19T17:15:35Z</time></trkpt><trkpt lat="39.8703665" lon="-0.3379876"><ele>675.0</ele><time>2026-04-19T17:15:35.999Z</time></trkpt><trkpt lat="39.8704067" lon="-0.3380872"><ele>675.0</ele><time>2026-04-19T17:15:36.999Z</time></trkpt><trkpt lat="39.8704498" lon="-0.3381865"><ele>675.0</ele><time>2026-04-19T17:15:37.999Z</time></trkpt><trkpt lat="39.8704929" lon="-0.3382899"><ele>675.0</ele><time>2026-04-19T17:15:39Z</time></trkpt><trkpt lat="39.8705519" lon="-0.3383855"><ele>675.0</ele><time>2026-04-19T17:15:39.999Z</time></trkpt><trkpt lat="39.8706124" lon="-0.3384861"><ele>678.0</ele><time>2026-04-19T17:15:40.999Z</time></trkpt><trkpt lat="39.870685" lon="-0.3385831"><ele>681.0</ele><time>2026-04-19T17:15:41.999Z</time></trkpt><trkpt lat="39.8707655" lon="-0.338674"><ele>684.0</ele><time>2026-04-19T17:15:42.999Z</time></trkpt><trkpt lat="39.8708478" lon="-0.3387621"><ele>687.0</ele><time>2026-04-19T17:15:43.998Z</time></trkpt><trkpt lat="39.8709348" lon="-0.3388435"><ele>690.0</ele><time>2026-04-19T17:15:44.999Z</time></trkpt><trkpt lat="39.8710166" lon="-0.3389072"><ele>693.0</ele><time>2026-04-19T17:15:45.999Z</time></trkpt><trkpt lat="39.8711044" lon="-0.3389537"><ele>696.0</ele><time>2026-04-19T17:15:47Z</time></trkpt><trkpt lat="39.8711996" lon="-0.338984"><ele>699.0</ele><time>2026-04-19T17:15:47.999Z</time></trkpt><trkpt lat="39.8712866" lon="-0.3390064"><ele>702.0</ele><time>2026-04-19T17:15:49Z</time></trkpt><trkpt lat="39.8713624" lon="-0.3390284"><ele>705.0</ele><time>2026-04-19T17:15:50Z</time></trkpt><trkpt lat="39.8714387" lon="-0.339025"><ele>708.0</ele><time>2026-04-19T17:15:51Z</time></trkpt><trkpt lat="39.8715015" lon="-0.3389927"><ele>706.5999999999999</ele><time>2026-04-19T17:15:52Z</time></trkpt><trkpt lat="39.8715746" lon="-0.338875"><ele>705.1999999999999</ele><time>2026-04-19T17:15:54Z</time></trkpt><trkpt lat="39.8715816" lon="-0.3387716"><ele>703.8</ele><time>2026-04-19T17:15:54.999Z</time></trkpt><trkpt lat="39.8715732" lon="-0.3386247"><ele>702.4</ele><time>2026-04-19T17:15:55.999Z</time></trkpt><trkpt lat="39.8715517" lon="-0.3384634"><ele>701.0</ele><time>2026-04-19T17:15:56.999Z</time></trkpt><trkpt lat="39.8715206" lon="-0.3383154"><ele>701.0</ele><time>2026-04-19T17:15:58Z</time></trkpt><trkpt lat="39.8714862" lon="-0.3381737"><ele>701.0</ele><time>2026-04-19T17:15:58.999Z</time></trkpt><trkpt lat="39.8714535" lon="-0.3380513"><ele>701.0</ele><time>2026-04-19T17:15:59.999Z</time></trkpt><trkpt lat="39.8714298" lon="-0.3379567"><ele>701.0</ele><time>2026-04-19T17:16:00.999Z</time></trkpt><trkpt lat="39.8714252" lon="-0.3378727"><ele>701.0</ele><time>2026-04-19T17:16:01.999Z</time></trkpt><trkpt lat="39.8714396" lon="-0.3377858"><ele>701.0</ele><time>2026-04-19T17:16:02.999Z</time></trkpt><trkpt lat="39.8714722" lon="-0.3377063"><ele>702.0</ele><time>2026-04-19T17:16:03.997Z</time></trkpt><trkpt lat="39.8715263" lon="-0.3376201"><ele>703.0</ele><time>2026-04-19T17:16:04.999Z</time></trkpt><trkpt lat="39.8715814" lon="-0.3375401"><ele>704.0</ele><time>2026-04-19T17:16:05.999Z</time></trkpt><trkpt lat="39.8716221" lon="-0.3374667"><ele>705.0</ele><time>2026-04-19T17:16:07Z</time></trkpt><trkpt lat="39.8716376" lon="-0.3373178"><ele>706.0</ele><time>2026-04-19T17:16:08.999Z</time></trkpt><trkpt lat="39.8715631" lon="-0.3371823"><ele>708.6666666666667</ele><time>2026-04-19T17:16:11Z</time></trkpt><trkpt lat="39.8714936" lon="-0.3371202"><ele>711.3333333333334</ele><time>2026-04-19T17:16:11.999Z</time></trkpt><trkpt lat="39.871409" lon="-0.3370656"><ele>714.0</ele><time>2026-04-19T17:16:13Z</time></trkpt><trkpt lat="39.8713183" lon="-0.3370222"><ele>716.6666666666666</ele><time>2026-04-19T17:16:13.999Z</time></trkpt><trkpt lat="39.871236" lon="-0.3369841"><ele>719.3333333333333</ele><time>2026-04-19T17:16:15Z</time></trkpt><trkpt lat="39.8711733" lon="-0.3369399"><ele>722.0</ele><time>2026-04-19T17:16:15.999Z</time></trkpt><trkpt lat="39.8711194" lon="-0.3368783"><ele>722.0</ele><time>2026-04-19T17:16:17Z</time></trkpt><trkpt lat="39.871075" lon="-0.3367975"><ele>722.0</ele><time>2026-04-19T17:16:17.999Z</time></trkpt><trkpt lat="39.8710367" lon="-0.3367099"><ele>722.0</ele><time>2026-04-19T17:16:18.999Z</time></trkpt><trkpt lat="39.8710014" lon="-0.3366089"><ele>722.0</ele><time>2026-04-19T17:16:20Z</time></trkpt><trkpt lat="39.8709797" lon="-0.336506"><ele>722.0</ele><time>2026-04-19T17:16:20.999Z</time></trkpt><trkpt lat="39.8709723" lon="-0.3364184"><ele>722.0</ele><time>2026-04-19T17:16:22Z</time></trkpt><trkpt lat="39.8710005" lon="-0.3362557"><ele>722.8333333333333</ele><time>2026-04-19T17:16:23.999Z</time></trkpt><trkpt lat="39.8710351" lon="-0.33617"><ele>723.6666666666666</ele><time>2026-04-19T17:16:24.999Z</time></trkpt><trkpt lat="39.8710772" lon="-0.3360814"><ele>724.5</ele><time>2026-04-19T17:16:25.999Z</time></trkpt><trkpt lat="39.8711238" lon="-0.33598"><ele>725.3333333333334</ele><time>2026-04-19T17:16:27Z</time></trkpt><trkpt lat="39.8711644" lon="-0.3358938"><ele>726.1666666666667</ele><time>2026-04-19T17:16:27.999Z</time></trkpt><trkpt lat="39.871199" lon="-0.3357495"><ele>727.0</ele><time>2026-04-19T17:16:29.999Z</time></trkpt><trkpt lat="39.8711895" lon="-0.3356644"><ele>727.0</ele><time>2026-04-19T17:16:30.999Z</time></trkpt><trkpt lat="39.8711666" lon="-0.3355783"><ele>727.0</ele><time>2026-04-19T17:16:31.999Z</time></trkpt><trkpt lat="39.8710959" lon="-0.3355018"><ele>727.0</ele><time>2026-04-19T17:16:33Z</time></trkpt><trkpt lat="39.8710157" lon="-0.3354319"><ele>727.0</ele><time>2026-04-19T17:16:33.999Z</time></trkpt><trkpt lat="39.8709441" lon="-0.3353622"><ele>727.0</ele><time>2026-04-19T17:16:35Z</time></trkpt><trkpt lat="39.8708836" lon="-0.3352821"><ele>727.0</ele><time>2026-04-19T17:16:35.999Z</time></trkpt><trkpt lat="39.8708305" lon="-0.3352094"><ele>724.5</ele><time>2026-04-19T17:16:36.999Z</time></trkpt><trkpt lat="39.8707792" lon="-0.335125"><ele>722.0</ele><time>2026-04-19T17:16:38Z</time></trkpt><trkpt lat="39.8707331" lon="-0.335036"><ele>719.5</ele><time>2026-04-19T17:16:38.999Z</time></trkpt><trkpt lat="39.8706962" lon="-0.3349573"><ele>717.0</ele><time>2026-04-19T17:16:40Z</time></trkpt><trkpt lat="39.8706701" lon="-0.33488"><ele>714.5</ele><time>2026-04-19T17:16:41Z</time></trkpt><trkpt lat="39.8706561" lon="-0.3347912"><ele>712.0</ele><time>2026-04-19T17:16:41.999Z</time></trkpt><trkpt lat="39.8706489" lon="-0.3346866"><ele>712.0</ele><time>2026-04-19T17:16:42.999Z</time></trkpt><trkpt lat="39.8706562" lon="-0.3345626"><ele>712.0</ele><time>2026-04-19T17:16:43.999Z</time></trkpt><trkpt lat="39.8706612" lon="-0.334444"><ele>712.0</ele><time>2026-04-19T17:16:44.999Z</time></trkpt><trkpt lat="39.8706489" lon="-0.3343393"><ele>712.0</ele><time>2026-04-19T17:16:45.999Z</time></trkpt><trkpt lat="39.8706194" lon="-0.3342356"><ele>712.0</ele><time>2026-04-19T17:16:46.999Z</time></trkpt><trkpt lat="39.8705718" lon="-0.3341431"><ele>712.0</ele><time>2026-04-19T17:16:47.999Z</time></trkpt><trkpt lat="39.870531" lon="-0.3340656"><ele>712.0</ele><time>2026-04-19T17:16:48.999Z</time></trkpt><trkpt lat="39.8705139" lon="-0.333985"><ele>712.0</ele><time>2026-04-19T17:16:49.999Z</time></trkpt><trkpt lat="39.8705123" lon="-0.3338941"><ele>712.0</ele><time>2026-04-19T17:16:50.999Z</time></trkpt><trkpt lat="39.8705256" lon="-0.3337821"><ele>712.0</ele><time>2026-04-19T17:16:51.999Z</time></trkpt><trkpt lat="39.8705444" lon="-0.3336541"><ele>712.0</ele><time>2026-04-19T17:16:52.999Z</time></trkpt><trkpt lat="39.8705693" lon="-0.3335142"><ele>712.0</ele><time>2026-04-19T17:16:53.999Z</time></trkpt><trkpt lat="39.8705932" lon="-0.3333629"><ele>712.2</ele><time>2026-04-19T17:16:55Z</time></trkpt><trkpt lat="39.8706129" lon="-0.3332112"><ele>712.4000000000001</ele><time>2026-04-19T17:16:55.999Z</time></trkpt><trkpt lat="39.8706352" lon="-0.3330549"><ele>712.5999999999999</ele><time>2026-04-19T17:16:56.999Z</time></trkpt><trkpt lat="39.8706591" lon="-0.3329142"><ele>712.8</ele><time>2026-04-19T17:16:57.999Z</time></trkpt><trkpt lat="39.8706825" lon="-0.3327957"><ele>713.0</ele><time>2026-04-19T17:16:58.999Z</time></trkpt><trkpt lat="39.8707119" lon="-0.3326934"><ele>713.6666666666666</ele><time>2026-04-19T17:17:00Z</time></trkpt><trkpt lat="39.8707403" lon="-0.3325857"><ele>714.3333333333333</ele><time>2026-04-19T17:17:00.999Z</time></trkpt><trkpt lat="39.8707525" lon="-0.3324973"><ele>715.0</ele><time>2026-04-19T17:17:01.999Z</time></trkpt><trkpt lat="39.8707116" lon="-0.3323489"><ele>715.6666666666666</ele><time>2026-04-19T17:17:04Z</time></trkpt><trkpt lat="39.8706554" lon="-0.332288"><ele>716.3333333333334</ele><time>2026-04-19T17:17:04.999Z</time></trkpt><trkpt lat="39.8705723" lon="-0.332239"><ele>717.0</ele><time>2026-04-19T17:17:05.999Z</time></trkpt><trkpt lat="39.8704691" lon="-0.3322081"><ele>712.5</ele><time>2026-04-19T17:17:06.999Z</time></trkpt><trkpt lat="39.8703507" lon="-0.3322028"><ele>708.0</ele><time>2026-04-19T17:17:07.999Z</time></trkpt><trkpt lat="39.870221" lon="-0.3322189"><ele>703.5</ele><time>2026-04-19T17:17:08.999Z</time></trkpt><trkpt lat="39.8700707" lon="-0.3322626"><ele>699.0</ele><time>2026-04-19T17:17:09.999Z</time></trkpt><trkpt lat="39.8699444" lon="-0.3323129"><ele>699.0</ele><time>2026-04-19T17:17:10.999Z</time></trkpt><trkpt lat="39.8698396" lon="-0.3323542"><ele>699.0</ele><time>2026-04-19T17:17:12Z</time></trkpt><trkpt lat="39.869744" lon="-0.3323825"><ele>699.0</ele><time>2026-04-19T17:17:12.999Z</time></trkpt><trkpt lat="39.8696357" lon="-0.3324045"><ele>699.0</ele><time>2026-04-19T17:17:13.999Z</time></trkpt><trkpt lat="39.8695142" lon="-0.3324146"><ele>699.0</ele><time>2026-04-19T17:17:14.999Z</time></trkpt><trkpt lat="39.8694086" lon="-0.3324253"><ele>699.0</ele><time>2026-04-19T17:17:15.999Z</time></trkpt><trkpt lat="39.8692991" lon="-0.3324507"><ele>699.0</ele><time>2026-04-19T17:17:16.999Z</time></trkpt><trkpt lat="39.8691976" lon="-0.3324812"><ele>699.0</ele><time>2026-04-19T17:17:18Z</time></trkpt><trkpt lat="39.8691131" lon="-0.3325064"><ele>699.0</ele><time>2026-04-19T17:17:18.999Z</time></trkpt><trkpt lat="39.8690399" lon="-0.3325191"><ele>699.0</ele><time>2026-04-19T17:17:19.999Z</time></trkpt><trkpt lat="39.8689711" lon="-0.3325104"><ele>699.0</ele><time>2026-04-19T17:17:20.999Z</time></trkpt><trkpt lat="39.8689021" lon="-0.3324777"><ele>697.8333333333334</ele><time>2026-04-19T17:17:21.999Z</time></trkpt><trkpt lat="39.8688432" lon="-0.3324137"><ele>696.6666666666666</ele><time>2026-04-19T17:17:22.999Z</time></trkpt><trkpt lat="39.868782" lon="-0.3323256"><ele>695.5</ele><time>2026-04-19T17:17:23.999Z</time></trkpt><trkpt lat="39.8687252" lon="-0.3322312"><ele>694.3333333333333</ele><time>2026-04-19T17:17:25Z</time></trkpt><trkpt lat="39.8686826" lon="-0.3321354"><ele>693.1666666666666</ele><time>2026-04-19T17:17:25.999Z</time></trkpt><trkpt lat="39.8686491" lon="-0.3320292"><ele>692.0</ele><time>2026-04-19T17:17:26.999Z</time></trkpt><trkpt lat="39.8686321" lon="-0.3319274"><ele>692.1666666666666</ele><time>2026-04-19T17:17:27.999Z</time></trkpt><trkpt lat="39.8686327" lon="-0.3318252"><ele>692.3333333333333</ele><time>2026-04-19T17:17:28.999Z</time></trkpt><trkpt lat="39.8686449" lon="-0.3317029"><ele>692.5</ele><time>2026-04-19T17:17:30Z</time></trkpt><trkpt lat="39.868667" lon="-0.3315894"><ele>692.6666666666666</ele><time>2026-04-19T17:17:30.998Z</time></trkpt><trkpt lat="39.8687011" lon="-0.3314924"><ele>692.8333333333334</ele><time>2026-04-19T17:17:32Z</time></trkpt><trkpt lat="39.8687581" lon="-0.3313829"><ele>693.0</ele><time>2026-04-19T17:17:33Z</time></trkpt><trkpt lat="39.8688478" lon="-0.3312543"><ele>693.0</ele><time>2026-04-19T17:17:34Z</time></trkpt><trkpt lat="39.8689408" lon="-0.3311309"><ele>693.0</ele><time>2026-04-19T17:17:34.999Z</time></trkpt><trkpt lat="39.869029" lon="-0.3310173"><ele>693.0</ele><time>2026-04-19T17:17:35.999Z</time></trkpt><trkpt lat="39.8691133" lon="-0.3309125"><ele>693.0</ele><time>2026-04-19T17:17:36.999Z</time></trkpt><trkpt lat="39.8691944" lon="-0.3308088"><ele>699.5999999999999</ele><time>2026-04-19T17:17:38Z</time></trkpt><trkpt lat="39.8692787" lon="-0.330703"><ele>706.1999999999999</ele><time>2026-04-19T17:17:38.999Z</time></trkpt><trkpt lat="39.8693571" lon="-0.3306056"><ele>712.8</ele><time>2026-04-19T17:17:40Z</time></trkpt><trkpt lat="39.8694237" lon="-0.3305091"><ele>719.4</ele><time>2026-04-19T17:17:40.999Z</time></trkpt><trkpt lat="39.8694835" lon="-0.3304081"><ele>726.0</ele><time>2026-04-19T17:17:41.999Z</time></trkpt><trkpt lat="39.8695313" lon="-0.3302924"><ele>726.0</ele><time>2026-04-19T17:17:43Z</time></trkpt><trkpt lat="39.8695679" lon="-0.3301685"><ele>726.0</ele><time>2026-04-19T17:17:43.999Z</time></trkpt><trkpt lat="39.869594" lon="-0.3300549"><ele>726.0</ele><time>2026-04-19T17:17:45Z</time></trkpt><trkpt lat="39.869621" lon="-0.3299403"><ele>726.0</ele><time>2026-04-19T17:17:45.999Z</time></trkpt><trkpt lat="39.8696464" lon="-0.3298246"><ele>726.0</ele><time>2026-04-19T17:17:46.999Z</time></trkpt><trkpt lat="39.8696614" lon="-0.329721"><ele>727.0</ele><time>2026-04-19T17:17:47.999Z</time></trkpt><trkpt lat="39.8696611" lon="-0.329638"><ele>728.0</ele><time>2026-04-19T17:17:48.999Z</time></trkpt><trkpt lat="39.8696202" lon="-0.3295177"><ele>729.0</ele><time>2026-04-19T17:17:51Z</time></trkpt><trkpt lat="39.8695194" lon="-0.3294673"><ele>730.0</ele><time>2026-04-19T17:17:52.999Z</time></trkpt><trkpt lat="39.8694222" lon="-0.329473"><ele>731.0</ele><time>2026-04-19T17:17:53.999Z</time></trkpt><trkpt lat="39.8693191" lon="-0.3294827"><ele>726.1999999999999</ele><time>2026-04-19T17:17:54.999Z</time></trkpt><trkpt lat="39.8692121" lon="-0.3294872"><ele>721.4</ele><time>2026-04-19T17:17:55.999Z</time></trkpt><trkpt lat="39.86912" lon="-0.3294847"><ele>716.6</ele><time>2026-04-19T17:17:56.999Z</time></trkpt><trkpt lat="39.8690192" lon="-0.329472"><ele>711.8</ele><time>2026-04-19T17:17:58Z</time></trkpt><trkpt lat="39.8689102" lon="-0.329437"><ele>707.0</ele><time>2026-04-19T17:17:58.999Z</time></trkpt><trkpt lat="39.8688146" lon="-0.3294082"><ele>707.0</ele><time>2026-04-19T17:17:59.999Z</time></trkpt><trkpt lat="39.8687422" lon="-0.3293818"><ele>707.0</ele><time>2026-04-19T17:18:00.999Z</time></trkpt><trkpt lat="39.8686807" lon="-0.329351"><ele>707.0</ele><time>2026-04-19T17:18:01.999Z</time></trkpt><trkpt lat="39.8686168" lon="-0.3292683"><ele>707.0</ele><time>2026-04-19T17:18:03.999Z</time></trkpt><trkpt lat="39.8685878" lon="-0.3291804"><ele>707.0</ele><time>2026-04-19T17:18:04.999Z</time></trkpt><trkpt lat="39.8685595" lon="-0.3290619"><ele>707.0</ele><time>2026-04-19T17:18:06Z</time></trkpt><trkpt lat="39.8685306" lon="-0.328937"><ele>705.0</ele><time>2026-04-19T17:18:07Z</time></trkpt><trkpt lat="39.8684892" lon="-0.3288039"><ele>703.0</ele><time>2026-04-19T17:18:07.999Z</time></trkpt><trkpt lat="39.8684497" lon="-0.3286589"><ele>701.0</ele><time>2026-04-19T17:18:08.999Z</time></trkpt><trkpt lat="39.8684157" lon="-0.3285277"><ele>699.0</ele><time>2026-04-19T17:18:09.999Z</time></trkpt><trkpt lat="39.8683824" lon="-0.3284158"><ele>697.0</ele><time>2026-04-19T17:18:10.999Z</time></trkpt><trkpt lat="39.8683455" lon="-0.3283168"><ele>697.0</ele><time>2026-04-19T17:18:11.999Z</time></trkpt><trkpt lat="39.8683139" lon="-0.3282325"><ele>697.0</ele><time>2026-04-19T17:18:12.999Z</time></trkpt><trkpt lat="39.8682815" lon="-0.3280563"><ele>697.0</ele><time>2026-04-19T17:18:15Z</time></trkpt><trkpt lat="39.8682674" lon="-0.327956"><ele>697.0</ele><time>2026-04-19T17:18:15.999Z</time></trkpt><trkpt lat="39.8682551" lon="-0.3278594"><ele>697.0</ele><time>2026-04-19T17:18:17Z</time></trkpt><trkpt lat="39.8682265" lon="-0.3277592"><ele>697.0</ele><time>2026-04-19T17:18:17.999Z</time></trkpt><trkpt lat="39.8681838" lon="-0.3276668"><ele>700.3333333333334</ele><time>2026-04-19T17:18:18.999Z</time></trkpt><trkpt lat="39.8681258" lon="-0.3275782"><ele>703.6666666666667</ele><time>2026-04-19T17:18:20Z</time></trkpt><trkpt lat="39.8680558" lon="-0.3274987"><ele>707.0</ele><time>2026-04-19T17:18:20.999Z</time></trkpt><trkpt lat="39.8679909" lon="-0.3274301"><ele>710.3333333333334</ele><time>2026-04-19T17:18:21.999Z</time></trkpt><trkpt lat="39.8679318" lon="-0.3273571"><ele>713.6666666666666</ele><time>2026-04-19T17:18:22.999Z</time></trkpt><trkpt lat="39.8678752" lon="-0.3272776"><ele>717.0</ele><time>2026-04-19T17:18:23.999Z</time></trkpt><trkpt lat="39.8678279" lon="-0.3271857"><ele>715.8</ele><time>2026-04-19T17:18:25Z</time></trkpt><trkpt lat="39.8677909" lon="-0.3270816"><ele>714.6</ele><time>2026-04-19T17:18:25.999Z</time></trkpt><trkpt lat="39.8677564" lon="-0.3269655"><ele>713.4</ele><time>2026-04-19T17:18:26.999Z</time></trkpt><trkpt lat="39.8677126" lon="-0.3268569"><ele>712.1999999999999</ele><time>2026-04-19T17:18:27.999Z</time></trkpt><trkpt lat="39.8676527" lon="-0.3267589"><ele>711.0</ele><time>2026-04-19T17:18:28.999Z</time></trkpt><trkpt lat="39.8675836" lon="-0.3266715"><ele>711.0</ele><time>2026-04-19T17:18:29.999Z</time></trkpt><trkpt lat="39.8675194" lon="-0.3266072"><ele>711.0</ele><time>2026-04-19T17:18:30.999Z</time></trkpt><trkpt lat="39.8674524" lon="-0.3265561"><ele>711.0</ele><time>2026-04-19T17:18:31.999Z</time></trkpt><trkpt lat="39.8673809" lon="-0.3265263"><ele>711.0</ele><time>2026-04-19T17:18:32.999Z</time></trkpt><trkpt lat="39.8672997" lon="-0.3265243"><ele>711.0</ele><time>2026-04-19T17:18:33.999Z</time></trkpt><trkpt lat="39.867209" lon="-0.3265184"><ele>711.0</ele><time>2026-04-19T17:18:34.999Z</time></trkpt><trkpt lat="39.8671009" lon="-0.3265005"><ele>711.0</ele><time>2026-04-19T17:18:35.999Z</time></trkpt><trkpt lat="39.8669911" lon="-0.3264621"><ele>711.0</ele><time>2026-04-19T17:18:36.999Z</time></trkpt><trkpt lat="39.8668819" lon="-0.3264099"><ele>711.0</ele><time>2026-04-19T17:18:37.999Z</time></trkpt><trkpt lat="39.8667628" lon="-0.3263808"><ele>711.0</ele><time>2026-04-19T17:18:38.999Z</time></trkpt><trkpt lat="39.8666576" lon="-0.326376"><ele>713.3333333333334</ele><time>2026-04-19T17:18:40Z</time></trkpt><trkpt lat="39.8665726" lon="-0.326377"><ele>715.6666666666666</ele><time>2026-04-19T17:18:40.999Z</time></trkpt><trkpt lat="39.8665017" lon="-0.3263771"><ele>718.0</ele><time>2026-04-19T17:18:41.999Z</time></trkpt><trkpt lat="39.8663814" lon="-0.3263358"><ele>720.3333333333333</ele><time>2026-04-19T17:18:44Z</time></trkpt><trkpt lat="39.8663314" lon="-0.3262767"><ele>722.6666666666666</ele><time>2026-04-19T17:18:44.999Z</time></trkpt><trkpt lat="39.8662874" lon="-0.326186"><ele>725.0</ele><time>2026-04-19T17:18:46Z</time></trkpt><trkpt lat="39.8662414" lon="-0.3260628"><ele>725.0</ele><time>2026-04-19T17:18:46.999Z</time></trkpt><trkpt lat="39.8661955" lon="-0.3259319"><ele>725.0</ele><time>2026-04-19T17:18:47.999Z</time></trkpt><trkpt lat="39.8661579" lon="-0.3257899"><ele>725.0</ele><time>2026-04-19T17:18:48.999Z</time></trkpt><trkpt lat="39.866131" lon="-0.3256305"><ele>725.0</ele><time>2026-04-19T17:18:49.999Z</time></trkpt><trkpt lat="39.8661003" lon="-0.325451"><ele>727.75</ele><time>2026-04-19T17:18:50.999Z</time></trkpt><trkpt lat="39.8660627" lon="-0.3252825"><ele>730.5</ele><time>2026-04-19T17:18:51.999Z</time></trkpt><trkpt lat="39.8660152" lon="-0.3251222"><ele>733.25</ele><time>2026-04-19T17:18:52.999Z</time></trkpt><trkpt lat="39.8659702" lon="-0.324952"><ele>736.0</ele><time>2026-04-19T17:18:53.999Z</time></trkpt><trkpt lat="39.8659292" lon="-0.3247943"><ele>728.5999999999999</ele><time>2026-04-19T17:18:54.999Z</time></trkpt><trkpt lat="39.8658919" lon="-0.324658"><ele>721.2</ele><time>2026-04-19T17:18:55.999Z</time></trkpt><trkpt lat="39.8658586" lon="-0.324532"><ele>713.8</ele><time>2026-04-19T17:18:56.999Z</time></trkpt><trkpt lat="39.8658329" lon="-0.3244197"><ele>706.4000000000001</ele><time>2026-04-19T17:18:57.999Z</time></trkpt><trkpt lat="39.8658192" lon="-0.3243328"><ele>699.0</ele><time>2026-04-19T17:18:59Z</time></trkpt><trkpt lat="39.8658199" lon="-0.3241816"><ele>699.0</ele><time>2026-04-19T17:19:00.999Z</time></trkpt><trkpt lat="39.8658461" lon="-0.324059"><ele>699.0</ele><time>2026-04-19T17:19:03Z</time></trkpt><trkpt lat="39.865875" lon="-0.3239693"><ele>699.0</ele><time>2026-04-19T17:19:04.999Z</time></trkpt><trkpt lat="39.8659108" lon="-0.3238778"><ele>699.0</ele><time>2026-04-19T17:19:08.999Z</time></trkpt><trkpt lat="39.8659713" lon="-0.3238395"><ele>699.0</ele><time>2026-04-19T17:19:11.999Z</time></trkpt><trkpt lat="39.8660522" lon="-0.3238992"><ele>699.0</ele><time>2026-04-19T17:19:13.999Z</time></trkpt><trkpt lat="39.866168" lon="-0.3239667"><ele>702.8333333333334</ele><time>2026-04-19T17:19:15.999Z</time></trkpt><trkpt lat="39.8662382" lon="-0.3239917"><ele>706.6666666666666</ele><time>2026-04-19T17:19:16.999Z</time></trkpt><trkpt lat="39.8663203" lon="-0.3240086"><ele>710.5</ele><time>2026-04-19T17:19:17.999Z</time></trkpt><trkpt lat="39.8664068" lon="-0.3240148"><ele>714.3333333333333</ele><time>2026-04-19T17:19:18.999Z</time></trkpt><trkpt lat="39.8664982" lon="-0.3240248"><ele>718.1666666666666</ele><time>2026-04-19T17:19:20Z</time></trkpt><trkpt lat="39.8665835" lon="-0.3240279"><ele>722.0</ele><time>2026-04-19T17:19:20.999Z</time></trkpt><trkpt lat="39.8666656" lon="-0.3240079"><ele>722.0</ele><time>2026-04-19T17:19:21.999Z</time></trkpt><trkpt lat="39.8667387" lon="-0.323955"><ele>722.0</ele><time>2026-04-19T17:19:23Z</time></trkpt><trkpt lat="39.8668044" lon="-0.3238953"><ele>722.0</ele><time>2026-04-19T17:19:23.999Z</time></trkpt><trkpt lat="39.866877" lon="-0.3238444"><ele>722.0</ele><time>2026-04-19T17:19:24.999Z</time></trkpt><trkpt lat="39.866953" lon="-0.3238013"><ele>722.0</ele><time>2026-04-19T17:19:25.999Z</time></trkpt><trkpt lat="39.86703" lon="-0.3237709"><ele>722.0</ele><time>2026-04-19T17:19:27Z</time></trkpt><trkpt lat="39.8670907" lon="-0.3237322"><ele>722.7142857142858</ele><time>2026-04-19T17:19:27.999Z</time></trkpt><trkpt lat="39.8671469" lon="-0.3236757"><ele>723.4285714285713</ele><time>2026-04-19T17:19:29Z</time></trkpt><trkpt lat="39.8671879" lon="-0.3236022"><ele>724.1428571428571</ele><time>2026-04-19T17:19:29.999Z</time></trkpt><trkpt lat="39.8672101" lon="-0.3235196"><ele>724.8571428571429</ele><time>2026-04-19T17:19:31Z</time></trkpt><trkpt lat="39.8672218" lon="-0.3234251"><ele>725.5714285714287</ele><time>2026-04-19T17:19:32Z</time></trkpt><trkpt lat="39.8672425" lon="-0.3233288"><ele>726.2857142857142</ele><time>2026-04-19T17:19:32.999Z</time></trkpt><trkpt lat="39.8672803" lon="-0.3232521"><ele>727.0</ele><time>2026-04-19T17:19:33.999Z</time></trkpt><trkpt lat="39.8673324" lon="-0.3231982"><ele>727.0</ele><time>2026-04-19T17:19:34.999Z</time></trkpt><trkpt lat="39.8673946" lon="-0.323155"><ele>727.0</ele><time>2026-04-19T17:19:35.999Z</time></trkpt><trkpt lat="39.8674607" lon="-0.3231164"><ele>727.0</ele><time>2026-04-19T17:19:36.999Z</time></trkpt><trkpt lat="39.8675325" lon="-0.3230909"><ele>727.0</ele><time>2026-04-19T17:19:38Z</time></trkpt><trkpt lat="39.8676092" lon="-0.3230796"><ele>727.0</ele><time>2026-04-19T17:19:38.999Z</time></trkpt><trkpt lat="39.8676916" lon="-0.3230905"><ele>727.0</ele><time>2026-04-19T17:19:39.999Z</time></trkpt><trkpt lat="39.8677781" lon="-0.3231066"><ele>729.2</ele><time>2026-04-19T17:19:40.999Z</time></trkpt><trkpt lat="39.8678656" lon="-0.3231232"><ele>731.4000000000001</ele><time>2026-04-19T17:19:42Z</time></trkpt><trkpt lat="39.867957" lon="-0.3231416"><ele>733.5999999999999</ele><time>2026-04-19T17:19:43Z</time></trkpt><trkpt lat="39.8680527" lon="-0.3231555"><ele>735.8</ele><time>2026-04-19T17:19:43.999Z</time></trkpt><trkpt lat="39.868148" lon="-0.323157"><ele>738.0</ele><time>2026-04-19T17:19:45Z</time></trkpt><trkpt lat="39.8682434" lon="-0.3231604"><ele>738.0</ele><time>2026-04-19T17:19:46Z</time></trkpt><trkpt lat="39.8683388" lon="-0.3231712"><ele>738.0</ele><time>2026-04-19T17:19:46.999Z</time></trkpt><trkpt lat="39.8684152" lon="-0.3231971"><ele>738.0</ele><time>2026-04-19T17:19:47.999Z</time></trkpt><trkpt lat="39.8684807" lon="-0.3232452"><ele>738.0</ele><time>2026-04-19T17:19:49Z</time></trkpt><trkpt lat="39.8685324" lon="-0.3233059"><ele>738.0</ele><time>2026-04-19T17:19:49.999Z</time></trkpt><trkpt lat="39.8685705" lon="-0.3233899"><ele>738.0</ele><time>2026-04-19T17:19:50.999Z</time></trkpt><trkpt lat="39.8686029" lon="-0.3234832"><ele>739.0</ele><time>2026-04-19T17:19:51.999Z</time></trkpt><trkpt lat="39.8686421" lon="-0.3235703"><ele>740.0</ele><time>2026-04-19T17:19:52.999Z</time></trkpt><trkpt lat="39.8686942" lon="-0.3236352"><ele>741.0</ele><time>2026-04-19T17:19:53.999Z</time></trkpt><trkpt lat="39.8687597" lon="-0.3236809"><ele>742.0</ele><time>2026-04-19T17:19:54.999Z</time></trkpt><trkpt lat="39.8688354" lon="-0.3237082"><ele>743.0</ele><time>2026-04-19T17:19:55.999Z</time></trkpt><trkpt lat="39.8689152" lon="-0.3237304"><ele>744.0</ele><time>2026-04-19T17:19:56.999Z</time></trkpt><trkpt lat="39.8689953" lon="-0.3237511"><ele>744.0</ele><time>2026-04-19T17:19:57.999Z</time></trkpt><trkpt lat="39.8690796" lon="-0.3237795"><ele>744.0</ele><time>2026-04-19T17:19:58.999Z</time></trkpt><trkpt lat="39.8691476" lon="-0.3237977"><ele>744.0</ele><time>2026-04-19T17:19:59.999Z</time></trkpt><trkpt lat="39.8692441" lon="-0.3237682"><ele>744.0</ele><time>2026-04-19T17:20:01.999Z</time></trkpt><trkpt lat="39.8692943" lon="-0.3236433"><ele>744.0</ele><time>2026-04-19T17:20:03.999Z</time></trkpt><trkpt lat="39.8692931" lon="-0.3235554"><ele>744.0</ele><time>2026-04-19T17:20:05Z</time></trkpt><trkpt lat="39.8692822" lon="-0.323453"><ele>744.0</ele><time>2026-04-19T17:20:06Z</time></trkpt><trkpt lat="39.8692754" lon="-0.3233457"><ele>744.0</ele><time>2026-04-19T17:20:06.999Z</time></trkpt><trkpt lat="39.8692815" lon="-0.3232232"><ele>744.0</ele><time>2026-04-19T17:20:07.999Z</time></trkpt><trkpt lat="39.8692967" lon="-0.3231062"><ele>744.0</ele><time>2026-04-19T17:20:08.999Z</time></trkpt><trkpt lat="39.8693173" lon="-0.3229795"><ele>744.0</ele><time>2026-04-19T17:20:09.999Z</time></trkpt><trkpt lat="39.8693415" lon="-0.3228516"><ele>750.4000000000001</ele><time>2026-04-19T17:20:10.999Z</time></trkpt><trkpt lat="39.8693619" lon="-0.3227219"><ele>756.8</ele><time>2026-04-19T17:20:11.999Z</time></trkpt><trkpt lat="39.8693795" lon="-0.3225872"><ele>763.2</ele><time>2026-04-19T17:20:12.999Z</time></trkpt><trkpt lat="39.8693843" lon="-0.3224547"><ele>769.5999999999999</ele><time>2026-04-19T17:20:13.999Z</time></trkpt><trkpt lat="39.8693737" lon="-0.3223208"><ele>776.0</ele><time>2026-04-19T17:20:14.999Z</time></trkpt><trkpt lat="39.8693475" lon="-0.3222005"><ele>776.0</ele><time>2026-04-19T17:20:15.999Z</time></trkpt><trkpt lat="39.8693079" lon="-0.3220907"><ele>776.0</ele><time>2026-04-19T17:20:16.999Z</time></trkpt><trkpt lat="39.8692565" lon="-0.321994"><ele>776.0</ele><time>2026-04-19T17:20:17.999Z</time></trkpt><trkpt lat="39.8691912" lon="-0.3219051"><ele>776.0</ele><time>2026-04-19T17:20:18.999Z</time></trkpt><trkpt lat="39.8691241" lon="-0.3218245"><ele>776.0</ele><time>2026-04-19T17:20:19.999Z</time></trkpt><trkpt lat="39.8690518" lon="-0.3217486"><ele>772.3333333333334</ele><time>2026-04-19T17:20:20.999Z</time></trkpt><trkpt lat="39.8689813" lon="-0.3216675"><ele>768.6666666666667</ele><time>2026-04-19T17:20:21.999Z</time></trkpt><trkpt lat="39.8689239" lon="-0.3215957"><ele>765.0</ele><time>2026-04-19T17:20:22.999Z</time></trkpt><trkpt lat="39.8688793" lon="-0.3215319"><ele>761.3333333333334</ele><time>2026-04-19T17:20:23.999Z</time></trkpt><trkpt lat="39.8688206" lon="-0.3214219"><ele>757.6666666666667</ele><time>2026-04-19T17:20:25.999Z</time></trkpt><trkpt lat="39.8687954" lon="-0.3213262"><ele>754.0</ele><time>2026-04-19T17:20:27.999Z</time></trkpt><trkpt lat="39.8687814" lon="-0.3211831"><ele>754.0</ele><time>2026-04-19T17:20:29.999Z</time></trkpt><trkpt lat="39.8688111" lon="-0.321072"><ele>754.0</ele><time>2026-04-19T17:20:31.999Z</time></trkpt><trkpt lat="39.8688871" lon="-0.3209981"><ele>754.0</ele><time>2026-04-19T17:20:33.999Z</time></trkpt><trkpt lat="39.869006" lon="-0.3210049"><ele>754.0</ele><time>2026-04-19T17:20:36Z</time></trkpt><trkpt lat="39.8690667" lon="-0.3210399"><ele>754.0</ele><time>2026-04-19T17:20:37Z</time></trkpt><trkpt lat="39.8691293" lon="-0.3210814"><ele>754.0</ele><time>2026-04-19T17:20:37.999Z</time></trkpt><trkpt lat="39.8691911" lon="-0.3211271"><ele>753.9999999999999</ele><time>2026-04-19T17:20:38.999Z</time></trkpt><trkpt lat="39.8692498" lon="-0.3211736"><ele>754.0</ele><time>2026-04-19T17:20:39.999Z</time></trkpt><trkpt lat="39.8693067" lon="-0.3212182"><ele>754.0</ele><time>2026-04-19T17:20:40.999Z</time></trkpt><trkpt lat="39.8693675" lon="-0.3212535"><ele>754.0</ele><time>2026-04-19T17:20:41.999Z</time></trkpt><trkpt lat="39.8694282" lon="-0.3212851"><ele>754.0</ele><time>2026-04-19T17:20:43Z</time></trkpt><trkpt lat="39.8694943" lon="-0.3213061"><ele>753.9999999999999</ele><time>2026-04-19T17:20:43.999Z</time></trkpt><trkpt lat="39.8695563" lon="-0.3213311"><ele>754.0</ele><time>2026-04-19T17:20:44.999Z</time></trkpt><trkpt lat="39.8696185" lon="-0.3213676"><ele>757.1428571428571</ele><time>2026-04-19T17:20:45.999Z</time></trkpt><trkpt lat="39.869681" lon="-0.3214161"><ele>760.2857142857142</ele><time>2026-04-19T17:20:47Z</time></trkpt><trkpt lat="39.8697313" lon="-0.3214834"><ele>763.4285714285713</ele><time>2026-04-19T17:20:47.999Z</time></trkpt><trkpt lat="39.8697662" lon="-0.3215702"><ele>766.5714285714286</ele><time>2026-04-19T17:20:48.995Z</time></trkpt><trkpt lat="39.8697852" lon="-0.321663"><ele>769.7142857142858</ele><time>2026-04-19T17:20:49.999Z</time></trkpt><trkpt lat="39.8697949" lon="-0.3217633"><ele>772.8571428571428</ele><time>2026-04-19T17:20:50.999Z</time></trkpt><trkpt lat="39.8698085" lon="-0.3218609"><ele>776.0</ele><time>2026-04-19T17:20:51.999Z</time></trkpt><trkpt lat="39.8698254" lon="-0.3219584"><ele>776.0000000000001</ele><time>2026-04-19T17:20:52.999Z</time></trkpt><trkpt lat="39.8698503" lon="-0.3220541"><ele>776.0</ele><time>2026-04-19T17:20:53.999Z</time></trkpt><trkpt lat="39.8698776" lon="-0.3221581"><ele>776.0</ele><time>2026-04-19T17:20:54.999Z</time></trkpt><trkpt lat="39.8699076" lon="-0.3222667"><ele>776.0</ele><time>2026-04-19T17:20:55.999Z</time></trkpt><trkpt lat="39.8699349" lon="-0.3223796"><ele>776.0000000000001</ele><time>2026-04-19T17:20:56.999Z</time></trkpt><trkpt lat="39.8699555" lon="-0.3224926"><ele>776.0</ele><time>2026-04-19T17:20:58Z</time></trkpt><trkpt lat="39.869973" lon="-0.3226161"><ele>778.75</ele><time>2026-04-19T17:20:58.999Z</time></trkpt><trkpt lat="39.869991" lon="-0.3227464"><ele>781.5</ele><time>2026-04-19T17:21:00Z</time></trkpt><trkpt lat="39.8700119" lon="-0.3228864"><ele>784.25</ele><time>2026-04-19T17:21:00.999Z</time></trkpt><trkpt lat="39.8700393" lon="-0.3230448"><ele>787.0</ele><time>2026-04-19T17:21:01.999Z</time></trkpt><trkpt lat="39.8700687" lon="-0.3232173"><ele>788.5</ele><time>2026-04-19T17:21:02.999Z</time></trkpt><trkpt lat="39.8700989" lon="-0.3233947"><ele>790.0</ele><time>2026-04-19T17:21:03.999Z</time></trkpt><trkpt lat="39.8701297" lon="-0.3235703"><ele>791.5</ele><time>2026-04-19T17:21:05Z</time></trkpt><trkpt lat="39.8701606" lon="-0.3237515"><ele>793.0</ele><time>2026-04-19T17:21:05.999Z</time></trkpt><trkpt lat="39.8701911" lon="-0.3239364"><ele>808.75</ele><time>2026-04-19T17:21:06.999Z</time></trkpt><trkpt lat="39.8702226" lon="-0.3241196"><ele>824.5</ele><time>2026-04-19T17:21:07.999Z</time></trkpt><trkpt lat="39.8702493" lon="-0.324303"><ele>840.25</ele><time>2026-04-19T17:21:08.999Z</time></trkpt><trkpt lat="39.8702641" lon="-0.3244971"><ele>856.0</ele><time>2026-04-19T17:21:09.998Z</time></trkpt><trkpt lat="39.8702736" lon="-0.3246734"><ele>856.5</ele><time>2026-04-19T17:21:10.999Z</time></trkpt><trkpt lat="39.8702794" lon="-0.324838"><ele>857.0</ele><time>2026-04-19T17:21:12Z</time></trkpt><trkpt lat="39.8702885" lon="-0.3249983"><ele>857.5</ele><time>2026-04-19T17:21:12.999Z</time></trkpt><trkpt lat="39.8702988" lon="-0.325149"><ele>858.0</ele><time>2026-04-19T17:21:14Z</time></trkpt><trkpt lat="39.8703107" lon="-0.3252869"><ele>858.0</ele><time>2026-04-19T17:21:14.999Z</time></trkpt><trkpt lat="39.8703146" lon="-0.3254072"><ele>858.0</ele><time>2026-04-19T17:21:16Z</time></trkpt><trkpt lat="39.8703031" lon="-0.3255156"><ele>858.0</ele><time>2026-04-19T17:21:16.999Z</time></trkpt><trkpt lat="39.8702855" lon="-0.3256047"><ele>858.0</ele><time>2026-04-19T17:21:17.999Z</time></trkpt><trkpt lat="39.8702583" lon="-0.3256816"><ele>858.0</ele><time>2026-04-19T17:21:18.999Z</time></trkpt><trkpt lat="39.8702145" lon="-0.3257511"><ele>858.0</ele><time>2026-04-19T17:21:19.999Z</time></trkpt><trkpt lat="39.8701596" lon="-0.3257957"><ele>858.0</ele><time>2026-04-19T17:21:20.999Z</time></trkpt><trkpt lat="39.8700866" lon="-0.3258235"><ele>852.5</ele><time>2026-04-19T17:21:21.999Z</time></trkpt><trkpt lat="39.8700064" lon="-0.3258251"><ele>847.0</ele><time>2026-04-19T17:21:23Z</time></trkpt><trkpt lat="39.8699268" lon="-0.3257927"><ele>841.5</ele><time>2026-04-19T17:21:23.999Z</time></trkpt><trkpt lat="39.8698401" lon="-0.3257455"><ele>836.0</ele><time>2026-04-19T17:21:24.999Z</time></trkpt><trkpt lat="39.8697678" lon="-0.3257126"><ele>830.5</ele><time>2026-04-19T17:21:25.999Z</time></trkpt><trkpt lat="39.8696672" lon="-0.3256763"><ele>825.0</ele><time>2026-04-19T17:21:27.999Z</time></trkpt><trkpt lat="39.8695907" lon="-0.3257122"><ele>825.0</ele><time>2026-04-19T17:21:31Z</time></trkpt><trkpt lat="39.869631" lon="-0.3258261"><ele>825.0</ele><time>2026-04-19T17:21:33.999Z</time></trkpt><trkpt lat="39.8696887" lon="-0.3258635"><ele>825.0</ele><time>2026-04-19T17:21:34.999Z</time></trkpt><trkpt lat="39.8698033" lon="-0.325942"><ele>825.0</ele><time>2026-04-19T17:21:36.999Z</time></trkpt><trkpt lat="39.8698628" lon="-0.3260073"><ele>825.0</ele><time>2026-04-19T17:21:37.999Z</time></trkpt><trkpt lat="39.8699215" lon="-0.3260861"><ele>825.0</ele><time>2026-04-19T17:21:38.999Z</time></trkpt><trkpt lat="39.8699823" lon="-0.326167"><ele>825.0</ele><time>2026-04-19T17:21:39.999Z</time></trkpt><trkpt lat="39.8700476" lon="-0.3262085"><ele>825.0</ele><time>2026-04-19T17:21:40.999Z</time></trkpt><trkpt lat="39.8701206" lon="-0.3262284"><ele>825.0</ele><time>2026-04-19T17:21:42Z</time></trkpt><trkpt lat="39.8701998" lon="-0.3262256"><ele>825.0</ele><time>2026-04-19T17:21:43Z</time></trkpt><trkpt lat="39.8702837" lon="-0.3262075"><ele>825.0</ele><time>2026-04-19T17:21:43.999Z</time></trkpt><trkpt lat="39.8703704" lon="-0.3261801"><ele>832.0</ele><time>2026-04-19T17:21:45Z</time></trkpt><trkpt lat="39.870449" lon="-0.3261317"><ele>839.0</ele><time>2026-04-19T17:21:45.999Z</time></trkpt><trkpt lat="39.8705264" lon="-0.3260716"><ele>846.0</ele><time>2026-04-19T17:21:46.999Z</time></trkpt><trkpt lat="39.870604" lon="-0.3259942"><ele>853.0</ele><time>2026-04-19T17:21:47.999Z</time></trkpt><trkpt lat="39.870676" lon="-0.3259063"><ele>860.0</ele><time>2026-04-19T17:21:48.999Z</time></trkpt><trkpt lat="39.8707364" lon="-0.3258062"><ele>860.0000000000001</ele><time>2026-04-19T17:21:49.999Z</time></trkpt><trkpt lat="39.8707837" lon="-0.3256983"><ele>860.0</ele><time>2026-04-19T17:21:50.999Z</time></trkpt><trkpt lat="39.870814" lon="-0.325588"><ele>860.0</ele><time>2026-04-19T17:21:51.999Z</time></trkpt><trkpt lat="39.870823" lon="-0.3254786"><ele>860.0</ele><time>2026-04-19T17:21:52.999Z</time></trkpt><trkpt lat="39.8708176" lon="-0.3253701"><ele>860.0000000000001</ele><time>2026-04-19T17:21:53.999Z</time></trkpt><trkpt lat="39.8708105" lon="-0.3252502"><ele>860.0</ele><time>2026-04-19T17:21:55Z</time></trkpt><trkpt lat="39.8708098" lon="-0.3251258"><ele>859.6</ele><time>2026-04-19T17:21:55.999Z</time></trkpt><trkpt lat="39.870818" lon="-0.3249996"><ele>859.2</ele><time>2026-04-19T17:21:56.999Z</time></trkpt><trkpt lat="39.8708299" lon="-0.3248688"><ele>858.8</ele><time>2026-04-19T17:21:57.999Z</time></trkpt><trkpt lat="39.8708498" lon="-0.3247383"><ele>858.4</ele><time>2026-04-19T17:21:58.999Z</time></trkpt><trkpt lat="39.8708736" lon="-0.3246028"><ele>858.0</ele><time>2026-04-19T17:22:00Z</time></trkpt><trkpt lat="39.8709025" lon="-0.3244635"><ele>857.5999999999999</ele><time>2026-04-19T17:22:01Z</time></trkpt><trkpt lat="39.8709298" lon="-0.3243286"><ele>857.1999999999999</ele><time>2026-04-19T17:22:02Z</time></trkpt><trkpt lat="39.8709556" lon="-0.3241936"><ele>856.8</ele><time>2026-04-19T17:22:02.999Z</time></trkpt><trkpt lat="39.8709788" lon="-0.3240597"><ele>856.4</ele><time>2026-04-19T17:22:03.999Z</time></trkpt><trkpt lat="39.8710026" lon="-0.3239255"><ele>856.0</ele><time>2026-04-19T17:22:04.999Z</time></trkpt><trkpt lat="39.8710278" lon="-0.3237925"><ele>862.3333333333333</ele><time>2026-04-19T17:22:05.999Z</time></trkpt><trkpt lat="39.8710535" lon="-0.3236761"><ele>868.6666666666666</ele><time>2026-04-19T17:22:07Z</time></trkpt><trkpt lat="39.871077" lon="-0.323592"><ele>875.0</ele><time>2026-04-19T17:22:08Z</time></trkpt><trkpt lat="39.8711174" lon="-0.3234979"><ele>881.3333333333333</ele><time>2026-04-19T17:22:10Z</time></trkpt><trkpt lat="39.8711891" lon="-0.3235325"><ele>887.6666666666666</ele><time>2026-04-19T17:22:13Z</time></trkpt><trkpt lat="39.8711777" lon="-0.3236678"><ele>894.0</ele><time>2026-04-19T17:22:14.999Z</time></trkpt><trkpt lat="39.8711696" lon="-0.3237541"><ele>894.0</ele><time>2026-04-19T17:22:16Z</time></trkpt><trkpt lat="39.8711678" lon="-0.3238436"><ele>894.0</ele><time>2026-04-19T17:22:16.999Z</time></trkpt><trkpt lat="39.8711698" lon="-0.3239327"><ele>894.0</ele><time>2026-04-19T17:22:18Z</time></trkpt><trkpt lat="39.8711762" lon="-0.3240345"><ele>894.0</ele><time>2026-04-19T17:22:19Z</time></trkpt><trkpt lat="39.8711832" lon="-0.3241373"><ele>894.0</ele><time>2026-04-19T17:22:20Z</time></trkpt><trkpt lat="39.8711924" lon="-0.3242456"><ele>894.0</ele><time>2026-04-19T17:22:20.999Z</time></trkpt><trkpt lat="39.8712011" lon="-0.3243565"><ele>897.0</ele><time>2026-04-19T17:22:22Z</time></trkpt><trkpt lat="39.8712037" lon="-0.3244708"><ele>900.0</ele><time>2026-04-19T17:22:22.999Z</time></trkpt><trkpt lat="39.8712058" lon="-0.3245838"><ele>903.0</ele><time>2026-04-19T17:22:23.999Z</time></trkpt><trkpt lat="39.8712154" lon="-0.3246934"><ele>906.0</ele><time>2026-04-19T17:22:24.999Z</time></trkpt><trkpt lat="39.871228" lon="-0.3248061"><ele>909.0</ele><time>2026-04-19T17:22:25.999Z</time></trkpt><trkpt lat="39.8712503" lon="-0.3249201"><ele>912.0</ele><time>2026-04-19T17:22:26.999Z</time></trkpt><trkpt lat="39.8712807" lon="-0.3250271"><ele>912.3333333333334</ele><time>2026-04-19T17:22:28Z</time></trkpt><trkpt lat="39.8713172" lon="-0.3251342"><ele>912.6666666666667</ele><time>2026-04-19T17:22:29Z</time></trkpt><trkpt lat="39.8713571" lon="-0.3252364"><ele>913.0</ele><time>2026-04-19T17:22:29.999Z</time></trkpt><trkpt lat="39.8713885" lon="-0.3253494"><ele>913.3333333333334</ele><time>2026-04-19T17:22:30.999Z</time></trkpt><trkpt lat="39.871408" lon="-0.3254583"><ele>913.6666666666667</ele><time>2026-04-19T17:22:31.999Z</time></trkpt><trkpt lat="39.871416" lon="-0.3255768"><ele>914.0</ele><time>2026-04-19T17:22:32.999Z</time></trkpt><trkpt lat="39.8714158" lon="-0.3256964"><ele>912.5000000000001</ele><time>2026-04-19T17:22:33.999Z</time></trkpt><trkpt lat="39.8714176" lon="-0.3258146"><ele>911.0</ele><time>2026-04-19T17:22:34.999Z</time></trkpt><trkpt lat="39.8714214" lon="-0.3259258"><ele>909.5</ele><time>2026-04-19T17:22:35.999Z</time></trkpt><trkpt lat="39.8714257" lon="-0.3260132"><ele>908.0</ele><time>2026-04-19T17:22:37Z</time></trkpt><trkpt lat="39.8714463" lon="-0.3261158"><ele>906.5000000000001</ele><time>2026-04-19T17:22:39Z</time></trkpt><trkpt lat="39.8715117" lon="-0.3261084"><ele>905.0</ele><time>2026-04-19T17:22:41.999Z</time></trkpt><trkpt lat="39.8715201" lon="-0.3259834"><ele>905.0</ele><time>2026-04-19T17:22:43.999Z</time></trkpt><trkpt lat="39.87152" lon="-0.3258862"><ele>905.0</ele><time>2026-04-19T17:22:45Z</time></trkpt><trkpt lat="39.871526" lon="-0.3257865"><ele>905.0</ele><time>2026-04-19T17:22:45.999Z</time></trkpt><trkpt lat="39.8715391" lon="-0.3256659"><ele>905.0</ele><time>2026-04-19T17:22:46.999Z</time></trkpt><trkpt lat="39.8715549" lon="-0.3255328"><ele>905.0</ele><time>2026-04-19T17:22:47.999Z</time></trkpt><trkpt lat="39.8715696" lon="-0.3253999"><ele>906.8</ele><time>2026-04-19T17:22:48.999Z</time></trkpt><trkpt lat="39.8715773" lon="-0.3252667"><ele>908.6</ele><time>2026-04-19T17:22:49.999Z</time></trkpt><trkpt lat="39.8715766" lon="-0.3251386"><ele>910.4000000000001</ele><time>2026-04-19T17:22:50.999Z</time></trkpt><trkpt lat="39.8715671" lon="-0.3250111"><ele>912.2</ele><time>2026-04-19T17:22:52Z</time></trkpt><trkpt lat="39.8715554" lon="-0.3248849"><ele>914.0</ele><time>2026-04-19T17:22:52.999Z</time></trkpt><trkpt lat="39.8715565" lon="-0.324758"><ele>913.6</ele><time>2026-04-19T17:22:53.999Z</time></trkpt><trkpt lat="39.8715721" lon="-0.3246323"><ele>913.2</ele><time>2026-04-19T17:22:54.999Z</time></trkpt><trkpt lat="39.871598" lon="-0.3245098"><ele>912.8000000000001</ele><time>2026-04-19T17:22:55.999Z</time></trkpt><trkpt lat="39.8716203" lon="-0.3243864"><ele>912.4000000000001</ele><time>2026-04-19T17:22:56.999Z</time></trkpt><trkpt lat="39.8716497" lon="-0.3242688"><ele>912.0</ele><time>2026-04-19T17:22:57.999Z</time></trkpt><trkpt lat="39.8716835" lon="-0.3241558"><ele>912.0</ele><time>2026-04-19T17:22:58.999Z</time></trkpt><trkpt lat="39.8717184" lon="-0.324047"><ele>912.0</ele><time>2026-04-19T17:23:00Z</time></trkpt><trkpt lat="39.8717533" lon="-0.3239467"><ele>912.0</ele><time>2026-04-19T17:23:00.999Z</time></trkpt><trkpt lat="39.871795" lon="-0.3238592"><ele>912.0</ele><time>2026-04-19T17:23:01.999Z</time></trkpt><trkpt lat="39.8718465" lon="-0.3237863"><ele>912.0</ele><time>2026-04-19T17:23:03Z</time></trkpt><trkpt lat="39.8719077" lon="-0.3237329"><ele>912.0</ele><time>2026-04-19T17:23:04Z</time></trkpt><trkpt lat="39.8719776" lon="-0.3236815"><ele>913.0</ele><time>2026-04-19T17:23:04.999Z</time></trkpt><trkpt lat="39.8720526" lon="-0.3236379"><ele>914.0</ele><time>2026-04-19T17:23:05.999Z</time></trkpt><trkpt lat="39.8721271" lon="-0.3236027"><ele>915.0</ele><time>2026-04-19T17:23:06.999Z</time></trkpt><trkpt lat="39.8721927" lon="-0.3235805"><ele>916.0</ele><time>2026-04-19T17:23:07.999Z</time></trkpt><trkpt lat="39.8722942" lon="-0.3236044"><ele>917.0</ele><time>2026-04-19T17:23:09.999Z</time></trkpt><trkpt lat="39.8723369" lon="-0.32371"><ele>918.0</ele><time>2026-04-19T17:23:11.999Z</time></trkpt><trkpt lat="39.8723137" lon="-0.3238325"><ele>920.4</ele><time>2026-04-19T17:23:13.999Z</time></trkpt><trkpt lat="39.8722937" lon="-0.3239733"><ele>922.8</ele><time>2026-04-19T17:23:15.999Z</time></trkpt><trkpt lat="39.8722894" lon="-0.3241187"><ele>925.2</ele><time>2026-04-19T17:23:17.999Z</time></trkpt><trkpt lat="39.8722933" lon="-0.3242473"><ele>927.6</ele><time>2026-04-19T17:23:19.999Z</time></trkpt><trkpt lat="39.8722328" lon="-0.3242924"><ele>930.0</ele><time>2026-04-19T17:23:23Z</time></trkpt><trkpt lat="39.8722145" lon="-0.3242038"><ele>930.0</ele><time>2026-04-19T17:23:24.999Z</time></trkpt><trkpt lat="39.8721921" lon="-0.3240952"><ele>930.0</ele><time>2026-04-19T17:23:26.999Z</time></trkpt><trkpt lat="39.8721258" lon="-0.3240994"><ele>930.0</ele><time>2026-04-19T17:23:29.999Z</time></trkpt><trkpt lat="39.8721005" lon="-0.324175"><ele>930.0</ele><time>2026-04-19T17:23:31.999Z</time></trkpt><trkpt lat="39.8720788" lon="-0.3242898"><ele>930.0</ele><time>2026-04-19T17:23:33.999Z</time></trkpt><trkpt lat="39.8720662" lon="-0.3244213"><ele>930.0</ele><time>2026-04-19T17:23:35.999Z</time></trkpt><trkpt lat="39.8720705" lon="-0.3245469"><ele>930.0</ele><time>2026-04-19T17:23:38Z</time></trkpt><trkpt lat="39.8720869" lon="-0.3246345"><ele>930.0</ele><time>2026-04-19T17:23:40Z</time></trkpt><trkpt lat="39.8720539" lon="-0.3245621"><ele>930.0</ele><time>2026-04-19T17:24:31.999Z</time></trkpt><trkpt lat="39.8720563" lon="-0.3244798"><ele>930.0</ele><time>2026-04-19T17:25:20.999Z</time></trkpt><trkpt lat="39.8720684" lon="-0.3243839"><ele>930.0</ele><time>2026-04-19T17:25:27.999Z</time></trkpt><trkpt lat="39.872065" lon="-0.3242867"><ele>930.0</ele><time>2026-04-19T17:25:34.916Z</time></trkpt><trkpt lat="39.8720748" lon="-0.3241989"><ele>930.0</ele><time>2026-04-19T17:25:40.958Z</time></trkpt><trkpt lat="39.8721193" lon="-0.324135"><ele>930.0</ele><time>2026-04-19T17:27:07.004Z</time></trkpt><trkpt lat="39.8721828" lon="-0.3241089"><ele>930.0</ele><time>2026-04-19T17:27:13Z</time></trkpt><trkpt lat="39.8721206" lon="-0.3241286"><ele>930.0</ele><time>2026-04-19T17:28:25.999Z</time></trkpt><trkpt lat="39.8720878" lon="-0.3242139"><ele>930.0</ele><time>2026-04-19T17:28:31.999Z</time></trkpt><trkpt lat="39.8720796" lon="-0.3243052"><ele>930.0</ele><time>2026-04-19T17:28:37.999Z</time></trkpt><trkpt lat="39.8720675" lon="-0.324387"><ele>930.0</ele><time>2026-04-19T17:28:43.999Z</time></trkpt><trkpt lat="39.872063" lon="-0.324481"><ele>930.0</ele><time>2026-04-19T17:28:52.999Z</time></trkpt><trkpt lat="39.8720689" lon="-0.3245674"><ele>930.0</ele><time>2026-04-19T17:28:58.999Z</time></trkpt><trkpt lat="39.8720801" lon="-0.3246504"><ele>930.0</ele><time>2026-04-19T17:29:07Z</time></trkpt><trkpt lat="39.8720079" lon="-0.3246234"><ele>930.0</ele><time>2026-04-19T17:31:22.905Z</time></trkpt><trkpt lat="39.8719463" lon="-0.324564"><ele>930.0</ele><time>2026-04-19T17:31:25Z</time></trkpt><trkpt lat="39.8718819" lon="-0.3245032"><ele>930.0</ele><time>2026-04-19T17:31:26.999Z</time></trkpt><trkpt lat="39.8718197" lon="-0.3244364"><ele>930.0</ele><time>2026-04-19T17:31:28.999Z</time></trkpt><trkpt lat="39.8719811" lon="-0.324235"><ele>930.0</ele><time>2026-04-19T17:31:30.027Z</time></trkpt><trkpt lat="39.8721369" lon="-0.3240963"><ele>930.0</ele><time>2026-04-19T17:31:30.999Z</time></trkpt><trkpt lat="39.8722195" lon="-0.324132"><ele>930.0</ele><time>2026-04-19T17:31:32.999Z</time></trkpt><trkpt lat="39.8722253" lon="-0.3242479"><ele>930.0</ele><time>2026-04-19T17:31:34.999Z</time></trkpt><trkpt lat="39.8722874" lon="-0.3242623"><ele>930.0</ele><time>2026-04-19T17:31:38.999Z</time></trkpt><trkpt lat="39.872289" lon="-0.3241494"><ele>930.0</ele><time>2026-04-19T17:31:41.999Z</time></trkpt><trkpt lat="39.8722905" lon="-0.3240641"><ele>930.0</ele><time>2026-04-19T17:31:43.999Z</time></trkpt><trkpt lat="39.8722997" lon="-0.3239542"><ele>930.0</ele><time>2026-04-19T17:31:45.999Z</time></trkpt><trkpt lat="39.8723144" lon="-0.3238401"><ele>930.0</ele><time>2026-04-19T17:31:47.999Z</time></trkpt><trkpt lat="39.8723242" lon="-0.3237241"><ele>930.0</ele><time>2026-04-19T17:31:49.999Z</time></trkpt><trkpt lat="39.8723011" lon="-0.3236306"><ele>930.0</ele><time>2026-04-19T17:31:51.999Z</time></trkpt><trkpt lat="39.8722376" lon="-0.3235936"><ele>928.0</ele><time>2026-04-19T17:31:54Z</time></trkpt><trkpt lat="39.8721296" lon="-0.3236059"><ele>926.0</ele><time>2026-04-19T17:31:55.999Z</time></trkpt><trkpt lat="39.8720156" lon="-0.3236657"><ele>924.0</ele><time>2026-04-19T17:31:58Z</time></trkpt><trkpt lat="39.8719514" lon="-0.3237116"><ele>922.0</ele><time>2026-04-19T17:31:58.999Z</time></trkpt><trkpt lat="39.871894" lon="-0.3237595"><ele>920.0</ele><time>2026-04-19T17:32:00Z</time></trkpt><trkpt lat="39.8718442" lon="-0.3238122"><ele>918.0</ele><time>2026-04-19T17:32:00.999Z</time></trkpt><trkpt lat="39.8718002" lon="-0.3238755"><ele>917.1428571428571</ele><time>2026-04-19T17:32:01.999Z</time></trkpt><trkpt lat="39.8717629" lon="-0.3239464"><ele>916.2857142857142</ele><time>2026-04-19T17:32:02.999Z</time></trkpt><trkpt lat="39.8717343" lon="-0.3240279"><ele>915.4285714285713</ele><time>2026-04-19T17:32:04Z</time></trkpt><trkpt lat="39.8717104" lon="-0.3241174"><ele>914.5714285714286</ele><time>2026-04-19T17:32:04.999Z</time></trkpt><trkpt lat="39.8716846" lon="-0.3242097"><ele>913.7142857142856</ele><time>2026-04-19T17:32:06Z</time></trkpt><trkpt lat="39.8716616" lon="-0.3243043"><ele>912.8571428571428</ele><time>2026-04-19T17:32:06.999Z</time></trkpt><trkpt lat="39.8716395" lon="-0.3243974"><ele>912.0</ele><time>2026-04-19T17:32:07.999Z</time></trkpt><trkpt lat="39.8716162" lon="-0.3244911"><ele>912.0</ele><time>2026-04-19T17:32:09Z</time></trkpt><trkpt lat="39.8715953" lon="-0.3245842"><ele>912.0</ele><time>2026-04-19T17:32:09.999Z</time></trkpt><trkpt lat="39.871578" lon="-0.324676"><ele>912.0</ele><time>2026-04-19T17:32:10.999Z</time></trkpt><trkpt lat="39.8715706" lon="-0.32477"><ele>912.0</ele><time>2026-04-19T17:32:11.999Z</time></trkpt><trkpt lat="39.871576" lon="-0.3248721"><ele>912.0</ele><time>2026-04-19T17:32:12.999Z</time></trkpt><trkpt lat="39.8715858" lon="-0.3249736"><ele>912.0</ele><time>2026-04-19T17:32:13.999Z</time></trkpt><trkpt lat="39.8715918" lon="-0.3250734"><ele>912.3333333333334</ele><time>2026-04-19T17:32:15Z</time></trkpt><trkpt lat="39.8715954" lon="-0.325178"><ele>912.6666666666667</ele><time>2026-04-19T17:32:16Z</time></trkpt><trkpt lat="39.8715896" lon="-0.3252928"><ele>913.0</ele><time>2026-04-19T17:32:17Z</time></trkpt><trkpt lat="39.8715775" lon="-0.3254061"><ele>913.3333333333334</ele><time>2026-04-19T17:32:17.999Z</time></trkpt><trkpt lat="39.871561" lon="-0.3255178"><ele>913.6666666666667</ele><time>2026-04-19T17:32:18.999Z</time></trkpt><trkpt lat="39.8715444" lon="-0.3256269"><ele>914.0</ele><time>2026-04-19T17:32:19.999Z</time></trkpt><trkpt lat="39.8715311" lon="-0.3257265"><ele>912.5000000000001</ele><time>2026-04-19T17:32:21Z</time></trkpt><trkpt lat="39.871524" lon="-0.3258264"><ele>911.0</ele><time>2026-04-19T17:32:21.999Z</time></trkpt><trkpt lat="39.8715207" lon="-0.3259171"><ele>909.5</ele><time>2026-04-19T17:32:23Z</time></trkpt><trkpt lat="39.8715261" lon="-0.3260585"><ele>908.0</ele><time>2026-04-19T17:32:24.999Z</time></trkpt><trkpt lat="39.8714874" lon="-0.3261471"><ele>906.5000000000001</ele><time>2026-04-19T17:32:28Z</time></trkpt><trkpt lat="39.871438" lon="-0.3260699"><ele>905.0</ele><time>2026-04-19T17:32:30.999Z</time></trkpt><trkpt lat="39.8714254" lon="-0.3259279"><ele>905.0000000000001</ele><time>2026-04-19T17:32:32.999Z</time></trkpt><trkpt lat="39.8714242" lon="-0.3258287"><ele>905.0</ele><time>2026-04-19T17:32:34Z</time></trkpt><trkpt lat="39.8714265" lon="-0.3257115"><ele>905.0</ele><time>2026-04-19T17:32:35Z</time></trkpt><trkpt lat="39.8714237" lon="-0.3255873"><ele>905.0</ele><time>2026-04-19T17:32:35.999Z</time></trkpt><trkpt lat="39.8714121" lon="-0.3254701"><ele>905.0000000000001</ele><time>2026-04-19T17:32:37Z</time></trkpt><trkpt lat="39.8713893" lon="-0.3253567"><ele>905.0</ele><time>2026-04-19T17:32:37.999Z</time></trkpt><trkpt lat="39.8713472" lon="-0.3252353"><ele>906.4</ele><time>2026-04-19T17:32:38.999Z</time></trkpt><trkpt lat="39.8712981" lon="-0.3251216"><ele>907.8</ele><time>2026-04-19T17:32:39.999Z</time></trkpt><trkpt lat="39.8712571" lon="-0.325006"><ele>909.2</ele><time>2026-04-19T17:32:40.999Z</time></trkpt><trkpt lat="39.8712298" lon="-0.3248785"><ele>910.6</ele><time>2026-04-19T17:32:41.999Z</time></trkpt><trkpt lat="39.8712112" lon="-0.3247434"><ele>912.0</ele><time>2026-04-19T17:32:43Z</time></trkpt><trkpt lat="39.8711991" lon="-0.3246006"><ele>912.0</ele><time>2026-04-19T17:32:43.999Z</time></trkpt><trkpt lat="39.8711955" lon="-0.3244457"><ele>912.0</ele><time>2026-04-19T17:32:44.999Z</time></trkpt><trkpt lat="39.8711882" lon="-0.3242927"><ele>912.0</ele><time>2026-04-19T17:32:45.999Z</time></trkpt><trkpt lat="39.87118" lon="-0.3241444"><ele>912.0</ele><time>2026-04-19T17:32:46.999Z</time></trkpt><trkpt lat="39.8711713" lon="-0.3240162"><ele>912.0</ele><time>2026-04-19T17:32:47.999Z</time></trkpt><trkpt lat="39.8711675" lon="-0.3239057"><ele>909.0</ele><time>2026-04-19T17:32:48.999Z</time></trkpt><trkpt lat="39.8711715" lon="-0.3238111"><ele>906.0</ele><time>2026-04-19T17:32:49.999Z</time></trkpt><trkpt lat="39.8711805" lon="-0.323728"><ele>903.0</ele><time>2026-04-19T17:32:50.999Z</time></trkpt><trkpt lat="39.8711932" lon="-0.3236158"><ele>900.0</ele><time>2026-04-19T17:32:52.999Z</time></trkpt><trkpt lat="39.8711824" lon="-0.3235291"><ele>897.0</ele><time>2026-04-19T17:32:56Z</time></trkpt><trkpt lat="39.8710879" lon="-0.3235578"><ele>894.0</ele><time>2026-04-19T17:32:59.948Z</time></trkpt><trkpt lat="39.8710666" lon="-0.3236658"><ele>894.0</ele><time>2026-04-19T17:33:00.999Z</time></trkpt><trkpt lat="39.8710389" lon="-0.3238331"><ele>894.0000000000001</ele><time>2026-04-19T17:33:03Z</time></trkpt><trkpt lat="39.8710198" lon="-0.3239295"><ele>894.0000000000001</ele><time>2026-04-19T17:33:04Z</time></trkpt><trkpt lat="39.8709983" lon="-0.3240354"><ele>894.0</ele><time>2026-04-19T17:33:04.999Z</time></trkpt><trkpt lat="39.870975" lon="-0.3241538"><ele>894.0</ele><time>2026-04-19T17:33:05.999Z</time></trkpt><trkpt lat="39.8709527" lon="-0.3242657"><ele>888.0</ele><time>2026-04-19T17:33:06.999Z</time></trkpt><trkpt lat="39.87093" lon="-0.3243736"><ele>882.0</ele><time>2026-04-19T17:33:07.999Z</time></trkpt><trkpt lat="39.8709049" lon="-0.324479"><ele>876.0</ele><time>2026-04-19T17:33:08.999Z</time></trkpt><trkpt lat="39.8708836" lon="-0.3245823"><ele>870.0</ele><time>2026-04-19T17:33:09.999Z</time></trkpt><trkpt lat="39.8708665" lon="-0.3246863"><ele>864.0</ele><time>2026-04-19T17:33:10.999Z</time></trkpt><trkpt lat="39.8708511" lon="-0.324801"><ele>858.0</ele><time>2026-04-19T17:33:11.999Z</time></trkpt><trkpt lat="39.8708404" lon="-0.3249104"><ele>858.0</ele><time>2026-04-19T17:33:12.999Z</time></trkpt><trkpt lat="39.8708274" lon="-0.3250128"><ele>858.0</ele><time>2026-04-19T17:33:13.999Z</time></trkpt><trkpt lat="39.8708199" lon="-0.3251299"><ele>858.0</ele><time>2026-04-19T17:33:14.999Z</time></trkpt><trkpt lat="39.870821" lon="-0.3252406"><ele>858.0</ele><time>2026-04-19T17:33:15.999Z</time></trkpt><trkpt lat="39.8708274" lon="-0.3253422"><ele>858.0</ele><time>2026-04-19T17:33:16.999Z</time></trkpt><trkpt lat="39.8708346" lon="-0.3254382"><ele>858.0</ele><time>2026-04-19T17:33:17.999Z</time></trkpt><trkpt lat="39.8708331" lon="-0.3255321"><ele>858.3333333333334</ele><time>2026-04-19T17:33:19Z</time></trkpt><trkpt lat="39.8708155" lon="-0.3256237"><ele>858.6666666666667</ele><time>2026-04-19T17:33:19.999Z</time></trkpt><trkpt lat="39.8707815" lon="-0.3257142"><ele>859.0</ele><time>2026-04-19T17:33:20.999Z</time></trkpt><trkpt lat="39.8707447" lon="-0.3257926"><ele>859.3333333333334</ele><time>2026-04-19T17:33:21.999Z</time></trkpt><trkpt lat="39.870696" lon="-0.3258787"><ele>859.6666666666667</ele><time>2026-04-19T17:33:22.999Z</time></trkpt><trkpt lat="39.8706352" lon="-0.3259656"><ele>860.0</ele><time>2026-04-19T17:33:23.999Z</time></trkpt><trkpt lat="39.8705667" lon="-0.3260383"><ele>860.0000000000001</ele><time>2026-04-19T17:33:24.999Z</time></trkpt><trkpt lat="39.8704939" lon="-0.3261009"><ele>860.0</ele><time>2026-04-19T17:33:26Z</time></trkpt><trkpt lat="39.8704149" lon="-0.3261564"><ele>860.0</ele><time>2026-04-19T17:33:26.999Z</time></trkpt><trkpt lat="39.8703324" lon="-0.3261964"><ele>860.0</ele><time>2026-04-19T17:33:27.999Z</time></trkpt><trkpt lat="39.8702552" lon="-0.3262239"><ele>860.0000000000001</ele><time>2026-04-19T17:33:28.998Z</time></trkpt><trkpt lat="39.8701894" lon="-0.3262355"><ele>860.0</ele><time>2026-04-19T17:33:29.999Z</time></trkpt><trkpt lat="39.8700728" lon="-0.3262155"><ele>854.1666666666667</ele><time>2026-04-19T17:33:31.999Z</time></trkpt><trkpt lat="39.8699734" lon="-0.3261394"><ele>848.3333333333334</ele><time>2026-04-19T17:33:34Z</time></trkpt><trkpt lat="39.8699223" lon="-0.326072"><ele>842.5</ele><time>2026-04-19T17:33:34.997Z</time></trkpt><trkpt lat="39.8698684" lon="-0.3259987"><ele>836.6666666666667</ele><time>2026-04-19T17:33:35.999Z</time></trkpt><trkpt lat="39.8698096" lon="-0.3259421"><ele>830.8333333333334</ele><time>2026-04-19T17:33:36.999Z</time></trkpt><trkpt lat="39.8697514" lon="-0.3259"><ele>825.0</ele><time>2026-04-19T17:33:37.999Z</time></trkpt><trkpt lat="39.8696543" lon="-0.3258456"><ele>825.0</ele><time>2026-04-19T17:33:39.999Z</time></trkpt><trkpt lat="39.8696009" lon="-0.3257991"><ele>825.0</ele><time>2026-04-19T17:33:41.999Z</time></trkpt><trkpt lat="39.8695933" lon="-0.3257146"><ele>825.0</ele><time>2026-04-19T17:33:44.999Z</time></trkpt><trkpt lat="39.8696573" lon="-0.3256582"><ele>825.0</ele><time>2026-04-19T17:33:47.999Z</time></trkpt><trkpt lat="39.8697585" lon="-0.3257055"><ele>825.0</ele><time>2026-04-19T17:33:50Z</time></trkpt><trkpt lat="39.8698197" lon="-0.3257399"><ele>825.0</ele><time>2026-04-19T17:33:51Z</time></trkpt><trkpt lat="39.8698892" lon="-0.3257769"><ele>825.0</ele><time>2026-04-19T17:33:51.999Z</time></trkpt><trkpt lat="39.869969" lon="-0.3258095"><ele>825.0</ele><time>2026-04-19T17:33:53Z</time></trkpt><trkpt lat="39.8700479" lon="-0.3258164"><ele>825.0</ele><time>2026-04-19T17:33:53.999Z</time></trkpt><trkpt lat="39.8701145" lon="-0.3258039"><ele>825.0</ele><time>2026-04-19T17:33:54.999Z</time></trkpt><trkpt lat="39.8702093" lon="-0.325738"><ele>825.0</ele><time>2026-04-19T17:33:56.999Z</time></trkpt><trkpt lat="39.8702673" lon="-0.3256094"><ele>830.5</ele><time>2026-04-19T17:33:59Z</time></trkpt><trkpt lat="39.8702882" lon="-0.3255199"><ele>836.0</ele><time>2026-04-19T17:34:00Z</time></trkpt><trkpt lat="39.8703014" lon="-0.3254172"><ele>841.5</ele><time>2026-04-19T17:34:01Z</time></trkpt><trkpt lat="39.8703023" lon="-0.325299"><ele>847.0</ele><time>2026-04-19T17:34:01.999Z</time></trkpt><trkpt lat="39.8702884" lon="-0.3251684"><ele>852.5</ele><time>2026-04-19T17:34:02.999Z</time></trkpt><trkpt lat="39.8702786" lon="-0.3250422"><ele>858.0</ele><time>2026-04-19T17:34:03.999Z</time></trkpt><trkpt lat="39.8702729" lon="-0.3249214"><ele>858.0</ele><time>2026-04-19T17:34:04.999Z</time></trkpt><trkpt lat="39.8702695" lon="-0.3248029"><ele>858.0</ele><time>2026-04-19T17:34:06Z</time></trkpt><trkpt lat="39.8702672" lon="-0.3246854"><ele>858.0</ele><time>2026-04-19T17:34:06.999Z</time></trkpt><trkpt lat="39.8702682" lon="-0.3245676"><ele>858.0</ele><time>2026-04-19T17:34:08Z</time></trkpt><trkpt lat="39.8702646" lon="-0.3244594"><ele>858.0</ele><time>2026-04-19T17:34:08.999Z</time></trkpt><trkpt lat="39.8702509" lon="-0.3243518"><ele>858.0</ele><time>2026-04-19T17:34:09.999Z</time></trkpt><trkpt lat="39.8702302" lon="-0.324232"><ele>857.5</ele><time>2026-04-19T17:34:10.999Z</time></trkpt><trkpt lat="39.8702063" lon="-0.3240933"><ele>857.0</ele><time>2026-04-19T17:34:11.999Z</time></trkpt><trkpt lat="39.8701809" lon="-0.3239413"><ele>856.5</ele><time>2026-04-19T17:34:12.999Z</time></trkpt><trkpt lat="39.8701551" lon="-0.3237776"><ele>856.0</ele><time>2026-04-19T17:34:13.999Z</time></trkpt><trkpt lat="39.8701285" lon="-0.3236174"><ele>840.25</ele><time>2026-04-19T17:34:14.999Z</time></trkpt><trkpt lat="39.8701021" lon="-0.3234599"><ele>824.5</ele><time>2026-04-19T17:34:15.999Z</time></trkpt><trkpt lat="39.8700765" lon="-0.3233022"><ele>808.75</ele><time>2026-04-19T17:34:17Z</time></trkpt><trkpt lat="39.8700525" lon="-0.323149"><ele>793.0</ele><time>2026-04-19T17:34:17.999Z</time></trkpt><trkpt lat="39.8700305" lon="-0.3229982"><ele>791.8</ele><time>2026-04-19T17:34:18.999Z</time></trkpt><trkpt lat="39.8700101" lon="-0.322852"><ele>790.5999999999999</ele><time>2026-04-19T17:34:19.999Z</time></trkpt><trkpt lat="39.8699906" lon="-0.3227146"><ele>789.4000000000001</ele><time>2026-04-19T17:34:21Z</time></trkpt><trkpt lat="39.8699732" lon="-0.3225912"><ele>788.2</ele><time>2026-04-19T17:34:21.999Z</time></trkpt><trkpt lat="39.8699541" lon="-0.3224738"><ele>787.0</ele><time>2026-04-19T17:34:22.999Z</time></trkpt><trkpt lat="39.8699306" lon="-0.3223591"><ele>786.9999999999999</ele><time>2026-04-19T17:34:23.999Z</time></trkpt><trkpt lat="39.8699022" lon="-0.322248"><ele>787.0</ele><time>2026-04-19T17:34:25Z</time></trkpt><trkpt lat="39.8698719" lon="-0.3221439"><ele>787.0</ele><time>2026-04-19T17:34:25.999Z</time></trkpt><trkpt lat="39.8698444" lon="-0.322046"><ele>787.0</ele><time>2026-04-19T17:34:26.999Z</time></trkpt><trkpt lat="39.8698198" lon="-0.3219419"><ele>786.9999999999999</ele><time>2026-04-19T17:34:27.999Z</time></trkpt><trkpt lat="39.8698037" lon="-0.3218374"><ele>787.0</ele><time>2026-04-19T17:34:28.999Z</time></trkpt><trkpt lat="39.8697912" lon="-0.3217338"><ele>784.8</ele><time>2026-04-19T17:34:29.999Z</time></trkpt><trkpt lat="39.8697806" lon="-0.3216457"><ele>782.6</ele><time>2026-04-19T17:34:30.999Z</time></trkpt><trkpt lat="39.8697469" lon="-0.3215018"><ele>780.4</ele><time>2026-04-19T17:34:32.999Z</time></trkpt><trkpt lat="39.8696565" lon="-0.3213851"><ele>778.1999999999999</ele><time>2026-04-19T17:34:35Z</time></trkpt><trkpt lat="39.8695827" lon="-0.3213429"><ele>776.0</ele><time>2026-04-19T17:34:36Z</time></trkpt><trkpt lat="39.8694917" lon="-0.3213074"><ele>771.5999999999999</ele><time>2026-04-19T17:34:36.999Z</time></trkpt><trkpt lat="39.8693992" lon="-0.3212609"><ele>767.2</ele><time>2026-04-19T17:34:37.999Z</time></trkpt><trkpt lat="39.869294" lon="-0.321193"><ele>762.8</ele><time>2026-04-19T17:34:38.999Z</time></trkpt><trkpt lat="39.8692008" lon="-0.3211243"><ele>758.4000000000001</ele><time>2026-04-19T17:34:40Z</time></trkpt><trkpt lat="39.8691157" lon="-0.3210643"><ele>754.0</ele><time>2026-04-19T17:34:41Z</time></trkpt><trkpt lat="39.8690403" lon="-0.3210209"><ele>754.0</ele><time>2026-04-19T17:34:41.999Z</time></trkpt><trkpt lat="39.8689775" lon="-0.3209947"><ele>754.0</ele><time>2026-04-19T17:34:42.999Z</time></trkpt><trkpt lat="39.8688656" lon="-0.3210094"><ele>754.0</ele><time>2026-04-19T17:34:44.999Z</time></trkpt><trkpt lat="39.8687901" lon="-0.3211108"><ele>754.0</ele><time>2026-04-19T17:34:46.999Z</time></trkpt><trkpt lat="39.868796" lon="-0.3212544"><ele>754.0</ele><time>2026-04-19T17:34:49Z</time></trkpt><trkpt lat="39.8688252" lon="-0.3213751"><ele>754.0</ele><time>2026-04-19T17:34:50.999Z</time></trkpt><trkpt lat="39.8688803" lon="-0.3215064"><ele>754.0</ele><time>2026-04-19T17:34:53Z</time></trkpt><trkpt lat="39.868926" lon="-0.3215732"><ele>754.0</ele><time>2026-04-19T17:34:53.999Z</time></trkpt><trkpt lat="39.8689877" lon="-0.3216448"><ele>754.0</ele><time>2026-04-19T17:34:54.999Z</time></trkpt><trkpt lat="39.8690512" lon="-0.3217181"><ele>754.0</ele><time>2026-04-19T17:34:55.999Z</time></trkpt><trkpt lat="39.8691138" lon="-0.3217938"><ele>754.0</ele><time>2026-04-19T17:34:56.999Z</time></trkpt><trkpt lat="39.86917" lon="-0.3218645"><ele>754.0</ele><time>2026-04-19T17:34:57.999Z</time></trkpt><trkpt lat="39.8692281" lon="-0.3219355"><ele>754.0</ele><time>2026-04-19T17:34:58.999Z</time></trkpt><trkpt lat="39.8692825" lon="-0.3220084"><ele>754.0</ele><time>2026-04-19T17:34:59.999Z</time></trkpt><trkpt lat="39.8693251" lon="-0.3220911"><ele>754.0</ele><time>2026-04-19T17:35:00.999Z</time></trkpt><trkpt lat="39.8693576" lon="-0.3221839"><ele>754.0</ele><time>2026-04-19T17:35:01.999Z</time></trkpt><trkpt lat="39.8693818" lon="-0.3222866"><ele>754.0</ele><time>2026-04-19T17:35:02.999Z</time></trkpt><trkpt lat="39.8693969" lon="-0.3223964"><ele>759.5</ele><time>2026-04-19T17:35:03.999Z</time></trkpt><trkpt lat="39.8693972" lon="-0.3225098"><ele>765.0</ele><time>2026-04-19T17:35:05Z</time></trkpt><trkpt lat="39.8693848" lon="-0.3226277"><ele>770.5</ele><time>2026-04-19T17:35:05.999Z</time></trkpt><trkpt lat="39.8693645" lon="-0.3227372"><ele>776.0</ele><time>2026-04-19T17:35:06.999Z</time></trkpt><trkpt lat="39.8693483" lon="-0.3228419"><ele>781.4999999999999</ele><time>2026-04-19T17:35:07.999Z</time></trkpt><trkpt lat="39.8693344" lon="-0.3229425"><ele>787.0</ele><time>2026-04-19T17:35:08.999Z</time></trkpt><trkpt lat="39.8693123" lon="-0.3230836"><ele>787.9999999999999</ele><time>2026-04-19T17:35:10.999Z</time></trkpt><trkpt lat="39.8692963" lon="-0.323168"><ele>789.0</ele><time>2026-04-19T17:35:20.999Z</time></trkpt><trkpt lat="39.8692808" lon="-0.3233077"><ele>790.0</ele><time>2026-04-19T17:35:22.999Z</time></trkpt><trkpt lat="39.8692852" lon="-0.3234025"><ele>791.0</ele><time>2026-04-19T17:35:24Z</time></trkpt><trkpt lat="39.8692966" lon="-0.3235024"><ele>791.9999999999999</ele><time>2026-04-19T17:35:24.999Z</time></trkpt><trkpt lat="39.8693005" lon="-0.323594"><ele>793.0</ele><time>2026-04-19T17:35:26Z</time></trkpt><trkpt lat="39.8692584" lon="-0.3237284"><ele>784.8333333333333</ele><time>2026-04-19T17:35:27.999Z</time></trkpt><trkpt lat="39.8691641" lon="-0.3237765"><ele>776.6666666666666</ele><time>2026-04-19T17:35:29.999Z</time></trkpt><trkpt lat="39.8691006" lon="-0.3237582"><ele>768.5</ele><time>2026-04-19T17:35:30.999Z</time></trkpt><trkpt lat="39.8690343" lon="-0.3237338"><ele>760.3333333333333</ele><time>2026-04-19T17:35:31.999Z</time></trkpt><trkpt lat="39.8689621" lon="-0.3237171"><ele>752.1666666666666</ele><time>2026-04-19T17:35:32.999Z</time></trkpt><trkpt lat="39.8688842" lon="-0.3237065"><ele>744.0</ele><time>2026-04-19T17:35:33.999Z</time></trkpt><trkpt lat="39.8688041" lon="-0.3236856"><ele>744.0</ele><time>2026-04-19T17:35:35Z</time></trkpt><trkpt lat="39.8687358" lon="-0.3236523"><ele>744.0</ele><time>2026-04-19T17:35:35.999Z</time></trkpt><trkpt lat="39.8686455" lon="-0.3235405"><ele>744.0</ele><time>2026-04-19T17:35:37.999Z</time></trkpt><trkpt lat="39.8686027" lon="-0.3234537"><ele>744.0</ele><time>2026-04-19T17:35:39Z</time></trkpt><trkpt lat="39.8685674" lon="-0.3233712"><ele>744.0</ele><time>2026-04-19T17:35:40Z</time></trkpt><trkpt lat="39.8685326" lon="-0.323298"><ele>744.0</ele><time>2026-04-19T17:35:40.999Z</time></trkpt><trkpt lat="39.86844" lon="-0.3231943"><ele>742.8000000000001</ele><time>2026-04-19T17:35:42.999Z</time></trkpt><trkpt lat="39.8683694" lon="-0.3231659"><ele>741.6</ele><time>2026-04-19T17:35:44Z</time></trkpt><trkpt lat="39.8682855" lon="-0.3231503"><ele>740.4</ele><time>2026-04-19T17:35:44.999Z</time></trkpt><trkpt lat="39.8681909" lon="-0.3231436"><ele>739.2</ele><time>2026-04-19T17:35:45.999Z</time></trkpt><trkpt lat="39.8680898" lon="-0.3231388"><ele>738.0</ele><time>2026-04-19T17:35:46.999Z</time></trkpt><trkpt lat="39.8679809" lon="-0.3231261"><ele>738.0</ele><time>2026-04-19T17:35:47.999Z</time></trkpt><trkpt lat="39.8678777" lon="-0.3231016"><ele>738.0</ele><time>2026-04-19T17:35:48.999Z</time></trkpt><trkpt lat="39.86778" lon="-0.3230773"><ele>738.0</ele><time>2026-04-19T17:35:49.999Z</time></trkpt><trkpt lat="39.8677009" lon="-0.3230663"><ele>738.0</ele><time>2026-04-19T17:35:51Z</time></trkpt><trkpt lat="39.8676294" lon="-0.3230622"><ele>738.0</ele><time>2026-04-19T17:35:51.999Z</time></trkpt><trkpt lat="39.8675565" lon="-0.3230754"><ele>738.0</ele><time>2026-04-19T17:35:53Z</time></trkpt><trkpt lat="39.8674813" lon="-0.3231082"><ele>736.4285714285714</ele><time>2026-04-19T17:35:53.999Z</time></trkpt><trkpt lat="39.8674116" lon="-0.3231492"><ele>734.8571428571429</ele><time>2026-04-19T17:35:55Z</time></trkpt><trkpt lat="39.8673516" lon="-0.3231901"><ele>733.2857142857142</ele><time>2026-04-19T17:35:55.999Z</time></trkpt><trkpt lat="39.8673012" lon="-0.3232532"><ele>731.7142857142858</ele><time>2026-04-19T17:35:56.999Z</time></trkpt><trkpt lat="39.8672682" lon="-0.3233299"><ele>730.1428571428572</ele><time>2026-04-19T17:35:57.999Z</time></trkpt><trkpt lat="39.8672471" lon="-0.3234206"><ele>728.5714285714286</ele><time>2026-04-19T17:35:58.999Z</time></trkpt><trkpt lat="39.8672298" lon="-0.3235142"><ele>727.0</ele><time>2026-04-19T17:35:59.999Z</time></trkpt><trkpt lat="39.8672012" lon="-0.3235894"><ele>727.0</ele><time>2026-04-19T17:36:00.999Z</time></trkpt><trkpt lat="39.86716" lon="-0.3236619"><ele>727.0</ele><time>2026-04-19T17:36:02Z</time></trkpt><trkpt lat="39.8670975" lon="-0.3237118"><ele>727.0</ele><time>2026-04-19T17:36:02.999Z</time></trkpt><trkpt lat="39.8670129" lon="-0.3237526"><ele>727.0</ele><time>2026-04-19T17:36:03.999Z</time></trkpt><trkpt lat="39.8669325" lon="-0.3237943"><ele>727.0</ele><time>2026-04-19T17:36:04.999Z</time></trkpt><trkpt lat="39.8668648" lon="-0.3238444"><ele>727.0</ele><time>2026-04-19T17:36:05.999Z</time></trkpt><trkpt lat="39.8668019" lon="-0.3239039"><ele>726.2857142857142</ele><time>2026-04-19T17:36:06.999Z</time></trkpt><trkpt lat="39.8667417" lon="-0.3239616"><ele>725.5714285714287</ele><time>2026-04-19T17:36:07.999Z</time></trkpt><trkpt lat="39.8666788" lon="-0.3239998"><ele>724.8571428571429</ele><time>2026-04-19T17:36:09Z</time></trkpt><trkpt lat="39.8666072" lon="-0.3240114"><ele>724.1428571428571</ele><time>2026-04-19T17:36:10Z</time></trkpt><trkpt lat="39.8665374" lon="-0.3240005"><ele>723.4285714285713</ele><time>2026-04-19T17:36:10.999Z</time></trkpt><trkpt lat="39.8664695" lon="-0.3239933"><ele>722.7142857142858</ele><time>2026-04-19T17:36:12Z</time></trkpt><trkpt lat="39.8663815" lon="-0.3239932"><ele>722.0</ele><time>2026-04-19T17:36:12.999Z</time></trkpt><trkpt lat="39.8663005" lon="-0.3239907"><ele>722.0</ele><time>2026-04-19T17:36:13.999Z</time></trkpt><trkpt lat="39.8662253" lon="-0.3239704"><ele>722.0</ele><time>2026-04-19T17:36:14.999Z</time></trkpt><trkpt lat="39.866156" lon="-0.3239425"><ele>722.0</ele><time>2026-04-19T17:36:16Z</time></trkpt><trkpt lat="39.8660928" lon="-0.3239002"><ele>722.0</ele><time>2026-04-19T17:36:17Z</time></trkpt><trkpt lat="39.8660313" lon="-0.3238466"><ele>722.0</ele><time>2026-04-19T17:36:17.999Z</time></trkpt><trkpt lat="39.865973" lon="-0.3237796"><ele>722.0</ele><time>2026-04-19T17:36:19Z</time></trkpt><trkpt lat="39.8659221" lon="-0.3237099"><ele>722.0</ele><time>2026-04-19T17:36:19.999Z</time></trkpt><trkpt lat="39.8658724" lon="-0.3236166"><ele>716.6666666666666</ele><time>2026-04-19T17:36:20.999Z</time></trkpt><trkpt lat="39.8658225" lon="-0.3235087"><ele>711.3333333333333</ele><time>2026-04-19T17:36:21.999Z</time></trkpt><trkpt lat="39.865784" lon="-0.3234095"><ele>706.0</ele><time>2026-04-19T17:36:22.999Z</time></trkpt><trkpt lat="39.8657518" lon="-0.323306"><ele>700.6666666666666</ele><time>2026-04-19T17:36:24Z</time></trkpt><trkpt lat="39.8657258" lon="-0.323198"><ele>695.3333333333334</ele><time>2026-04-19T17:36:24.999Z</time></trkpt><trkpt lat="39.8657073" lon="-0.3230889"><ele>690.0</ele><time>2026-04-19T17:36:25.999Z</time></trkpt><trkpt lat="39.8656963" lon="-0.3229759"><ele>688.5</ele><time>2026-04-19T17:36:27Z</time></trkpt><trkpt lat="39.8656891" lon="-0.32287"><ele>687.0</ele><time>2026-04-19T17:36:27.999Z</time></trkpt><trkpt lat="39.865676" lon="-0.322765"><ele>685.5</ele><time>2026-04-19T17:36:29Z</time></trkpt><trkpt lat="39.8656594" lon="-0.3226565"><ele>684.0</ele><time>2026-04-19T17:36:29.999Z</time></trkpt><trkpt lat="39.8656375" lon="-0.3225359"><ele>682.5</ele><time>2026-04-19T17:36:30.999Z</time></trkpt><trkpt lat="39.865602" lon="-0.3224157"><ele>681.0</ele><time>2026-04-19T17:36:31.999Z</time></trkpt><trkpt lat="39.8655676" lon="-0.3223054"><ele>679.0</ele><time>2026-04-19T17:36:32.999Z</time></trkpt><trkpt lat="39.8655396" lon="-0.3221969"><ele>677.0</ele><time>2026-04-19T17:36:33.999Z</time></trkpt><trkpt lat="39.8655206" lon="-0.3220906"><ele>675.0</ele><time>2026-04-19T17:36:34.999Z</time></trkpt><trkpt lat="39.8655108" lon="-0.3219809"><ele>673.0</ele><time>2026-04-19T17:36:35.999Z</time></trkpt><trkpt lat="39.8655054" lon="-0.3218739"><ele>671.0</ele><time>2026-04-19T17:36:36.999Z</time></trkpt><trkpt lat="39.8655005" lon="-0.3217713"><ele>669.0</ele><time>2026-04-19T17:36:38Z</time></trkpt><trkpt lat="39.8654966" lon="-0.3216613"><ele>669.0</ele><time>2026-04-19T17:36:38.999Z</time></trkpt><trkpt lat="39.8654925" lon="-0.3215544"><ele>669.0</ele><time>2026-04-19T17:36:39.999Z</time></trkpt><trkpt lat="39.865489" lon="-0.3214534"><ele>669.0</ele><time>2026-04-19T17:36:40.999Z</time></trkpt><trkpt lat="39.8654743" lon="-0.3213591"><ele>669.0</ele><time>2026-04-19T17:36:41.999Z</time></trkpt><trkpt lat="39.8654495" lon="-0.3212645"><ele>669.0</ele><time>2026-04-19T17:36:43Z</time></trkpt><trkpt lat="39.865419" lon="-0.3211642"><ele>669.0</ele><time>2026-04-19T17:36:44Z</time></trkpt><trkpt lat="39.8653909" lon="-0.3210655"><ele>667.0</ele><time>2026-04-19T17:36:44.999Z</time></trkpt><trkpt lat="39.8653638" lon="-0.320966"><ele>665.0</ele><time>2026-04-19T17:36:45.999Z</time></trkpt><trkpt lat="39.865336" lon="-0.3208707"><ele>663.0</ele><time>2026-04-19T17:36:47Z</time></trkpt><trkpt lat="39.8653151" lon="-0.3207675"><ele>661.0</ele><time>2026-04-19T17:36:47.999Z</time></trkpt><trkpt lat="39.8652984" lon="-0.32066"><ele>659.0</ele><time>2026-04-19T17:36:48.999Z</time></trkpt><trkpt lat="39.8652918" lon="-0.320557"><ele>657.0</ele><time>2026-04-19T17:36:49.999Z</time></trkpt><trkpt lat="39.8652956" lon="-0.3204505"><ele>655.5</ele><time>2026-04-19T17:36:50.999Z</time></trkpt><trkpt lat="39.8653151" lon="-0.3203542"><ele>654.0</ele><time>2026-04-19T17:36:52Z</time></trkpt><trkpt lat="39.8653374" lon="-0.3202599"><ele>652.5</ele><time>2026-04-19T17:36:52.999Z</time></trkpt><trkpt lat="39.8653545" lon="-0.3201605"><ele>651.0</ele><time>2026-04-19T17:36:54Z</time></trkpt><trkpt lat="39.8653776" lon="-0.3200548"><ele>649.5</ele><time>2026-04-19T17:36:54.999Z</time></trkpt><trkpt lat="39.865402" lon="-0.3199521"><ele>648.0</ele><time>2026-04-19T17:36:55.999Z</time></trkpt><trkpt lat="39.8654275" lon="-0.3198554"><ele>645.6</ele><time>2026-04-19T17:36:56.999Z</time></trkpt><trkpt lat="39.8654621" lon="-0.3197049"><ele>643.1999999999999</ele><time>2026-04-19T17:36:58.999Z</time></trkpt><trkpt lat="39.8654493" lon="-0.3195521"><ele>640.8</ele><time>2026-04-19T17:37:00.999Z</time></trkpt><trkpt lat="39.8653667" lon="-0.3194399"><ele>638.4</ele><time>2026-04-19T17:37:02.999Z</time></trkpt><trkpt lat="39.8653112" lon="-0.3193855"><ele>636.0</ele><time>2026-04-19T17:37:04Z</time></trkpt><trkpt lat="39.8652617" lon="-0.3193243"><ele>636.0</ele><time>2026-04-19T17:37:04.999Z</time></trkpt><trkpt lat="39.8652247" lon="-0.3192455"><ele>636.0</ele><time>2026-04-19T17:37:06Z</time></trkpt><trkpt lat="39.8651938" lon="-0.3191625"><ele>636.0</ele><time>2026-04-19T17:37:06.999Z</time></trkpt><trkpt lat="39.8651675" lon="-0.3190625"><ele>636.0</ele><time>2026-04-19T17:37:08Z</time></trkpt><trkpt lat="39.865148" lon="-0.3189454"><ele>636.0</ele><time>2026-04-19T17:37:08.999Z</time></trkpt><trkpt lat="39.8651281" lon="-0.3188255"><ele>636.0</ele><time>2026-04-19T17:37:09.999Z</time></trkpt><trkpt lat="39.8650977" lon="-0.3187313"><ele>641.2</ele><time>2026-04-19T17:37:10.999Z</time></trkpt><trkpt lat="39.8650496" lon="-0.31865"><ele>646.4000000000001</ele><time>2026-04-19T17:37:11.999Z</time></trkpt><trkpt lat="39.864935" lon="-0.3184844"><ele>651.6</ele><time>2026-04-19T17:37:14Z</time></trkpt><trkpt lat="39.8648779" lon="-0.3183917"><ele>656.8000000000001</ele><time>2026-04-19T17:37:14.999Z</time></trkpt><trkpt lat="39.8648208" lon="-0.3182928"><ele>662.0</ele><time>2026-04-19T17:37:16Z</time></trkpt><trkpt lat="39.8647716" lon="-0.3181916"><ele>662.0</ele><time>2026-04-19T17:37:16.999Z</time></trkpt><trkpt lat="39.864737" lon="-0.3180936"><ele>662.0</ele><time>2026-04-19T17:37:17.999Z</time></trkpt><trkpt lat="39.8647223" lon="-0.3180078"><ele>662.0</ele><time>2026-04-19T17:37:18.999Z</time></trkpt><trkpt lat="39.8647285" lon="-0.3178674"><ele>662.0</ele><time>2026-04-19T17:37:20.999Z</time></trkpt><trkpt lat="39.8647966" lon="-0.3177479"><ele>662.0</ele><time>2026-04-19T17:37:22.999Z</time></trkpt><trkpt lat="39.8648571" lon="-0.3176876"><ele>662.0</ele><time>2026-04-19T17:37:23.999Z</time></trkpt><trkpt lat="39.8649299" lon="-0.3176251"><ele>661.5</ele><time>2026-04-19T17:37:24.999Z</time></trkpt><trkpt lat="39.86501" lon="-0.3175597"><ele>661.0</ele><time>2026-04-19T17:37:26Z</time></trkpt><trkpt lat="39.8650858" lon="-0.3174962"><ele>660.5</ele><time>2026-04-19T17:37:26.999Z</time></trkpt><trkpt lat="39.8651547" lon="-0.3174387"><ele>660.0</ele><time>2026-04-19T17:37:28Z</time></trkpt><trkpt lat="39.8652187" lon="-0.3173801"><ele>659.5</ele><time>2026-04-19T17:37:29Z</time></trkpt><trkpt lat="39.8652835" lon="-0.317309"><ele>659.0</ele><time>2026-04-19T17:37:29.999Z</time></trkpt><trkpt lat="39.8653477" lon="-0.3172174"><ele>659.0</ele><time>2026-04-19T17:37:31Z</time></trkpt><trkpt lat="39.865411" lon="-0.3171148"><ele>659.0</ele><time>2026-04-19T17:37:32Z</time></trkpt><trkpt lat="39.865473" lon="-0.3170121"><ele>659.0</ele><time>2026-04-19T17:37:32.999Z</time></trkpt><trkpt lat="39.8655297" lon="-0.3169035"><ele>659.0</ele><time>2026-04-19T17:37:34Z</time></trkpt><trkpt lat="39.8655819" lon="-0.3167949"><ele>659.0</ele><time>2026-04-19T17:37:34.999Z</time></trkpt><trkpt lat="39.8656327" lon="-0.3166807"><ele>659.0</ele><time>2026-04-19T17:37:35.999Z</time></trkpt><trkpt lat="39.865679" lon="-0.3165759"><ele>659.0</ele><time>2026-04-19T17:37:36.999Z</time></trkpt><trkpt lat="39.8657242" lon="-0.3164777"><ele>659.0</ele><time>2026-04-19T17:37:37.999Z</time></trkpt><trkpt lat="39.8657626" lon="-0.3163814"><ele>659.0</ele><time>2026-04-19T17:37:39Z</time></trkpt><trkpt lat="39.8658094" lon="-0.3162914"><ele>659.0</ele><time>2026-04-19T17:37:39.999Z</time></trkpt><trkpt lat="39.8658661" lon="-0.3162077"><ele>659.0</ele><time>2026-04-19T17:37:40.999Z</time></trkpt><trkpt lat="39.8659383" lon="-0.3161307"><ele>654.6666666666666</ele><time>2026-04-19T17:37:41.999Z</time></trkpt><trkpt lat="39.8660209" lon="-0.3160624"><ele>650.3333333333333</ele><time>2026-04-19T17:37:43Z</time></trkpt><trkpt lat="39.8660982" lon="-0.3159988"><ele>646.0</ele><time>2026-04-19T17:37:44Z</time></trkpt><trkpt lat="39.8661651" lon="-0.3159329"><ele>641.6666666666666</ele><time>2026-04-19T17:37:45Z</time></trkpt><trkpt lat="39.8662219" lon="-0.3158539"><ele>637.3333333333334</ele><time>2026-04-19T17:37:46Z</time></trkpt><trkpt lat="39.8662731" lon="-0.3157584"><ele>633.0</ele><time>2026-04-19T17:37:47Z</time></trkpt><trkpt lat="39.8663152" lon="-0.3156442"><ele>638.75</ele><time>2026-04-19T17:37:47.999Z</time></trkpt><trkpt lat="39.8663664" lon="-0.3155169"><ele>644.5</ele><time>2026-04-19T17:37:49Z</time></trkpt><trkpt lat="39.8664337" lon="-0.3153901"><ele>650.25</ele><time>2026-04-19T17:37:50Z</time></trkpt><trkpt lat="39.8665083" lon="-0.3152679"><ele>656.0</ele><time>2026-04-19T17:37:50.999Z</time></trkpt><trkpt lat="39.8665863" lon="-0.3151565"><ele>656.0</ele><time>2026-04-19T17:37:51.999Z</time></trkpt><trkpt lat="39.8666652" lon="-0.3150651"><ele>656.0</ele><time>2026-04-19T17:37:53Z</time></trkpt><trkpt lat="39.8667516" lon="-0.3149824"><ele>656.0</ele><time>2026-04-19T17:37:53.999Z</time></trkpt><trkpt lat="39.8668488" lon="-0.3149109"><ele>656.0</ele><time>2026-04-19T17:37:54.999Z</time></trkpt><trkpt lat="39.8669558" lon="-0.3148449"><ele>656.0</ele><time>2026-04-19T17:37:55.999Z</time></trkpt><trkpt lat="39.8670616" lon="-0.3147844"><ele>655.3333333333333</ele><time>2026-04-19T17:37:57Z</time></trkpt><trkpt lat="39.8671567" lon="-0.3147324"><ele>654.6666666666666</ele><time>2026-04-19T17:37:58Z</time></trkpt><trkpt lat="39.8672409" lon="-0.3146854"><ele>654.0</ele><time>2026-04-19T17:37:58.999Z</time></trkpt><trkpt lat="39.8673068" lon="-0.3146337"><ele>653.3333333333334</ele><time>2026-04-19T17:37:59.999Z</time></trkpt><trkpt lat="39.8673542" lon="-0.3145746"><ele>652.6666666666667</ele><time>2026-04-19T17:38:00.999Z</time></trkpt><trkpt lat="39.8673881" lon="-0.3145051"><ele>652.0</ele><time>2026-04-19T17:38:02Z</time></trkpt><trkpt lat="39.8674008" lon="-0.314413"><ele>652.0</ele><time>2026-04-19T17:38:02.999Z</time></trkpt><trkpt lat="39.867394" lon="-0.3143155"><ele>652.0</ele><time>2026-04-19T17:38:03.999Z</time></trkpt><trkpt lat="39.8673791" lon="-0.3142011"><ele>652.0</ele><time>2026-04-19T17:38:04.999Z</time></trkpt><trkpt lat="39.8673732" lon="-0.3140899"><ele>652.0</ele><time>2026-04-19T17:38:06Z</time></trkpt><trkpt lat="39.8673772" lon="-0.3139895"><ele>652.0</ele><time>2026-04-19T17:38:06.999Z</time></trkpt><trkpt lat="39.8673927" lon="-0.3138991"><ele>652.0</ele><time>2026-04-19T17:38:08Z</time></trkpt><trkpt lat="39.8674166" lon="-0.3138101"><ele>652.8333333333334</ele><time>2026-04-19T17:38:08.999Z</time></trkpt><trkpt lat="39.8674396" lon="-0.3137261"><ele>653.6666666666667</ele><time>2026-04-19T17:38:09.999Z</time></trkpt><trkpt lat="39.8674659" lon="-0.3136445"><ele>654.5</ele><time>2026-04-19T17:38:10.999Z</time></trkpt><trkpt lat="39.8675037" lon="-0.3135255"><ele>655.3333333333334</ele><time>2026-04-19T17:38:12.999Z</time></trkpt><trkpt lat="39.8675336" lon="-0.3134478"><ele>656.1666666666666</ele><time>2026-04-19T17:38:15Z</time></trkpt><trkpt lat="39.8675822" lon="-0.3133806"><ele>657.0</ele><time>2026-04-19T17:38:17.999Z</time></trkpt><trkpt lat="39.8676549" lon="-0.3133295"><ele>655.0</ele><time>2026-04-19T17:38:19.999Z</time></trkpt><trkpt lat="39.8677283" lon="-0.3133335"><ele>653.0</ele><time>2026-04-19T17:38:21Z</time></trkpt><trkpt lat="39.8678062" lon="-0.3133674"><ele>651.0</ele><time>2026-04-19T17:38:22Z</time></trkpt><trkpt lat="39.8678778" lon="-0.3134159"><ele>649.0</ele><time>2026-04-19T17:38:22.999Z</time></trkpt><trkpt lat="39.8679548" lon="-0.3134414"><ele>647.0</ele><time>2026-04-19T17:38:23.999Z</time></trkpt><trkpt lat="39.8680395" lon="-0.3134511"><ele>645.0</ele><time>2026-04-19T17:38:24.999Z</time></trkpt><trkpt lat="39.8681396" lon="-0.3134199"><ele>645.0</ele><time>2026-04-19T17:38:25.999Z</time></trkpt><trkpt lat="39.8682348" lon="-0.3133612"><ele>645.0</ele><time>2026-04-19T17:38:26.998Z</time></trkpt><trkpt lat="39.8683144" lon="-0.3132826"><ele>645.0</ele><time>2026-04-19T17:38:27.999Z</time></trkpt><trkpt lat="39.8683789" lon="-0.3131862"><ele>645.0</ele><time>2026-04-19T17:38:28.999Z</time></trkpt><trkpt lat="39.8684438" lon="-0.3130847"><ele>645.0</ele><time>2026-04-19T17:38:29.999Z</time></trkpt><trkpt lat="39.8685229" lon="-0.3129909"><ele>643.5</ele><time>2026-04-19T17:38:30.999Z</time></trkpt><trkpt lat="39.8686194" lon="-0.3129112"><ele>642.0</ele><time>2026-04-19T17:38:32Z</time></trkpt><trkpt lat="39.8687293" lon="-0.3128509"><ele>640.5</ele><time>2026-04-19T17:38:33Z</time></trkpt><trkpt lat="39.8688469" lon="-0.3127966"><ele>639.0</ele><time>2026-04-19T17:38:33.999Z</time></trkpt><trkpt lat="39.8689659" lon="-0.3127582"><ele>639.0</ele><time>2026-04-19T17:38:34.999Z</time></trkpt><trkpt lat="39.8690834" lon="-0.3127468"><ele>639.0</ele><time>2026-04-19T17:38:35.999Z</time></trkpt><trkpt lat="39.8691911" lon="-0.3127654"><ele>639.0</ele><time>2026-04-19T17:38:36.999Z</time></trkpt><trkpt lat="39.8692906" lon="-0.3127878"><ele>639.0</ele><time>2026-04-19T17:38:37.999Z</time></trkpt><trkpt lat="39.8693755" lon="-0.3127994"><ele>639.0</ele><time>2026-04-19T17:38:38.999Z</time></trkpt><trkpt lat="39.8694478" lon="-0.3127807"><ele>634.2</ele><time>2026-04-19T17:38:39.999Z</time></trkpt><trkpt lat="39.8695108" lon="-0.3126529"><ele>629.4</ele><time>2026-04-19T17:38:41.999Z</time></trkpt><trkpt lat="39.8695019" lon="-0.3125704"><ele>624.6</ele><time>2026-04-19T17:38:42.999Z</time></trkpt><trkpt lat="39.8694659" lon="-0.3124753"><ele>619.8</ele><time>2026-04-19T17:38:43.999Z</time></trkpt><trkpt lat="39.8694051" lon="-0.3123794"><ele>615.0</ele><time>2026-04-19T17:38:44.999Z</time></trkpt><trkpt lat="39.869329" lon="-0.312295"><ele>616.0</ele><time>2026-04-19T17:38:45.999Z</time></trkpt><trkpt lat="39.869246" lon="-0.312212"><ele>617.0</ele><time>2026-04-19T17:38:47Z</time></trkpt><trkpt lat="39.8691543" lon="-0.3121304"><ele>618.0</ele><time>2026-04-19T17:38:47.999Z</time></trkpt><trkpt lat="39.8690489" lon="-0.3120583"><ele>619.0</ele><time>2026-04-19T17:38:48.999Z</time></trkpt><trkpt lat="39.8689348" lon="-0.3119878"><ele>619.0</ele><time>2026-04-19T17:38:49.999Z</time></trkpt><trkpt lat="39.8688147" lon="-0.3119192"><ele>619.0</ele><time>2026-04-19T17:38:51Z</time></trkpt><trkpt lat="39.868715" lon="-0.3118481"><ele>619.0</ele><time>2026-04-19T17:38:51.999Z</time></trkpt><trkpt lat="39.8686342" lon="-0.3117747"><ele>619.0</ele><time>2026-04-19T17:38:52.999Z</time></trkpt><trkpt lat="39.868569" lon="-0.3116911"><ele>619.0</ele><time>2026-04-19T17:38:53.999Z</time></trkpt><trkpt lat="39.8685346" lon="-0.3115858"><ele>619.0</ele><time>2026-04-19T17:38:54.999Z</time></trkpt><trkpt lat="39.8685416" lon="-0.3114626"><ele>619.0</ele><time>2026-04-19T17:38:55.998Z</time></trkpt><trkpt lat="39.8685757" lon="-0.3113374"><ele>619.0</ele><time>2026-04-19T17:38:56.999Z</time></trkpt><trkpt lat="39.8686297" lon="-0.3112105"><ele>619.0</ele><time>2026-04-19T17:38:57.999Z</time></trkpt><trkpt lat="39.8686868" lon="-0.3110763"><ele>619.0</ele><time>2026-04-19T17:38:58.999Z</time></trkpt><trkpt lat="39.8687337" lon="-0.3109255"><ele>618.0</ele><time>2026-04-19T17:39:00Z</time></trkpt><trkpt lat="39.8687618" lon="-0.3107654"><ele>617.0</ele><time>2026-04-19T17:39:00.999Z</time></trkpt><trkpt lat="39.8687766" lon="-0.3106119"><ele>616.0</ele><time>2026-04-19T17:39:01.999Z</time></trkpt><trkpt lat="39.8687901" lon="-0.3104808"><ele>615.0</ele><time>2026-04-19T17:39:03Z</time></trkpt><trkpt lat="39.868816" lon="-0.3103687"><ele>614.0</ele><time>2026-04-19T17:39:03.999Z</time></trkpt><trkpt lat="39.8688676" lon="-0.3102848"><ele>615.0</ele><time>2026-04-19T17:39:04.999Z</time></trkpt><trkpt lat="39.8689356" lon="-0.3102349"><ele>616.0</ele><time>2026-04-19T17:39:05.999Z</time></trkpt><trkpt lat="39.8690221" lon="-0.31021"><ele>617.0</ele><time>2026-04-19T17:39:07Z</time></trkpt><trkpt lat="39.8691212" lon="-0.3101986"><ele>618.0</ele><time>2026-04-19T17:39:07.999Z</time></trkpt><trkpt lat="39.8692354" lon="-0.3101854"><ele>619.0</ele><time>2026-04-19T17:39:08.999Z</time></trkpt><trkpt lat="39.8693612" lon="-0.3101769"><ele>619.0</ele><time>2026-04-19T17:39:09.999Z</time></trkpt><trkpt lat="39.8694915" lon="-0.3101569"><ele>619.0</ele><time>2026-04-19T17:39:10.999Z</time></trkpt><trkpt lat="39.8696297" lon="-0.3101303"><ele>619.0</ele><time>2026-04-19T17:39:11.999Z</time></trkpt><trkpt lat="39.8697694" lon="-0.3100985"><ele>619.0</ele><time>2026-04-19T17:39:12.999Z</time></trkpt><trkpt lat="39.8699062" lon="-0.3100514"><ele>619.0</ele><time>2026-04-19T17:39:14Z</time></trkpt><trkpt lat="39.870041" lon="-0.3099802"><ele>619.0</ele><time>2026-04-19T17:39:14.999Z</time></trkpt><trkpt lat="39.87016" lon="-0.3098886"><ele>619.0</ele><time>2026-04-19T17:39:15.999Z</time></trkpt><trkpt lat="39.8702576" lon="-0.3097801"><ele>619.0</ele><time>2026-04-19T17:39:16.999Z</time></trkpt><trkpt lat="39.8703309" lon="-0.3096477"><ele>612.0</ele><time>2026-04-19T17:39:17.999Z</time></trkpt><trkpt lat="39.8703762" lon="-0.3094943"><ele>605.0</ele><time>2026-04-19T17:39:19Z</time></trkpt><trkpt lat="39.8703928" lon="-0.3093397"><ele>598.0</ele><time>2026-04-19T17:39:19.999Z</time></trkpt><trkpt lat="39.8703936" lon="-0.3091953"><ele>591.0</ele><time>2026-04-19T17:39:21Z</time></trkpt><trkpt lat="39.8703691" lon="-0.3090638"><ele>591.0</ele><time>2026-04-19T17:39:21.999Z</time></trkpt><trkpt lat="39.8703356" lon="-0.3089407"><ele>591.0</ele><time>2026-04-19T17:39:22.999Z</time></trkpt><trkpt lat="39.8703182" lon="-0.308822"><ele>591.0</ele><time>2026-04-19T17:39:23.999Z</time></trkpt><trkpt lat="39.8703407" lon="-0.3086987"><ele>591.0</ele><time>2026-04-19T17:39:25Z</time></trkpt><trkpt lat="39.87039" lon="-0.3085725"><ele>591.0</ele><time>2026-04-19T17:39:25.999Z</time></trkpt><trkpt lat="39.8704666" lon="-0.3084453"><ele>591.0</ele><time>2026-04-19T17:39:26.999Z</time></trkpt><trkpt lat="39.8705532" lon="-0.308304"><ele>591.0</ele><time>2026-04-19T17:39:27.999Z</time></trkpt><trkpt lat="39.8706326" lon="-0.3081535"><ele>591.0</ele><time>2026-04-19T17:39:28.999Z</time></trkpt><trkpt lat="39.8706959" lon="-0.3079989"><ele>591.0</ele><time>2026-04-19T17:39:30Z</time></trkpt><trkpt lat="39.8707418" lon="-0.3078278"><ele>594.6666666666666</ele><time>2026-04-19T17:39:31Z</time></trkpt><trkpt lat="39.8707795" lon="-0.30765"><ele>598.3333333333333</ele><time>2026-04-19T17:39:31.999Z</time></trkpt><trkpt lat="39.8708199" lon="-0.3074562"><ele>602.0</ele><time>2026-04-19T17:39:33Z</time></trkpt><trkpt lat="39.8708694" lon="-0.3072618"><ele>604.3333333333333</ele><time>2026-04-19T17:39:34Z</time></trkpt><trkpt lat="39.8709241" lon="-0.3070727"><ele>606.6666666666666</ele><time>2026-04-19T17:39:34.999Z</time></trkpt><trkpt lat="39.8709819" lon="-0.3068639"><ele>609.0</ele><time>2026-04-19T17:39:35.999Z</time></trkpt><trkpt lat="39.8710393" lon="-0.3066657"><ele>599.5</ele><time>2026-04-19T17:39:37Z</time></trkpt><trkpt lat="39.8710929" lon="-0.3064973"><ele>590.0</ele><time>2026-04-19T17:39:37.999Z</time></trkpt><trkpt lat="39.8711396" lon="-0.3063518"><ele>580.5</ele><time>2026-04-19T17:39:39Z</time></trkpt><trkpt lat="39.8711771" lon="-0.3062091"><ele>571.0</ele><time>2026-04-19T17:39:40Z</time></trkpt><trkpt lat="39.871193" lon="-0.3060907"><ele>572.4</ele><time>2026-04-19T17:39:40.999Z</time></trkpt><trkpt lat="39.8711817" lon="-0.3059729"><ele>573.8</ele><time>2026-04-19T17:39:41.999Z</time></trkpt><trkpt lat="39.8711456" lon="-0.3058625"><ele>575.1999999999999</ele><time>2026-04-19T17:39:42.999Z</time></trkpt><trkpt lat="39.8710851" lon="-0.3057485"><ele>576.6</ele><time>2026-04-19T17:39:43.999Z</time></trkpt><trkpt lat="39.8710095" lon="-0.3056229"><ele>578.0</ele><time>2026-04-19T17:39:45Z</time></trkpt><trkpt lat="39.8709248" lon="-0.3054894"><ele>578.0</ele><time>2026-04-19T17:39:45.999Z</time></trkpt><trkpt lat="39.8708404" lon="-0.3053413"><ele>578.0</ele><time>2026-04-19T17:39:46.999Z</time></trkpt><trkpt lat="39.8707564" lon="-0.3051778"><ele>578.0</ele><time>2026-04-19T17:39:47.999Z</time></trkpt><trkpt lat="39.8706718" lon="-0.3050014"><ele>578.0</ele><time>2026-04-19T17:39:49Z</time></trkpt><trkpt lat="39.8705826" lon="-0.3048461"><ele>578.0</ele><time>2026-04-19T17:39:50Z</time></trkpt><trkpt lat="39.8704982" lon="-0.3047282"><ele>578.0</ele><time>2026-04-19T17:39:51Z</time></trkpt><trkpt lat="39.8704045" lon="-0.3046448"><ele>578.0</ele><time>2026-04-19T17:39:51.999Z</time></trkpt><trkpt lat="39.8703258" lon="-0.3045553"><ele>574.1999999999999</ele><time>2026-04-19T17:39:53Z</time></trkpt><trkpt lat="39.870285" lon="-0.3044376"><ele>570.4</ele><time>2026-04-19T17:39:53.999Z</time></trkpt><trkpt lat="39.8702769" lon="-0.3043078"><ele>566.5999999999999</ele><time>2026-04-19T17:39:54.999Z</time></trkpt><trkpt lat="39.8702915" lon="-0.3041653"><ele>562.8</ele><time>2026-04-19T17:39:56Z</time></trkpt><trkpt lat="39.8703023" lon="-0.3040214"><ele>559.0</ele><time>2026-04-19T17:39:56.999Z</time></trkpt><trkpt lat="39.8703028" lon="-0.303881"><ele>556.0</ele><time>2026-04-19T17:39:57.999Z</time></trkpt><trkpt lat="39.8702822" lon="-0.3037428"><ele>553.0</ele><time>2026-04-19T17:39:58.999Z</time></trkpt><trkpt lat="39.8702394" lon="-0.3036081"><ele>550.0</ele><time>2026-04-19T17:39:59.999Z</time></trkpt><trkpt lat="39.8701758" lon="-0.303466"><ele>547.0</ele><time>2026-04-19T17:40:01Z</time></trkpt><trkpt lat="39.8700996" lon="-0.3033217"><ele>548.0</ele><time>2026-04-19T17:40:02Z</time></trkpt><trkpt lat="39.8700183" lon="-0.3031722"><ele>549.0</ele><time>2026-04-19T17:40:02.999Z</time></trkpt><trkpt lat="39.8699341" lon="-0.3030435"><ele>550.0</ele><time>2026-04-19T17:40:03.999Z</time></trkpt><trkpt lat="39.8698519" lon="-0.3029218"><ele>551.0</ele><time>2026-04-19T17:40:05Z</time></trkpt><trkpt lat="39.8697535" lon="-0.302837"><ele>551.0</ele><time>2026-04-19T17:40:05.999Z</time></trkpt><trkpt lat="39.8696387" lon="-0.3027818"><ele>551.0</ele><time>2026-04-19T17:40:07Z</time></trkpt><trkpt lat="39.869524" lon="-0.3027433"><ele>551.0</ele><time>2026-04-19T17:40:07.999Z</time></trkpt><trkpt lat="39.8694206" lon="-0.3026853"><ele>551.0</ele><time>2026-04-19T17:40:08.999Z</time></trkpt><trkpt lat="39.8693375" lon="-0.3025861"><ele>551.0</ele><time>2026-04-19T17:40:09.999Z</time></trkpt><trkpt lat="39.869284" lon="-0.302465"><ele>551.0</ele><time>2026-04-19T17:40:11Z</time></trkpt><trkpt lat="39.8692607" lon="-0.3023418"><ele>551.0</ele><time>2026-04-19T17:40:11.999Z</time></trkpt><trkpt lat="39.8692725" lon="-0.3022149"><ele>551.0</ele><time>2026-04-19T17:40:12.999Z</time></trkpt><trkpt lat="39.869305" lon="-0.3020981"><ele>551.0</ele><time>2026-04-19T17:40:13.999Z</time></trkpt><trkpt lat="39.8693277" lon="-0.3019768"><ele>547.0</ele><time>2026-04-19T17:40:15Z</time></trkpt><trkpt lat="39.8693317" lon="-0.3018395"><ele>543.0</ele><time>2026-04-19T17:40:15.999Z</time></trkpt><trkpt lat="39.869321" lon="-0.3016994"><ele>539.0</ele><time>2026-04-19T17:40:16.999Z</time></trkpt><trkpt lat="39.869336" lon="-0.3015507"><ele>535.0</ele><time>2026-04-19T17:40:17.999Z</time></trkpt><trkpt lat="39.8693863" lon="-0.3014109"><ele>531.0</ele><time>2026-04-19T17:40:18.999Z</time></trkpt><trkpt lat="39.8694666" lon="-0.3012703"><ele>531.0</ele><time>2026-04-19T17:40:19.999Z</time></trkpt><trkpt lat="39.8695461" lon="-0.3011373"><ele>531.0</ele><time>2026-04-19T17:40:20.999Z</time></trkpt><trkpt lat="39.8696065" lon="-0.3010118"><ele>531.0</ele><time>2026-04-19T17:40:21.999Z</time></trkpt><trkpt lat="39.8696574" lon="-0.3008897"><ele>531.0</ele><time>2026-04-19T17:40:22.999Z</time></trkpt><trkpt lat="39.8696815" lon="-0.3007823"><ele>531.0</ele><time>2026-04-19T17:40:23.999Z</time></trkpt><trkpt lat="39.8696755" lon="-0.3006733"><ele>531.0</ele><time>2026-04-19T17:40:25Z</time></trkpt><trkpt lat="39.8696397" lon="-0.3005953"><ele>531.0</ele><time>2026-04-19T17:40:25.999Z</time></trkpt><trkpt lat="39.8695831" lon="-0.3005494"><ele>531.0</ele><time>2026-04-19T17:40:27Z</time></trkpt><trkpt lat="39.8695069" lon="-0.3005282"><ele>531.0</ele><time>2026-04-19T17:40:27.999Z</time></trkpt><trkpt lat="39.8694134" lon="-0.3005225"><ele>531.0</ele><time>2026-04-19T17:40:29Z</time></trkpt><trkpt lat="39.8693122" lon="-0.3005077"><ele>531.0</ele><time>2026-04-19T17:40:29.999Z</time></trkpt><trkpt lat="39.8692072" lon="-0.3004844"><ele>532.2</ele><time>2026-04-19T17:40:31Z</time></trkpt><trkpt lat="39.8690991" lon="-0.3004533"><ele>533.4000000000001</ele><time>2026-04-19T17:40:31.999Z</time></trkpt><trkpt lat="39.8689985" lon="-0.3004079"><ele>534.6</ele><time>2026-04-19T17:40:33Z</time></trkpt><trkpt lat="39.8689064" lon="-0.3003424"><ele>535.8000000000001</ele><time>2026-04-19T17:40:33.999Z</time></trkpt><trkpt lat="39.8688208" lon="-0.3002593"><ele>537.0</ele><time>2026-04-19T17:40:34.999Z</time></trkpt><trkpt lat="39.8687396" lon="-0.300163"><ele>537.0</ele><time>2026-04-19T17:40:35.999Z</time></trkpt><trkpt lat="39.8686733" lon="-0.3000547"><ele>537.0</ele><time>2026-04-19T17:40:36.999Z</time></trkpt><trkpt lat="39.868617" lon="-0.2999383"><ele>537.0</ele><time>2026-04-19T17:40:38Z</time></trkpt><trkpt lat="39.8685753" lon="-0.2998266"><ele>537.0</ele><time>2026-04-19T17:40:38.999Z</time></trkpt><trkpt lat="39.8685502" lon="-0.2997179"><ele>537.0</ele><time>2026-04-19T17:40:40Z</time></trkpt><trkpt lat="39.8685502" lon="-0.2996096"><ele>534.0</ele><time>2026-04-19T17:40:40.999Z</time></trkpt><trkpt lat="39.8685708" lon="-0.2995096"><ele>531.0</ele><time>2026-04-19T17:40:41.999Z</time></trkpt><trkpt lat="39.8686058" lon="-0.2994307"><ele>528.0</ele><time>2026-04-19T17:40:42.999Z</time></trkpt><trkpt lat="39.8687039" lon="-0.2993629"><ele>525.0</ele><time>2026-04-19T17:40:44.999Z</time></trkpt><trkpt lat="39.8687758" lon="-0.2994399"><ele>522.0</ele><time>2026-04-19T17:40:46.999Z</time></trkpt><trkpt lat="39.8687791" lon="-0.2995285"><ele>519.0</ele><time>2026-04-19T17:40:47.999Z</time></trkpt><trkpt lat="39.8687605" lon="-0.2996415"><ele>522.6</ele><time>2026-04-19T17:40:48.999Z</time></trkpt><trkpt lat="39.8687626" lon="-0.2997573"><ele>526.2</ele><time>2026-04-19T17:40:49.999Z</time></trkpt><trkpt lat="39.8687927" lon="-0.2998678"><ele>529.8000000000001</ele><time>2026-04-19T17:40:50.999Z</time></trkpt><trkpt lat="39.8688504" lon="-0.2999735"><ele>533.4</ele><time>2026-04-19T17:40:52Z</time></trkpt><trkpt lat="39.8689302" lon="-0.3000617"><ele>537.0</ele><time>2026-04-19T17:40:52.999Z</time></trkpt><trkpt lat="39.8690334" lon="-0.3001262"><ele>537.0</ele><time>2026-04-19T17:40:53.999Z</time></trkpt><trkpt lat="39.8691424" lon="-0.3001567"><ele>537.0</ele><time>2026-04-19T17:40:54.999Z</time></trkpt><trkpt lat="39.869259" lon="-0.3001602"><ele>537.0</ele><time>2026-04-19T17:40:55.999Z</time></trkpt><trkpt lat="39.8693788" lon="-0.3001468"><ele>537.0</ele><time>2026-04-19T17:40:57Z</time></trkpt><trkpt lat="39.8694893" lon="-0.3001109"><ele>532.2</ele><time>2026-04-19T17:40:57.999Z</time></trkpt><trkpt lat="39.8695826" lon="-0.3000714"><ele>527.4000000000001</ele><time>2026-04-19T17:40:58.999Z</time></trkpt><trkpt lat="39.8696693" lon="-0.3000602"><ele>522.5999999999999</ele><time>2026-04-19T17:40:59.999Z</time></trkpt><trkpt lat="39.8697559" lon="-0.3000771"><ele>517.8</ele><time>2026-04-19T17:41:00.999Z</time></trkpt><trkpt lat="39.8698439" lon="-0.3001248"><ele>513.0</ele><time>2026-04-19T17:41:01.999Z</time></trkpt><trkpt lat="39.8699256" lon="-0.3001819"><ele>513.0</ele><time>2026-04-19T17:41:02.999Z</time></trkpt><trkpt lat="39.8700012" lon="-0.3002701"><ele>513.0</ele><time>2026-04-19T17:41:03.999Z</time></trkpt><trkpt lat="39.8700692" lon="-0.3003724"><ele>513.0</ele><time>2026-04-19T17:41:04.999Z</time></trkpt><trkpt lat="39.8701301" lon="-0.3004798"><ele>513.0</ele><time>2026-04-19T17:41:05.999Z</time></trkpt><trkpt lat="39.8701751" lon="-0.3005837"><ele>513.0</ele><time>2026-04-19T17:41:06.999Z</time></trkpt><trkpt lat="39.8701862" lon="-0.300693"><ele>516.6</ele><time>2026-04-19T17:41:08Z</time></trkpt><trkpt lat="39.8701639" lon="-0.3007925"><ele>520.1999999999999</ele><time>2026-04-19T17:41:08.999Z</time></trkpt><trkpt lat="39.8701232" lon="-0.3008949"><ele>523.8</ele><time>2026-04-19T17:41:09.999Z</time></trkpt><trkpt lat="39.8700791" lon="-0.301017"><ele>527.4</ele><time>2026-04-19T17:41:10.999Z</time></trkpt><trkpt lat="39.8700416" lon="-0.3011584"><ele>531.0</ele><time>2026-04-19T17:41:11.999Z</time></trkpt><trkpt lat="39.8700084" lon="-0.3013158"><ele>530.6</ele><time>2026-04-19T17:41:12.999Z</time></trkpt><trkpt lat="39.8699824" lon="-0.3014681"><ele>530.2</ele><time>2026-04-19T17:41:13.999Z</time></trkpt><trkpt lat="39.8699558" lon="-0.3016087"><ele>529.8</ele><time>2026-04-19T17:41:14.999Z</time></trkpt><trkpt lat="39.8699496" lon="-0.3017383"><ele>529.4</ele><time>2026-04-19T17:41:15.999Z</time></trkpt><trkpt lat="39.8699558" lon="-0.3018526"><ele>529.0</ele><time>2026-04-19T17:41:16.999Z</time></trkpt><trkpt lat="39.8699888" lon="-0.3019478"><ele>529.0</ele><time>2026-04-19T17:41:17.999Z</time></trkpt><trkpt lat="39.8700548" lon="-0.3020145"><ele>529.0</ele><time>2026-04-19T17:41:18.999Z</time></trkpt><trkpt lat="39.8701403" lon="-0.3020516"><ele>529.0</ele><time>2026-04-19T17:41:20Z</time></trkpt><trkpt lat="39.8702489" lon="-0.3020625"><ele>529.0</ele><time>2026-04-19T17:41:20.999Z</time></trkpt><trkpt lat="39.8703786" lon="-0.3020591"><ele>529.0</ele><time>2026-04-19T17:41:22Z</time></trkpt><trkpt lat="39.8705132" lon="-0.3020642"><ele>528.25</ele><time>2026-04-19T17:41:23Z</time></trkpt><trkpt lat="39.8706346" lon="-0.3020708"><ele>527.5</ele><time>2026-04-19T17:41:23.999Z</time></trkpt><trkpt lat="39.8707422" lon="-0.3020935"><ele>526.75</ele><time>2026-04-19T17:41:24.999Z</time></trkpt><trkpt lat="39.8708337" lon="-0.3021685"><ele>526.0</ele><time>2026-04-19T17:41:25.999Z</time></trkpt><trkpt lat="39.8709202" lon="-0.3022597"><ele>521.0</ele><time>2026-04-19T17:41:26.999Z</time></trkpt><trkpt lat="39.8710114" lon="-0.3023257"><ele>516.0</ele><time>2026-04-19T17:41:27.999Z</time></trkpt><trkpt lat="39.8711135" lon="-0.3023705"><ele>511.0</ele><time>2026-04-19T17:41:28.999Z</time></trkpt><trkpt lat="39.871223" lon="-0.3023848"><ele>506.0</ele><time>2026-04-19T17:41:29.999Z</time></trkpt><trkpt lat="39.8713368" lon="-0.3023813"><ele>501.0</ele><time>2026-04-19T17:41:31Z</time></trkpt><trkpt lat="39.8714528" lon="-0.302374"><ele>501.0</ele><time>2026-04-19T17:41:31.999Z</time></trkpt><trkpt lat="39.8715593" lon="-0.3023758"><ele>501.0</ele><time>2026-04-19T17:41:32.999Z</time></trkpt><trkpt lat="39.8716617" lon="-0.3024068"><ele>501.0</ele><time>2026-04-19T17:41:33.999Z</time></trkpt><trkpt lat="39.8717543" lon="-0.3024675"><ele>501.0</ele><time>2026-04-19T17:41:35Z</time></trkpt><trkpt lat="39.8718466" lon="-0.3025582"><ele>501.0</ele><time>2026-04-19T17:41:35.999Z</time></trkpt><trkpt lat="39.8719322" lon="-0.30267"><ele>493.6</ele><time>2026-04-19T17:41:36.999Z</time></trkpt><trkpt lat="39.8720053" lon="-0.3027897"><ele>486.20000000000005</ele><time>2026-04-19T17:41:37.999Z</time></trkpt><trkpt lat="39.8720596" lon="-0.3028987"><ele>478.79999999999995</ele><time>2026-04-19T17:41:38.999Z</time></trkpt><trkpt lat="39.8720817" lon="-0.3030133"><ele>471.4</ele><time>2026-04-19T17:41:39.999Z</time></trkpt><trkpt lat="39.8720607" lon="-0.3031163"><ele>464.0</ele><time>2026-04-19T17:41:40.999Z</time></trkpt><trkpt lat="39.8720155" lon="-0.303206"><ele>464.0</ele><time>2026-04-19T17:41:42Z</time></trkpt><trkpt lat="39.8719589" lon="-0.3032989"><ele>464.0</ele><time>2026-04-19T17:41:42.999Z</time></trkpt><trkpt lat="39.8718944" lon="-0.3034008"><ele>464.0</ele><time>2026-04-19T17:41:43.999Z</time></trkpt><trkpt lat="39.8718233" lon="-0.3034964"><ele>464.0</ele><time>2026-04-19T17:41:44.999Z</time></trkpt><trkpt lat="39.8717623" lon="-0.3035922"><ele>464.0</ele><time>2026-04-19T17:41:45.999Z</time></trkpt><trkpt lat="39.8717165" lon="-0.3036966"><ele>464.6</ele><time>2026-04-19T17:41:46.999Z</time></trkpt><trkpt lat="39.871695" lon="-0.3038108"><ele>465.2</ele><time>2026-04-19T17:41:47.999Z</time></trkpt><trkpt lat="39.8716957" lon="-0.3039387"><ele>465.80000000000007</ele><time>2026-04-19T17:41:48.999Z</time></trkpt><trkpt lat="39.871711" lon="-0.3040765"><ele>466.40000000000003</ele><time>2026-04-19T17:41:50Z</time></trkpt><trkpt lat="39.8717433" lon="-0.3042172"><ele>467.0</ele><time>2026-04-19T17:41:50.999Z</time></trkpt><trkpt lat="39.8718015" lon="-0.3043402"><ele>467.0</ele><time>2026-04-19T17:41:51.999Z</time></trkpt><trkpt lat="39.8718923" lon="-0.304434"><ele>467.0</ele><time>2026-04-19T17:41:52.999Z</time></trkpt><trkpt lat="39.8720109" lon="-0.3045145"><ele>467.0</ele><time>2026-04-19T17:41:53.999Z</time></trkpt><trkpt lat="39.8721447" lon="-0.3045926"><ele>467.0</ele><time>2026-04-19T17:41:54.999Z</time></trkpt><trkpt lat="39.8722878" lon="-0.3046644"><ele>467.0</ele><time>2026-04-19T17:41:55.999Z</time></trkpt><trkpt lat="39.8724384" lon="-0.3047353"><ele>467.0</ele><time>2026-04-19T17:41:57Z</time></trkpt><trkpt lat="39.8726024" lon="-0.3048033"><ele>467.0</ele><time>2026-04-19T17:41:57.999Z</time></trkpt><trkpt lat="39.8727669" lon="-0.3048517"><ele>468.5</ele><time>2026-04-19T17:41:59Z</time></trkpt><trkpt lat="39.8729296" lon="-0.3048812"><ele>470.0</ele><time>2026-04-19T17:42:00Z</time></trkpt><trkpt lat="39.8730786" lon="-0.3049053"><ele>471.5</ele><time>2026-04-19T17:42:00.999Z</time></trkpt><trkpt lat="39.8731991" lon="-0.3049372"><ele>473.0</ele><time>2026-04-19T17:42:01.999Z</time></trkpt><trkpt lat="39.8733052" lon="-0.3049985"><ele>472.99999999999994</ele><time>2026-04-19T17:42:02.999Z</time></trkpt><trkpt lat="39.8733875" lon="-0.3050863"><ele>473.0</ele><time>2026-04-19T17:42:03.999Z</time></trkpt><trkpt lat="39.8734463" lon="-0.3051722"><ele>473.0</ele><time>2026-04-19T17:42:04.999Z</time></trkpt><trkpt lat="39.8734703" lon="-0.3052612"><ele>473.0</ele><time>2026-04-19T17:42:05.999Z</time></trkpt><trkpt lat="39.8734608" lon="-0.3053533"><ele>472.99999999999994</ele><time>2026-04-19T17:42:06.999Z</time></trkpt><trkpt lat="39.8734365" lon="-0.3054586"><ele>473.0</ele><time>2026-04-19T17:42:08Z</time></trkpt><trkpt lat="39.8734134" lon="-0.3055723"><ele>475.4</ele><time>2026-04-19T17:42:08.999Z</time></trkpt><trkpt lat="39.8734144" lon="-0.3056913"><ele>477.79999999999995</ele><time>2026-04-19T17:42:09.999Z</time></trkpt><trkpt lat="39.8734287" lon="-0.3058095"><ele>480.2</ele><time>2026-04-19T17:42:10.999Z</time></trkpt><trkpt lat="39.8734609" lon="-0.3059375"><ele>482.6</ele><time>2026-04-19T17:42:12Z</time></trkpt><trkpt lat="39.873509" lon="-0.3060671"><ele>485.0</ele><time>2026-04-19T17:42:12.999Z</time></trkpt><trkpt lat="39.873582" lon="-0.3061883"><ele>477.5</ele><time>2026-04-19T17:42:13.999Z</time></trkpt><trkpt lat="39.873669" lon="-0.3063131"><ele>470.0</ele><time>2026-04-19T17:42:15Z</time></trkpt><trkpt lat="39.8737597" lon="-0.3064253"><ele>462.5</ele><time>2026-04-19T17:42:15.999Z</time></trkpt><trkpt lat="39.8738476" lon="-0.3065342"><ele>455.0</ele><time>2026-04-19T17:42:16.999Z</time></trkpt><trkpt lat="39.8739138" lon="-0.3066518"><ele>454.99999999999994</ele><time>2026-04-19T17:42:17.999Z</time></trkpt><trkpt lat="39.8739521" lon="-0.3067568"><ele>455.0</ele><time>2026-04-19T17:42:18.999Z</time></trkpt><trkpt lat="39.8739536" lon="-0.306863"><ele>455.0</ele><time>2026-04-19T17:42:19.999Z</time></trkpt><trkpt lat="39.8739099" lon="-0.3069646"><ele>455.0</ele><time>2026-04-19T17:42:20.999Z</time></trkpt><trkpt lat="39.8738575" lon="-0.3070606"><ele>454.99999999999994</ele><time>2026-04-19T17:42:21.999Z</time></trkpt><trkpt lat="39.8738319" lon="-0.3071475"><ele>455.0</ele><time>2026-04-19T17:42:22.999Z</time></trkpt><trkpt lat="39.8738307" lon="-0.307231"><ele>457.2</ele><time>2026-04-19T17:42:24Z</time></trkpt><trkpt lat="39.873938" lon="-0.3073192"><ele>459.4</ele><time>2026-04-19T17:42:25.999Z</time></trkpt><trkpt lat="39.8740183" lon="-0.3073203"><ele>461.6</ele><time>2026-04-19T17:42:26.999Z</time></trkpt><trkpt lat="39.8741197" lon="-0.307314"><ele>463.8</ele><time>2026-04-19T17:42:27.999Z</time></trkpt><trkpt lat="39.8742369" lon="-0.3073309"><ele>466.0</ele><time>2026-04-19T17:42:28.999Z</time></trkpt><trkpt lat="39.8743503" lon="-0.3073285"><ele>466.0</ele><time>2026-04-19T17:42:29.999Z</time></trkpt><trkpt lat="39.8744598" lon="-0.3072823"><ele>466.0</ele><time>2026-04-19T17:42:30.999Z</time></trkpt><trkpt lat="39.8745458" lon="-0.3071941"><ele>466.0</ele><time>2026-04-19T17:42:32Z</time></trkpt><trkpt lat="39.8746253" lon="-0.3070964"><ele>466.0</ele><time>2026-04-19T17:42:33Z</time></trkpt><trkpt lat="39.8746864" lon="-0.3070333"><ele>466.0</ele><time>2026-04-19T17:42:33.999Z</time></trkpt><trkpt lat="39.8747538" lon="-0.3069893"><ele>466.0</ele><time>2026-04-19T17:42:34.999Z</time></trkpt><trkpt lat="39.8748246" lon="-0.3069852"><ele>466.0</ele><time>2026-04-19T17:42:35.999Z</time></trkpt><trkpt lat="39.8748828" lon="-0.3070343"><ele>466.0</ele><time>2026-04-19T17:42:36.999Z</time></trkpt><trkpt lat="39.874935" lon="-0.3070904"><ele>466.0</ele><time>2026-04-19T17:42:37.999Z</time></trkpt><trkpt lat="39.874983" lon="-0.3071504"><ele>466.0</ele><time>2026-04-19T17:42:38.999Z</time></trkpt><trkpt lat="39.8750378" lon="-0.3072133"><ele>466.0</ele><time>2026-04-19T17:42:39.999Z</time></trkpt><trkpt lat="39.8751015" lon="-0.3072845"><ele>466.0</ele><time>2026-04-19T17:42:40.999Z</time></trkpt><trkpt lat="39.8751796" lon="-0.3073644"><ele>458.0</ele><time>2026-04-19T17:42:41.999Z</time></trkpt><trkpt lat="39.8752788" lon="-0.3074342"><ele>450.0</ele><time>2026-04-19T17:42:43Z</time></trkpt><trkpt lat="39.8753807" lon="-0.3074773"><ele>442.0</ele><time>2026-04-19T17:42:44Z</time></trkpt><trkpt lat="39.8754781" lon="-0.3075079"><ele>434.0</ele><time>2026-04-19T17:42:45Z</time></trkpt><trkpt lat="39.8755506" lon="-0.3075496"><ele>426.0</ele><time>2026-04-19T17:42:46Z</time></trkpt><trkpt lat="39.8755918" lon="-0.3076297"><ele>426.0</ele><time>2026-04-19T17:42:46.999Z</time></trkpt><trkpt lat="39.8756012" lon="-0.307718"><ele>426.0</ele><time>2026-04-19T17:42:47.999Z</time></trkpt><trkpt lat="39.8756013" lon="-0.3078057"><ele>426.0</ele><time>2026-04-19T17:42:48.999Z</time></trkpt><trkpt lat="39.8756055" lon="-0.307896"><ele>426.0</ele><time>2026-04-19T17:42:50Z</time></trkpt><trkpt lat="39.8756174" lon="-0.3080057"><ele>426.0</ele><time>2026-04-19T17:42:50.999Z</time></trkpt><trkpt lat="39.8756361" lon="-0.3081061"><ele>426.0</ele><time>2026-04-19T17:42:51.999Z</time></trkpt><trkpt lat="39.875653" lon="-0.308212"><ele>426.0</ele><time>2026-04-19T17:42:52.999Z</time></trkpt><trkpt lat="39.8756716" lon="-0.3083177"><ele>426.0</ele><time>2026-04-19T17:42:54Z</time></trkpt><trkpt lat="39.8756945" lon="-0.3084216"><ele>426.0</ele><time>2026-04-19T17:42:55Z</time></trkpt><trkpt lat="39.8757197" lon="-0.3085324"><ele>426.0</ele><time>2026-04-19T17:42:55.999Z</time></trkpt><trkpt lat="39.8757392" lon="-0.3086514"><ele>426.0</ele><time>2026-04-19T17:42:56.999Z</time></trkpt><trkpt lat="39.87575" lon="-0.3087703"><ele>426.0</ele><time>2026-04-19T17:42:57.999Z</time></trkpt><trkpt lat="39.8757352" lon="-0.308919"><ele>426.0</ele><time>2026-04-19T17:42:59Z</time></trkpt><trkpt lat="39.8756865" lon="-0.3091129"><ele>426.0</ele><time>2026-04-19T17:42:59.999Z</time></trkpt><trkpt lat="39.8756147" lon="-0.3093495"><ele>426.0</ele><time>2026-04-19T17:43:01Z</time></trkpt><trkpt lat="39.8755353" lon="-0.3096023"><ele>426.75</ele><time>2026-04-19T17:43:02Z</time></trkpt><trkpt lat="39.8754498" lon="-0.3098012"><ele>427.5</ele><time>2026-04-19T17:43:02.999Z</time></trkpt><trkpt lat="39.8753703" lon="-0.3099659"><ele>428.25</ele><time>2026-04-19T17:43:03.999Z</time></trkpt><trkpt lat="39.8753161" lon="-0.3100858"><ele>429.0</ele><time>2026-04-19T17:43:05Z</time></trkpt><trkpt lat="39.8752765" lon="-0.3101969"><ele>429.0</ele><time>2026-04-19T17:43:06Z</time></trkpt><trkpt lat="39.8752657" lon="-0.3103005"><ele>429.0</ele><time>2026-04-19T17:43:06.999Z</time></trkpt><trkpt lat="39.8752977" lon="-0.3103909"><ele>429.0</ele><time>2026-04-19T17:43:07.999Z</time></trkpt><trkpt lat="39.8753554" lon="-0.3104469"><ele>429.0</ele><time>2026-04-19T17:43:09Z</time></trkpt><trkpt lat="39.8754342" lon="-0.3104575"><ele>429.0</ele><time>2026-04-19T17:43:10Z</time></trkpt><trkpt lat="39.8755413" lon="-0.3104153"><ele>429.0</ele><time>2026-04-19T17:43:10.999Z</time></trkpt><trkpt lat="39.875679" lon="-0.3103282"><ele>429.0</ele><time>2026-04-19T17:43:11.999Z</time></trkpt><trkpt lat="39.8758373" lon="-0.3101984"><ele>429.0</ele><time>2026-04-19T17:43:12.999Z</time></trkpt><trkpt lat="39.8760033" lon="-0.3100219"><ele>429.0</ele><time>2026-04-19T17:43:13.999Z</time></trkpt><trkpt lat="39.8761706" lon="-0.3098013"><ele>425.33333333333337</ele><time>2026-04-19T17:43:14.999Z</time></trkpt><trkpt lat="39.8763232" lon="-0.309586"><ele>421.6666666666667</ele><time>2026-04-19T17:43:15.999Z</time></trkpt><trkpt lat="39.8764597" lon="-0.3093979"><ele>418.0</ele><time>2026-04-19T17:43:16.999Z</time></trkpt><trkpt lat="39.8765785" lon="-0.3092413"><ele>418.0</ele><time>2026-04-19T17:43:17.999Z</time></trkpt><trkpt lat="39.8766945" lon="-0.3091162"><ele>418.0</ele><time>2026-04-19T17:43:19Z</time></trkpt><trkpt lat="39.8768136" lon="-0.3090125"><ele>418.0</ele><time>2026-04-19T17:43:19.999Z</time></trkpt><trkpt lat="39.8769051" lon="-0.3089153"><ele>418.0</ele><time>2026-04-19T17:43:20.999Z</time></trkpt><trkpt lat="39.8769686" lon="-0.3088043"><ele>421.25</ele><time>2026-04-19T17:43:21.999Z</time></trkpt><trkpt lat="39.8770018" lon="-0.3086602"><ele>424.5</ele><time>2026-04-19T17:43:22.999Z</time></trkpt><trkpt lat="39.8770284" lon="-0.3085007"><ele>427.75</ele><time>2026-04-19T17:43:23.999Z</time></trkpt><trkpt lat="39.8770547" lon="-0.3083169"><ele>431.0</ele><time>2026-04-19T17:43:25Z</time></trkpt><trkpt lat="39.8770655" lon="-0.3081398"><ele>426.8</ele><time>2026-04-19T17:43:25.999Z</time></trkpt><trkpt lat="39.8770669" lon="-0.3079747"><ele>422.6</ele><time>2026-04-19T17:43:26.999Z</time></trkpt><trkpt lat="39.877073" lon="-0.3078417"><ele>418.4</ele><time>2026-04-19T17:43:27.999Z</time></trkpt><trkpt lat="39.8770895" lon="-0.3077118"><ele>414.2</ele><time>2026-04-19T17:43:28.999Z</time></trkpt><trkpt lat="39.8771219" lon="-0.3075956"><ele>410.0</ele><time>2026-04-19T17:43:30Z</time></trkpt><trkpt lat="39.8771656" lon="-0.3075057"><ele>409.99999999999994</ele><time>2026-04-19T17:43:30.999Z</time></trkpt><trkpt lat="39.8772205" lon="-0.3074358"><ele>410.0</ele><time>2026-04-19T17:43:31.999Z</time></trkpt><trkpt lat="39.8772842" lon="-0.3073904"><ele>410.0</ele><time>2026-04-19T17:43:32.999Z</time></trkpt><trkpt lat="39.8773576" lon="-0.3073791"><ele>410.0</ele><time>2026-04-19T17:43:33.999Z</time></trkpt><trkpt lat="39.8774318" lon="-0.3073867"><ele>409.99999999999994</ele><time>2026-04-19T17:43:34.999Z</time></trkpt><trkpt lat="39.8775168" lon="-0.3074024"><ele>410.0</ele><time>2026-04-19T17:43:35.999Z</time></trkpt><trkpt lat="39.8776113" lon="-0.3074216"><ele>407.4</ele><time>2026-04-19T17:43:37Z</time></trkpt><trkpt lat="39.8777154" lon="-0.3074387"><ele>404.8</ele><time>2026-04-19T17:43:37.999Z</time></trkpt><trkpt lat="39.8778314" lon="-0.3074627"><ele>402.20000000000005</ele><time>2026-04-19T17:43:39Z</time></trkpt><trkpt lat="39.8779358" lon="-0.3074998"><ele>399.6</ele><time>2026-04-19T17:43:39.999Z</time></trkpt><trkpt lat="39.8780279" lon="-0.307547"><ele>397.0</ele><time>2026-04-19T17:43:40.999Z</time></trkpt><trkpt lat="39.8781128" lon="-0.3076039"><ele>397.00000000000006</ele><time>2026-04-19T17:43:41.999Z</time></trkpt><trkpt lat="39.8781902" lon="-0.3076655"><ele>397.0</ele><time>2026-04-19T17:43:43Z</time></trkpt><trkpt lat="39.8782526" lon="-0.3077358"><ele>397.0</ele><time>2026-04-19T17:43:43.999Z</time></trkpt><trkpt lat="39.8783042" lon="-0.3078083"><ele>397.0</ele><time>2026-04-19T17:43:44.999Z</time></trkpt><trkpt lat="39.8783515" lon="-0.307883"><ele>397.00000000000006</ele><time>2026-04-19T17:43:45.999Z</time></trkpt><trkpt lat="39.878398" lon="-0.3079666"><ele>397.0</ele><time>2026-04-19T17:43:46.999Z</time></trkpt><trkpt lat="39.8784428" lon="-0.3080623"><ele>394.8</ele><time>2026-04-19T17:43:47.999Z</time></trkpt><trkpt lat="39.8784889" lon="-0.308154"><ele>392.6</ele><time>2026-04-19T17:43:48.999Z</time></trkpt><trkpt lat="39.8785344" lon="-0.3082652"><ele>390.40000000000003</ele><time>2026-04-19T17:43:50Z</time></trkpt><trkpt lat="39.8785744" lon="-0.3083732"><ele>388.20000000000005</ele><time>2026-04-19T17:43:51Z</time></trkpt><trkpt lat="39.8786014" lon="-0.3084884"><ele>386.0</ele><time>2026-04-19T17:43:51.999Z</time></trkpt><trkpt lat="39.8786112" lon="-0.308602"><ele>386.0</ele><time>2026-04-19T17:43:52.999Z</time></trkpt><trkpt lat="39.8786095" lon="-0.3087192"><ele>386.0</ele><time>2026-04-19T17:43:53.999Z</time></trkpt><trkpt lat="39.8785929" lon="-0.30884"><ele>386.0</ele><time>2026-04-19T17:43:54.999Z</time></trkpt><trkpt lat="39.8785608" lon="-0.3089601"><ele>386.0</ele><time>2026-04-19T17:43:56Z</time></trkpt><trkpt lat="39.8785258" lon="-0.3090806"><ele>386.0</ele><time>2026-04-19T17:43:56.999Z</time></trkpt><trkpt lat="39.8784864" lon="-0.3091916"><ele>386.00000000000006</ele><time>2026-04-19T17:43:58Z</time></trkpt><trkpt lat="39.8784574" lon="-0.3092934"><ele>386.0</ele><time>2026-04-19T17:43:59Z</time></trkpt><trkpt lat="39.878452" lon="-0.3093918"><ele>386.0</ele><time>2026-04-19T17:44:00Z</time></trkpt><trkpt lat="39.8784713" lon="-0.3094831"><ele>386.0</ele><time>2026-04-19T17:44:01Z</time></trkpt><trkpt lat="39.8785177" lon="-0.3095444"><ele>386.0</ele><time>2026-04-19T17:44:01.999Z</time></trkpt><trkpt lat="39.8785804" lon="-0.3095889"><ele>386.00000000000006</ele><time>2026-04-19T17:44:02.999Z</time></trkpt><trkpt lat="39.8786547" lon="-0.3096216"><ele>386.0</ele><time>2026-04-19T17:44:04Z</time></trkpt><trkpt lat="39.8787434" lon="-0.3096288"><ele>386.0</ele><time>2026-04-19T17:44:05Z</time></trkpt><trkpt lat="39.8788426" lon="-0.309597"><ele>386.0</ele><time>2026-04-19T17:44:05.999Z</time></trkpt><trkpt lat="39.8789403" lon="-0.3095386"><ele>386.0</ele><time>2026-04-19T17:44:07Z</time></trkpt><trkpt lat="39.8790326" lon="-0.3094731"><ele>386.0</ele><time>2026-04-19T17:44:07.998Z</time></trkpt><trkpt lat="39.8791235" lon="-0.3094105"><ele>386.0</ele><time>2026-04-19T17:44:08.999Z</time></trkpt><trkpt lat="39.8792118" lon="-0.3093596"><ele>383.8</ele><time>2026-04-19T17:44:09.999Z</time></trkpt><trkpt lat="39.879292" lon="-0.3093208"><ele>381.6</ele><time>2026-04-19T17:44:10.999Z</time></trkpt><trkpt lat="39.8793832" lon="-0.3093104"><ele>379.4</ele><time>2026-04-19T17:44:11.999Z</time></trkpt><trkpt lat="39.879485" lon="-0.3093231"><ele>377.2</ele><time>2026-04-19T17:44:12.999Z</time></trkpt><trkpt lat="39.8795851" lon="-0.3093641"><ele>375.0</ele><time>2026-04-19T17:44:13.999Z</time></trkpt><trkpt lat="39.8796886" lon="-0.309414"><ele>375.0</ele><time>2026-04-19T17:44:14.999Z</time></trkpt><trkpt lat="39.8797982" lon="-0.3094567"><ele>375.0</ele><time>2026-04-19T17:44:16Z</time></trkpt><trkpt lat="39.8799096" lon="-0.309487"><ele>375.0</ele><time>2026-04-19T17:44:16.999Z</time></trkpt><trkpt lat="39.8800203" lon="-0.3095116"><ele>375.0</ele><time>2026-04-19T17:44:17.999Z</time></trkpt><trkpt lat="39.8801412" lon="-0.3095361"><ele>375.0</ele><time>2026-04-19T17:44:19Z</time></trkpt><trkpt lat="39.880262" lon="-0.3095598"><ele>375.0</ele><time>2026-04-19T17:44:19.999Z</time></trkpt><trkpt lat="39.8803726" lon="-0.3095896"><ele>375.0</ele><time>2026-04-19T17:44:21Z</time></trkpt><trkpt lat="39.8804757" lon="-0.309628"><ele>375.0</ele><time>2026-04-19T17:44:21.999Z</time></trkpt><trkpt lat="39.8805668" lon="-0.3096833"><ele>375.0</ele><time>2026-04-19T17:44:22.999Z</time></trkpt><trkpt lat="39.8806541" lon="-0.3097631"><ele>375.0</ele><time>2026-04-19T17:44:23.999Z</time></trkpt><trkpt lat="39.8807378" lon="-0.3098527"><ele>375.0</ele><time>2026-04-19T17:44:24.999Z</time></trkpt><trkpt lat="39.8808164" lon="-0.3099505"><ele>375.0</ele><time>2026-04-19T17:44:26Z</time></trkpt><trkpt lat="39.8808812" lon="-0.3100514"><ele>375.0</ele><time>2026-04-19T17:44:27Z</time></trkpt><trkpt lat="39.8809316" lon="-0.3101577"><ele>375.0</ele><time>2026-04-19T17:44:27.999Z</time></trkpt><trkpt lat="39.8809617" lon="-0.3102689"><ele>375.6666666666667</ele><time>2026-04-19T17:44:28.999Z</time></trkpt><trkpt lat="39.8809863" lon="-0.310376"><ele>376.3333333333333</ele><time>2026-04-19T17:44:30Z</time></trkpt><trkpt lat="39.8810107" lon="-0.3104766"><ele>377.0</ele><time>2026-04-19T17:44:30.999Z</time></trkpt><trkpt lat="39.8810554" lon="-0.3105559"><ele>377.66666666666663</ele><time>2026-04-19T17:44:31.999Z</time></trkpt><trkpt lat="39.8811237" lon="-0.3106082"><ele>378.3333333333333</ele><time>2026-04-19T17:44:33Z</time></trkpt><trkpt lat="39.8812126" lon="-0.3106251"><ele>379.0</ele><time>2026-04-19T17:44:33.999Z</time></trkpt><trkpt lat="39.8812972" lon="-0.3106195"><ele>379.0</ele><time>2026-04-19T17:44:34.999Z</time></trkpt><trkpt lat="39.8813766" lon="-0.3106135"><ele>379.0</ele><time>2026-04-19T17:44:36Z</time></trkpt><trkpt lat="39.8814504" lon="-0.3105998"><ele>379.0</ele><time>2026-04-19T17:44:36.999Z</time></trkpt><trkpt lat="39.881548" lon="-0.3105319"><ele>379.0</ele><time>2026-04-19T17:44:38.999Z</time></trkpt><trkpt lat="39.8815558" lon="-0.3104043"><ele>379.0</ele><time>2026-04-19T17:44:40.999Z</time></trkpt><trkpt lat="39.8814532" lon="-0.31031"><ele>375.8333333333333</ele><time>2026-04-19T17:44:42.999Z</time></trkpt><trkpt lat="39.8813869" lon="-0.3102754"><ele>372.66666666666663</ele><time>2026-04-19T17:44:43.999Z</time></trkpt><trkpt lat="39.881319" lon="-0.3102336"><ele>369.5</ele><time>2026-04-19T17:44:44.999Z</time></trkpt><trkpt lat="39.8812512" lon="-0.3101782"><ele>366.3333333333333</ele><time>2026-04-19T17:44:45.999Z</time></trkpt><trkpt lat="39.8811944" lon="-0.3101027"><ele>363.1666666666667</ele><time>2026-04-19T17:44:46.999Z</time></trkpt><trkpt lat="39.8811475" lon="-0.3099969"><ele>360.0</ele><time>2026-04-19T17:44:47.999Z</time></trkpt><trkpt lat="39.8811061" lon="-0.3098809"><ele>360.0</ele><time>2026-04-19T17:44:48.999Z</time></trkpt><trkpt lat="39.8810682" lon="-0.3097647"><ele>360.0</ele><time>2026-04-19T17:44:49.999Z</time></trkpt><trkpt lat="39.8810372" lon="-0.3096546"><ele>360.0</ele><time>2026-04-19T17:44:50.999Z</time></trkpt><trkpt lat="39.881013" lon="-0.3095512"><ele>360.0</ele><time>2026-04-19T17:44:51.999Z</time></trkpt><trkpt lat="39.8809957" lon="-0.3094572"><ele>360.0</ele><time>2026-04-19T17:44:52.999Z</time></trkpt><trkpt lat="39.8809826" lon="-0.3093659"><ele>360.0</ele><time>2026-04-19T17:44:53.999Z</time></trkpt><trkpt lat="39.8809711" lon="-0.3092716"><ele>359.5</ele><time>2026-04-19T17:44:54.999Z</time></trkpt><trkpt lat="39.8809562" lon="-0.3091846"><ele>359.0</ele><time>2026-04-19T17:44:55.999Z</time></trkpt><trkpt lat="39.8809124" lon="-0.3090383"><ele>358.5</ele><time>2026-04-19T17:44:57.999Z</time></trkpt><trkpt lat="39.8808824" lon="-0.3089638"><ele>358.0</ele><time>2026-04-19T17:44:58.999Z</time></trkpt><trkpt lat="39.8808473" lon="-0.3088753"><ele>357.5</ele><time>2026-04-19T17:44:59.999Z</time></trkpt><trkpt lat="39.8808054" lon="-0.3087876"><ele>357.0</ele><time>2026-04-19T17:45:00.999Z</time></trkpt><trkpt lat="39.8807588" lon="-0.3086977"><ele>357.0</ele><time>2026-04-19T17:45:01.999Z</time></trkpt><trkpt lat="39.8807058" lon="-0.3086032"><ele>357.0</ele><time>2026-04-19T17:45:02.999Z</time></trkpt><trkpt lat="39.880659" lon="-0.3085195"><ele>357.0</ele><time>2026-04-19T17:45:03.999Z</time></trkpt><trkpt lat="39.8806155" lon="-0.3084378"><ele>357.0</ele><time>2026-04-19T17:45:05Z</time></trkpt><trkpt lat="39.8805755" lon="-0.3083667"><ele>357.0</ele><time>2026-04-19T17:45:06Z</time></trkpt><trkpt lat="39.8805399" lon="-0.3082982"><ele>357.0</ele><time>2026-04-19T17:45:06.999Z</time></trkpt><trkpt lat="39.8804971" lon="-0.3081561"><ele>356.1666666666667</ele><time>2026-04-19T17:45:08.999Z</time></trkpt><trkpt lat="39.8804954" lon="-0.3080696"><ele>355.3333333333333</ele><time>2026-04-19T17:45:09.998Z</time></trkpt><trkpt lat="39.8805141" lon="-0.3079824"><ele>354.5</ele><time>2026-04-19T17:45:11Z</time></trkpt><trkpt lat="39.8805667" lon="-0.3078962"><ele>353.66666666666663</ele><time>2026-04-19T17:45:11.999Z</time></trkpt><trkpt lat="39.8806224" lon="-0.3078325"><ele>352.8333333333333</ele><time>2026-04-19T17:45:12.999Z</time></trkpt><trkpt lat="39.8806945" lon="-0.3077951"><ele>352.0</ele><time>2026-04-19T17:45:13.999Z</time></trkpt><trkpt lat="39.8807766" lon="-0.3077627"><ele>352.0</ele><time>2026-04-19T17:45:14.999Z</time></trkpt><trkpt lat="39.8808661" lon="-0.3077392"><ele>352.0</ele><time>2026-04-19T17:45:15.999Z</time></trkpt><trkpt lat="39.8809544" lon="-0.3077335"><ele>352.0</ele><time>2026-04-19T17:45:16.999Z</time></trkpt><trkpt lat="39.8810365" lon="-0.3077373"><ele>352.0</ele><time>2026-04-19T17:45:17.999Z</time></trkpt><trkpt lat="39.8811126" lon="-0.3077416"><ele>352.0</ele><time>2026-04-19T17:45:18.999Z</time></trkpt><trkpt lat="39.8811818" lon="-0.3077459"><ele>352.0</ele><time>2026-04-19T17:45:19.999Z</time></trkpt><trkpt lat="39.8812948" lon="-0.3077275"><ele>351.0</ele><time>2026-04-19T17:45:22Z</time></trkpt><trkpt lat="39.8813487" lon="-0.3076753"><ele>350.0</ele><time>2026-04-19T17:45:23.999Z</time></trkpt><trkpt lat="39.8814103" lon="-0.3075961"><ele>349.0</ele><time>2026-04-19T17:45:26.999Z</time></trkpt><trkpt lat="39.8814979" lon="-0.3076202"><ele>348.0</ele><time>2026-04-19T17:45:28.999Z</time></trkpt><trkpt lat="39.881582" lon="-0.3077548"><ele>347.0</ele><time>2026-04-19T17:45:31Z</time></trkpt><trkpt lat="39.8816334" lon="-0.3078388"><ele>347.0</ele><time>2026-04-19T17:45:32Z</time></trkpt><trkpt lat="39.8816849" lon="-0.3079242"><ele>347.0</ele><time>2026-04-19T17:45:32.999Z</time></trkpt><trkpt lat="39.8817464" lon="-0.3080209"><ele>347.0</ele><time>2026-04-19T17:45:33.999Z</time></trkpt><trkpt lat="39.8818076" lon="-0.3081204"><ele>347.0</ele><time>2026-04-19T17:45:34.999Z</time></trkpt><trkpt lat="39.8818755" lon="-0.3082249"><ele>347.0</ele><time>2026-04-19T17:45:35.999Z</time></trkpt><trkpt lat="39.8819441" lon="-0.3083298"><ele>346.20000000000005</ele><time>2026-04-19T17:45:36.999Z</time></trkpt><trkpt lat="39.8820037" lon="-0.3084251"><ele>345.4</ele><time>2026-04-19T17:45:37.999Z</time></trkpt><trkpt lat="39.8820679" lon="-0.3085253"><ele>344.6</ele><time>2026-04-19T17:45:38.999Z</time></trkpt><trkpt lat="39.8821278" lon="-0.3086332"><ele>343.79999999999995</ele><time>2026-04-19T17:45:39.999Z</time></trkpt><trkpt lat="39.8821897" lon="-0.308747"><ele>343.0</ele><time>2026-04-19T17:45:40.999Z</time></trkpt><trkpt lat="39.8822508" lon="-0.3088656"><ele>344.5</ele><time>2026-04-19T17:45:42Z</time></trkpt><trkpt lat="39.8823066" lon="-0.3089921"><ele>346.0</ele><time>2026-04-19T17:45:42.999Z</time></trkpt><trkpt lat="39.8823536" lon="-0.3091274"><ele>347.5</ele><time>2026-04-19T17:45:43.999Z</time></trkpt><trkpt lat="39.8823982" lon="-0.3092653"><ele>349.0</ele><time>2026-04-19T17:45:44.999Z</time></trkpt><trkpt lat="39.8824511" lon="-0.309404"><ele>349.0</ele><time>2026-04-19T17:45:45.999Z</time></trkpt><trkpt lat="39.8825131" lon="-0.3095355"><ele>349.0</ele><time>2026-04-19T17:45:46.999Z</time></trkpt><trkpt lat="39.8825676" lon="-0.3096712"><ele>349.0</ele><time>2026-04-19T17:45:47.999Z</time></trkpt><trkpt lat="39.8826158" lon="-0.3098102"><ele>349.0</ele><time>2026-04-19T17:45:49Z</time></trkpt><trkpt lat="39.882664" lon="-0.3099447"><ele>347.25</ele><time>2026-04-19T17:45:49.999Z</time></trkpt><trkpt lat="39.8827118" lon="-0.3100796"><ele>345.5</ele><time>2026-04-19T17:45:50.999Z</time></trkpt><trkpt lat="39.8827609" lon="-0.3102175"><ele>343.75</ele><time>2026-04-19T17:45:51.999Z</time></trkpt><trkpt lat="39.8828086" lon="-0.3103566"><ele>342.0</ele><time>2026-04-19T17:45:53Z</time></trkpt><trkpt lat="39.8828598" lon="-0.3105002"><ele>343.0</ele><time>2026-04-19T17:45:53.999Z</time></trkpt><trkpt lat="39.8829111" lon="-0.3106437"><ele>344.0</ele><time>2026-04-19T17:45:54.999Z</time></trkpt><trkpt lat="39.8829642" lon="-0.3108007"><ele>345.0</ele><time>2026-04-19T17:45:55.999Z</time></trkpt><trkpt lat="39.8830177" lon="-0.3109563"><ele>346.0</ele><time>2026-04-19T17:45:57Z</time></trkpt><trkpt lat="39.8830736" lon="-0.3111179"><ele>346.0</ele><time>2026-04-19T17:45:57.999Z</time></trkpt><trkpt lat="39.8831335" lon="-0.3112845"><ele>346.0</ele><time>2026-04-19T17:45:58.999Z</time></trkpt><trkpt lat="39.8831928" lon="-0.311456"><ele>346.0</ele><time>2026-04-19T17:45:59.999Z</time></trkpt><trkpt lat="39.8832483" lon="-0.3116166"><ele>346.0</ele><time>2026-04-19T17:46:00.999Z</time></trkpt><trkpt lat="39.8833037" lon="-0.3117694"><ele>347.5</ele><time>2026-04-19T17:46:01.999Z</time></trkpt><trkpt lat="39.8833659" lon="-0.3119151"><ele>349.0</ele><time>2026-04-19T17:46:02.999Z</time></trkpt><trkpt lat="39.8834373" lon="-0.3120374"><ele>350.5</ele><time>2026-04-19T17:46:04Z</time></trkpt><trkpt lat="39.8835293" lon="-0.3121284"><ele>352.0</ele><time>2026-04-19T17:46:04.999Z</time></trkpt><trkpt lat="39.8836412" lon="-0.3121854"><ele>352.5</ele><time>2026-04-19T17:46:05.999Z</time></trkpt><trkpt lat="39.8837746" lon="-0.3122246"><ele>353.0</ele><time>2026-04-19T17:46:06.999Z</time></trkpt><trkpt lat="39.8839183" lon="-0.3122569"><ele>353.5</ele><time>2026-04-19T17:46:07.999Z</time></trkpt><trkpt lat="39.8840682" lon="-0.3122881"><ele>354.0</ele><time>2026-04-19T17:46:08.999Z</time></trkpt><trkpt lat="39.8842188" lon="-0.3123202"><ele>356.3333333333333</ele><time>2026-04-19T17:46:09.999Z</time></trkpt><trkpt lat="39.8843726" lon="-0.3123561"><ele>358.66666666666663</ele><time>2026-04-19T17:46:10.999Z</time></trkpt><trkpt lat="39.884523" lon="-0.3123915"><ele>361.0</ele><time>2026-04-19T17:46:11.999Z</time></trkpt><trkpt lat="39.8846804" lon="-0.3124273"><ele>361.0</ele><time>2026-04-19T17:46:12.999Z</time></trkpt><trkpt lat="39.8848367" lon="-0.3124641"><ele>361.0</ele><time>2026-04-19T17:46:13.999Z</time></trkpt><trkpt lat="39.8849978" lon="-0.3125056"><ele>361.0</ele><time>2026-04-19T17:46:14.999Z</time></trkpt><trkpt lat="39.8851606" lon="-0.3125537"><ele>365.3333333333333</ele><time>2026-04-19T17:46:15.999Z</time></trkpt><trkpt lat="39.8853221" lon="-0.3126207"><ele>369.6666666666667</ele><time>2026-04-19T17:46:16.999Z</time></trkpt><trkpt lat="39.8854778" lon="-0.3127179"><ele>374.0</ele><time>2026-04-19T17:46:17.999Z</time></trkpt><trkpt lat="39.8856218" lon="-0.3128407"><ele>374.0</ele><time>2026-04-19T17:46:18.999Z</time></trkpt><trkpt lat="39.885757" lon="-0.3129789"><ele>374.0</ele><time>2026-04-19T17:46:19.999Z</time></trkpt><trkpt lat="39.8858888" lon="-0.3131179"><ele>374.0</ele><time>2026-04-19T17:46:20.999Z</time></trkpt><trkpt lat="39.8860211" lon="-0.3132588"><ele>378.0</ele><time>2026-04-19T17:46:21.999Z</time></trkpt><trkpt lat="39.8861506" lon="-0.3133958"><ele>382.0</ele><time>2026-04-19T17:46:23Z</time></trkpt><trkpt lat="39.8862817" lon="-0.3135346"><ele>386.0</ele><time>2026-04-19T17:46:23.999Z</time></trkpt><trkpt lat="39.8864103" lon="-0.3136647"><ele>386.0</ele><time>2026-04-19T17:46:24.999Z</time></trkpt><trkpt lat="39.8865298" lon="-0.3137849"><ele>386.0</ele><time>2026-04-19T17:46:25.999Z</time></trkpt><trkpt lat="39.8866423" lon="-0.3138922"><ele>386.0</ele><time>2026-04-19T17:46:26.999Z</time></trkpt><trkpt lat="39.8867582" lon="-0.3139888"><ele>386.0</ele><time>2026-04-19T17:46:27.999Z</time></trkpt><trkpt lat="39.8868843" lon="-0.3140649"><ele>381.0</ele><time>2026-04-19T17:46:28.999Z</time></trkpt><trkpt lat="39.8870238" lon="-0.3141147"><ele>376.0</ele><time>2026-04-19T17:46:29.999Z</time></trkpt><trkpt lat="39.8871697" lon="-0.31413"><ele>371.0</ele><time>2026-04-19T17:46:30.999Z</time></trkpt><trkpt lat="39.8873209" lon="-0.3141259"><ele>366.0</ele><time>2026-04-19T17:46:31.999Z</time></trkpt><trkpt lat="39.8874797" lon="-0.3141084"><ele>368.75</ele><time>2026-04-19T17:46:32.999Z</time></trkpt><trkpt lat="39.8876373" lon="-0.3140944"><ele>371.5</ele><time>2026-04-19T17:46:33.999Z</time></trkpt><trkpt lat="39.8877775" lon="-0.3140858"><ele>374.25</ele><time>2026-04-19T17:46:35Z</time></trkpt><trkpt lat="39.8879169" lon="-0.3140983"><ele>377.0</ele><time>2026-04-19T17:46:36Z</time></trkpt><trkpt lat="39.888051" lon="-0.3141559"><ele>377.0</ele><time>2026-04-19T17:46:37Z</time></trkpt><trkpt lat="39.8881821" lon="-0.3142422"><ele>377.0</ele><time>2026-04-19T17:46:38Z</time></trkpt><trkpt lat="39.8883046" lon="-0.3143599"><ele>377.0</ele><time>2026-04-19T17:46:38.999Z</time></trkpt><trkpt lat="39.888426" lon="-0.3144913"><ele>378.33333333333337</ele><time>2026-04-19T17:46:39.999Z</time></trkpt><trkpt lat="39.8885476" lon="-0.314626"><ele>379.6666666666667</ele><time>2026-04-19T17:46:40.999Z</time></trkpt><trkpt lat="39.8886799" lon="-0.3147683"><ele>381.0</ele><time>2026-04-19T17:46:41.999Z</time></trkpt><trkpt lat="39.888807" lon="-0.3149142"><ele>381.0</ele><time>2026-04-19T17:46:43Z</time></trkpt><trkpt lat="39.8889384" lon="-0.3150598"><ele>381.0</ele><time>2026-04-19T17:46:43.999Z</time></trkpt><trkpt lat="39.8890727" lon="-0.3152077"><ele>381.0</ele><time>2026-04-19T17:46:44.999Z</time></trkpt><trkpt lat="39.8892067" lon="-0.315358"><ele>384.0</ele><time>2026-04-19T17:46:45.999Z</time></trkpt><trkpt lat="39.88934" lon="-0.3155103"><ele>387.0</ele><time>2026-04-19T17:46:46.999Z</time></trkpt><trkpt lat="39.8894746" lon="-0.3156601"><ele>390.0</ele><time>2026-04-19T17:46:47.999Z</time></trkpt><trkpt lat="39.889609" lon="-0.3158044"><ele>390.0</ele><time>2026-04-19T17:46:48.999Z</time></trkpt><trkpt lat="39.889743" lon="-0.3159463"><ele>390.0</ele><time>2026-04-19T17:46:50Z</time></trkpt><trkpt lat="39.8898827" lon="-0.3160739"><ele>390.0</ele><time>2026-04-19T17:46:50.999Z</time></trkpt><trkpt lat="39.8900272" lon="-0.3161766"><ele>397.66666666666663</ele><time>2026-04-19T17:46:51.999Z</time></trkpt><trkpt lat="39.8901817" lon="-0.3162567"><ele>405.3333333333333</ele><time>2026-04-19T17:46:52.999Z</time></trkpt><trkpt lat="39.890337" lon="-0.316323"><ele>413.0</ele><time>2026-04-19T17:46:53.999Z</time></trkpt><trkpt lat="39.890496" lon="-0.3163854"><ele>404.66666666666663</ele><time>2026-04-19T17:46:54.999Z</time></trkpt><trkpt lat="39.8906569" lon="-0.316449"><ele>396.33333333333337</ele><time>2026-04-19T17:46:55.999Z</time></trkpt><trkpt lat="39.8908147" lon="-0.3165062"><ele>388.0</ele><time>2026-04-19T17:46:56.999Z</time></trkpt><trkpt lat="39.8909743" lon="-0.3165573"><ele>388.0</ele><time>2026-04-19T17:46:57.999Z</time></trkpt><trkpt lat="39.8911311" lon="-0.3166079"><ele>388.0</ele><time>2026-04-19T17:46:58.999Z</time></trkpt><trkpt lat="39.8912936" lon="-0.3166675"><ele>388.0</ele><time>2026-04-19T17:47:00Z</time></trkpt><trkpt lat="39.89146" lon="-0.3167284"><ele>388.0</ele><time>2026-04-19T17:47:00.999Z</time></trkpt><trkpt lat="39.8916234" lon="-0.3167968"><ele>388.0</ele><time>2026-04-19T17:47:01.999Z</time></trkpt><trkpt lat="39.8917844" lon="-0.3168749"><ele>388.0</ele><time>2026-04-19T17:47:03Z</time></trkpt><trkpt lat="39.8919407" lon="-0.3169659"><ele>388.6666666666667</ele><time>2026-04-19T17:47:03.999Z</time></trkpt><trkpt lat="39.892096" lon="-0.3170603"><ele>389.33333333333337</ele><time>2026-04-19T17:47:04.999Z</time></trkpt><trkpt lat="39.892244" lon="-0.3171705"><ele>390.0</ele><time>2026-04-19T17:47:05.999Z</time></trkpt><trkpt lat="39.8923856" lon="-0.3173022"><ele>387.6666666666667</ele><time>2026-04-19T17:47:06.999Z</time></trkpt><trkpt lat="39.8925186" lon="-0.3174377"><ele>385.33333333333337</ele><time>2026-04-19T17:47:07.999Z</time></trkpt><trkpt lat="39.8926491" lon="-0.3175795"><ele>383.0</ele><time>2026-04-19T17:47:08.999Z</time></trkpt><trkpt lat="39.8927801" lon="-0.3177193"><ele>384.6666666666667</ele><time>2026-04-19T17:47:09.999Z</time></trkpt><trkpt lat="39.8929136" lon="-0.3178605"><ele>386.33333333333337</ele><time>2026-04-19T17:47:10.999Z</time></trkpt><trkpt lat="39.8930469" lon="-0.3180113"><ele>388.0</ele><time>2026-04-19T17:47:11.999Z</time></trkpt><trkpt lat="39.8931708" lon="-0.3181864"><ele>388.0</ele><time>2026-04-19T17:47:13Z</time></trkpt><trkpt lat="39.8932778" lon="-0.3183873"><ele>388.0</ele><time>2026-04-19T17:47:13.999Z</time></trkpt><trkpt lat="39.8933663" lon="-0.3186172"><ele>388.0</ele><time>2026-04-19T17:47:14.999Z</time></trkpt><trkpt lat="39.8934304" lon="-0.3188689"><ele>396.0</ele><time>2026-04-19T17:47:16Z</time></trkpt><trkpt lat="39.8934862" lon="-0.3191254"><ele>404.0</ele><time>2026-04-19T17:47:16.999Z</time></trkpt><trkpt lat="39.893544" lon="-0.3193835"><ele>412.0</ele><time>2026-04-19T17:47:17.999Z</time></trkpt><trkpt lat="39.8936044" lon="-0.3196459"><ele>409.33333333333337</ele><time>2026-04-19T17:47:18.999Z</time></trkpt><trkpt lat="39.8936633" lon="-0.3199088"><ele>406.66666666666663</ele><time>2026-04-19T17:47:19.999Z</time></trkpt><trkpt lat="39.8937137" lon="-0.3201604"><ele>404.0</ele><time>2026-04-19T17:47:20.999Z</time></trkpt><trkpt lat="39.8937619" lon="-0.3203959"><ele>403.66666666666663</ele><time>2026-04-19T17:47:21.999Z</time></trkpt><trkpt lat="39.8938073" lon="-0.320624"><ele>403.33333333333337</ele><time>2026-04-19T17:47:22.999Z</time></trkpt><trkpt lat="39.8938493" lon="-0.3208497"><ele>403.0</ele><time>2026-04-19T17:47:24Z</time></trkpt><trkpt lat="39.8938998" lon="-0.3210694"><ele>403.0</ele><time>2026-04-19T17:47:24.999Z</time></trkpt><trkpt lat="39.8939585" lon="-0.3212622"><ele>403.0</ele><time>2026-04-19T17:47:26Z</time></trkpt><trkpt lat="39.8940312" lon="-0.3214375"><ele>403.0</ele><time>2026-04-19T17:47:26.999Z</time></trkpt><trkpt lat="39.8941292" lon="-0.3215961"><ele>402.33333333333337</ele><time>2026-04-19T17:47:27.999Z</time></trkpt><trkpt lat="39.8942483" lon="-0.3217381"><ele>401.66666666666663</ele><time>2026-04-19T17:47:28.999Z</time></trkpt><trkpt lat="39.8943778" lon="-0.3218504"><ele>401.0</ele><time>2026-04-19T17:47:29.999Z</time></trkpt><trkpt lat="39.8945316" lon="-0.3219337"><ele>405.66666666666663</ele><time>2026-04-19T17:47:30.999Z</time></trkpt><trkpt lat="39.8946928" lon="-0.3219997"><ele>410.33333333333337</ele><time>2026-04-19T17:47:31.999Z</time></trkpt><trkpt lat="39.8948389" lon="-0.3220631"><ele>415.0</ele><time>2026-04-19T17:47:32.999Z</time></trkpt><trkpt lat="39.8949655" lon="-0.3221278"><ele>415.0</ele><time>2026-04-19T17:47:33.999Z</time></trkpt><trkpt lat="39.8950717" lon="-0.3222131"><ele>415.0</ele><time>2026-04-19T17:47:34.999Z</time></trkpt><trkpt lat="39.895154" lon="-0.3223397"><ele>415.0</ele><time>2026-04-19T17:47:36Z</time></trkpt><trkpt lat="39.8952168" lon="-0.3224935"><ele>415.0</ele><time>2026-04-19T17:47:36.999Z</time></trkpt><trkpt lat="39.8952672" lon="-0.3226606"><ele>414.6666666666667</ele><time>2026-04-19T17:47:38Z</time></trkpt><trkpt lat="39.8953182" lon="-0.3228428"><ele>414.33333333333337</ele><time>2026-04-19T17:47:39Z</time></trkpt><trkpt lat="39.8953656" lon="-0.3230298"><ele>414.0</ele><time>2026-04-19T17:47:39.999Z</time></trkpt><trkpt lat="39.8954179" lon="-0.3232216"><ele>414.0</ele><time>2026-04-19T17:47:40.999Z</time></trkpt><trkpt lat="39.8954681" lon="-0.3234133"><ele>414.0</ele><time>2026-04-19T17:47:41.999Z</time></trkpt><trkpt lat="39.8955178" lon="-0.3236086"><ele>414.0</ele><time>2026-04-19T17:47:43Z</time></trkpt><trkpt lat="39.8955659" lon="-0.3238031"><ele>414.0</ele><time>2026-04-19T17:47:44Z</time></trkpt><trkpt lat="39.8956088" lon="-0.3239771"><ele>414.0</ele><time>2026-04-19T17:47:45Z</time></trkpt><trkpt lat="39.8956489" lon="-0.3241369"><ele>414.0</ele><time>2026-04-19T17:47:46Z</time></trkpt><trkpt lat="39.895697" lon="-0.3242772"><ele>414.0</ele><time>2026-04-19T17:47:46.999Z</time></trkpt><trkpt lat="39.8957559" lon="-0.3243988"><ele>414.0</ele><time>2026-04-19T17:47:47.999Z</time></trkpt><trkpt lat="39.8958526" lon="-0.3244685"><ele>414.0</ele><time>2026-04-19T17:47:48.999Z</time></trkpt><trkpt lat="39.8959579" lon="-0.3245118"><ele>414.0</ele><time>2026-04-19T17:47:50Z</time></trkpt><trkpt lat="39.8960719" lon="-0.3245187"><ele>414.0</ele><time>2026-04-19T17:47:50.999Z</time></trkpt><trkpt lat="39.8961842" lon="-0.3244814"><ele>417.5</ele><time>2026-04-19T17:47:51.999Z</time></trkpt><trkpt lat="39.8962915" lon="-0.3244021"><ele>421.0</ele><time>2026-04-19T17:47:52.999Z</time></trkpt><trkpt lat="39.8963951" lon="-0.3243113"><ele>424.5</ele><time>2026-04-19T17:47:54Z</time></trkpt><trkpt lat="39.896507" lon="-0.3242309"><ele>428.0</ele><time>2026-04-19T17:47:54.999Z</time></trkpt><trkpt lat="39.8966309" lon="-0.3241826"><ele>430.75</ele><time>2026-04-19T17:47:55.999Z</time></trkpt><trkpt lat="39.8967564" lon="-0.3241825"><ele>433.5</ele><time>2026-04-19T17:47:56.999Z</time></trkpt><trkpt lat="39.8968864" lon="-0.3242247"><ele>436.25</ele><time>2026-04-19T17:47:57.999Z</time></trkpt><trkpt lat="39.8970072" lon="-0.3243044"><ele>439.0</ele><time>2026-04-19T17:47:59Z</time></trkpt><trkpt lat="39.8971287" lon="-0.3244029"><ele>439.0</ele><time>2026-04-19T17:47:59.999Z</time></trkpt><trkpt lat="39.8972477" lon="-0.3245078"><ele>439.0</ele><time>2026-04-19T17:48:00.999Z</time></trkpt><trkpt lat="39.8973651" lon="-0.3246205"><ele>439.0</ele><time>2026-04-19T17:48:01.999Z</time></trkpt><trkpt lat="39.8974789" lon="-0.3247484"><ele>439.0</ele><time>2026-04-19T17:48:03Z</time></trkpt><trkpt lat="39.8975849" lon="-0.3248925"><ele>450.0</ele><time>2026-04-19T17:48:04Z</time></trkpt><trkpt lat="39.8976822" lon="-0.325055"><ele>461.0</ele><time>2026-04-19T17:48:05Z</time></trkpt><trkpt lat="39.8977672" lon="-0.3252383"><ele>472.0</ele><time>2026-04-19T17:48:06Z</time></trkpt><trkpt lat="39.8978311" lon="-0.3254381"><ele>467.6666666666667</ele><time>2026-04-19T17:48:07Z</time></trkpt><trkpt lat="39.8978826" lon="-0.3256478"><ele>463.33333333333337</ele><time>2026-04-19T17:48:08Z</time></trkpt><trkpt lat="39.8979134" lon="-0.3258536"><ele>459.0</ele><time>2026-04-19T17:48:08.999Z</time></trkpt><trkpt lat="39.8979174" lon="-0.3260568"><ele>459.0</ele><time>2026-04-19T17:48:09.999Z</time></trkpt><trkpt lat="39.8978894" lon="-0.3262539"><ele>459.0</ele><time>2026-04-19T17:48:10.999Z</time></trkpt><trkpt lat="39.8978466" lon="-0.3264271"><ele>459.0</ele><time>2026-04-19T17:48:11.999Z</time></trkpt><trkpt lat="39.8978111" lon="-0.3265868"><ele>459.0</ele><time>2026-04-19T17:48:12.999Z</time></trkpt><trkpt lat="39.8977975" lon="-0.3267339"><ele>456.79999999999995</ele><time>2026-04-19T17:48:14Z</time></trkpt><trkpt lat="39.8978129" lon="-0.3268737"><ele>454.59999999999997</ele><time>2026-04-19T17:48:14.999Z</time></trkpt><trkpt lat="39.8978527" lon="-0.3269978"><ele>452.4</ele><time>2026-04-19T17:48:16Z</time></trkpt><trkpt lat="39.8979438" lon="-0.3270594"><ele>450.2</ele><time>2026-04-19T17:48:17Z</time></trkpt><trkpt lat="39.8980241" lon="-0.3270814"><ele>448.0</ele><time>2026-04-19T17:48:17.999Z</time></trkpt><trkpt lat="39.8981143" lon="-0.3270631"><ele>448.0</ele><time>2026-04-19T17:48:18.999Z</time></trkpt><trkpt lat="39.8982141" lon="-0.3270003"><ele>448.0</ele><time>2026-04-19T17:48:19.999Z</time></trkpt><trkpt lat="39.8983125" lon="-0.3269104"><ele>448.0</ele><time>2026-04-19T17:48:20.999Z</time></trkpt><trkpt lat="39.8984043" lon="-0.3268171"><ele>448.0</ele><time>2026-04-19T17:48:21.999Z</time></trkpt><trkpt lat="39.8984932" lon="-0.3267243"><ele>450.75</ele><time>2026-04-19T17:48:22.999Z</time></trkpt><trkpt lat="39.8985837" lon="-0.3266261"><ele>453.5</ele><time>2026-04-19T17:48:24Z</time></trkpt><trkpt lat="39.8986693" lon="-0.3265308"><ele>456.25</ele><time>2026-04-19T17:48:24.999Z</time></trkpt><trkpt lat="39.898754" lon="-0.326438"><ele>459.0</ele><time>2026-04-19T17:48:25.999Z</time></trkpt><trkpt lat="39.8983199" lon="-0.3262085"><ele>459.0</ele><time>2026-04-19T17:48:34.999Z</time></trkpt><trkpt lat="39.8982829" lon="-0.3263326"><ele>459.0</ele><time>2026-04-19T17:48:35.999Z</time></trkpt><trkpt lat="39.898265" lon="-0.3264448"><ele>459.0</ele><time>2026-04-19T17:48:37Z</time></trkpt><trkpt lat="39.8983271" lon="-0.3265394"><ele>459.0</ele><time>2026-04-19T17:48:37.999Z</time></trkpt><trkpt lat="39.8984139" lon="-0.3266057"><ele>459.0</ele><time>2026-04-19T17:48:39Z</time></trkpt><trkpt lat="39.8985131" lon="-0.3266322"><ele>461.0</ele><time>2026-04-19T17:48:40Z</time></trkpt><trkpt lat="39.8986203" lon="-0.3266325"><ele>463.0</ele><time>2026-04-19T17:48:40.999Z</time></trkpt><trkpt lat="39.8987387" lon="-0.32662"><ele>465.0</ele><time>2026-04-19T17:48:41.999Z</time></trkpt><trkpt lat="39.8988616" lon="-0.32661"><ele>467.0</ele><time>2026-04-19T17:48:43Z</time></trkpt><trkpt lat="39.8989872" lon="-0.3265984"><ele>467.0</ele><time>2026-04-19T17:48:44Z</time></trkpt><trkpt lat="39.8991139" lon="-0.326597"><ele>467.0</ele><time>2026-04-19T17:48:44.999Z</time></trkpt><trkpt lat="39.8992361" lon="-0.3266222"><ele>467.0</ele><time>2026-04-19T17:48:45.999Z</time></trkpt><trkpt lat="39.8993528" lon="-0.3266808"><ele>467.0</ele><time>2026-04-19T17:48:46.999Z</time></trkpt><trkpt lat="39.8994509" lon="-0.3267672"><ele>472.5</ele><time>2026-04-19T17:48:47.999Z</time></trkpt><trkpt lat="39.8995381" lon="-0.3268857"><ele>478.0</ele><time>2026-04-19T17:48:48.999Z</time></trkpt><trkpt lat="39.8996048" lon="-0.327025"><ele>483.5</ele><time>2026-04-19T17:48:49.999Z</time></trkpt><trkpt lat="39.8996501" lon="-0.3271807"><ele>489.0</ele><time>2026-04-19T17:48:50.999Z</time></trkpt><trkpt lat="39.8996708" lon="-0.3273513"><ele>489.0</ele><time>2026-04-19T17:48:52Z</time></trkpt><trkpt lat="39.8996898" lon="-0.3275241"><ele>489.0</ele><time>2026-04-19T17:48:52.999Z</time></trkpt><trkpt lat="39.8997156" lon="-0.3276963"><ele>489.0</ele><time>2026-04-19T17:48:53.999Z</time></trkpt><trkpt lat="39.8997565" lon="-0.327866"><ele>489.0</ele><time>2026-04-19T17:48:55Z</time></trkpt><trkpt lat="39.8997983" lon="-0.3280403"><ele>488.25</ele><time>2026-04-19T17:48:55.999Z</time></trkpt><trkpt lat="39.8998387" lon="-0.3282185"><ele>487.5</ele><time>2026-04-19T17:48:56.999Z</time></trkpt><trkpt lat="39.8998562" lon="-0.3283922"><ele>486.75</ele><time>2026-04-19T17:48:57.999Z</time></trkpt><trkpt lat="39.8998486" lon="-0.3285685"><ele>486.0</ele><time>2026-04-19T17:48:58.999Z</time></trkpt><trkpt lat="39.8998066" lon="-0.3287382"><ele>486.0</ele><time>2026-04-19T17:48:59.999Z</time></trkpt><trkpt lat="39.8997373" lon="-0.3288963"><ele>486.0</ele><time>2026-04-19T17:49:00.999Z</time></trkpt><trkpt lat="39.8996615" lon="-0.3290394"><ele>486.0</ele><time>2026-04-19T17:49:01.999Z</time></trkpt><trkpt lat="39.8996137" lon="-0.3291698"><ele>486.0</ele><time>2026-04-19T17:49:02.999Z</time></trkpt><trkpt lat="39.8996028" lon="-0.3293069"><ele>486.0</ele><time>2026-04-19T17:49:03.999Z</time></trkpt><trkpt lat="39.8996204" lon="-0.3294572"><ele>486.0</ele><time>2026-04-19T17:49:04.999Z</time></trkpt><trkpt lat="39.8996628" lon="-0.3296054"><ele>486.0</ele><time>2026-04-19T17:49:05.999Z</time></trkpt><trkpt lat="39.8997133" lon="-0.3297596"><ele>486.0</ele><time>2026-04-19T17:49:06.999Z</time></trkpt><trkpt lat="39.8997634" lon="-0.3299249"><ele>486.0</ele><time>2026-04-19T17:49:07.999Z</time></trkpt><trkpt lat="39.8997812" lon="-0.3300851"><ele>486.0</ele><time>2026-04-19T17:49:08.999Z</time></trkpt><trkpt lat="39.899766" lon="-0.330251"><ele>486.0</ele><time>2026-04-19T17:49:09.999Z</time></trkpt><trkpt lat="39.8997264" lon="-0.3304192"><ele>486.0</ele><time>2026-04-19T17:49:11Z</time></trkpt><trkpt lat="39.8996772" lon="-0.3305948"><ele>486.5</ele><time>2026-04-19T17:49:11.999Z</time></trkpt><trkpt lat="39.8996273" lon="-0.3307761"><ele>487.0</ele><time>2026-04-19T17:49:12.999Z</time></trkpt><trkpt lat="39.8996002" lon="-0.3309479"><ele>487.5</ele><time>2026-04-19T17:49:13.999Z</time></trkpt><trkpt lat="39.8996055" lon="-0.3311186"><ele>488.0</ele><time>2026-04-19T17:49:14.999Z</time></trkpt><trkpt lat="39.8996426" lon="-0.3312649"><ele>485.0</ele><time>2026-04-19T17:49:15.999Z</time></trkpt><trkpt lat="39.8997137" lon="-0.3313976"><ele>482.0</ele><time>2026-04-19T17:49:16.999Z</time></trkpt><trkpt lat="39.8998077" lon="-0.3315196"><ele>479.0</ele><time>2026-04-19T17:49:17.999Z</time></trkpt><trkpt lat="39.8999113" lon="-0.3316477"><ele>476.0</ele><time>2026-04-19T17:49:18.999Z</time></trkpt><trkpt lat="39.900017" lon="-0.3317656"><ele>483.0</ele><time>2026-04-19T17:49:20Z</time></trkpt><trkpt lat="39.9001393" lon="-0.3318637"><ele>490.0</ele><time>2026-04-19T17:49:20.999Z</time></trkpt><trkpt lat="39.9002769" lon="-0.3319399"><ele>497.0</ele><time>2026-04-19T17:49:21.999Z</time></trkpt><trkpt lat="39.9004192" lon="-0.3320128"><ele>504.0</ele><time>2026-04-19T17:49:23Z</time></trkpt><trkpt lat="39.9005658" lon="-0.3320892"><ele>504.0</ele><time>2026-04-19T17:49:23.999Z</time></trkpt><trkpt lat="39.9007152" lon="-0.3321608"><ele>504.0</ele><time>2026-04-19T17:49:24.999Z</time></trkpt><trkpt lat="39.9008551" lon="-0.3322373"><ele>504.0</ele><time>2026-04-19T17:49:25.999Z</time></trkpt><trkpt lat="39.9009832" lon="-0.3323319"><ele>505.66666666666663</ele><time>2026-04-19T17:49:26.999Z</time></trkpt><trkpt lat="39.9010996" lon="-0.3324553"><ele>507.3333333333333</ele><time>2026-04-19T17:49:28Z</time></trkpt><trkpt lat="39.9012045" lon="-0.3326107"><ele>509.0</ele><time>2026-04-19T17:49:28.999Z</time></trkpt><trkpt lat="39.9012988" lon="-0.3327853"><ele>509.0</ele><time>2026-04-19T17:49:29.999Z</time></trkpt><trkpt lat="39.9013847" lon="-0.3329573"><ele>509.0</ele><time>2026-04-19T17:49:30.999Z</time></trkpt><trkpt lat="39.9014701" lon="-0.333117"><ele>509.0</ele><time>2026-04-19T17:49:31.999Z</time></trkpt><trkpt lat="39.9015651" lon="-0.33325"><ele>509.0</ele><time>2026-04-19T17:49:33Z</time></trkpt><trkpt lat="39.9016754" lon="-0.3333601"><ele>506.0</ele><time>2026-04-19T17:49:34Z</time></trkpt><trkpt lat="39.9017994" lon="-0.333462"><ele>503.0</ele><time>2026-04-19T17:49:34.999Z</time></trkpt><trkpt lat="39.9019302" lon="-0.3335656"><ele>500.0</ele><time>2026-04-19T17:49:35.999Z</time></trkpt><trkpt lat="39.9020663" lon="-0.3336742"><ele>500.0</ele><time>2026-04-19T17:49:36.999Z</time></trkpt><trkpt lat="39.9022043" lon="-0.3337895"><ele>500.0</ele><time>2026-04-19T17:49:37.999Z</time></trkpt><trkpt lat="39.9023348" lon="-0.3339157"><ele>500.0</ele><time>2026-04-19T17:49:38.999Z</time></trkpt><trkpt lat="39.9024415" lon="-0.3340473"><ele>500.75</ele><time>2026-04-19T17:49:39.998Z</time></trkpt><trkpt lat="39.9025222" lon="-0.3341924"><ele>501.5</ele><time>2026-04-19T17:49:40.999Z</time></trkpt><trkpt lat="39.902583" lon="-0.3343434"><ele>502.25</ele><time>2026-04-19T17:49:41.999Z</time></trkpt><trkpt lat="39.9026178" lon="-0.3345003"><ele>503.0</ele><time>2026-04-19T17:49:42.999Z</time></trkpt><trkpt lat="39.9026238" lon="-0.3346705"><ele>499.5</ele><time>2026-04-19T17:49:43.999Z</time></trkpt><trkpt lat="39.902597" lon="-0.334849"><ele>496.0</ele><time>2026-04-19T17:49:45Z</time></trkpt><trkpt lat="39.9025402" lon="-0.3350252"><ele>492.5</ele><time>2026-04-19T17:49:45.999Z</time></trkpt><trkpt lat="39.9024551" lon="-0.3351955"><ele>489.0</ele><time>2026-04-19T17:49:46.999Z</time></trkpt><trkpt lat="39.902353" lon="-0.3353686"><ele>489.0</ele><time>2026-04-19T17:49:47.999Z</time></trkpt><trkpt lat="39.9022534" lon="-0.3355407"><ele>489.0</ele><time>2026-04-19T17:49:49Z</time></trkpt><trkpt lat="39.9021762" lon="-0.3357197"><ele>489.0</ele><time>2026-04-19T17:49:49.999Z</time></trkpt><trkpt lat="39.9021242" lon="-0.3358927"><ele>490.75</ele><time>2026-04-19T17:49:50.999Z</time></trkpt><trkpt lat="39.9021019" lon="-0.336058"><ele>492.5</ele><time>2026-04-19T17:49:51.999Z</time></trkpt><trkpt lat="39.9021179" lon="-0.3362024"><ele>494.25</ele><time>2026-04-19T17:49:52.999Z</time></trkpt><trkpt lat="39.9021653" lon="-0.3363412"><ele>496.0</ele><time>2026-04-19T17:49:53.999Z</time></trkpt><trkpt lat="39.9022282" lon="-0.3364837"><ele>496.0</ele><time>2026-04-19T17:49:54.999Z</time></trkpt><trkpt lat="39.9022983" lon="-0.3366255"><ele>496.0</ele><time>2026-04-19T17:49:55.999Z</time></trkpt><trkpt lat="39.9023809" lon="-0.3367757"><ele>496.0</ele><time>2026-04-19T17:49:56.999Z</time></trkpt><trkpt lat="39.9024592" lon="-0.3369326"><ele>496.0</ele><time>2026-04-19T17:49:57.999Z</time></trkpt><trkpt lat="39.9025408" lon="-0.3370893"><ele>497.25</ele><time>2026-04-19T17:49:58.999Z</time></trkpt><trkpt lat="39.902622" lon="-0.3372423"><ele>498.5</ele><time>2026-04-19T17:49:59.999Z</time></trkpt><trkpt lat="39.9026903" lon="-0.3373935"><ele>499.75</ele><time>2026-04-19T17:50:00.999Z</time></trkpt><trkpt lat="39.9027294" lon="-0.3375594"><ele>501.0</ele><time>2026-04-19T17:50:01.999Z</time></trkpt><trkpt lat="39.9027393" lon="-0.3377388"><ele>501.0</ele><time>2026-04-19T17:50:02.999Z</time></trkpt><trkpt lat="39.9027434" lon="-0.3379282"><ele>501.0</ele><time>2026-04-19T17:50:04Z</time></trkpt><trkpt lat="39.9027382" lon="-0.3381289"><ele>501.0</ele><time>2026-04-19T17:50:04.999Z</time></trkpt><trkpt lat="39.902733" lon="-0.3383374"><ele>501.66666666666663</ele><time>2026-04-19T17:50:05.999Z</time></trkpt><trkpt lat="39.9027292" lon="-0.3385557"><ele>502.3333333333333</ele><time>2026-04-19T17:50:07Z</time></trkpt><trkpt lat="39.9027292" lon="-0.3387802"><ele>503.0</ele><time>2026-04-19T17:50:07.999Z</time></trkpt><trkpt lat="39.9027271" lon="-0.3390047"><ele>506.3333333333333</ele><time>2026-04-19T17:50:08.999Z</time></trkpt><trkpt lat="39.9027245" lon="-0.3392301"><ele>509.66666666666663</ele><time>2026-04-19T17:50:09.999Z</time></trkpt><trkpt lat="39.9027196" lon="-0.3394294"><ele>513.0</ele><time>2026-04-19T17:50:11Z</time></trkpt><trkpt lat="39.9027121" lon="-0.3396093"><ele>513.5</ele><time>2026-04-19T17:50:11.999Z</time></trkpt><trkpt lat="39.9026983" lon="-0.3397797"><ele>514.0</ele><time>2026-04-19T17:50:12.999Z</time></trkpt><trkpt lat="39.9026519" lon="-0.3399225"><ele>514.5</ele><time>2026-04-19T17:50:14Z</time></trkpt><trkpt lat="39.9025594" lon="-0.340032"><ele>515.0</ele><time>2026-04-19T17:50:14.999Z</time></trkpt><trkpt lat="39.9024473" lon="-0.3401259"><ele>507.75</ele><time>2026-04-19T17:50:16Z</time></trkpt><trkpt lat="39.9023151" lon="-0.3402093"><ele>500.5</ele><time>2026-04-19T17:50:16.999Z</time></trkpt><trkpt lat="39.902172" lon="-0.3402832"><ele>493.25</ele><time>2026-04-19T17:50:17.999Z</time></trkpt><trkpt lat="39.9020424" lon="-0.3403505"><ele>486.0</ele><time>2026-04-19T17:50:18.999Z</time></trkpt><trkpt lat="39.9019243" lon="-0.3404226"><ele>486.0</ele><time>2026-04-19T17:50:20Z</time></trkpt><trkpt lat="39.9018235" lon="-0.3405142"><ele>486.0</ele><time>2026-04-19T17:50:21Z</time></trkpt><trkpt lat="39.90176" lon="-0.340639"><ele>486.0</ele><time>2026-04-19T17:50:21.999Z</time></trkpt><trkpt lat="39.9017146" lon="-0.3407723"><ele>486.0</ele><time>2026-04-19T17:50:23Z</time></trkpt><trkpt lat="39.9016868" lon="-0.3409293"><ele>487.25</ele><time>2026-04-19T17:50:23.999Z</time></trkpt><trkpt lat="39.9016807" lon="-0.3410946"><ele>488.5</ele><time>2026-04-19T17:50:25Z</time></trkpt><trkpt lat="39.9016803" lon="-0.3412649"><ele>489.75</ele><time>2026-04-19T17:50:26Z</time></trkpt><trkpt lat="39.901679" lon="-0.3414401"><ele>491.0</ele><time>2026-04-19T17:50:26.999Z</time></trkpt><trkpt lat="39.9016803" lon="-0.3416155"><ele>492.20000000000005</ele><time>2026-04-19T17:50:27.999Z</time></trkpt><trkpt lat="39.9016826" lon="-0.3417714"><ele>493.40000000000003</ele><time>2026-04-19T17:50:28.999Z</time></trkpt><trkpt lat="39.901675" lon="-0.3419077"><ele>494.6</ele><time>2026-04-19T17:50:29.999Z</time></trkpt><trkpt lat="39.9016426" lon="-0.3420475"><ele>495.8</ele><time>2026-04-19T17:50:30.999Z</time></trkpt><trkpt lat="39.9015865" lon="-0.3421593"><ele>497.0</ele><time>2026-04-19T17:50:32Z</time></trkpt><trkpt lat="39.9015115" lon="-0.3422307"><ele>498.1428571428571</ele><time>2026-04-19T17:50:32.999Z</time></trkpt><trkpt lat="39.9014291" lon="-0.3422678"><ele>499.2857142857143</ele><time>2026-04-19T17:50:33.999Z</time></trkpt><trkpt lat="39.9013519" lon="-0.3422895"><ele>500.42857142857144</ele><time>2026-04-19T17:50:34.999Z</time></trkpt><trkpt lat="39.9012835" lon="-0.3423154"><ele>501.57142857142856</ele><time>2026-04-19T17:50:36Z</time></trkpt><trkpt lat="39.9012194" lon="-0.3423608"><ele>502.71428571428567</ele><time>2026-04-19T17:50:36.998Z</time></trkpt><trkpt lat="39.9011663" lon="-0.3424215"><ele>503.85714285714283</ele><time>2026-04-19T17:50:37.999Z</time></trkpt><trkpt lat="39.9011216" lon="-0.3424888"><ele>505.0</ele><time>2026-04-19T17:50:39Z</time></trkpt><trkpt lat="39.9010893" lon="-0.3425674"><ele>505.0</ele><time>2026-04-19T17:50:39.999Z</time></trkpt><trkpt lat="39.9010669" lon="-0.3426604"><ele>505.0</ele><time>2026-04-19T17:50:40.999Z</time></trkpt><trkpt lat="39.9010668" lon="-0.3427525"><ele>505.0</ele><time>2026-04-19T17:50:42Z</time></trkpt><trkpt lat="39.901146" lon="-0.3428433"><ele>505.0</ele><time>2026-04-19T17:50:44Z</time></trkpt><trkpt lat="39.9012385" lon="-0.3427993"><ele>505.0</ele><time>2026-04-19T17:50:46Z</time></trkpt><trkpt lat="39.9013473" lon="-0.3426979"><ele>505.00000000000006</ele><time>2026-04-19T17:50:47.999Z</time></trkpt><trkpt lat="39.9014041" lon="-0.3426274"><ele>505.0</ele><time>2026-04-19T17:50:48.999Z</time></trkpt><trkpt lat="39.9014601" lon="-0.3425378"><ele>505.0</ele><time>2026-04-19T17:50:49.999Z</time></trkpt><trkpt lat="39.9015203" lon="-0.342442"><ele>505.0</ele><time>2026-04-19T17:50:50.999Z</time></trkpt><trkpt lat="39.9015865" lon="-0.3423597"><ele>505.00000000000006</ele><time>2026-04-19T17:50:51.999Z</time></trkpt><trkpt lat="39.9016659" lon="-0.3422989"><ele>505.0</ele><time>2026-04-19T17:50:52.999Z</time></trkpt><trkpt lat="39.9017644" lon="-0.3422649"><ele>504.8</ele><time>2026-04-19T17:50:53.999Z</time></trkpt><trkpt lat="39.9018725" lon="-0.3422699"><ele>504.6</ele><time>2026-04-19T17:50:54.999Z</time></trkpt><trkpt lat="39.9019813" lon="-0.342305"><ele>504.4</ele><time>2026-04-19T17:50:55.999Z</time></trkpt><trkpt lat="39.9020765" lon="-0.3423746"><ele>504.2</ele><time>2026-04-19T17:50:56.999Z</time></trkpt><trkpt lat="39.90215" lon="-0.3424811"><ele>504.0</ele><time>2026-04-19T17:50:57.999Z</time></trkpt><trkpt lat="39.9022123" lon="-0.3426102"><ele>504.0</ele><time>2026-04-19T17:50:58.999Z</time></trkpt><trkpt lat="39.9022774" lon="-0.3427456"><ele>504.0</ele><time>2026-04-19T17:50:59.999Z</time></trkpt><trkpt lat="39.9023358" lon="-0.3428868"><ele>504.0</ele><time>2026-04-19T17:51:00.999Z</time></trkpt><trkpt lat="39.9023764" lon="-0.3430408"><ele>504.0</ele><time>2026-04-19T17:51:02Z</time></trkpt><trkpt lat="39.9024104" lon="-0.343201"><ele>505.0</ele><time>2026-04-19T17:51:03Z</time></trkpt><trkpt lat="39.9024358" lon="-0.3433666"><ele>506.0</ele><time>2026-04-19T17:51:03.999Z</time></trkpt><trkpt lat="39.9024705" lon="-0.3435316"><ele>507.0</ele><time>2026-04-19T17:51:04.999Z</time></trkpt><trkpt lat="39.9025271" lon="-0.3436834"><ele>508.0</ele><time>2026-04-19T17:51:06Z</time></trkpt><trkpt lat="39.9026083" lon="-0.3438083"><ele>509.75</ele><time>2026-04-19T17:51:06.999Z</time></trkpt><trkpt lat="39.9026968" lon="-0.343926"><ele>511.5</ele><time>2026-04-19T17:51:07.999Z</time></trkpt><trkpt lat="39.9027824" lon="-0.3440456"><ele>513.25</ele><time>2026-04-19T17:51:08.999Z</time></trkpt><trkpt lat="39.9028669" lon="-0.3441718"><ele>515.0</ele><time>2026-04-19T17:51:09.999Z</time></trkpt><trkpt lat="39.9029444" lon="-0.3443029"><ele>515.0</ele><time>2026-04-19T17:51:10.999Z</time></trkpt><trkpt lat="39.903016" lon="-0.3444389"><ele>515.0</ele><time>2026-04-19T17:51:11.999Z</time></trkpt><trkpt lat="39.9030824" lon="-0.3445927"><ele>515.0</ele><time>2026-04-19T17:51:12.999Z</time></trkpt><trkpt lat="39.903134" lon="-0.344758"><ele>515.0</ele><time>2026-04-19T17:51:14Z</time></trkpt><trkpt lat="39.9031815" lon="-0.3449338"><ele>517.25</ele><time>2026-04-19T17:51:14.999Z</time></trkpt><trkpt lat="39.9032254" lon="-0.3451137"><ele>519.5</ele><time>2026-04-19T17:51:16Z</time></trkpt><trkpt lat="39.9032755" lon="-0.3452972"><ele>521.75</ele><time>2026-04-19T17:51:17Z</time></trkpt><trkpt lat="39.903334" lon="-0.3454775"><ele>524.0</ele><time>2026-04-19T17:51:17.998Z</time></trkpt><trkpt lat="39.903399" lon="-0.3456557"><ele>528.5</ele><time>2026-04-19T17:51:19Z</time></trkpt><trkpt lat="39.9034654" lon="-0.3458228"><ele>533.0</ele><time>2026-04-19T17:51:19.999Z</time></trkpt><trkpt lat="39.9035187" lon="-0.3459694"><ele>537.5</ele><time>2026-04-19T17:51:21Z</time></trkpt><trkpt lat="39.9035604" lon="-0.3460963"><ele>542.0</ele><time>2026-04-19T17:51:21.999Z</time></trkpt><trkpt lat="39.9035721" lon="-0.346209"><ele>542.0</ele><time>2026-04-19T17:51:23Z</time></trkpt><trkpt lat="39.9035418" lon="-0.3463022"><ele>542.0</ele><time>2026-04-19T17:51:24Z</time></trkpt><trkpt lat="39.9034856" lon="-0.3463479"><ele>542.0</ele><time>2026-04-19T17:51:24.999Z</time></trkpt><trkpt lat="39.9034194" lon="-0.3463335"><ele>542.0</ele><time>2026-04-19T17:51:25.999Z</time></trkpt><trkpt lat="39.9033631" lon="-0.3462625"><ele>542.0</ele><time>2026-04-19T17:51:26.999Z</time></trkpt><trkpt lat="39.9033111" lon="-0.3461427"><ele>542.0</ele><time>2026-04-19T17:51:27.999Z</time></trkpt><trkpt lat="39.9032424" lon="-0.3460085"><ele>539.6666666666666</ele><time>2026-04-19T17:51:28.999Z</time></trkpt><trkpt lat="39.9031425" lon="-0.3458578"><ele>537.3333333333334</ele><time>2026-04-19T17:51:29.999Z</time></trkpt><trkpt lat="39.9030484" lon="-0.3456815"><ele>535.0</ele><time>2026-04-19T17:51:30.999Z</time></trkpt><trkpt lat="39.9029686" lon="-0.3454853"><ele>532.25</ele><time>2026-04-19T17:51:32Z</time></trkpt><trkpt lat="39.9029034" lon="-0.3453083"><ele>529.5</ele><time>2026-04-19T17:51:33Z</time></trkpt><trkpt lat="39.9028433" lon="-0.3451664"><ele>526.75</ele><time>2026-04-19T17:51:33.999Z</time></trkpt><trkpt lat="39.9027728" lon="-0.3450616"><ele>524.0</ele><time>2026-04-19T17:51:34.999Z</time></trkpt><trkpt lat="39.9026872" lon="-0.3450058"><ele>524.0</ele><time>2026-04-19T17:51:35.999Z</time></trkpt><trkpt lat="39.9025947" lon="-0.345005"><ele>524.0</ele><time>2026-04-19T17:51:36.999Z</time></trkpt><trkpt lat="39.9024969" lon="-0.3450613"><ele>524.0</ele><time>2026-04-19T17:51:37.999Z</time></trkpt><trkpt lat="39.9023971" lon="-0.3451523"><ele>524.0</ele><time>2026-04-19T17:51:39Z</time></trkpt><trkpt lat="39.9022982" lon="-0.345251"><ele>524.0</ele><time>2026-04-19T17:51:39.999Z</time></trkpt><trkpt lat="39.9022092" lon="-0.3453397"><ele>526.5</ele><time>2026-04-19T17:51:40.999Z</time></trkpt><trkpt lat="39.9021475" lon="-0.3454262"><ele>529.0</ele><time>2026-04-19T17:51:41.999Z</time></trkpt><trkpt lat="39.9021269" lon="-0.3455164"><ele>531.5</ele><time>2026-04-19T17:51:42.999Z</time></trkpt><trkpt lat="39.9021473" lon="-0.3455948"><ele>534.0</ele><time>2026-04-19T17:51:44Z</time></trkpt><trkpt lat="39.9022017" lon="-0.3456496"><ele>536.5</ele><time>2026-04-19T17:51:44.999Z</time></trkpt><trkpt lat="39.9022858" lon="-0.3456888"><ele>539.0</ele><time>2026-04-19T17:51:45.999Z</time></trkpt><trkpt lat="39.9024102" lon="-0.3457215"><ele>538.0</ele><time>2026-04-19T17:51:46.999Z</time></trkpt><trkpt lat="39.9025235" lon="-0.3457801"><ele>537.0</ele><time>2026-04-19T17:51:47.999Z</time></trkpt><trkpt lat="39.9026334" lon="-0.345861"><ele>536.0</ele><time>2026-04-19T17:51:48.999Z</time></trkpt><trkpt lat="39.9027273" lon="-0.345972"><ele>535.0</ele><time>2026-04-19T17:51:49.999Z</time></trkpt><trkpt lat="39.902795" lon="-0.3461186"><ele>535.0</ele><time>2026-04-19T17:51:50.999Z</time></trkpt><trkpt lat="39.9028345" lon="-0.3462803"><ele>535.0</ele><time>2026-04-19T17:51:51.999Z</time></trkpt><trkpt lat="39.9028501" lon="-0.3464557"><ele>535.0</ele><time>2026-04-19T17:51:52.999Z</time></trkpt><trkpt lat="39.9028466" lon="-0.3466351"><ele>535.0</ele><time>2026-04-19T17:51:53.999Z</time></trkpt><trkpt lat="39.9028367" lon="-0.3468168"><ele>536.5</ele><time>2026-04-19T17:51:55Z</time></trkpt><trkpt lat="39.9027988" lon="-0.346996"><ele>538.0</ele><time>2026-04-19T17:51:56Z</time></trkpt><trkpt lat="39.9027437" lon="-0.3471621"><ele>539.5</ele><time>2026-04-19T17:51:57Z</time></trkpt><trkpt lat="39.902679" lon="-0.3473211"><ele>541.0</ele><time>2026-04-19T17:51:58Z</time></trkpt><trkpt lat="39.9026052" lon="-0.3474749"><ele>547.25</ele><time>2026-04-19T17:51:59Z</time></trkpt><trkpt lat="39.9025151" lon="-0.3476177"><ele>553.5</ele><time>2026-04-19T17:51:59.999Z</time></trkpt><trkpt lat="39.90242" lon="-0.3477351"><ele>559.75</ele><time>2026-04-19T17:52:00.999Z</time></trkpt><trkpt lat="39.9023309" lon="-0.3478463"><ele>566.0</ele><time>2026-04-19T17:52:01.999Z</time></trkpt><trkpt lat="39.9022578" lon="-0.3479714"><ele>566.0</ele><time>2026-04-19T17:52:02.999Z</time></trkpt><trkpt lat="39.9022003" lon="-0.3481043"><ele>566.0</ele><time>2026-04-19T17:52:03.999Z</time></trkpt><trkpt lat="39.9021784" lon="-0.3482412"><ele>566.0</ele><time>2026-04-19T17:52:04.999Z</time></trkpt><trkpt lat="39.9021974" lon="-0.3483845"><ele>566.0</ele><time>2026-04-19T17:52:06Z</time></trkpt><trkpt lat="39.9022191" lon="-0.3485215"><ele>566.0</ele><time>2026-04-19T17:52:07Z</time></trkpt><trkpt lat="39.9023408" lon="-0.3486051"><ele>566.0</ele><time>2026-04-19T17:52:07.999Z</time></trkpt><trkpt lat="39.90245" lon="-0.3486683"><ele>566.0</ele><time>2026-04-19T17:52:08.999Z</time></trkpt><trkpt lat="39.9025806" lon="-0.3486995"><ele>566.0</ele><time>2026-04-19T17:52:09.999Z</time></trkpt><trkpt lat="39.9027176" lon="-0.3487083"><ele>566.0</ele><time>2026-04-19T17:52:10.999Z</time></trkpt><trkpt lat="39.9028619" lon="-0.3487019"><ele>565.3333333333333</ele><time>2026-04-19T17:52:11.999Z</time></trkpt><trkpt lat="39.9030108" lon="-0.3486969"><ele>564.6666666666666</ele><time>2026-04-19T17:52:12.999Z</time></trkpt><trkpt lat="39.9031686" lon="-0.3486871"><ele>564.0</ele><time>2026-04-19T17:52:14Z</time></trkpt><trkpt lat="39.9033265" lon="-0.348664"><ele>566.3333333333334</ele><time>2026-04-19T17:52:14.999Z</time></trkpt><trkpt lat="39.9034845" lon="-0.3486198"><ele>568.6666666666667</ele><time>2026-04-19T17:52:15.999Z</time></trkpt><trkpt lat="39.9036433" lon="-0.3485575"><ele>571.0</ele><time>2026-04-19T17:52:17Z</time></trkpt><trkpt lat="39.9038041" lon="-0.3484816"><ele>571.0</ele><time>2026-04-19T17:52:17.999Z</time></trkpt><trkpt lat="39.9039644" lon="-0.3484006"><ele>571.0</ele><time>2026-04-19T17:52:18.999Z</time></trkpt><trkpt lat="39.9041157" lon="-0.3483265"><ele>571.0</ele><time>2026-04-19T17:52:20Z</time></trkpt><trkpt lat="39.9042538" lon="-0.3482758"><ele>571.75</ele><time>2026-04-19T17:52:20.999Z</time></trkpt><trkpt lat="39.9043941" lon="-0.3482527"><ele>572.5</ele><time>2026-04-19T17:52:21.999Z</time></trkpt><trkpt lat="39.9045385" lon="-0.3482631"><ele>573.25</ele><time>2026-04-19T17:52:22.999Z</time></trkpt><trkpt lat="39.9046684" lon="-0.3483006"><ele>574.0</ele><time>2026-04-19T17:52:23.999Z</time></trkpt><trkpt lat="39.9047733" lon="-0.3483866"><ele>574.0</ele><time>2026-04-19T17:52:24.999Z</time></trkpt><trkpt lat="39.9048556" lon="-0.3485091"><ele>574.0</ele><time>2026-04-19T17:52:26Z</time></trkpt><trkpt lat="39.9049234" lon="-0.348671"><ele>574.0</ele><time>2026-04-19T17:52:26.999Z</time></trkpt><trkpt lat="39.9049926" lon="-0.3488438"><ele>574.0</ele><time>2026-04-19T17:52:27.999Z</time></trkpt><trkpt lat="39.9050815" lon="-0.3490216"><ele>577.6666666666667</ele><time>2026-04-19T17:52:28.999Z</time></trkpt><trkpt lat="39.9051815" lon="-0.3491909"><ele>581.3333333333334</ele><time>2026-04-19T17:52:29.999Z</time></trkpt><trkpt lat="39.9052739" lon="-0.3493597"><ele>585.0</ele><time>2026-04-19T17:52:31Z</time></trkpt><trkpt lat="39.905354" lon="-0.3495245"><ele>585.0</ele><time>2026-04-19T17:52:31.999Z</time></trkpt><trkpt lat="39.9054154" lon="-0.3496881"><ele>585.0</ele><time>2026-04-19T17:52:32.999Z</time></trkpt><trkpt lat="39.9054405" lon="-0.3498589"><ele>585.0</ele><time>2026-04-19T17:52:33.999Z</time></trkpt><trkpt lat="39.9054259" lon="-0.3500162"><ele>585.0</ele><time>2026-04-19T17:52:34.999Z</time></trkpt><trkpt lat="39.9053743" lon="-0.350146"><ele>585.0</ele><time>2026-04-19T17:52:35.999Z</time></trkpt><trkpt lat="39.9052897" lon="-0.3502583"><ele>585.0</ele><time>2026-04-19T17:52:37Z</time></trkpt><trkpt lat="39.9051974" lon="-0.3503688"><ele>585.0</ele><time>2026-04-19T17:52:37.999Z</time></trkpt><trkpt lat="39.905122" lon="-0.3505009"><ele>585.0</ele><time>2026-04-19T17:52:38.999Z</time></trkpt><trkpt lat="39.905078" lon="-0.3506512"><ele>585.5</ele><time>2026-04-19T17:52:39.999Z</time></trkpt><trkpt lat="39.9050576" lon="-0.3508188"><ele>586.0</ele><time>2026-04-19T17:52:41Z</time></trkpt><trkpt lat="39.9050642" lon="-0.3509891"><ele>586.5</ele><time>2026-04-19T17:52:41.999Z</time></trkpt><trkpt lat="39.9050904" lon="-0.3511679"><ele>587.0</ele><time>2026-04-19T17:52:43Z</time></trkpt><trkpt lat="39.9051167" lon="-0.3513545"><ele>577.6666666666666</ele><time>2026-04-19T17:52:43.999Z</time></trkpt><trkpt lat="39.9051384" lon="-0.3515492"><ele>568.3333333333334</ele><time>2026-04-19T17:52:44.999Z</time></trkpt><trkpt lat="39.9051735" lon="-0.351743"><ele>559.0</ele><time>2026-04-19T17:52:46Z</time></trkpt><trkpt lat="39.9052239" lon="-0.3519353"><ele>559.0</ele><time>2026-04-19T17:52:47Z</time></trkpt><trkpt lat="39.9052816" lon="-0.3521291"><ele>559.0</ele><time>2026-04-19T17:52:47.999Z</time></trkpt><trkpt lat="39.905343" lon="-0.3523307"><ele>559.0</ele><time>2026-04-19T17:52:48.999Z</time></trkpt><trkpt lat="39.9054126" lon="-0.3525352"><ele>558.6666666666667</ele><time>2026-04-19T17:52:49.999Z</time></trkpt><trkpt lat="39.9054851" lon="-0.3527447"><ele>558.3333333333334</ele><time>2026-04-19T17:52:50.999Z</time></trkpt><trkpt lat="39.9055562" lon="-0.3529594"><ele>558.0</ele><time>2026-04-19T17:52:51.999Z</time></trkpt><trkpt lat="39.9056296" lon="-0.3531816"><ele>560.3333333333334</ele><time>2026-04-19T17:52:52.999Z</time></trkpt><trkpt lat="39.9057016" lon="-0.3533943"><ele>562.6666666666667</ele><time>2026-04-19T17:52:53.999Z</time></trkpt><trkpt lat="39.9057688" lon="-0.3536019"><ele>565.0</ele><time>2026-04-19T17:52:54.999Z</time></trkpt><trkpt lat="39.9058296" lon="-0.3538063"><ele>567.6666666666667</ele><time>2026-04-19T17:52:55.999Z</time></trkpt><trkpt lat="39.9058901" lon="-0.3540055"><ele>570.3333333333334</ele><time>2026-04-19T17:52:57Z</time></trkpt><trkpt lat="39.9059477" lon="-0.3542098"><ele>573.0</ele><time>2026-04-19T17:52:57.999Z</time></trkpt><trkpt lat="39.9059873" lon="-0.3544264"><ele>561.0</ele><time>2026-04-19T17:52:58.999Z</time></trkpt><trkpt lat="39.9060085" lon="-0.3546524"><ele>549.0</ele><time>2026-04-19T17:52:59.999Z</time></trkpt><trkpt lat="39.9060034" lon="-0.3548727"><ele>537.0</ele><time>2026-04-19T17:53:00.999Z</time></trkpt><trkpt lat="39.9059735" lon="-0.3550822"><ele>535.0</ele><time>2026-04-19T17:53:02Z</time></trkpt><trkpt lat="39.9059202" lon="-0.3552705"><ele>533.0</ele><time>2026-04-19T17:53:02.999Z</time></trkpt><trkpt lat="39.9058444" lon="-0.3554363"><ele>531.0</ele><time>2026-04-19T17:53:04Z</time></trkpt><trkpt lat="39.9057452" lon="-0.3555715"><ele>529.0</ele><time>2026-04-19T17:53:04.999Z</time></trkpt><trkpt lat="39.9056407" lon="-0.3556846"><ele>533.8333333333334</ele><time>2026-04-19T17:53:05.999Z</time></trkpt><trkpt lat="39.9055484" lon="-0.3557832"><ele>538.6666666666667</ele><time>2026-04-19T17:53:06.999Z</time></trkpt><trkpt lat="39.9054852" lon="-0.3558714"><ele>543.5</ele><time>2026-04-19T17:53:07.999Z</time></trkpt><trkpt lat="39.9054502" lon="-0.3559719"><ele>548.3333333333334</ele><time>2026-04-19T17:53:09Z</time></trkpt><trkpt lat="39.9054528" lon="-0.3560716"><ele>553.1666666666666</ele><time>2026-04-19T17:53:10Z</time></trkpt><trkpt lat="39.9054888" lon="-0.3561444"><ele>558.0</ele><time>2026-04-19T17:53:10.999Z</time></trkpt><trkpt lat="39.9055583" lon="-0.3561891"><ele>558.0</ele><time>2026-04-19T17:53:11.999Z</time></trkpt><trkpt lat="39.9056522" lon="-0.3561967"><ele>558.0</ele><time>2026-04-19T17:53:13Z</time></trkpt><trkpt lat="39.9057638" lon="-0.3561851"><ele>558.0</ele><time>2026-04-19T17:53:13.999Z</time></trkpt><trkpt lat="39.9058895" lon="-0.3561775"><ele>558.0</ele><time>2026-04-19T17:53:14.999Z</time></trkpt><trkpt lat="39.9060257" lon="-0.3561728"><ele>553.6666666666666</ele><time>2026-04-19T17:53:15.998Z</time></trkpt><trkpt lat="39.9061712" lon="-0.3561668"><ele>549.3333333333333</ele><time>2026-04-19T17:53:16.999Z</time></trkpt><trkpt lat="39.9063265" lon="-0.3561376"><ele>545.0</ele><time>2026-04-19T17:53:17.999Z</time></trkpt><trkpt lat="39.9064802" lon="-0.3560677"><ele>545.0</ele><time>2026-04-19T17:53:18.999Z</time></trkpt><trkpt lat="39.906624" lon="-0.3559814"><ele>545.0</ele><time>2026-04-19T17:53:19.999Z</time></trkpt><trkpt lat="39.9067661" lon="-0.3559038"><ele>545.0</ele><time>2026-04-19T17:53:20.999Z</time></trkpt><trkpt lat="39.9069152" lon="-0.3558496"><ele>542.3333333333333</ele><time>2026-04-19T17:53:21.999Z</time></trkpt><trkpt lat="39.9070733" lon="-0.3558224"><ele>539.6666666666666</ele><time>2026-04-19T17:53:23Z</time></trkpt><trkpt lat="39.9072335" lon="-0.355805"><ele>537.0</ele><time>2026-04-19T17:53:23.999Z</time></trkpt><trkpt lat="39.9073989" lon="-0.3558018"><ele>537.0</ele><time>2026-04-19T17:53:24.999Z</time></trkpt><trkpt lat="39.9075635" lon="-0.3558096"><ele>537.0</ele><time>2026-04-19T17:53:25.999Z</time></trkpt><trkpt lat="39.9077128" lon="-0.3558194"><ele>537.0</ele><time>2026-04-19T17:53:26.999Z</time></trkpt><trkpt lat="39.9078399" lon="-0.3558444"><ele>537.0</ele><time>2026-04-19T17:53:28Z</time></trkpt><trkpt lat="39.9079525" lon="-0.355903"><ele>536.25</ele><time>2026-04-19T17:53:28.999Z</time></trkpt><trkpt lat="39.908042" lon="-0.3560117"><ele>535.5</ele><time>2026-04-19T17:53:30Z</time></trkpt><trkpt lat="39.9081101" lon="-0.3561596"><ele>534.75</ele><time>2026-04-19T17:53:30.999Z</time></trkpt><trkpt lat="39.9081729" lon="-0.3563203"><ele>534.0</ele><time>2026-04-19T17:53:31.999Z</time></trkpt><trkpt lat="39.9082423" lon="-0.3564671"><ele>534.0</ele><time>2026-04-19T17:53:32.999Z</time></trkpt><trkpt lat="39.9083249" lon="-0.3565938"><ele>534.0</ele><time>2026-04-19T17:53:33.999Z</time></trkpt><trkpt lat="39.9084292" lon="-0.3566787"><ele>534.0</ele><time>2026-04-19T17:53:34.999Z</time></trkpt><trkpt lat="39.9085521" lon="-0.3567234"><ele>534.0</ele><time>2026-04-19T17:53:35.999Z</time></trkpt><trkpt lat="39.9086888" lon="-0.3567289"><ele>530.6666666666666</ele><time>2026-04-19T17:53:36.999Z</time></trkpt><trkpt lat="39.9088349" lon="-0.3567186"><ele>527.3333333333333</ele><time>2026-04-19T17:53:37.999Z</time></trkpt><trkpt lat="39.9089953" lon="-0.3566982"><ele>524.0</ele><time>2026-04-19T17:53:38.999Z</time></trkpt><trkpt lat="39.9091595" lon="-0.3566742"><ele>521.0</ele><time>2026-04-19T17:53:40Z</time></trkpt><trkpt lat="39.909334" lon="-0.3566592"><ele>518.0</ele><time>2026-04-19T17:53:41Z</time></trkpt><trkpt lat="39.9095175" lon="-0.3566473"><ele>515.0</ele><time>2026-04-19T17:53:42Z</time></trkpt><trkpt lat="39.9096913" lon="-0.3566386"><ele>515.0</ele><time>2026-04-19T17:53:42.999Z</time></trkpt><trkpt lat="39.9098475" lon="-0.3566331"><ele>515.0</ele><time>2026-04-19T17:53:43.999Z</time></trkpt><trkpt lat="39.9099812" lon="-0.3566324"><ele>515.0</ele><time>2026-04-19T17:53:45Z</time></trkpt><trkpt lat="39.9100991" lon="-0.3566468"><ele>515.0</ele><time>2026-04-19T17:53:45.999Z</time></trkpt><trkpt lat="39.9101905" lon="-0.3567056"><ele>511.0</ele><time>2026-04-19T17:53:47Z</time></trkpt><trkpt lat="39.910257" lon="-0.3568052"><ele>507.0</ele><time>2026-04-19T17:53:47.999Z</time></trkpt><trkpt lat="39.910298" lon="-0.3569287"><ele>503.0</ele><time>2026-04-19T17:53:49Z</time></trkpt><trkpt lat="39.9103107" lon="-0.3570632"><ele>499.0</ele><time>2026-04-19T17:53:49.999Z</time></trkpt><trkpt lat="39.910291" lon="-0.35721"><ele>495.0</ele><time>2026-04-19T17:53:50.999Z</time></trkpt><trkpt lat="39.9102412" lon="-0.3573591"><ele>493.0</ele><time>2026-04-19T17:53:51.999Z</time></trkpt><trkpt lat="39.9101655" lon="-0.3575046"><ele>491.0</ele><time>2026-04-19T17:53:52.998Z</time></trkpt><trkpt lat="39.9100614" lon="-0.3576352"><ele>489.0</ele><time>2026-04-19T17:53:53.999Z</time></trkpt><trkpt lat="39.909954" lon="-0.3577693"><ele>487.0</ele><time>2026-04-19T17:53:54.999Z</time></trkpt><trkpt lat="39.9098575" lon="-0.3579159"><ele>490.25</ele><time>2026-04-19T17:53:56Z</time></trkpt><trkpt lat="39.9097711" lon="-0.3580674"><ele>493.5</ele><time>2026-04-19T17:53:56.999Z</time></trkpt><trkpt lat="39.9096911" lon="-0.3582211"><ele>496.75</ele><time>2026-04-19T17:53:57.999Z</time></trkpt><trkpt lat="39.909611" lon="-0.3583733"><ele>500.0</ele><time>2026-04-19T17:53:58.999Z</time></trkpt><trkpt lat="39.9095375" lon="-0.3585274"><ele>500.0</ele><time>2026-04-19T17:53:59.999Z</time></trkpt><trkpt lat="39.9094838" lon="-0.358678"><ele>500.0</ele><time>2026-04-19T17:54:00.999Z</time></trkpt><trkpt lat="39.9094596" lon="-0.3588303"><ele>500.0</ele><time>2026-04-19T17:54:02Z</time></trkpt><trkpt lat="39.9094678" lon="-0.3589824"><ele>500.0</ele><time>2026-04-19T17:54:02.999Z</time></trkpt><trkpt lat="39.909506" lon="-0.3591218"><ele>499.5</ele><time>2026-04-19T17:54:03.999Z</time></trkpt><trkpt lat="39.9095737" lon="-0.3592354"><ele>499.0</ele><time>2026-04-19T17:54:04.999Z</time></trkpt><trkpt lat="39.9096733" lon="-0.3593114"><ele>498.5</ele><time>2026-04-19T17:54:05.999Z</time></trkpt><trkpt lat="39.9097846" lon="-0.3593473"><ele>498.0</ele><time>2026-04-19T17:54:06.999Z</time></trkpt><trkpt lat="39.9099077" lon="-0.3593521"><ele>498.0</ele><time>2026-04-19T17:54:07.999Z</time></trkpt><trkpt lat="39.9100306" lon="-0.3593117"><ele>498.0</ele><time>2026-04-19T17:54:09Z</time></trkpt><trkpt lat="39.9101479" lon="-0.3592427"><ele>498.0</ele><time>2026-04-19T17:54:09.999Z</time></trkpt><trkpt lat="39.9102635" lon="-0.3591553"><ele>498.0</ele><time>2026-04-19T17:54:10.999Z</time></trkpt><trkpt lat="39.910379" lon="-0.3590639"><ele>498.0</ele><time>2026-04-19T17:54:12Z</time></trkpt><trkpt lat="39.9104904" lon="-0.3589764"><ele>498.0</ele><time>2026-04-19T17:54:12.999Z</time></trkpt><trkpt lat="39.9105999" lon="-0.3588988"><ele>498.0</ele><time>2026-04-19T17:54:14Z</time></trkpt><trkpt lat="39.9107111" lon="-0.3588253"><ele>498.0</ele><time>2026-04-19T17:54:14.999Z</time></trkpt><trkpt lat="39.9108266" lon="-0.3587635"><ele>493.79999999999995</ele><time>2026-04-19T17:54:15.999Z</time></trkpt><trkpt lat="39.9109427" lon="-0.3587265"><ele>489.59999999999997</ele><time>2026-04-19T17:54:17Z</time></trkpt><trkpt lat="39.9110537" lon="-0.3587242"><ele>485.40000000000003</ele><time>2026-04-19T17:54:18Z</time></trkpt><trkpt lat="39.9111524" lon="-0.3587692"><ele>481.20000000000005</ele><time>2026-04-19T17:54:19Z</time></trkpt><trkpt lat="39.9112343" lon="-0.3588626"><ele>477.0</ele><time>2026-04-19T17:54:19.999Z</time></trkpt><trkpt lat="39.9112889" lon="-0.3589797"><ele>477.0</ele><time>2026-04-19T17:54:20.999Z</time></trkpt><trkpt lat="39.9113126" lon="-0.3591075"><ele>477.00000000000006</ele><time>2026-04-19T17:54:22Z</time></trkpt><trkpt lat="39.9113075" lon="-0.3592465"><ele>477.00000000000006</ele><time>2026-04-19T17:54:22.999Z</time></trkpt><trkpt lat="39.9112832" lon="-0.3593933"><ele>477.0</ele><time>2026-04-19T17:54:24Z</time></trkpt><trkpt lat="39.9112592" lon="-0.359555"><ele>477.0</ele><time>2026-04-19T17:54:24.999Z</time></trkpt><trkpt lat="39.9112425" lon="-0.359728"><ele>477.75</ele><time>2026-04-19T17:54:25.999Z</time></trkpt><trkpt lat="39.9112227" lon="-0.3599081"><ele>478.5</ele><time>2026-04-19T17:54:26.999Z</time></trkpt><trkpt lat="39.9112126" lon="-0.36008"><ele>479.25</ele><time>2026-04-19T17:54:28Z</time></trkpt><trkpt lat="39.9112115" lon="-0.3602451"><ele>480.0</ele><time>2026-04-19T17:54:29Z</time></trkpt><trkpt lat="39.9112282" lon="-0.3604015"><ele>481.0</ele><time>2026-04-19T17:54:29.999Z</time></trkpt><trkpt lat="39.9112702" lon="-0.360545"><ele>482.0</ele><time>2026-04-19T17:54:30.999Z</time></trkpt><trkpt lat="39.9113419" lon="-0.3606614"><ele>483.0</ele><time>2026-04-19T17:54:32Z</time></trkpt><trkpt lat="39.9114406" lon="-0.3607362"><ele>484.0</ele><time>2026-04-19T17:54:32.999Z</time></trkpt><trkpt lat="39.9115543" lon="-0.3607584"><ele>484.0</ele><time>2026-04-19T17:54:34Z</time></trkpt><trkpt lat="39.9116628" lon="-0.3607303"><ele>484.0</ele><time>2026-04-19T17:54:34.999Z</time></trkpt><trkpt lat="39.9117535" lon="-0.3606517"><ele>484.0</ele><time>2026-04-19T17:54:36Z</time></trkpt><trkpt lat="39.9118267" lon="-0.360539"><ele>484.0</ele><time>2026-04-19T17:54:36.999Z</time></trkpt><trkpt lat="39.9118812" lon="-0.3603934"><ele>487.5</ele><time>2026-04-19T17:54:38Z</time></trkpt><trkpt lat="39.9119224" lon="-0.3602311"><ele>491.0</ele><time>2026-04-19T17:54:38.999Z</time></trkpt><trkpt lat="39.9119571" lon="-0.3600546"><ele>494.5</ele><time>2026-04-19T17:54:39.999Z</time></trkpt><trkpt lat="39.9119964" lon="-0.359879"><ele>498.0</ele><time>2026-04-19T17:54:40.999Z</time></trkpt><trkpt lat="39.9120422" lon="-0.3597143"><ele>493.75</ele><time>2026-04-19T17:54:41.999Z</time></trkpt><trkpt lat="39.9121051" lon="-0.3595742"><ele>489.5</ele><time>2026-04-19T17:54:42.999Z</time></trkpt><trkpt lat="39.9121894" lon="-0.3594614"><ele>485.25</ele><time>2026-04-19T17:54:44Z</time></trkpt><trkpt lat="39.9122917" lon="-0.359366"><ele>481.0</ele><time>2026-04-19T17:54:44.998Z</time></trkpt><trkpt lat="39.9123984" lon="-0.3592781"><ele>481.0</ele><time>2026-04-19T17:54:45.999Z</time></trkpt><trkpt lat="39.9125035" lon="-0.3591819"><ele>481.0</ele><time>2026-04-19T17:54:46.999Z</time></trkpt><trkpt lat="39.9126069" lon="-0.35908"><ele>481.0</ele><time>2026-04-19T17:54:47.999Z</time></trkpt><trkpt lat="39.9127019" lon="-0.3589665"><ele>481.0</ele><time>2026-04-19T17:54:48.999Z</time></trkpt><trkpt lat="39.9127853" lon="-0.3588418"><ele>485.75</ele><time>2026-04-19T17:54:49.999Z</time></trkpt><trkpt lat="39.9128557" lon="-0.3586952"><ele>490.5</ele><time>2026-04-19T17:54:50.999Z</time></trkpt><trkpt lat="39.9129127" lon="-0.3585363"><ele>495.25</ele><time>2026-04-19T17:54:51.999Z</time></trkpt><trkpt lat="39.912971" lon="-0.3583717"><ele>500.0</ele><time>2026-04-19T17:54:53Z</time></trkpt><trkpt lat="39.9130211" lon="-0.3581969"><ele>499.75</ele><time>2026-04-19T17:54:53.999Z</time></trkpt><trkpt lat="39.9130561" lon="-0.3580149"><ele>499.5</ele><time>2026-04-19T17:54:55Z</time></trkpt><trkpt lat="39.9130782" lon="-0.3578221"><ele>499.25</ele><time>2026-04-19T17:54:55.999Z</time></trkpt><trkpt lat="39.9130927" lon="-0.3576195"><ele>499.0</ele><time>2026-04-19T17:54:56.999Z</time></trkpt><trkpt lat="39.9130967" lon="-0.3574152"><ele>499.0</ele><time>2026-04-19T17:54:57.999Z</time></trkpt><trkpt lat="39.9130816" lon="-0.3572072"><ele>499.0</ele><time>2026-04-19T17:54:59Z</time></trkpt><trkpt lat="39.9130532" lon="-0.3569983"><ele>499.0</ele><time>2026-04-19T17:54:59.999Z</time></trkpt><trkpt lat="39.9130155" lon="-0.3567868"><ele>500.0</ele><time>2026-04-19T17:55:00.999Z</time></trkpt><trkpt lat="39.9129839" lon="-0.3565716"><ele>501.0</ele><time>2026-04-19T17:55:01.999Z</time></trkpt><trkpt lat="39.912956" lon="-0.3563578"><ele>502.0</ele><time>2026-04-19T17:55:03Z</time></trkpt><trkpt lat="39.9129255" lon="-0.3561389"><ele>504.0</ele><time>2026-04-19T17:55:03.999Z</time></trkpt><trkpt lat="39.9128936" lon="-0.3559198"><ele>506.0</ele><time>2026-04-19T17:55:04.999Z</time></trkpt><trkpt lat="39.9128589" lon="-0.3557136"><ele>508.0</ele><time>2026-04-19T17:55:05.999Z</time></trkpt><trkpt lat="39.9128166" lon="-0.355524"><ele>508.0</ele><time>2026-04-19T17:55:07Z</time></trkpt><trkpt lat="39.9127569" lon="-0.3553538"><ele>508.0</ele><time>2026-04-19T17:55:08Z</time></trkpt><trkpt lat="39.9126804" lon="-0.3552019"><ele>508.0</ele><time>2026-04-19T17:55:08.999Z</time></trkpt><trkpt lat="39.9125882" lon="-0.3550618"><ele>508.0</ele><time>2026-04-19T17:55:09.999Z</time></trkpt><trkpt lat="39.9124765" lon="-0.3549324"><ele>503.0</ele><time>2026-04-19T17:55:11Z</time></trkpt><trkpt lat="39.9123439" lon="-0.3548119"><ele>498.0</ele><time>2026-04-19T17:55:11.999Z</time></trkpt><trkpt lat="39.9122103" lon="-0.3547005"><ele>493.0</ele><time>2026-04-19T17:55:12.999Z</time></trkpt><trkpt lat="39.9120866" lon="-0.3545984"><ele>493.0</ele><time>2026-04-19T17:55:13.999Z</time></trkpt><trkpt lat="39.9119814" lon="-0.3545032"><ele>493.0</ele><time>2026-04-19T17:55:14.999Z</time></trkpt><trkpt lat="39.911899" lon="-0.354396"><ele>493.0</ele><time>2026-04-19T17:55:16Z</time></trkpt><trkpt lat="39.9118528" lon="-0.3542634"><ele>493.0</ele><time>2026-04-19T17:55:16.999Z</time></trkpt><trkpt lat="39.9118272" lon="-0.3541135"><ele>493.0</ele><time>2026-04-19T17:55:18Z</time></trkpt><trkpt lat="39.911829" lon="-0.3539509"><ele>493.0</ele><time>2026-04-19T17:55:18.999Z</time></trkpt><trkpt lat="39.9118543" lon="-0.3537766"><ele>493.0</ele><time>2026-04-19T17:55:19.999Z</time></trkpt><trkpt lat="39.9118929" lon="-0.3535955"><ele>493.0</ele><time>2026-04-19T17:55:20.999Z</time></trkpt><trkpt lat="39.9119353" lon="-0.3534061"><ele>491.0</ele><time>2026-04-19T17:55:21.999Z</time></trkpt><trkpt lat="39.911986" lon="-0.3532132"><ele>489.0</ele><time>2026-04-19T17:55:23Z</time></trkpt><trkpt lat="39.9120388" lon="-0.3530164"><ele>487.0</ele><time>2026-04-19T17:55:24Z</time></trkpt><trkpt lat="39.9121021" lon="-0.3528365"><ele>483.5</ele><time>2026-04-19T17:55:24.999Z</time></trkpt><trkpt lat="39.9121804" lon="-0.3526838"><ele>480.0</ele><time>2026-04-19T17:55:25.999Z</time></trkpt><trkpt lat="39.9122723" lon="-0.3525644"><ele>476.5</ele><time>2026-04-19T17:55:26.999Z</time></trkpt><trkpt lat="39.9123768" lon="-0.3524883"><ele>473.0</ele><time>2026-04-19T17:55:27.999Z</time></trkpt><trkpt lat="39.912496" lon="-0.3524687"><ele>467.25</ele><time>2026-04-19T17:55:29Z</time></trkpt><trkpt lat="39.9126191" lon="-0.3525045"><ele>461.5</ele><time>2026-04-19T17:55:29.999Z</time></trkpt><trkpt lat="39.9127428" lon="-0.3525768"><ele>455.75</ele><time>2026-04-19T17:55:30.999Z</time></trkpt><trkpt lat="39.9128618" lon="-0.352684"><ele>450.0</ele><time>2026-04-19T17:55:31.999Z</time></trkpt><trkpt lat="39.9129745" lon="-0.3528245"><ele>450.0</ele><time>2026-04-19T17:55:32.999Z</time></trkpt><trkpt lat="39.9130769" lon="-0.3529895"><ele>450.0</ele><time>2026-04-19T17:55:33.999Z</time></trkpt><trkpt lat="39.9131873" lon="-0.3531586"><ele>450.0</ele><time>2026-04-19T17:55:34.999Z</time></trkpt><trkpt lat="39.9133043" lon="-0.3533303"><ele>447.66666666666663</ele><time>2026-04-19T17:55:35.999Z</time></trkpt><trkpt lat="39.9134251" lon="-0.3535045"><ele>445.3333333333333</ele><time>2026-04-19T17:55:36.999Z</time></trkpt><trkpt lat="39.9135541" lon="-0.353675"><ele>443.0</ele><time>2026-04-19T17:55:37.999Z</time></trkpt><trkpt lat="39.9136879" lon="-0.353841"><ele>450.66666666666663</ele><time>2026-04-19T17:55:39Z</time></trkpt><trkpt lat="39.9138235" lon="-0.3539948"><ele>458.33333333333337</ele><time>2026-04-19T17:55:39.999Z</time></trkpt><trkpt lat="39.9139533" lon="-0.3541412"><ele>466.0</ele><time>2026-04-19T17:55:40.999Z</time></trkpt><trkpt lat="39.9140784" lon="-0.3542784"><ele>466.0</ele><time>2026-04-19T17:55:41.999Z</time></trkpt><trkpt lat="39.9141984" lon="-0.3544041"><ele>466.0</ele><time>2026-04-19T17:55:42.999Z</time></trkpt><trkpt lat="39.9143164" lon="-0.354517"><ele>466.0</ele><time>2026-04-19T17:55:43.999Z</time></trkpt><trkpt lat="39.9144398" lon="-0.3545968"><ele>466.0</ele><time>2026-04-19T17:55:44.999Z</time></trkpt><trkpt lat="39.9145716" lon="-0.3546442"><ele>464.75</ele><time>2026-04-19T17:55:45.999Z</time></trkpt><trkpt lat="39.9147094" lon="-0.3546529"><ele>463.5</ele><time>2026-04-19T17:55:46.999Z</time></trkpt><trkpt lat="39.9148407" lon="-0.3546338"><ele>462.25</ele><time>2026-04-19T17:55:48Z</time></trkpt><trkpt lat="39.9149572" lon="-0.3545959"><ele>461.0</ele><time>2026-04-19T17:55:48.999Z</time></trkpt><trkpt lat="39.9150486" lon="-0.3545351"><ele>462.4</ele><time>2026-04-19T17:55:49.999Z</time></trkpt><trkpt lat="39.9151277" lon="-0.354462"><ele>463.8</ele><time>2026-04-19T17:55:50.999Z</time></trkpt><trkpt lat="39.9151975" lon="-0.3543597"><ele>465.19999999999993</ele><time>2026-04-19T17:55:51.999Z</time></trkpt><trkpt lat="39.9152639" lon="-0.354236"><ele>466.59999999999997</ele><time>2026-04-19T17:55:53Z</time></trkpt><trkpt lat="39.9153208" lon="-0.3541005"><ele>468.0</ele><time>2026-04-19T17:55:53.999Z</time></trkpt><trkpt lat="39.9153636" lon="-0.3539503"><ele>466.25</ele><time>2026-04-19T17:55:54.999Z</time></trkpt><trkpt lat="39.9153939" lon="-0.3537994"><ele>464.5</ele><time>2026-04-19T17:55:55.999Z</time></trkpt><trkpt lat="39.9154132" lon="-0.3536456"><ele>462.75</ele><time>2026-04-19T17:55:56.999Z</time></trkpt><trkpt lat="39.9154284" lon="-0.3534959"><ele>461.0</ele><time>2026-04-19T17:55:57.999Z</time></trkpt><trkpt lat="39.915447" lon="-0.3533502"><ele>461.0</ele><time>2026-04-19T17:55:58.999Z</time></trkpt><trkpt lat="39.915466" lon="-0.3532055"><ele>461.0</ele><time>2026-04-19T17:55:59.999Z</time></trkpt><trkpt lat="39.9154862" lon="-0.3530624"><ele>461.0</ele><time>2026-04-19T17:56:01Z</time></trkpt><trkpt lat="39.9155047" lon="-0.3529218"><ele>461.0</ele><time>2026-04-19T17:56:02Z</time></trkpt><trkpt lat="39.9155231" lon="-0.3527812"><ele>461.0</ele><time>2026-04-19T17:56:02.999Z</time></trkpt><trkpt lat="39.9155437" lon="-0.3526424"><ele>463.0</ele><time>2026-04-19T17:56:03.999Z</time></trkpt><trkpt lat="39.9155627" lon="-0.352504"><ele>465.0</ele><time>2026-04-19T17:56:04.999Z</time></trkpt><trkpt lat="39.9155818" lon="-0.3523564"><ele>467.0</ele><time>2026-04-19T17:56:05.999Z</time></trkpt><trkpt lat="39.9155959" lon="-0.3522102"><ele>469.0</ele><time>2026-04-19T17:56:06.999Z</time></trkpt><trkpt lat="39.915588" lon="-0.3520606"><ele>470.0</ele><time>2026-04-19T17:56:07.999Z</time></trkpt><trkpt lat="39.9155669" lon="-0.3519177"><ele>471.0</ele><time>2026-04-19T17:56:09Z</time></trkpt><trkpt lat="39.9155259" lon="-0.351781"><ele>472.0</ele><time>2026-04-19T17:56:09.999Z</time></trkpt><trkpt lat="39.9154867" lon="-0.3516477"><ele>473.0</ele><time>2026-04-19T17:56:11Z</time></trkpt><trkpt lat="39.9154738" lon="-0.3515039"><ele>474.0</ele><time>2026-04-19T17:56:11.999Z</time></trkpt><trkpt lat="39.9154873" lon="-0.3513538"><ele>471.5</ele><time>2026-04-19T17:56:12.999Z</time></trkpt><trkpt lat="39.9155201" lon="-0.3512042"><ele>469.0</ele><time>2026-04-19T17:56:13.999Z</time></trkpt><trkpt lat="39.9155734" lon="-0.3510545"><ele>466.5</ele><time>2026-04-19T17:56:15Z</time></trkpt><trkpt lat="39.9156402" lon="-0.3509003"><ele>464.0</ele><time>2026-04-19T17:56:15.999Z</time></trkpt><trkpt lat="39.9157102" lon="-0.3507459"><ele>464.0</ele><time>2026-04-19T17:56:16.999Z</time></trkpt><trkpt lat="39.9157777" lon="-0.3505959"><ele>464.0</ele><time>2026-04-19T17:56:17.999Z</time></trkpt><trkpt lat="39.9158343" lon="-0.3504603"><ele>464.0</ele><time>2026-04-19T17:56:18.999Z</time></trkpt><trkpt lat="39.9158699" lon="-0.3503258"><ele>464.0</ele><time>2026-04-19T17:56:19.999Z</time></trkpt><trkpt lat="39.9158673" lon="-0.3501908"><ele>463.4</ele><time>2026-04-19T17:56:20.999Z</time></trkpt><trkpt lat="39.9158265" lon="-0.3500845"><ele>462.79999999999995</ele><time>2026-04-19T17:56:21.999Z</time></trkpt><trkpt lat="39.9157617" lon="-0.3499908"><ele>462.20000000000005</ele><time>2026-04-19T17:56:22.999Z</time></trkpt><trkpt lat="39.9156949" lon="-0.3498846"><ele>461.6</ele><time>2026-04-19T17:56:24Z</time></trkpt><trkpt lat="39.9156524" lon="-0.3497553"><ele>461.0</ele><time>2026-04-19T17:56:24.999Z</time></trkpt><trkpt lat="39.9156419" lon="-0.3496132"><ele>459.75</ele><time>2026-04-19T17:56:25.999Z</time></trkpt><trkpt lat="39.9156652" lon="-0.3494611"><ele>458.5</ele><time>2026-04-19T17:56:26.999Z</time></trkpt><trkpt lat="39.9157069" lon="-0.349303"><ele>457.25</ele><time>2026-04-19T17:56:27.999Z</time></trkpt><trkpt lat="39.9157558" lon="-0.3491369"><ele>456.0</ele><time>2026-04-19T17:56:29Z</time></trkpt><trkpt lat="39.9158089" lon="-0.3489598"><ele>455.0</ele><time>2026-04-19T17:56:29.999Z</time></trkpt><trkpt lat="39.9158616" lon="-0.3487727"><ele>454.0</ele><time>2026-04-19T17:56:31Z</time></trkpt><trkpt lat="39.915909" lon="-0.3485788"><ele>453.0</ele><time>2026-04-19T17:56:31.999Z</time></trkpt><trkpt lat="39.9159558" lon="-0.3483771"><ele>462.25</ele><time>2026-04-19T17:56:32.999Z</time></trkpt><trkpt lat="39.9159978" lon="-0.3481837"><ele>471.5</ele><time>2026-04-19T17:56:33.999Z</time></trkpt><trkpt lat="39.9160356" lon="-0.3479995"><ele>480.75</ele><time>2026-04-19T17:56:34.999Z</time></trkpt><trkpt lat="39.9160624" lon="-0.3478181"><ele>490.0</ele><time>2026-04-19T17:56:35.999Z</time></trkpt><trkpt lat="39.9160594" lon="-0.3476346"><ele>490.0</ele><time>2026-04-19T17:56:36.999Z</time></trkpt><trkpt lat="39.9160381" lon="-0.3474499"><ele>490.0</ele><time>2026-04-19T17:56:37.999Z</time></trkpt><trkpt lat="39.9160263" lon="-0.3472762"><ele>490.0</ele><time>2026-04-19T17:56:38.999Z</time></trkpt><trkpt lat="39.9160374" lon="-0.3471109"><ele>490.0</ele><time>2026-04-19T17:56:40Z</time></trkpt><trkpt lat="39.9160804" lon="-0.3469513"><ele>485.0</ele><time>2026-04-19T17:56:40.999Z</time></trkpt><trkpt lat="39.9161557" lon="-0.34681"><ele>480.0</ele><time>2026-04-19T17:56:41.999Z</time></trkpt><trkpt lat="39.9162618" lon="-0.346691"><ele>475.0</ele><time>2026-04-19T17:56:42.999Z</time></trkpt><trkpt lat="39.916366" lon="-0.3465496"><ele>470.0</ele><time>2026-04-19T17:56:44Z</time></trkpt><trkpt lat="39.9164538" lon="-0.3463874"><ele>462.0</ele><time>2026-04-19T17:56:45Z</time></trkpt><trkpt lat="39.916533" lon="-0.3462044"><ele>454.0</ele><time>2026-04-19T17:56:46Z</time></trkpt><trkpt lat="39.9166044" lon="-0.3460168"><ele>446.0</ele><time>2026-04-19T17:56:47Z</time></trkpt><trkpt lat="39.9166833" lon="-0.3458202"><ele>455.0</ele><time>2026-04-19T17:56:47.999Z</time></trkpt><trkpt lat="39.9167705" lon="-0.3456214"><ele>464.0</ele><time>2026-04-19T17:56:48.999Z</time></trkpt><trkpt lat="39.9168648" lon="-0.3454239"><ele>473.0</ele><time>2026-04-19T17:56:49.999Z</time></trkpt><trkpt lat="39.9169559" lon="-0.3452238"><ele>473.0</ele><time>2026-04-19T17:56:50.999Z</time></trkpt><trkpt lat="39.9170411" lon="-0.3450388"><ele>473.0</ele><time>2026-04-19T17:56:51.999Z</time></trkpt><trkpt lat="39.9171117" lon="-0.3448734"><ele>473.0</ele><time>2026-04-19T17:56:53Z</time></trkpt><trkpt lat="39.9171627" lon="-0.3446994"><ele>471.0</ele><time>2026-04-19T17:56:53.999Z</time></trkpt><trkpt lat="39.9171703" lon="-0.3445176"><ele>469.0</ele><time>2026-04-19T17:56:54.999Z</time></trkpt><trkpt lat="39.9171517" lon="-0.3443244"><ele>467.0</ele><time>2026-04-19T17:56:55.999Z</time></trkpt><trkpt lat="39.9171488" lon="-0.3441187"><ele>465.0</ele><time>2026-04-19T17:56:56.999Z</time></trkpt><trkpt lat="39.917163" lon="-0.3439264"><ele>464.75</ele><time>2026-04-19T17:56:57.999Z</time></trkpt><trkpt lat="39.9171655" lon="-0.3437378"><ele>464.5</ele><time>2026-04-19T17:56:58.999Z</time></trkpt><trkpt lat="39.9171451" lon="-0.3435614"><ele>464.25</ele><time>2026-04-19T17:56:59.999Z</time></trkpt><trkpt lat="39.9170881" lon="-0.3433866"><ele>464.0</ele><time>2026-04-19T17:57:00.999Z</time></trkpt><trkpt lat="39.9170063" lon="-0.3432339"><ele>464.0</ele><time>2026-04-19T17:57:01.999Z</time></trkpt><trkpt lat="39.916915" lon="-0.3431094"><ele>464.0</ele><time>2026-04-19T17:57:03Z</time></trkpt><trkpt lat="39.9168374" lon="-0.3429891"><ele>464.0</ele><time>2026-04-19T17:57:03.999Z</time></trkpt><trkpt lat="39.9167791" lon="-0.3428323"><ele>464.0</ele><time>2026-04-19T17:57:04.999Z</time></trkpt><trkpt lat="39.9167434" lon="-0.342656"><ele>452.0</ele><time>2026-04-19T17:57:05.999Z</time></trkpt><trkpt lat="39.9167093" lon="-0.3424701"><ele>440.0</ele><time>2026-04-19T17:57:07Z</time></trkpt><trkpt lat="39.9166808" lon="-0.3422756"><ele>428.0</ele><time>2026-04-19T17:57:07.999Z</time></trkpt><trkpt lat="39.9166489" lon="-0.3420773"><ele>427.0</ele><time>2026-04-19T17:57:09Z</time></trkpt><trkpt lat="39.9166179" lon="-0.3418842"><ele>426.0</ele><time>2026-04-19T17:57:09.999Z</time></trkpt><trkpt lat="39.9165961" lon="-0.3417159"><ele>425.0</ele><time>2026-04-19T17:57:10.999Z</time></trkpt><trkpt lat="39.9165997" lon="-0.341563"><ele>424.0</ele><time>2026-04-19T17:57:11.999Z</time></trkpt><trkpt lat="39.9166404" lon="-0.3414262"><ele>425.0</ele><time>2026-04-19T17:57:12.999Z</time></trkpt><trkpt lat="39.9167155" lon="-0.3413151"><ele>426.0</ele><time>2026-04-19T17:57:13.999Z</time></trkpt><trkpt lat="39.9168139" lon="-0.3412344"><ele>427.0</ele><time>2026-04-19T17:57:14.999Z</time></trkpt><trkpt lat="39.9169291" lon="-0.3411842"><ele>428.0</ele><time>2026-04-19T17:57:15.999Z</time></trkpt><trkpt lat="39.9170496" lon="-0.3411693"><ele>428.0</ele><time>2026-04-19T17:57:16.999Z</time></trkpt><trkpt lat="39.917167" lon="-0.3411688"><ele>427.99999999999994</ele><time>2026-04-19T17:57:17.999Z</time></trkpt><trkpt lat="39.9172668" lon="-0.3411435"><ele>427.99999999999994</ele><time>2026-04-19T17:57:18.999Z</time></trkpt><trkpt lat="39.9173488" lon="-0.3410849"><ele>428.0</ele><time>2026-04-19T17:57:19.999Z</time></trkpt><trkpt lat="39.9174063" lon="-0.340988"><ele>428.0</ele><time>2026-04-19T17:57:21Z</time></trkpt><trkpt lat="39.9174354" lon="-0.340864"><ele>428.0</ele><time>2026-04-19T17:57:22Z</time></trkpt><trkpt lat="39.9174354" lon="-0.340727"><ele>427.99999999999994</ele><time>2026-04-19T17:57:22.999Z</time></trkpt><trkpt lat="39.9174281" lon="-0.3405931"><ele>427.99999999999994</ele><time>2026-04-19T17:57:23.999Z</time></trkpt><trkpt lat="39.9174432" lon="-0.3404665"><ele>428.0</ele><time>2026-04-19T17:57:24.999Z</time></trkpt><trkpt lat="39.917474" lon="-0.3403572"><ele>428.0</ele><time>2026-04-19T17:57:26Z</time></trkpt><trkpt lat="39.9175236" lon="-0.3402762"><ele>427.3333333333333</ele><time>2026-04-19T17:57:26.999Z</time></trkpt><trkpt lat="39.9175963" lon="-0.3402259"><ele>426.66666666666663</ele><time>2026-04-19T17:57:27.999Z</time></trkpt><trkpt lat="39.9176715" lon="-0.3401989"><ele>426.0</ele><time>2026-04-19T17:57:28.999Z</time></trkpt><trkpt lat="39.9177578" lon="-0.340183"><ele>425.33333333333337</ele><time>2026-04-19T17:57:30Z</time></trkpt><trkpt lat="39.917855" lon="-0.340187"><ele>424.6666666666667</ele><time>2026-04-19T17:57:30.999Z</time></trkpt><trkpt lat="39.9179466" lon="-0.3402229"><ele>424.0</ele><time>2026-04-19T17:57:32Z</time></trkpt><trkpt lat="39.9180363" lon="-0.340255"><ele>424.00000000000006</ele><time>2026-04-19T17:57:32.999Z</time></trkpt><trkpt lat="39.9181244" lon="-0.3402603"><ele>424.0</ele><time>2026-04-19T17:57:33.999Z</time></trkpt><trkpt lat="39.9182011" lon="-0.3402245"><ele>424.0</ele><time>2026-04-19T17:57:35Z</time></trkpt><trkpt lat="39.9182512" lon="-0.3401473"><ele>424.0</ele><time>2026-04-19T17:57:35.999Z</time></trkpt><trkpt lat="39.9182723" lon="-0.3400507"><ele>424.00000000000006</ele><time>2026-04-19T17:57:36.999Z</time></trkpt><trkpt lat="39.9182762" lon="-0.3399406"><ele>424.0</ele><time>2026-04-19T17:57:38Z</time></trkpt><trkpt lat="39.9182781" lon="-0.3398249"><ele>425.0</ele><time>2026-04-19T17:57:38.999Z</time></trkpt><trkpt lat="39.9182959" lon="-0.3397043"><ele>426.0</ele><time>2026-04-19T17:57:39.999Z</time></trkpt><trkpt lat="39.9183253" lon="-0.3395894"><ele>427.0</ele><time>2026-04-19T17:57:40.999Z</time></trkpt><trkpt lat="39.9183684" lon="-0.3394835"><ele>428.0</ele><time>2026-04-19T17:57:41.999Z</time></trkpt><trkpt lat="39.9184167" lon="-0.3393769"><ele>429.0</ele><time>2026-04-19T17:57:42.999Z</time></trkpt><trkpt lat="39.9184801" lon="-0.3392635"><ele>429.0</ele><time>2026-04-19T17:57:44Z</time></trkpt><trkpt lat="39.9185671" lon="-0.3391627"><ele>429.0</ele><time>2026-04-19T17:57:44.999Z</time></trkpt><trkpt lat="39.9186582" lon="-0.3390642"><ele>429.0</ele><time>2026-04-19T17:57:45.999Z</time></trkpt><trkpt lat="39.918741" lon="-0.3389614"><ele>429.0</ele><time>2026-04-19T17:57:46.999Z</time></trkpt><trkpt lat="39.9188052" lon="-0.3388516"><ele>428.0</ele><time>2026-04-19T17:57:48Z</time></trkpt><trkpt lat="39.918843" lon="-0.3387284"><ele>427.0</ele><time>2026-04-19T17:57:48.999Z</time></trkpt><trkpt lat="39.9188534" lon="-0.3385918"><ele>426.0</ele><time>2026-04-19T17:57:49.999Z</time></trkpt><trkpt lat="39.918854" lon="-0.3384467"><ele>425.0</ele><time>2026-04-19T17:57:50.999Z</time></trkpt><trkpt lat="39.9188547" lon="-0.3382884"><ele>424.0</ele><time>2026-04-19T17:57:52Z</time></trkpt><trkpt lat="39.9188683" lon="-0.3381173"><ele>421.0</ele><time>2026-04-19T17:57:52.999Z</time></trkpt><trkpt lat="39.9189065" lon="-0.3379427"><ele>418.0</ele><time>2026-04-19T17:57:53.999Z</time></trkpt><trkpt lat="39.9189696" lon="-0.3377718"><ele>415.0</ele><time>2026-04-19T17:57:55Z</time></trkpt><trkpt lat="39.9190544" lon="-0.3376056"><ele>412.0</ele><time>2026-04-19T17:57:56Z</time></trkpt><trkpt lat="39.9191429" lon="-0.3374445"><ele>412.0</ele><time>2026-04-19T17:57:57Z</time></trkpt><trkpt lat="39.9192306" lon="-0.3372728"><ele>412.0</ele><time>2026-04-19T17:57:58Z</time></trkpt><trkpt lat="39.9193239" lon="-0.3370959"><ele>412.0</ele><time>2026-04-19T17:57:58.999Z</time></trkpt><trkpt lat="39.9194191" lon="-0.3369204"><ele>415.6666666666667</ele><time>2026-04-19T17:57:59.999Z</time></trkpt><trkpt lat="39.9195096" lon="-0.336743"><ele>419.33333333333337</ele><time>2026-04-19T17:58:00.999Z</time></trkpt><trkpt lat="39.9195913" lon="-0.3365708"><ele>423.0</ele><time>2026-04-19T17:58:02Z</time></trkpt><trkpt lat="39.9196542" lon="-0.3363947"><ele>420.0</ele><time>2026-04-19T17:58:02.999Z</time></trkpt><trkpt lat="39.9196971" lon="-0.3361998"><ele>417.0</ele><time>2026-04-19T17:58:03.999Z</time></trkpt><trkpt lat="39.9197167" lon="-0.3359931"><ele>414.0</ele><time>2026-04-19T17:58:04.999Z</time></trkpt><trkpt lat="39.9197232" lon="-0.3357747"><ele>414.0</ele><time>2026-04-19T17:58:05.999Z</time></trkpt><trkpt lat="39.9197277" lon="-0.3355547"><ele>414.0</ele><time>2026-04-19T17:58:06.999Z</time></trkpt><trkpt lat="39.9197372" lon="-0.3353457"><ele>414.0</ele><time>2026-04-19T17:58:07.999Z</time></trkpt><trkpt lat="39.9197614" lon="-0.3351584"><ele>410.5</ele><time>2026-04-19T17:58:09Z</time></trkpt><trkpt lat="39.9198037" lon="-0.3349935"><ele>407.0</ele><time>2026-04-19T17:58:09.999Z</time></trkpt><trkpt lat="39.9198668" lon="-0.3348603"><ele>403.5</ele><time>2026-04-19T17:58:10.999Z</time></trkpt><trkpt lat="39.9199486" lon="-0.3347652"><ele>400.0</ele><time>2026-04-19T17:58:11.999Z</time></trkpt><trkpt lat="39.9200547" lon="-0.3347105"><ele>400.0</ele><time>2026-04-19T17:58:12.999Z</time></trkpt><trkpt lat="39.9201811" lon="-0.3347061"><ele>400.0</ele><time>2026-04-19T17:58:13.999Z</time></trkpt><trkpt lat="39.9203282" lon="-0.3347436"><ele>400.0</ele><time>2026-04-19T17:58:14.999Z</time></trkpt><trkpt lat="39.9204875" lon="-0.3348106"><ele>400.0</ele><time>2026-04-19T17:58:15.999Z</time></trkpt><trkpt lat="39.9206504" lon="-0.3348801"><ele>400.0</ele><time>2026-04-19T17:58:16.999Z</time></trkpt><trkpt lat="39.9208347" lon="-0.3349241"><ele>400.0</ele><time>2026-04-19T17:58:18Z</time></trkpt><trkpt lat="39.9210375" lon="-0.3349506"><ele>400.0</ele><time>2026-04-19T17:58:18.999Z</time></trkpt><trkpt lat="39.9212486" lon="-0.3349803"><ele>396.6666666666667</ele><time>2026-04-19T17:58:19.999Z</time></trkpt><trkpt lat="39.9214474" lon="-0.3350135"><ele>393.33333333333337</ele><time>2026-04-19T17:58:20.999Z</time></trkpt><trkpt lat="39.9216408" lon="-0.3350534"><ele>390.0</ele><time>2026-04-19T17:58:21.999Z</time></trkpt><trkpt lat="39.921826" lon="-0.3351153"><ele>383.3333333333333</ele><time>2026-04-19T17:58:23Z</time></trkpt><trkpt lat="39.9219936" lon="-0.3351852"><ele>376.66666666666663</ele><time>2026-04-19T17:58:23.999Z</time></trkpt><trkpt lat="39.922148" lon="-0.335249"><ele>370.0</ele><time>2026-04-19T17:58:24.999Z</time></trkpt><trkpt lat="39.9223021" lon="-0.3352852"><ele>370.0</ele><time>2026-04-19T17:58:26Z</time></trkpt><trkpt lat="39.9224509" lon="-0.3352781"><ele>370.0</ele><time>2026-04-19T17:58:27Z</time></trkpt><trkpt lat="39.9225846" lon="-0.3352562"><ele>370.0</ele><time>2026-04-19T17:58:28Z</time></trkpt><trkpt lat="39.9226989" lon="-0.3352499"><ele>370.0</ele><time>2026-04-19T17:58:28.999Z</time></trkpt><trkpt lat="39.9228136" lon="-0.3352931"><ele>370.0</ele><time>2026-04-19T17:58:29.999Z</time></trkpt><trkpt lat="39.9229262" lon="-0.3353887"><ele>370.0</ele><time>2026-04-19T17:58:30.999Z</time></trkpt><trkpt lat="39.9230126" lon="-0.3355254"><ele>370.0</ele><time>2026-04-19T17:58:31.999Z</time></trkpt><trkpt lat="39.9230789" lon="-0.335696"><ele>370.0</ele><time>2026-04-19T17:58:32.999Z</time></trkpt><trkpt lat="39.9231325" lon="-0.3358854"><ele>370.0</ele><time>2026-04-19T17:58:33.999Z</time></trkpt><trkpt lat="39.9231958" lon="-0.3360848"><ele>370.0</ele><time>2026-04-19T17:58:34.999Z</time></trkpt><trkpt lat="39.9232735" lon="-0.3362734"><ele>370.0</ele><time>2026-04-19T17:58:35.999Z</time></trkpt><trkpt lat="39.9233748" lon="-0.3364457"><ele>369.3333333333333</ele><time>2026-04-19T17:58:36.999Z</time></trkpt><trkpt lat="39.9234927" lon="-0.3365898"><ele>368.6666666666667</ele><time>2026-04-19T17:58:37.999Z</time></trkpt><trkpt lat="39.9236333" lon="-0.3367071"><ele>368.0</ele><time>2026-04-19T17:58:38.999Z</time></trkpt><trkpt lat="39.9237906" lon="-0.3368041"><ele>368.0</ele><time>2026-04-19T17:58:39.999Z</time></trkpt><trkpt lat="39.9239498" lon="-0.3368859"><ele>368.0</ele><time>2026-04-19T17:58:40.999Z</time></trkpt><trkpt lat="39.92411" lon="-0.3369409"><ele>368.0</ele><time>2026-04-19T17:58:42Z</time></trkpt><trkpt lat="39.9242787" lon="-0.3369635"><ele>366.0</ele><time>2026-04-19T17:58:42.999Z</time></trkpt><trkpt lat="39.924458" lon="-0.3369583"><ele>364.0</ele><time>2026-04-19T17:58:43.999Z</time></trkpt><trkpt lat="39.9246416" lon="-0.3369402"><ele>362.0</ele><time>2026-04-19T17:58:44.999Z</time></trkpt><trkpt lat="39.9248063" lon="-0.3369206"><ele>362.0</ele><time>2026-04-19T17:58:45.999Z</time></trkpt><trkpt lat="39.9249605" lon="-0.3369041"><ele>362.0</ele><time>2026-04-19T17:58:46.999Z</time></trkpt><trkpt lat="39.9251115" lon="-0.3369101"><ele>362.0</ele><time>2026-04-19T17:58:48Z</time></trkpt><trkpt lat="39.9252621" lon="-0.336958"><ele>364.0</ele><time>2026-04-19T17:58:48.999Z</time></trkpt><trkpt lat="39.9254054" lon="-0.3370393"><ele>366.0</ele><time>2026-04-19T17:58:49.999Z</time></trkpt><trkpt lat="39.9255505" lon="-0.3371438"><ele>368.0</ele><time>2026-04-19T17:58:50.999Z</time></trkpt><trkpt lat="39.9257022" lon="-0.3372547"><ele>368.0</ele><time>2026-04-19T17:58:51.999Z</time></trkpt><trkpt lat="39.9258607" lon="-0.3373667"><ele>368.0</ele><time>2026-04-19T17:58:52.999Z</time></trkpt><trkpt lat="39.9260257" lon="-0.3374879"><ele>368.0</ele><time>2026-04-19T17:58:53.999Z</time></trkpt><trkpt lat="39.9261928" lon="-0.33761"><ele>364.33333333333337</ele><time>2026-04-19T17:58:54.999Z</time></trkpt><trkpt lat="39.9263626" lon="-0.3377309"><ele>360.6666666666667</ele><time>2026-04-19T17:58:56Z</time></trkpt><trkpt lat="39.9265234" lon="-0.3378388"><ele>357.0</ele><time>2026-04-19T17:58:57Z</time></trkpt><trkpt lat="39.9266724" lon="-0.3379466"><ele>355.3333333333333</ele><time>2026-04-19T17:58:57.999Z</time></trkpt><trkpt lat="39.926814" lon="-0.3380566"><ele>353.66666666666663</ele><time>2026-04-19T17:58:58.999Z</time></trkpt><trkpt lat="39.926947" lon="-0.3381597"><ele>352.0</ele><time>2026-04-19T17:58:59.999Z</time></trkpt><trkpt lat="39.9270621" lon="-0.3382722"><ele>352.0</ele><time>2026-04-19T17:59:00.999Z</time></trkpt><trkpt lat="39.9271513" lon="-0.3384063"><ele>352.0</ele><time>2026-04-19T17:59:01.999Z</time></trkpt><trkpt lat="39.9272173" lon="-0.3385577"><ele>352.0</ele><time>2026-04-19T17:59:03Z</time></trkpt><trkpt lat="39.927287" lon="-0.3386977"><ele>352.0</ele><time>2026-04-19T17:59:03.999Z</time></trkpt><trkpt lat="39.9273794" lon="-0.338809"><ele>352.75</ele><time>2026-04-19T17:59:04.999Z</time></trkpt><trkpt lat="39.9274901" lon="-0.3388903"><ele>353.5</ele><time>2026-04-19T17:59:06Z</time></trkpt><trkpt lat="39.9276116" lon="-0.3389258"><ele>354.25</ele><time>2026-04-19T17:59:07Z</time></trkpt><trkpt lat="39.9277251" lon="-0.3389168"><ele>355.0</ele><time>2026-04-19T17:59:07.999Z</time></trkpt><trkpt lat="39.9278327" lon="-0.3388565"><ele>359.25</ele><time>2026-04-19T17:59:08.999Z</time></trkpt><trkpt lat="39.9279201" lon="-0.3387549"><ele>363.5</ele><time>2026-04-19T17:59:09.999Z</time></trkpt><trkpt lat="39.9279871" lon="-0.3386189"><ele>367.75</ele><time>2026-04-19T17:59:10.999Z</time></trkpt><trkpt lat="39.9280328" lon="-0.3384531"><ele>372.0</ele><time>2026-04-19T17:59:11.999Z</time></trkpt><trkpt lat="39.9280696" lon="-0.3382688"><ele>372.0</ele><time>2026-04-19T17:59:12.999Z</time></trkpt><trkpt lat="39.9281053" lon="-0.3380742"><ele>372.0</ele><time>2026-04-19T17:59:13.999Z</time></trkpt><trkpt lat="39.9281372" lon="-0.3378778"><ele>372.0</ele><time>2026-04-19T17:59:14.999Z</time></trkpt><trkpt lat="39.9281539" lon="-0.3376919"><ele>368.5</ele><time>2026-04-19T17:59:15.999Z</time></trkpt><trkpt lat="39.9281751" lon="-0.3375364"><ele>365.0</ele><time>2026-04-19T17:59:16.999Z</time></trkpt><trkpt lat="39.9282197" lon="-0.3373952"><ele>361.5</ele><time>2026-04-19T17:59:17.999Z</time></trkpt><trkpt lat="39.9282907" lon="-0.3372726"><ele>358.0</ele><time>2026-04-19T17:59:18.999Z</time></trkpt><trkpt lat="39.9283995" lon="-0.3371857"><ele>355.0</ele><time>2026-04-19T17:59:20Z</time></trkpt><trkpt lat="39.9285328" lon="-0.3371257"><ele>352.0</ele><time>2026-04-19T17:59:20.999Z</time></trkpt><trkpt lat="39.9286783" lon="-0.3370705"><ele>349.0</ele><time>2026-04-19T17:59:21.999Z</time></trkpt><trkpt lat="39.9288407" lon="-0.3370291"><ele>349.0</ele><time>2026-04-19T17:59:22.999Z</time></trkpt><trkpt lat="39.9290119" lon="-0.3370095"><ele>349.0</ele><time>2026-04-19T17:59:23.999Z</time></trkpt><trkpt lat="39.9291917" lon="-0.3369964"><ele>349.0</ele><time>2026-04-19T17:59:25Z</time></trkpt><trkpt lat="39.9293827" lon="-0.3369744"><ele>348.3333333333333</ele><time>2026-04-19T17:59:25.999Z</time></trkpt><trkpt lat="39.9295709" lon="-0.3369518"><ele>347.6666666666667</ele><time>2026-04-19T17:59:27Z</time></trkpt><trkpt lat="39.9297491" lon="-0.3369375"><ele>347.0</ele><time>2026-04-19T17:59:27.999Z</time></trkpt><trkpt lat="39.9299196" lon="-0.3369152"><ele>345.6666666666667</ele><time>2026-04-19T17:59:28.999Z</time></trkpt><trkpt lat="39.9300807" lon="-0.3368981"><ele>344.3333333333333</ele><time>2026-04-19T17:59:29.999Z</time></trkpt><trkpt lat="39.9302368" lon="-0.3368929"><ele>343.0</ele><time>2026-04-19T17:59:30.999Z</time></trkpt><trkpt lat="39.9303999" lon="-0.3369138"><ele>343.0</ele><time>2026-04-19T17:59:31.999Z</time></trkpt><trkpt lat="39.9305654" lon="-0.3369482"><ele>343.0</ele><time>2026-04-19T17:59:32.999Z</time></trkpt><trkpt lat="39.930731" lon="-0.3369909"><ele>343.0</ele><time>2026-04-19T17:59:33.999Z</time></trkpt><trkpt lat="39.9308958" lon="-0.3370555"><ele>344.66666666666663</ele><time>2026-04-19T17:59:34.999Z</time></trkpt><trkpt lat="39.931056" lon="-0.3371324"><ele>346.3333333333333</ele><time>2026-04-19T17:59:36Z</time></trkpt><trkpt lat="39.9312155" lon="-0.33723"><ele>348.0</ele><time>2026-04-19T17:59:36.999Z</time></trkpt><trkpt lat="39.9313683" lon="-0.3373327"><ele>349.3333333333333</ele><time>2026-04-19T17:59:37.999Z</time></trkpt><trkpt lat="39.931525" lon="-0.3374279"><ele>350.66666666666663</ele><time>2026-04-19T17:59:38.999Z</time></trkpt><trkpt lat="39.9316869" lon="-0.3374975"><ele>352.0</ele><time>2026-04-19T17:59:39.999Z</time></trkpt><trkpt lat="39.9318587" lon="-0.3375396"><ele>352.3333333333333</ele><time>2026-04-19T17:59:40.999Z</time></trkpt><trkpt lat="39.9320341" lon="-0.3375603"><ele>352.6666666666667</ele><time>2026-04-19T17:59:41.999Z</time></trkpt><trkpt lat="39.9322027" lon="-0.3375676"><ele>353.0</ele><time>2026-04-19T17:59:42.999Z</time></trkpt><trkpt lat="39.9323526" lon="-0.3375777"><ele>353.0</ele><time>2026-04-19T17:59:44Z</time></trkpt><trkpt lat="39.9324935" lon="-0.3375746"><ele>353.0</ele><time>2026-04-19T17:59:44.999Z</time></trkpt><trkpt lat="39.9326184" lon="-0.3375411"><ele>353.0</ele><time>2026-04-19T17:59:46Z</time></trkpt><trkpt lat="39.9327338" lon="-0.3374627"><ele>353.0</ele><time>2026-04-19T17:59:46.999Z</time></trkpt><trkpt lat="39.9328526" lon="-0.3373499"><ele>352.33333333333337</ele><time>2026-04-19T17:59:47.999Z</time></trkpt><trkpt lat="39.9329756" lon="-0.3372238"><ele>351.6666666666667</ele><time>2026-04-19T17:59:48.999Z</time></trkpt><trkpt lat="39.9330865" lon="-0.3370956"><ele>351.0</ele><time>2026-04-19T17:59:49.999Z</time></trkpt><trkpt lat="39.9331836" lon="-0.3369473"><ele>351.0</ele><time>2026-04-19T17:59:50.999Z</time></trkpt><trkpt lat="39.9332457" lon="-0.336775"><ele>351.0</ele><time>2026-04-19T17:59:51.999Z</time></trkpt><trkpt lat="39.933287" lon="-0.3365859"><ele>351.0</ele><time>2026-04-19T17:59:53Z</time></trkpt><trkpt lat="39.9333243" lon="-0.3364118"><ele>351.0</ele><time>2026-04-19T17:59:53.999Z</time></trkpt><trkpt lat="39.933379" lon="-0.3362522"><ele>349.0</ele><time>2026-04-19T17:59:54.999Z</time></trkpt><trkpt lat="39.9334637" lon="-0.3361172"><ele>347.0</ele><time>2026-04-19T17:59:55.999Z</time></trkpt><trkpt lat="39.9335685" lon="-0.3360056"><ele>345.0</ele><time>2026-04-19T17:59:56.999Z</time></trkpt><trkpt lat="39.9336951" lon="-0.3359207"><ele>343.0</ele><time>2026-04-19T17:59:57.999Z</time></trkpt><trkpt lat="39.9338393" lon="-0.3358751"><ele>343.0</ele><time>2026-04-19T17:59:59Z</time></trkpt><trkpt lat="39.9339909" lon="-0.3358377"><ele>343.0</ele><time>2026-04-19T17:59:59.999Z</time></trkpt><trkpt lat="39.934151" lon="-0.3358029"><ele>343.0</ele><time>2026-04-19T18:00:00.999Z</time></trkpt><trkpt lat="39.9343143" lon="-0.3357745"><ele>350.66666666666663</ele><time>2026-04-19T18:00:01.999Z</time></trkpt><trkpt lat="39.9344743" lon="-0.3357294"><ele>358.3333333333333</ele><time>2026-04-19T18:00:02.999Z</time></trkpt><trkpt lat="39.9346307" lon="-0.335662"><ele>366.0</ele><time>2026-04-19T18:00:03.999Z</time></trkpt><trkpt lat="39.9347773" lon="-0.3355682"><ele>360.25</ele><time>2026-04-19T18:00:05Z</time></trkpt><trkpt lat="39.9349037" lon="-0.3354471"><ele>354.5</ele><time>2026-04-19T18:00:06Z</time></trkpt><trkpt lat="39.9350046" lon="-0.3353036"><ele>348.75</ele><time>2026-04-19T18:00:07Z</time></trkpt><trkpt lat="39.9350823" lon="-0.33516"><ele>343.0</ele><time>2026-04-19T18:00:07.999Z</time></trkpt><trkpt lat="39.9351599" lon="-0.3350402"><ele>343.0</ele><time>2026-04-19T18:00:08.999Z</time></trkpt><trkpt lat="39.9352651" lon="-0.3349703"><ele>343.0</ele><time>2026-04-19T18:00:10Z</time></trkpt><trkpt lat="39.935385" lon="-0.3349346"><ele>343.0</ele><time>2026-04-19T18:00:10.999Z</time></trkpt><trkpt lat="39.9355154" lon="-0.3349447"><ele>343.0</ele><time>2026-04-19T18:00:11.999Z</time></trkpt><trkpt lat="39.935654" lon="-0.3349844"><ele>343.0</ele><time>2026-04-19T18:00:12.999Z</time></trkpt><trkpt lat="39.9357796" lon="-0.3350378"><ele>343.0</ele><time>2026-04-19T18:00:13.999Z</time></trkpt><trkpt lat="39.935897" lon="-0.3350945"><ele>343.0</ele><time>2026-04-19T18:00:14.999Z</time></trkpt><trkpt lat="39.9360045" lon="-0.3351478"><ele>343.0</ele><time>2026-04-19T18:00:15.999Z</time></trkpt><trkpt lat="39.9361062" lon="-0.3351943"><ele>344.0</ele><time>2026-04-19T18:00:16.999Z</time></trkpt><trkpt lat="39.936214" lon="-0.3352132"><ele>345.0</ele><time>2026-04-19T18:00:18Z</time></trkpt><trkpt lat="39.9363108" lon="-0.3351886"><ele>346.0</ele><time>2026-04-19T18:00:18.999Z</time></trkpt><trkpt lat="39.9363963" lon="-0.3351365"><ele>347.0</ele><time>2026-04-19T18:00:19.999Z</time></trkpt><trkpt lat="39.9364808" lon="-0.3350634"><ele>348.0</ele><time>2026-04-19T18:00:20.999Z</time></trkpt><trkpt lat="39.9365748" lon="-0.3349965"><ele>348.0</ele><time>2026-04-19T18:00:21.999Z</time></trkpt><trkpt lat="39.9366769" lon="-0.3349329"><ele>348.0</ele><time>2026-04-19T18:00:23Z</time></trkpt><trkpt lat="39.9367915" lon="-0.3348733"><ele>348.0</ele><time>2026-04-19T18:00:23.999Z</time></trkpt><trkpt lat="39.936915" lon="-0.3348121"><ele>348.0</ele><time>2026-04-19T18:00:25Z</time></trkpt><trkpt lat="39.9370414" lon="-0.3347376"><ele>346.5</ele><time>2026-04-19T18:00:25.999Z</time></trkpt><trkpt lat="39.9371565" lon="-0.3346451"><ele>345.0</ele><time>2026-04-19T18:00:26.999Z</time></trkpt><trkpt lat="39.9372624" lon="-0.334522"><ele>343.5</ele><time>2026-04-19T18:00:28Z</time></trkpt><trkpt lat="39.9373683" lon="-0.3343775"><ele>342.0</ele><time>2026-04-19T18:00:29Z</time></trkpt><trkpt lat="39.9374684" lon="-0.3342301"><ele>351.6</ele><time>2026-04-19T18:00:29.999Z</time></trkpt><trkpt lat="39.9375573" lon="-0.334095"><ele>361.20000000000005</ele><time>2026-04-19T18:00:31Z</time></trkpt><trkpt lat="39.9376246" lon="-0.3339756"><ele>370.8</ele><time>2026-04-19T18:00:31.999Z</time></trkpt><trkpt lat="39.9376651" lon="-0.3338687"><ele>380.4</ele><time>2026-04-19T18:00:32.999Z</time></trkpt><trkpt lat="39.937675" lon="-0.3337586"><ele>390.0</ele><time>2026-04-19T18:00:34Z</time></trkpt><trkpt lat="39.9376586" lon="-0.333657"><ele>390.5</ele><time>2026-04-19T18:00:34.999Z</time></trkpt><trkpt lat="39.9376142" lon="-0.3335774"><ele>391.0</ele><time>2026-04-19T18:00:35.999Z</time></trkpt><trkpt lat="39.9375579" lon="-0.3335192"><ele>391.5</ele><time>2026-04-19T18:00:36.999Z</time></trkpt><trkpt lat="39.9374951" lon="-0.3334571"><ele>392.0</ele><time>2026-04-19T18:00:38Z</time></trkpt><trkpt lat="39.9374347" lon="-0.3333844"><ele>392.5</ele><time>2026-04-19T18:00:38.999Z</time></trkpt><trkpt lat="39.9373736" lon="-0.3333091"><ele>393.0</ele><time>2026-04-19T18:00:39.999Z</time></trkpt><trkpt lat="39.9373087" lon="-0.3332397"><ele>385.4</ele><time>2026-04-19T18:00:40.999Z</time></trkpt><trkpt lat="39.9372406" lon="-0.3331605"><ele>377.79999999999995</ele><time>2026-04-19T18:00:41.999Z</time></trkpt><trkpt lat="39.9371756" lon="-0.3330683"><ele>370.2</ele><time>2026-04-19T18:00:43Z</time></trkpt><trkpt lat="39.9371072" lon="-0.3329706"><ele>362.6</ele><time>2026-04-19T18:00:43.999Z</time></trkpt><trkpt lat="39.9370327" lon="-0.3328727"><ele>355.0</ele><time>2026-04-19T18:00:45Z</time></trkpt><trkpt lat="39.9369661" lon="-0.3327859"><ele>355.0</ele><time>2026-04-19T18:00:45.999Z</time></trkpt><trkpt lat="39.9369126" lon="-0.3326933"><ele>355.0</ele><time>2026-04-19T18:00:46.999Z</time></trkpt><trkpt lat="39.9368797" lon="-0.3325886"><ele>355.0</ele><time>2026-04-19T18:00:47.999Z</time></trkpt><trkpt lat="39.9368787" lon="-0.3324832"><ele>355.0</ele><time>2026-04-19T18:00:49Z</time></trkpt><trkpt lat="39.9369099" lon="-0.3323849"><ele>355.0</ele><time>2026-04-19T18:00:49.999Z</time></trkpt><trkpt lat="39.9369795" lon="-0.3323035"><ele>355.0</ele><time>2026-04-19T18:00:51Z</time></trkpt><trkpt lat="39.9370737" lon="-0.3322218"><ele>351.0</ele><time>2026-04-19T18:00:51.999Z</time></trkpt><trkpt lat="39.9371671" lon="-0.3321156"><ele>347.0</ele><time>2026-04-19T18:00:53Z</time></trkpt><trkpt lat="39.9372429" lon="-0.3319906"><ele>343.0</ele><time>2026-04-19T18:00:53.999Z</time></trkpt><trkpt lat="39.9373146" lon="-0.3318433"><ele>339.0</ele><time>2026-04-19T18:00:54.999Z</time></trkpt><trkpt lat="39.9373855" lon="-0.3316876"><ele>339.0</ele><time>2026-04-19T18:00:55.999Z</time></trkpt><trkpt lat="39.9374585" lon="-0.3315227"><ele>339.0</ele><time>2026-04-19T18:00:57Z</time></trkpt><trkpt lat="39.9375157" lon="-0.331341"><ele>339.0</ele><time>2026-04-19T18:00:57.999Z</time></trkpt><trkpt lat="39.9375429" lon="-0.3311456"><ele>339.0</ele><time>2026-04-19T18:00:58.999Z</time></trkpt><trkpt lat="39.9375453" lon="-0.3309518"><ele>335.5</ele><time>2026-04-19T18:00:59.999Z</time></trkpt><trkpt lat="39.9375343" lon="-0.3307851"><ele>332.0</ele><time>2026-04-19T18:01:00.999Z</time></trkpt><trkpt lat="39.9375445" lon="-0.3306206"><ele>328.5</ele><time>2026-04-19T18:01:02Z</time></trkpt><trkpt lat="39.9375957" lon="-0.3304596"><ele>325.0</ele><time>2026-04-19T18:01:02.999Z</time></trkpt><trkpt lat="39.9376781" lon="-0.3303108"><ele>325.0</ele><time>2026-04-19T18:01:03.999Z</time></trkpt><trkpt lat="39.9378004" lon="-0.3301874"><ele>325.0</ele><time>2026-04-19T18:01:05Z</time></trkpt><trkpt lat="39.937945" lon="-0.3300991"><ele>325.0</ele><time>2026-04-19T18:01:05.999Z</time></trkpt><trkpt lat="39.9381045" lon="-0.3300271"><ele>325.0</ele><time>2026-04-19T18:01:06.999Z</time></trkpt><trkpt lat="39.9382747" lon="-0.3299637"><ele>325.0</ele><time>2026-04-19T18:01:07.999Z</time></trkpt><trkpt lat="39.9384549" lon="-0.3299358"><ele>325.0</ele><time>2026-04-19T18:01:08.999Z</time></trkpt><trkpt lat="39.9386415" lon="-0.3299494"><ele>322.0</ele><time>2026-04-19T18:01:10Z</time></trkpt><trkpt lat="39.9388162" lon="-0.3299836"><ele>319.0</ele><time>2026-04-19T18:01:10.999Z</time></trkpt><trkpt lat="39.9389703" lon="-0.3300269"><ele>316.0</ele><time>2026-04-19T18:01:11.999Z</time></trkpt><trkpt lat="39.9391064" lon="-0.3300584"><ele>315.25</ele><time>2026-04-19T18:01:12.999Z</time></trkpt><trkpt lat="39.9392382" lon="-0.3300503"><ele>314.5</ele><time>2026-04-19T18:01:13.999Z</time></trkpt><trkpt lat="39.9393646" lon="-0.3299994"><ele>313.75</ele><time>2026-04-19T18:01:14.999Z</time></trkpt><trkpt lat="39.9394878" lon="-0.3299088"><ele>313.0</ele><time>2026-04-19T18:01:15.999Z</time></trkpt><trkpt lat="39.9396183" lon="-0.3298164"><ele>313.0</ele><time>2026-04-19T18:01:16.999Z</time></trkpt><trkpt lat="39.9397633" lon="-0.329775"><ele>313.0</ele><time>2026-04-19T18:01:18Z</time></trkpt><trkpt lat="39.9399037" lon="-0.3297438"><ele>313.0</ele><time>2026-04-19T18:01:19Z</time></trkpt><trkpt lat="39.9400311" lon="-0.3296756"><ele>313.0</ele><time>2026-04-19T18:01:19.999Z</time></trkpt><trkpt lat="39.9401486" lon="-0.3295821"><ele>316.5</ele><time>2026-04-19T18:01:20.999Z</time></trkpt><trkpt lat="39.9402504" lon="-0.3294749"><ele>320.0</ele><time>2026-04-19T18:01:21.999Z</time></trkpt><trkpt lat="39.9403273" lon="-0.3293469"><ele>323.5</ele><time>2026-04-19T18:01:23Z</time></trkpt><trkpt lat="39.9403735" lon="-0.3291898"><ele>327.0</ele><time>2026-04-19T18:01:23.999Z</time></trkpt><trkpt lat="39.9403903" lon="-0.3290201"><ele>325.25</ele><time>2026-04-19T18:01:25Z</time></trkpt><trkpt lat="39.9403964" lon="-0.3288392"><ele>323.5</ele><time>2026-04-19T18:01:25.999Z</time></trkpt><trkpt lat="39.9404244" lon="-0.3286566"><ele>321.75</ele><time>2026-04-19T18:01:27Z</time></trkpt><trkpt lat="39.9404822" lon="-0.3284796"><ele>320.0</ele><time>2026-04-19T18:01:28Z</time></trkpt><trkpt lat="39.940559" lon="-0.3282991"><ele>320.0</ele><time>2026-04-19T18:01:28.999Z</time></trkpt><trkpt lat="39.940637" lon="-0.3281114"><ele>320.0</ele><time>2026-04-19T18:01:29.999Z</time></trkpt><trkpt lat="39.9407059" lon="-0.3279095"><ele>320.0</ele><time>2026-04-19T18:01:30.999Z</time></trkpt><trkpt lat="39.9407475" lon="-0.3276986"><ele>315.6666666666667</ele><time>2026-04-19T18:01:31.999Z</time></trkpt><trkpt lat="39.9407665" lon="-0.3274852"><ele>311.3333333333333</ele><time>2026-04-19T18:01:32.999Z</time></trkpt><trkpt lat="39.940764" lon="-0.3272892"><ele>307.0</ele><time>2026-04-19T18:01:34Z</time></trkpt><trkpt lat="39.9407292" lon="-0.3271043"><ele>305.25</ele><time>2026-04-19T18:01:35Z</time></trkpt><trkpt lat="39.9406732" lon="-0.3269273"><ele>303.5</ele><time>2026-04-19T18:01:35.999Z</time></trkpt><trkpt lat="39.9406414" lon="-0.3267427"><ele>301.75</ele><time>2026-04-19T18:01:36.999Z</time></trkpt><trkpt lat="39.9406433" lon="-0.3265476"><ele>300.0</ele><time>2026-04-19T18:01:37.999Z</time></trkpt><trkpt lat="39.9406432" lon="-0.3263483"><ele>299.0</ele><time>2026-04-19T18:01:39Z</time></trkpt><trkpt lat="39.9406229" lon="-0.3261355"><ele>298.0</ele><time>2026-04-19T18:01:40Z</time></trkpt><trkpt lat="39.9405933" lon="-0.3259278"><ele>297.0</ele><time>2026-04-19T18:01:40.999Z</time></trkpt><trkpt lat="39.9405793" lon="-0.3257326"><ele>296.0</ele><time>2026-04-19T18:01:41.999Z</time></trkpt><trkpt lat="39.9405975" lon="-0.3255393"><ele>295.0</ele><time>2026-04-19T18:01:42.999Z</time></trkpt><trkpt lat="39.9406478" lon="-0.3253403"><ele>294.0</ele><time>2026-04-19T18:01:44Z</time></trkpt><trkpt lat="39.94072" lon="-0.3251471"><ele>294.0</ele><time>2026-04-19T18:01:44.999Z</time></trkpt><trkpt lat="39.940803" lon="-0.3249547"><ele>294.0</ele><time>2026-04-19T18:01:45.999Z</time></trkpt><trkpt lat="39.9408826" lon="-0.3247522"><ele>294.0</ele><time>2026-04-19T18:01:46.999Z</time></trkpt><trkpt lat="39.9409505" lon="-0.3245334"><ele>296.3333333333333</ele><time>2026-04-19T18:01:47.999Z</time></trkpt><trkpt lat="39.9410034" lon="-0.3242891"><ele>298.66666666666663</ele><time>2026-04-19T18:01:48.999Z</time></trkpt><trkpt lat="39.9410493" lon="-0.3240385"><ele>301.0</ele><time>2026-04-19T18:01:49.999Z</time></trkpt><trkpt lat="39.9411053" lon="-0.323786"><ele>301.0</ele><time>2026-04-19T18:01:50.999Z</time></trkpt><trkpt lat="39.941173" lon="-0.3235392"><ele>301.0</ele><time>2026-04-19T18:01:52Z</time></trkpt><trkpt lat="39.9412446" lon="-0.3232894"><ele>301.0</ele><time>2026-04-19T18:01:52.999Z</time></trkpt><trkpt lat="39.9413181" lon="-0.3230407"><ele>296.66666666666663</ele><time>2026-04-19T18:01:53.999Z</time></trkpt><trkpt lat="39.9413987" lon="-0.3227796"><ele>292.3333333333333</ele><time>2026-04-19T18:01:55Z</time></trkpt><trkpt lat="39.9414757" lon="-0.3225182"><ele>288.0</ele><time>2026-04-19T18:01:56Z</time></trkpt><trkpt lat="39.9415511" lon="-0.3222549"><ele>283.3333333333333</ele><time>2026-04-19T18:01:56.999Z</time></trkpt><trkpt lat="39.9416285" lon="-0.3219916"><ele>278.66666666666663</ele><time>2026-04-19T18:01:57.999Z</time></trkpt><trkpt lat="39.9417031" lon="-0.3217317"><ele>274.0</ele><time>2026-04-19T18:01:58.999Z</time></trkpt><trkpt lat="39.941782" lon="-0.3214697"><ele>273.0</ele><time>2026-04-19T18:01:59.999Z</time></trkpt><trkpt lat="39.9418571" lon="-0.3212195"><ele>272.0</ele><time>2026-04-19T18:02:01Z</time></trkpt><trkpt lat="39.9419295" lon="-0.3209741"><ele>271.0</ele><time>2026-04-19T18:02:01.999Z</time></trkpt><trkpt lat="39.9419947" lon="-0.3207522"><ele>271.66666666666663</ele><time>2026-04-19T18:02:02.999Z</time></trkpt><trkpt lat="39.9420533" lon="-0.3205393"><ele>272.3333333333333</ele><time>2026-04-19T18:02:03.999Z</time></trkpt><trkpt lat="39.9420906" lon="-0.3203296"><ele>273.0</ele><time>2026-04-19T18:02:04.999Z</time></trkpt><trkpt lat="39.9421081" lon="-0.3201045"><ele>273.0</ele><time>2026-04-19T18:02:05.999Z</time></trkpt><trkpt lat="39.9420998" lon="-0.3198817"><ele>273.0</ele><time>2026-04-19T18:02:06.999Z</time></trkpt><trkpt lat="39.9420716" lon="-0.3196477"><ele>273.0</ele><time>2026-04-19T18:02:07.999Z</time></trkpt><trkpt lat="39.9420394" lon="-0.3194116"><ele>270.3333333333333</ele><time>2026-04-19T18:02:08.999Z</time></trkpt><trkpt lat="39.9420054" lon="-0.3191722"><ele>267.66666666666663</ele><time>2026-04-19T18:02:09.999Z</time></trkpt><trkpt lat="39.941974" lon="-0.3189325"><ele>265.0</ele><time>2026-04-19T18:02:10.999Z</time></trkpt><trkpt lat="39.9419379" lon="-0.3186966"><ele>264.3333333333333</ele><time>2026-04-19T18:02:11.999Z</time></trkpt><trkpt lat="39.9419025" lon="-0.3184748"><ele>263.6666666666667</ele><time>2026-04-19T18:02:13Z</time></trkpt><trkpt lat="39.941874" lon="-0.3182487"><ele>263.0</ele><time>2026-04-19T18:02:13.999Z</time></trkpt><trkpt lat="39.9418649" lon="-0.3180212"><ele>262.0</ele><time>2026-04-19T18:02:14.999Z</time></trkpt><trkpt lat="39.9418833" lon="-0.3177873"><ele>261.0</ele><time>2026-04-19T18:02:15.999Z</time></trkpt><trkpt lat="39.9419069" lon="-0.3175513"><ele>260.0</ele><time>2026-04-19T18:02:17Z</time></trkpt><trkpt lat="39.9419113" lon="-0.3173207"><ele>260.5</ele><time>2026-04-19T18:02:17.999Z</time></trkpt><trkpt lat="39.9419104" lon="-0.3168876"><ele>261.0</ele><time>2026-04-19T18:02:20.6Z</time></trkpt><trkpt lat="39.942008" lon="-0.3164743"><ele>262.3333333333333</ele><time>2026-04-19T18:02:22.952Z</time></trkpt><trkpt lat="39.9421546" lon="-0.3162399"><ele>263.66666666666663</ele><time>2026-04-19T18:02:23.999Z</time></trkpt><trkpt lat="39.9422634" lon="-0.3160753"><ele>265.0</ele><time>2026-04-19T18:02:24.999Z</time></trkpt><trkpt lat="39.9423809" lon="-0.3158955"><ele>265.0</ele><time>2026-04-19T18:02:25.999Z</time></trkpt><trkpt lat="39.9425055" lon="-0.3157071"><ele>265.0</ele><time>2026-04-19T18:02:26.999Z</time></trkpt><trkpt lat="39.9426369" lon="-0.3155194"><ele>265.0</ele><time>2026-04-19T18:02:27.998Z</time></trkpt><trkpt lat="39.9427673" lon="-0.3153276"><ele>265.3333333333333</ele><time>2026-04-19T18:02:28.999Z</time></trkpt><trkpt lat="39.9428959" lon="-0.3151251"><ele>265.6666666666667</ele><time>2026-04-19T18:02:29.999Z</time></trkpt><trkpt lat="39.9430314" lon="-0.3149268"><ele>266.0</ele><time>2026-04-19T18:02:30.999Z</time></trkpt><trkpt lat="39.9431663" lon="-0.3147273"><ele>266.0</ele><time>2026-04-19T18:02:31.999Z</time></trkpt><trkpt lat="39.9433059" lon="-0.3145292"><ele>266.0</ele><time>2026-04-19T18:02:32.999Z</time></trkpt><trkpt lat="39.9434581" lon="-0.31434"><ele>266.0</ele><time>2026-04-19T18:02:33.999Z</time></trkpt><trkpt lat="39.9436208" lon="-0.3141659"><ele>265.33333333333337</ele><time>2026-04-19T18:02:34.999Z</time></trkpt><trkpt lat="39.9437897" lon="-0.3139994"><ele>264.6666666666667</ele><time>2026-04-19T18:02:35.999Z</time></trkpt><trkpt lat="39.9439641" lon="-0.3138375"><ele>264.0</ele><time>2026-04-19T18:02:36.999Z</time></trkpt><trkpt lat="39.9441364" lon="-0.3136743"><ele>262.0</ele><time>2026-04-19T18:02:37.999Z</time></trkpt><trkpt lat="39.9442987" lon="-0.3135182"><ele>260.0</ele><time>2026-04-19T18:02:38.999Z</time></trkpt><trkpt lat="39.9444562" lon="-0.3133774"><ele>258.0</ele><time>2026-04-19T18:02:40Z</time></trkpt><trkpt lat="39.9446253" lon="-0.3132641"><ele>258.0</ele><time>2026-04-19T18:02:40.999Z</time></trkpt><trkpt lat="39.9448123" lon="-0.3131932"><ele>258.0</ele><time>2026-04-19T18:02:41.999Z</time></trkpt><trkpt lat="39.9450061" lon="-0.3131426"><ele>258.0</ele><time>2026-04-19T18:02:42.999Z</time></trkpt><trkpt lat="39.9451841" lon="-0.3130947"><ele>258.0</ele><time>2026-04-19T18:02:44Z</time></trkpt><trkpt lat="39.9453354" lon="-0.3130523"><ele>258.0</ele><time>2026-04-19T18:02:44.999Z</time></trkpt><trkpt lat="39.9454616" lon="-0.3130053"><ele>258.0</ele><time>2026-04-19T18:02:45.999Z</time></trkpt><trkpt lat="39.9455719" lon="-0.3129351"><ele>258.0</ele><time>2026-04-19T18:02:46.999Z</time></trkpt><trkpt lat="39.9456595" lon="-0.3128478"><ele>258.0</ele><time>2026-04-19T18:02:47.999Z</time></trkpt><trkpt lat="39.9457306" lon="-0.3127382"><ele>258.0</ele><time>2026-04-19T18:02:48.999Z</time></trkpt><trkpt lat="39.9457855" lon="-0.3126048"><ele>258.0</ele><time>2026-04-19T18:02:50Z</time></trkpt><trkpt lat="39.9458089" lon="-0.3124651"><ele>258.0</ele><time>2026-04-19T18:02:51Z</time></trkpt><trkpt lat="39.9457941" lon="-0.3123167"><ele>255.5</ele><time>2026-04-19T18:02:51.999Z</time></trkpt><trkpt lat="39.9457446" lon="-0.3121688"><ele>253.0</ele><time>2026-04-19T18:02:53Z</time></trkpt><trkpt lat="39.9456633" lon="-0.3120393"><ele>250.5</ele><time>2026-04-19T18:02:54Z</time></trkpt><trkpt lat="39.945558" lon="-0.3119295"><ele>248.0</ele><time>2026-04-19T18:02:55Z</time></trkpt><trkpt lat="39.9454399" lon="-0.3118197"><ele>248.0</ele><time>2026-04-19T18:02:56Z</time></trkpt><trkpt lat="39.94532" lon="-0.3116936"><ele>248.0</ele><time>2026-04-19T18:02:56.999Z</time></trkpt><trkpt lat="39.9452088" lon="-0.3115591"><ele>248.0</ele><time>2026-04-19T18:02:57.999Z</time></trkpt><trkpt lat="39.9451201" lon="-0.3114024"><ele>246.0</ele><time>2026-04-19T18:02:58.999Z</time></trkpt><trkpt lat="39.9450525" lon="-0.3112157"><ele>244.0</ele><time>2026-04-19T18:02:59.999Z</time></trkpt><trkpt lat="39.9450174" lon="-0.3110031"><ele>242.0</ele><time>2026-04-19T18:03:00.999Z</time></trkpt><trkpt lat="39.9450087" lon="-0.3107883"><ele>244.75</ele><time>2026-04-19T18:03:01.999Z</time></trkpt><trkpt lat="39.9450215" lon="-0.3105833"><ele>247.5</ele><time>2026-04-19T18:03:02.999Z</time></trkpt><trkpt lat="39.9450492" lon="-0.3104"><ele>250.25</ele><time>2026-04-19T18:03:03.999Z</time></trkpt><trkpt lat="39.9450999" lon="-0.310239"><ele>253.0</ele><time>2026-04-19T18:03:05Z</time></trkpt><trkpt lat="39.9451839" lon="-0.3101188"><ele>253.0</ele><time>2026-04-19T18:03:05.999Z</time></trkpt><trkpt lat="39.9452915" lon="-0.3100232"><ele>253.0</ele><time>2026-04-19T18:03:07Z</time></trkpt><trkpt lat="39.9454134" lon="-0.3099628"><ele>253.0</ele><time>2026-04-19T18:03:07.999Z</time></trkpt><trkpt lat="39.9455505" lon="-0.3099236"><ele>253.0</ele><time>2026-04-19T18:03:08.999Z</time></trkpt><trkpt lat="39.9456978" lon="-0.309914"><ele>253.0</ele><time>2026-04-19T18:03:09.999Z</time></trkpt><trkpt lat="39.9458434" lon="-0.3099254"><ele>253.0</ele><time>2026-04-19T18:03:10.999Z</time></trkpt><trkpt lat="39.9459806" lon="-0.3099571"><ele>253.0</ele><time>2026-04-19T18:03:11.999Z</time></trkpt><trkpt lat="39.9461003" lon="-0.3100123"><ele>253.0</ele><time>2026-04-19T18:03:12.999Z</time></trkpt><trkpt lat="39.9462081" lon="-0.310072"><ele>252.75</ele><time>2026-04-19T18:03:13.999Z</time></trkpt><trkpt lat="39.9463146" lon="-0.3101049"><ele>252.5</ele><time>2026-04-19T18:03:14.999Z</time></trkpt><trkpt lat="39.9464334" lon="-0.3101082"><ele>252.25</ele><time>2026-04-19T18:03:15.999Z</time></trkpt><trkpt lat="39.94656" lon="-0.3100894"><ele>252.0</ele><time>2026-04-19T18:03:16.999Z</time></trkpt><trkpt lat="39.9466948" lon="-0.3100602"><ele>249.75</ele><time>2026-04-19T18:03:18Z</time></trkpt><trkpt lat="39.9468377" lon="-0.310024"><ele>247.5</ele><time>2026-04-19T18:03:18.999Z</time></trkpt><trkpt lat="39.9469785" lon="-0.3099834"><ele>245.25</ele><time>2026-04-19T18:03:19.999Z</time></trkpt><trkpt lat="39.9470999" lon="-0.3099486"><ele>243.0</ele><time>2026-04-19T18:03:20.999Z</time></trkpt><trkpt lat="39.9472146" lon="-0.3099136"><ele>243.0</ele><time>2026-04-19T18:03:21.999Z</time></trkpt><trkpt lat="39.9473127" lon="-0.3098945"><ele>243.0</ele><time>2026-04-19T18:03:22.999Z</time></trkpt><trkpt lat="39.9474348" lon="-0.3098821"><ele>243.0</ele><time>2026-04-19T18:03:24Z</time></trkpt><trkpt lat="39.9475606" lon="-0.3098713"><ele>243.0</ele><time>2026-04-19T18:03:24.999Z</time></trkpt><trkpt lat="39.9476861" lon="-0.3098426"><ele>243.0</ele><time>2026-04-19T18:03:26Z</time></trkpt><trkpt lat="39.9478201" lon="-0.3098098"><ele>243.0</ele><time>2026-04-19T18:03:26.999Z</time></trkpt><trkpt lat="39.9479526" lon="-0.3097443"><ele>243.0</ele><time>2026-04-19T18:03:27.999Z</time></trkpt><trkpt lat="39.9480807" lon="-0.309668"><ele>243.0</ele><time>2026-04-19T18:03:28.999Z</time></trkpt><trkpt lat="39.948208" lon="-0.3095944"><ele>243.0</ele><time>2026-04-19T18:03:29.999Z</time></trkpt><trkpt lat="39.9483236" lon="-0.3095241"><ele>243.0</ele><time>2026-04-19T18:03:30.999Z</time></trkpt><trkpt lat="39.9484274" lon="-0.3094477"><ele>243.0</ele><time>2026-04-19T18:03:32Z</time></trkpt><trkpt lat="39.9485236" lon="-0.3093603"><ele>243.0</ele><time>2026-04-19T18:03:32.999Z</time></trkpt><trkpt lat="39.9485935" lon="-0.3092451"><ele>241.4</ele><time>2026-04-19T18:03:33.999Z</time></trkpt><trkpt lat="39.9486439" lon="-0.3091122"><ele>239.8</ele><time>2026-04-19T18:03:34.999Z</time></trkpt><trkpt lat="39.9486823" lon="-0.3089842"><ele>238.2</ele><time>2026-04-19T18:03:35.999Z</time></trkpt><trkpt lat="39.9487085" lon="-0.3088535"><ele>236.6</ele><time>2026-04-19T18:03:36.999Z</time></trkpt><trkpt lat="39.94873" lon="-0.3087145"><ele>235.0</ele><time>2026-04-19T18:03:37.999Z</time></trkpt><trkpt lat="39.948751" lon="-0.3085676"><ele>235.0</ele><time>2026-04-19T18:03:39Z</time></trkpt><trkpt lat="39.9487753" lon="-0.3084157"><ele>235.0</ele><time>2026-04-19T18:03:39.999Z</time></trkpt><trkpt lat="39.948796" lon="-0.3082651"><ele>235.0</ele><time>2026-04-19T18:03:40.999Z</time></trkpt><trkpt lat="39.9488137" lon="-0.3081231"><ele>235.0</ele><time>2026-04-19T18:03:41.999Z</time></trkpt><trkpt lat="39.9488304" lon="-0.3079942"><ele>235.0</ele><time>2026-04-19T18:03:43Z</time></trkpt><trkpt lat="39.9488462" lon="-0.3078781"><ele>235.16666666666666</ele><time>2026-04-19T18:03:43.999Z</time></trkpt><trkpt lat="39.9488624" lon="-0.3077628"><ele>235.33333333333331</ele><time>2026-04-19T18:03:44.999Z</time></trkpt><trkpt lat="39.9488745" lon="-0.3076606"><ele>235.5</ele><time>2026-04-19T18:03:46Z</time></trkpt><trkpt lat="39.9488939" lon="-0.3075659"><ele>235.66666666666669</ele><time>2026-04-19T18:03:47Z</time></trkpt><trkpt lat="39.9489072" lon="-0.3074729"><ele>235.83333333333334</ele><time>2026-04-19T18:03:48Z</time></trkpt><trkpt lat="39.9489209" lon="-0.3073777"><ele>236.0</ele><time>2026-04-19T18:03:49Z</time></trkpt><trkpt lat="39.948935" lon="-0.3072707"><ele>236.00000000000003</ele><time>2026-04-19T18:03:50Z</time></trkpt><trkpt lat="39.9489537" lon="-0.3071548"><ele>236.0</ele><time>2026-04-19T18:03:50.999Z</time></trkpt><trkpt lat="39.9489785" lon="-0.30705"><ele>236.0</ele><time>2026-04-19T18:03:51.999Z</time></trkpt><trkpt lat="39.9490186" lon="-0.3069514"><ele>236.0</ele><time>2026-04-19T18:03:52.999Z</time></trkpt><trkpt lat="39.9490699" lon="-0.3068574"><ele>236.00000000000003</ele><time>2026-04-19T18:03:54Z</time></trkpt><trkpt lat="39.94913" lon="-0.3067726"><ele>236.0</ele><time>2026-04-19T18:03:54.999Z</time></trkpt><trkpt lat="39.9491893" lon="-0.3066956"><ele>236.00000000000003</ele><time>2026-04-19T18:03:55.999Z</time></trkpt><trkpt lat="39.9492404" lon="-0.3066176"><ele>236.0</ele><time>2026-04-19T18:03:56.999Z</time></trkpt><trkpt lat="39.949282" lon="-0.3065558"><ele>236.0</ele><time>2026-04-19T18:03:57.999Z</time></trkpt><trkpt lat="39.9493164" lon="-0.3064433"><ele>236.0</ele><time>2026-04-19T18:03:59.999Z</time></trkpt><trkpt lat="39.9492941" lon="-0.3063548"><ele>236.00000000000003</ele><time>2026-04-19T18:04:01.999Z</time></trkpt><trkpt lat="39.9492037" lon="-0.3063136"><ele>236.0</ele><time>2026-04-19T18:04:03.999Z</time></trkpt><trkpt lat="39.9491392" lon="-0.3063032"><ele>236.0</ele><time>2026-04-19T18:04:05Z</time></trkpt><trkpt lat="39.9490665" lon="-0.3062939"><ele>236.0</ele><time>2026-04-19T18:04:05.999Z</time></trkpt><trkpt lat="39.948986" lon="-0.3062809"><ele>236.0</ele><time>2026-04-19T18:04:06.999Z</time></trkpt><trkpt lat="39.948916" lon="-0.3062692"><ele>236.0</ele><time>2026-04-19T18:04:07.999Z</time></trkpt><trkpt lat="39.9488527" lon="-0.306257"><ele>236.0</ele><time>2026-04-19T18:04:08.999Z</time></trkpt><trkpt lat="39.9487837" lon="-0.306247"><ele>236.0</ele><time>2026-04-19T18:04:09.999Z</time></trkpt><trkpt lat="39.9487109" lon="-0.3062356"><ele>236.0</ele><time>2026-04-19T18:04:10.999Z</time></trkpt><trkpt lat="39.9486371" lon="-0.3062251"><ele>236.00000000000003</ele><time>2026-04-19T18:04:11.999Z</time></trkpt><trkpt lat="39.9485574" lon="-0.3062104"><ele>236.0</ele><time>2026-04-19T18:04:12.999Z</time></trkpt><trkpt lat="39.948474" lon="-0.3061914"><ele>236.0</ele><time>2026-04-19T18:04:14Z</time></trkpt><trkpt lat="39.9483947" lon="-0.3061769"><ele>236.0</ele><time>2026-04-19T18:04:14.999Z</time></trkpt><trkpt lat="39.9483268" lon="-0.3061655"><ele>236.00000000000003</ele><time>2026-04-19T18:04:16Z</time></trkpt><trkpt lat="39.9482528" lon="-0.3061508"><ele>236.0</ele><time>2026-04-19T18:04:16.999Z</time></trkpt><trkpt lat="39.9482384" lon="-0.3060462"><ele>236.0</ele><time>2026-04-19T18:04:18.999Z</time></trkpt><trkpt lat="39.9483045" lon="-0.3059092"><ele>236.00000000000003</ele><time>2026-04-19T18:04:21Z</time></trkpt><trkpt lat="39.948353" lon="-0.305817"><ele>236.00000000000003</ele><time>2026-04-19T18:04:21.999Z</time></trkpt><trkpt lat="39.9483928" lon="-0.3057376"><ele>236.0</ele><time>2026-04-19T18:04:23Z</time></trkpt><trkpt lat="39.9484578" lon="-0.3056243"><ele>236.0</ele><time>2026-04-19T18:04:25Z</time></trkpt><trkpt lat="39.948546" lon="-0.305571"><ele>236.00000000000003</ele><time>2026-04-19T18:04:26.999Z</time></trkpt><trkpt lat="39.9486289" lon="-0.3055739"><ele>236.0</ele><time>2026-04-19T18:04:28.999Z</time></trkpt><trkpt lat="39.9486991" lon="-0.3055731"><ele>236.0</ele><time>2026-04-19T18:04:31.999Z</time></trkpt><trkpt lat="39.9487487" lon="-0.3056342"><ele>236.0</ele><time>2026-04-19T18:08:11.999Z</time></trkpt><trkpt lat="39.9488192" lon="-0.3056313"><ele>236.00000000000003</ele><time>2026-04-19T18:08:13.999Z</time></trkpt><trkpt lat="39.948938" lon="-0.3056458"><ele>236.0</ele><time>2026-04-19T18:08:15.999Z</time></trkpt><trkpt lat="39.9490269" lon="-0.3056559"><ele>236.0</ele><time>2026-04-19T18:08:17.999Z</time></trkpt><trkpt lat="39.9490631" lon="-0.3057619"><ele>236.00000000000003</ele><time>2026-04-19T18:08:21.999Z</time></trkpt><trkpt lat="39.9490442" lon="-0.3059009"><ele>236.00000000000003</ele><time>2026-04-19T18:08:23.999Z</time></trkpt><trkpt lat="39.9490296" lon="-0.3059899"><ele>236.0</ele><time>2026-04-19T18:08:24.999Z</time></trkpt><trkpt lat="39.9490077" lon="-0.3061818"><ele>236.0</ele><time>2026-04-19T18:08:28Z</time></trkpt><trkpt lat="39.9490337" lon="-0.3062579"><ele>236.00000000000003</ele><time>2026-04-19T18:08:30Z</time></trkpt><trkpt lat="39.9491312" lon="-0.3063189"><ele>236.0</ele><time>2026-04-19T18:08:32.973Z</time></trkpt><trkpt lat="39.9492119" lon="-0.3063199"><ele>236.0</ele><time>2026-04-19T18:08:33.999Z</time></trkpt><trkpt lat="39.9493004" lon="-0.3063219"><ele>236.0</ele><time>2026-04-19T18:08:36Z</time></trkpt><trkpt lat="39.9493668" lon="-0.3063069"><ele>236.00000000000003</ele><time>2026-04-19T18:08:37.999Z</time></trkpt><trkpt lat="39.9494502" lon="-0.3062911"><ele>236.0</ele><time>2026-04-19T18:08:42.999Z</time></trkpt><trkpt lat="39.9495427" lon="-0.3062164"><ele>235.0</ele><time>2026-04-19T18:08:44.999Z</time></trkpt><trkpt lat="39.9496025" lon="-0.3061429"><ele>234.00000000000003</ele><time>2026-04-19T18:08:45.999Z</time></trkpt><trkpt lat="39.9496678" lon="-0.3060658"><ele>233.00000000000003</ele><time>2026-04-19T18:08:46.999Z</time></trkpt><trkpt lat="39.9497523" lon="-0.3059663"><ele>232.0</ele><time>2026-04-19T18:08:48Z</time></trkpt><trkpt lat="39.9498422" lon="-0.3058542"><ele>231.0</ele><time>2026-04-19T18:08:48.999Z</time></trkpt><trkpt lat="39.9499471" lon="-0.3057242"><ele>229.0</ele><time>2026-04-19T18:08:49.999Z</time></trkpt><trkpt lat="39.9500628" lon="-0.305578"><ele>227.0</ele><time>2026-04-19T18:08:51Z</time></trkpt><trkpt lat="39.9501871" lon="-0.3054286"><ele>225.0</ele><time>2026-04-19T18:08:51.999Z</time></trkpt><trkpt lat="39.9503198" lon="-0.3052626"><ele>225.0</ele><time>2026-04-19T18:08:53Z</time></trkpt><trkpt lat="39.9504728" lon="-0.3050741"><ele>225.0</ele><time>2026-04-19T18:08:53.999Z</time></trkpt><trkpt lat="39.9506288" lon="-0.3048411"><ele>225.0</ele><time>2026-04-19T18:08:54.999Z</time></trkpt><trkpt lat="39.9507726" lon="-0.3045664"><ele>224.0</ele><time>2026-04-19T18:08:55.999Z</time></trkpt><trkpt lat="39.9509145" lon="-0.3042684"><ele>223.0</ele><time>2026-04-19T18:08:57Z</time></trkpt><trkpt lat="39.9510726" lon="-0.3039607"><ele>223.5</ele><time>2026-04-19T18:08:57.999Z</time></trkpt><trkpt lat="39.9512399" lon="-0.3036486"><ele>224.0</ele><time>2026-04-19T18:08:58.999Z</time></trkpt><trkpt lat="39.9514019" lon="-0.303348"><ele>223.0</ele><time>2026-04-19T18:08:59.999Z</time></trkpt><trkpt lat="39.9515541" lon="-0.3030652"><ele>222.0</ele><time>2026-04-19T18:09:00.999Z</time></trkpt><trkpt lat="39.9516907" lon="-0.3028053"><ele>224.33333333333331</ele><time>2026-04-19T18:09:01.999Z</time></trkpt><trkpt lat="39.9517966" lon="-0.3025491"><ele>226.66666666666666</ele><time>2026-04-19T18:09:03Z</time></trkpt><trkpt lat="39.9518662" lon="-0.3022819"><ele>229.0</ele><time>2026-04-19T18:09:03.999Z</time></trkpt><trkpt lat="39.9519124" lon="-0.3019878"><ele>229.0</ele><time>2026-04-19T18:09:05Z</time></trkpt><trkpt lat="39.9519354" lon="-0.3016761"><ele>229.0</ele><time>2026-04-19T18:09:05.999Z</time></trkpt><trkpt lat="39.951945" lon="-0.3013533"><ele>228.0</ele><time>2026-04-19T18:09:07Z</time></trkpt><trkpt lat="39.9519519" lon="-0.3010196"><ele>227.0</ele><time>2026-04-19T18:09:07.999Z</time></trkpt><trkpt lat="39.9519602" lon="-0.3006756"><ele>226.5</ele><time>2026-04-19T18:09:08.999Z</time></trkpt><trkpt lat="39.9519666" lon="-0.3003334"><ele>226.0</ele><time>2026-04-19T18:09:10Z</time></trkpt><trkpt lat="39.9519741" lon="-0.300026"><ele>225.66666666666666</ele><time>2026-04-19T18:09:10.999Z</time></trkpt><trkpt lat="39.951987" lon="-0.2997438"><ele>225.33333333333331</ele><time>2026-04-19T18:09:11.999Z</time></trkpt><trkpt lat="39.9520162" lon="-0.2994763"><ele>225.0</ele><time>2026-04-19T18:09:13Z</time></trkpt><trkpt lat="39.9520708" lon="-0.29921"><ele>225.0</ele><time>2026-04-19T18:09:13.999Z</time></trkpt><trkpt lat="39.9521524" lon="-0.2989299"><ele>225.0</ele><time>2026-04-19T18:09:15Z</time></trkpt><trkpt lat="39.9522542" lon="-0.2986463"><ele>224.5</ele><time>2026-04-19T18:09:16Z</time></trkpt><trkpt lat="39.9523668" lon="-0.2983514"><ele>224.0</ele><time>2026-04-19T18:09:16.999Z</time></trkpt><trkpt lat="39.9524929" lon="-0.2980453"><ele>224.0</ele><time>2026-04-19T18:09:17.999Z</time></trkpt><trkpt lat="39.9526159" lon="-0.2977283"><ele>224.0</ele><time>2026-04-19T18:09:18.999Z</time></trkpt><trkpt lat="39.9527309" lon="-0.2974185"><ele>222.5</ele><time>2026-04-19T18:09:19.999Z</time></trkpt><trkpt lat="39.9528368" lon="-0.2971256"><ele>221.0</ele><time>2026-04-19T18:09:20.999Z</time></trkpt><trkpt lat="39.952936" lon="-0.2968568"><ele>221.0</ele><time>2026-04-19T18:09:22Z</time></trkpt><trkpt lat="39.953025" lon="-0.2966175"><ele>221.0</ele><time>2026-04-19T18:09:22.999Z</time></trkpt><trkpt lat="39.9531165" lon="-0.2964051"><ele>221.0</ele><time>2026-04-19T18:09:23.999Z</time></trkpt><trkpt lat="39.9532309" lon="-0.2962051"><ele>221.0</ele><time>2026-04-19T18:09:25Z</time></trkpt><trkpt lat="39.9533699" lon="-0.2960135"><ele>221.0</ele><time>2026-04-19T18:09:25.999Z</time></trkpt><trkpt lat="39.9535262" lon="-0.2958169"><ele>221.0</ele><time>2026-04-19T18:09:26.999Z</time></trkpt><trkpt lat="39.9536706" lon="-0.2956228"><ele>219.0</ele><time>2026-04-19T18:09:27.999Z</time></trkpt><trkpt lat="39.9538056" lon="-0.2954583"><ele>217.0</ele><time>2026-04-19T18:09:28.999Z</time></trkpt><trkpt lat="39.9539479" lon="-0.2953154"><ele>215.0</ele><time>2026-04-19T18:09:29.999Z</time></trkpt><trkpt lat="39.9541066" lon="-0.2952073"><ele>215.66666666666669</ele><time>2026-04-19T18:09:31Z</time></trkpt><trkpt lat="39.9542917" lon="-0.2951356"><ele>216.33333333333331</ele><time>2026-04-19T18:09:31.999Z</time></trkpt><trkpt lat="39.9544894" lon="-0.2950837"><ele>217.0</ele><time>2026-04-19T18:09:33Z</time></trkpt><trkpt lat="39.9546802" lon="-0.2950397"><ele>217.0</ele><time>2026-04-19T18:09:33.999Z</time></trkpt><trkpt lat="39.9548572" lon="-0.2949789"><ele>217.0</ele><time>2026-04-19T18:09:34.999Z</time></trkpt><trkpt lat="39.9550065" lon="-0.2948735"><ele>217.0</ele><time>2026-04-19T18:09:35.999Z</time></trkpt><trkpt lat="39.9551456" lon="-0.2947278"><ele>216.66666666666666</ele><time>2026-04-19T18:09:36.999Z</time></trkpt><trkpt lat="39.9552795" lon="-0.2945472"><ele>216.33333333333331</ele><time>2026-04-19T18:09:37.999Z</time></trkpt><trkpt lat="39.9554244" lon="-0.2943549"><ele>216.0</ele><time>2026-04-19T18:09:39Z</time></trkpt><trkpt lat="39.9555915" lon="-0.2941646"><ele>216.0</ele><time>2026-04-19T18:09:39.999Z</time></trkpt><trkpt lat="39.9557791" lon="-0.2939829"><ele>216.0</ele><time>2026-04-19T18:09:40.999Z</time></trkpt><trkpt lat="39.9559809" lon="-0.2938018"><ele>216.0</ele><time>2026-04-19T18:09:41.999Z</time></trkpt><trkpt lat="39.9561886" lon="-0.293612"><ele>216.0</ele><time>2026-04-19T18:09:43Z</time></trkpt><trkpt lat="39.9563923" lon="-0.2934355"><ele>216.0</ele><time>2026-04-19T18:09:43.999Z</time></trkpt><trkpt lat="39.956648" lon="-0.2932242"><ele>216.0</ele><time>2026-04-19T18:09:45.948Z</time></trkpt><trkpt lat="39.9568975" lon="-0.2930435"><ele>214.33333333333331</ele><time>2026-04-19T18:09:47Z</time></trkpt><trkpt lat="39.9570601" lon="-0.2929755"><ele>212.66666666666666</ele><time>2026-04-19T18:09:47.999Z</time></trkpt><trkpt lat="39.957229" lon="-0.2929461"><ele>211.0</ele><time>2026-04-19T18:09:48.999Z</time></trkpt><trkpt lat="39.9573975" lon="-0.2929409"><ele>211.75</ele><time>2026-04-19T18:09:49.999Z</time></trkpt><trkpt lat="39.9575509" lon="-0.2929386"><ele>212.5</ele><time>2026-04-19T18:09:50.999Z</time></trkpt><trkpt lat="39.9576879" lon="-0.2929143"><ele>213.25</ele><time>2026-04-19T18:09:51.999Z</time></trkpt><trkpt lat="39.9578113" lon="-0.2928585"><ele>214.0</ele><time>2026-04-19T18:09:53Z</time></trkpt><trkpt lat="39.957914" lon="-0.2927621"><ele>214.0</ele><time>2026-04-19T18:09:53.999Z</time></trkpt><trkpt lat="39.9579825" lon="-0.2926347"><ele>214.0</ele><time>2026-04-19T18:09:54.999Z</time></trkpt><trkpt lat="39.9580122" lon="-0.2924743"><ele>214.0</ele><time>2026-04-19T18:09:55.999Z</time></trkpt><trkpt lat="39.9580058" lon="-0.2922821"><ele>214.0</ele><time>2026-04-19T18:09:56.999Z</time></trkpt><trkpt lat="39.9579854" lon="-0.2920691"><ele>215.33333333333331</ele><time>2026-04-19T18:09:57.999Z</time></trkpt><trkpt lat="39.9579548" lon="-0.2918508"><ele>216.66666666666669</ele><time>2026-04-19T18:09:58.999Z</time></trkpt><trkpt lat="39.9579069" lon="-0.2916209"><ele>218.0</ele><time>2026-04-19T18:10:00Z</time></trkpt><trkpt lat="39.9578474" lon="-0.2914137"><ele>219.33333333333334</ele><time>2026-04-19T18:10:00.999Z</time></trkpt><trkpt lat="39.9577905" lon="-0.2912092"><ele>220.66666666666669</ele><time>2026-04-19T18:10:01.999Z</time></trkpt><trkpt lat="39.9577517" lon="-0.2909926"><ele>222.0</ele><time>2026-04-19T18:10:02.999Z</time></trkpt><trkpt lat="39.9577491" lon="-0.2907816"><ele>220.0</ele><time>2026-04-19T18:10:03.999Z</time></trkpt><trkpt lat="39.9577791" lon="-0.2905745"><ele>218.0</ele><time>2026-04-19T18:10:04.999Z</time></trkpt><trkpt lat="39.9578303" lon="-0.2903764"><ele>216.0</ele><time>2026-04-19T18:10:05.999Z</time></trkpt><trkpt lat="39.9579036" lon="-0.2901876"><ele>216.0</ele><time>2026-04-19T18:10:06.999Z</time></trkpt><trkpt lat="39.9579928" lon="-0.2900012"><ele>216.0</ele><time>2026-04-19T18:10:08Z</time></trkpt><trkpt lat="39.9580759" lon="-0.2898096"><ele>216.0</ele><time>2026-04-19T18:10:08.999Z</time></trkpt><trkpt lat="39.9581371" lon="-0.2896018"><ele>216.5</ele><time>2026-04-19T18:10:09.999Z</time></trkpt><trkpt lat="39.9581753" lon="-0.2894096"><ele>217.0</ele><time>2026-04-19T18:10:10.999Z</time></trkpt><trkpt lat="39.958208" lon="-0.2892385"><ele>217.5</ele><time>2026-04-19T18:10:11.999Z</time></trkpt><trkpt lat="39.9582427" lon="-0.2890991"><ele>218.0</ele><time>2026-04-19T18:10:12.999Z</time></trkpt><trkpt lat="39.9582956" lon="-0.2889814"><ele>221.0</ele><time>2026-04-19T18:10:13.999Z</time></trkpt><trkpt lat="39.958372" lon="-0.2888855"><ele>224.0</ele><time>2026-04-19T18:10:14.999Z</time></trkpt><trkpt lat="39.9584576" lon="-0.2887981"><ele>227.0</ele><time>2026-04-19T18:10:16Z</time></trkpt><trkpt lat="39.9585093" lon="-0.288687"><ele>230.0</ele><time>2026-04-19T18:10:17Z</time></trkpt><trkpt lat="39.9585546" lon="-0.2885642"><ele>233.0</ele><time>2026-04-19T18:10:17.999Z</time></trkpt><trkpt lat="39.9585833" lon="-0.2884243"><ele>233.0</ele><time>2026-04-19T18:10:18.999Z</time></trkpt><trkpt lat="39.9585907" lon="-0.2882569"><ele>233.0</ele><time>2026-04-19T18:10:19.999Z</time></trkpt><trkpt lat="39.9585924" lon="-0.2880933"><ele>233.0</ele><time>2026-04-19T18:10:20.999Z</time></trkpt><trkpt lat="39.9585841" lon="-0.2879192"><ele>233.0</ele><time>2026-04-19T18:10:22Z</time></trkpt><trkpt lat="39.9585679" lon="-0.2877324"><ele>232.75</ele><time>2026-04-19T18:10:22.999Z</time></trkpt><trkpt lat="39.9585473" lon="-0.2875428"><ele>232.5</ele><time>2026-04-19T18:10:23.999Z</time></trkpt><trkpt lat="39.9585266" lon="-0.2873535"><ele>232.25</ele><time>2026-04-19T18:10:24.999Z</time></trkpt><trkpt lat="39.9585135" lon="-0.2871801"><ele>232.0</ele><time>2026-04-19T18:10:25.999Z</time></trkpt><trkpt lat="39.9585079" lon="-0.2870269"><ele>231.0</ele><time>2026-04-19T18:10:26.999Z</time></trkpt><trkpt lat="39.9585105" lon="-0.2868689"><ele>230.0</ele><time>2026-04-19T18:10:27.999Z</time></trkpt><trkpt lat="39.9585193" lon="-0.2867118"><ele>229.0</ele><time>2026-04-19T18:10:28.999Z</time></trkpt><trkpt lat="39.9585659" lon="-0.2865435"><ele>228.0</ele><time>2026-04-19T18:10:29.999Z</time></trkpt><trkpt lat="39.9586314" lon="-0.2863824"><ele>225.33333333333331</ele><time>2026-04-19T18:10:30.999Z</time></trkpt><trkpt lat="39.9587208" lon="-0.2862294"><ele>222.66666666666666</ele><time>2026-04-19T18:10:31.999Z</time></trkpt><trkpt lat="39.9588276" lon="-0.2860919"><ele>220.0</ele><time>2026-04-19T18:10:32.999Z</time></trkpt><trkpt lat="39.9589552" lon="-0.285972"><ele>220.0</ele><time>2026-04-19T18:10:33.999Z</time></trkpt><trkpt lat="39.9590868" lon="-0.2858676"><ele>220.0</ele><time>2026-04-19T18:10:35Z</time></trkpt><trkpt lat="39.9592101" lon="-0.2857506"><ele>220.0</ele><time>2026-04-19T18:10:35.999Z</time></trkpt><trkpt lat="39.9593077" lon="-0.2855971"><ele>222.33333333333331</ele><time>2026-04-19T18:10:36.999Z</time></trkpt><trkpt lat="39.9593721" lon="-0.2854187"><ele>224.66666666666669</ele><time>2026-04-19T18:10:37.999Z</time></trkpt><trkpt lat="39.9594155" lon="-0.2852133"><ele>227.0</ele><time>2026-04-19T18:10:38.999Z</time></trkpt><trkpt lat="39.9594692" lon="-0.2850036"><ele>227.0</ele><time>2026-04-19T18:10:39.999Z</time></trkpt><trkpt lat="39.9595427" lon="-0.2847923"><ele>227.0</ele><time>2026-04-19T18:10:40.999Z</time></trkpt><trkpt lat="39.9596358" lon="-0.2845865"><ele>227.0</ele><time>2026-04-19T18:10:41.999Z</time></trkpt><trkpt lat="39.9597531" lon="-0.2843975"><ele>228.66666666666669</ele><time>2026-04-19T18:10:42.999Z</time></trkpt><trkpt lat="39.959892" lon="-0.2842199"><ele>230.33333333333331</ele><time>2026-04-19T18:10:43.999Z</time></trkpt><trkpt lat="39.9600363" lon="-0.2840288"><ele>232.0</ele><time>2026-04-19T18:10:44.999Z</time></trkpt><trkpt lat="39.960164" lon="-0.2838002"><ele>232.0</ele><time>2026-04-19T18:10:45.999Z</time></trkpt><trkpt lat="39.9602777" lon="-0.2835347"><ele>232.0</ele><time>2026-04-19T18:10:46.999Z</time></trkpt><trkpt lat="39.9603889" lon="-0.2832409"><ele>227.0</ele><time>2026-04-19T18:10:47.999Z</time></trkpt><trkpt lat="39.9604992" lon="-0.2829244"><ele>222.0</ele><time>2026-04-19T18:10:49Z</time></trkpt><trkpt lat="39.960606" lon="-0.2825903"><ele>219.0</ele><time>2026-04-19T18:10:49.999Z</time></trkpt><trkpt lat="39.9607063" lon="-0.2822462"><ele>216.0</ele><time>2026-04-19T18:10:50.999Z</time></trkpt><trkpt lat="39.9608003" lon="-0.2819202"><ele>221.5</ele><time>2026-04-19T18:10:51.999Z</time></trkpt><trkpt lat="39.9608857" lon="-0.2816224"><ele>227.0</ele><time>2026-04-19T18:10:52.999Z</time></trkpt><trkpt lat="39.9609719" lon="-0.2813583"><ele>227.0</ele><time>2026-04-19T18:10:53.999Z</time></trkpt><trkpt lat="39.9610582" lon="-0.281128"><ele>227.0</ele><time>2026-04-19T18:10:55Z</time></trkpt><trkpt lat="39.9611407" lon="-0.2809329"><ele>227.0</ele><time>2026-04-19T18:10:55.999Z</time></trkpt><trkpt lat="39.9612043" lon="-0.2807387"><ele>226.0</ele><time>2026-04-19T18:10:56.999Z</time></trkpt><trkpt lat="39.9612392" lon="-0.280542"><ele>225.0</ele><time>2026-04-19T18:10:57.999Z</time></trkpt><trkpt lat="39.9612372" lon="-0.2803383"><ele>224.0</ele><time>2026-04-19T18:10:58.999Z</time></trkpt><trkpt lat="39.9612101" lon="-0.2801385"><ele>224.0</ele><time>2026-04-19T18:10:59.999Z</time></trkpt><trkpt lat="39.9611812" lon="-0.2799296"><ele>224.0</ele><time>2026-04-19T18:11:00.999Z</time></trkpt><trkpt lat="39.9611654" lon="-0.2797293"><ele>224.0</ele><time>2026-04-19T18:11:01.999Z</time></trkpt><trkpt lat="39.9611829" lon="-0.2795352"><ele>223.33333333333334</ele><time>2026-04-19T18:11:03Z</time></trkpt><trkpt lat="39.961237" lon="-0.2793529"><ele>222.66666666666669</ele><time>2026-04-19T18:11:03.999Z</time></trkpt><trkpt lat="39.9613173" lon="-0.2791742"><ele>222.0</ele><time>2026-04-19T18:11:04.999Z</time></trkpt><trkpt lat="39.9614064" lon="-0.2789915"><ele>221.0</ele><time>2026-04-19T18:11:05.999Z</time></trkpt><trkpt lat="39.9615013" lon="-0.2788007"><ele>220.0</ele><time>2026-04-19T18:11:06.999Z</time></trkpt><trkpt lat="39.9615934" lon="-0.2786114"><ele>219.0</ele><time>2026-04-19T18:11:07.999Z</time></trkpt><trkpt lat="39.9616785" lon="-0.2784104"><ele>222.0</ele><time>2026-04-19T18:11:08.999Z</time></trkpt><trkpt lat="39.9617536" lon="-0.2781982"><ele>225.0</ele><time>2026-04-19T18:11:09.999Z</time></trkpt><trkpt lat="39.9618189" lon="-0.2779696"><ele>228.0</ele><time>2026-04-19T18:11:10.999Z</time></trkpt><trkpt lat="39.9618791" lon="-0.2777225"><ele>228.33333333333331</ele><time>2026-04-19T18:11:11.999Z</time></trkpt><trkpt lat="39.9619367" lon="-0.2774746"><ele>228.66666666666666</ele><time>2026-04-19T18:11:12.999Z</time></trkpt><trkpt lat="39.9619761" lon="-0.2772289"><ele>229.0</ele><time>2026-04-19T18:11:13.999Z</time></trkpt><trkpt lat="39.9619864" lon="-0.2769991"><ele>228.5</ele><time>2026-04-19T18:11:15Z</time></trkpt><trkpt lat="39.9619864" lon="-0.2767936"><ele>228.0</ele><time>2026-04-19T18:11:16Z</time></trkpt><trkpt lat="39.9619837" lon="-0.276608"><ele>227.5</ele><time>2026-04-19T18:11:17Z</time></trkpt><trkpt lat="39.9619862" lon="-0.2764426"><ele>227.0</ele><time>2026-04-19T18:11:17.999Z</time></trkpt><trkpt lat="39.9620007" lon="-0.2762881"><ele>227.0</ele><time>2026-04-19T18:11:18.999Z</time></trkpt><trkpt lat="39.962037" lon="-0.2761487"><ele>227.0</ele><time>2026-04-19T18:11:20Z</time></trkpt><trkpt lat="39.9621049" lon="-0.2760297"><ele>227.0</ele><time>2026-04-19T18:11:20.999Z</time></trkpt><trkpt lat="39.9621965" lon="-0.2759486"><ele>227.0</ele><time>2026-04-19T18:11:21.999Z</time></trkpt><trkpt lat="39.9622992" lon="-0.2759111"><ele>227.0</ele><time>2026-04-19T18:11:22.999Z</time></trkpt><trkpt lat="39.9623937" lon="-0.275892"><ele>227.00000000000003</ele><time>2026-04-19T18:11:23.999Z</time></trkpt><trkpt lat="39.9624815" lon="-0.2758712"><ele>227.0</ele><time>2026-04-19T18:11:25Z</time></trkpt><trkpt lat="39.962558" lon="-0.275848"><ele>227.0</ele><time>2026-04-19T18:11:26Z</time></trkpt><trkpt lat="39.9626281" lon="-0.2758136"><ele>227.0</ele><time>2026-04-19T18:11:27Z</time></trkpt><trkpt lat="39.9626932" lon="-0.2757756"><ele>227.00000000000003</ele><time>2026-04-19T18:11:27.999Z</time></trkpt><trkpt lat="39.96276" lon="-0.2757548"><ele>227.0</ele><time>2026-04-19T18:11:28.999Z</time></trkpt><trkpt lat="39.9628402" lon="-0.2757343"><ele>226.8</ele><time>2026-04-19T18:11:30Z</time></trkpt><trkpt lat="39.9629235" lon="-0.2756864"><ele>226.6</ele><time>2026-04-19T18:11:30.999Z</time></trkpt><trkpt lat="39.9630054" lon="-0.2756146"><ele>226.40000000000003</ele><time>2026-04-19T18:11:32Z</time></trkpt><trkpt lat="39.9630886" lon="-0.2755255"><ele>226.20000000000002</ele><time>2026-04-19T18:11:32.999Z</time></trkpt><trkpt lat="39.963175" lon="-0.275429"><ele>226.0</ele><time>2026-04-19T18:11:33.999Z</time></trkpt><trkpt lat="39.9632642" lon="-0.2753195"><ele>225.0</ele><time>2026-04-19T18:11:34.999Z</time></trkpt><trkpt lat="39.9633565" lon="-0.2752002"><ele>224.0</ele><time>2026-04-19T18:11:36Z</time></trkpt><trkpt lat="39.9634442" lon="-0.275089"><ele>223.0</ele><time>2026-04-19T18:11:36.999Z</time></trkpt><trkpt lat="39.9635332" lon="-0.2749707"><ele>222.0</ele><time>2026-04-19T18:11:37.999Z</time></trkpt><trkpt lat="39.9636287" lon="-0.2748436"><ele>220.25</ele><time>2026-04-19T18:11:38.999Z</time></trkpt><trkpt lat="39.9637274" lon="-0.2747101"><ele>218.5</ele><time>2026-04-19T18:11:39.999Z</time></trkpt><trkpt lat="39.9638282" lon="-0.2745728"><ele>216.75</ele><time>2026-04-19T18:11:40.999Z</time></trkpt><trkpt lat="39.9639332" lon="-0.2744246"><ele>215.0</ele><time>2026-04-19T18:11:41.999Z</time></trkpt><trkpt lat="39.9640455" lon="-0.2742716"><ele>215.0</ele><time>2026-04-19T18:11:42.999Z</time></trkpt><trkpt lat="39.9641568" lon="-0.2741135"><ele>215.0</ele><time>2026-04-19T18:11:44Z</time></trkpt><trkpt lat="39.9642683" lon="-0.2739539"><ele>215.0</ele><time>2026-04-19T18:11:44.999Z</time></trkpt><trkpt lat="39.9643833" lon="-0.2737955"><ele>213.0</ele><time>2026-04-19T18:11:46Z</time></trkpt><trkpt lat="39.9644981" lon="-0.2736357"><ele>211.0</ele><time>2026-04-19T18:11:47Z</time></trkpt><trkpt lat="39.9646057" lon="-0.2734794"><ele>209.0</ele><time>2026-04-19T18:11:47.999Z</time></trkpt><trkpt lat="39.9647099" lon="-0.2733335"><ele>209.0</ele><time>2026-04-19T18:11:48.999Z</time></trkpt><trkpt lat="39.9648134" lon="-0.2731991"><ele>209.0</ele><time>2026-04-19T18:11:50Z</time></trkpt><trkpt lat="39.9649102" lon="-0.2730685"><ele>209.0</ele><time>2026-04-19T18:11:50.999Z</time></trkpt><trkpt lat="39.9649903" lon="-0.2729254"><ele>209.0</ele><time>2026-04-19T18:11:51.999Z</time></trkpt><trkpt lat="39.9650477" lon="-0.2727783"><ele>207.75</ele><time>2026-04-19T18:11:53Z</time></trkpt><trkpt lat="39.9650808" lon="-0.2726255"><ele>206.5</ele><time>2026-04-19T18:11:54Z</time></trkpt><trkpt lat="39.9651038" lon="-0.2724767"><ele>205.25</ele><time>2026-04-19T18:11:54.999Z</time></trkpt><trkpt lat="39.9651266" lon="-0.2723298"><ele>204.0</ele><time>2026-04-19T18:11:56Z</time></trkpt><trkpt lat="39.9651466" lon="-0.2721896"><ele>203.79999999999998</ele><time>2026-04-19T18:11:56.999Z</time></trkpt><trkpt lat="39.9651667" lon="-0.2720594"><ele>203.6</ele><time>2026-04-19T18:11:58Z</time></trkpt><trkpt lat="39.9651888" lon="-0.2719404"><ele>203.4</ele><time>2026-04-19T18:11:58.999Z</time></trkpt><trkpt lat="39.9652073" lon="-0.27182"><ele>203.2</ele><time>2026-04-19T18:11:59.999Z</time></trkpt><trkpt lat="39.9652214" lon="-0.2717066"><ele>203.0</ele><time>2026-04-19T18:12:01Z</time></trkpt><trkpt lat="39.9652323" lon="-0.2716091"><ele>203.0</ele><time>2026-04-19T18:12:01.999Z</time></trkpt><trkpt lat="39.9652417" lon="-0.2715269"><ele>203.0</ele><time>2026-04-19T18:12:02.999Z</time></trkpt><trkpt lat="39.9652586" lon="-0.2713752"><ele>203.0</ele><time>2026-04-19T18:12:04.999Z</time></trkpt><trkpt lat="39.9652771" lon="-0.2712324"><ele>203.0</ele><time>2026-04-19T18:12:06.999Z</time></trkpt><trkpt lat="39.9652985" lon="-0.2710841"><ele>203.0</ele><time>2026-04-19T18:12:08.999Z</time></trkpt><trkpt lat="39.9653128" lon="-0.2709958"><ele>202.83333333333334</ele><time>2026-04-19T18:12:09.999Z</time></trkpt><trkpt lat="39.9653266" lon="-0.2709024"><ele>202.66666666666669</ele><time>2026-04-19T18:12:10.999Z</time></trkpt><trkpt lat="39.9653301" lon="-0.2708033"><ele>202.5</ele><time>2026-04-19T18:12:11.999Z</time></trkpt><trkpt lat="39.9653341" lon="-0.2706983"><ele>202.33333333333331</ele><time>2026-04-19T18:12:12.999Z</time></trkpt><trkpt lat="39.9653438" lon="-0.2705886"><ele>202.16666666666666</ele><time>2026-04-19T18:12:13.999Z</time></trkpt><trkpt lat="39.9653571" lon="-0.2704676"><ele>202.0</ele><time>2026-04-19T18:12:14.999Z</time></trkpt><trkpt lat="39.9653716" lon="-0.2703489"><ele>202.0</ele><time>2026-04-19T18:12:15.999Z</time></trkpt><trkpt lat="39.9653848" lon="-0.2702304"><ele>202.0</ele><time>2026-04-19T18:12:16.999Z</time></trkpt><trkpt lat="39.9653989" lon="-0.2701112"><ele>202.0</ele><time>2026-04-19T18:12:18Z</time></trkpt><trkpt lat="39.965412" lon="-0.2699872"><ele>202.0</ele><time>2026-04-19T18:12:18.999Z</time></trkpt><trkpt lat="39.9654181" lon="-0.2698512"><ele>202.0</ele><time>2026-04-19T18:12:20Z</time></trkpt><trkpt lat="39.9654163" lon="-0.2697104"><ele>201.75</ele><time>2026-04-19T18:12:20.999Z</time></trkpt><trkpt lat="39.9653956" lon="-0.2695601"><ele>201.5</ele><time>2026-04-19T18:12:21.999Z</time></trkpt><trkpt lat="39.9653658" lon="-0.2694055"><ele>201.25</ele><time>2026-04-19T18:12:23Z</time></trkpt><trkpt lat="39.965333" lon="-0.2692445"><ele>201.0</ele><time>2026-04-19T18:12:23.999Z</time></trkpt><trkpt lat="39.9652987" lon="-0.2690902"><ele>201.25</ele><time>2026-04-19T18:12:24.999Z</time></trkpt><trkpt lat="39.9652612" lon="-0.2689377"><ele>201.5</ele><time>2026-04-19T18:12:25.999Z</time></trkpt><trkpt lat="39.9652278" lon="-0.2687814"><ele>201.75</ele><time>2026-04-19T18:12:26.999Z</time></trkpt><trkpt lat="39.9651902" lon="-0.2686219"><ele>202.0</ele><time>2026-04-19T18:12:28Z</time></trkpt><trkpt lat="39.9651573" lon="-0.2684663"><ele>202.0</ele><time>2026-04-19T18:12:28.999Z</time></trkpt><trkpt lat="39.9651164" lon="-0.2683147"><ele>202.0</ele><time>2026-04-19T18:12:29.999Z</time></trkpt><trkpt lat="39.9650787" lon="-0.2681788"><ele>202.0</ele><time>2026-04-19T18:12:30.999Z</time></trkpt><trkpt lat="39.9650473" lon="-0.2680522"><ele>202.0</ele><time>2026-04-19T18:12:31.999Z</time></trkpt><trkpt lat="39.9650116" lon="-0.2679456"><ele>202.0</ele><time>2026-04-19T18:12:32.999Z</time></trkpt><trkpt lat="39.9649685" lon="-0.2678461"><ele>201.33333333333331</ele><time>2026-04-19T18:12:33.999Z</time></trkpt><trkpt lat="39.9649138" lon="-0.2677621"><ele>200.66666666666666</ele><time>2026-04-19T18:12:34.999Z</time></trkpt><trkpt lat="39.9648449" lon="-0.2676829"><ele>200.0</ele><time>2026-04-19T18:12:35.999Z</time></trkpt><trkpt lat="39.9647762" lon="-0.2676098"><ele>199.33333333333331</ele><time>2026-04-19T18:12:37Z</time></trkpt><trkpt lat="39.9647083" lon="-0.2675343"><ele>198.66666666666666</ele><time>2026-04-19T18:12:37.999Z</time></trkpt><trkpt lat="39.9646398" lon="-0.2674601"><ele>198.0</ele><time>2026-04-19T18:12:39Z</time></trkpt><trkpt lat="39.9645711" lon="-0.2673895"><ele>198.0</ele><time>2026-04-19T18:12:39.999Z</time></trkpt><trkpt lat="39.9645021" lon="-0.2673088"><ele>198.0</ele><time>2026-04-19T18:12:40.999Z</time></trkpt><trkpt lat="39.9644344" lon="-0.2672329"><ele>198.0</ele><time>2026-04-19T18:12:42Z</time></trkpt><trkpt lat="39.9643718" lon="-0.2671659"><ele>198.0</ele><time>2026-04-19T18:12:42.999Z</time></trkpt><trkpt lat="39.9643087" lon="-0.267101"><ele>198.0</ele><time>2026-04-19T18:12:44Z</time></trkpt><trkpt lat="39.9642399" lon="-0.2670304"><ele>198.0</ele><time>2026-04-19T18:12:44.999Z</time></trkpt><trkpt lat="39.9641659" lon="-0.2669549"><ele>198.33333333333334</ele><time>2026-04-19T18:12:45.999Z</time></trkpt><trkpt lat="39.9640921" lon="-0.2668894"><ele>198.66666666666669</ele><time>2026-04-19T18:12:46.999Z</time></trkpt><trkpt lat="39.9640167" lon="-0.2668306"><ele>199.0</ele><time>2026-04-19T18:12:47.999Z</time></trkpt><trkpt lat="39.9639447" lon="-0.2667661"><ele>199.33333333333334</ele><time>2026-04-19T18:12:48.999Z</time></trkpt><trkpt lat="39.963879" lon="-0.2667224"><ele>199.66666666666669</ele><time>2026-04-19T18:12:50Z</time></trkpt><trkpt lat="39.9638157" lon="-0.266683"><ele>200.0</ele><time>2026-04-19T18:12:50.999Z</time></trkpt><trkpt lat="39.9637532" lon="-0.2666468"><ele>200.0</ele><time>2026-04-19T18:12:51.999Z</time></trkpt><trkpt lat="39.9636695" lon="-0.2666425"><ele>200.0</ele><time>2026-04-19T18:12:53.999Z</time></trkpt><trkpt lat="39.9636025" lon="-0.2667342"><ele>200.0</ele><time>2026-04-19T18:12:55.999Z</time></trkpt><trkpt lat="39.9635318" lon="-0.2668708"><ele>200.0</ele><time>2026-04-19T18:12:57.999Z</time></trkpt><trkpt lat="39.9634907" lon="-0.266955"><ele>200.0</ele><time>2026-04-19T18:12:58.999Z</time></trkpt><trkpt lat="39.9634504" lon="-0.2670341"><ele>200.00000000000003</ele><time>2026-04-19T18:12:59.999Z</time></trkpt><trkpt lat="39.9634153" lon="-0.2671069"><ele>200.0</ele><time>2026-04-19T18:13:00.999Z</time></trkpt><trkpt lat="39.9633756" lon="-0.2671761"><ele>200.0</ele><time>2026-04-19T18:13:01.999Z</time></trkpt><trkpt lat="39.9633355" lon="-0.2672542"><ele>200.0</ele><time>2026-04-19T18:13:02.999Z</time></trkpt><trkpt lat="39.9632958" lon="-0.2673319"><ele>200.0</ele><time>2026-04-19T18:13:04Z</time></trkpt><trkpt lat="39.9632556" lon="-0.2674123"><ele>200.00000000000003</ele><time>2026-04-19T18:13:05Z</time></trkpt><trkpt lat="39.9632142" lon="-0.2674923"><ele>200.0</ele><time>2026-04-19T18:13:05.999Z</time></trkpt><trkpt lat="39.9631741" lon="-0.2675695"><ele>199.2</ele><time>2026-04-19T18:13:06.999Z</time></trkpt><trkpt lat="39.9631081" lon="-0.2676883"><ele>198.4</ele><time>2026-04-19T18:13:08.999Z</time></trkpt><trkpt lat="39.9630596" lon="-0.2677863"><ele>197.60000000000002</ele><time>2026-04-19T18:13:11Z</time></trkpt><trkpt lat="39.9630243" lon="-0.267876"><ele>196.8</ele><time>2026-04-19T18:13:12.999Z</time></trkpt><trkpt lat="39.962968" lon="-0.267944"><ele>196.0</ele><time>2026-04-19T18:13:14.999Z</time></trkpt><trkpt lat="39.9628854" lon="-0.2678718"><ele>196.0</ele><time>2026-04-19T18:13:16.999Z</time></trkpt><trkpt lat="39.9628383" lon="-0.2678165"><ele>196.0</ele><time>2026-04-19T18:13:17.999Z</time></trkpt><trkpt lat="39.9627837" lon="-0.2677582"><ele>196.0</ele><time>2026-04-19T18:13:18.999Z</time></trkpt><trkpt lat="39.9627314" lon="-0.2677027"><ele>196.0</ele><time>2026-04-19T18:13:19.999Z</time></trkpt><trkpt lat="39.9626731" lon="-0.2676667"><ele>196.0</ele><time>2026-04-19T18:13:20.999Z</time></trkpt><trkpt lat="39.9626107" lon="-0.2676439"><ele>196.0</ele><time>2026-04-19T18:13:21.999Z</time></trkpt><trkpt lat="39.9625406" lon="-0.2676315"><ele>196.0</ele><time>2026-04-19T18:13:23Z</time></trkpt><trkpt lat="39.962472" lon="-0.2676196"><ele>195.60000000000002</ele><time>2026-04-19T18:13:23.999Z</time></trkpt><trkpt lat="39.9623583" lon="-0.267598"><ele>195.2</ele><time>2026-04-19T18:13:25.999Z</time></trkpt><trkpt lat="39.9623127" lon="-0.2675194"><ele>194.8</ele><time>2026-04-19T18:13:27.999Z</time></trkpt><trkpt lat="39.9623401" lon="-0.2674079"><ele>194.39999999999998</ele><time>2026-04-19T18:13:29.999Z</time></trkpt><trkpt lat="39.962399" lon="-0.2672887"><ele>194.0</ele><time>2026-04-19T18:13:31.999Z</time></trkpt><trkpt lat="39.9624333" lon="-0.2672178"><ele>194.83333333333334</ele><time>2026-04-19T18:13:32.999Z</time></trkpt><trkpt lat="39.9624702" lon="-0.2671404"><ele>195.66666666666669</ele><time>2026-04-19T18:13:33.999Z</time></trkpt><trkpt lat="39.9625088" lon="-0.2670578"><ele>196.5</ele><time>2026-04-19T18:13:35Z</time></trkpt><trkpt lat="39.9625482" lon="-0.2669737"><ele>197.33333333333331</ele><time>2026-04-19T18:13:36Z</time></trkpt><trkpt lat="39.9625921" lon="-0.2668861"><ele>198.16666666666666</ele><time>2026-04-19T18:13:37Z</time></trkpt><trkpt lat="39.9626354" lon="-0.2667873"><ele>199.0</ele><time>2026-04-19T18:13:37.999Z</time></trkpt><trkpt lat="39.9626772" lon="-0.2667053"><ele>199.2</ele><time>2026-04-19T18:13:38.999Z</time></trkpt><trkpt lat="39.9627412" lon="-0.2665856"><ele>199.39999999999998</ele><time>2026-04-19T18:13:40.999Z</time></trkpt><trkpt lat="39.9628136" lon="-0.2665546"><ele>199.6</ele><time>2026-04-19T18:13:43Z</time></trkpt><trkpt lat="39.9629143" lon="-0.2665487"><ele>199.8</ele><time>2026-04-19T18:13:44.999Z</time></trkpt><trkpt lat="39.963001" lon="-0.2664477"><ele>200.0</ele><time>2026-04-19T18:13:46.999Z</time></trkpt><trkpt lat="39.9630576" lon="-0.2663663"><ele>200.00000000000003</ele><time>2026-04-19T18:13:48.999Z</time></trkpt><trkpt lat="39.9630553" lon="-0.266276"><ele>200.0</ele><time>2026-04-19T18:16:12Z</time></trkpt><trkpt lat="39.9630908" lon="-0.2661485"><ele>200.0</ele><time>2026-04-19T18:16:16.859Z</time></trkpt><trkpt lat="39.9629896" lon="-0.26606"><ele>200.0</ele><time>2026-04-19T18:16:17.999Z</time></trkpt><trkpt lat="39.962945" lon="-0.2659946"><ele>200.00000000000003</ele><time>2026-04-19T18:16:19Z</time></trkpt><trkpt lat="39.9629113" lon="-0.2659008"><ele>200.0</ele><time>2026-04-19T18:16:20.999Z</time></trkpt><trkpt lat="39.9629614" lon="-0.2658259"><ele>200.00000000000003</ele><time>2026-04-19T18:16:22.999Z</time></trkpt><trkpt lat="39.9630376" lon="-0.2658498"><ele>200.0</ele><time>2026-04-19T18:16:25.999Z</time></trkpt><trkpt lat="39.9630874" lon="-0.2659025"><ele>200.0</ele><time>2026-04-19T18:16:27.999Z</time></trkpt><trkpt lat="39.9631539" lon="-0.2659653"><ele>200.0</ele><time>2026-04-19T18:16:29.999Z</time></trkpt><trkpt lat="39.9632239" lon="-0.2660306"><ele>200.00000000000003</ele><time>2026-04-19T18:16:31.999Z</time></trkpt><trkpt lat="39.9632999" lon="-0.2660931"><ele>200.0</ele><time>2026-04-19T18:16:33.999Z</time></trkpt><trkpt lat="39.9633748" lon="-0.2661688"><ele>200.00000000000003</ele><time>2026-04-19T18:16:35.999Z</time></trkpt><trkpt lat="39.9634621" lon="-0.2662302"><ele>200.0</ele><time>2026-04-19T18:16:37.999Z</time></trkpt><trkpt lat="39.9635389" lon="-0.2662832"><ele>200.0</ele><time>2026-04-19T18:16:40Z</time></trkpt><trkpt lat="39.9636108" lon="-0.2663666"><ele>200.0</ele><time>2026-04-19T18:16:41.999Z</time></trkpt><trkpt lat="39.9636582" lon="-0.2664487"><ele>200.00000000000003</ele><time>2026-04-19T18:16:43.999Z</time></trkpt><trkpt lat="39.9636688" lon="-0.2665363"><ele>200.0</ele><time>2026-04-19T18:16:45Z</time></trkpt><trkpt lat="39.9636341" lon="-0.2666542"><ele>200.0</ele><time>2026-04-19T18:16:46.999Z</time></trkpt><trkpt lat="39.9635758" lon="-0.266771"><ele>200.0</ele><time>2026-04-19T18:16:48.999Z</time></trkpt><trkpt lat="39.9635043" lon="-0.2669099"><ele>200.0</ele><time>2026-04-19T18:16:50.999Z</time></trkpt><trkpt lat="39.9634363" lon="-0.2670466"><ele>200.0</ele><time>2026-04-19T18:16:52.999Z</time></trkpt><trkpt lat="39.9633984" lon="-0.2671171"><ele>200.0</ele><time>2026-04-19T18:16:53.999Z</time></trkpt><trkpt lat="39.9633626" lon="-0.2671909"><ele>200.00000000000003</ele><time>2026-04-19T18:16:54.999Z</time></trkpt><trkpt lat="39.9633317" lon="-0.2672772"><ele>200.0</ele><time>2026-04-19T18:16:55.999Z</time></trkpt><trkpt lat="39.9632945" lon="-0.2673558"><ele>200.0</ele><time>2026-04-19T18:16:56.999Z</time></trkpt><trkpt lat="39.9632579" lon="-0.2674366"><ele>200.0</ele><time>2026-04-19T18:16:57.999Z</time></trkpt><trkpt lat="39.9632224" lon="-0.2675141"><ele>200.0</ele><time>2026-04-19T18:16:58.999Z</time></trkpt><trkpt lat="39.963181" lon="-0.2675884"><ele>200.00000000000003</ele><time>2026-04-19T18:16:59.999Z</time></trkpt><trkpt lat="39.9631391" lon="-0.2676661"><ele>200.0</ele><time>2026-04-19T18:17:00.999Z</time></trkpt><trkpt lat="39.9630982" lon="-0.2677383"><ele>199.2</ele><time>2026-04-19T18:17:02Z</time></trkpt><trkpt lat="39.9630278" lon="-0.2678687"><ele>198.4</ele><time>2026-04-19T18:17:03.999Z</time></trkpt><trkpt lat="39.9629609" lon="-0.2679936"><ele>197.60000000000002</ele><time>2026-04-19T18:17:06Z</time></trkpt><trkpt lat="39.9629239" lon="-0.2680653"><ele>196.8</ele><time>2026-04-19T18:17:06.999Z</time></trkpt><trkpt lat="39.9628815" lon="-0.2681548"><ele>196.0</ele><time>2026-04-19T18:17:08Z</time></trkpt><trkpt lat="39.962834" lon="-0.2682486"><ele>195.49999999999997</ele><time>2026-04-19T18:17:09Z</time></trkpt><trkpt lat="39.9627828" lon="-0.2683509"><ele>195.0</ele><time>2026-04-19T18:17:09.999Z</time></trkpt><trkpt lat="39.9627319" lon="-0.2684551"><ele>194.5</ele><time>2026-04-19T18:17:11Z</time></trkpt><trkpt lat="39.9626853" lon="-0.2685517"><ele>194.0</ele><time>2026-04-19T18:17:11.999Z</time></trkpt><trkpt lat="39.962653" lon="-0.2686319"><ele>193.49999999999997</ele><time>2026-04-19T18:17:12.999Z</time></trkpt><trkpt lat="39.9626302" lon="-0.2687452"><ele>193.0</ele><time>2026-04-19T18:17:14.999Z</time></trkpt><trkpt lat="39.9626452" lon="-0.2688588"><ele>192.99999999999997</ele><time>2026-04-19T18:17:18Z</time></trkpt><trkpt lat="39.9626853" lon="-0.2689391"><ele>193.0</ele><time>2026-04-19T18:17:19.999Z</time></trkpt><trkpt lat="39.9627596" lon="-0.2690392"><ele>193.0</ele><time>2026-04-19T18:17:21.999Z</time></trkpt><trkpt lat="39.9628066" lon="-0.2690948"><ele>193.0</ele><time>2026-04-19T18:17:23Z</time></trkpt><trkpt lat="39.9628523" lon="-0.2691541"><ele>192.99999999999997</ele><time>2026-04-19T18:17:23.999Z</time></trkpt><trkpt lat="39.9629049" lon="-0.2692256"><ele>193.0</ele><time>2026-04-19T18:17:24.999Z</time></trkpt><trkpt lat="39.9629602" lon="-0.2692948"><ele>193.16666666666666</ele><time>2026-04-19T18:17:26Z</time></trkpt><trkpt lat="39.9630221" lon="-0.2693683"><ele>193.33333333333331</ele><time>2026-04-19T18:17:27Z</time></trkpt><trkpt lat="39.9630852" lon="-0.2694447"><ele>193.5</ele><time>2026-04-19T18:17:27.999Z</time></trkpt><trkpt lat="39.9631506" lon="-0.2695177"><ele>193.66666666666669</ele><time>2026-04-19T18:17:28.999Z</time></trkpt><trkpt lat="39.9632093" lon="-0.2695927"><ele>193.83333333333334</ele><time>2026-04-19T18:17:29.999Z</time></trkpt><trkpt lat="39.9632592" lon="-0.2696535"><ele>194.0</ele><time>2026-04-19T18:17:31Z</time></trkpt><trkpt lat="39.9633164" lon="-0.2697157"><ele>194.50000000000003</ele><time>2026-04-19T18:17:32.999Z</time></trkpt><trkpt lat="39.9633882" lon="-0.2697479"><ele>195.0</ele><time>2026-04-19T18:17:38.999Z</time></trkpt><trkpt lat="39.9634542" lon="-0.2697783"><ele>195.5</ele><time>2026-04-19T18:17:39.999Z</time></trkpt><trkpt lat="39.9635053" lon="-0.2698348"><ele>196.0</ele><time>2026-04-19T18:17:40.999Z</time></trkpt><trkpt lat="39.9635337" lon="-0.2699099"><ele>196.50000000000003</ele><time>2026-04-19T18:17:42Z</time></trkpt><trkpt lat="39.9635048" lon="-0.2700658"><ele>197.0</ele><time>2026-04-19T18:17:44Z</time></trkpt><trkpt lat="39.9634809" lon="-0.2701529"><ele>197.2</ele><time>2026-04-19T18:17:44.999Z</time></trkpt><trkpt lat="39.9634642" lon="-0.2702476"><ele>197.39999999999998</ele><time>2026-04-19T18:17:45.999Z</time></trkpt><trkpt lat="39.9634589" lon="-0.2703468"><ele>197.60000000000002</ele><time>2026-04-19T18:17:46.999Z</time></trkpt><trkpt lat="39.9634508" lon="-0.2704997"><ele>197.8</ele><time>2026-04-19T18:17:48.957Z</time></trkpt><trkpt lat="39.9634452" lon="-0.2706762"><ele>198.0</ele><time>2026-04-19T18:17:49.999Z</time></trkpt><trkpt lat="39.9634383" lon="-0.2707932"><ele>198.2</ele><time>2026-04-19T18:17:51Z</time></trkpt><trkpt lat="39.9634352" lon="-0.2709168"><ele>198.4</ele><time>2026-04-19T18:17:51.999Z</time></trkpt><trkpt lat="39.9634365" lon="-0.2710403"><ele>198.6</ele><time>2026-04-19T18:17:53Z</time></trkpt><trkpt lat="39.9634323" lon="-0.2711634"><ele>198.79999999999998</ele><time>2026-04-19T18:17:54Z</time></trkpt><trkpt lat="39.9634261" lon="-0.2712883"><ele>199.0</ele><time>2026-04-19T18:17:54.999Z</time></trkpt><trkpt lat="39.9634195" lon="-0.2714165"><ele>199.99999999999997</ele><time>2026-04-19T18:17:55.999Z</time></trkpt><trkpt lat="39.9634136" lon="-0.2715473"><ele>201.0</ele><time>2026-04-19T18:17:56.999Z</time></trkpt><trkpt lat="39.9634101" lon="-0.2716788"><ele>202.0</ele><time>2026-04-19T18:17:57.999Z</time></trkpt><trkpt lat="39.963406" lon="-0.2718015"><ele>203.0</ele><time>2026-04-19T18:17:58.999Z</time></trkpt><trkpt lat="39.9634008" lon="-0.2719046"><ele>203.99999999999997</ele><time>2026-04-19T18:17:59.999Z</time></trkpt><trkpt lat="39.9633965" lon="-0.2719897"><ele>205.0</ele><time>2026-04-19T18:18:00.999Z</time></trkpt><trkpt lat="39.9633821" lon="-0.2721186"><ele>205.0</ele><time>2026-04-19T18:18:02.999Z</time></trkpt><trkpt lat="39.9633414" lon="-0.27225"><ele>205.0</ele><time>2026-04-19T18:18:05Z</time></trkpt><trkpt lat="39.9632804" lon="-0.2723765"><ele>205.0</ele><time>2026-04-19T18:18:07Z</time></trkpt><trkpt lat="39.9632339" lon="-0.2724418"><ele>205.0</ele><time>2026-04-19T18:18:07.999Z</time></trkpt><trkpt lat="39.9631792" lon="-0.2725124"><ele>205.0</ele><time>2026-04-19T18:18:09Z</time></trkpt><trkpt lat="39.9631146" lon="-0.2725933"><ele>206.2</ele><time>2026-04-19T18:18:09.999Z</time></trkpt><trkpt lat="39.9630533" lon="-0.2726761"><ele>207.4</ele><time>2026-04-19T18:18:10.999Z</time></trkpt><trkpt lat="39.9629908" lon="-0.2727635"><ele>208.60000000000002</ele><time>2026-04-19T18:18:12Z</time></trkpt><trkpt lat="39.9629249" lon="-0.272853"><ele>209.8</ele><time>2026-04-19T18:18:12.999Z</time></trkpt><trkpt lat="39.9628548" lon="-0.2729439"><ele>211.0</ele><time>2026-04-19T18:18:13.999Z</time></trkpt><trkpt lat="39.9627817" lon="-0.2730446"><ele>211.20000000000002</ele><time>2026-04-19T18:18:14.999Z</time></trkpt><trkpt lat="39.9627073" lon="-0.2731449"><ele>211.4</ele><time>2026-04-19T18:18:15.999Z</time></trkpt><trkpt lat="39.9626304" lon="-0.2732492"><ele>211.6</ele><time>2026-04-19T18:18:16.999Z</time></trkpt><trkpt lat="39.9625546" lon="-0.2733495"><ele>211.8</ele><time>2026-04-19T18:18:18Z</time></trkpt><trkpt lat="39.9624892" lon="-0.2734405"><ele>212.0</ele><time>2026-04-19T18:18:18.999Z</time></trkpt><trkpt lat="39.9624288" lon="-0.2735177"><ele>213.2</ele><time>2026-04-19T18:18:19.999Z</time></trkpt><trkpt lat="39.9623801" lon="-0.2735857"><ele>214.39999999999998</ele><time>2026-04-19T18:18:20.999Z</time></trkpt><trkpt lat="39.9623008" lon="-0.2736902"><ele>215.60000000000002</ele><time>2026-04-19T18:18:22.999Z</time></trkpt><trkpt lat="39.9622127" lon="-0.2738182"><ele>216.8</ele><time>2026-04-19T18:18:24.999Z</time></trkpt><trkpt lat="39.9621655" lon="-0.2738859"><ele>218.0</ele><time>2026-04-19T18:18:25.999Z</time></trkpt><trkpt lat="39.9621165" lon="-0.273955"><ele>218.50000000000003</ele><time>2026-04-19T18:18:27Z</time></trkpt><trkpt lat="39.9620642" lon="-0.2740273"><ele>219.0</ele><time>2026-04-19T18:18:27.999Z</time></trkpt><trkpt lat="39.9620082" lon="-0.2741008"><ele>219.5</ele><time>2026-04-19T18:18:28.999Z</time></trkpt><trkpt lat="39.9619531" lon="-0.274178"><ele>220.0</ele><time>2026-04-19T18:18:29.999Z</time></trkpt><trkpt lat="39.9618967" lon="-0.2742544"><ele>220.50000000000003</ele><time>2026-04-19T18:18:31Z</time></trkpt><trkpt lat="39.9618465" lon="-0.274328"><ele>221.0</ele><time>2026-04-19T18:18:31.999Z</time></trkpt><trkpt lat="39.9617857" lon="-0.2744249"><ele>221.0</ele><time>2026-04-19T18:18:34Z</time></trkpt><trkpt lat="39.9617404" lon="-0.2744914"><ele>221.00000000000003</ele><time>2026-04-19T18:18:36.999Z</time></trkpt><trkpt lat="39.9616888" lon="-0.2745913"><ele>221.00000000000003</ele><time>2026-04-19T18:18:38.999Z</time></trkpt><trkpt lat="39.9616058" lon="-0.2747261"><ele>221.0</ele><time>2026-04-19T18:18:40.999Z</time></trkpt><trkpt lat="39.9615476" lon="-0.2748011"><ele>221.0</ele><time>2026-04-19T18:18:41.999Z</time></trkpt><trkpt lat="39.9614846" lon="-0.2748833"><ele>222.00000000000003</ele><time>2026-04-19T18:18:43Z</time></trkpt><trkpt lat="39.9614187" lon="-0.2749682"><ele>223.0</ele><time>2026-04-19T18:18:43.999Z</time></trkpt><trkpt lat="39.9613514" lon="-0.2750569"><ele>224.0</ele><time>2026-04-19T18:18:44.999Z</time></trkpt><trkpt lat="39.9612863" lon="-0.2751486"><ele>225.0</ele><time>2026-04-19T18:18:45.999Z</time></trkpt><trkpt lat="39.9612295" lon="-0.2752329"><ele>226.00000000000003</ele><time>2026-04-19T18:18:47Z</time></trkpt><trkpt lat="39.9611847" lon="-0.2753129"><ele>227.0</ele><time>2026-04-19T18:18:47.999Z</time></trkpt><trkpt lat="39.9611596" lon="-0.2753994"><ele>227.0</ele><time>2026-04-19T18:18:48.999Z</time></trkpt><trkpt lat="39.9611423" lon="-0.2755081"><ele>227.0</ele><time>2026-04-19T18:18:49.999Z</time></trkpt><trkpt lat="39.9611225" lon="-0.2756256"><ele>227.0</ele><time>2026-04-19T18:18:50.999Z</time></trkpt><trkpt lat="39.9610926" lon="-0.2757482"><ele>227.0</ele><time>2026-04-19T18:18:51.999Z</time></trkpt><trkpt lat="39.961049" lon="-0.275875"><ele>227.0</ele><time>2026-04-19T18:18:52.999Z</time></trkpt><trkpt lat="39.9609883" lon="-0.2759945"><ele>227.0</ele><time>2026-04-19T18:18:53.999Z</time></trkpt><trkpt lat="39.9609223" lon="-0.2761149"><ele>227.0</ele><time>2026-04-19T18:18:55Z</time></trkpt><trkpt lat="39.9608435" lon="-0.2762361"><ele>227.0</ele><time>2026-04-19T18:18:55.999Z</time></trkpt><trkpt lat="39.9607592" lon="-0.2763484"><ele>227.0</ele><time>2026-04-19T18:18:56.999Z</time></trkpt><trkpt lat="39.9606719" lon="-0.2764471"><ele>225.25</ele><time>2026-04-19T18:18:57.999Z</time></trkpt><trkpt lat="39.9605747" lon="-0.2765367"><ele>223.5</ele><time>2026-04-19T18:18:58.999Z</time></trkpt><trkpt lat="39.9604685" lon="-0.2766035"><ele>221.75</ele><time>2026-04-19T18:19:00Z</time></trkpt><trkpt lat="39.9603537" lon="-0.2766491"><ele>220.0</ele><time>2026-04-19T18:19:01Z</time></trkpt><trkpt lat="39.9602338" lon="-0.2766875"><ele>220.0</ele><time>2026-04-19T18:19:01.999Z</time></trkpt><trkpt lat="39.9601149" lon="-0.276728"><ele>220.0</ele><time>2026-04-19T18:19:02.999Z</time></trkpt><trkpt lat="39.9599938" lon="-0.2767654"><ele>220.0</ele><time>2026-04-19T18:19:03.999Z</time></trkpt><trkpt lat="39.9598725" lon="-0.2767993"><ele>220.0</ele><time>2026-04-19T18:19:05Z</time></trkpt><trkpt lat="39.9597554" lon="-0.2768352"><ele>220.83333333333331</ele><time>2026-04-19T18:19:06Z</time></trkpt><trkpt lat="39.9596564" lon="-0.2768615"><ele>221.66666666666666</ele><time>2026-04-19T18:19:06.999Z</time></trkpt><trkpt lat="39.9595717" lon="-0.2768803"><ele>222.5</ele><time>2026-04-19T18:19:07.999Z</time></trkpt><trkpt lat="39.9594946" lon="-0.2768978"><ele>223.33333333333331</ele><time>2026-04-19T18:19:08.999Z</time></trkpt><trkpt lat="39.9594194" lon="-0.2769173"><ele>224.16666666666666</ele><time>2026-04-19T18:19:09.999Z</time></trkpt><trkpt lat="39.9593449" lon="-0.2769236"><ele>225.0</ele><time>2026-04-19T18:19:10.999Z</time></trkpt><trkpt lat="39.9592738" lon="-0.2769123"><ele>224.16666666666666</ele><time>2026-04-19T18:19:11.999Z</time></trkpt><trkpt lat="39.9591979" lon="-0.2768758"><ele>223.33333333333331</ele><time>2026-04-19T18:19:12.999Z</time></trkpt><trkpt lat="39.9591245" lon="-0.2768262"><ele>222.5</ele><time>2026-04-19T18:19:13.999Z</time></trkpt><trkpt lat="39.9590579" lon="-0.2767608"><ele>221.66666666666666</ele><time>2026-04-19T18:19:15Z</time></trkpt><trkpt lat="39.9590043" lon="-0.2766824"><ele>220.83333333333331</ele><time>2026-04-19T18:19:15.999Z</time></trkpt><trkpt lat="39.9589614" lon="-0.2766028"><ele>220.0</ele><time>2026-04-19T18:19:16.999Z</time></trkpt><trkpt lat="39.9589206" lon="-0.2764786"><ele>220.0</ele><time>2026-04-19T18:19:18.999Z</time></trkpt><trkpt lat="39.9589112" lon="-0.2763924"><ele>226.0</ele><time>2026-04-19T18:19:22Z</time></trkpt><trkpt lat="39.9588481" lon="-0.2763619"><ele>226.0</ele><time>2026-04-19T18:20:18.999Z</time></trkpt><trkpt lat="39.9587746" lon="-0.2763877"><ele>226.0</ele><time>2026-04-19T18:27:02Z</time></trkpt></trkseg></trk></gpx>